<?xml version="1.0" encoding="UTF-8" standalone="no" ?>
<gpx xmlns="http://www.topografix.com/GPX/1/1" xmlns:xsi="http://www.w3.org/2001/XMLSchema-instance" xsi:schemaLocation="http://www.topografix.com/GPX/1/1 http://www.topografix.com/GPX/1/1/gpx.xsd" version="1.1" creator="VisuGPX - https://www.visugpx.com">
  <metadata>
    <name>NE-O-Indre Sautron Treillières Sucé St Mars Le Cellier Nantes</name>
    <desc><![CDATA[NE-O-Indre Sautron Treillières Sucé St Mars Le Cellier Nantes]]></desc>
  </metadata>
  <trk>
    <name><![CDATA[2021-10-23 13:29 GMT+2]]></name>
    <trkseg>
      <trkpt lat="47.16779" lon="-1.62636">
        <ele>60</ele>
        <time>2021-10-23T11:29:28.852Z</time>
      </trkpt>
      <trkpt lat="47.16759" lon="-1.62647">
        <ele>65</ele>
        <time>2021-10-23T11:29:31Z</time>
      </trkpt>
      <trkpt lat="47.16771" lon="-1.62651">
        <ele>62</ele>
        <time>2021-10-23T11:29:32Z</time>
      </trkpt>
      <trkpt lat="47.16773" lon="-1.62647">
        <ele>69</ele>
        <time>2021-10-23T11:31:33Z</time>
      </trkpt>
      <trkpt lat="47.16769" lon="-1.62651">
        <ele>74</ele>
        <time>2021-10-23T11:33:34Z</time>
      </trkpt>
      <trkpt lat="47.16778" lon="-1.62657">
        <ele>74</ele>
        <time>2021-10-23T11:35:16Z</time>
      </trkpt>
      <trkpt lat="47.16773" lon="-1.62674">
        <ele>73</ele>
        <time>2021-10-23T11:35:19Z</time>
      </trkpt>
      <trkpt lat="47.16763" lon="-1.62676">
        <ele>73</ele>
        <time>2021-10-23T11:35:21Z</time>
      </trkpt>
      <trkpt lat="47.16753" lon="-1.62671">
        <ele>73</ele>
        <time>2021-10-23T11:35:23Z</time>
      </trkpt>
      <trkpt lat="47.16742" lon="-1.62675">
        <ele>73</ele>
        <time>2021-10-23T11:35:25Z</time>
      </trkpt>
      <trkpt lat="47.16731" lon="-1.62683">
        <ele>72</ele>
        <time>2021-10-23T11:35:27Z</time>
      </trkpt>
      <trkpt lat="47.1672" lon="-1.62691">
        <ele>72</ele>
        <time>2021-10-23T11:35:29Z</time>
      </trkpt>
      <trkpt lat="47.16717" lon="-1.62705">
        <ele>71</ele>
        <time>2021-10-23T11:35:31Z</time>
      </trkpt>
      <trkpt lat="47.16725" lon="-1.62719">
        <ele>71</ele>
        <time>2021-10-23T11:35:33Z</time>
      </trkpt>
      <trkpt lat="47.16732" lon="-1.62733">
        <ele>71</ele>
        <time>2021-10-23T11:35:35Z</time>
      </trkpt>
      <trkpt lat="47.16741" lon="-1.62747">
        <ele>71</ele>
        <time>2021-10-23T11:35:37Z</time>
      </trkpt>
      <trkpt lat="47.1675" lon="-1.62759">
        <ele>70</ele>
        <time>2021-10-23T11:35:39Z</time>
      </trkpt>
      <trkpt lat="47.16761" lon="-1.6277">
        <ele>70</ele>
        <time>2021-10-23T11:35:41Z</time>
      </trkpt>
      <trkpt lat="47.16773" lon="-1.6278">
        <ele>70</ele>
        <time>2021-10-23T11:35:43Z</time>
      </trkpt>
      <trkpt lat="47.16785" lon="-1.62791">
        <ele>70</ele>
        <time>2021-10-23T11:35:45Z</time>
      </trkpt>
      <trkpt lat="47.16797" lon="-1.62802">
        <ele>70</ele>
        <time>2021-10-23T11:35:47Z</time>
      </trkpt>
      <trkpt lat="47.16808" lon="-1.62813">
        <ele>71</ele>
        <time>2021-10-23T11:35:49Z</time>
      </trkpt>
      <trkpt lat="47.16819" lon="-1.62823">
        <ele>71</ele>
        <time>2021-10-23T11:35:51Z</time>
      </trkpt>
      <trkpt lat="47.1683" lon="-1.62833">
        <ele>71</ele>
        <time>2021-10-23T11:35:53Z</time>
      </trkpt>
      <trkpt lat="47.1684" lon="-1.62844">
        <ele>72</ele>
        <time>2021-10-23T11:35:55Z</time>
      </trkpt>
      <trkpt lat="47.16851" lon="-1.62854">
        <ele>73</ele>
        <time>2021-10-23T11:35:57Z</time>
      </trkpt>
      <trkpt lat="47.16862" lon="-1.62864">
        <ele>73</ele>
        <time>2021-10-23T11:35:59Z</time>
      </trkpt>
      <trkpt lat="47.16871" lon="-1.62876">
        <ele>74</ele>
        <time>2021-10-23T11:36:01Z</time>
      </trkpt>
      <trkpt lat="47.16879" lon="-1.6289">
        <ele>74</ele>
        <time>2021-10-23T11:36:03Z</time>
      </trkpt>
      <trkpt lat="47.16885" lon="-1.62907">
        <ele>74</ele>
        <time>2021-10-23T11:36:05Z</time>
      </trkpt>
      <trkpt lat="47.16889" lon="-1.62924">
        <ele>74</ele>
        <time>2021-10-23T11:36:07Z</time>
      </trkpt>
      <trkpt lat="47.16891" lon="-1.62942">
        <ele>74</ele>
        <time>2021-10-23T11:36:09Z</time>
      </trkpt>
      <trkpt lat="47.16892" lon="-1.62961">
        <ele>74</ele>
        <time>2021-10-23T11:36:11Z</time>
      </trkpt>
      <trkpt lat="47.16891" lon="-1.62981">
        <ele>74</ele>
        <time>2021-10-23T11:36:13Z</time>
      </trkpt>
      <trkpt lat="47.16889" lon="-1.63">
        <ele>75</ele>
        <time>2021-10-23T11:36:15Z</time>
      </trkpt>
      <trkpt lat="47.16887" lon="-1.63019">
        <ele>75</ele>
        <time>2021-10-23T11:36:17Z</time>
      </trkpt>
      <trkpt lat="47.16886" lon="-1.63039">
        <ele>76</ele>
        <time>2021-10-23T11:36:19Z</time>
      </trkpt>
      <trkpt lat="47.16887" lon="-1.63057">
        <ele>76</ele>
        <time>2021-10-23T11:36:21Z</time>
      </trkpt>
      <trkpt lat="47.16889" lon="-1.63077">
        <ele>76</ele>
        <time>2021-10-23T11:36:23Z</time>
      </trkpt>
      <trkpt lat="47.16892" lon="-1.63095">
        <ele>77</ele>
        <time>2021-10-23T11:36:25Z</time>
      </trkpt>
      <trkpt lat="47.16896" lon="-1.63112">
        <ele>77</ele>
        <time>2021-10-23T11:36:27Z</time>
      </trkpt>
      <trkpt lat="47.16901" lon="-1.6313">
        <ele>77</ele>
        <time>2021-10-23T11:36:29Z</time>
      </trkpt>
      <trkpt lat="47.16906" lon="-1.63146">
        <ele>78</ele>
        <time>2021-10-23T11:36:31Z</time>
      </trkpt>
      <trkpt lat="47.16912" lon="-1.63162">
        <ele>78</ele>
        <time>2021-10-23T11:36:33Z</time>
      </trkpt>
      <trkpt lat="47.16919" lon="-1.63177">
        <ele>78</ele>
        <time>2021-10-23T11:36:35Z</time>
      </trkpt>
      <trkpt lat="47.16927" lon="-1.63191">
        <ele>78</ele>
        <time>2021-10-23T11:36:37Z</time>
      </trkpt>
      <trkpt lat="47.16935" lon="-1.63204">
        <ele>78</ele>
        <time>2021-10-23T11:36:39Z</time>
      </trkpt>
      <trkpt lat="47.16943" lon="-1.63217">
        <ele>78</ele>
        <time>2021-10-23T11:36:41Z</time>
      </trkpt>
      <trkpt lat="47.16952" lon="-1.63228">
        <ele>78</ele>
        <time>2021-10-23T11:36:43Z</time>
      </trkpt>
      <trkpt lat="47.1696" lon="-1.63239">
        <ele>78</ele>
        <time>2021-10-23T11:36:45Z</time>
      </trkpt>
      <trkpt lat="47.16968" lon="-1.6325">
        <ele>78</ele>
        <time>2021-10-23T11:36:48Z</time>
      </trkpt>
      <trkpt lat="47.16964" lon="-1.63263">
        <ele>78</ele>
        <time>2021-10-23T11:36:50Z</time>
      </trkpt>
      <trkpt lat="47.16956" lon="-1.63276">
        <ele>78</ele>
        <time>2021-10-23T11:36:52Z</time>
      </trkpt>
      <trkpt lat="47.16948" lon="-1.63291">
        <ele>79</ele>
        <time>2021-10-23T11:36:54Z</time>
      </trkpt>
      <trkpt lat="47.16939" lon="-1.63305">
        <ele>79</ele>
        <time>2021-10-23T11:36:56Z</time>
      </trkpt>
      <trkpt lat="47.1693" lon="-1.63319">
        <ele>79</ele>
        <time>2021-10-23T11:36:58Z</time>
      </trkpt>
      <trkpt lat="47.16921" lon="-1.63332">
        <ele>79</ele>
        <time>2021-10-23T11:37:00Z</time>
      </trkpt>
      <trkpt lat="47.16911" lon="-1.63346">
        <ele>79</ele>
        <time>2021-10-23T11:37:02Z</time>
      </trkpt>
      <trkpt lat="47.16902" lon="-1.63359">
        <ele>79</ele>
        <time>2021-10-23T11:37:04Z</time>
      </trkpt>
      <trkpt lat="47.16893" lon="-1.63372">
        <ele>80</ele>
        <time>2021-10-23T11:37:06Z</time>
      </trkpt>
      <trkpt lat="47.16884" lon="-1.63386">
        <ele>80</ele>
        <time>2021-10-23T11:37:08Z</time>
      </trkpt>
      <trkpt lat="47.16876" lon="-1.63401">
        <ele>80</ele>
        <time>2021-10-23T11:37:10Z</time>
      </trkpt>
      <trkpt lat="47.16863" lon="-1.63423">
        <ele>80</ele>
        <time>2021-10-23T11:37:13Z</time>
      </trkpt>
      <trkpt lat="47.16855" lon="-1.63437">
        <ele>80</ele>
        <time>2021-10-23T11:37:15Z</time>
      </trkpt>
      <trkpt lat="47.16847" lon="-1.63452">
        <ele>81</ele>
        <time>2021-10-23T11:37:17Z</time>
      </trkpt>
      <trkpt lat="47.16839" lon="-1.63466">
        <ele>81</ele>
        <time>2021-10-23T11:37:19Z</time>
      </trkpt>
      <trkpt lat="47.1683" lon="-1.63481">
        <ele>81</ele>
        <time>2021-10-23T11:37:21Z</time>
      </trkpt>
      <trkpt lat="47.16821" lon="-1.63496">
        <ele>81</ele>
        <time>2021-10-23T11:37:23Z</time>
      </trkpt>
      <trkpt lat="47.16807" lon="-1.63518">
        <ele>81</ele>
        <time>2021-10-23T11:37:26Z</time>
      </trkpt>
      <trkpt lat="47.16799" lon="-1.63533">
        <ele>81</ele>
        <time>2021-10-23T11:37:28Z</time>
      </trkpt>
      <trkpt lat="47.16785" lon="-1.63555">
        <ele>81</ele>
        <time>2021-10-23T11:37:31Z</time>
      </trkpt>
      <trkpt lat="47.16777" lon="-1.6357">
        <ele>81</ele>
        <time>2021-10-23T11:37:33Z</time>
      </trkpt>
      <trkpt lat="47.16768" lon="-1.63585">
        <ele>81</ele>
        <time>2021-10-23T11:37:35Z</time>
      </trkpt>
      <trkpt lat="47.16759" lon="-1.636">
        <ele>80</ele>
        <time>2021-10-23T11:37:37Z</time>
      </trkpt>
      <trkpt lat="47.16751" lon="-1.63615">
        <ele>80</ele>
        <time>2021-10-23T11:37:39Z</time>
      </trkpt>
      <trkpt lat="47.16744" lon="-1.63628">
        <ele>80</ele>
        <time>2021-10-23T11:37:41Z</time>
      </trkpt>
      <trkpt lat="47.16747" lon="-1.63643">
        <ele>80</ele>
        <time>2021-10-23T11:37:43Z</time>
      </trkpt>
      <trkpt lat="47.1676" lon="-1.63646">
        <ele>80</ele>
        <time>2021-10-23T11:37:45Z</time>
      </trkpt>
      <trkpt lat="47.16773" lon="-1.6365">
        <ele>80</ele>
        <time>2021-10-23T11:37:47Z</time>
      </trkpt>
      <trkpt lat="47.16786" lon="-1.63656">
        <ele>80</ele>
        <time>2021-10-23T11:37:49Z</time>
      </trkpt>
      <trkpt lat="47.16799" lon="-1.63661">
        <ele>80</ele>
        <time>2021-10-23T11:37:51Z</time>
      </trkpt>
      <trkpt lat="47.16812" lon="-1.63666">
        <ele>80</ele>
        <time>2021-10-23T11:37:53Z</time>
      </trkpt>
      <trkpt lat="47.16826" lon="-1.63671">
        <ele>80</ele>
        <time>2021-10-23T11:37:55Z</time>
      </trkpt>
      <trkpt lat="47.16839" lon="-1.63676">
        <ele>80</ele>
        <time>2021-10-23T11:37:57Z</time>
      </trkpt>
      <trkpt lat="47.16852" lon="-1.63681">
        <ele>81</ele>
        <time>2021-10-23T11:37:59Z</time>
      </trkpt>
      <trkpt lat="47.16866" lon="-1.63686">
        <ele>81</ele>
        <time>2021-10-23T11:38:01Z</time>
      </trkpt>
      <trkpt lat="47.16879" lon="-1.6369">
        <ele>81</ele>
        <time>2021-10-23T11:38:03Z</time>
      </trkpt>
      <trkpt lat="47.16893" lon="-1.63696">
        <ele>81</ele>
        <time>2021-10-23T11:38:05Z</time>
      </trkpt>
      <trkpt lat="47.16906" lon="-1.63701">
        <ele>81</ele>
        <time>2021-10-23T11:38:07Z</time>
      </trkpt>
      <trkpt lat="47.1692" lon="-1.63706">
        <ele>81</ele>
        <time>2021-10-23T11:38:09Z</time>
      </trkpt>
      <trkpt lat="47.16933" lon="-1.63711">
        <ele>80</ele>
        <time>2021-10-23T11:38:11Z</time>
      </trkpt>
      <trkpt lat="47.16947" lon="-1.63716">
        <ele>80</ele>
        <time>2021-10-23T11:38:13Z</time>
      </trkpt>
      <trkpt lat="47.1696" lon="-1.63721">
        <ele>81</ele>
        <time>2021-10-23T11:38:15Z</time>
      </trkpt>
      <trkpt lat="47.16974" lon="-1.63726">
        <ele>81</ele>
        <time>2021-10-23T11:38:17Z</time>
      </trkpt>
      <trkpt lat="47.16987" lon="-1.63731">
        <ele>81</ele>
        <time>2021-10-23T11:38:19Z</time>
      </trkpt>
      <trkpt lat="47.17001" lon="-1.63736">
        <ele>81</ele>
        <time>2021-10-23T11:38:21Z</time>
      </trkpt>
      <trkpt lat="47.17014" lon="-1.63741">
        <ele>81</ele>
        <time>2021-10-23T11:38:23Z</time>
      </trkpt>
      <trkpt lat="47.17027" lon="-1.63746">
        <ele>81</ele>
        <time>2021-10-23T11:38:25Z</time>
      </trkpt>
      <trkpt lat="47.1704" lon="-1.63751">
        <ele>81</ele>
        <time>2021-10-23T11:38:27Z</time>
      </trkpt>
      <trkpt lat="47.17052" lon="-1.6376">
        <ele>81</ele>
        <time>2021-10-23T11:38:29Z</time>
      </trkpt>
      <trkpt lat="47.17062" lon="-1.63774">
        <ele>81</ele>
        <time>2021-10-23T11:38:31Z</time>
      </trkpt>
      <trkpt lat="47.17069" lon="-1.63792">
        <ele>81</ele>
        <time>2021-10-23T11:38:33Z</time>
      </trkpt>
      <trkpt lat="47.17075" lon="-1.6381">
        <ele>80</ele>
        <time>2021-10-23T11:38:35Z</time>
      </trkpt>
      <trkpt lat="47.17081" lon="-1.63828">
        <ele>80</ele>
        <time>2021-10-23T11:38:37Z</time>
      </trkpt>
      <trkpt lat="47.17087" lon="-1.63846">
        <ele>80</ele>
        <time>2021-10-23T11:38:39Z</time>
      </trkpt>
      <trkpt lat="47.17093" lon="-1.63863">
        <ele>80</ele>
        <time>2021-10-23T11:38:41Z</time>
      </trkpt>
      <trkpt lat="47.17099" lon="-1.63881">
        <ele>80</ele>
        <time>2021-10-23T11:38:43Z</time>
      </trkpt>
      <trkpt lat="47.17105" lon="-1.63898">
        <ele>80</ele>
        <time>2021-10-23T11:38:45Z</time>
      </trkpt>
      <trkpt lat="47.17112" lon="-1.63914">
        <ele>80</ele>
        <time>2021-10-23T11:38:47Z</time>
      </trkpt>
      <trkpt lat="47.17118" lon="-1.6393">
        <ele>80</ele>
        <time>2021-10-23T11:38:49Z</time>
      </trkpt>
      <trkpt lat="47.17126" lon="-1.63938">
        <ele>81</ele>
        <time>2021-10-23T11:38:51Z</time>
      </trkpt>
      <trkpt lat="47.17137" lon="-1.63948">
        <ele>81</ele>
        <time>2021-10-23T11:38:54Z</time>
      </trkpt>
      <trkpt lat="47.1714" lon="-1.63965">
        <ele>80</ele>
        <time>2021-10-23T11:38:56Z</time>
      </trkpt>
      <trkpt lat="47.17139" lon="-1.63983">
        <ele>80</ele>
        <time>2021-10-23T11:38:58Z</time>
      </trkpt>
      <trkpt lat="47.17138" lon="-1.64002">
        <ele>80</ele>
        <time>2021-10-23T11:39:00Z</time>
      </trkpt>
      <trkpt lat="47.17135" lon="-1.64022">
        <ele>80</ele>
        <time>2021-10-23T11:39:02Z</time>
      </trkpt>
      <trkpt lat="47.17133" lon="-1.64042">
        <ele>81</ele>
        <time>2021-10-23T11:39:04Z</time>
      </trkpt>
      <trkpt lat="47.17131" lon="-1.64062">
        <ele>81</ele>
        <time>2021-10-23T11:39:06Z</time>
      </trkpt>
      <trkpt lat="47.17129" lon="-1.64082">
        <ele>81</ele>
        <time>2021-10-23T11:39:08Z</time>
      </trkpt>
      <trkpt lat="47.17126" lon="-1.64103">
        <ele>81</ele>
        <time>2021-10-23T11:39:10Z</time>
      </trkpt>
      <trkpt lat="47.17124" lon="-1.64123">
        <ele>82</ele>
        <time>2021-10-23T11:39:12Z</time>
      </trkpt>
      <trkpt lat="47.17122" lon="-1.64143">
        <ele>82</ele>
        <time>2021-10-23T11:39:14Z</time>
      </trkpt>
      <trkpt lat="47.1712" lon="-1.64164">
        <ele>82</ele>
        <time>2021-10-23T11:39:16Z</time>
      </trkpt>
      <trkpt lat="47.17118" lon="-1.64185">
        <ele>82</ele>
        <time>2021-10-23T11:39:18Z</time>
      </trkpt>
      <trkpt lat="47.17115" lon="-1.64206">
        <ele>82</ele>
        <time>2021-10-23T11:39:20Z</time>
      </trkpt>
      <trkpt lat="47.17113" lon="-1.64227">
        <ele>81</ele>
        <time>2021-10-23T11:39:22Z</time>
      </trkpt>
      <trkpt lat="47.17111" lon="-1.64248">
        <ele>81</ele>
        <time>2021-10-23T11:39:24Z</time>
      </trkpt>
      <trkpt lat="47.17109" lon="-1.64268">
        <ele>81</ele>
        <time>2021-10-23T11:39:26Z</time>
      </trkpt>
      <trkpt lat="47.17106" lon="-1.64289">
        <ele>82</ele>
        <time>2021-10-23T11:39:28Z</time>
      </trkpt>
      <trkpt lat="47.17104" lon="-1.6431">
        <ele>82</ele>
        <time>2021-10-23T11:39:30Z</time>
      </trkpt>
      <trkpt lat="47.17102" lon="-1.64331">
        <ele>81</ele>
        <time>2021-10-23T11:39:32Z</time>
      </trkpt>
      <trkpt lat="47.171" lon="-1.64352">
        <ele>81</ele>
        <time>2021-10-23T11:39:34Z</time>
      </trkpt>
      <trkpt lat="47.17098" lon="-1.64372">
        <ele>81</ele>
        <time>2021-10-23T11:39:36Z</time>
      </trkpt>
      <trkpt lat="47.17096" lon="-1.64393">
        <ele>82</ele>
        <time>2021-10-23T11:39:38Z</time>
      </trkpt>
      <trkpt lat="47.17095" lon="-1.64414">
        <ele>81</ele>
        <time>2021-10-23T11:39:40Z</time>
      </trkpt>
      <trkpt lat="47.17093" lon="-1.64434">
        <ele>81</ele>
        <time>2021-10-23T11:39:42Z</time>
      </trkpt>
      <trkpt lat="47.17092" lon="-1.64455">
        <ele>82</ele>
        <time>2021-10-23T11:39:44Z</time>
      </trkpt>
      <trkpt lat="47.17091" lon="-1.64475">
        <ele>82</ele>
        <time>2021-10-23T11:39:46Z</time>
      </trkpt>
      <trkpt lat="47.1709" lon="-1.64496">
        <ele>82</ele>
        <time>2021-10-23T11:39:48Z</time>
      </trkpt>
      <trkpt lat="47.17089" lon="-1.64517">
        <ele>82</ele>
        <time>2021-10-23T11:39:50Z</time>
      </trkpt>
      <trkpt lat="47.17088" lon="-1.64538">
        <ele>81</ele>
        <time>2021-10-23T11:39:52Z</time>
      </trkpt>
      <trkpt lat="47.17088" lon="-1.64559">
        <ele>81</ele>
        <time>2021-10-23T11:39:54Z</time>
      </trkpt>
      <trkpt lat="47.17088" lon="-1.6458">
        <ele>80</ele>
        <time>2021-10-23T11:39:56Z</time>
      </trkpt>
      <trkpt lat="47.17088" lon="-1.64601">
        <ele>80</ele>
        <time>2021-10-23T11:39:58Z</time>
      </trkpt>
      <trkpt lat="47.17087" lon="-1.64622">
        <ele>80</ele>
        <time>2021-10-23T11:40:00Z</time>
      </trkpt>
      <trkpt lat="47.17087" lon="-1.64643">
        <ele>80</ele>
        <time>2021-10-23T11:40:02Z</time>
      </trkpt>
      <trkpt lat="47.17088" lon="-1.64663">
        <ele>80</ele>
        <time>2021-10-23T11:40:04Z</time>
      </trkpt>
      <trkpt lat="47.17089" lon="-1.64684">
        <ele>80</ele>
        <time>2021-10-23T11:40:06Z</time>
      </trkpt>
      <trkpt lat="47.17089" lon="-1.64705">
        <ele>80</ele>
        <time>2021-10-23T11:40:08Z</time>
      </trkpt>
      <trkpt lat="47.17089" lon="-1.64726">
        <ele>80</ele>
        <time>2021-10-23T11:40:10Z</time>
      </trkpt>
      <trkpt lat="47.1709" lon="-1.64747">
        <ele>80</ele>
        <time>2021-10-23T11:40:12Z</time>
      </trkpt>
      <trkpt lat="47.17092" lon="-1.64768">
        <ele>80</ele>
        <time>2021-10-23T11:40:14Z</time>
      </trkpt>
      <trkpt lat="47.17093" lon="-1.64788">
        <ele>80</ele>
        <time>2021-10-23T11:40:16Z</time>
      </trkpt>
      <trkpt lat="47.17094" lon="-1.64809">
        <ele>80</ele>
        <time>2021-10-23T11:40:18Z</time>
      </trkpt>
      <trkpt lat="47.17096" lon="-1.64832">
        <ele>79</ele>
        <time>2021-10-23T11:40:20Z</time>
      </trkpt>
      <trkpt lat="47.17098" lon="-1.64854">
        <ele>79</ele>
        <time>2021-10-23T11:40:22Z</time>
      </trkpt>
      <trkpt lat="47.17099" lon="-1.64876">
        <ele>79</ele>
        <time>2021-10-23T11:40:24Z</time>
      </trkpt>
      <trkpt lat="47.171" lon="-1.64898">
        <ele>78</ele>
        <time>2021-10-23T11:40:26Z</time>
      </trkpt>
      <trkpt lat="47.17102" lon="-1.6492">
        <ele>78</ele>
        <time>2021-10-23T11:40:28Z</time>
      </trkpt>
      <trkpt lat="47.17103" lon="-1.64941">
        <ele>79</ele>
        <time>2021-10-23T11:40:30Z</time>
      </trkpt>
      <trkpt lat="47.17105" lon="-1.64962">
        <ele>79</ele>
        <time>2021-10-23T11:40:32Z</time>
      </trkpt>
      <trkpt lat="47.17106" lon="-1.64984">
        <ele>78</ele>
        <time>2021-10-23T11:40:34Z</time>
      </trkpt>
      <trkpt lat="47.17108" lon="-1.65005">
        <ele>78</ele>
        <time>2021-10-23T11:40:36Z</time>
      </trkpt>
      <trkpt lat="47.1711" lon="-1.65026">
        <ele>79</ele>
        <time>2021-10-23T11:40:38Z</time>
      </trkpt>
      <trkpt lat="47.17111" lon="-1.65046">
        <ele>79</ele>
        <time>2021-10-23T11:40:40Z</time>
      </trkpt>
      <trkpt lat="47.17113" lon="-1.65067">
        <ele>79</ele>
        <time>2021-10-23T11:40:42Z</time>
      </trkpt>
      <trkpt lat="47.17114" lon="-1.65088">
        <ele>79</ele>
        <time>2021-10-23T11:40:44Z</time>
      </trkpt>
      <trkpt lat="47.17116" lon="-1.65109">
        <ele>79</ele>
        <time>2021-10-23T11:40:46Z</time>
      </trkpt>
      <trkpt lat="47.17117" lon="-1.65131">
        <ele>80</ele>
        <time>2021-10-23T11:40:48Z</time>
      </trkpt>
      <trkpt lat="47.17118" lon="-1.65151">
        <ele>80</ele>
        <time>2021-10-23T11:40:50Z</time>
      </trkpt>
      <trkpt lat="47.1712" lon="-1.65172">
        <ele>80</ele>
        <time>2021-10-23T11:40:52Z</time>
      </trkpt>
      <trkpt lat="47.17121" lon="-1.65192">
        <ele>80</ele>
        <time>2021-10-23T11:40:54Z</time>
      </trkpt>
      <trkpt lat="47.17123" lon="-1.65211">
        <ele>80</ele>
        <time>2021-10-23T11:40:56Z</time>
      </trkpt>
      <trkpt lat="47.17125" lon="-1.6523">
        <ele>81</ele>
        <time>2021-10-23T11:40:58Z</time>
      </trkpt>
      <trkpt lat="47.17128" lon="-1.65248">
        <ele>82</ele>
        <time>2021-10-23T11:41:00Z</time>
      </trkpt>
      <trkpt lat="47.17134" lon="-1.65265">
        <ele>82</ele>
        <time>2021-10-23T11:41:02Z</time>
      </trkpt>
      <trkpt lat="47.17142" lon="-1.65277">
        <ele>82</ele>
        <time>2021-10-23T11:41:04Z</time>
      </trkpt>
      <trkpt lat="47.17152" lon="-1.65289">
        <ele>81</ele>
        <time>2021-10-23T11:41:06Z</time>
      </trkpt>
      <trkpt lat="47.17164" lon="-1.653">
        <ele>81</ele>
        <time>2021-10-23T11:41:08Z</time>
      </trkpt>
      <trkpt lat="47.17173" lon="-1.65316">
        <ele>81</ele>
        <time>2021-10-23T11:41:10Z</time>
      </trkpt>
      <trkpt lat="47.17178" lon="-1.65335">
        <ele>81</ele>
        <time>2021-10-23T11:41:12Z</time>
      </trkpt>
      <trkpt lat="47.17179" lon="-1.65357">
        <ele>80</ele>
        <time>2021-10-23T11:41:14Z</time>
      </trkpt>
      <trkpt lat="47.17176" lon="-1.65379">
        <ele>80</ele>
        <time>2021-10-23T11:41:16Z</time>
      </trkpt>
      <trkpt lat="47.17173" lon="-1.65401">
        <ele>81</ele>
        <time>2021-10-23T11:41:18Z</time>
      </trkpt>
      <trkpt lat="47.1717" lon="-1.65422">
        <ele>81</ele>
        <time>2021-10-23T11:41:20Z</time>
      </trkpt>
      <trkpt lat="47.17168" lon="-1.65443">
        <ele>81</ele>
        <time>2021-10-23T11:41:22Z</time>
      </trkpt>
      <trkpt lat="47.17165" lon="-1.65464">
        <ele>81</ele>
        <time>2021-10-23T11:41:24Z</time>
      </trkpt>
      <trkpt lat="47.17163" lon="-1.65484">
        <ele>80</ele>
        <time>2021-10-23T11:41:26Z</time>
      </trkpt>
      <trkpt lat="47.17161" lon="-1.65503">
        <ele>81</ele>
        <time>2021-10-23T11:41:28Z</time>
      </trkpt>
      <trkpt lat="47.1716" lon="-1.65523">
        <ele>81</ele>
        <time>2021-10-23T11:41:30Z</time>
      </trkpt>
      <trkpt lat="47.17158" lon="-1.65543">
        <ele>81</ele>
        <time>2021-10-23T11:41:32Z</time>
      </trkpt>
      <trkpt lat="47.17157" lon="-1.65563">
        <ele>81</ele>
        <time>2021-10-23T11:41:34Z</time>
      </trkpt>
      <trkpt lat="47.17156" lon="-1.65583">
        <ele>82</ele>
        <time>2021-10-23T11:41:36Z</time>
      </trkpt>
      <trkpt lat="47.17155" lon="-1.65603">
        <ele>82</ele>
        <time>2021-10-23T11:41:38Z</time>
      </trkpt>
      <trkpt lat="47.17154" lon="-1.65623">
        <ele>82</ele>
        <time>2021-10-23T11:41:40Z</time>
      </trkpt>
      <trkpt lat="47.17154" lon="-1.65643">
        <ele>81</ele>
        <time>2021-10-23T11:41:42Z</time>
      </trkpt>
      <trkpt lat="47.17154" lon="-1.65663">
        <ele>81</ele>
        <time>2021-10-23T11:41:44Z</time>
      </trkpt>
      <trkpt lat="47.17154" lon="-1.65684">
        <ele>81</ele>
        <time>2021-10-23T11:41:46Z</time>
      </trkpt>
      <trkpt lat="47.17155" lon="-1.65704">
        <ele>81</ele>
        <time>2021-10-23T11:41:48Z</time>
      </trkpt>
      <trkpt lat="47.17157" lon="-1.65724">
        <ele>81</ele>
        <time>2021-10-23T11:41:50Z</time>
      </trkpt>
      <trkpt lat="47.17159" lon="-1.65744">
        <ele>81</ele>
        <time>2021-10-23T11:41:52Z</time>
      </trkpt>
      <trkpt lat="47.17161" lon="-1.65764">
        <ele>81</ele>
        <time>2021-10-23T11:41:54Z</time>
      </trkpt>
      <trkpt lat="47.17163" lon="-1.65783">
        <ele>82</ele>
        <time>2021-10-23T11:41:56Z</time>
      </trkpt>
      <trkpt lat="47.17165" lon="-1.65803">
        <ele>81</ele>
        <time>2021-10-23T11:41:58Z</time>
      </trkpt>
      <trkpt lat="47.17168" lon="-1.65823">
        <ele>81</ele>
        <time>2021-10-23T11:42:00Z</time>
      </trkpt>
      <trkpt lat="47.17171" lon="-1.65843">
        <ele>81</ele>
        <time>2021-10-23T11:42:02Z</time>
      </trkpt>
      <trkpt lat="47.17174" lon="-1.65862">
        <ele>81</ele>
        <time>2021-10-23T11:42:04Z</time>
      </trkpt>
      <trkpt lat="47.17177" lon="-1.65882">
        <ele>81</ele>
        <time>2021-10-23T11:42:06Z</time>
      </trkpt>
      <trkpt lat="47.17181" lon="-1.65901">
        <ele>81</ele>
        <time>2021-10-23T11:42:08Z</time>
      </trkpt>
      <trkpt lat="47.17184" lon="-1.6592">
        <ele>81</ele>
        <time>2021-10-23T11:42:10Z</time>
      </trkpt>
      <trkpt lat="47.17188" lon="-1.65939">
        <ele>81</ele>
        <time>2021-10-23T11:42:12Z</time>
      </trkpt>
      <trkpt lat="47.17192" lon="-1.65958">
        <ele>81</ele>
        <time>2021-10-23T11:42:14Z</time>
      </trkpt>
      <trkpt lat="47.17196" lon="-1.65978">
        <ele>81</ele>
        <time>2021-10-23T11:42:16Z</time>
      </trkpt>
      <trkpt lat="47.17199" lon="-1.65997">
        <ele>81</ele>
        <time>2021-10-23T11:42:18Z</time>
      </trkpt>
      <trkpt lat="47.17203" lon="-1.66017">
        <ele>81</ele>
        <time>2021-10-23T11:42:20Z</time>
      </trkpt>
      <trkpt lat="47.17207" lon="-1.66036">
        <ele>81</ele>
        <time>2021-10-23T11:42:22Z</time>
      </trkpt>
      <trkpt lat="47.17211" lon="-1.66055">
        <ele>81</ele>
        <time>2021-10-23T11:42:24Z</time>
      </trkpt>
      <trkpt lat="47.17214" lon="-1.66074">
        <ele>81</ele>
        <time>2021-10-23T11:42:26Z</time>
      </trkpt>
      <trkpt lat="47.17217" lon="-1.66093">
        <ele>80</ele>
        <time>2021-10-23T11:42:28Z</time>
      </trkpt>
      <trkpt lat="47.17222" lon="-1.66111">
        <ele>80</ele>
        <time>2021-10-23T11:42:30Z</time>
      </trkpt>
      <trkpt lat="47.17227" lon="-1.66129">
        <ele>80</ele>
        <time>2021-10-23T11:42:32Z</time>
      </trkpt>
      <trkpt lat="47.17231" lon="-1.66147">
        <ele>80</ele>
        <time>2021-10-23T11:42:34Z</time>
      </trkpt>
      <trkpt lat="47.17235" lon="-1.66163">
        <ele>80</ele>
        <time>2021-10-23T11:42:36Z</time>
      </trkpt>
      <trkpt lat="47.17242" lon="-1.66177">
        <ele>80</ele>
        <time>2021-10-23T11:42:38Z</time>
      </trkpt>
      <trkpt lat="47.17249" lon="-1.66191">
        <ele>81</ele>
        <time>2021-10-23T11:42:40Z</time>
      </trkpt>
      <trkpt lat="47.17255" lon="-1.66205">
        <ele>82</ele>
        <time>2021-10-23T11:42:42Z</time>
      </trkpt>
      <trkpt lat="47.17262" lon="-1.66218">
        <ele>83</ele>
        <time>2021-10-23T11:42:44Z</time>
      </trkpt>
      <trkpt lat="47.1727" lon="-1.66231">
        <ele>84</ele>
        <time>2021-10-23T11:42:46Z</time>
      </trkpt>
      <trkpt lat="47.17277" lon="-1.66245">
        <ele>85</ele>
        <time>2021-10-23T11:42:48Z</time>
      </trkpt>
      <trkpt lat="47.17286" lon="-1.66259">
        <ele>85</ele>
        <time>2021-10-23T11:42:50Z</time>
      </trkpt>
      <trkpt lat="47.17294" lon="-1.66272">
        <ele>86</ele>
        <time>2021-10-23T11:42:52Z</time>
      </trkpt>
      <trkpt lat="47.17302" lon="-1.66286">
        <ele>87</ele>
        <time>2021-10-23T11:42:54Z</time>
      </trkpt>
      <trkpt lat="47.1731" lon="-1.66301">
        <ele>87</ele>
        <time>2021-10-23T11:42:56Z</time>
      </trkpt>
      <trkpt lat="47.17319" lon="-1.66318">
        <ele>86</ele>
        <time>2021-10-23T11:42:58Z</time>
      </trkpt>
      <trkpt lat="47.17326" lon="-1.66333">
        <ele>86</ele>
        <time>2021-10-23T11:43:00Z</time>
      </trkpt>
      <trkpt lat="47.17334" lon="-1.66346">
        <ele>86</ele>
        <time>2021-10-23T11:43:02Z</time>
      </trkpt>
      <trkpt lat="47.17341" lon="-1.66359">
        <ele>87</ele>
        <time>2021-10-23T11:43:04Z</time>
      </trkpt>
      <trkpt lat="47.17347" lon="-1.66373">
        <ele>88</ele>
        <time>2021-10-23T11:43:06Z</time>
      </trkpt>
      <trkpt lat="47.17355" lon="-1.66387">
        <ele>88</ele>
        <time>2021-10-23T11:43:08Z</time>
      </trkpt>
      <trkpt lat="47.17362" lon="-1.66401">
        <ele>88</ele>
        <time>2021-10-23T11:43:10Z</time>
      </trkpt>
      <trkpt lat="47.1737" lon="-1.66415">
        <ele>87</ele>
        <time>2021-10-23T11:43:12Z</time>
      </trkpt>
      <trkpt lat="47.17377" lon="-1.66429">
        <ele>87</ele>
        <time>2021-10-23T11:43:14Z</time>
      </trkpt>
      <trkpt lat="47.17386" lon="-1.66442">
        <ele>86</ele>
        <time>2021-10-23T11:43:16Z</time>
      </trkpt>
      <trkpt lat="47.17395" lon="-1.66457">
        <ele>86</ele>
        <time>2021-10-23T11:43:18Z</time>
      </trkpt>
      <trkpt lat="47.17403" lon="-1.66472">
        <ele>86</ele>
        <time>2021-10-23T11:43:20Z</time>
      </trkpt>
      <trkpt lat="47.17411" lon="-1.66486">
        <ele>86</ele>
        <time>2021-10-23T11:43:22Z</time>
      </trkpt>
      <trkpt lat="47.17419" lon="-1.66501">
        <ele>86</ele>
        <time>2021-10-23T11:43:24Z</time>
      </trkpt>
      <trkpt lat="47.17427" lon="-1.66516">
        <ele>86</ele>
        <time>2021-10-23T11:43:26Z</time>
      </trkpt>
      <trkpt lat="47.17434" lon="-1.66531">
        <ele>86</ele>
        <time>2021-10-23T11:43:28Z</time>
      </trkpt>
      <trkpt lat="47.17442" lon="-1.66546">
        <ele>86</ele>
        <time>2021-10-23T11:43:30Z</time>
      </trkpt>
      <trkpt lat="47.1745" lon="-1.66561">
        <ele>86</ele>
        <time>2021-10-23T11:43:32Z</time>
      </trkpt>
      <trkpt lat="47.17458" lon="-1.66575">
        <ele>86</ele>
        <time>2021-10-23T11:43:34Z</time>
      </trkpt>
      <trkpt lat="47.17466" lon="-1.66591">
        <ele>87</ele>
        <time>2021-10-23T11:43:36Z</time>
      </trkpt>
      <trkpt lat="47.17474" lon="-1.66605">
        <ele>87</ele>
        <time>2021-10-23T11:43:38Z</time>
      </trkpt>
      <trkpt lat="47.17482" lon="-1.6662">
        <ele>87</ele>
        <time>2021-10-23T11:43:40Z</time>
      </trkpt>
      <trkpt lat="47.1749" lon="-1.66636">
        <ele>87</ele>
        <time>2021-10-23T11:43:42Z</time>
      </trkpt>
      <trkpt lat="47.17498" lon="-1.66652">
        <ele>87</ele>
        <time>2021-10-23T11:43:44Z</time>
      </trkpt>
      <trkpt lat="47.17506" lon="-1.66667">
        <ele>86</ele>
        <time>2021-10-23T11:43:46Z</time>
      </trkpt>
      <trkpt lat="47.17515" lon="-1.66682">
        <ele>86</ele>
        <time>2021-10-23T11:43:48Z</time>
      </trkpt>
      <trkpt lat="47.17523" lon="-1.66697">
        <ele>85</ele>
        <time>2021-10-23T11:43:50Z</time>
      </trkpt>
      <trkpt lat="47.17531" lon="-1.66711">
        <ele>85</ele>
        <time>2021-10-23T11:43:52Z</time>
      </trkpt>
      <trkpt lat="47.17539" lon="-1.66726">
        <ele>86</ele>
        <time>2021-10-23T11:43:54Z</time>
      </trkpt>
      <trkpt lat="47.17547" lon="-1.66741">
        <ele>86</ele>
        <time>2021-10-23T11:43:56Z</time>
      </trkpt>
      <trkpt lat="47.17555" lon="-1.66755">
        <ele>86</ele>
        <time>2021-10-23T11:43:58Z</time>
      </trkpt>
      <trkpt lat="47.17563" lon="-1.6677">
        <ele>86</ele>
        <time>2021-10-23T11:44:00Z</time>
      </trkpt>
      <trkpt lat="47.17571" lon="-1.66786">
        <ele>86</ele>
        <time>2021-10-23T11:44:02Z</time>
      </trkpt>
      <trkpt lat="47.17579" lon="-1.66801">
        <ele>87</ele>
        <time>2021-10-23T11:44:04Z</time>
      </trkpt>
      <trkpt lat="47.17586" lon="-1.66815">
        <ele>87</ele>
        <time>2021-10-23T11:44:06Z</time>
      </trkpt>
      <trkpt lat="47.17594" lon="-1.6683">
        <ele>87</ele>
        <time>2021-10-23T11:44:08Z</time>
      </trkpt>
      <trkpt lat="47.17602" lon="-1.66845">
        <ele>87</ele>
        <time>2021-10-23T11:44:10Z</time>
      </trkpt>
      <trkpt lat="47.1761" lon="-1.66861">
        <ele>86</ele>
        <time>2021-10-23T11:44:12Z</time>
      </trkpt>
      <trkpt lat="47.17618" lon="-1.66876">
        <ele>86</ele>
        <time>2021-10-23T11:44:14Z</time>
      </trkpt>
      <trkpt lat="47.17627" lon="-1.66891">
        <ele>86</ele>
        <time>2021-10-23T11:44:16Z</time>
      </trkpt>
      <trkpt lat="47.17635" lon="-1.66905">
        <ele>86</ele>
        <time>2021-10-23T11:44:18Z</time>
      </trkpt>
      <trkpt lat="47.17644" lon="-1.66921">
        <ele>86</ele>
        <time>2021-10-23T11:44:20Z</time>
      </trkpt>
      <trkpt lat="47.17652" lon="-1.66937">
        <ele>86</ele>
        <time>2021-10-23T11:44:22Z</time>
      </trkpt>
      <trkpt lat="47.1766" lon="-1.66952">
        <ele>87</ele>
        <time>2021-10-23T11:44:24Z</time>
      </trkpt>
      <trkpt lat="47.17668" lon="-1.66967">
        <ele>86</ele>
        <time>2021-10-23T11:44:26Z</time>
      </trkpt>
      <trkpt lat="47.17676" lon="-1.66982">
        <ele>86</ele>
        <time>2021-10-23T11:44:28Z</time>
      </trkpt>
      <trkpt lat="47.17685" lon="-1.66997">
        <ele>85</ele>
        <time>2021-10-23T11:44:30Z</time>
      </trkpt>
      <trkpt lat="47.17693" lon="-1.67012">
        <ele>85</ele>
        <time>2021-10-23T11:44:32Z</time>
      </trkpt>
      <trkpt lat="47.177" lon="-1.67027">
        <ele>84</ele>
        <time>2021-10-23T11:44:34Z</time>
      </trkpt>
      <trkpt lat="47.17708" lon="-1.67042">
        <ele>84</ele>
        <time>2021-10-23T11:44:36Z</time>
      </trkpt>
      <trkpt lat="47.17716" lon="-1.67057">
        <ele>84</ele>
        <time>2021-10-23T11:44:38Z</time>
      </trkpt>
      <trkpt lat="47.17724" lon="-1.67072">
        <ele>84</ele>
        <time>2021-10-23T11:44:40Z</time>
      </trkpt>
      <trkpt lat="47.17732" lon="-1.67087">
        <ele>85</ele>
        <time>2021-10-23T11:44:42Z</time>
      </trkpt>
      <trkpt lat="47.1774" lon="-1.67102">
        <ele>85</ele>
        <time>2021-10-23T11:44:44Z</time>
      </trkpt>
      <trkpt lat="47.17748" lon="-1.67117">
        <ele>85</ele>
        <time>2021-10-23T11:44:46Z</time>
      </trkpt>
      <trkpt lat="47.17756" lon="-1.67131">
        <ele>84</ele>
        <time>2021-10-23T11:44:48Z</time>
      </trkpt>
      <trkpt lat="47.17764" lon="-1.67146">
        <ele>84</ele>
        <time>2021-10-23T11:44:50Z</time>
      </trkpt>
      <trkpt lat="47.17771" lon="-1.67161">
        <ele>83</ele>
        <time>2021-10-23T11:44:52Z</time>
      </trkpt>
      <trkpt lat="47.1778" lon="-1.67176">
        <ele>83</ele>
        <time>2021-10-23T11:44:54Z</time>
      </trkpt>
      <trkpt lat="47.17788" lon="-1.6719">
        <ele>83</ele>
        <time>2021-10-23T11:44:56Z</time>
      </trkpt>
      <trkpt lat="47.17795" lon="-1.67205">
        <ele>83</ele>
        <time>2021-10-23T11:44:58Z</time>
      </trkpt>
      <trkpt lat="47.17803" lon="-1.6722">
        <ele>84</ele>
        <time>2021-10-23T11:45:00Z</time>
      </trkpt>
      <trkpt lat="47.1781" lon="-1.67234">
        <ele>84</ele>
        <time>2021-10-23T11:45:02Z</time>
      </trkpt>
      <trkpt lat="47.17819" lon="-1.6725">
        <ele>84</ele>
        <time>2021-10-23T11:45:04Z</time>
      </trkpt>
      <trkpt lat="47.17827" lon="-1.67264">
        <ele>84</ele>
        <time>2021-10-23T11:45:06Z</time>
      </trkpt>
      <trkpt lat="47.17835" lon="-1.67279">
        <ele>84</ele>
        <time>2021-10-23T11:45:08Z</time>
      </trkpt>
      <trkpt lat="47.17843" lon="-1.67293">
        <ele>84</ele>
        <time>2021-10-23T11:45:10Z</time>
      </trkpt>
      <trkpt lat="47.17851" lon="-1.67309">
        <ele>84</ele>
        <time>2021-10-23T11:45:12Z</time>
      </trkpt>
      <trkpt lat="47.17859" lon="-1.67325">
        <ele>84</ele>
        <time>2021-10-23T11:45:14Z</time>
      </trkpt>
      <trkpt lat="47.17867" lon="-1.6734">
        <ele>83</ele>
        <time>2021-10-23T11:45:16Z</time>
      </trkpt>
      <trkpt lat="47.17874" lon="-1.67353">
        <ele>83</ele>
        <time>2021-10-23T11:45:18Z</time>
      </trkpt>
      <trkpt lat="47.17882" lon="-1.67367">
        <ele>83</ele>
        <time>2021-10-23T11:45:20Z</time>
      </trkpt>
      <trkpt lat="47.17888" lon="-1.67379">
        <ele>83</ele>
        <time>2021-10-23T11:45:22Z</time>
      </trkpt>
      <trkpt lat="47.17894" lon="-1.67391">
        <ele>82</ele>
        <time>2021-10-23T11:45:25Z</time>
      </trkpt>
      <trkpt lat="47.17903" lon="-1.67402">
        <ele>83</ele>
        <time>2021-10-23T11:45:28Z</time>
      </trkpt>
      <trkpt lat="47.17909" lon="-1.67416">
        <ele>84</ele>
        <time>2021-10-23T11:45:30Z</time>
      </trkpt>
      <trkpt lat="47.17914" lon="-1.67433">
        <ele>85</ele>
        <time>2021-10-23T11:45:32Z</time>
      </trkpt>
      <trkpt lat="47.17919" lon="-1.67451">
        <ele>85</ele>
        <time>2021-10-23T11:45:34Z</time>
      </trkpt>
      <trkpt lat="47.17924" lon="-1.67469">
        <ele>85</ele>
        <time>2021-10-23T11:45:36Z</time>
      </trkpt>
      <trkpt lat="47.1793" lon="-1.67488">
        <ele>85</ele>
        <time>2021-10-23T11:45:38Z</time>
      </trkpt>
      <trkpt lat="47.17935" lon="-1.67507">
        <ele>85</ele>
        <time>2021-10-23T11:45:40Z</time>
      </trkpt>
      <trkpt lat="47.1794" lon="-1.67526">
        <ele>85</ele>
        <time>2021-10-23T11:45:42Z</time>
      </trkpt>
      <trkpt lat="47.17945" lon="-1.67544">
        <ele>85</ele>
        <time>2021-10-23T11:45:44Z</time>
      </trkpt>
      <trkpt lat="47.1795" lon="-1.67563">
        <ele>85</ele>
        <time>2021-10-23T11:45:46Z</time>
      </trkpt>
      <trkpt lat="47.17955" lon="-1.67582">
        <ele>85</ele>
        <time>2021-10-23T11:45:48Z</time>
      </trkpt>
      <trkpt lat="47.1796" lon="-1.676">
        <ele>85</ele>
        <time>2021-10-23T11:45:50Z</time>
      </trkpt>
      <trkpt lat="47.17965" lon="-1.67617">
        <ele>85</ele>
        <time>2021-10-23T11:45:52Z</time>
      </trkpt>
      <trkpt lat="47.1797" lon="-1.67636">
        <ele>85</ele>
        <time>2021-10-23T11:45:54Z</time>
      </trkpt>
      <trkpt lat="47.17975" lon="-1.67653">
        <ele>85</ele>
        <time>2021-10-23T11:45:56Z</time>
      </trkpt>
      <trkpt lat="47.17979" lon="-1.6767">
        <ele>85</ele>
        <time>2021-10-23T11:45:58Z</time>
      </trkpt>
      <trkpt lat="47.17984" lon="-1.67687">
        <ele>86</ele>
        <time>2021-10-23T11:46:00Z</time>
      </trkpt>
      <trkpt lat="47.17988" lon="-1.67703">
        <ele>86</ele>
        <time>2021-10-23T11:46:02Z</time>
      </trkpt>
      <trkpt lat="47.17993" lon="-1.67718">
        <ele>85</ele>
        <time>2021-10-23T11:46:04Z</time>
      </trkpt>
      <trkpt lat="47.18002" lon="-1.67726">
        <ele>85</ele>
        <time>2021-10-23T11:46:06Z</time>
      </trkpt>
      <trkpt lat="47.18014" lon="-1.67723">
        <ele>85</ele>
        <time>2021-10-23T11:46:08Z</time>
      </trkpt>
      <trkpt lat="47.18027" lon="-1.67716">
        <ele>84</ele>
        <time>2021-10-23T11:46:10Z</time>
      </trkpt>
      <trkpt lat="47.18039" lon="-1.67709">
        <ele>84</ele>
        <time>2021-10-23T11:46:12Z</time>
      </trkpt>
      <trkpt lat="47.18052" lon="-1.67702">
        <ele>84</ele>
        <time>2021-10-23T11:46:14Z</time>
      </trkpt>
      <trkpt lat="47.18064" lon="-1.67694">
        <ele>83</ele>
        <time>2021-10-23T11:46:16Z</time>
      </trkpt>
      <trkpt lat="47.18076" lon="-1.67686">
        <ele>83</ele>
        <time>2021-10-23T11:46:18Z</time>
      </trkpt>
      <trkpt lat="47.18088" lon="-1.67679">
        <ele>83</ele>
        <time>2021-10-23T11:46:20Z</time>
      </trkpt>
      <trkpt lat="47.18101" lon="-1.67672">
        <ele>83</ele>
        <time>2021-10-23T11:46:22Z</time>
      </trkpt>
      <trkpt lat="47.18114" lon="-1.67664">
        <ele>83</ele>
        <time>2021-10-23T11:46:24Z</time>
      </trkpt>
      <trkpt lat="47.18126" lon="-1.67656">
        <ele>83</ele>
        <time>2021-10-23T11:46:26Z</time>
      </trkpt>
      <trkpt lat="47.18139" lon="-1.67648">
        <ele>83</ele>
        <time>2021-10-23T11:46:28Z</time>
      </trkpt>
      <trkpt lat="47.18152" lon="-1.67641">
        <ele>83</ele>
        <time>2021-10-23T11:46:30Z</time>
      </trkpt>
      <trkpt lat="47.18164" lon="-1.67634">
        <ele>83</ele>
        <time>2021-10-23T11:46:32Z</time>
      </trkpt>
      <trkpt lat="47.18176" lon="-1.67627">
        <ele>83</ele>
        <time>2021-10-23T11:46:34Z</time>
      </trkpt>
      <trkpt lat="47.18189" lon="-1.67618">
        <ele>82</ele>
        <time>2021-10-23T11:46:36Z</time>
      </trkpt>
      <trkpt lat="47.182" lon="-1.67608">
        <ele>82</ele>
        <time>2021-10-23T11:46:38Z</time>
      </trkpt>
      <trkpt lat="47.18212" lon="-1.676">
        <ele>82</ele>
        <time>2021-10-23T11:46:40Z</time>
      </trkpt>
      <trkpt lat="47.18225" lon="-1.67594">
        <ele>82</ele>
        <time>2021-10-23T11:46:42Z</time>
      </trkpt>
      <trkpt lat="47.18238" lon="-1.67586">
        <ele>83</ele>
        <time>2021-10-23T11:46:44Z</time>
      </trkpt>
      <trkpt lat="47.1825" lon="-1.67579">
        <ele>82</ele>
        <time>2021-10-23T11:46:46Z</time>
      </trkpt>
      <trkpt lat="47.18262" lon="-1.67571">
        <ele>83</ele>
        <time>2021-10-23T11:46:48Z</time>
      </trkpt>
      <trkpt lat="47.18275" lon="-1.67564">
        <ele>83</ele>
        <time>2021-10-23T11:46:50Z</time>
      </trkpt>
      <trkpt lat="47.18287" lon="-1.67557">
        <ele>84</ele>
        <time>2021-10-23T11:46:52Z</time>
      </trkpt>
      <trkpt lat="47.18299" lon="-1.6755">
        <ele>84</ele>
        <time>2021-10-23T11:46:54Z</time>
      </trkpt>
      <trkpt lat="47.18311" lon="-1.67543">
        <ele>84</ele>
        <time>2021-10-23T11:46:56Z</time>
      </trkpt>
      <trkpt lat="47.18323" lon="-1.67536">
        <ele>84</ele>
        <time>2021-10-23T11:46:58Z</time>
      </trkpt>
      <trkpt lat="47.18335" lon="-1.67529">
        <ele>84</ele>
        <time>2021-10-23T11:47:00Z</time>
      </trkpt>
      <trkpt lat="47.18347" lon="-1.67521">
        <ele>84</ele>
        <time>2021-10-23T11:47:02Z</time>
      </trkpt>
      <trkpt lat="47.18358" lon="-1.67514">
        <ele>85</ele>
        <time>2021-10-23T11:47:04Z</time>
      </trkpt>
      <trkpt lat="47.1837" lon="-1.67507">
        <ele>85</ele>
        <time>2021-10-23T11:47:06Z</time>
      </trkpt>
      <trkpt lat="47.18381" lon="-1.675">
        <ele>85</ele>
        <time>2021-10-23T11:47:08Z</time>
      </trkpt>
      <trkpt lat="47.18393" lon="-1.67492">
        <ele>85</ele>
        <time>2021-10-23T11:47:10Z</time>
      </trkpt>
      <trkpt lat="47.18405" lon="-1.67486">
        <ele>85</ele>
        <time>2021-10-23T11:47:12Z</time>
      </trkpt>
      <trkpt lat="47.18416" lon="-1.67479">
        <ele>85</ele>
        <time>2021-10-23T11:47:14Z</time>
      </trkpt>
      <trkpt lat="47.18427" lon="-1.67472">
        <ele>85</ele>
        <time>2021-10-23T11:47:16Z</time>
      </trkpt>
      <trkpt lat="47.18439" lon="-1.67465">
        <ele>85</ele>
        <time>2021-10-23T11:47:18Z</time>
      </trkpt>
      <trkpt lat="47.1845" lon="-1.67459">
        <ele>86</ele>
        <time>2021-10-23T11:47:20Z</time>
      </trkpt>
      <trkpt lat="47.18461" lon="-1.67452">
        <ele>86</ele>
        <time>2021-10-23T11:47:22Z</time>
      </trkpt>
      <trkpt lat="47.18472" lon="-1.67445">
        <ele>87</ele>
        <time>2021-10-23T11:47:24Z</time>
      </trkpt>
      <trkpt lat="47.18484" lon="-1.6744">
        <ele>87</ele>
        <time>2021-10-23T11:47:26Z</time>
      </trkpt>
      <trkpt lat="47.18495" lon="-1.67433">
        <ele>87</ele>
        <time>2021-10-23T11:47:28Z</time>
      </trkpt>
      <trkpt lat="47.18505" lon="-1.67426">
        <ele>88</ele>
        <time>2021-10-23T11:47:30Z</time>
      </trkpt>
      <trkpt lat="47.18514" lon="-1.67416">
        <ele>88</ele>
        <time>2021-10-23T11:47:32Z</time>
      </trkpt>
      <trkpt lat="47.18524" lon="-1.67409">
        <ele>88</ele>
        <time>2021-10-23T11:47:34Z</time>
      </trkpt>
      <trkpt lat="47.18534" lon="-1.67416">
        <ele>88</ele>
        <time>2021-10-23T11:47:36Z</time>
      </trkpt>
      <trkpt lat="47.18537" lon="-1.67432">
        <ele>88</ele>
        <time>2021-10-23T11:47:38Z</time>
      </trkpt>
      <trkpt lat="47.18542" lon="-1.67444">
        <ele>88</ele>
        <time>2021-10-23T11:47:40Z</time>
      </trkpt>
      <trkpt lat="47.18555" lon="-1.67441">
        <ele>88</ele>
        <time>2021-10-23T11:47:42Z</time>
      </trkpt>
      <trkpt lat="47.18566" lon="-1.67434">
        <ele>89</ele>
        <time>2021-10-23T11:47:44Z</time>
      </trkpt>
      <trkpt lat="47.18577" lon="-1.67427">
        <ele>90</ele>
        <time>2021-10-23T11:47:46Z</time>
      </trkpt>
      <trkpt lat="47.18588" lon="-1.67429">
        <ele>91</ele>
        <time>2021-10-23T11:47:48Z</time>
      </trkpt>
      <trkpt lat="47.18597" lon="-1.67447">
        <ele>91</ele>
        <time>2021-10-23T11:47:50Z</time>
      </trkpt>
      <trkpt lat="47.18604" lon="-1.67464">
        <ele>90</ele>
        <time>2021-10-23T11:47:52Z</time>
      </trkpt>
      <trkpt lat="47.1861" lon="-1.67482">
        <ele>89</ele>
        <time>2021-10-23T11:47:54Z</time>
      </trkpt>
      <trkpt lat="47.18616" lon="-1.67498">
        <ele>89</ele>
        <time>2021-10-23T11:47:56Z</time>
      </trkpt>
      <trkpt lat="47.18623" lon="-1.67515">
        <ele>89</ele>
        <time>2021-10-23T11:47:58Z</time>
      </trkpt>
      <trkpt lat="47.18631" lon="-1.6753">
        <ele>88</ele>
        <time>2021-10-23T11:48:00Z</time>
      </trkpt>
      <trkpt lat="47.1864" lon="-1.67544">
        <ele>88</ele>
        <time>2021-10-23T11:48:02Z</time>
      </trkpt>
      <trkpt lat="47.1865" lon="-1.67557">
        <ele>88</ele>
        <time>2021-10-23T11:48:04Z</time>
      </trkpt>
      <trkpt lat="47.1866" lon="-1.6757">
        <ele>88</ele>
        <time>2021-10-23T11:48:06Z</time>
      </trkpt>
      <trkpt lat="47.1867" lon="-1.67583">
        <ele>88</ele>
        <time>2021-10-23T11:48:08Z</time>
      </trkpt>
      <trkpt lat="47.18679" lon="-1.67596">
        <ele>88</ele>
        <time>2021-10-23T11:48:10Z</time>
      </trkpt>
      <trkpt lat="47.18689" lon="-1.67608">
        <ele>88</ele>
        <time>2021-10-23T11:48:12Z</time>
      </trkpt>
      <trkpt lat="47.18701" lon="-1.67616">
        <ele>88</ele>
        <time>2021-10-23T11:48:14Z</time>
      </trkpt>
      <trkpt lat="47.18713" lon="-1.67617">
        <ele>88</ele>
        <time>2021-10-23T11:48:16Z</time>
      </trkpt>
      <trkpt lat="47.18725" lon="-1.67612">
        <ele>88</ele>
        <time>2021-10-23T11:48:18Z</time>
      </trkpt>
      <trkpt lat="47.18736" lon="-1.67608">
        <ele>88</ele>
        <time>2021-10-23T11:48:20Z</time>
      </trkpt>
      <trkpt lat="47.18746" lon="-1.67606">
        <ele>89</ele>
        <time>2021-10-23T11:48:22Z</time>
      </trkpt>
      <trkpt lat="47.18754" lon="-1.67618">
        <ele>89</ele>
        <time>2021-10-23T11:48:24Z</time>
      </trkpt>
      <trkpt lat="47.1876" lon="-1.67635">
        <ele>88</ele>
        <time>2021-10-23T11:48:26Z</time>
      </trkpt>
      <trkpt lat="47.18767" lon="-1.6765">
        <ele>88</ele>
        <time>2021-10-23T11:48:28Z</time>
      </trkpt>
      <trkpt lat="47.18775" lon="-1.67664">
        <ele>87</ele>
        <time>2021-10-23T11:48:30Z</time>
      </trkpt>
      <trkpt lat="47.18783" lon="-1.67677">
        <ele>87</ele>
        <time>2021-10-23T11:48:32Z</time>
      </trkpt>
      <trkpt lat="47.18791" lon="-1.67691">
        <ele>87</ele>
        <time>2021-10-23T11:48:34Z</time>
      </trkpt>
      <trkpt lat="47.18798" lon="-1.67706">
        <ele>87</ele>
        <time>2021-10-23T11:48:36Z</time>
      </trkpt>
      <trkpt lat="47.18804" lon="-1.67724">
        <ele>86</ele>
        <time>2021-10-23T11:48:38Z</time>
      </trkpt>
      <trkpt lat="47.1881" lon="-1.67742">
        <ele>86</ele>
        <time>2021-10-23T11:48:40Z</time>
      </trkpt>
      <trkpt lat="47.18817" lon="-1.67759">
        <ele>86</ele>
        <time>2021-10-23T11:48:42Z</time>
      </trkpt>
      <trkpt lat="47.18825" lon="-1.67777">
        <ele>86</ele>
        <time>2021-10-23T11:48:44Z</time>
      </trkpt>
      <trkpt lat="47.18832" lon="-1.67795">
        <ele>85</ele>
        <time>2021-10-23T11:48:46Z</time>
      </trkpt>
      <trkpt lat="47.18838" lon="-1.67815">
        <ele>84</ele>
        <time>2021-10-23T11:48:48Z</time>
      </trkpt>
      <trkpt lat="47.18846" lon="-1.67834">
        <ele>83</ele>
        <time>2021-10-23T11:48:50Z</time>
      </trkpt>
      <trkpt lat="47.18853" lon="-1.67853">
        <ele>82</ele>
        <time>2021-10-23T11:48:52Z</time>
      </trkpt>
      <trkpt lat="47.18863" lon="-1.67872">
        <ele>81</ele>
        <time>2021-10-23T11:48:54Z</time>
      </trkpt>
      <trkpt lat="47.18875" lon="-1.67889">
        <ele>80</ele>
        <time>2021-10-23T11:48:56Z</time>
      </trkpt>
      <trkpt lat="47.18891" lon="-1.67897">
        <ele>80</ele>
        <time>2021-10-23T11:48:58Z</time>
      </trkpt>
      <trkpt lat="47.18907" lon="-1.67901">
        <ele>80</ele>
        <time>2021-10-23T11:49:00Z</time>
      </trkpt>
      <trkpt lat="47.1892" lon="-1.67911">
        <ele>80</ele>
        <time>2021-10-23T11:49:02Z</time>
      </trkpt>
      <trkpt lat="47.18927" lon="-1.67927">
        <ele>81</ele>
        <time>2021-10-23T11:49:04Z</time>
      </trkpt>
      <trkpt lat="47.18934" lon="-1.67942">
        <ele>81</ele>
        <time>2021-10-23T11:49:06Z</time>
      </trkpt>
      <trkpt lat="47.18941" lon="-1.67955">
        <ele>82</ele>
        <time>2021-10-23T11:49:08Z</time>
      </trkpt>
      <trkpt lat="47.18946" lon="-1.67965">
        <ele>82</ele>
        <time>2021-10-23T11:49:10Z</time>
      </trkpt>
      <trkpt lat="47.18953" lon="-1.67977">
        <ele>82</ele>
        <time>2021-10-23T11:49:13Z</time>
      </trkpt>
      <trkpt lat="47.18959" lon="-1.67988">
        <ele>82</ele>
        <time>2021-10-23T11:49:16Z</time>
      </trkpt>
      <trkpt lat="47.18967" lon="-1.68">
        <ele>83</ele>
        <time>2021-10-23T11:49:19Z</time>
      </trkpt>
      <trkpt lat="47.18973" lon="-1.68013">
        <ele>84</ele>
        <time>2021-10-23T11:49:22Z</time>
      </trkpt>
      <trkpt lat="47.18981" lon="-1.68024">
        <ele>84</ele>
        <time>2021-10-23T11:49:25Z</time>
      </trkpt>
      <trkpt lat="47.18989" lon="-1.68035">
        <ele>84</ele>
        <time>2021-10-23T11:49:28Z</time>
      </trkpt>
      <trkpt lat="47.18999" lon="-1.68029">
        <ele>83</ele>
        <time>2021-10-23T11:49:30Z</time>
      </trkpt>
      <trkpt lat="47.19013" lon="-1.68019">
        <ele>82</ele>
        <time>2021-10-23T11:49:32Z</time>
      </trkpt>
      <trkpt lat="47.19031" lon="-1.68018">
        <ele>81</ele>
        <time>2021-10-23T11:49:34Z</time>
      </trkpt>
      <trkpt lat="47.19049" lon="-1.68024">
        <ele>79</ele>
        <time>2021-10-23T11:49:36Z</time>
      </trkpt>
      <trkpt lat="47.19066" lon="-1.6803">
        <ele>79</ele>
        <time>2021-10-23T11:49:38Z</time>
      </trkpt>
      <trkpt lat="47.19074" lon="-1.68036">
        <ele>78</ele>
        <time>2021-10-23T11:49:39Z</time>
      </trkpt>
      <trkpt lat="47.19085" lon="-1.68054">
        <ele>78</ele>
        <time>2021-10-23T11:49:41Z</time>
      </trkpt>
      <trkpt lat="47.19093" lon="-1.68074">
        <ele>78</ele>
        <time>2021-10-23T11:49:43Z</time>
      </trkpt>
      <trkpt lat="47.191" lon="-1.68093">
        <ele>78</ele>
        <time>2021-10-23T11:49:45Z</time>
      </trkpt>
      <trkpt lat="47.19108" lon="-1.68121">
        <ele>78</ele>
        <time>2021-10-23T11:49:48Z</time>
      </trkpt>
      <trkpt lat="47.19113" lon="-1.68138">
        <ele>78</ele>
        <time>2021-10-23T11:49:50Z</time>
      </trkpt>
      <trkpt lat="47.19116" lon="-1.68153">
        <ele>78</ele>
        <time>2021-10-23T11:49:52Z</time>
      </trkpt>
      <trkpt lat="47.1912" lon="-1.68166">
        <ele>78</ele>
        <time>2021-10-23T11:49:55Z</time>
      </trkpt>
      <trkpt lat="47.19127" lon="-1.68175">
        <ele>77</ele>
        <time>2021-10-23T11:49:59Z</time>
      </trkpt>
      <trkpt lat="47.19127" lon="-1.68188">
        <ele>76</ele>
        <time>2021-10-23T11:50:05Z</time>
      </trkpt>
      <trkpt lat="47.19135" lon="-1.6818">
        <ele>75</ele>
        <time>2021-10-23T11:50:12Z</time>
      </trkpt>
      <trkpt lat="47.19145" lon="-1.68178">
        <ele>72</ele>
        <time>2021-10-23T11:50:17Z</time>
      </trkpt>
      <trkpt lat="47.1915" lon="-1.68199">
        <ele>70</ele>
        <time>2021-10-23T11:50:21Z</time>
      </trkpt>
      <trkpt lat="47.19156" lon="-1.68211">
        <ele>69</ele>
        <time>2021-10-23T11:50:24Z</time>
      </trkpt>
      <trkpt lat="47.19168" lon="-1.68216">
        <ele>67</ele>
        <time>2021-10-23T11:50:27Z</time>
      </trkpt>
      <trkpt lat="47.19179" lon="-1.68221">
        <ele>64</ele>
        <time>2021-10-23T11:50:29Z</time>
      </trkpt>
      <trkpt lat="47.19191" lon="-1.68219">
        <ele>63</ele>
        <time>2021-10-23T11:50:31Z</time>
      </trkpt>
      <trkpt lat="47.192" lon="-1.68212">
        <ele>61</ele>
        <time>2021-10-23T11:50:33Z</time>
      </trkpt>
      <trkpt lat="47.19211" lon="-1.68203">
        <ele>60</ele>
        <time>2021-10-23T11:50:36Z</time>
      </trkpt>
      <trkpt lat="47.19222" lon="-1.68198">
        <ele>59</ele>
        <time>2021-10-23T11:50:38Z</time>
      </trkpt>
      <trkpt lat="47.19233" lon="-1.68192">
        <ele>58</ele>
        <time>2021-10-23T11:50:40Z</time>
      </trkpt>
      <trkpt lat="47.19244" lon="-1.68184">
        <ele>58</ele>
        <time>2021-10-23T11:50:42Z</time>
      </trkpt>
      <trkpt lat="47.19256" lon="-1.68177">
        <ele>58</ele>
        <time>2021-10-23T11:50:44Z</time>
      </trkpt>
      <trkpt lat="47.19268" lon="-1.68169">
        <ele>58</ele>
        <time>2021-10-23T11:50:46Z</time>
      </trkpt>
      <trkpt lat="47.19281" lon="-1.68161">
        <ele>58</ele>
        <time>2021-10-23T11:50:48Z</time>
      </trkpt>
      <trkpt lat="47.19292" lon="-1.68152">
        <ele>58</ele>
        <time>2021-10-23T11:50:50Z</time>
      </trkpt>
      <trkpt lat="47.19303" lon="-1.68144">
        <ele>59</ele>
        <time>2021-10-23T11:50:52Z</time>
      </trkpt>
      <trkpt lat="47.19315" lon="-1.68136">
        <ele>59</ele>
        <time>2021-10-23T11:50:54Z</time>
      </trkpt>
      <trkpt lat="47.19326" lon="-1.68128">
        <ele>58</ele>
        <time>2021-10-23T11:50:56Z</time>
      </trkpt>
      <trkpt lat="47.19338" lon="-1.68119">
        <ele>58</ele>
        <time>2021-10-23T11:50:58Z</time>
      </trkpt>
      <trkpt lat="47.1935" lon="-1.6811">
        <ele>58</ele>
        <time>2021-10-23T11:51:00Z</time>
      </trkpt>
      <trkpt lat="47.19361" lon="-1.68101">
        <ele>58</ele>
        <time>2021-10-23T11:51:02Z</time>
      </trkpt>
      <trkpt lat="47.19372" lon="-1.68093">
        <ele>57</ele>
        <time>2021-10-23T11:51:04Z</time>
      </trkpt>
      <trkpt lat="47.19383" lon="-1.68086">
        <ele>58</ele>
        <time>2021-10-23T11:51:06Z</time>
      </trkpt>
      <trkpt lat="47.19394" lon="-1.68078">
        <ele>58</ele>
        <time>2021-10-23T11:51:08Z</time>
      </trkpt>
      <trkpt lat="47.19404" lon="-1.68071">
        <ele>58</ele>
        <time>2021-10-23T11:51:10Z</time>
      </trkpt>
      <trkpt lat="47.19413" lon="-1.68062">
        <ele>58</ele>
        <time>2021-10-23T11:51:12Z</time>
      </trkpt>
      <trkpt lat="47.19419" lon="-1.68044">
        <ele>57</ele>
        <time>2021-10-23T11:51:15Z</time>
      </trkpt>
      <trkpt lat="47.19416" lon="-1.68027">
        <ele>57</ele>
        <time>2021-10-23T11:51:17Z</time>
      </trkpt>
      <trkpt lat="47.1941" lon="-1.68007">
        <ele>57</ele>
        <time>2021-10-23T11:51:19Z</time>
      </trkpt>
      <trkpt lat="47.19404" lon="-1.67988">
        <ele>57</ele>
        <time>2021-10-23T11:51:21Z</time>
      </trkpt>
      <trkpt lat="47.19399" lon="-1.67971">
        <ele>57</ele>
        <time>2021-10-23T11:51:23Z</time>
      </trkpt>
      <trkpt lat="47.19393" lon="-1.67954">
        <ele>57</ele>
        <time>2021-10-23T11:51:25Z</time>
      </trkpt>
      <trkpt lat="47.19388" lon="-1.67935">
        <ele>57</ele>
        <time>2021-10-23T11:51:27Z</time>
      </trkpt>
      <trkpt lat="47.19383" lon="-1.67916">
        <ele>57</ele>
        <time>2021-10-23T11:51:29Z</time>
      </trkpt>
      <trkpt lat="47.19378" lon="-1.67897">
        <ele>57</ele>
        <time>2021-10-23T11:51:31Z</time>
      </trkpt>
      <trkpt lat="47.19374" lon="-1.67878">
        <ele>57</ele>
        <time>2021-10-23T11:51:33Z</time>
      </trkpt>
      <trkpt lat="47.1937" lon="-1.67858">
        <ele>57</ele>
        <time>2021-10-23T11:51:35Z</time>
      </trkpt>
      <trkpt lat="47.19368" lon="-1.67836">
        <ele>57</ele>
        <time>2021-10-23T11:51:37Z</time>
      </trkpt>
      <trkpt lat="47.19367" lon="-1.67815">
        <ele>57</ele>
        <time>2021-10-23T11:51:39Z</time>
      </trkpt>
      <trkpt lat="47.19367" lon="-1.67794">
        <ele>57</ele>
        <time>2021-10-23T11:51:41Z</time>
      </trkpt>
      <trkpt lat="47.19367" lon="-1.67773">
        <ele>56</ele>
        <time>2021-10-23T11:51:43Z</time>
      </trkpt>
      <trkpt lat="47.19369" lon="-1.67751">
        <ele>56</ele>
        <time>2021-10-23T11:51:45Z</time>
      </trkpt>
      <trkpt lat="47.19373" lon="-1.6773">
        <ele>56</ele>
        <time>2021-10-23T11:51:47Z</time>
      </trkpt>
      <trkpt lat="47.19377" lon="-1.67709">
        <ele>56</ele>
        <time>2021-10-23T11:51:49Z</time>
      </trkpt>
      <trkpt lat="47.19382" lon="-1.67689">
        <ele>55</ele>
        <time>2021-10-23T11:51:51Z</time>
      </trkpt>
      <trkpt lat="47.19388" lon="-1.67669">
        <ele>55</ele>
        <time>2021-10-23T11:51:53Z</time>
      </trkpt>
      <trkpt lat="47.19395" lon="-1.67651">
        <ele>54</ele>
        <time>2021-10-23T11:51:55Z</time>
      </trkpt>
      <trkpt lat="47.19403" lon="-1.67633">
        <ele>54</ele>
        <time>2021-10-23T11:51:57Z</time>
      </trkpt>
      <trkpt lat="47.19413" lon="-1.67616">
        <ele>54</ele>
        <time>2021-10-23T11:51:59Z</time>
      </trkpt>
      <trkpt lat="47.19423" lon="-1.67601">
        <ele>54</ele>
        <time>2021-10-23T11:52:01Z</time>
      </trkpt>
      <trkpt lat="47.19433" lon="-1.67585">
        <ele>54</ele>
        <time>2021-10-23T11:52:03Z</time>
      </trkpt>
      <trkpt lat="47.19445" lon="-1.67572">
        <ele>54</ele>
        <time>2021-10-23T11:52:05Z</time>
      </trkpt>
      <trkpt lat="47.19457" lon="-1.67561">
        <ele>54</ele>
        <time>2021-10-23T11:52:07Z</time>
      </trkpt>
      <trkpt lat="47.1947" lon="-1.6755">
        <ele>54</ele>
        <time>2021-10-23T11:52:09Z</time>
      </trkpt>
      <trkpt lat="47.19482" lon="-1.67542">
        <ele>55</ele>
        <time>2021-10-23T11:52:11Z</time>
      </trkpt>
      <trkpt lat="47.19494" lon="-1.67534">
        <ele>55</ele>
        <time>2021-10-23T11:52:13Z</time>
      </trkpt>
      <trkpt lat="47.19503" lon="-1.67526">
        <ele>55</ele>
        <time>2021-10-23T11:52:15Z</time>
      </trkpt>
      <trkpt lat="47.19513" lon="-1.67517">
        <ele>56</ele>
        <time>2021-10-23T11:52:18Z</time>
      </trkpt>
      <trkpt lat="47.19523" lon="-1.6751">
        <ele>56</ele>
        <time>2021-10-23T11:52:21Z</time>
      </trkpt>
      <trkpt lat="47.19532" lon="-1.67506">
        <ele>57</ele>
        <time>2021-10-23T11:52:24Z</time>
      </trkpt>
      <trkpt lat="47.1954" lon="-1.67512">
        <ele>57</ele>
        <time>2021-10-23T11:52:29Z</time>
      </trkpt>
      <trkpt lat="47.1954" lon="-1.67513">
        <ele>56</ele>
        <time>2021-10-23T11:54:30Z</time>
      </trkpt>
      <trkpt lat="47.1954" lon="-1.67513">
        <ele>56</ele>
        <time>2021-10-23T11:56:31Z</time>
      </trkpt>
      <trkpt lat="47.1954" lon="-1.67513">
        <ele>56</ele>
        <time>2021-10-23T11:58:32Z</time>
      </trkpt>
      <trkpt lat="47.1954" lon="-1.67513">
        <ele>56</ele>
        <time>2021-10-23T12:00:33Z</time>
      </trkpt>
      <trkpt lat="47.1954" lon="-1.67513">
        <ele>56</ele>
        <time>2021-10-23T12:02:34Z</time>
      </trkpt>
      <trkpt lat="47.19541" lon="-1.67514">
        <ele>54</ele>
        <time>2021-10-23T12:04:35Z</time>
      </trkpt>
      <trkpt lat="47.19549" lon="-1.67529">
        <ele>55</ele>
        <time>2021-10-23T12:05:14Z</time>
      </trkpt>
      <trkpt lat="47.19556" lon="-1.67539">
        <ele>53</ele>
        <time>2021-10-23T12:05:16Z</time>
      </trkpt>
      <trkpt lat="47.19563" lon="-1.67551">
        <ele>52</ele>
        <time>2021-10-23T12:05:18Z</time>
      </trkpt>
      <trkpt lat="47.19572" lon="-1.67564">
        <ele>51</ele>
        <time>2021-10-23T12:05:20Z</time>
      </trkpt>
      <trkpt lat="47.19582" lon="-1.67577">
        <ele>49</ele>
        <time>2021-10-23T12:05:22Z</time>
      </trkpt>
      <trkpt lat="47.19591" lon="-1.67587">
        <ele>50</ele>
        <time>2021-10-23T12:05:24Z</time>
      </trkpt>
      <trkpt lat="47.19601" lon="-1.67598">
        <ele>51</ele>
        <time>2021-10-23T12:05:27Z</time>
      </trkpt>
      <trkpt lat="47.19609" lon="-1.67606">
        <ele>53</ele>
        <time>2021-10-23T12:05:30Z</time>
      </trkpt>
      <trkpt lat="47.19617" lon="-1.67611">
        <ele>54</ele>
        <time>2021-10-23T12:05:36Z</time>
      </trkpt>
      <trkpt lat="47.19623" lon="-1.676">
        <ele>54</ele>
        <time>2021-10-23T12:06:47Z</time>
      </trkpt>
      <trkpt lat="47.19632" lon="-1.67594">
        <ele>53</ele>
        <time>2021-10-23T12:06:59Z</time>
      </trkpt>
      <trkpt lat="47.19641" lon="-1.67592">
        <ele>53</ele>
        <time>2021-10-23T12:07:08Z</time>
      </trkpt>
      <trkpt lat="47.19651" lon="-1.67589">
        <ele>54</ele>
        <time>2021-10-23T12:07:16Z</time>
      </trkpt>
      <trkpt lat="47.19659" lon="-1.67584">
        <ele>53</ele>
        <time>2021-10-23T12:07:23Z</time>
      </trkpt>
      <trkpt lat="47.19667" lon="-1.67575">
        <ele>53</ele>
        <time>2021-10-23T12:07:32Z</time>
      </trkpt>
      <trkpt lat="47.19675" lon="-1.67567">
        <ele>53</ele>
        <time>2021-10-23T12:07:38Z</time>
      </trkpt>
      <trkpt lat="47.19682" lon="-1.67559">
        <ele>54</ele>
        <time>2021-10-23T12:07:43Z</time>
      </trkpt>
      <trkpt lat="47.1969" lon="-1.67552">
        <ele>55</ele>
        <time>2021-10-23T12:07:48Z</time>
      </trkpt>
      <trkpt lat="47.19697" lon="-1.67543">
        <ele>54</ele>
        <time>2021-10-23T12:07:53Z</time>
      </trkpt>
      <trkpt lat="47.19704" lon="-1.67534">
        <ele>53</ele>
        <time>2021-10-23T12:07:58Z</time>
      </trkpt>
      <trkpt lat="47.19712" lon="-1.67526">
        <ele>52</ele>
        <time>2021-10-23T12:08:03Z</time>
      </trkpt>
      <trkpt lat="47.19718" lon="-1.67516">
        <ele>51</ele>
        <time>2021-10-23T12:08:08Z</time>
      </trkpt>
      <trkpt lat="47.19725" lon="-1.67506">
        <ele>50</ele>
        <time>2021-10-23T12:08:13Z</time>
      </trkpt>
      <trkpt lat="47.19732" lon="-1.67496">
        <ele>50</ele>
        <time>2021-10-23T12:08:19Z</time>
      </trkpt>
      <trkpt lat="47.19738" lon="-1.67484">
        <ele>50</ele>
        <time>2021-10-23T12:08:26Z</time>
      </trkpt>
      <trkpt lat="47.19742" lon="-1.67471">
        <ele>50</ele>
        <time>2021-10-23T12:08:36Z</time>
      </trkpt>
      <trkpt lat="47.19745" lon="-1.67457">
        <ele>52</ele>
        <time>2021-10-23T12:08:46Z</time>
      </trkpt>
      <trkpt lat="47.19745" lon="-1.67439">
        <ele>55</ele>
        <time>2021-10-23T12:09:02Z</time>
      </trkpt>
      <trkpt lat="47.19744" lon="-1.67423">
        <ele>53</ele>
        <time>2021-10-23T12:09:04Z</time>
      </trkpt>
      <trkpt lat="47.19743" lon="-1.67407">
        <ele>53</ele>
        <time>2021-10-23T12:09:06Z</time>
      </trkpt>
      <trkpt lat="47.19743" lon="-1.67393">
        <ele>54</ele>
        <time>2021-10-23T12:09:08Z</time>
      </trkpt>
      <trkpt lat="47.19742" lon="-1.67378">
        <ele>54</ele>
        <time>2021-10-23T12:09:10Z</time>
      </trkpt>
      <trkpt lat="47.19741" lon="-1.67364">
        <ele>55</ele>
        <time>2021-10-23T12:09:12Z</time>
      </trkpt>
      <trkpt lat="47.19741" lon="-1.6735">
        <ele>56</ele>
        <time>2021-10-23T12:09:14Z</time>
      </trkpt>
      <trkpt lat="47.19746" lon="-1.67334">
        <ele>55</ele>
        <time>2021-10-23T12:09:16Z</time>
      </trkpt>
      <trkpt lat="47.19757" lon="-1.67324">
        <ele>55</ele>
        <time>2021-10-23T12:09:18Z</time>
      </trkpt>
      <trkpt lat="47.19771" lon="-1.67318">
        <ele>55</ele>
        <time>2021-10-23T12:09:20Z</time>
      </trkpt>
      <trkpt lat="47.19782" lon="-1.67309">
        <ele>55</ele>
        <time>2021-10-23T12:09:22Z</time>
      </trkpt>
      <trkpt lat="47.19789" lon="-1.67299">
        <ele>55</ele>
        <time>2021-10-23T12:09:24Z</time>
      </trkpt>
      <trkpt lat="47.19797" lon="-1.67293">
        <ele>55</ele>
        <time>2021-10-23T12:09:26Z</time>
      </trkpt>
      <trkpt lat="47.19806" lon="-1.67297">
        <ele>55</ele>
        <time>2021-10-23T12:09:28Z</time>
      </trkpt>
      <trkpt lat="47.19812" lon="-1.67312">
        <ele>56</ele>
        <time>2021-10-23T12:09:30Z</time>
      </trkpt>
      <trkpt lat="47.1982" lon="-1.67326">
        <ele>56</ele>
        <time>2021-10-23T12:09:32Z</time>
      </trkpt>
      <trkpt lat="47.19828" lon="-1.67341">
        <ele>56</ele>
        <time>2021-10-23T12:09:34Z</time>
      </trkpt>
      <trkpt lat="47.19836" lon="-1.67357">
        <ele>56</ele>
        <time>2021-10-23T12:09:36Z</time>
      </trkpt>
      <trkpt lat="47.19845" lon="-1.67374">
        <ele>56</ele>
        <time>2021-10-23T12:09:38Z</time>
      </trkpt>
      <trkpt lat="47.19853" lon="-1.67391">
        <ele>56</ele>
        <time>2021-10-23T12:09:40Z</time>
      </trkpt>
      <trkpt lat="47.19861" lon="-1.67408">
        <ele>56</ele>
        <time>2021-10-23T12:09:42Z</time>
      </trkpt>
      <trkpt lat="47.19869" lon="-1.67425">
        <ele>56</ele>
        <time>2021-10-23T12:09:44Z</time>
      </trkpt>
      <trkpt lat="47.19878" lon="-1.67443">
        <ele>56</ele>
        <time>2021-10-23T12:09:46Z</time>
      </trkpt>
      <trkpt lat="47.19886" lon="-1.67459">
        <ele>56</ele>
        <time>2021-10-23T12:09:48Z</time>
      </trkpt>
      <trkpt lat="47.19894" lon="-1.67476">
        <ele>56</ele>
        <time>2021-10-23T12:09:50Z</time>
      </trkpt>
      <trkpt lat="47.19901" lon="-1.67493">
        <ele>56</ele>
        <time>2021-10-23T12:09:52Z</time>
      </trkpt>
      <trkpt lat="47.19909" lon="-1.6751">
        <ele>56</ele>
        <time>2021-10-23T12:09:54Z</time>
      </trkpt>
      <trkpt lat="47.19917" lon="-1.67527">
        <ele>56</ele>
        <time>2021-10-23T12:09:56Z</time>
      </trkpt>
      <trkpt lat="47.19925" lon="-1.67543">
        <ele>56</ele>
        <time>2021-10-23T12:09:58Z</time>
      </trkpt>
      <trkpt lat="47.19932" lon="-1.6756">
        <ele>56</ele>
        <time>2021-10-23T12:10:00Z</time>
      </trkpt>
      <trkpt lat="47.1994" lon="-1.67576">
        <ele>55</ele>
        <time>2021-10-23T12:10:02Z</time>
      </trkpt>
      <trkpt lat="47.19948" lon="-1.67592">
        <ele>55</ele>
        <time>2021-10-23T12:10:04Z</time>
      </trkpt>
      <trkpt lat="47.19956" lon="-1.67608">
        <ele>55</ele>
        <time>2021-10-23T12:10:06Z</time>
      </trkpt>
      <trkpt lat="47.19965" lon="-1.67623">
        <ele>55</ele>
        <time>2021-10-23T12:10:08Z</time>
      </trkpt>
      <trkpt lat="47.19973" lon="-1.6764">
        <ele>55</ele>
        <time>2021-10-23T12:10:10Z</time>
      </trkpt>
      <trkpt lat="47.19983" lon="-1.67655">
        <ele>55</ele>
        <time>2021-10-23T12:10:12Z</time>
      </trkpt>
      <trkpt lat="47.19992" lon="-1.6767">
        <ele>55</ele>
        <time>2021-10-23T12:10:14Z</time>
      </trkpt>
      <trkpt lat="47.20001" lon="-1.67685">
        <ele>54</ele>
        <time>2021-10-23T12:10:16Z</time>
      </trkpt>
      <trkpt lat="47.2001" lon="-1.67701">
        <ele>54</ele>
        <time>2021-10-23T12:10:18Z</time>
      </trkpt>
      <trkpt lat="47.20019" lon="-1.67715">
        <ele>54</ele>
        <time>2021-10-23T12:10:20Z</time>
      </trkpt>
      <trkpt lat="47.20029" lon="-1.6773">
        <ele>54</ele>
        <time>2021-10-23T12:10:22Z</time>
      </trkpt>
      <trkpt lat="47.20037" lon="-1.67746">
        <ele>54</ele>
        <time>2021-10-23T12:10:24Z</time>
      </trkpt>
      <trkpt lat="47.20047" lon="-1.67761">
        <ele>54</ele>
        <time>2021-10-23T12:10:26Z</time>
      </trkpt>
      <trkpt lat="47.20056" lon="-1.67776">
        <ele>54</ele>
        <time>2021-10-23T12:10:28Z</time>
      </trkpt>
      <trkpt lat="47.20064" lon="-1.67792">
        <ele>54</ele>
        <time>2021-10-23T12:10:30Z</time>
      </trkpt>
      <trkpt lat="47.20073" lon="-1.67808">
        <ele>54</ele>
        <time>2021-10-23T12:10:32Z</time>
      </trkpt>
      <trkpt lat="47.20082" lon="-1.67823">
        <ele>54</ele>
        <time>2021-10-23T12:10:34Z</time>
      </trkpt>
      <trkpt lat="47.20091" lon="-1.67839">
        <ele>54</ele>
        <time>2021-10-23T12:10:36Z</time>
      </trkpt>
      <trkpt lat="47.20099" lon="-1.67855">
        <ele>54</ele>
        <time>2021-10-23T12:10:38Z</time>
      </trkpt>
      <trkpt lat="47.20107" lon="-1.6787">
        <ele>55</ele>
        <time>2021-10-23T12:10:40Z</time>
      </trkpt>
      <trkpt lat="47.20115" lon="-1.67885">
        <ele>55</ele>
        <time>2021-10-23T12:10:42Z</time>
      </trkpt>
      <trkpt lat="47.20124" lon="-1.679">
        <ele>55</ele>
        <time>2021-10-23T12:10:44Z</time>
      </trkpt>
      <trkpt lat="47.20134" lon="-1.6791">
        <ele>55</ele>
        <time>2021-10-23T12:10:46Z</time>
      </trkpt>
      <trkpt lat="47.20146" lon="-1.67912">
        <ele>56</ele>
        <time>2021-10-23T12:10:48Z</time>
      </trkpt>
      <trkpt lat="47.20157" lon="-1.67899">
        <ele>57</ele>
        <time>2021-10-23T12:10:50Z</time>
      </trkpt>
      <trkpt lat="47.20167" lon="-1.67888">
        <ele>58</ele>
        <time>2021-10-23T12:10:52Z</time>
      </trkpt>
      <trkpt lat="47.20176" lon="-1.67877">
        <ele>59</ele>
        <time>2021-10-23T12:10:54Z</time>
      </trkpt>
      <trkpt lat="47.20186" lon="-1.67868">
        <ele>60</ele>
        <time>2021-10-23T12:10:56Z</time>
      </trkpt>
      <trkpt lat="47.20194" lon="-1.67859">
        <ele>61</ele>
        <time>2021-10-23T12:10:58Z</time>
      </trkpt>
      <trkpt lat="47.20204" lon="-1.67851">
        <ele>60</ele>
        <time>2021-10-23T12:11:00Z</time>
      </trkpt>
      <trkpt lat="47.20215" lon="-1.67844">
        <ele>60</ele>
        <time>2021-10-23T12:11:02Z</time>
      </trkpt>
      <trkpt lat="47.20228" lon="-1.67834">
        <ele>60</ele>
        <time>2021-10-23T12:11:04Z</time>
      </trkpt>
      <trkpt lat="47.20234" lon="-1.67815">
        <ele>59</ele>
        <time>2021-10-23T12:11:06Z</time>
      </trkpt>
      <trkpt lat="47.20227" lon="-1.67793">
        <ele>59</ele>
        <time>2021-10-23T12:11:08Z</time>
      </trkpt>
      <trkpt lat="47.20218" lon="-1.67772">
        <ele>60</ele>
        <time>2021-10-23T12:11:10Z</time>
      </trkpt>
      <trkpt lat="47.2021" lon="-1.67752">
        <ele>60</ele>
        <time>2021-10-23T12:11:12Z</time>
      </trkpt>
      <trkpt lat="47.20203" lon="-1.67732">
        <ele>58</ele>
        <time>2021-10-23T12:11:14Z</time>
      </trkpt>
      <trkpt lat="47.20196" lon="-1.67713">
        <ele>58</ele>
        <time>2021-10-23T12:11:16Z</time>
      </trkpt>
      <trkpt lat="47.20189" lon="-1.67696">
        <ele>57</ele>
        <time>2021-10-23T12:11:18Z</time>
      </trkpt>
      <trkpt lat="47.20182" lon="-1.67679">
        <ele>58</ele>
        <time>2021-10-23T12:11:20Z</time>
      </trkpt>
      <trkpt lat="47.20174" lon="-1.67661">
        <ele>58</ele>
        <time>2021-10-23T12:11:22Z</time>
      </trkpt>
      <trkpt lat="47.20168" lon="-1.67643">
        <ele>57</ele>
        <time>2021-10-23T12:11:24Z</time>
      </trkpt>
      <trkpt lat="47.20161" lon="-1.67626">
        <ele>57</ele>
        <time>2021-10-23T12:11:26Z</time>
      </trkpt>
      <trkpt lat="47.20155" lon="-1.67609">
        <ele>57</ele>
        <time>2021-10-23T12:11:28Z</time>
      </trkpt>
      <trkpt lat="47.20148" lon="-1.67592">
        <ele>57</ele>
        <time>2021-10-23T12:11:30Z</time>
      </trkpt>
      <trkpt lat="47.20142" lon="-1.67574">
        <ele>57</ele>
        <time>2021-10-23T12:11:32Z</time>
      </trkpt>
      <trkpt lat="47.20136" lon="-1.67558">
        <ele>57</ele>
        <time>2021-10-23T12:11:34Z</time>
      </trkpt>
      <trkpt lat="47.2013" lon="-1.67542">
        <ele>57</ele>
        <time>2021-10-23T12:11:36Z</time>
      </trkpt>
      <trkpt lat="47.20124" lon="-1.67526">
        <ele>57</ele>
        <time>2021-10-23T12:11:38Z</time>
      </trkpt>
      <trkpt lat="47.20118" lon="-1.6751">
        <ele>57</ele>
        <time>2021-10-23T12:11:40Z</time>
      </trkpt>
      <trkpt lat="47.20112" lon="-1.67495">
        <ele>57</ele>
        <time>2021-10-23T12:11:42Z</time>
      </trkpt>
      <trkpt lat="47.20117" lon="-1.67481">
        <ele>58</ele>
        <time>2021-10-23T12:11:44Z</time>
      </trkpt>
      <trkpt lat="47.20132" lon="-1.67472">
        <ele>58</ele>
        <time>2021-10-23T12:11:46Z</time>
      </trkpt>
      <trkpt lat="47.20146" lon="-1.67465">
        <ele>58</ele>
        <time>2021-10-23T12:11:48Z</time>
      </trkpt>
      <trkpt lat="47.20165" lon="-1.67455">
        <ele>58</ele>
        <time>2021-10-23T12:11:51Z</time>
      </trkpt>
      <trkpt lat="47.20178" lon="-1.67449">
        <ele>57</ele>
        <time>2021-10-23T12:11:53Z</time>
      </trkpt>
      <trkpt lat="47.20191" lon="-1.67443">
        <ele>57</ele>
        <time>2021-10-23T12:11:55Z</time>
      </trkpt>
      <trkpt lat="47.20203" lon="-1.67437">
        <ele>57</ele>
        <time>2021-10-23T12:11:57Z</time>
      </trkpt>
      <trkpt lat="47.20216" lon="-1.67431">
        <ele>57</ele>
        <time>2021-10-23T12:11:59Z</time>
      </trkpt>
      <trkpt lat="47.20228" lon="-1.67425">
        <ele>57</ele>
        <time>2021-10-23T12:12:01Z</time>
      </trkpt>
      <trkpt lat="47.20247" lon="-1.67416">
        <ele>57</ele>
        <time>2021-10-23T12:12:04Z</time>
      </trkpt>
      <trkpt lat="47.20259" lon="-1.67411">
        <ele>57</ele>
        <time>2021-10-23T12:12:06Z</time>
      </trkpt>
      <trkpt lat="47.20271" lon="-1.67404">
        <ele>57</ele>
        <time>2021-10-23T12:12:08Z</time>
      </trkpt>
      <trkpt lat="47.20283" lon="-1.67398">
        <ele>57</ele>
        <time>2021-10-23T12:12:10Z</time>
      </trkpt>
      <trkpt lat="47.20295" lon="-1.67393">
        <ele>57</ele>
        <time>2021-10-23T12:12:12Z</time>
      </trkpt>
      <trkpt lat="47.20308" lon="-1.67387">
        <ele>57</ele>
        <time>2021-10-23T12:12:14Z</time>
      </trkpt>
      <trkpt lat="47.2032" lon="-1.67383">
        <ele>57</ele>
        <time>2021-10-23T12:12:16Z</time>
      </trkpt>
      <trkpt lat="47.2034" lon="-1.67388">
        <ele>57</ele>
        <time>2021-10-23T12:12:19Z</time>
      </trkpt>
      <trkpt lat="47.20352" lon="-1.67398">
        <ele>56</ele>
        <time>2021-10-23T12:12:21Z</time>
      </trkpt>
      <trkpt lat="47.20362" lon="-1.67412">
        <ele>56</ele>
        <time>2021-10-23T12:12:23Z</time>
      </trkpt>
      <trkpt lat="47.20371" lon="-1.6744">
        <ele>56</ele>
        <time>2021-10-23T12:12:26Z</time>
      </trkpt>
      <trkpt lat="47.20374" lon="-1.67459">
        <ele>56</ele>
        <time>2021-10-23T12:12:28Z</time>
      </trkpt>
      <trkpt lat="47.20376" lon="-1.67479">
        <ele>55</ele>
        <time>2021-10-23T12:12:30Z</time>
      </trkpt>
      <trkpt lat="47.20379" lon="-1.67498">
        <ele>55</ele>
        <time>2021-10-23T12:12:32Z</time>
      </trkpt>
      <trkpt lat="47.20382" lon="-1.67517">
        <ele>56</ele>
        <time>2021-10-23T12:12:34Z</time>
      </trkpt>
      <trkpt lat="47.20386" lon="-1.67533">
        <ele>55</ele>
        <time>2021-10-23T12:12:36Z</time>
      </trkpt>
      <trkpt lat="47.20393" lon="-1.67545">
        <ele>56</ele>
        <time>2021-10-23T12:12:38Z</time>
      </trkpt>
      <trkpt lat="47.20403" lon="-1.6755">
        <ele>56</ele>
        <time>2021-10-23T12:12:40Z</time>
      </trkpt>
      <trkpt lat="47.20413" lon="-1.67542">
        <ele>56</ele>
        <time>2021-10-23T12:12:42Z</time>
      </trkpt>
      <trkpt lat="47.20424" lon="-1.67533">
        <ele>56</ele>
        <time>2021-10-23T12:12:44Z</time>
      </trkpt>
      <trkpt lat="47.20436" lon="-1.67535">
        <ele>56</ele>
        <time>2021-10-23T12:12:46Z</time>
      </trkpt>
      <trkpt lat="47.20445" lon="-1.67548">
        <ele>57</ele>
        <time>2021-10-23T12:12:48Z</time>
      </trkpt>
      <trkpt lat="47.20451" lon="-1.67566">
        <ele>56</ele>
        <time>2021-10-23T12:12:50Z</time>
      </trkpt>
      <trkpt lat="47.20457" lon="-1.67583">
        <ele>56</ele>
        <time>2021-10-23T12:12:52Z</time>
      </trkpt>
      <trkpt lat="47.20467" lon="-1.67596">
        <ele>56</ele>
        <time>2021-10-23T12:12:54Z</time>
      </trkpt>
      <trkpt lat="47.20475" lon="-1.67611">
        <ele>55</ele>
        <time>2021-10-23T12:12:56Z</time>
      </trkpt>
      <trkpt lat="47.20483" lon="-1.67627">
        <ele>55</ele>
        <time>2021-10-23T12:12:58Z</time>
      </trkpt>
      <trkpt lat="47.2049" lon="-1.67644">
        <ele>55</ele>
        <time>2021-10-23T12:13:00Z</time>
      </trkpt>
      <trkpt lat="47.20496" lon="-1.67661">
        <ele>55</ele>
        <time>2021-10-23T12:13:02Z</time>
      </trkpt>
      <trkpt lat="47.20503" lon="-1.67678">
        <ele>55</ele>
        <time>2021-10-23T12:13:04Z</time>
      </trkpt>
      <trkpt lat="47.20509" lon="-1.67696">
        <ele>55</ele>
        <time>2021-10-23T12:13:06Z</time>
      </trkpt>
      <trkpt lat="47.20515" lon="-1.67713">
        <ele>55</ele>
        <time>2021-10-23T12:13:08Z</time>
      </trkpt>
      <trkpt lat="47.20521" lon="-1.6773">
        <ele>55</ele>
        <time>2021-10-23T12:13:10Z</time>
      </trkpt>
      <trkpt lat="47.20527" lon="-1.67747">
        <ele>55</ele>
        <time>2021-10-23T12:13:12Z</time>
      </trkpt>
      <trkpt lat="47.20533" lon="-1.67764">
        <ele>55</ele>
        <time>2021-10-23T12:13:14Z</time>
      </trkpt>
      <trkpt lat="47.20539" lon="-1.67781">
        <ele>55</ele>
        <time>2021-10-23T12:13:16Z</time>
      </trkpt>
      <trkpt lat="47.20545" lon="-1.67798">
        <ele>55</ele>
        <time>2021-10-23T12:13:18Z</time>
      </trkpt>
      <trkpt lat="47.20551" lon="-1.67816">
        <ele>55</ele>
        <time>2021-10-23T12:13:20Z</time>
      </trkpt>
      <trkpt lat="47.20556" lon="-1.67834">
        <ele>55</ele>
        <time>2021-10-23T12:13:22Z</time>
      </trkpt>
      <trkpt lat="47.20562" lon="-1.67852">
        <ele>55</ele>
        <time>2021-10-23T12:13:24Z</time>
      </trkpt>
      <trkpt lat="47.20568" lon="-1.67869">
        <ele>55</ele>
        <time>2021-10-23T12:13:26Z</time>
      </trkpt>
      <trkpt lat="47.20573" lon="-1.67887">
        <ele>54</ele>
        <time>2021-10-23T12:13:28Z</time>
      </trkpt>
      <trkpt lat="47.20579" lon="-1.67906">
        <ele>54</ele>
        <time>2021-10-23T12:13:30Z</time>
      </trkpt>
      <trkpt lat="47.20584" lon="-1.67924">
        <ele>54</ele>
        <time>2021-10-23T12:13:32Z</time>
      </trkpt>
      <trkpt lat="47.20589" lon="-1.67941">
        <ele>55</ele>
        <time>2021-10-23T12:13:34Z</time>
      </trkpt>
      <trkpt lat="47.20594" lon="-1.67959">
        <ele>55</ele>
        <time>2021-10-23T12:13:36Z</time>
      </trkpt>
      <trkpt lat="47.20599" lon="-1.67977">
        <ele>55</ele>
        <time>2021-10-23T12:13:38Z</time>
      </trkpt>
      <trkpt lat="47.20605" lon="-1.67995">
        <ele>55</ele>
        <time>2021-10-23T12:13:40Z</time>
      </trkpt>
      <trkpt lat="47.2061" lon="-1.68012">
        <ele>55</ele>
        <time>2021-10-23T12:13:42Z</time>
      </trkpt>
      <trkpt lat="47.20616" lon="-1.6803">
        <ele>54</ele>
        <time>2021-10-23T12:13:44Z</time>
      </trkpt>
      <trkpt lat="47.20621" lon="-1.68049">
        <ele>54</ele>
        <time>2021-10-23T12:13:46Z</time>
      </trkpt>
      <trkpt lat="47.20626" lon="-1.68066">
        <ele>55</ele>
        <time>2021-10-23T12:13:48Z</time>
      </trkpt>
      <trkpt lat="47.20631" lon="-1.68084">
        <ele>55</ele>
        <time>2021-10-23T12:13:50Z</time>
      </trkpt>
      <trkpt lat="47.20637" lon="-1.68102">
        <ele>54</ele>
        <time>2021-10-23T12:13:52Z</time>
      </trkpt>
      <trkpt lat="47.20642" lon="-1.6812">
        <ele>54</ele>
        <time>2021-10-23T12:13:54Z</time>
      </trkpt>
      <trkpt lat="47.20647" lon="-1.68138">
        <ele>54</ele>
        <time>2021-10-23T12:13:56Z</time>
      </trkpt>
      <trkpt lat="47.20652" lon="-1.68156">
        <ele>54</ele>
        <time>2021-10-23T12:13:58Z</time>
      </trkpt>
      <trkpt lat="47.20658" lon="-1.68173">
        <ele>55</ele>
        <time>2021-10-23T12:14:00Z</time>
      </trkpt>
      <trkpt lat="47.20663" lon="-1.68191">
        <ele>55</ele>
        <time>2021-10-23T12:14:02Z</time>
      </trkpt>
      <trkpt lat="47.20668" lon="-1.68209">
        <ele>55</ele>
        <time>2021-10-23T12:14:04Z</time>
      </trkpt>
      <trkpt lat="47.20673" lon="-1.68226">
        <ele>55</ele>
        <time>2021-10-23T12:14:06Z</time>
      </trkpt>
      <trkpt lat="47.20678" lon="-1.68243">
        <ele>55</ele>
        <time>2021-10-23T12:14:08Z</time>
      </trkpt>
      <trkpt lat="47.20684" lon="-1.6826">
        <ele>55</ele>
        <time>2021-10-23T12:14:10Z</time>
      </trkpt>
      <trkpt lat="47.20688" lon="-1.68278">
        <ele>55</ele>
        <time>2021-10-23T12:14:12Z</time>
      </trkpt>
      <trkpt lat="47.20693" lon="-1.68295">
        <ele>55</ele>
        <time>2021-10-23T12:14:14Z</time>
      </trkpt>
      <trkpt lat="47.20699" lon="-1.68312">
        <ele>55</ele>
        <time>2021-10-23T12:14:16Z</time>
      </trkpt>
      <trkpt lat="47.20704" lon="-1.6833">
        <ele>55</ele>
        <time>2021-10-23T12:14:18Z</time>
      </trkpt>
      <trkpt lat="47.2071" lon="-1.68347">
        <ele>55</ele>
        <time>2021-10-23T12:14:20Z</time>
      </trkpt>
      <trkpt lat="47.20717" lon="-1.68362">
        <ele>55</ele>
        <time>2021-10-23T12:14:22Z</time>
      </trkpt>
      <trkpt lat="47.20729" lon="-1.68372">
        <ele>54</ele>
        <time>2021-10-23T12:14:24Z</time>
      </trkpt>
      <trkpt lat="47.20741" lon="-1.68381">
        <ele>54</ele>
        <time>2021-10-23T12:14:26Z</time>
      </trkpt>
      <trkpt lat="47.20754" lon="-1.68383">
        <ele>54</ele>
        <time>2021-10-23T12:14:28Z</time>
      </trkpt>
      <trkpt lat="47.20768" lon="-1.68385">
        <ele>54</ele>
        <time>2021-10-23T12:14:30Z</time>
      </trkpt>
      <trkpt lat="47.2078" lon="-1.68386">
        <ele>54</ele>
        <time>2021-10-23T12:14:32Z</time>
      </trkpt>
      <trkpt lat="47.20793" lon="-1.68387">
        <ele>54</ele>
        <time>2021-10-23T12:14:34Z</time>
      </trkpt>
      <trkpt lat="47.20806" lon="-1.68388">
        <ele>54</ele>
        <time>2021-10-23T12:14:36Z</time>
      </trkpt>
      <trkpt lat="47.20818" lon="-1.68389">
        <ele>54</ele>
        <time>2021-10-23T12:14:38Z</time>
      </trkpt>
      <trkpt lat="47.2083" lon="-1.6839">
        <ele>55</ele>
        <time>2021-10-23T12:14:40Z</time>
      </trkpt>
      <trkpt lat="47.20843" lon="-1.6839">
        <ele>55</ele>
        <time>2021-10-23T12:14:42Z</time>
      </trkpt>
      <trkpt lat="47.20856" lon="-1.68391">
        <ele>54</ele>
        <time>2021-10-23T12:14:44Z</time>
      </trkpt>
      <trkpt lat="47.20868" lon="-1.68392">
        <ele>54</ele>
        <time>2021-10-23T12:14:46Z</time>
      </trkpt>
      <trkpt lat="47.20881" lon="-1.68392">
        <ele>55</ele>
        <time>2021-10-23T12:14:48Z</time>
      </trkpt>
      <trkpt lat="47.20893" lon="-1.68392">
        <ele>55</ele>
        <time>2021-10-23T12:14:50Z</time>
      </trkpt>
      <trkpt lat="47.20906" lon="-1.68392">
        <ele>55</ele>
        <time>2021-10-23T12:14:52Z</time>
      </trkpt>
      <trkpt lat="47.20919" lon="-1.68393">
        <ele>55</ele>
        <time>2021-10-23T12:14:54Z</time>
      </trkpt>
      <trkpt lat="47.20931" lon="-1.68394">
        <ele>55</ele>
        <time>2021-10-23T12:14:56Z</time>
      </trkpt>
      <trkpt lat="47.20944" lon="-1.68394">
        <ele>56</ele>
        <time>2021-10-23T12:14:58Z</time>
      </trkpt>
      <trkpt lat="47.20956" lon="-1.68395">
        <ele>56</ele>
        <time>2021-10-23T12:15:00Z</time>
      </trkpt>
      <trkpt lat="47.20969" lon="-1.68395">
        <ele>56</ele>
        <time>2021-10-23T12:15:02Z</time>
      </trkpt>
      <trkpt lat="47.20982" lon="-1.68395">
        <ele>56</ele>
        <time>2021-10-23T12:15:04Z</time>
      </trkpt>
      <trkpt lat="47.20995" lon="-1.68395">
        <ele>57</ele>
        <time>2021-10-23T12:15:06Z</time>
      </trkpt>
      <trkpt lat="47.21008" lon="-1.68396">
        <ele>56</ele>
        <time>2021-10-23T12:15:08Z</time>
      </trkpt>
      <trkpt lat="47.21021" lon="-1.68397">
        <ele>56</ele>
        <time>2021-10-23T12:15:10Z</time>
      </trkpt>
      <trkpt lat="47.21034" lon="-1.68398">
        <ele>56</ele>
        <time>2021-10-23T12:15:12Z</time>
      </trkpt>
      <trkpt lat="47.21047" lon="-1.68399">
        <ele>55</ele>
        <time>2021-10-23T12:15:14Z</time>
      </trkpt>
      <trkpt lat="47.21059" lon="-1.684">
        <ele>55</ele>
        <time>2021-10-23T12:15:16Z</time>
      </trkpt>
      <trkpt lat="47.21072" lon="-1.68401">
        <ele>55</ele>
        <time>2021-10-23T12:15:18Z</time>
      </trkpt>
      <trkpt lat="47.21085" lon="-1.68401">
        <ele>55</ele>
        <time>2021-10-23T12:15:20Z</time>
      </trkpt>
      <trkpt lat="47.21097" lon="-1.68401">
        <ele>55</ele>
        <time>2021-10-23T12:15:22Z</time>
      </trkpt>
      <trkpt lat="47.2111" lon="-1.68402">
        <ele>55</ele>
        <time>2021-10-23T12:15:24Z</time>
      </trkpt>
      <trkpt lat="47.21123" lon="-1.68402">
        <ele>55</ele>
        <time>2021-10-23T12:15:26Z</time>
      </trkpt>
      <trkpt lat="47.21135" lon="-1.68403">
        <ele>55</ele>
        <time>2021-10-23T12:15:28Z</time>
      </trkpt>
      <trkpt lat="47.21146" lon="-1.68403">
        <ele>55</ele>
        <time>2021-10-23T12:15:30Z</time>
      </trkpt>
      <trkpt lat="47.21158" lon="-1.68404">
        <ele>55</ele>
        <time>2021-10-23T12:15:32Z</time>
      </trkpt>
      <trkpt lat="47.21169" lon="-1.68404">
        <ele>56</ele>
        <time>2021-10-23T12:15:34Z</time>
      </trkpt>
      <trkpt lat="47.21179" lon="-1.68402">
        <ele>56</ele>
        <time>2021-10-23T12:15:36Z</time>
      </trkpt>
      <trkpt lat="47.21189" lon="-1.68395">
        <ele>57</ele>
        <time>2021-10-23T12:15:38Z</time>
      </trkpt>
      <trkpt lat="47.21193" lon="-1.68382">
        <ele>57</ele>
        <time>2021-10-23T12:15:40Z</time>
      </trkpt>
      <trkpt lat="47.21191" lon="-1.68362">
        <ele>57</ele>
        <time>2021-10-23T12:15:43Z</time>
      </trkpt>
      <trkpt lat="47.2119" lon="-1.68343">
        <ele>58</ele>
        <time>2021-10-23T12:15:46Z</time>
      </trkpt>
      <trkpt lat="47.21189" lon="-1.68324">
        <ele>59</ele>
        <time>2021-10-23T12:15:49Z</time>
      </trkpt>
      <trkpt lat="47.21189" lon="-1.68305">
        <ele>60</ele>
        <time>2021-10-23T12:15:52Z</time>
      </trkpt>
      <trkpt lat="47.21194" lon="-1.68288">
        <ele>61</ele>
        <time>2021-10-23T12:15:55Z</time>
      </trkpt>
      <trkpt lat="47.21202" lon="-1.6828">
        <ele>62</ele>
        <time>2021-10-23T12:15:57Z</time>
      </trkpt>
      <trkpt lat="47.21214" lon="-1.68273">
        <ele>63</ele>
        <time>2021-10-23T12:16:00Z</time>
      </trkpt>
      <trkpt lat="47.21227" lon="-1.68272">
        <ele>64</ele>
        <time>2021-10-23T12:16:03Z</time>
      </trkpt>
      <trkpt lat="47.2124" lon="-1.68269">
        <ele>65</ele>
        <time>2021-10-23T12:16:06Z</time>
      </trkpt>
      <trkpt lat="47.21253" lon="-1.68266">
        <ele>66</ele>
        <time>2021-10-23T12:16:09Z</time>
      </trkpt>
      <trkpt lat="47.21266" lon="-1.68262">
        <ele>66</ele>
        <time>2021-10-23T12:16:12Z</time>
      </trkpt>
      <trkpt lat="47.21278" lon="-1.68255">
        <ele>67</ele>
        <time>2021-10-23T12:16:15Z</time>
      </trkpt>
      <trkpt lat="47.2129" lon="-1.6825">
        <ele>68</ele>
        <time>2021-10-23T12:16:18Z</time>
      </trkpt>
      <trkpt lat="47.21302" lon="-1.68244">
        <ele>68</ele>
        <time>2021-10-23T12:16:21Z</time>
      </trkpt>
      <trkpt lat="47.21313" lon="-1.68238">
        <ele>70</ele>
        <time>2021-10-23T12:16:24Z</time>
      </trkpt>
      <trkpt lat="47.21326" lon="-1.68233">
        <ele>71</ele>
        <time>2021-10-23T12:16:27Z</time>
      </trkpt>
      <trkpt lat="47.21338" lon="-1.68228">
        <ele>72</ele>
        <time>2021-10-23T12:16:30Z</time>
      </trkpt>
      <trkpt lat="47.2135" lon="-1.68224">
        <ele>74</ele>
        <time>2021-10-23T12:16:33Z</time>
      </trkpt>
      <trkpt lat="47.21363" lon="-1.6822">
        <ele>75</ele>
        <time>2021-10-23T12:16:36Z</time>
      </trkpt>
      <trkpt lat="47.21372" lon="-1.68219">
        <ele>76</ele>
        <time>2021-10-23T12:16:38Z</time>
      </trkpt>
      <trkpt lat="47.21382" lon="-1.68218">
        <ele>76</ele>
        <time>2021-10-23T12:16:40Z</time>
      </trkpt>
      <trkpt lat="47.21391" lon="-1.68218">
        <ele>76</ele>
        <time>2021-10-23T12:16:42Z</time>
      </trkpt>
      <trkpt lat="47.214" lon="-1.68217">
        <ele>76</ele>
        <time>2021-10-23T12:16:44Z</time>
      </trkpt>
      <trkpt lat="47.2141" lon="-1.68216">
        <ele>77</ele>
        <time>2021-10-23T12:16:46Z</time>
      </trkpt>
      <trkpt lat="47.21419" lon="-1.68215">
        <ele>77</ele>
        <time>2021-10-23T12:16:48Z</time>
      </trkpt>
      <trkpt lat="47.21428" lon="-1.68213">
        <ele>77</ele>
        <time>2021-10-23T12:16:50Z</time>
      </trkpt>
      <trkpt lat="47.21437" lon="-1.68212">
        <ele>77</ele>
        <time>2021-10-23T12:16:52Z</time>
      </trkpt>
      <trkpt lat="47.21447" lon="-1.68211">
        <ele>77</ele>
        <time>2021-10-23T12:16:54Z</time>
      </trkpt>
      <trkpt lat="47.2146" lon="-1.68209">
        <ele>78</ele>
        <time>2021-10-23T12:16:57Z</time>
      </trkpt>
      <trkpt lat="47.21473" lon="-1.68207">
        <ele>79</ele>
        <time>2021-10-23T12:17:00Z</time>
      </trkpt>
      <trkpt lat="47.21483" lon="-1.68204">
        <ele>79</ele>
        <time>2021-10-23T12:17:02Z</time>
      </trkpt>
      <trkpt lat="47.21491" lon="-1.68199">
        <ele>79</ele>
        <time>2021-10-23T12:17:04Z</time>
      </trkpt>
      <trkpt lat="47.21504" lon="-1.68191">
        <ele>79</ele>
        <time>2021-10-23T12:17:07Z</time>
      </trkpt>
      <trkpt lat="47.21515" lon="-1.68183">
        <ele>80</ele>
        <time>2021-10-23T12:17:10Z</time>
      </trkpt>
      <trkpt lat="47.21527" lon="-1.68175">
        <ele>80</ele>
        <time>2021-10-23T12:17:13Z</time>
      </trkpt>
      <trkpt lat="47.21538" lon="-1.68167">
        <ele>81</ele>
        <time>2021-10-23T12:17:16Z</time>
      </trkpt>
      <trkpt lat="47.21548" lon="-1.68169">
        <ele>81</ele>
        <time>2021-10-23T12:17:18Z</time>
      </trkpt>
      <trkpt lat="47.21557" lon="-1.68171">
        <ele>81</ele>
        <time>2021-10-23T12:17:20Z</time>
      </trkpt>
      <trkpt lat="47.21567" lon="-1.68173">
        <ele>81</ele>
        <time>2021-10-23T12:17:22Z</time>
      </trkpt>
      <trkpt lat="47.21578" lon="-1.68174">
        <ele>81</ele>
        <time>2021-10-23T12:17:24Z</time>
      </trkpt>
      <trkpt lat="47.21588" lon="-1.68176">
        <ele>81</ele>
        <time>2021-10-23T12:17:26Z</time>
      </trkpt>
      <trkpt lat="47.21598" lon="-1.68178">
        <ele>81</ele>
        <time>2021-10-23T12:17:28Z</time>
      </trkpt>
      <trkpt lat="47.21608" lon="-1.68181">
        <ele>82</ele>
        <time>2021-10-23T12:17:30Z</time>
      </trkpt>
      <trkpt lat="47.21618" lon="-1.68184">
        <ele>82</ele>
        <time>2021-10-23T12:17:32Z</time>
      </trkpt>
      <trkpt lat="47.21629" lon="-1.68186">
        <ele>82</ele>
        <time>2021-10-23T12:17:34Z</time>
      </trkpt>
      <trkpt lat="47.21639" lon="-1.68188">
        <ele>83</ele>
        <time>2021-10-23T12:17:36Z</time>
      </trkpt>
      <trkpt lat="47.2165" lon="-1.68189">
        <ele>84</ele>
        <time>2021-10-23T12:17:38Z</time>
      </trkpt>
      <trkpt lat="47.21661" lon="-1.6819">
        <ele>86</ele>
        <time>2021-10-23T12:17:40Z</time>
      </trkpt>
      <trkpt lat="47.21673" lon="-1.68194">
        <ele>85</ele>
        <time>2021-10-23T12:17:42Z</time>
      </trkpt>
      <trkpt lat="47.21685" lon="-1.68196">
        <ele>84</ele>
        <time>2021-10-23T12:17:44Z</time>
      </trkpt>
      <trkpt lat="47.21697" lon="-1.68199">
        <ele>84</ele>
        <time>2021-10-23T12:17:46Z</time>
      </trkpt>
      <trkpt lat="47.21709" lon="-1.68201">
        <ele>84</ele>
        <time>2021-10-23T12:17:48Z</time>
      </trkpt>
      <trkpt lat="47.21721" lon="-1.68204">
        <ele>83</ele>
        <time>2021-10-23T12:17:50Z</time>
      </trkpt>
      <trkpt lat="47.21733" lon="-1.68207">
        <ele>83</ele>
        <time>2021-10-23T12:17:52Z</time>
      </trkpt>
      <trkpt lat="47.21746" lon="-1.6821">
        <ele>82</ele>
        <time>2021-10-23T12:17:54Z</time>
      </trkpt>
      <trkpt lat="47.21758" lon="-1.68213">
        <ele>82</ele>
        <time>2021-10-23T12:17:56Z</time>
      </trkpt>
      <trkpt lat="47.21771" lon="-1.68216">
        <ele>81</ele>
        <time>2021-10-23T12:17:58Z</time>
      </trkpt>
      <trkpt lat="47.21783" lon="-1.68219">
        <ele>81</ele>
        <time>2021-10-23T12:18:00Z</time>
      </trkpt>
      <trkpt lat="47.21795" lon="-1.6822">
        <ele>80</ele>
        <time>2021-10-23T12:18:02Z</time>
      </trkpt>
      <trkpt lat="47.21807" lon="-1.6822">
        <ele>80</ele>
        <time>2021-10-23T12:18:04Z</time>
      </trkpt>
      <trkpt lat="47.2182" lon="-1.68222">
        <ele>80</ele>
        <time>2021-10-23T12:18:06Z</time>
      </trkpt>
      <trkpt lat="47.21832" lon="-1.68224">
        <ele>79</ele>
        <time>2021-10-23T12:18:08Z</time>
      </trkpt>
      <trkpt lat="47.21845" lon="-1.68226">
        <ele>79</ele>
        <time>2021-10-23T12:18:10Z</time>
      </trkpt>
      <trkpt lat="47.21857" lon="-1.68226">
        <ele>79</ele>
        <time>2021-10-23T12:18:12Z</time>
      </trkpt>
      <trkpt lat="47.21869" lon="-1.68224">
        <ele>79</ele>
        <time>2021-10-23T12:18:14Z</time>
      </trkpt>
      <trkpt lat="47.21882" lon="-1.6822">
        <ele>79</ele>
        <time>2021-10-23T12:18:16Z</time>
      </trkpt>
      <trkpt lat="47.21893" lon="-1.68214">
        <ele>79</ele>
        <time>2021-10-23T12:18:18Z</time>
      </trkpt>
      <trkpt lat="47.21905" lon="-1.68207">
        <ele>79</ele>
        <time>2021-10-23T12:18:20Z</time>
      </trkpt>
      <trkpt lat="47.21917" lon="-1.682">
        <ele>78</ele>
        <time>2021-10-23T12:18:22Z</time>
      </trkpt>
      <trkpt lat="47.21928" lon="-1.68193">
        <ele>78</ele>
        <time>2021-10-23T12:18:24Z</time>
      </trkpt>
      <trkpt lat="47.21939" lon="-1.68186">
        <ele>79</ele>
        <time>2021-10-23T12:18:26Z</time>
      </trkpt>
      <trkpt lat="47.2195" lon="-1.68178">
        <ele>79</ele>
        <time>2021-10-23T12:18:28Z</time>
      </trkpt>
      <trkpt lat="47.21962" lon="-1.6817">
        <ele>79</ele>
        <time>2021-10-23T12:18:30Z</time>
      </trkpt>
      <trkpt lat="47.21973" lon="-1.68163">
        <ele>80</ele>
        <time>2021-10-23T12:18:32Z</time>
      </trkpt>
      <trkpt lat="47.21984" lon="-1.68157">
        <ele>79</ele>
        <time>2021-10-23T12:18:34Z</time>
      </trkpt>
      <trkpt lat="47.21995" lon="-1.6815">
        <ele>79</ele>
        <time>2021-10-23T12:18:36Z</time>
      </trkpt>
      <trkpt lat="47.22006" lon="-1.68142">
        <ele>79</ele>
        <time>2021-10-23T12:18:38Z</time>
      </trkpt>
      <trkpt lat="47.22016" lon="-1.68134">
        <ele>79</ele>
        <time>2021-10-23T12:18:40Z</time>
      </trkpt>
      <trkpt lat="47.22026" lon="-1.68124">
        <ele>79</ele>
        <time>2021-10-23T12:18:42Z</time>
      </trkpt>
      <trkpt lat="47.22035" lon="-1.68113">
        <ele>80</ele>
        <time>2021-10-23T12:18:44Z</time>
      </trkpt>
      <trkpt lat="47.22044" lon="-1.68102">
        <ele>80</ele>
        <time>2021-10-23T12:18:46Z</time>
      </trkpt>
      <trkpt lat="47.22053" lon="-1.68091">
        <ele>80</ele>
        <time>2021-10-23T12:18:48Z</time>
      </trkpt>
      <trkpt lat="47.22062" lon="-1.6808">
        <ele>80</ele>
        <time>2021-10-23T12:18:50Z</time>
      </trkpt>
      <trkpt lat="47.22071" lon="-1.68069">
        <ele>80</ele>
        <time>2021-10-23T12:18:52Z</time>
      </trkpt>
      <trkpt lat="47.22079" lon="-1.68057">
        <ele>81</ele>
        <time>2021-10-23T12:18:54Z</time>
      </trkpt>
      <trkpt lat="47.22088" lon="-1.68046">
        <ele>81</ele>
        <time>2021-10-23T12:18:56Z</time>
      </trkpt>
      <trkpt lat="47.22096" lon="-1.68034">
        <ele>81</ele>
        <time>2021-10-23T12:18:58Z</time>
      </trkpt>
      <trkpt lat="47.22105" lon="-1.68023">
        <ele>81</ele>
        <time>2021-10-23T12:19:00Z</time>
      </trkpt>
      <trkpt lat="47.22114" lon="-1.68012">
        <ele>81</ele>
        <time>2021-10-23T12:19:02Z</time>
      </trkpt>
      <trkpt lat="47.22123" lon="-1.68001">
        <ele>81</ele>
        <time>2021-10-23T12:19:04Z</time>
      </trkpt>
      <trkpt lat="47.22132" lon="-1.67991">
        <ele>81</ele>
        <time>2021-10-23T12:19:06Z</time>
      </trkpt>
      <trkpt lat="47.22142" lon="-1.67982">
        <ele>81</ele>
        <time>2021-10-23T12:19:08Z</time>
      </trkpt>
      <trkpt lat="47.22153" lon="-1.67974">
        <ele>81</ele>
        <time>2021-10-23T12:19:10Z</time>
      </trkpt>
      <trkpt lat="47.22164" lon="-1.67967">
        <ele>81</ele>
        <time>2021-10-23T12:19:12Z</time>
      </trkpt>
      <trkpt lat="47.22175" lon="-1.67959">
        <ele>81</ele>
        <time>2021-10-23T12:19:14Z</time>
      </trkpt>
      <trkpt lat="47.22186" lon="-1.67951">
        <ele>81</ele>
        <time>2021-10-23T12:19:16Z</time>
      </trkpt>
      <trkpt lat="47.22198" lon="-1.67943">
        <ele>80</ele>
        <time>2021-10-23T12:19:18Z</time>
      </trkpt>
      <trkpt lat="47.2221" lon="-1.67935">
        <ele>80</ele>
        <time>2021-10-23T12:19:20Z</time>
      </trkpt>
      <trkpt lat="47.22223" lon="-1.67926">
        <ele>80</ele>
        <time>2021-10-23T12:19:22Z</time>
      </trkpt>
      <trkpt lat="47.22235" lon="-1.67919">
        <ele>80</ele>
        <time>2021-10-23T12:19:24Z</time>
      </trkpt>
      <trkpt lat="47.22248" lon="-1.6791">
        <ele>79</ele>
        <time>2021-10-23T12:19:26Z</time>
      </trkpt>
      <trkpt lat="47.2226" lon="-1.67902">
        <ele>79</ele>
        <time>2021-10-23T12:19:28Z</time>
      </trkpt>
      <trkpt lat="47.22272" lon="-1.67893">
        <ele>79</ele>
        <time>2021-10-23T12:19:30Z</time>
      </trkpt>
      <trkpt lat="47.22285" lon="-1.67885">
        <ele>79</ele>
        <time>2021-10-23T12:19:32Z</time>
      </trkpt>
      <trkpt lat="47.22297" lon="-1.67877">
        <ele>79</ele>
        <time>2021-10-23T12:19:34Z</time>
      </trkpt>
      <trkpt lat="47.22309" lon="-1.67868">
        <ele>79</ele>
        <time>2021-10-23T12:19:36Z</time>
      </trkpt>
      <trkpt lat="47.22321" lon="-1.6786">
        <ele>79</ele>
        <time>2021-10-23T12:19:38Z</time>
      </trkpt>
      <trkpt lat="47.22334" lon="-1.67852">
        <ele>79</ele>
        <time>2021-10-23T12:19:40Z</time>
      </trkpt>
      <trkpt lat="47.22346" lon="-1.67845">
        <ele>79</ele>
        <time>2021-10-23T12:19:42Z</time>
      </trkpt>
      <trkpt lat="47.22358" lon="-1.67839">
        <ele>79</ele>
        <time>2021-10-23T12:19:44Z</time>
      </trkpt>
      <trkpt lat="47.2237" lon="-1.67833">
        <ele>80</ele>
        <time>2021-10-23T12:19:46Z</time>
      </trkpt>
      <trkpt lat="47.22383" lon="-1.67829">
        <ele>80</ele>
        <time>2021-10-23T12:19:48Z</time>
      </trkpt>
      <trkpt lat="47.22395" lon="-1.67826">
        <ele>80</ele>
        <time>2021-10-23T12:19:50Z</time>
      </trkpt>
      <trkpt lat="47.22407" lon="-1.67823">
        <ele>80</ele>
        <time>2021-10-23T12:19:52Z</time>
      </trkpt>
      <trkpt lat="47.22419" lon="-1.67821">
        <ele>81</ele>
        <time>2021-10-23T12:19:54Z</time>
      </trkpt>
      <trkpt lat="47.22431" lon="-1.67819">
        <ele>81</ele>
        <time>2021-10-23T12:19:56Z</time>
      </trkpt>
      <trkpt lat="47.22443" lon="-1.67818">
        <ele>81</ele>
        <time>2021-10-23T12:19:58Z</time>
      </trkpt>
      <trkpt lat="47.22456" lon="-1.67818">
        <ele>82</ele>
        <time>2021-10-23T12:20:00Z</time>
      </trkpt>
      <trkpt lat="47.22468" lon="-1.67819">
        <ele>82</ele>
        <time>2021-10-23T12:20:02Z</time>
      </trkpt>
      <trkpt lat="47.2248" lon="-1.67821">
        <ele>81</ele>
        <time>2021-10-23T12:20:04Z</time>
      </trkpt>
      <trkpt lat="47.22491" lon="-1.67822">
        <ele>82</ele>
        <time>2021-10-23T12:20:06Z</time>
      </trkpt>
      <trkpt lat="47.22502" lon="-1.67825">
        <ele>82</ele>
        <time>2021-10-23T12:20:08Z</time>
      </trkpt>
      <trkpt lat="47.22514" lon="-1.67828">
        <ele>82</ele>
        <time>2021-10-23T12:20:10Z</time>
      </trkpt>
      <trkpt lat="47.22525" lon="-1.6783">
        <ele>83</ele>
        <time>2021-10-23T12:20:12Z</time>
      </trkpt>
      <trkpt lat="47.22537" lon="-1.67831">
        <ele>83</ele>
        <time>2021-10-23T12:20:14Z</time>
      </trkpt>
      <trkpt lat="47.22548" lon="-1.67832">
        <ele>83</ele>
        <time>2021-10-23T12:20:16Z</time>
      </trkpt>
      <trkpt lat="47.2256" lon="-1.67833">
        <ele>83</ele>
        <time>2021-10-23T12:20:18Z</time>
      </trkpt>
      <trkpt lat="47.22571" lon="-1.67834">
        <ele>84</ele>
        <time>2021-10-23T12:20:20Z</time>
      </trkpt>
      <trkpt lat="47.2258" lon="-1.67827">
        <ele>84</ele>
        <time>2021-10-23T12:20:22Z</time>
      </trkpt>
      <trkpt lat="47.2259" lon="-1.67823">
        <ele>85</ele>
        <time>2021-10-23T12:20:24Z</time>
      </trkpt>
      <trkpt lat="47.22602" lon="-1.67828">
        <ele>85</ele>
        <time>2021-10-23T12:20:26Z</time>
      </trkpt>
      <trkpt lat="47.22613" lon="-1.67833">
        <ele>85</ele>
        <time>2021-10-23T12:20:28Z</time>
      </trkpt>
      <trkpt lat="47.22624" lon="-1.67831">
        <ele>85</ele>
        <time>2021-10-23T12:20:30Z</time>
      </trkpt>
      <trkpt lat="47.22635" lon="-1.6783">
        <ele>86</ele>
        <time>2021-10-23T12:20:32Z</time>
      </trkpt>
      <trkpt lat="47.22646" lon="-1.67828">
        <ele>87</ele>
        <time>2021-10-23T12:20:34Z</time>
      </trkpt>
      <trkpt lat="47.22657" lon="-1.67826">
        <ele>87</ele>
        <time>2021-10-23T12:20:36Z</time>
      </trkpt>
      <trkpt lat="47.22667" lon="-1.67823">
        <ele>88</ele>
        <time>2021-10-23T12:20:38Z</time>
      </trkpt>
      <trkpt lat="47.22678" lon="-1.6782">
        <ele>88</ele>
        <time>2021-10-23T12:20:40Z</time>
      </trkpt>
      <trkpt lat="47.22689" lon="-1.67818">
        <ele>88</ele>
        <time>2021-10-23T12:20:42Z</time>
      </trkpt>
      <trkpt lat="47.227" lon="-1.67816">
        <ele>89</ele>
        <time>2021-10-23T12:20:44Z</time>
      </trkpt>
      <trkpt lat="47.22711" lon="-1.67813">
        <ele>89</ele>
        <time>2021-10-23T12:20:46Z</time>
      </trkpt>
      <trkpt lat="47.22722" lon="-1.67811">
        <ele>90</ele>
        <time>2021-10-23T12:20:48Z</time>
      </trkpt>
      <trkpt lat="47.22732" lon="-1.67808">
        <ele>90</ele>
        <time>2021-10-23T12:20:50Z</time>
      </trkpt>
      <trkpt lat="47.22742" lon="-1.67806">
        <ele>91</ele>
        <time>2021-10-23T12:20:52Z</time>
      </trkpt>
      <trkpt lat="47.22752" lon="-1.67803">
        <ele>91</ele>
        <time>2021-10-23T12:20:54Z</time>
      </trkpt>
      <trkpt lat="47.22762" lon="-1.678">
        <ele>92</ele>
        <time>2021-10-23T12:20:56Z</time>
      </trkpt>
      <trkpt lat="47.22772" lon="-1.67797">
        <ele>92</ele>
        <time>2021-10-23T12:20:58Z</time>
      </trkpt>
      <trkpt lat="47.22782" lon="-1.67792">
        <ele>92</ele>
        <time>2021-10-23T12:21:00Z</time>
      </trkpt>
      <trkpt lat="47.22792" lon="-1.67788">
        <ele>92</ele>
        <time>2021-10-23T12:21:02Z</time>
      </trkpt>
      <trkpt lat="47.22802" lon="-1.67783">
        <ele>93</ele>
        <time>2021-10-23T12:21:04Z</time>
      </trkpt>
      <trkpt lat="47.22811" lon="-1.67779">
        <ele>93</ele>
        <time>2021-10-23T12:21:06Z</time>
      </trkpt>
      <trkpt lat="47.22821" lon="-1.67775">
        <ele>94</ele>
        <time>2021-10-23T12:21:08Z</time>
      </trkpt>
      <trkpt lat="47.2283" lon="-1.67769">
        <ele>94</ele>
        <time>2021-10-23T12:21:10Z</time>
      </trkpt>
      <trkpt lat="47.2284" lon="-1.67765">
        <ele>95</ele>
        <time>2021-10-23T12:21:12Z</time>
      </trkpt>
      <trkpt lat="47.22849" lon="-1.6776">
        <ele>96</ele>
        <time>2021-10-23T12:21:14Z</time>
      </trkpt>
      <trkpt lat="47.22858" lon="-1.67755">
        <ele>97</ele>
        <time>2021-10-23T12:21:16Z</time>
      </trkpt>
      <trkpt lat="47.22866" lon="-1.6775">
        <ele>97</ele>
        <time>2021-10-23T12:21:18Z</time>
      </trkpt>
      <trkpt lat="47.22875" lon="-1.67745">
        <ele>98</ele>
        <time>2021-10-23T12:21:20Z</time>
      </trkpt>
      <trkpt lat="47.22884" lon="-1.67739">
        <ele>99</ele>
        <time>2021-10-23T12:21:22Z</time>
      </trkpt>
      <trkpt lat="47.22893" lon="-1.67734">
        <ele>100</ele>
        <time>2021-10-23T12:21:24Z</time>
      </trkpt>
      <trkpt lat="47.22902" lon="-1.67728">
        <ele>100</ele>
        <time>2021-10-23T12:21:26Z</time>
      </trkpt>
      <trkpt lat="47.22911" lon="-1.67722">
        <ele>100</ele>
        <time>2021-10-23T12:21:28Z</time>
      </trkpt>
      <trkpt lat="47.2292" lon="-1.67716">
        <ele>101</ele>
        <time>2021-10-23T12:21:30Z</time>
      </trkpt>
      <trkpt lat="47.2293" lon="-1.67711">
        <ele>100</ele>
        <time>2021-10-23T12:21:32Z</time>
      </trkpt>
      <trkpt lat="47.2294" lon="-1.67705">
        <ele>100</ele>
        <time>2021-10-23T12:21:34Z</time>
      </trkpt>
      <trkpt lat="47.22949" lon="-1.67698">
        <ele>100</ele>
        <time>2021-10-23T12:21:36Z</time>
      </trkpt>
      <trkpt lat="47.22958" lon="-1.67691">
        <ele>101</ele>
        <time>2021-10-23T12:21:38Z</time>
      </trkpt>
      <trkpt lat="47.22968" lon="-1.67684">
        <ele>101</ele>
        <time>2021-10-23T12:21:40Z</time>
      </trkpt>
      <trkpt lat="47.22978" lon="-1.67677">
        <ele>100</ele>
        <time>2021-10-23T12:21:42Z</time>
      </trkpt>
      <trkpt lat="47.22988" lon="-1.6767">
        <ele>100</ele>
        <time>2021-10-23T12:21:44Z</time>
      </trkpt>
      <trkpt lat="47.22997" lon="-1.67663">
        <ele>100</ele>
        <time>2021-10-23T12:21:46Z</time>
      </trkpt>
      <trkpt lat="47.23007" lon="-1.67656">
        <ele>100</ele>
        <time>2021-10-23T12:21:48Z</time>
      </trkpt>
      <trkpt lat="47.23017" lon="-1.67648">
        <ele>100</ele>
        <time>2021-10-23T12:21:50Z</time>
      </trkpt>
      <trkpt lat="47.23027" lon="-1.67639">
        <ele>100</ele>
        <time>2021-10-23T12:21:52Z</time>
      </trkpt>
      <trkpt lat="47.23036" lon="-1.67629">
        <ele>100</ele>
        <time>2021-10-23T12:21:54Z</time>
      </trkpt>
      <trkpt lat="47.23044" lon="-1.67618">
        <ele>99</ele>
        <time>2021-10-23T12:21:56Z</time>
      </trkpt>
      <trkpt lat="47.23052" lon="-1.67606">
        <ele>99</ele>
        <time>2021-10-23T12:21:58Z</time>
      </trkpt>
      <trkpt lat="47.23059" lon="-1.67594">
        <ele>99</ele>
        <time>2021-10-23T12:22:00Z</time>
      </trkpt>
      <trkpt lat="47.23067" lon="-1.67582">
        <ele>99</ele>
        <time>2021-10-23T12:22:02Z</time>
      </trkpt>
      <trkpt lat="47.23075" lon="-1.6757">
        <ele>99</ele>
        <time>2021-10-23T12:22:04Z</time>
      </trkpt>
      <trkpt lat="47.23083" lon="-1.67559">
        <ele>99</ele>
        <time>2021-10-23T12:22:06Z</time>
      </trkpt>
      <trkpt lat="47.23091" lon="-1.67549">
        <ele>99</ele>
        <time>2021-10-23T12:22:08Z</time>
      </trkpt>
      <trkpt lat="47.23099" lon="-1.67539">
        <ele>100</ele>
        <time>2021-10-23T12:22:10Z</time>
      </trkpt>
      <trkpt lat="47.23107" lon="-1.67529">
        <ele>100</ele>
        <time>2021-10-23T12:22:12Z</time>
      </trkpt>
      <trkpt lat="47.23116" lon="-1.67519">
        <ele>100</ele>
        <time>2021-10-23T12:22:14Z</time>
      </trkpt>
      <trkpt lat="47.23125" lon="-1.6751">
        <ele>100</ele>
        <time>2021-10-23T12:22:16Z</time>
      </trkpt>
      <trkpt lat="47.23133" lon="-1.67501">
        <ele>100</ele>
        <time>2021-10-23T12:22:18Z</time>
      </trkpt>
      <trkpt lat="47.23142" lon="-1.67492">
        <ele>101</ele>
        <time>2021-10-23T12:22:20Z</time>
      </trkpt>
      <trkpt lat="47.2315" lon="-1.67482">
        <ele>101</ele>
        <time>2021-10-23T12:22:22Z</time>
      </trkpt>
      <trkpt lat="47.23159" lon="-1.67472">
        <ele>101</ele>
        <time>2021-10-23T12:22:24Z</time>
      </trkpt>
      <trkpt lat="47.23167" lon="-1.67463">
        <ele>101</ele>
        <time>2021-10-23T12:22:26Z</time>
      </trkpt>
      <trkpt lat="47.23175" lon="-1.67453">
        <ele>102</ele>
        <time>2021-10-23T12:22:28Z</time>
      </trkpt>
      <trkpt lat="47.23184" lon="-1.67444">
        <ele>102</ele>
        <time>2021-10-23T12:22:30Z</time>
      </trkpt>
      <trkpt lat="47.23192" lon="-1.67435">
        <ele>103</ele>
        <time>2021-10-23T12:22:32Z</time>
      </trkpt>
      <trkpt lat="47.232" lon="-1.67426">
        <ele>104</ele>
        <time>2021-10-23T12:22:34Z</time>
      </trkpt>
      <trkpt lat="47.23209" lon="-1.67417">
        <ele>104</ele>
        <time>2021-10-23T12:22:36Z</time>
      </trkpt>
      <trkpt lat="47.23217" lon="-1.67408">
        <ele>105</ele>
        <time>2021-10-23T12:22:38Z</time>
      </trkpt>
      <trkpt lat="47.23224" lon="-1.67401">
        <ele>105</ele>
        <time>2021-10-23T12:22:40Z</time>
      </trkpt>
      <trkpt lat="47.23232" lon="-1.67393">
        <ele>106</ele>
        <time>2021-10-23T12:22:42Z</time>
      </trkpt>
      <trkpt lat="47.23241" lon="-1.67385">
        <ele>107</ele>
        <time>2021-10-23T12:22:44Z</time>
      </trkpt>
      <trkpt lat="47.23249" lon="-1.67379">
        <ele>108</ele>
        <time>2021-10-23T12:22:46Z</time>
      </trkpt>
      <trkpt lat="47.23258" lon="-1.67372">
        <ele>108</ele>
        <time>2021-10-23T12:22:48Z</time>
      </trkpt>
      <trkpt lat="47.23266" lon="-1.67367">
        <ele>108</ele>
        <time>2021-10-23T12:22:50Z</time>
      </trkpt>
      <trkpt lat="47.23275" lon="-1.67362">
        <ele>109</ele>
        <time>2021-10-23T12:22:52Z</time>
      </trkpt>
      <trkpt lat="47.23283" lon="-1.67356">
        <ele>109</ele>
        <time>2021-10-23T12:22:54Z</time>
      </trkpt>
      <trkpt lat="47.23295" lon="-1.67347">
        <ele>110</ele>
        <time>2021-10-23T12:22:57Z</time>
      </trkpt>
      <trkpt lat="47.23304" lon="-1.67342">
        <ele>110</ele>
        <time>2021-10-23T12:22:59Z</time>
      </trkpt>
      <trkpt lat="47.23312" lon="-1.67335">
        <ele>110</ele>
        <time>2021-10-23T12:23:01Z</time>
      </trkpt>
      <trkpt lat="47.23325" lon="-1.67327">
        <ele>111</ele>
        <time>2021-10-23T12:23:04Z</time>
      </trkpt>
      <trkpt lat="47.23334" lon="-1.67322">
        <ele>111</ele>
        <time>2021-10-23T12:23:06Z</time>
      </trkpt>
      <trkpt lat="47.23342" lon="-1.67316">
        <ele>111</ele>
        <time>2021-10-23T12:23:08Z</time>
      </trkpt>
      <trkpt lat="47.23352" lon="-1.67311">
        <ele>111</ele>
        <time>2021-10-23T12:23:10Z</time>
      </trkpt>
      <trkpt lat="47.23361" lon="-1.67305">
        <ele>111</ele>
        <time>2021-10-23T12:23:12Z</time>
      </trkpt>
      <trkpt lat="47.2337" lon="-1.67299">
        <ele>111</ele>
        <time>2021-10-23T12:23:14Z</time>
      </trkpt>
      <trkpt lat="47.23378" lon="-1.67292">
        <ele>111</ele>
        <time>2021-10-23T12:23:16Z</time>
      </trkpt>
      <trkpt lat="47.23387" lon="-1.67286">
        <ele>111</ele>
        <time>2021-10-23T12:23:18Z</time>
      </trkpt>
      <trkpt lat="47.23396" lon="-1.6728">
        <ele>111</ele>
        <time>2021-10-23T12:23:20Z</time>
      </trkpt>
      <trkpt lat="47.23405" lon="-1.67274">
        <ele>111</ele>
        <time>2021-10-23T12:23:22Z</time>
      </trkpt>
      <trkpt lat="47.23414" lon="-1.67268">
        <ele>112</ele>
        <time>2021-10-23T12:23:24Z</time>
      </trkpt>
      <trkpt lat="47.23423" lon="-1.67262">
        <ele>112</ele>
        <time>2021-10-23T12:23:26Z</time>
      </trkpt>
      <trkpt lat="47.23433" lon="-1.67253">
        <ele>112</ele>
        <time>2021-10-23T12:23:29Z</time>
      </trkpt>
      <trkpt lat="47.23444" lon="-1.67247">
        <ele>113</ele>
        <time>2021-10-23T12:24:49Z</time>
      </trkpt>
      <trkpt lat="47.23455" lon="-1.6724">
        <ele>114</ele>
        <time>2021-10-23T12:24:52Z</time>
      </trkpt>
      <trkpt lat="47.23463" lon="-1.67234">
        <ele>114</ele>
        <time>2021-10-23T12:24:54Z</time>
      </trkpt>
      <trkpt lat="47.23475" lon="-1.67225">
        <ele>113</ele>
        <time>2021-10-23T12:24:57Z</time>
      </trkpt>
      <trkpt lat="47.23483" lon="-1.6722">
        <ele>114</ele>
        <time>2021-10-23T12:24:59Z</time>
      </trkpt>
      <trkpt lat="47.23493" lon="-1.67211">
        <ele>115</ele>
        <time>2021-10-23T12:25:01Z</time>
      </trkpt>
      <trkpt lat="47.23505" lon="-1.67204">
        <ele>115</ele>
        <time>2021-10-23T12:25:03Z</time>
      </trkpt>
      <trkpt lat="47.23516" lon="-1.67196">
        <ele>115</ele>
        <time>2021-10-23T12:25:05Z</time>
      </trkpt>
      <trkpt lat="47.23528" lon="-1.6719">
        <ele>114</ele>
        <time>2021-10-23T12:25:07Z</time>
      </trkpt>
      <trkpt lat="47.2354" lon="-1.67185">
        <ele>114</ele>
        <time>2021-10-23T12:25:09Z</time>
      </trkpt>
      <trkpt lat="47.23553" lon="-1.67181">
        <ele>114</ele>
        <time>2021-10-23T12:25:11Z</time>
      </trkpt>
      <trkpt lat="47.23566" lon="-1.67178">
        <ele>114</ele>
        <time>2021-10-23T12:25:13Z</time>
      </trkpt>
      <trkpt lat="47.23579" lon="-1.67177">
        <ele>114</ele>
        <time>2021-10-23T12:25:15Z</time>
      </trkpt>
      <trkpt lat="47.23593" lon="-1.67175">
        <ele>114</ele>
        <time>2021-10-23T12:25:17Z</time>
      </trkpt>
      <trkpt lat="47.23606" lon="-1.67174">
        <ele>114</ele>
        <time>2021-10-23T12:25:19Z</time>
      </trkpt>
      <trkpt lat="47.23619" lon="-1.67171">
        <ele>113</ele>
        <time>2021-10-23T12:25:21Z</time>
      </trkpt>
      <trkpt lat="47.2363" lon="-1.67161">
        <ele>113</ele>
        <time>2021-10-23T12:25:23Z</time>
      </trkpt>
      <trkpt lat="47.23647" lon="-1.67153">
        <ele>113</ele>
        <time>2021-10-23T12:25:26Z</time>
      </trkpt>
      <trkpt lat="47.23658" lon="-1.67162">
        <ele>112</ele>
        <time>2021-10-23T12:25:28Z</time>
      </trkpt>
      <trkpt lat="47.2367" lon="-1.6717">
        <ele>112</ele>
        <time>2021-10-23T12:25:30Z</time>
      </trkpt>
      <trkpt lat="47.23683" lon="-1.67168">
        <ele>111</ele>
        <time>2021-10-23T12:25:32Z</time>
      </trkpt>
      <trkpt lat="47.23697" lon="-1.67166">
        <ele>112</ele>
        <time>2021-10-23T12:25:34Z</time>
      </trkpt>
      <trkpt lat="47.23709" lon="-1.67163">
        <ele>112</ele>
        <time>2021-10-23T12:25:36Z</time>
      </trkpt>
      <trkpt lat="47.23729" lon="-1.67158">
        <ele>111</ele>
        <time>2021-10-23T12:25:39Z</time>
      </trkpt>
      <trkpt lat="47.23741" lon="-1.67153">
        <ele>111</ele>
        <time>2021-10-23T12:25:41Z</time>
      </trkpt>
      <trkpt lat="47.23753" lon="-1.67149">
        <ele>112</ele>
        <time>2021-10-23T12:25:43Z</time>
      </trkpt>
      <trkpt lat="47.23766" lon="-1.67144">
        <ele>112</ele>
        <time>2021-10-23T12:25:45Z</time>
      </trkpt>
      <trkpt lat="47.23778" lon="-1.6714">
        <ele>112</ele>
        <time>2021-10-23T12:25:47Z</time>
      </trkpt>
      <trkpt lat="47.2379" lon="-1.67135">
        <ele>113</ele>
        <time>2021-10-23T12:25:49Z</time>
      </trkpt>
      <trkpt lat="47.23803" lon="-1.6713">
        <ele>113</ele>
        <time>2021-10-23T12:25:51Z</time>
      </trkpt>
      <trkpt lat="47.23816" lon="-1.67128">
        <ele>114</ele>
        <time>2021-10-23T12:25:53Z</time>
      </trkpt>
      <trkpt lat="47.23835" lon="-1.67127">
        <ele>114</ele>
        <time>2021-10-23T12:25:56Z</time>
      </trkpt>
      <trkpt lat="47.23848" lon="-1.67128">
        <ele>113</ele>
        <time>2021-10-23T12:25:58Z</time>
      </trkpt>
      <trkpt lat="47.23861" lon="-1.67131">
        <ele>113</ele>
        <time>2021-10-23T12:26:00Z</time>
      </trkpt>
      <trkpt lat="47.23873" lon="-1.67136">
        <ele>114</ele>
        <time>2021-10-23T12:26:02Z</time>
      </trkpt>
      <trkpt lat="47.23885" lon="-1.67142">
        <ele>113</ele>
        <time>2021-10-23T12:26:04Z</time>
      </trkpt>
      <trkpt lat="47.23897" lon="-1.67148">
        <ele>113</ele>
        <time>2021-10-23T12:26:06Z</time>
      </trkpt>
      <trkpt lat="47.23909" lon="-1.67154">
        <ele>113</ele>
        <time>2021-10-23T12:26:08Z</time>
      </trkpt>
      <trkpt lat="47.2392" lon="-1.67161">
        <ele>114</ele>
        <time>2021-10-23T12:26:10Z</time>
      </trkpt>
      <trkpt lat="47.23931" lon="-1.67168">
        <ele>114</ele>
        <time>2021-10-23T12:26:12Z</time>
      </trkpt>
      <trkpt lat="47.23941" lon="-1.67176">
        <ele>114</ele>
        <time>2021-10-23T12:26:14Z</time>
      </trkpt>
      <trkpt lat="47.23952" lon="-1.67186">
        <ele>115</ele>
        <time>2021-10-23T12:26:16Z</time>
      </trkpt>
      <trkpt lat="47.23961" lon="-1.67198">
        <ele>115</ele>
        <time>2021-10-23T12:26:18Z</time>
      </trkpt>
      <trkpt lat="47.23969" lon="-1.67212">
        <ele>114</ele>
        <time>2021-10-23T12:26:20Z</time>
      </trkpt>
      <trkpt lat="47.23977" lon="-1.67226">
        <ele>114</ele>
        <time>2021-10-23T12:26:22Z</time>
      </trkpt>
      <trkpt lat="47.23986" lon="-1.67238">
        <ele>114</ele>
        <time>2021-10-23T12:26:24Z</time>
      </trkpt>
      <trkpt lat="47.23996" lon="-1.67249">
        <ele>114</ele>
        <time>2021-10-23T12:26:26Z</time>
      </trkpt>
      <trkpt lat="47.24008" lon="-1.67259">
        <ele>114</ele>
        <time>2021-10-23T12:26:28Z</time>
      </trkpt>
      <trkpt lat="47.2402" lon="-1.67268">
        <ele>112</ele>
        <time>2021-10-23T12:26:30Z</time>
      </trkpt>
      <trkpt lat="47.24035" lon="-1.67276">
        <ele>111</ele>
        <time>2021-10-23T12:26:32Z</time>
      </trkpt>
      <trkpt lat="47.2405" lon="-1.6728">
        <ele>110</ele>
        <time>2021-10-23T12:26:34Z</time>
      </trkpt>
      <trkpt lat="47.24066" lon="-1.67282">
        <ele>110</ele>
        <time>2021-10-23T12:26:36Z</time>
      </trkpt>
      <trkpt lat="47.24083" lon="-1.67283">
        <ele>109</ele>
        <time>2021-10-23T12:26:38Z</time>
      </trkpt>
      <trkpt lat="47.241" lon="-1.67285">
        <ele>108</ele>
        <time>2021-10-23T12:26:40Z</time>
      </trkpt>
      <trkpt lat="47.24117" lon="-1.67287">
        <ele>108</ele>
        <time>2021-10-23T12:26:42Z</time>
      </trkpt>
      <trkpt lat="47.24135" lon="-1.67288">
        <ele>108</ele>
        <time>2021-10-23T12:26:44Z</time>
      </trkpt>
      <trkpt lat="47.24152" lon="-1.67287">
        <ele>107</ele>
        <time>2021-10-23T12:26:46Z</time>
      </trkpt>
      <trkpt lat="47.24168" lon="-1.67282">
        <ele>107</ele>
        <time>2021-10-23T12:26:48Z</time>
      </trkpt>
      <trkpt lat="47.24184" lon="-1.67277">
        <ele>106</ele>
        <time>2021-10-23T12:26:50Z</time>
      </trkpt>
      <trkpt lat="47.242" lon="-1.67273">
        <ele>105</ele>
        <time>2021-10-23T12:26:52Z</time>
      </trkpt>
      <trkpt lat="47.24214" lon="-1.67264">
        <ele>104</ele>
        <time>2021-10-23T12:26:54Z</time>
      </trkpt>
      <trkpt lat="47.24224" lon="-1.67249">
        <ele>104</ele>
        <time>2021-10-23T12:26:56Z</time>
      </trkpt>
      <trkpt lat="47.24227" lon="-1.6723">
        <ele>103</ele>
        <time>2021-10-23T12:26:58Z</time>
      </trkpt>
      <trkpt lat="47.24226" lon="-1.67212">
        <ele>103</ele>
        <time>2021-10-23T12:27:00Z</time>
      </trkpt>
      <trkpt lat="47.24231" lon="-1.67198">
        <ele>103</ele>
        <time>2021-10-23T12:27:02Z</time>
      </trkpt>
      <trkpt lat="47.2424" lon="-1.67189">
        <ele>103</ele>
        <time>2021-10-23T12:27:06Z</time>
      </trkpt>
      <trkpt lat="47.24247" lon="-1.67178">
        <ele>102</ele>
        <time>2021-10-23T12:27:09Z</time>
      </trkpt>
      <trkpt lat="47.24247" lon="-1.67162">
        <ele>101</ele>
        <time>2021-10-23T12:27:11Z</time>
      </trkpt>
      <trkpt lat="47.24245" lon="-1.67143">
        <ele>101</ele>
        <time>2021-10-23T12:27:13Z</time>
      </trkpt>
      <trkpt lat="47.24244" lon="-1.67124">
        <ele>102</ele>
        <time>2021-10-23T12:27:15Z</time>
      </trkpt>
      <trkpt lat="47.24243" lon="-1.67105">
        <ele>103</ele>
        <time>2021-10-23T12:27:17Z</time>
      </trkpt>
      <trkpt lat="47.24242" lon="-1.67087">
        <ele>103</ele>
        <time>2021-10-23T12:27:19Z</time>
      </trkpt>
      <trkpt lat="47.24242" lon="-1.67068">
        <ele>104</ele>
        <time>2021-10-23T12:27:21Z</time>
      </trkpt>
      <trkpt lat="47.24243" lon="-1.67051">
        <ele>104</ele>
        <time>2021-10-23T12:27:23Z</time>
      </trkpt>
      <trkpt lat="47.24245" lon="-1.67033">
        <ele>104</ele>
        <time>2021-10-23T12:27:25Z</time>
      </trkpt>
      <trkpt lat="47.24247" lon="-1.67016">
        <ele>104</ele>
        <time>2021-10-23T12:27:27Z</time>
      </trkpt>
      <trkpt lat="47.2425" lon="-1.66998">
        <ele>105</ele>
        <time>2021-10-23T12:27:29Z</time>
      </trkpt>
      <trkpt lat="47.24253" lon="-1.6698">
        <ele>105</ele>
        <time>2021-10-23T12:27:31Z</time>
      </trkpt>
      <trkpt lat="47.24257" lon="-1.66963">
        <ele>105</ele>
        <time>2021-10-23T12:27:33Z</time>
      </trkpt>
      <trkpt lat="47.2426" lon="-1.66946">
        <ele>105</ele>
        <time>2021-10-23T12:27:35Z</time>
      </trkpt>
      <trkpt lat="47.24264" lon="-1.66928">
        <ele>105</ele>
        <time>2021-10-23T12:27:37Z</time>
      </trkpt>
      <trkpt lat="47.24267" lon="-1.6691">
        <ele>105</ele>
        <time>2021-10-23T12:27:39Z</time>
      </trkpt>
      <trkpt lat="47.2427" lon="-1.66892">
        <ele>105</ele>
        <time>2021-10-23T12:27:41Z</time>
      </trkpt>
      <trkpt lat="47.24274" lon="-1.66874">
        <ele>105</ele>
        <time>2021-10-23T12:27:43Z</time>
      </trkpt>
      <trkpt lat="47.2428" lon="-1.66858">
        <ele>105</ele>
        <time>2021-10-23T12:27:45Z</time>
      </trkpt>
      <trkpt lat="47.24285" lon="-1.66842">
        <ele>106</ele>
        <time>2021-10-23T12:27:47Z</time>
      </trkpt>
      <trkpt lat="47.24289" lon="-1.66825">
        <ele>106</ele>
        <time>2021-10-23T12:27:49Z</time>
      </trkpt>
      <trkpt lat="47.24297" lon="-1.66813">
        <ele>106</ele>
        <time>2021-10-23T12:27:51Z</time>
      </trkpt>
      <trkpt lat="47.2431" lon="-1.66812">
        <ele>106</ele>
        <time>2021-10-23T12:27:53Z</time>
      </trkpt>
      <trkpt lat="47.24322" lon="-1.66824">
        <ele>105</ele>
        <time>2021-10-23T12:27:55Z</time>
      </trkpt>
      <trkpt lat="47.24333" lon="-1.66836">
        <ele>104</ele>
        <time>2021-10-23T12:27:57Z</time>
      </trkpt>
      <trkpt lat="47.24346" lon="-1.66846">
        <ele>104</ele>
        <time>2021-10-23T12:27:59Z</time>
      </trkpt>
      <trkpt lat="47.24359" lon="-1.66858">
        <ele>103</ele>
        <time>2021-10-23T12:28:01Z</time>
      </trkpt>
      <trkpt lat="47.24371" lon="-1.66871">
        <ele>103</ele>
        <time>2021-10-23T12:28:03Z</time>
      </trkpt>
      <trkpt lat="47.24384" lon="-1.66885">
        <ele>102</ele>
        <time>2021-10-23T12:28:05Z</time>
      </trkpt>
      <trkpt lat="47.24395" lon="-1.669">
        <ele>102</ele>
        <time>2021-10-23T12:28:07Z</time>
      </trkpt>
      <trkpt lat="47.24408" lon="-1.66915">
        <ele>102</ele>
        <time>2021-10-23T12:28:09Z</time>
      </trkpt>
      <trkpt lat="47.2442" lon="-1.6693">
        <ele>101</ele>
        <time>2021-10-23T12:28:11Z</time>
      </trkpt>
      <trkpt lat="47.2443" lon="-1.66949">
        <ele>100</ele>
        <time>2021-10-23T12:28:13Z</time>
      </trkpt>
      <trkpt lat="47.2444" lon="-1.66964">
        <ele>100</ele>
        <time>2021-10-23T12:28:15Z</time>
      </trkpt>
      <trkpt lat="47.24452" lon="-1.66977">
        <ele>100</ele>
        <time>2021-10-23T12:28:17Z</time>
      </trkpt>
      <trkpt lat="47.24463" lon="-1.66994">
        <ele>100</ele>
        <time>2021-10-23T12:28:19Z</time>
      </trkpt>
      <trkpt lat="47.24477" lon="-1.67002">
        <ele>100</ele>
        <time>2021-10-23T12:28:21Z</time>
      </trkpt>
      <trkpt lat="47.2449" lon="-1.6701">
        <ele>100</ele>
        <time>2021-10-23T12:28:23Z</time>
      </trkpt>
      <trkpt lat="47.24503" lon="-1.67017">
        <ele>100</ele>
        <time>2021-10-23T12:28:25Z</time>
      </trkpt>
      <trkpt lat="47.24516" lon="-1.67023">
        <ele>100</ele>
        <time>2021-10-23T12:28:27Z</time>
      </trkpt>
      <trkpt lat="47.24529" lon="-1.67027">
        <ele>100</ele>
        <time>2021-10-23T12:28:29Z</time>
      </trkpt>
      <trkpt lat="47.24542" lon="-1.67029">
        <ele>101</ele>
        <time>2021-10-23T12:28:31Z</time>
      </trkpt>
      <trkpt lat="47.24556" lon="-1.6703">
        <ele>101</ele>
        <time>2021-10-23T12:28:33Z</time>
      </trkpt>
      <trkpt lat="47.24569" lon="-1.6703">
        <ele>101</ele>
        <time>2021-10-23T12:28:35Z</time>
      </trkpt>
      <trkpt lat="47.24583" lon="-1.67028">
        <ele>101</ele>
        <time>2021-10-23T12:28:37Z</time>
      </trkpt>
      <trkpt lat="47.24596" lon="-1.67023">
        <ele>101</ele>
        <time>2021-10-23T12:28:39Z</time>
      </trkpt>
      <trkpt lat="47.2461" lon="-1.67018">
        <ele>101</ele>
        <time>2021-10-23T12:28:41Z</time>
      </trkpt>
      <trkpt lat="47.24624" lon="-1.67013">
        <ele>100</ele>
        <time>2021-10-23T12:28:43Z</time>
      </trkpt>
      <trkpt lat="47.24637" lon="-1.67008">
        <ele>100</ele>
        <time>2021-10-23T12:28:45Z</time>
      </trkpt>
      <trkpt lat="47.24651" lon="-1.67001">
        <ele>100</ele>
        <time>2021-10-23T12:28:47Z</time>
      </trkpt>
      <trkpt lat="47.24664" lon="-1.66991">
        <ele>99</ele>
        <time>2021-10-23T12:28:49Z</time>
      </trkpt>
      <trkpt lat="47.24676" lon="-1.66978">
        <ele>99</ele>
        <time>2021-10-23T12:28:51Z</time>
      </trkpt>
      <trkpt lat="47.24687" lon="-1.66962">
        <ele>100</ele>
        <time>2021-10-23T12:28:53Z</time>
      </trkpt>
      <trkpt lat="47.24698" lon="-1.66947">
        <ele>100</ele>
        <time>2021-10-23T12:28:55Z</time>
      </trkpt>
      <trkpt lat="47.24708" lon="-1.66933">
        <ele>101</ele>
        <time>2021-10-23T12:28:57Z</time>
      </trkpt>
      <trkpt lat="47.2472" lon="-1.66921">
        <ele>101</ele>
        <time>2021-10-23T12:28:59Z</time>
      </trkpt>
      <trkpt lat="47.24733" lon="-1.66913">
        <ele>101</ele>
        <time>2021-10-23T12:29:01Z</time>
      </trkpt>
      <trkpt lat="47.24746" lon="-1.66905">
        <ele>101</ele>
        <time>2021-10-23T12:29:03Z</time>
      </trkpt>
      <trkpt lat="47.2476" lon="-1.66898">
        <ele>100</ele>
        <time>2021-10-23T12:29:05Z</time>
      </trkpt>
      <trkpt lat="47.24773" lon="-1.66889">
        <ele>100</ele>
        <time>2021-10-23T12:29:07Z</time>
      </trkpt>
      <trkpt lat="47.24786" lon="-1.66879">
        <ele>100</ele>
        <time>2021-10-23T12:29:09Z</time>
      </trkpt>
      <trkpt lat="47.24799" lon="-1.66867">
        <ele>99</ele>
        <time>2021-10-23T12:29:11Z</time>
      </trkpt>
      <trkpt lat="47.24811" lon="-1.66856">
        <ele>99</ele>
        <time>2021-10-23T12:29:13Z</time>
      </trkpt>
      <trkpt lat="47.24824" lon="-1.66847">
        <ele>98</ele>
        <time>2021-10-23T12:29:15Z</time>
      </trkpt>
      <trkpt lat="47.24838" lon="-1.66841">
        <ele>98</ele>
        <time>2021-10-23T12:29:17Z</time>
      </trkpt>
      <trkpt lat="47.24852" lon="-1.66836">
        <ele>97</ele>
        <time>2021-10-23T12:29:19Z</time>
      </trkpt>
      <trkpt lat="47.24866" lon="-1.66831">
        <ele>97</ele>
        <time>2021-10-23T12:29:21Z</time>
      </trkpt>
      <trkpt lat="47.2488" lon="-1.66827">
        <ele>97</ele>
        <time>2021-10-23T12:29:23Z</time>
      </trkpt>
      <trkpt lat="47.24894" lon="-1.66822">
        <ele>98</ele>
        <time>2021-10-23T12:29:25Z</time>
      </trkpt>
      <trkpt lat="47.24908" lon="-1.66818">
        <ele>98</ele>
        <time>2021-10-23T12:29:27Z</time>
      </trkpt>
      <trkpt lat="47.24923" lon="-1.66813">
        <ele>97</ele>
        <time>2021-10-23T12:29:29Z</time>
      </trkpt>
      <trkpt lat="47.24938" lon="-1.66809">
        <ele>97</ele>
        <time>2021-10-23T12:29:31Z</time>
      </trkpt>
      <trkpt lat="47.24952" lon="-1.66805">
        <ele>97</ele>
        <time>2021-10-23T12:29:33Z</time>
      </trkpt>
      <trkpt lat="47.24966" lon="-1.668">
        <ele>97</ele>
        <time>2021-10-23T12:29:35Z</time>
      </trkpt>
      <trkpt lat="47.2498" lon="-1.66796">
        <ele>97</ele>
        <time>2021-10-23T12:29:37Z</time>
      </trkpt>
      <trkpt lat="47.24994" lon="-1.66792">
        <ele>98</ele>
        <time>2021-10-23T12:29:39Z</time>
      </trkpt>
      <trkpt lat="47.25009" lon="-1.66789">
        <ele>99</ele>
        <time>2021-10-23T12:29:41Z</time>
      </trkpt>
      <trkpt lat="47.25023" lon="-1.66787">
        <ele>99</ele>
        <time>2021-10-23T12:29:43Z</time>
      </trkpt>
      <trkpt lat="47.25037" lon="-1.66787">
        <ele>99</ele>
        <time>2021-10-23T12:29:45Z</time>
      </trkpt>
      <trkpt lat="47.25052" lon="-1.66787">
        <ele>98</ele>
        <time>2021-10-23T12:29:47Z</time>
      </trkpt>
      <trkpt lat="47.25068" lon="-1.66788">
        <ele>98</ele>
        <time>2021-10-23T12:29:49Z</time>
      </trkpt>
      <trkpt lat="47.25083" lon="-1.6679">
        <ele>98</ele>
        <time>2021-10-23T12:29:51Z</time>
      </trkpt>
      <trkpt lat="47.25099" lon="-1.66794">
        <ele>97</ele>
        <time>2021-10-23T12:29:53Z</time>
      </trkpt>
      <trkpt lat="47.25115" lon="-1.668">
        <ele>96</ele>
        <time>2021-10-23T12:29:55Z</time>
      </trkpt>
      <trkpt lat="47.25133" lon="-1.66805">
        <ele>95</ele>
        <time>2021-10-23T12:29:57Z</time>
      </trkpt>
      <trkpt lat="47.25142" lon="-1.66808">
        <ele>94</ele>
        <time>2021-10-23T12:29:58Z</time>
      </trkpt>
      <trkpt lat="47.25151" lon="-1.66811">
        <ele>94</ele>
        <time>2021-10-23T12:29:59Z</time>
      </trkpt>
      <trkpt lat="47.25159" lon="-1.66814">
        <ele>93</ele>
        <time>2021-10-23T12:30:00Z</time>
      </trkpt>
      <trkpt lat="47.25168" lon="-1.66817">
        <ele>93</ele>
        <time>2021-10-23T12:30:01Z</time>
      </trkpt>
      <trkpt lat="47.25177" lon="-1.66819">
        <ele>94</ele>
        <time>2021-10-23T12:30:02Z</time>
      </trkpt>
      <trkpt lat="47.25186" lon="-1.66822">
        <ele>93</ele>
        <time>2021-10-23T12:30:03Z</time>
      </trkpt>
      <trkpt lat="47.25203" lon="-1.66826">
        <ele>93</ele>
        <time>2021-10-23T12:30:05Z</time>
      </trkpt>
      <trkpt lat="47.25218" lon="-1.66829">
        <ele>93</ele>
        <time>2021-10-23T12:30:07Z</time>
      </trkpt>
      <trkpt lat="47.25233" lon="-1.66832">
        <ele>93</ele>
        <time>2021-10-23T12:30:09Z</time>
      </trkpt>
      <trkpt lat="47.25246" lon="-1.66835">
        <ele>94</ele>
        <time>2021-10-23T12:30:11Z</time>
      </trkpt>
      <trkpt lat="47.25258" lon="-1.66837">
        <ele>94</ele>
        <time>2021-10-23T12:30:13Z</time>
      </trkpt>
      <trkpt lat="47.2527" lon="-1.66838">
        <ele>94</ele>
        <time>2021-10-23T12:30:15Z</time>
      </trkpt>
      <trkpt lat="47.25281" lon="-1.6684">
        <ele>95</ele>
        <time>2021-10-23T12:30:17Z</time>
      </trkpt>
      <trkpt lat="47.25293" lon="-1.66842">
        <ele>95</ele>
        <time>2021-10-23T12:30:19Z</time>
      </trkpt>
      <trkpt lat="47.25305" lon="-1.66844">
        <ele>96</ele>
        <time>2021-10-23T12:30:21Z</time>
      </trkpt>
      <trkpt lat="47.25316" lon="-1.66846">
        <ele>96</ele>
        <time>2021-10-23T12:30:23Z</time>
      </trkpt>
      <trkpt lat="47.25328" lon="-1.66847">
        <ele>96</ele>
        <time>2021-10-23T12:30:25Z</time>
      </trkpt>
      <trkpt lat="47.25339" lon="-1.66849">
        <ele>97</ele>
        <time>2021-10-23T12:30:27Z</time>
      </trkpt>
      <trkpt lat="47.2535" lon="-1.66851">
        <ele>97</ele>
        <time>2021-10-23T12:30:29Z</time>
      </trkpt>
      <trkpt lat="47.25362" lon="-1.66853">
        <ele>97</ele>
        <time>2021-10-23T12:30:31Z</time>
      </trkpt>
      <trkpt lat="47.25373" lon="-1.66854">
        <ele>97</ele>
        <time>2021-10-23T12:30:33Z</time>
      </trkpt>
      <trkpt lat="47.25385" lon="-1.66856">
        <ele>98</ele>
        <time>2021-10-23T12:30:35Z</time>
      </trkpt>
      <trkpt lat="47.25396" lon="-1.66858">
        <ele>98</ele>
        <time>2021-10-23T12:30:37Z</time>
      </trkpt>
      <trkpt lat="47.25407" lon="-1.66859">
        <ele>98</ele>
        <time>2021-10-23T12:30:39Z</time>
      </trkpt>
      <trkpt lat="47.25419" lon="-1.66861">
        <ele>98</ele>
        <time>2021-10-23T12:30:41Z</time>
      </trkpt>
      <trkpt lat="47.2543" lon="-1.66863">
        <ele>98</ele>
        <time>2021-10-23T12:30:43Z</time>
      </trkpt>
      <trkpt lat="47.25442" lon="-1.66864">
        <ele>98</ele>
        <time>2021-10-23T12:30:45Z</time>
      </trkpt>
      <trkpt lat="47.25453" lon="-1.66866">
        <ele>99</ele>
        <time>2021-10-23T12:30:47Z</time>
      </trkpt>
      <trkpt lat="47.25464" lon="-1.66868">
        <ele>99</ele>
        <time>2021-10-23T12:30:49Z</time>
      </trkpt>
      <trkpt lat="47.25475" lon="-1.66869">
        <ele>99</ele>
        <time>2021-10-23T12:30:51Z</time>
      </trkpt>
      <trkpt lat="47.25487" lon="-1.66871">
        <ele>100</ele>
        <time>2021-10-23T12:30:53Z</time>
      </trkpt>
      <trkpt lat="47.25498" lon="-1.66873">
        <ele>100</ele>
        <time>2021-10-23T12:30:55Z</time>
      </trkpt>
      <trkpt lat="47.2551" lon="-1.66874">
        <ele>100</ele>
        <time>2021-10-23T12:30:57Z</time>
      </trkpt>
      <trkpt lat="47.25521" lon="-1.66872">
        <ele>101</ele>
        <time>2021-10-23T12:30:59Z</time>
      </trkpt>
      <trkpt lat="47.25532" lon="-1.66873">
        <ele>101</ele>
        <time>2021-10-23T12:31:01Z</time>
      </trkpt>
      <trkpt lat="47.25543" lon="-1.66878">
        <ele>101</ele>
        <time>2021-10-23T12:31:03Z</time>
      </trkpt>
      <trkpt lat="47.25554" lon="-1.66879">
        <ele>101</ele>
        <time>2021-10-23T12:31:05Z</time>
      </trkpt>
      <trkpt lat="47.25565" lon="-1.6688">
        <ele>102</ele>
        <time>2021-10-23T12:31:07Z</time>
      </trkpt>
      <trkpt lat="47.25577" lon="-1.66881">
        <ele>102</ele>
        <time>2021-10-23T12:31:09Z</time>
      </trkpt>
      <trkpt lat="47.25589" lon="-1.66882">
        <ele>102</ele>
        <time>2021-10-23T12:31:11Z</time>
      </trkpt>
      <trkpt lat="47.25601" lon="-1.66883">
        <ele>102</ele>
        <time>2021-10-23T12:31:13Z</time>
      </trkpt>
      <trkpt lat="47.25613" lon="-1.66884">
        <ele>102</ele>
        <time>2021-10-23T12:31:15Z</time>
      </trkpt>
      <trkpt lat="47.25626" lon="-1.66886">
        <ele>101</ele>
        <time>2021-10-23T12:31:17Z</time>
      </trkpt>
      <trkpt lat="47.25638" lon="-1.66886">
        <ele>101</ele>
        <time>2021-10-23T12:31:19Z</time>
      </trkpt>
      <trkpt lat="47.2565" lon="-1.66887">
        <ele>101</ele>
        <time>2021-10-23T12:31:21Z</time>
      </trkpt>
      <trkpt lat="47.25662" lon="-1.66888">
        <ele>101</ele>
        <time>2021-10-23T12:31:23Z</time>
      </trkpt>
      <trkpt lat="47.25673" lon="-1.66888">
        <ele>101</ele>
        <time>2021-10-23T12:31:25Z</time>
      </trkpt>
      <trkpt lat="47.25684" lon="-1.66885">
        <ele>101</ele>
        <time>2021-10-23T12:31:27Z</time>
      </trkpt>
      <trkpt lat="47.25696" lon="-1.66884">
        <ele>102</ele>
        <time>2021-10-23T12:31:29Z</time>
      </trkpt>
      <trkpt lat="47.25709" lon="-1.66888">
        <ele>103</ele>
        <time>2021-10-23T12:31:31Z</time>
      </trkpt>
      <trkpt lat="47.2572" lon="-1.66891">
        <ele>103</ele>
        <time>2021-10-23T12:31:33Z</time>
      </trkpt>
      <trkpt lat="47.25731" lon="-1.66893">
        <ele>103</ele>
        <time>2021-10-23T12:31:35Z</time>
      </trkpt>
      <trkpt lat="47.25743" lon="-1.66894">
        <ele>103</ele>
        <time>2021-10-23T12:31:37Z</time>
      </trkpt>
      <trkpt lat="47.25754" lon="-1.66895">
        <ele>103</ele>
        <time>2021-10-23T12:31:39Z</time>
      </trkpt>
      <trkpt lat="47.25766" lon="-1.66897">
        <ele>103</ele>
        <time>2021-10-23T12:31:41Z</time>
      </trkpt>
      <trkpt lat="47.25776" lon="-1.66899">
        <ele>104</ele>
        <time>2021-10-23T12:31:43Z</time>
      </trkpt>
      <trkpt lat="47.25787" lon="-1.66901">
        <ele>105</ele>
        <time>2021-10-23T12:31:45Z</time>
      </trkpt>
      <trkpt lat="47.25798" lon="-1.66903">
        <ele>105</ele>
        <time>2021-10-23T12:31:47Z</time>
      </trkpt>
      <trkpt lat="47.25809" lon="-1.66906">
        <ele>105</ele>
        <time>2021-10-23T12:31:49Z</time>
      </trkpt>
      <trkpt lat="47.25821" lon="-1.66908">
        <ele>106</ele>
        <time>2021-10-23T12:31:51Z</time>
      </trkpt>
      <trkpt lat="47.25832" lon="-1.6691">
        <ele>106</ele>
        <time>2021-10-23T12:31:53Z</time>
      </trkpt>
      <trkpt lat="47.25843" lon="-1.66912">
        <ele>106</ele>
        <time>2021-10-23T12:31:55Z</time>
      </trkpt>
      <trkpt lat="47.25855" lon="-1.66915">
        <ele>106</ele>
        <time>2021-10-23T12:31:57Z</time>
      </trkpt>
      <trkpt lat="47.25865" lon="-1.66918">
        <ele>106</ele>
        <time>2021-10-23T12:31:59Z</time>
      </trkpt>
      <trkpt lat="47.25876" lon="-1.66922">
        <ele>106</ele>
        <time>2021-10-23T12:32:01Z</time>
      </trkpt>
      <trkpt lat="47.25886" lon="-1.66926">
        <ele>106</ele>
        <time>2021-10-23T12:32:03Z</time>
      </trkpt>
      <trkpt lat="47.25897" lon="-1.6693">
        <ele>107</ele>
        <time>2021-10-23T12:32:05Z</time>
      </trkpt>
      <trkpt lat="47.25908" lon="-1.66934">
        <ele>107</ele>
        <time>2021-10-23T12:32:07Z</time>
      </trkpt>
      <trkpt lat="47.25919" lon="-1.66937">
        <ele>107</ele>
        <time>2021-10-23T12:32:09Z</time>
      </trkpt>
      <trkpt lat="47.25929" lon="-1.66942">
        <ele>108</ele>
        <time>2021-10-23T12:32:11Z</time>
      </trkpt>
      <trkpt lat="47.25939" lon="-1.66946">
        <ele>108</ele>
        <time>2021-10-23T12:32:13Z</time>
      </trkpt>
      <trkpt lat="47.25949" lon="-1.6695">
        <ele>108</ele>
        <time>2021-10-23T12:32:15Z</time>
      </trkpt>
      <trkpt lat="47.2596" lon="-1.66954">
        <ele>109</ele>
        <time>2021-10-23T12:32:17Z</time>
      </trkpt>
      <trkpt lat="47.2597" lon="-1.6696">
        <ele>109</ele>
        <time>2021-10-23T12:32:19Z</time>
      </trkpt>
      <trkpt lat="47.2598" lon="-1.66965">
        <ele>109</ele>
        <time>2021-10-23T12:32:21Z</time>
      </trkpt>
      <trkpt lat="47.25989" lon="-1.6697">
        <ele>110</ele>
        <time>2021-10-23T12:32:23Z</time>
      </trkpt>
      <trkpt lat="47.25999" lon="-1.66974">
        <ele>110</ele>
        <time>2021-10-23T12:32:25Z</time>
      </trkpt>
      <trkpt lat="47.26009" lon="-1.66979">
        <ele>111</ele>
        <time>2021-10-23T12:32:27Z</time>
      </trkpt>
      <trkpt lat="47.2602" lon="-1.66983">
        <ele>111</ele>
        <time>2021-10-23T12:32:29Z</time>
      </trkpt>
      <trkpt lat="47.2603" lon="-1.66988">
        <ele>111</ele>
        <time>2021-10-23T12:32:31Z</time>
      </trkpt>
      <trkpt lat="47.26041" lon="-1.66993">
        <ele>111</ele>
        <time>2021-10-23T12:32:33Z</time>
      </trkpt>
      <trkpt lat="47.26051" lon="-1.66997">
        <ele>112</ele>
        <time>2021-10-23T12:32:35Z</time>
      </trkpt>
      <trkpt lat="47.26061" lon="-1.67001">
        <ele>112</ele>
        <time>2021-10-23T12:32:37Z</time>
      </trkpt>
      <trkpt lat="47.26071" lon="-1.67006">
        <ele>112</ele>
        <time>2021-10-23T12:32:39Z</time>
      </trkpt>
      <trkpt lat="47.26081" lon="-1.6701">
        <ele>112</ele>
        <time>2021-10-23T12:32:41Z</time>
      </trkpt>
      <trkpt lat="47.26091" lon="-1.67015">
        <ele>113</ele>
        <time>2021-10-23T12:32:43Z</time>
      </trkpt>
      <trkpt lat="47.26101" lon="-1.67019">
        <ele>113</ele>
        <time>2021-10-23T12:32:45Z</time>
      </trkpt>
      <trkpt lat="47.26111" lon="-1.67024">
        <ele>113</ele>
        <time>2021-10-23T12:32:47Z</time>
      </trkpt>
      <trkpt lat="47.26122" lon="-1.67028">
        <ele>113</ele>
        <time>2021-10-23T12:32:49Z</time>
      </trkpt>
      <trkpt lat="47.26132" lon="-1.67034">
        <ele>114</ele>
        <time>2021-10-23T12:32:51Z</time>
      </trkpt>
      <trkpt lat="47.26142" lon="-1.67038">
        <ele>114</ele>
        <time>2021-10-23T12:32:53Z</time>
      </trkpt>
      <trkpt lat="47.26152" lon="-1.67043">
        <ele>114</ele>
        <time>2021-10-23T12:32:55Z</time>
      </trkpt>
      <trkpt lat="47.26163" lon="-1.67048">
        <ele>114</ele>
        <time>2021-10-23T12:32:57Z</time>
      </trkpt>
      <trkpt lat="47.26173" lon="-1.67053">
        <ele>114</ele>
        <time>2021-10-23T12:32:59Z</time>
      </trkpt>
      <trkpt lat="47.26182" lon="-1.67057">
        <ele>115</ele>
        <time>2021-10-23T12:33:01Z</time>
      </trkpt>
      <trkpt lat="47.26195" lon="-1.67058">
        <ele>116</ele>
        <time>2021-10-23T12:33:04Z</time>
      </trkpt>
      <trkpt lat="47.26205" lon="-1.67062">
        <ele>115</ele>
        <time>2021-10-23T12:33:06Z</time>
      </trkpt>
      <trkpt lat="47.26209" lon="-1.67077">
        <ele>116</ele>
        <time>2021-10-23T12:33:08Z</time>
      </trkpt>
      <trkpt lat="47.26212" lon="-1.67094">
        <ele>116</ele>
        <time>2021-10-23T12:33:10Z</time>
      </trkpt>
      <trkpt lat="47.26215" lon="-1.6711">
        <ele>116</ele>
        <time>2021-10-23T12:33:12Z</time>
      </trkpt>
      <trkpt lat="47.26219" lon="-1.67127">
        <ele>116</ele>
        <time>2021-10-23T12:33:14Z</time>
      </trkpt>
      <trkpt lat="47.26222" lon="-1.67144">
        <ele>116</ele>
        <time>2021-10-23T12:33:16Z</time>
      </trkpt>
      <trkpt lat="47.26226" lon="-1.6716">
        <ele>116</ele>
        <time>2021-10-23T12:33:18Z</time>
      </trkpt>
      <trkpt lat="47.2623" lon="-1.67176">
        <ele>116</ele>
        <time>2021-10-23T12:33:20Z</time>
      </trkpt>
      <trkpt lat="47.26233" lon="-1.67192">
        <ele>116</ele>
        <time>2021-10-23T12:33:22Z</time>
      </trkpt>
      <trkpt lat="47.26237" lon="-1.67207">
        <ele>115</ele>
        <time>2021-10-23T12:33:24Z</time>
      </trkpt>
      <trkpt lat="47.26241" lon="-1.67222">
        <ele>114</ele>
        <time>2021-10-23T12:33:26Z</time>
      </trkpt>
      <trkpt lat="47.26246" lon="-1.67234">
        <ele>114</ele>
        <time>2021-10-23T12:33:28Z</time>
      </trkpt>
      <trkpt lat="47.26256" lon="-1.6723">
        <ele>115</ele>
        <time>2021-10-23T12:33:31Z</time>
      </trkpt>
      <trkpt lat="47.26266" lon="-1.67226">
        <ele>116</ele>
        <time>2021-10-23T12:33:34Z</time>
      </trkpt>
      <trkpt lat="47.26276" lon="-1.67225">
        <ele>116</ele>
        <time>2021-10-23T12:33:36Z</time>
      </trkpt>
      <trkpt lat="47.26288" lon="-1.67223">
        <ele>116</ele>
        <time>2021-10-23T12:33:38Z</time>
      </trkpt>
      <trkpt lat="47.263" lon="-1.6722">
        <ele>116</ele>
        <time>2021-10-23T12:33:40Z</time>
      </trkpt>
      <trkpt lat="47.26312" lon="-1.67218">
        <ele>117</ele>
        <time>2021-10-23T12:33:42Z</time>
      </trkpt>
      <trkpt lat="47.26324" lon="-1.67215">
        <ele>118</ele>
        <time>2021-10-23T12:33:44Z</time>
      </trkpt>
      <trkpt lat="47.26335" lon="-1.67212">
        <ele>119</ele>
        <time>2021-10-23T12:33:46Z</time>
      </trkpt>
      <trkpt lat="47.26347" lon="-1.67218">
        <ele>118</ele>
        <time>2021-10-23T12:33:48Z</time>
      </trkpt>
      <trkpt lat="47.26353" lon="-1.67234">
        <ele>118</ele>
        <time>2021-10-23T12:33:50Z</time>
      </trkpt>
      <trkpt lat="47.26356" lon="-1.67252">
        <ele>117</ele>
        <time>2021-10-23T12:33:52Z</time>
      </trkpt>
      <trkpt lat="47.26359" lon="-1.67269">
        <ele>116</ele>
        <time>2021-10-23T12:33:54Z</time>
      </trkpt>
      <trkpt lat="47.26365" lon="-1.67283">
        <ele>116</ele>
        <time>2021-10-23T12:33:56Z</time>
      </trkpt>
      <trkpt lat="47.26376" lon="-1.6729">
        <ele>116</ele>
        <time>2021-10-23T12:33:58Z</time>
      </trkpt>
      <trkpt lat="47.26387" lon="-1.67292">
        <ele>117</ele>
        <time>2021-10-23T12:34:00Z</time>
      </trkpt>
      <trkpt lat="47.264" lon="-1.67295">
        <ele>116</ele>
        <time>2021-10-23T12:34:02Z</time>
      </trkpt>
      <trkpt lat="47.26411" lon="-1.673">
        <ele>117</ele>
        <time>2021-10-23T12:34:04Z</time>
      </trkpt>
      <trkpt lat="47.26422" lon="-1.67306">
        <ele>116</ele>
        <time>2021-10-23T12:34:06Z</time>
      </trkpt>
      <trkpt lat="47.26432" lon="-1.67312">
        <ele>116</ele>
        <time>2021-10-23T12:34:08Z</time>
      </trkpt>
      <trkpt lat="47.26442" lon="-1.67312">
        <ele>116</ele>
        <time>2021-10-23T12:34:11Z</time>
      </trkpt>
      <trkpt lat="47.26451" lon="-1.673">
        <ele>115</ele>
        <time>2021-10-23T12:34:14Z</time>
      </trkpt>
      <trkpt lat="47.26457" lon="-1.67285">
        <ele>116</ele>
        <time>2021-10-23T12:34:16Z</time>
      </trkpt>
      <trkpt lat="47.26464" lon="-1.6727">
        <ele>115</ele>
        <time>2021-10-23T12:34:18Z</time>
      </trkpt>
      <trkpt lat="47.2647" lon="-1.67254">
        <ele>114</ele>
        <time>2021-10-23T12:34:20Z</time>
      </trkpt>
      <trkpt lat="47.26477" lon="-1.67239">
        <ele>113</ele>
        <time>2021-10-23T12:34:22Z</time>
      </trkpt>
      <trkpt lat="47.26484" lon="-1.67222">
        <ele>112</ele>
        <time>2021-10-23T12:34:24Z</time>
      </trkpt>
      <trkpt lat="47.26492" lon="-1.67204">
        <ele>111</ele>
        <time>2021-10-23T12:34:26Z</time>
      </trkpt>
      <trkpt lat="47.26501" lon="-1.67187">
        <ele>111</ele>
        <time>2021-10-23T12:34:28Z</time>
      </trkpt>
      <trkpt lat="47.26511" lon="-1.6717">
        <ele>110</ele>
        <time>2021-10-23T12:34:30Z</time>
      </trkpt>
      <trkpt lat="47.26522" lon="-1.67155">
        <ele>109</ele>
        <time>2021-10-23T12:34:32Z</time>
      </trkpt>
      <trkpt lat="47.26535" lon="-1.6714">
        <ele>109</ele>
        <time>2021-10-23T12:34:34Z</time>
      </trkpt>
      <trkpt lat="47.26551" lon="-1.67128">
        <ele>108</ele>
        <time>2021-10-23T12:34:36Z</time>
      </trkpt>
      <trkpt lat="47.26566" lon="-1.67117">
        <ele>107</ele>
        <time>2021-10-23T12:34:38Z</time>
      </trkpt>
      <trkpt lat="47.26574" lon="-1.6711">
        <ele>106</ele>
        <time>2021-10-23T12:34:39Z</time>
      </trkpt>
      <trkpt lat="47.26583" lon="-1.67103">
        <ele>106</ele>
        <time>2021-10-23T12:34:40Z</time>
      </trkpt>
      <trkpt lat="47.26591" lon="-1.67096">
        <ele>105</ele>
        <time>2021-10-23T12:34:41Z</time>
      </trkpt>
      <trkpt lat="47.26599" lon="-1.6709">
        <ele>104</ele>
        <time>2021-10-23T12:34:42Z</time>
      </trkpt>
      <trkpt lat="47.26608" lon="-1.67086">
        <ele>104</ele>
        <time>2021-10-23T12:34:43Z</time>
      </trkpt>
      <trkpt lat="47.26618" lon="-1.67082">
        <ele>103</ele>
        <time>2021-10-23T12:34:44Z</time>
      </trkpt>
      <trkpt lat="47.26627" lon="-1.67076">
        <ele>103</ele>
        <time>2021-10-23T12:34:45Z</time>
      </trkpt>
      <trkpt lat="47.26635" lon="-1.6707">
        <ele>103</ele>
        <time>2021-10-23T12:34:46Z</time>
      </trkpt>
      <trkpt lat="47.26645" lon="-1.67064">
        <ele>102</ele>
        <time>2021-10-23T12:34:47Z</time>
      </trkpt>
      <trkpt lat="47.26654" lon="-1.67058">
        <ele>102</ele>
        <time>2021-10-23T12:34:48Z</time>
      </trkpt>
      <trkpt lat="47.26663" lon="-1.67051">
        <ele>102</ele>
        <time>2021-10-23T12:34:49Z</time>
      </trkpt>
      <trkpt lat="47.26672" lon="-1.67045">
        <ele>101</ele>
        <time>2021-10-23T12:34:50Z</time>
      </trkpt>
      <trkpt lat="47.26682" lon="-1.67038">
        <ele>101</ele>
        <time>2021-10-23T12:34:51Z</time>
      </trkpt>
      <trkpt lat="47.26691" lon="-1.67032">
        <ele>101</ele>
        <time>2021-10-23T12:34:52Z</time>
      </trkpt>
      <trkpt lat="47.26701" lon="-1.67026">
        <ele>101</ele>
        <time>2021-10-23T12:34:53Z</time>
      </trkpt>
      <trkpt lat="47.2671" lon="-1.67019">
        <ele>101</ele>
        <time>2021-10-23T12:34:54Z</time>
      </trkpt>
      <trkpt lat="47.26719" lon="-1.67014">
        <ele>101</ele>
        <time>2021-10-23T12:34:55Z</time>
      </trkpt>
      <trkpt lat="47.26729" lon="-1.67008">
        <ele>101</ele>
        <time>2021-10-23T12:34:56Z</time>
      </trkpt>
      <trkpt lat="47.26738" lon="-1.67004">
        <ele>101</ele>
        <time>2021-10-23T12:34:57Z</time>
      </trkpt>
      <trkpt lat="47.26749" lon="-1.67002">
        <ele>100</ele>
        <time>2021-10-23T12:34:58Z</time>
      </trkpt>
      <trkpt lat="47.2676" lon="-1.67006">
        <ele>99</ele>
        <time>2021-10-23T12:34:59Z</time>
      </trkpt>
      <trkpt lat="47.2677" lon="-1.67012">
        <ele>98</ele>
        <time>2021-10-23T12:35:00Z</time>
      </trkpt>
      <trkpt lat="47.2678" lon="-1.6702">
        <ele>98</ele>
        <time>2021-10-23T12:35:01Z</time>
      </trkpt>
      <trkpt lat="47.26789" lon="-1.67029">
        <ele>97</ele>
        <time>2021-10-23T12:35:02Z</time>
      </trkpt>
      <trkpt lat="47.26797" lon="-1.67039">
        <ele>96</ele>
        <time>2021-10-23T12:35:03Z</time>
      </trkpt>
      <trkpt lat="47.26804" lon="-1.6705">
        <ele>96</ele>
        <time>2021-10-23T12:35:04Z</time>
      </trkpt>
      <trkpt lat="47.26812" lon="-1.67062">
        <ele>95</ele>
        <time>2021-10-23T12:35:05Z</time>
      </trkpt>
      <trkpt lat="47.26819" lon="-1.67075">
        <ele>93</ele>
        <time>2021-10-23T12:35:06Z</time>
      </trkpt>
      <trkpt lat="47.26825" lon="-1.67087">
        <ele>93</ele>
        <time>2021-10-23T12:35:07Z</time>
      </trkpt>
      <trkpt lat="47.26833" lon="-1.67096">
        <ele>92</ele>
        <time>2021-10-23T12:35:08Z</time>
      </trkpt>
      <trkpt lat="47.26843" lon="-1.67104">
        <ele>92</ele>
        <time>2021-10-23T12:35:09Z</time>
      </trkpt>
      <trkpt lat="47.26851" lon="-1.67114">
        <ele>91</ele>
        <time>2021-10-23T12:35:10Z</time>
      </trkpt>
      <trkpt lat="47.26859" lon="-1.67125">
        <ele>91</ele>
        <time>2021-10-23T12:35:11Z</time>
      </trkpt>
      <trkpt lat="47.26866" lon="-1.67135">
        <ele>92</ele>
        <time>2021-10-23T12:35:12Z</time>
      </trkpt>
      <trkpt lat="47.26874" lon="-1.67144">
        <ele>92</ele>
        <time>2021-10-23T12:35:13Z</time>
      </trkpt>
      <trkpt lat="47.26882" lon="-1.67152">
        <ele>92</ele>
        <time>2021-10-23T12:35:14Z</time>
      </trkpt>
      <trkpt lat="47.2689" lon="-1.67159">
        <ele>93</ele>
        <time>2021-10-23T12:35:15Z</time>
      </trkpt>
      <trkpt lat="47.26907" lon="-1.67162">
        <ele>93</ele>
        <time>2021-10-23T12:35:17Z</time>
      </trkpt>
      <trkpt lat="47.2692" lon="-1.67157">
        <ele>92</ele>
        <time>2021-10-23T12:35:19Z</time>
      </trkpt>
      <trkpt lat="47.26933" lon="-1.67151">
        <ele>92</ele>
        <time>2021-10-23T12:35:21Z</time>
      </trkpt>
      <trkpt lat="47.26944" lon="-1.67144">
        <ele>92</ele>
        <time>2021-10-23T12:35:23Z</time>
      </trkpt>
      <trkpt lat="47.26954" lon="-1.6714">
        <ele>93</ele>
        <time>2021-10-23T12:35:25Z</time>
      </trkpt>
      <trkpt lat="47.26964" lon="-1.67134">
        <ele>94</ele>
        <time>2021-10-23T12:35:27Z</time>
      </trkpt>
      <trkpt lat="47.26973" lon="-1.67129">
        <ele>94</ele>
        <time>2021-10-23T12:35:29Z</time>
      </trkpt>
      <trkpt lat="47.26982" lon="-1.67124">
        <ele>95</ele>
        <time>2021-10-23T12:35:31Z</time>
      </trkpt>
      <trkpt lat="47.26992" lon="-1.6712">
        <ele>97</ele>
        <time>2021-10-23T12:35:33Z</time>
      </trkpt>
      <trkpt lat="47.27002" lon="-1.67117">
        <ele>98</ele>
        <time>2021-10-23T12:35:35Z</time>
      </trkpt>
      <trkpt lat="47.27013" lon="-1.67115">
        <ele>98</ele>
        <time>2021-10-23T12:35:37Z</time>
      </trkpt>
      <trkpt lat="47.27023" lon="-1.67112">
        <ele>99</ele>
        <time>2021-10-23T12:35:39Z</time>
      </trkpt>
      <trkpt lat="47.27034" lon="-1.67111">
        <ele>100</ele>
        <time>2021-10-23T12:35:41Z</time>
      </trkpt>
      <trkpt lat="47.27045" lon="-1.6711">
        <ele>100</ele>
        <time>2021-10-23T12:35:43Z</time>
      </trkpt>
      <trkpt lat="47.27055" lon="-1.67111">
        <ele>100</ele>
        <time>2021-10-23T12:35:45Z</time>
      </trkpt>
      <trkpt lat="47.27066" lon="-1.67113">
        <ele>101</ele>
        <time>2021-10-23T12:35:47Z</time>
      </trkpt>
      <trkpt lat="47.27076" lon="-1.67114">
        <ele>101</ele>
        <time>2021-10-23T12:35:49Z</time>
      </trkpt>
      <trkpt lat="47.27086" lon="-1.67115">
        <ele>102</ele>
        <time>2021-10-23T12:35:51Z</time>
      </trkpt>
      <trkpt lat="47.27095" lon="-1.67117">
        <ele>103</ele>
        <time>2021-10-23T12:35:53Z</time>
      </trkpt>
      <trkpt lat="47.27105" lon="-1.6712">
        <ele>103</ele>
        <time>2021-10-23T12:35:55Z</time>
      </trkpt>
      <trkpt lat="47.27115" lon="-1.67123">
        <ele>104</ele>
        <time>2021-10-23T12:35:57Z</time>
      </trkpt>
      <trkpt lat="47.27124" lon="-1.67126">
        <ele>104</ele>
        <time>2021-10-23T12:35:59Z</time>
      </trkpt>
      <trkpt lat="47.27137" lon="-1.67131">
        <ele>105</ele>
        <time>2021-10-23T12:36:02Z</time>
      </trkpt>
      <trkpt lat="47.2715" lon="-1.67136">
        <ele>107</ele>
        <time>2021-10-23T12:36:05Z</time>
      </trkpt>
      <trkpt lat="47.27158" lon="-1.67138">
        <ele>107</ele>
        <time>2021-10-23T12:36:07Z</time>
      </trkpt>
      <trkpt lat="47.27168" lon="-1.67142">
        <ele>108</ele>
        <time>2021-10-23T12:36:09Z</time>
      </trkpt>
      <trkpt lat="47.27177" lon="-1.67147">
        <ele>108</ele>
        <time>2021-10-23T12:36:11Z</time>
      </trkpt>
      <trkpt lat="47.27186" lon="-1.67152">
        <ele>109</ele>
        <time>2021-10-23T12:36:13Z</time>
      </trkpt>
      <trkpt lat="47.27195" lon="-1.67156">
        <ele>108</ele>
        <time>2021-10-23T12:36:15Z</time>
      </trkpt>
      <trkpt lat="47.27204" lon="-1.67161">
        <ele>109</ele>
        <time>2021-10-23T12:36:17Z</time>
      </trkpt>
      <trkpt lat="47.27214" lon="-1.67165">
        <ele>109</ele>
        <time>2021-10-23T12:36:19Z</time>
      </trkpt>
      <trkpt lat="47.27224" lon="-1.67169">
        <ele>109</ele>
        <time>2021-10-23T12:36:21Z</time>
      </trkpt>
      <trkpt lat="47.27233" lon="-1.67172">
        <ele>109</ele>
        <time>2021-10-23T12:36:23Z</time>
      </trkpt>
      <trkpt lat="47.27242" lon="-1.67175">
        <ele>110</ele>
        <time>2021-10-23T12:36:25Z</time>
      </trkpt>
      <trkpt lat="47.27252" lon="-1.6718">
        <ele>109</ele>
        <time>2021-10-23T12:36:27Z</time>
      </trkpt>
      <trkpt lat="47.27261" lon="-1.67184">
        <ele>110</ele>
        <time>2021-10-23T12:36:29Z</time>
      </trkpt>
      <trkpt lat="47.27271" lon="-1.67188">
        <ele>110</ele>
        <time>2021-10-23T12:36:31Z</time>
      </trkpt>
      <trkpt lat="47.2728" lon="-1.67192">
        <ele>110</ele>
        <time>2021-10-23T12:36:33Z</time>
      </trkpt>
      <trkpt lat="47.27289" lon="-1.67197">
        <ele>110</ele>
        <time>2021-10-23T12:36:35Z</time>
      </trkpt>
      <trkpt lat="47.27299" lon="-1.672">
        <ele>111</ele>
        <time>2021-10-23T12:36:37Z</time>
      </trkpt>
      <trkpt lat="47.27309" lon="-1.67204">
        <ele>111</ele>
        <time>2021-10-23T12:36:39Z</time>
      </trkpt>
      <trkpt lat="47.27318" lon="-1.67205">
        <ele>112</ele>
        <time>2021-10-23T12:36:41Z</time>
      </trkpt>
      <trkpt lat="47.27328" lon="-1.67207">
        <ele>111</ele>
        <time>2021-10-23T12:36:43Z</time>
      </trkpt>
      <trkpt lat="47.27338" lon="-1.67208">
        <ele>111</ele>
        <time>2021-10-23T12:36:45Z</time>
      </trkpt>
      <trkpt lat="47.27347" lon="-1.67207">
        <ele>111</ele>
        <time>2021-10-23T12:36:47Z</time>
      </trkpt>
      <trkpt lat="47.27356" lon="-1.67204">
        <ele>112</ele>
        <time>2021-10-23T12:36:49Z</time>
      </trkpt>
      <trkpt lat="47.27365" lon="-1.672">
        <ele>113</ele>
        <time>2021-10-23T12:36:51Z</time>
      </trkpt>
      <trkpt lat="47.27375" lon="-1.67195">
        <ele>112</ele>
        <time>2021-10-23T12:36:53Z</time>
      </trkpt>
      <trkpt lat="47.27384" lon="-1.67189">
        <ele>113</ele>
        <time>2021-10-23T12:36:55Z</time>
      </trkpt>
      <trkpt lat="47.27393" lon="-1.67182">
        <ele>113</ele>
        <time>2021-10-23T12:36:57Z</time>
      </trkpt>
      <trkpt lat="47.27402" lon="-1.67174">
        <ele>114</ele>
        <time>2021-10-23T12:36:59Z</time>
      </trkpt>
      <trkpt lat="47.27411" lon="-1.67165">
        <ele>114</ele>
        <time>2021-10-23T12:37:01Z</time>
      </trkpt>
      <trkpt lat="47.27419" lon="-1.67157">
        <ele>115</ele>
        <time>2021-10-23T12:37:03Z</time>
      </trkpt>
      <trkpt lat="47.27428" lon="-1.67149">
        <ele>115</ele>
        <time>2021-10-23T12:37:05Z</time>
      </trkpt>
      <trkpt lat="47.27437" lon="-1.6714">
        <ele>115</ele>
        <time>2021-10-23T12:37:07Z</time>
      </trkpt>
      <trkpt lat="47.27446" lon="-1.67132">
        <ele>115</ele>
        <time>2021-10-23T12:37:09Z</time>
      </trkpt>
      <trkpt lat="47.27456" lon="-1.67125">
        <ele>114</ele>
        <time>2021-10-23T12:37:11Z</time>
      </trkpt>
      <trkpt lat="47.27465" lon="-1.67117">
        <ele>114</ele>
        <time>2021-10-23T12:37:13Z</time>
      </trkpt>
      <trkpt lat="47.27474" lon="-1.67109">
        <ele>114</ele>
        <time>2021-10-23T12:37:15Z</time>
      </trkpt>
      <trkpt lat="47.27484" lon="-1.67102">
        <ele>114</ele>
        <time>2021-10-23T12:37:17Z</time>
      </trkpt>
      <trkpt lat="47.27493" lon="-1.67094">
        <ele>114</ele>
        <time>2021-10-23T12:37:19Z</time>
      </trkpt>
      <trkpt lat="47.27502" lon="-1.67087">
        <ele>114</ele>
        <time>2021-10-23T12:37:21Z</time>
      </trkpt>
      <trkpt lat="47.27511" lon="-1.67079">
        <ele>114</ele>
        <time>2021-10-23T12:37:23Z</time>
      </trkpt>
      <trkpt lat="47.27521" lon="-1.67075">
        <ele>113</ele>
        <time>2021-10-23T12:37:25Z</time>
      </trkpt>
      <trkpt lat="47.27529" lon="-1.67085">
        <ele>113</ele>
        <time>2021-10-23T12:37:27Z</time>
      </trkpt>
      <trkpt lat="47.27532" lon="-1.671">
        <ele>113</ele>
        <time>2021-10-23T12:37:29Z</time>
      </trkpt>
      <trkpt lat="47.27534" lon="-1.67115">
        <ele>114</ele>
        <time>2021-10-23T12:37:31Z</time>
      </trkpt>
      <trkpt lat="47.27538" lon="-1.6713">
        <ele>114</ele>
        <time>2021-10-23T12:37:33Z</time>
      </trkpt>
      <trkpt lat="47.2754" lon="-1.67146">
        <ele>115</ele>
        <time>2021-10-23T12:37:35Z</time>
      </trkpt>
      <trkpt lat="47.27543" lon="-1.67161">
        <ele>115</ele>
        <time>2021-10-23T12:37:37Z</time>
      </trkpt>
      <trkpt lat="47.27546" lon="-1.67176">
        <ele>116</ele>
        <time>2021-10-23T12:37:39Z</time>
      </trkpt>
      <trkpt lat="47.27548" lon="-1.6719">
        <ele>116</ele>
        <time>2021-10-23T12:37:41Z</time>
      </trkpt>
      <trkpt lat="47.27551" lon="-1.67205">
        <ele>116</ele>
        <time>2021-10-23T12:37:43Z</time>
      </trkpt>
      <trkpt lat="47.27554" lon="-1.6722">
        <ele>117</ele>
        <time>2021-10-23T12:37:45Z</time>
      </trkpt>
      <trkpt lat="47.27557" lon="-1.67235">
        <ele>117</ele>
        <time>2021-10-23T12:37:47Z</time>
      </trkpt>
      <trkpt lat="47.2756" lon="-1.6725">
        <ele>118</ele>
        <time>2021-10-23T12:37:49Z</time>
      </trkpt>
      <trkpt lat="47.27564" lon="-1.67265">
        <ele>118</ele>
        <time>2021-10-23T12:37:51Z</time>
      </trkpt>
      <trkpt lat="47.27569" lon="-1.6728">
        <ele>118</ele>
        <time>2021-10-23T12:37:53Z</time>
      </trkpt>
      <trkpt lat="47.27576" lon="-1.67294">
        <ele>118</ele>
        <time>2021-10-23T12:37:55Z</time>
      </trkpt>
      <trkpt lat="47.27583" lon="-1.67305">
        <ele>119</ele>
        <time>2021-10-23T12:37:57Z</time>
      </trkpt>
      <trkpt lat="47.27591" lon="-1.67316">
        <ele>119</ele>
        <time>2021-10-23T12:37:59Z</time>
      </trkpt>
      <trkpt lat="47.27599" lon="-1.67327">
        <ele>119</ele>
        <time>2021-10-23T12:38:01Z</time>
      </trkpt>
      <trkpt lat="47.27607" lon="-1.67338">
        <ele>119</ele>
        <time>2021-10-23T12:38:03Z</time>
      </trkpt>
      <trkpt lat="47.27615" lon="-1.67349">
        <ele>119</ele>
        <time>2021-10-23T12:38:05Z</time>
      </trkpt>
      <trkpt lat="47.27623" lon="-1.6736">
        <ele>118</ele>
        <time>2021-10-23T12:38:07Z</time>
      </trkpt>
      <trkpt lat="47.27632" lon="-1.67372">
        <ele>118</ele>
        <time>2021-10-23T12:38:09Z</time>
      </trkpt>
      <trkpt lat="47.27642" lon="-1.67381">
        <ele>117</ele>
        <time>2021-10-23T12:38:11Z</time>
      </trkpt>
      <trkpt lat="47.27654" lon="-1.67389">
        <ele>117</ele>
        <time>2021-10-23T12:38:13Z</time>
      </trkpt>
      <trkpt lat="47.27667" lon="-1.67395">
        <ele>117</ele>
        <time>2021-10-23T12:38:15Z</time>
      </trkpt>
      <trkpt lat="47.2768" lon="-1.67399">
        <ele>117</ele>
        <time>2021-10-23T12:38:17Z</time>
      </trkpt>
      <trkpt lat="47.27694" lon="-1.67402">
        <ele>117</ele>
        <time>2021-10-23T12:38:19Z</time>
      </trkpt>
      <trkpt lat="47.27709" lon="-1.67407">
        <ele>117</ele>
        <time>2021-10-23T12:38:21Z</time>
      </trkpt>
      <trkpt lat="47.27723" lon="-1.6741">
        <ele>116</ele>
        <time>2021-10-23T12:38:23Z</time>
      </trkpt>
      <trkpt lat="47.27738" lon="-1.67414">
        <ele>116</ele>
        <time>2021-10-23T12:38:25Z</time>
      </trkpt>
      <trkpt lat="47.27753" lon="-1.67417">
        <ele>115</ele>
        <time>2021-10-23T12:38:27Z</time>
      </trkpt>
      <trkpt lat="47.27768" lon="-1.6742">
        <ele>115</ele>
        <time>2021-10-23T12:38:29Z</time>
      </trkpt>
      <trkpt lat="47.27783" lon="-1.67423">
        <ele>116</ele>
        <time>2021-10-23T12:38:31Z</time>
      </trkpt>
      <trkpt lat="47.27798" lon="-1.67424">
        <ele>115</ele>
        <time>2021-10-23T12:38:33Z</time>
      </trkpt>
      <trkpt lat="47.27814" lon="-1.67426">
        <ele>114</ele>
        <time>2021-10-23T12:38:35Z</time>
      </trkpt>
      <trkpt lat="47.27829" lon="-1.67426">
        <ele>113</ele>
        <time>2021-10-23T12:38:37Z</time>
      </trkpt>
      <trkpt lat="47.27845" lon="-1.67426">
        <ele>112</ele>
        <time>2021-10-23T12:38:39Z</time>
      </trkpt>
      <trkpt lat="47.27861" lon="-1.67426">
        <ele>112</ele>
        <time>2021-10-23T12:38:41Z</time>
      </trkpt>
      <trkpt lat="47.27877" lon="-1.67426">
        <ele>111</ele>
        <time>2021-10-23T12:38:43Z</time>
      </trkpt>
      <trkpt lat="47.27893" lon="-1.67426">
        <ele>111</ele>
        <time>2021-10-23T12:38:45Z</time>
      </trkpt>
      <trkpt lat="47.27909" lon="-1.67427">
        <ele>110</ele>
        <time>2021-10-23T12:38:47Z</time>
      </trkpt>
      <trkpt lat="47.27925" lon="-1.6743">
        <ele>111</ele>
        <time>2021-10-23T12:38:49Z</time>
      </trkpt>
      <trkpt lat="47.2794" lon="-1.67435">
        <ele>110</ele>
        <time>2021-10-23T12:38:51Z</time>
      </trkpt>
      <trkpt lat="47.27956" lon="-1.67441">
        <ele>109</ele>
        <time>2021-10-23T12:38:53Z</time>
      </trkpt>
      <trkpt lat="47.2797" lon="-1.67447">
        <ele>109</ele>
        <time>2021-10-23T12:38:55Z</time>
      </trkpt>
      <trkpt lat="47.27984" lon="-1.67454">
        <ele>109</ele>
        <time>2021-10-23T12:38:57Z</time>
      </trkpt>
      <trkpt lat="47.27998" lon="-1.67461">
        <ele>108</ele>
        <time>2021-10-23T12:38:59Z</time>
      </trkpt>
      <trkpt lat="47.28011" lon="-1.67469">
        <ele>108</ele>
        <time>2021-10-23T12:39:01Z</time>
      </trkpt>
      <trkpt lat="47.28024" lon="-1.67476">
        <ele>108</ele>
        <time>2021-10-23T12:39:03Z</time>
      </trkpt>
      <trkpt lat="47.28036" lon="-1.67484">
        <ele>108</ele>
        <time>2021-10-23T12:39:05Z</time>
      </trkpt>
      <trkpt lat="47.28048" lon="-1.67491">
        <ele>108</ele>
        <time>2021-10-23T12:39:07Z</time>
      </trkpt>
      <trkpt lat="47.2806" lon="-1.67498">
        <ele>109</ele>
        <time>2021-10-23T12:39:09Z</time>
      </trkpt>
      <trkpt lat="47.28072" lon="-1.67505">
        <ele>109</ele>
        <time>2021-10-23T12:39:11Z</time>
      </trkpt>
      <trkpt lat="47.28083" lon="-1.67511">
        <ele>109</ele>
        <time>2021-10-23T12:39:13Z</time>
      </trkpt>
      <trkpt lat="47.28095" lon="-1.67519">
        <ele>109</ele>
        <time>2021-10-23T12:39:15Z</time>
      </trkpt>
      <trkpt lat="47.28106" lon="-1.67526">
        <ele>109</ele>
        <time>2021-10-23T12:39:17Z</time>
      </trkpt>
      <trkpt lat="47.28118" lon="-1.67532">
        <ele>110</ele>
        <time>2021-10-23T12:39:19Z</time>
      </trkpt>
      <trkpt lat="47.2813" lon="-1.67539">
        <ele>110</ele>
        <time>2021-10-23T12:39:21Z</time>
      </trkpt>
      <trkpt lat="47.28141" lon="-1.67546">
        <ele>110</ele>
        <time>2021-10-23T12:39:23Z</time>
      </trkpt>
      <trkpt lat="47.28153" lon="-1.67553">
        <ele>110</ele>
        <time>2021-10-23T12:39:25Z</time>
      </trkpt>
      <trkpt lat="47.28165" lon="-1.67559">
        <ele>111</ele>
        <time>2021-10-23T12:39:27Z</time>
      </trkpt>
      <trkpt lat="47.28176" lon="-1.67566">
        <ele>111</ele>
        <time>2021-10-23T12:39:29Z</time>
      </trkpt>
      <trkpt lat="47.28188" lon="-1.67573">
        <ele>111</ele>
        <time>2021-10-23T12:39:31Z</time>
      </trkpt>
      <trkpt lat="47.28199" lon="-1.67579">
        <ele>111</ele>
        <time>2021-10-23T12:39:33Z</time>
      </trkpt>
      <trkpt lat="47.28211" lon="-1.67586">
        <ele>111</ele>
        <time>2021-10-23T12:39:35Z</time>
      </trkpt>
      <trkpt lat="47.28223" lon="-1.67592">
        <ele>111</ele>
        <time>2021-10-23T12:39:37Z</time>
      </trkpt>
      <trkpt lat="47.28234" lon="-1.67599">
        <ele>111</ele>
        <time>2021-10-23T12:39:39Z</time>
      </trkpt>
      <trkpt lat="47.28247" lon="-1.67605">
        <ele>111</ele>
        <time>2021-10-23T12:39:41Z</time>
      </trkpt>
      <trkpt lat="47.2826" lon="-1.6761">
        <ele>112</ele>
        <time>2021-10-23T12:39:43Z</time>
      </trkpt>
      <trkpt lat="47.28273" lon="-1.67611">
        <ele>112</ele>
        <time>2021-10-23T12:39:45Z</time>
      </trkpt>
      <trkpt lat="47.28287" lon="-1.67611">
        <ele>112</ele>
        <time>2021-10-23T12:39:47Z</time>
      </trkpt>
      <trkpt lat="47.283" lon="-1.67609">
        <ele>112</ele>
        <time>2021-10-23T12:39:49Z</time>
      </trkpt>
      <trkpt lat="47.28314" lon="-1.67607">
        <ele>112</ele>
        <time>2021-10-23T12:39:51Z</time>
      </trkpt>
      <trkpt lat="47.28328" lon="-1.67605">
        <ele>112</ele>
        <time>2021-10-23T12:39:53Z</time>
      </trkpt>
      <trkpt lat="47.28342" lon="-1.67604">
        <ele>112</ele>
        <time>2021-10-23T12:39:55Z</time>
      </trkpt>
      <trkpt lat="47.28356" lon="-1.67602">
        <ele>112</ele>
        <time>2021-10-23T12:39:57Z</time>
      </trkpt>
      <trkpt lat="47.2837" lon="-1.67599">
        <ele>111</ele>
        <time>2021-10-23T12:39:59Z</time>
      </trkpt>
      <trkpt lat="47.28384" lon="-1.67597">
        <ele>111</ele>
        <time>2021-10-23T12:40:01Z</time>
      </trkpt>
      <trkpt lat="47.28398" lon="-1.67595">
        <ele>111</ele>
        <time>2021-10-23T12:40:03Z</time>
      </trkpt>
      <trkpt lat="47.28412" lon="-1.67593">
        <ele>111</ele>
        <time>2021-10-23T12:40:05Z</time>
      </trkpt>
      <trkpt lat="47.28426" lon="-1.67593">
        <ele>111</ele>
        <time>2021-10-23T12:40:07Z</time>
      </trkpt>
      <trkpt lat="47.28446" lon="-1.67596">
        <ele>111</ele>
        <time>2021-10-23T12:40:10Z</time>
      </trkpt>
      <trkpt lat="47.2846" lon="-1.67601">
        <ele>110</ele>
        <time>2021-10-23T12:40:12Z</time>
      </trkpt>
      <trkpt lat="47.28473" lon="-1.67605">
        <ele>109</ele>
        <time>2021-10-23T12:40:14Z</time>
      </trkpt>
      <trkpt lat="47.28487" lon="-1.6761">
        <ele>109</ele>
        <time>2021-10-23T12:40:16Z</time>
      </trkpt>
      <trkpt lat="47.28499" lon="-1.67615">
        <ele>109</ele>
        <time>2021-10-23T12:40:18Z</time>
      </trkpt>
      <trkpt lat="47.28519" lon="-1.67617">
        <ele>109</ele>
        <time>2021-10-23T12:40:21Z</time>
      </trkpt>
      <trkpt lat="47.28532" lon="-1.67616">
        <ele>110</ele>
        <time>2021-10-23T12:40:23Z</time>
      </trkpt>
      <trkpt lat="47.28545" lon="-1.67612">
        <ele>110</ele>
        <time>2021-10-23T12:40:25Z</time>
      </trkpt>
      <trkpt lat="47.28558" lon="-1.67606">
        <ele>110</ele>
        <time>2021-10-23T12:40:27Z</time>
      </trkpt>
      <trkpt lat="47.28571" lon="-1.67599">
        <ele>109</ele>
        <time>2021-10-23T12:40:29Z</time>
      </trkpt>
      <trkpt lat="47.28584" lon="-1.67592">
        <ele>109</ele>
        <time>2021-10-23T12:40:31Z</time>
      </trkpt>
      <trkpt lat="47.28597" lon="-1.67584">
        <ele>109</ele>
        <time>2021-10-23T12:40:33Z</time>
      </trkpt>
      <trkpt lat="47.28611" lon="-1.67578">
        <ele>108</ele>
        <time>2021-10-23T12:40:35Z</time>
      </trkpt>
      <trkpt lat="47.28625" lon="-1.67573">
        <ele>107</ele>
        <time>2021-10-23T12:40:37Z</time>
      </trkpt>
      <trkpt lat="47.28639" lon="-1.6757">
        <ele>108</ele>
        <time>2021-10-23T12:40:39Z</time>
      </trkpt>
      <trkpt lat="47.28654" lon="-1.67573">
        <ele>107</ele>
        <time>2021-10-23T12:40:41Z</time>
      </trkpt>
      <trkpt lat="47.28669" lon="-1.6758">
        <ele>107</ele>
        <time>2021-10-23T12:40:43Z</time>
      </trkpt>
      <trkpt lat="47.28683" lon="-1.67589">
        <ele>106</ele>
        <time>2021-10-23T12:40:45Z</time>
      </trkpt>
      <trkpt lat="47.28697" lon="-1.67598">
        <ele>106</ele>
        <time>2021-10-23T12:40:47Z</time>
      </trkpt>
      <trkpt lat="47.28711" lon="-1.67607">
        <ele>106</ele>
        <time>2021-10-23T12:40:49Z</time>
      </trkpt>
      <trkpt lat="47.28724" lon="-1.67615">
        <ele>106</ele>
        <time>2021-10-23T12:40:51Z</time>
      </trkpt>
      <trkpt lat="47.28734" lon="-1.67622">
        <ele>107</ele>
        <time>2021-10-23T12:40:53Z</time>
      </trkpt>
      <trkpt lat="47.28744" lon="-1.67625">
        <ele>107</ele>
        <time>2021-10-23T12:40:55Z</time>
      </trkpt>
      <trkpt lat="47.28754" lon="-1.67612">
        <ele>107</ele>
        <time>2021-10-23T12:40:58Z</time>
      </trkpt>
      <trkpt lat="47.28758" lon="-1.67598">
        <ele>106</ele>
        <time>2021-10-23T12:41:00Z</time>
      </trkpt>
      <trkpt lat="47.28762" lon="-1.67582">
        <ele>107</ele>
        <time>2021-10-23T12:41:02Z</time>
      </trkpt>
      <trkpt lat="47.28766" lon="-1.67565">
        <ele>107</ele>
        <time>2021-10-23T12:41:04Z</time>
      </trkpt>
      <trkpt lat="47.28771" lon="-1.67548">
        <ele>107</ele>
        <time>2021-10-23T12:41:06Z</time>
      </trkpt>
      <trkpt lat="47.28775" lon="-1.67531">
        <ele>107</ele>
        <time>2021-10-23T12:41:08Z</time>
      </trkpt>
      <trkpt lat="47.28779" lon="-1.67513">
        <ele>107</ele>
        <time>2021-10-23T12:41:10Z</time>
      </trkpt>
      <trkpt lat="47.28783" lon="-1.67496">
        <ele>106</ele>
        <time>2021-10-23T12:41:12Z</time>
      </trkpt>
      <trkpt lat="47.28788" lon="-1.67478">
        <ele>107</ele>
        <time>2021-10-23T12:41:14Z</time>
      </trkpt>
      <trkpt lat="47.28793" lon="-1.67461">
        <ele>107</ele>
        <time>2021-10-23T12:41:16Z</time>
      </trkpt>
      <trkpt lat="47.28798" lon="-1.67445">
        <ele>107</ele>
        <time>2021-10-23T12:41:18Z</time>
      </trkpt>
      <trkpt lat="47.28804" lon="-1.67428">
        <ele>107</ele>
        <time>2021-10-23T12:41:20Z</time>
      </trkpt>
      <trkpt lat="47.2881" lon="-1.67411">
        <ele>107</ele>
        <time>2021-10-23T12:41:22Z</time>
      </trkpt>
      <trkpt lat="47.28816" lon="-1.67395">
        <ele>107</ele>
        <time>2021-10-23T12:41:24Z</time>
      </trkpt>
      <trkpt lat="47.28822" lon="-1.6738">
        <ele>107</ele>
        <time>2021-10-23T12:41:26Z</time>
      </trkpt>
      <trkpt lat="47.28828" lon="-1.67365">
        <ele>107</ele>
        <time>2021-10-23T12:41:28Z</time>
      </trkpt>
      <trkpt lat="47.28835" lon="-1.67352">
        <ele>108</ele>
        <time>2021-10-23T12:41:30Z</time>
      </trkpt>
      <trkpt lat="47.28845" lon="-1.67342">
        <ele>108</ele>
        <time>2021-10-23T12:41:32Z</time>
      </trkpt>
      <trkpt lat="47.28856" lon="-1.67336">
        <ele>108</ele>
        <time>2021-10-23T12:41:34Z</time>
      </trkpt>
      <trkpt lat="47.28868" lon="-1.67333">
        <ele>109</ele>
        <time>2021-10-23T12:41:36Z</time>
      </trkpt>
      <trkpt lat="47.2888" lon="-1.67331">
        <ele>109</ele>
        <time>2021-10-23T12:41:38Z</time>
      </trkpt>
      <trkpt lat="47.28891" lon="-1.67329">
        <ele>110</ele>
        <time>2021-10-23T12:41:40Z</time>
      </trkpt>
      <trkpt lat="47.28903" lon="-1.67328">
        <ele>110</ele>
        <time>2021-10-23T12:41:42Z</time>
      </trkpt>
      <trkpt lat="47.28915" lon="-1.67328">
        <ele>111</ele>
        <time>2021-10-23T12:41:44Z</time>
      </trkpt>
      <trkpt lat="47.28927" lon="-1.67331">
        <ele>111</ele>
        <time>2021-10-23T12:41:46Z</time>
      </trkpt>
      <trkpt lat="47.28939" lon="-1.67336">
        <ele>112</ele>
        <time>2021-10-23T12:41:48Z</time>
      </trkpt>
      <trkpt lat="47.28951" lon="-1.6734">
        <ele>112</ele>
        <time>2021-10-23T12:41:50Z</time>
      </trkpt>
      <trkpt lat="47.28963" lon="-1.67345">
        <ele>113</ele>
        <time>2021-10-23T12:41:52Z</time>
      </trkpt>
      <trkpt lat="47.28976" lon="-1.67351">
        <ele>112</ele>
        <time>2021-10-23T12:41:54Z</time>
      </trkpt>
      <trkpt lat="47.28988" lon="-1.67353">
        <ele>112</ele>
        <time>2021-10-23T12:41:56Z</time>
      </trkpt>
      <trkpt lat="47.29" lon="-1.67351">
        <ele>113</ele>
        <time>2021-10-23T12:41:58Z</time>
      </trkpt>
      <trkpt lat="47.29012" lon="-1.67347">
        <ele>113</ele>
        <time>2021-10-23T12:42:00Z</time>
      </trkpt>
      <trkpt lat="47.29023" lon="-1.67343">
        <ele>113</ele>
        <time>2021-10-23T12:42:02Z</time>
      </trkpt>
      <trkpt lat="47.29034" lon="-1.67339">
        <ele>114</ele>
        <time>2021-10-23T12:42:04Z</time>
      </trkpt>
      <trkpt lat="47.29046" lon="-1.67335">
        <ele>114</ele>
        <time>2021-10-23T12:42:06Z</time>
      </trkpt>
      <trkpt lat="47.29058" lon="-1.67331">
        <ele>114</ele>
        <time>2021-10-23T12:42:08Z</time>
      </trkpt>
      <trkpt lat="47.29069" lon="-1.67327">
        <ele>114</ele>
        <time>2021-10-23T12:42:10Z</time>
      </trkpt>
      <trkpt lat="47.2908" lon="-1.67322">
        <ele>114</ele>
        <time>2021-10-23T12:42:12Z</time>
      </trkpt>
      <trkpt lat="47.29091" lon="-1.67318">
        <ele>114</ele>
        <time>2021-10-23T12:42:14Z</time>
      </trkpt>
      <trkpt lat="47.29102" lon="-1.67314">
        <ele>115</ele>
        <time>2021-10-23T12:42:16Z</time>
      </trkpt>
      <trkpt lat="47.29113" lon="-1.67312">
        <ele>115</ele>
        <time>2021-10-23T12:42:18Z</time>
      </trkpt>
      <trkpt lat="47.29124" lon="-1.67309">
        <ele>116</ele>
        <time>2021-10-23T12:42:20Z</time>
      </trkpt>
      <trkpt lat="47.29135" lon="-1.67309">
        <ele>116</ele>
        <time>2021-10-23T12:42:22Z</time>
      </trkpt>
      <trkpt lat="47.29146" lon="-1.6731">
        <ele>117</ele>
        <time>2021-10-23T12:42:24Z</time>
      </trkpt>
      <trkpt lat="47.29157" lon="-1.67311">
        <ele>117</ele>
        <time>2021-10-23T12:42:26Z</time>
      </trkpt>
      <trkpt lat="47.29168" lon="-1.67314">
        <ele>118</ele>
        <time>2021-10-23T12:42:28Z</time>
      </trkpt>
      <trkpt lat="47.29178" lon="-1.67316">
        <ele>118</ele>
        <time>2021-10-23T12:42:30Z</time>
      </trkpt>
      <trkpt lat="47.29188" lon="-1.67319">
        <ele>119</ele>
        <time>2021-10-23T12:42:32Z</time>
      </trkpt>
      <trkpt lat="47.29199" lon="-1.67321">
        <ele>118</ele>
        <time>2021-10-23T12:42:34Z</time>
      </trkpt>
      <trkpt lat="47.29209" lon="-1.67322">
        <ele>118</ele>
        <time>2021-10-23T12:42:36Z</time>
      </trkpt>
      <trkpt lat="47.2922" lon="-1.67323">
        <ele>119</ele>
        <time>2021-10-23T12:42:38Z</time>
      </trkpt>
      <trkpt lat="47.29231" lon="-1.67322">
        <ele>119</ele>
        <time>2021-10-23T12:42:40Z</time>
      </trkpt>
      <trkpt lat="47.29242" lon="-1.67321">
        <ele>119</ele>
        <time>2021-10-23T12:42:42Z</time>
      </trkpt>
      <trkpt lat="47.29253" lon="-1.67319">
        <ele>119</ele>
        <time>2021-10-23T12:42:44Z</time>
      </trkpt>
      <trkpt lat="47.29263" lon="-1.67316">
        <ele>120</ele>
        <time>2021-10-23T12:42:46Z</time>
      </trkpt>
      <trkpt lat="47.29274" lon="-1.67309">
        <ele>120</ele>
        <time>2021-10-23T12:42:48Z</time>
      </trkpt>
      <trkpt lat="47.29283" lon="-1.673">
        <ele>120</ele>
        <time>2021-10-23T12:42:50Z</time>
      </trkpt>
      <trkpt lat="47.29291" lon="-1.67289">
        <ele>120</ele>
        <time>2021-10-23T12:42:52Z</time>
      </trkpt>
      <trkpt lat="47.29297" lon="-1.67275">
        <ele>120</ele>
        <time>2021-10-23T12:42:54Z</time>
      </trkpt>
      <trkpt lat="47.29304" lon="-1.67261">
        <ele>120</ele>
        <time>2021-10-23T12:42:56Z</time>
      </trkpt>
      <trkpt lat="47.29311" lon="-1.67247">
        <ele>119</ele>
        <time>2021-10-23T12:42:58Z</time>
      </trkpt>
      <trkpt lat="47.29318" lon="-1.67234">
        <ele>119</ele>
        <time>2021-10-23T12:43:00Z</time>
      </trkpt>
      <trkpt lat="47.29325" lon="-1.67219">
        <ele>119</ele>
        <time>2021-10-23T12:43:02Z</time>
      </trkpt>
      <trkpt lat="47.29333" lon="-1.67205">
        <ele>119</ele>
        <time>2021-10-23T12:43:04Z</time>
      </trkpt>
      <trkpt lat="47.2934" lon="-1.67191">
        <ele>119</ele>
        <time>2021-10-23T12:43:06Z</time>
      </trkpt>
      <trkpt lat="47.29347" lon="-1.67177">
        <ele>118</ele>
        <time>2021-10-23T12:43:08Z</time>
      </trkpt>
      <trkpt lat="47.29353" lon="-1.67163">
        <ele>119</ele>
        <time>2021-10-23T12:43:10Z</time>
      </trkpt>
      <trkpt lat="47.29361" lon="-1.67149">
        <ele>119</ele>
        <time>2021-10-23T12:43:12Z</time>
      </trkpt>
      <trkpt lat="47.29368" lon="-1.67134">
        <ele>119</ele>
        <time>2021-10-23T12:43:14Z</time>
      </trkpt>
      <trkpt lat="47.29375" lon="-1.6712">
        <ele>119</ele>
        <time>2021-10-23T12:43:16Z</time>
      </trkpt>
      <trkpt lat="47.29383" lon="-1.67106">
        <ele>119</ele>
        <time>2021-10-23T12:43:18Z</time>
      </trkpt>
      <trkpt lat="47.2939" lon="-1.67092">
        <ele>119</ele>
        <time>2021-10-23T12:43:20Z</time>
      </trkpt>
      <trkpt lat="47.29397" lon="-1.67078">
        <ele>119</ele>
        <time>2021-10-23T12:43:22Z</time>
      </trkpt>
      <trkpt lat="47.29403" lon="-1.67063">
        <ele>119</ele>
        <time>2021-10-23T12:43:24Z</time>
      </trkpt>
      <trkpt lat="47.2941" lon="-1.6705">
        <ele>119</ele>
        <time>2021-10-23T12:43:26Z</time>
      </trkpt>
      <trkpt lat="47.29417" lon="-1.67036">
        <ele>119</ele>
        <time>2021-10-23T12:43:28Z</time>
      </trkpt>
      <trkpt lat="47.29424" lon="-1.67022">
        <ele>119</ele>
        <time>2021-10-23T12:43:30Z</time>
      </trkpt>
      <trkpt lat="47.29432" lon="-1.67007">
        <ele>119</ele>
        <time>2021-10-23T12:43:32Z</time>
      </trkpt>
      <trkpt lat="47.2944" lon="-1.66995">
        <ele>119</ele>
        <time>2021-10-23T12:43:34Z</time>
      </trkpt>
      <trkpt lat="47.29449" lon="-1.66984">
        <ele>119</ele>
        <time>2021-10-23T12:43:36Z</time>
      </trkpt>
      <trkpt lat="47.29459" lon="-1.66974">
        <ele>119</ele>
        <time>2021-10-23T12:43:38Z</time>
      </trkpt>
      <trkpt lat="47.2947" lon="-1.66966">
        <ele>119</ele>
        <time>2021-10-23T12:43:40Z</time>
      </trkpt>
      <trkpt lat="47.29482" lon="-1.66958">
        <ele>119</ele>
        <time>2021-10-23T12:43:42Z</time>
      </trkpt>
      <trkpt lat="47.29493" lon="-1.66952">
        <ele>119</ele>
        <time>2021-10-23T12:43:44Z</time>
      </trkpt>
      <trkpt lat="47.29505" lon="-1.66945">
        <ele>119</ele>
        <time>2021-10-23T12:43:46Z</time>
      </trkpt>
      <trkpt lat="47.29517" lon="-1.66939">
        <ele>119</ele>
        <time>2021-10-23T12:43:48Z</time>
      </trkpt>
      <trkpt lat="47.29529" lon="-1.66931">
        <ele>119</ele>
        <time>2021-10-23T12:43:50Z</time>
      </trkpt>
      <trkpt lat="47.29541" lon="-1.66925">
        <ele>119</ele>
        <time>2021-10-23T12:43:52Z</time>
      </trkpt>
      <trkpt lat="47.29553" lon="-1.66917">
        <ele>119</ele>
        <time>2021-10-23T12:43:54Z</time>
      </trkpt>
      <trkpt lat="47.29566" lon="-1.66909">
        <ele>119</ele>
        <time>2021-10-23T12:43:56Z</time>
      </trkpt>
      <trkpt lat="47.29579" lon="-1.66901">
        <ele>119</ele>
        <time>2021-10-23T12:43:58Z</time>
      </trkpt>
      <trkpt lat="47.29593" lon="-1.66894">
        <ele>118</ele>
        <time>2021-10-23T12:44:00Z</time>
      </trkpt>
      <trkpt lat="47.29607" lon="-1.66887">
        <ele>117</ele>
        <time>2021-10-23T12:44:02Z</time>
      </trkpt>
      <trkpt lat="47.29621" lon="-1.66879">
        <ele>117</ele>
        <time>2021-10-23T12:44:04Z</time>
      </trkpt>
      <trkpt lat="47.29635" lon="-1.66871">
        <ele>116</ele>
        <time>2021-10-23T12:44:06Z</time>
      </trkpt>
      <trkpt lat="47.29648" lon="-1.6686">
        <ele>116</ele>
        <time>2021-10-23T12:44:08Z</time>
      </trkpt>
      <trkpt lat="47.29661" lon="-1.66848">
        <ele>116</ele>
        <time>2021-10-23T12:44:10Z</time>
      </trkpt>
      <trkpt lat="47.29672" lon="-1.66834">
        <ele>116</ele>
        <time>2021-10-23T12:44:12Z</time>
      </trkpt>
      <trkpt lat="47.29682" lon="-1.66818">
        <ele>116</ele>
        <time>2021-10-23T12:44:14Z</time>
      </trkpt>
      <trkpt lat="47.29691" lon="-1.66802">
        <ele>116</ele>
        <time>2021-10-23T12:44:16Z</time>
      </trkpt>
      <trkpt lat="47.297" lon="-1.66786">
        <ele>117</ele>
        <time>2021-10-23T12:44:18Z</time>
      </trkpt>
      <trkpt lat="47.29709" lon="-1.6677">
        <ele>117</ele>
        <time>2021-10-23T12:44:20Z</time>
      </trkpt>
      <trkpt lat="47.29718" lon="-1.66754">
        <ele>117</ele>
        <time>2021-10-23T12:44:22Z</time>
      </trkpt>
      <trkpt lat="47.29727" lon="-1.66739">
        <ele>117</ele>
        <time>2021-10-23T12:44:24Z</time>
      </trkpt>
      <trkpt lat="47.29736" lon="-1.66724">
        <ele>116</ele>
        <time>2021-10-23T12:44:26Z</time>
      </trkpt>
      <trkpt lat="47.29746" lon="-1.6671">
        <ele>116</ele>
        <time>2021-10-23T12:44:28Z</time>
      </trkpt>
      <trkpt lat="47.29756" lon="-1.66696">
        <ele>116</ele>
        <time>2021-10-23T12:44:30Z</time>
      </trkpt>
      <trkpt lat="47.29767" lon="-1.66682">
        <ele>115</ele>
        <time>2021-10-23T12:44:32Z</time>
      </trkpt>
      <trkpt lat="47.29777" lon="-1.66671">
        <ele>116</ele>
        <time>2021-10-23T12:44:34Z</time>
      </trkpt>
      <trkpt lat="47.29788" lon="-1.66659">
        <ele>116</ele>
        <time>2021-10-23T12:44:36Z</time>
      </trkpt>
      <trkpt lat="47.29798" lon="-1.66648">
        <ele>116</ele>
        <time>2021-10-23T12:44:38Z</time>
      </trkpt>
      <trkpt lat="47.29808" lon="-1.66637">
        <ele>117</ele>
        <time>2021-10-23T12:44:40Z</time>
      </trkpt>
      <trkpt lat="47.29818" lon="-1.66625">
        <ele>118</ele>
        <time>2021-10-23T12:44:42Z</time>
      </trkpt>
      <trkpt lat="47.29828" lon="-1.66615">
        <ele>118</ele>
        <time>2021-10-23T12:44:44Z</time>
      </trkpt>
      <trkpt lat="47.29839" lon="-1.66604">
        <ele>118</ele>
        <time>2021-10-23T12:44:46Z</time>
      </trkpt>
      <trkpt lat="47.29849" lon="-1.66592">
        <ele>118</ele>
        <time>2021-10-23T12:44:48Z</time>
      </trkpt>
      <trkpt lat="47.29859" lon="-1.66579">
        <ele>118</ele>
        <time>2021-10-23T12:44:50Z</time>
      </trkpt>
      <trkpt lat="47.29869" lon="-1.66565">
        <ele>118</ele>
        <time>2021-10-23T12:44:52Z</time>
      </trkpt>
      <trkpt lat="47.29878" lon="-1.66551">
        <ele>117</ele>
        <time>2021-10-23T12:44:54Z</time>
      </trkpt>
      <trkpt lat="47.29886" lon="-1.66536">
        <ele>117</ele>
        <time>2021-10-23T12:44:56Z</time>
      </trkpt>
      <trkpt lat="47.29895" lon="-1.66523">
        <ele>117</ele>
        <time>2021-10-23T12:44:58Z</time>
      </trkpt>
      <trkpt lat="47.29904" lon="-1.6651">
        <ele>117</ele>
        <time>2021-10-23T12:45:00Z</time>
      </trkpt>
      <trkpt lat="47.29912" lon="-1.66497">
        <ele>117</ele>
        <time>2021-10-23T12:45:02Z</time>
      </trkpt>
      <trkpt lat="47.29921" lon="-1.66484">
        <ele>116</ele>
        <time>2021-10-23T12:45:04Z</time>
      </trkpt>
      <trkpt lat="47.29928" lon="-1.66472">
        <ele>117</ele>
        <time>2021-10-23T12:45:06Z</time>
      </trkpt>
      <trkpt lat="47.29934" lon="-1.6646">
        <ele>116</ele>
        <time>2021-10-23T12:45:08Z</time>
      </trkpt>
      <trkpt lat="47.29941" lon="-1.66449">
        <ele>116</ele>
        <time>2021-10-23T12:45:11Z</time>
      </trkpt>
      <trkpt lat="47.29948" lon="-1.66439">
        <ele>116</ele>
        <time>2021-10-23T12:45:14Z</time>
      </trkpt>
      <trkpt lat="47.29956" lon="-1.66427">
        <ele>116</ele>
        <time>2021-10-23T12:45:16Z</time>
      </trkpt>
      <trkpt lat="47.29964" lon="-1.66415">
        <ele>116</ele>
        <time>2021-10-23T12:45:18Z</time>
      </trkpt>
      <trkpt lat="47.29973" lon="-1.66401">
        <ele>116</ele>
        <time>2021-10-23T12:45:20Z</time>
      </trkpt>
      <trkpt lat="47.29982" lon="-1.66387">
        <ele>115</ele>
        <time>2021-10-23T12:45:22Z</time>
      </trkpt>
      <trkpt lat="47.29991" lon="-1.66372">
        <ele>115</ele>
        <time>2021-10-23T12:45:24Z</time>
      </trkpt>
      <trkpt lat="47.30001" lon="-1.66357">
        <ele>114</ele>
        <time>2021-10-23T12:45:26Z</time>
      </trkpt>
      <trkpt lat="47.30011" lon="-1.66342">
        <ele>114</ele>
        <time>2021-10-23T12:45:28Z</time>
      </trkpt>
      <trkpt lat="47.3002" lon="-1.66327">
        <ele>114</ele>
        <time>2021-10-23T12:45:30Z</time>
      </trkpt>
      <trkpt lat="47.3003" lon="-1.66312">
        <ele>114</ele>
        <time>2021-10-23T12:45:32Z</time>
      </trkpt>
      <trkpt lat="47.3004" lon="-1.66297">
        <ele>114</ele>
        <time>2021-10-23T12:45:34Z</time>
      </trkpt>
      <trkpt lat="47.3005" lon="-1.66282">
        <ele>113</ele>
        <time>2021-10-23T12:45:36Z</time>
      </trkpt>
      <trkpt lat="47.30059" lon="-1.66267">
        <ele>114</ele>
        <time>2021-10-23T12:45:38Z</time>
      </trkpt>
      <trkpt lat="47.30068" lon="-1.66252">
        <ele>114</ele>
        <time>2021-10-23T12:45:40Z</time>
      </trkpt>
      <trkpt lat="47.30077" lon="-1.66237">
        <ele>114</ele>
        <time>2021-10-23T12:45:42Z</time>
      </trkpt>
      <trkpt lat="47.30087" lon="-1.66222">
        <ele>114</ele>
        <time>2021-10-23T12:45:44Z</time>
      </trkpt>
      <trkpt lat="47.30096" lon="-1.66208">
        <ele>113</ele>
        <time>2021-10-23T12:45:46Z</time>
      </trkpt>
      <trkpt lat="47.30106" lon="-1.66195">
        <ele>114</ele>
        <time>2021-10-23T12:45:48Z</time>
      </trkpt>
      <trkpt lat="47.30116" lon="-1.66183">
        <ele>114</ele>
        <time>2021-10-23T12:45:50Z</time>
      </trkpt>
      <trkpt lat="47.30126" lon="-1.66171">
        <ele>115</ele>
        <time>2021-10-23T12:45:52Z</time>
      </trkpt>
      <trkpt lat="47.30137" lon="-1.6616">
        <ele>115</ele>
        <time>2021-10-23T12:45:54Z</time>
      </trkpt>
      <trkpt lat="47.30148" lon="-1.66149">
        <ele>115</ele>
        <time>2021-10-23T12:45:56Z</time>
      </trkpt>
      <trkpt lat="47.30158" lon="-1.66138">
        <ele>115</ele>
        <time>2021-10-23T12:45:58Z</time>
      </trkpt>
      <trkpt lat="47.30168" lon="-1.66126">
        <ele>115</ele>
        <time>2021-10-23T12:46:00Z</time>
      </trkpt>
      <trkpt lat="47.30177" lon="-1.66113">
        <ele>116</ele>
        <time>2021-10-23T12:46:02Z</time>
      </trkpt>
      <trkpt lat="47.30189" lon="-1.66102">
        <ele>116</ele>
        <time>2021-10-23T12:46:04Z</time>
      </trkpt>
      <trkpt lat="47.302" lon="-1.66091">
        <ele>116</ele>
        <time>2021-10-23T12:46:06Z</time>
      </trkpt>
      <trkpt lat="47.30211" lon="-1.66079">
        <ele>116</ele>
        <time>2021-10-23T12:46:08Z</time>
      </trkpt>
      <trkpt lat="47.30221" lon="-1.66068">
        <ele>117</ele>
        <time>2021-10-23T12:46:10Z</time>
      </trkpt>
      <trkpt lat="47.30232" lon="-1.66057">
        <ele>118</ele>
        <time>2021-10-23T12:46:12Z</time>
      </trkpt>
      <trkpt lat="47.30243" lon="-1.66046">
        <ele>118</ele>
        <time>2021-10-23T12:46:14Z</time>
      </trkpt>
      <trkpt lat="47.30254" lon="-1.66035">
        <ele>118</ele>
        <time>2021-10-23T12:46:16Z</time>
      </trkpt>
      <trkpt lat="47.30265" lon="-1.66024">
        <ele>118</ele>
        <time>2021-10-23T12:46:18Z</time>
      </trkpt>
      <trkpt lat="47.30276" lon="-1.66013">
        <ele>118</ele>
        <time>2021-10-23T12:46:20Z</time>
      </trkpt>
      <trkpt lat="47.30287" lon="-1.66002">
        <ele>118</ele>
        <time>2021-10-23T12:46:22Z</time>
      </trkpt>
      <trkpt lat="47.30298" lon="-1.6599">
        <ele>118</ele>
        <time>2021-10-23T12:46:24Z</time>
      </trkpt>
      <trkpt lat="47.30309" lon="-1.6598">
        <ele>118</ele>
        <time>2021-10-23T12:46:26Z</time>
      </trkpt>
      <trkpt lat="47.3032" lon="-1.65968">
        <ele>118</ele>
        <time>2021-10-23T12:46:28Z</time>
      </trkpt>
      <trkpt lat="47.30331" lon="-1.65957">
        <ele>118</ele>
        <time>2021-10-23T12:46:30Z</time>
      </trkpt>
      <trkpt lat="47.30343" lon="-1.65946">
        <ele>118</ele>
        <time>2021-10-23T12:46:32Z</time>
      </trkpt>
      <trkpt lat="47.30354" lon="-1.65934">
        <ele>117</ele>
        <time>2021-10-23T12:46:34Z</time>
      </trkpt>
      <trkpt lat="47.30365" lon="-1.65922">
        <ele>117</ele>
        <time>2021-10-23T12:46:36Z</time>
      </trkpt>
      <trkpt lat="47.30376" lon="-1.65911">
        <ele>117</ele>
        <time>2021-10-23T12:46:38Z</time>
      </trkpt>
      <trkpt lat="47.30387" lon="-1.659">
        <ele>117</ele>
        <time>2021-10-23T12:46:40Z</time>
      </trkpt>
      <trkpt lat="47.30399" lon="-1.65889">
        <ele>117</ele>
        <time>2021-10-23T12:46:42Z</time>
      </trkpt>
      <trkpt lat="47.3041" lon="-1.65878">
        <ele>117</ele>
        <time>2021-10-23T12:46:44Z</time>
      </trkpt>
      <trkpt lat="47.3042" lon="-1.65867">
        <ele>117</ele>
        <time>2021-10-23T12:46:46Z</time>
      </trkpt>
      <trkpt lat="47.3043" lon="-1.65857">
        <ele>117</ele>
        <time>2021-10-23T12:46:48Z</time>
      </trkpt>
      <trkpt lat="47.3044" lon="-1.65846">
        <ele>117</ele>
        <time>2021-10-23T12:46:50Z</time>
      </trkpt>
      <trkpt lat="47.3045" lon="-1.65835">
        <ele>117</ele>
        <time>2021-10-23T12:46:52Z</time>
      </trkpt>
      <trkpt lat="47.3046" lon="-1.65824">
        <ele>118</ele>
        <time>2021-10-23T12:46:54Z</time>
      </trkpt>
      <trkpt lat="47.30471" lon="-1.65813">
        <ele>118</ele>
        <time>2021-10-23T12:46:56Z</time>
      </trkpt>
      <trkpt lat="47.30481" lon="-1.65803">
        <ele>118</ele>
        <time>2021-10-23T12:46:58Z</time>
      </trkpt>
      <trkpt lat="47.30491" lon="-1.65792">
        <ele>118</ele>
        <time>2021-10-23T12:47:00Z</time>
      </trkpt>
      <trkpt lat="47.30502" lon="-1.6578">
        <ele>118</ele>
        <time>2021-10-23T12:47:02Z</time>
      </trkpt>
      <trkpt lat="47.30512" lon="-1.6577">
        <ele>118</ele>
        <time>2021-10-23T12:47:04Z</time>
      </trkpt>
      <trkpt lat="47.30522" lon="-1.65759">
        <ele>118</ele>
        <time>2021-10-23T12:47:06Z</time>
      </trkpt>
      <trkpt lat="47.30532" lon="-1.65748">
        <ele>118</ele>
        <time>2021-10-23T12:47:08Z</time>
      </trkpt>
      <trkpt lat="47.30542" lon="-1.65737">
        <ele>118</ele>
        <time>2021-10-23T12:47:10Z</time>
      </trkpt>
      <trkpt lat="47.30553" lon="-1.65727">
        <ele>118</ele>
        <time>2021-10-23T12:47:12Z</time>
      </trkpt>
      <trkpt lat="47.30563" lon="-1.65717">
        <ele>118</ele>
        <time>2021-10-23T12:47:14Z</time>
      </trkpt>
      <trkpt lat="47.30573" lon="-1.65707">
        <ele>118</ele>
        <time>2021-10-23T12:47:16Z</time>
      </trkpt>
      <trkpt lat="47.30584" lon="-1.65696">
        <ele>118</ele>
        <time>2021-10-23T12:47:18Z</time>
      </trkpt>
      <trkpt lat="47.30594" lon="-1.65686">
        <ele>118</ele>
        <time>2021-10-23T12:47:20Z</time>
      </trkpt>
      <trkpt lat="47.30605" lon="-1.65675">
        <ele>118</ele>
        <time>2021-10-23T12:47:22Z</time>
      </trkpt>
      <trkpt lat="47.30615" lon="-1.65665">
        <ele>118</ele>
        <time>2021-10-23T12:47:24Z</time>
      </trkpt>
      <trkpt lat="47.30625" lon="-1.65655">
        <ele>118</ele>
        <time>2021-10-23T12:47:26Z</time>
      </trkpt>
      <trkpt lat="47.30636" lon="-1.65644">
        <ele>118</ele>
        <time>2021-10-23T12:47:28Z</time>
      </trkpt>
      <trkpt lat="47.30646" lon="-1.65633">
        <ele>118</ele>
        <time>2021-10-23T12:47:30Z</time>
      </trkpt>
      <trkpt lat="47.30656" lon="-1.65622">
        <ele>118</ele>
        <time>2021-10-23T12:47:32Z</time>
      </trkpt>
      <trkpt lat="47.30666" lon="-1.65611">
        <ele>118</ele>
        <time>2021-10-23T12:47:34Z</time>
      </trkpt>
      <trkpt lat="47.30676" lon="-1.65601">
        <ele>118</ele>
        <time>2021-10-23T12:47:36Z</time>
      </trkpt>
      <trkpt lat="47.30687" lon="-1.6559">
        <ele>118</ele>
        <time>2021-10-23T12:47:38Z</time>
      </trkpt>
      <trkpt lat="47.30697" lon="-1.65578">
        <ele>119</ele>
        <time>2021-10-23T12:47:40Z</time>
      </trkpt>
      <trkpt lat="47.30707" lon="-1.65568">
        <ele>119</ele>
        <time>2021-10-23T12:47:42Z</time>
      </trkpt>
      <trkpt lat="47.30716" lon="-1.65557">
        <ele>119</ele>
        <time>2021-10-23T12:47:44Z</time>
      </trkpt>
      <trkpt lat="47.30726" lon="-1.65545">
        <ele>120</ele>
        <time>2021-10-23T12:47:46Z</time>
      </trkpt>
      <trkpt lat="47.30734" lon="-1.65531">
        <ele>120</ele>
        <time>2021-10-23T12:47:48Z</time>
      </trkpt>
      <trkpt lat="47.3074" lon="-1.65516">
        <ele>120</ele>
        <time>2021-10-23T12:47:50Z</time>
      </trkpt>
      <trkpt lat="47.30746" lon="-1.65499">
        <ele>120</ele>
        <time>2021-10-23T12:47:52Z</time>
      </trkpt>
      <trkpt lat="47.30754" lon="-1.65485">
        <ele>119</ele>
        <time>2021-10-23T12:47:54Z</time>
      </trkpt>
      <trkpt lat="47.30762" lon="-1.6547">
        <ele>119</ele>
        <time>2021-10-23T12:47:56Z</time>
      </trkpt>
      <trkpt lat="47.30771" lon="-1.65456">
        <ele>119</ele>
        <time>2021-10-23T12:47:58Z</time>
      </trkpt>
      <trkpt lat="47.30779" lon="-1.65441">
        <ele>119</ele>
        <time>2021-10-23T12:48:00Z</time>
      </trkpt>
      <trkpt lat="47.30788" lon="-1.65426">
        <ele>118</ele>
        <time>2021-10-23T12:48:02Z</time>
      </trkpt>
      <trkpt lat="47.30797" lon="-1.65411">
        <ele>118</ele>
        <time>2021-10-23T12:48:04Z</time>
      </trkpt>
      <trkpt lat="47.30805" lon="-1.65396">
        <ele>118</ele>
        <time>2021-10-23T12:48:06Z</time>
      </trkpt>
      <trkpt lat="47.30813" lon="-1.65382">
        <ele>118</ele>
        <time>2021-10-23T12:48:08Z</time>
      </trkpt>
      <trkpt lat="47.30822" lon="-1.65367">
        <ele>117</ele>
        <time>2021-10-23T12:48:10Z</time>
      </trkpt>
      <trkpt lat="47.3083" lon="-1.65352">
        <ele>117</ele>
        <time>2021-10-23T12:48:12Z</time>
      </trkpt>
      <trkpt lat="47.30839" lon="-1.65338">
        <ele>117</ele>
        <time>2021-10-23T12:48:14Z</time>
      </trkpt>
      <trkpt lat="47.30847" lon="-1.65323">
        <ele>117</ele>
        <time>2021-10-23T12:48:16Z</time>
      </trkpt>
      <trkpt lat="47.30856" lon="-1.65308">
        <ele>116</ele>
        <time>2021-10-23T12:48:18Z</time>
      </trkpt>
      <trkpt lat="47.30865" lon="-1.65292">
        <ele>116</ele>
        <time>2021-10-23T12:48:20Z</time>
      </trkpt>
      <trkpt lat="47.30874" lon="-1.65275">
        <ele>116</ele>
        <time>2021-10-23T12:48:22Z</time>
      </trkpt>
      <trkpt lat="47.30883" lon="-1.65259">
        <ele>116</ele>
        <time>2021-10-23T12:48:24Z</time>
      </trkpt>
      <trkpt lat="47.30892" lon="-1.65242">
        <ele>116</ele>
        <time>2021-10-23T12:48:26Z</time>
      </trkpt>
      <trkpt lat="47.30901" lon="-1.65226">
        <ele>116</ele>
        <time>2021-10-23T12:48:28Z</time>
      </trkpt>
      <trkpt lat="47.30911" lon="-1.6521">
        <ele>115</ele>
        <time>2021-10-23T12:48:30Z</time>
      </trkpt>
      <trkpt lat="47.3092" lon="-1.65193">
        <ele>115</ele>
        <time>2021-10-23T12:48:32Z</time>
      </trkpt>
      <trkpt lat="47.3093" lon="-1.65177">
        <ele>114</ele>
        <time>2021-10-23T12:48:34Z</time>
      </trkpt>
      <trkpt lat="47.30939" lon="-1.65159">
        <ele>114</ele>
        <time>2021-10-23T12:48:36Z</time>
      </trkpt>
      <trkpt lat="47.30948" lon="-1.65142">
        <ele>114</ele>
        <time>2021-10-23T12:48:38Z</time>
      </trkpt>
      <trkpt lat="47.30958" lon="-1.65126">
        <ele>114</ele>
        <time>2021-10-23T12:48:40Z</time>
      </trkpt>
      <trkpt lat="47.30967" lon="-1.65109">
        <ele>114</ele>
        <time>2021-10-23T12:48:42Z</time>
      </trkpt>
      <trkpt lat="47.30977" lon="-1.65094">
        <ele>114</ele>
        <time>2021-10-23T12:48:44Z</time>
      </trkpt>
      <trkpt lat="47.30988" lon="-1.65081">
        <ele>114</ele>
        <time>2021-10-23T12:48:46Z</time>
      </trkpt>
      <trkpt lat="47.31" lon="-1.65073">
        <ele>114</ele>
        <time>2021-10-23T12:48:48Z</time>
      </trkpt>
      <trkpt lat="47.31013" lon="-1.65065">
        <ele>115</ele>
        <time>2021-10-23T12:48:50Z</time>
      </trkpt>
      <trkpt lat="47.31026" lon="-1.65057">
        <ele>115</ele>
        <time>2021-10-23T12:48:52Z</time>
      </trkpt>
      <trkpt lat="47.3104" lon="-1.65051">
        <ele>115</ele>
        <time>2021-10-23T12:48:54Z</time>
      </trkpt>
      <trkpt lat="47.31054" lon="-1.65045">
        <ele>114</ele>
        <time>2021-10-23T12:48:56Z</time>
      </trkpt>
      <trkpt lat="47.31068" lon="-1.65039">
        <ele>114</ele>
        <time>2021-10-23T12:48:58Z</time>
      </trkpt>
      <trkpt lat="47.31082" lon="-1.65034">
        <ele>114</ele>
        <time>2021-10-23T12:49:00Z</time>
      </trkpt>
      <trkpt lat="47.31097" lon="-1.6503">
        <ele>114</ele>
        <time>2021-10-23T12:49:02Z</time>
      </trkpt>
      <trkpt lat="47.31111" lon="-1.65027">
        <ele>115</ele>
        <time>2021-10-23T12:49:04Z</time>
      </trkpt>
      <trkpt lat="47.31124" lon="-1.65028">
        <ele>115</ele>
        <time>2021-10-23T12:49:06Z</time>
      </trkpt>
      <trkpt lat="47.31138" lon="-1.65034">
        <ele>115</ele>
        <time>2021-10-23T12:49:08Z</time>
      </trkpt>
      <trkpt lat="47.31151" lon="-1.65043">
        <ele>115</ele>
        <time>2021-10-23T12:49:10Z</time>
      </trkpt>
      <trkpt lat="47.31163" lon="-1.65051">
        <ele>114</ele>
        <time>2021-10-23T12:49:12Z</time>
      </trkpt>
      <trkpt lat="47.31176" lon="-1.65056">
        <ele>113</ele>
        <time>2021-10-23T12:49:14Z</time>
      </trkpt>
      <trkpt lat="47.31188" lon="-1.65056">
        <ele>114</ele>
        <time>2021-10-23T12:49:16Z</time>
      </trkpt>
      <trkpt lat="47.312" lon="-1.65053">
        <ele>114</ele>
        <time>2021-10-23T12:49:18Z</time>
      </trkpt>
      <trkpt lat="47.31211" lon="-1.65046">
        <ele>114</ele>
        <time>2021-10-23T12:49:20Z</time>
      </trkpt>
      <trkpt lat="47.31222" lon="-1.6504">
        <ele>115</ele>
        <time>2021-10-23T12:49:22Z</time>
      </trkpt>
      <trkpt lat="47.31233" lon="-1.65034">
        <ele>116</ele>
        <time>2021-10-23T12:49:24Z</time>
      </trkpt>
      <trkpt lat="47.31243" lon="-1.65027">
        <ele>116</ele>
        <time>2021-10-23T12:49:26Z</time>
      </trkpt>
      <trkpt lat="47.31254" lon="-1.65021">
        <ele>117</ele>
        <time>2021-10-23T12:49:28Z</time>
      </trkpt>
      <trkpt lat="47.31264" lon="-1.65014">
        <ele>117</ele>
        <time>2021-10-23T12:49:30Z</time>
      </trkpt>
      <trkpt lat="47.31274" lon="-1.65008">
        <ele>118</ele>
        <time>2021-10-23T12:49:32Z</time>
      </trkpt>
      <trkpt lat="47.31285" lon="-1.65002">
        <ele>118</ele>
        <time>2021-10-23T12:49:34Z</time>
      </trkpt>
      <trkpt lat="47.31296" lon="-1.64996">
        <ele>118</ele>
        <time>2021-10-23T12:49:36Z</time>
      </trkpt>
      <trkpt lat="47.31306" lon="-1.64989">
        <ele>118</ele>
        <time>2021-10-23T12:49:38Z</time>
      </trkpt>
      <trkpt lat="47.31317" lon="-1.64983">
        <ele>119</ele>
        <time>2021-10-23T12:49:40Z</time>
      </trkpt>
      <trkpt lat="47.31328" lon="-1.64976">
        <ele>119</ele>
        <time>2021-10-23T12:49:42Z</time>
      </trkpt>
      <trkpt lat="47.31338" lon="-1.64969">
        <ele>119</ele>
        <time>2021-10-23T12:49:44Z</time>
      </trkpt>
      <trkpt lat="47.31349" lon="-1.64963">
        <ele>119</ele>
        <time>2021-10-23T12:49:46Z</time>
      </trkpt>
      <trkpt lat="47.3136" lon="-1.64955">
        <ele>119</ele>
        <time>2021-10-23T12:49:48Z</time>
      </trkpt>
      <trkpt lat="47.31371" lon="-1.64948">
        <ele>119</ele>
        <time>2021-10-23T12:49:50Z</time>
      </trkpt>
      <trkpt lat="47.31381" lon="-1.64941">
        <ele>119</ele>
        <time>2021-10-23T12:49:52Z</time>
      </trkpt>
      <trkpt lat="47.31392" lon="-1.64934">
        <ele>119</ele>
        <time>2021-10-23T12:49:54Z</time>
      </trkpt>
      <trkpt lat="47.31403" lon="-1.64926">
        <ele>119</ele>
        <time>2021-10-23T12:49:56Z</time>
      </trkpt>
      <trkpt lat="47.31414" lon="-1.64917">
        <ele>119</ele>
        <time>2021-10-23T12:49:58Z</time>
      </trkpt>
      <trkpt lat="47.31426" lon="-1.64911">
        <ele>119</ele>
        <time>2021-10-23T12:50:00Z</time>
      </trkpt>
      <trkpt lat="47.31439" lon="-1.64907">
        <ele>119</ele>
        <time>2021-10-23T12:50:02Z</time>
      </trkpt>
      <trkpt lat="47.31453" lon="-1.64906">
        <ele>120</ele>
        <time>2021-10-23T12:50:04Z</time>
      </trkpt>
      <trkpt lat="47.31468" lon="-1.64905">
        <ele>119</ele>
        <time>2021-10-23T12:50:06Z</time>
      </trkpt>
      <trkpt lat="47.31483" lon="-1.64905">
        <ele>119</ele>
        <time>2021-10-23T12:50:08Z</time>
      </trkpt>
      <trkpt lat="47.31496" lon="-1.64904">
        <ele>118</ele>
        <time>2021-10-23T12:50:10Z</time>
      </trkpt>
      <trkpt lat="47.31507" lon="-1.64901">
        <ele>118</ele>
        <time>2021-10-23T12:50:12Z</time>
      </trkpt>
      <trkpt lat="47.31518" lon="-1.64897">
        <ele>117</ele>
        <time>2021-10-23T12:50:14Z</time>
      </trkpt>
      <trkpt lat="47.3153" lon="-1.64893">
        <ele>117</ele>
        <time>2021-10-23T12:50:16Z</time>
      </trkpt>
      <trkpt lat="47.31543" lon="-1.64886">
        <ele>116</ele>
        <time>2021-10-23T12:50:18Z</time>
      </trkpt>
      <trkpt lat="47.31556" lon="-1.64877">
        <ele>116</ele>
        <time>2021-10-23T12:50:20Z</time>
      </trkpt>
      <trkpt lat="47.31568" lon="-1.64867">
        <ele>115</ele>
        <time>2021-10-23T12:50:22Z</time>
      </trkpt>
      <trkpt lat="47.31581" lon="-1.64858">
        <ele>115</ele>
        <time>2021-10-23T12:50:24Z</time>
      </trkpt>
      <trkpt lat="47.31594" lon="-1.64849">
        <ele>115</ele>
        <time>2021-10-23T12:50:26Z</time>
      </trkpt>
      <trkpt lat="47.31607" lon="-1.6484">
        <ele>114</ele>
        <time>2021-10-23T12:50:28Z</time>
      </trkpt>
      <trkpt lat="47.31619" lon="-1.64828">
        <ele>114</ele>
        <time>2021-10-23T12:50:30Z</time>
      </trkpt>
      <trkpt lat="47.31631" lon="-1.64814">
        <ele>114</ele>
        <time>2021-10-23T12:50:32Z</time>
      </trkpt>
      <trkpt lat="47.31644" lon="-1.64801">
        <ele>112</ele>
        <time>2021-10-23T12:50:34Z</time>
      </trkpt>
      <trkpt lat="47.31657" lon="-1.64786">
        <ele>112</ele>
        <time>2021-10-23T12:50:36Z</time>
      </trkpt>
      <trkpt lat="47.3167" lon="-1.64772">
        <ele>111</ele>
        <time>2021-10-23T12:50:38Z</time>
      </trkpt>
      <trkpt lat="47.31683" lon="-1.64758">
        <ele>111</ele>
        <time>2021-10-23T12:50:40Z</time>
      </trkpt>
      <trkpt lat="47.31697" lon="-1.64744">
        <ele>110</ele>
        <time>2021-10-23T12:50:42Z</time>
      </trkpt>
      <trkpt lat="47.3171" lon="-1.64731">
        <ele>109</ele>
        <time>2021-10-23T12:50:44Z</time>
      </trkpt>
      <trkpt lat="47.31724" lon="-1.64719">
        <ele>108</ele>
        <time>2021-10-23T12:50:46Z</time>
      </trkpt>
      <trkpt lat="47.31737" lon="-1.64707">
        <ele>107</ele>
        <time>2021-10-23T12:50:48Z</time>
      </trkpt>
      <trkpt lat="47.31751" lon="-1.64698">
        <ele>107</ele>
        <time>2021-10-23T12:50:50Z</time>
      </trkpt>
      <trkpt lat="47.31764" lon="-1.64689">
        <ele>107</ele>
        <time>2021-10-23T12:50:52Z</time>
      </trkpt>
      <trkpt lat="47.31778" lon="-1.64682">
        <ele>106</ele>
        <time>2021-10-23T12:50:54Z</time>
      </trkpt>
      <trkpt lat="47.31792" lon="-1.64676">
        <ele>106</ele>
        <time>2021-10-23T12:50:56Z</time>
      </trkpt>
      <trkpt lat="47.31807" lon="-1.6467">
        <ele>106</ele>
        <time>2021-10-23T12:50:58Z</time>
      </trkpt>
      <trkpt lat="47.31822" lon="-1.64665">
        <ele>106</ele>
        <time>2021-10-23T12:51:00Z</time>
      </trkpt>
      <trkpt lat="47.31837" lon="-1.6466">
        <ele>105</ele>
        <time>2021-10-23T12:51:02Z</time>
      </trkpt>
      <trkpt lat="47.31852" lon="-1.64655">
        <ele>105</ele>
        <time>2021-10-23T12:51:04Z</time>
      </trkpt>
      <trkpt lat="47.31867" lon="-1.64649">
        <ele>104</ele>
        <time>2021-10-23T12:51:06Z</time>
      </trkpt>
      <trkpt lat="47.31882" lon="-1.64645">
        <ele>103</ele>
        <time>2021-10-23T12:51:08Z</time>
      </trkpt>
      <trkpt lat="47.31897" lon="-1.64639">
        <ele>103</ele>
        <time>2021-10-23T12:51:10Z</time>
      </trkpt>
      <trkpt lat="47.31911" lon="-1.64633">
        <ele>103</ele>
        <time>2021-10-23T12:51:12Z</time>
      </trkpt>
      <trkpt lat="47.31926" lon="-1.64628">
        <ele>102</ele>
        <time>2021-10-23T12:51:14Z</time>
      </trkpt>
      <trkpt lat="47.31941" lon="-1.64622">
        <ele>101</ele>
        <time>2021-10-23T12:51:16Z</time>
      </trkpt>
      <trkpt lat="47.31956" lon="-1.64615">
        <ele>101</ele>
        <time>2021-10-23T12:51:18Z</time>
      </trkpt>
      <trkpt lat="47.31972" lon="-1.64609">
        <ele>100</ele>
        <time>2021-10-23T12:51:20Z</time>
      </trkpt>
      <trkpt lat="47.31988" lon="-1.64604">
        <ele>100</ele>
        <time>2021-10-23T12:51:22Z</time>
      </trkpt>
      <trkpt lat="47.32005" lon="-1.64599">
        <ele>99</ele>
        <time>2021-10-23T12:51:24Z</time>
      </trkpt>
      <trkpt lat="47.32021" lon="-1.64593">
        <ele>99</ele>
        <time>2021-10-23T12:51:26Z</time>
      </trkpt>
      <trkpt lat="47.32037" lon="-1.64587">
        <ele>98</ele>
        <time>2021-10-23T12:51:28Z</time>
      </trkpt>
      <trkpt lat="47.32054" lon="-1.6458">
        <ele>98</ele>
        <time>2021-10-23T12:51:30Z</time>
      </trkpt>
      <trkpt lat="47.32071" lon="-1.64574">
        <ele>97</ele>
        <time>2021-10-23T12:51:32Z</time>
      </trkpt>
      <trkpt lat="47.32088" lon="-1.64567">
        <ele>96</ele>
        <time>2021-10-23T12:51:34Z</time>
      </trkpt>
      <trkpt lat="47.32097" lon="-1.64564">
        <ele>95</ele>
        <time>2021-10-23T12:51:35Z</time>
      </trkpt>
      <trkpt lat="47.32105" lon="-1.6456">
        <ele>94</ele>
        <time>2021-10-23T12:51:36Z</time>
      </trkpt>
      <trkpt lat="47.32114" lon="-1.64557">
        <ele>94</ele>
        <time>2021-10-23T12:51:37Z</time>
      </trkpt>
      <trkpt lat="47.32124" lon="-1.64553">
        <ele>93</ele>
        <time>2021-10-23T12:51:38Z</time>
      </trkpt>
      <trkpt lat="47.32133" lon="-1.64548">
        <ele>92</ele>
        <time>2021-10-23T12:51:39Z</time>
      </trkpt>
      <trkpt lat="47.32142" lon="-1.64543">
        <ele>92</ele>
        <time>2021-10-23T12:51:40Z</time>
      </trkpt>
      <trkpt lat="47.32151" lon="-1.64537">
        <ele>92</ele>
        <time>2021-10-23T12:51:41Z</time>
      </trkpt>
      <trkpt lat="47.3216" lon="-1.64531">
        <ele>92</ele>
        <time>2021-10-23T12:51:42Z</time>
      </trkpt>
      <trkpt lat="47.32169" lon="-1.64523">
        <ele>92</ele>
        <time>2021-10-23T12:51:43Z</time>
      </trkpt>
      <trkpt lat="47.32177" lon="-1.64513">
        <ele>91</ele>
        <time>2021-10-23T12:51:44Z</time>
      </trkpt>
      <trkpt lat="47.32185" lon="-1.64501">
        <ele>90</ele>
        <time>2021-10-23T12:51:45Z</time>
      </trkpt>
      <trkpt lat="47.32191" lon="-1.64488">
        <ele>90</ele>
        <time>2021-10-23T12:51:46Z</time>
      </trkpt>
      <trkpt lat="47.32197" lon="-1.64475">
        <ele>89</ele>
        <time>2021-10-23T12:51:47Z</time>
      </trkpt>
      <trkpt lat="47.32203" lon="-1.64463">
        <ele>89</ele>
        <time>2021-10-23T12:51:48Z</time>
      </trkpt>
      <trkpt lat="47.32209" lon="-1.64451">
        <ele>88</ele>
        <time>2021-10-23T12:51:49Z</time>
      </trkpt>
      <trkpt lat="47.32215" lon="-1.6444">
        <ele>87</ele>
        <time>2021-10-23T12:51:50Z</time>
      </trkpt>
      <trkpt lat="47.32221" lon="-1.64428">
        <ele>87</ele>
        <time>2021-10-23T12:51:51Z</time>
      </trkpt>
      <trkpt lat="47.32227" lon="-1.64417">
        <ele>86</ele>
        <time>2021-10-23T12:51:52Z</time>
      </trkpt>
      <trkpt lat="47.32232" lon="-1.64404">
        <ele>85</ele>
        <time>2021-10-23T12:51:53Z</time>
      </trkpt>
      <trkpt lat="47.32236" lon="-1.64391">
        <ele>83</ele>
        <time>2021-10-23T12:51:54Z</time>
      </trkpt>
      <trkpt lat="47.32239" lon="-1.64376">
        <ele>82</ele>
        <time>2021-10-23T12:51:55Z</time>
      </trkpt>
      <trkpt lat="47.32243" lon="-1.64362">
        <ele>81</ele>
        <time>2021-10-23T12:51:56Z</time>
      </trkpt>
      <trkpt lat="47.32247" lon="-1.64347">
        <ele>80</ele>
        <time>2021-10-23T12:51:57Z</time>
      </trkpt>
      <trkpt lat="47.32249" lon="-1.64334">
        <ele>79</ele>
        <time>2021-10-23T12:51:58Z</time>
      </trkpt>
      <trkpt lat="47.32252" lon="-1.64312">
        <ele>77</ele>
        <time>2021-10-23T12:52:00Z</time>
      </trkpt>
      <trkpt lat="47.32263" lon="-1.64303">
        <ele>76</ele>
        <time>2021-10-23T12:52:02Z</time>
      </trkpt>
      <trkpt lat="47.32278" lon="-1.6431">
        <ele>75</ele>
        <time>2021-10-23T12:52:04Z</time>
      </trkpt>
      <trkpt lat="47.32293" lon="-1.64318">
        <ele>74</ele>
        <time>2021-10-23T12:52:06Z</time>
      </trkpt>
      <trkpt lat="47.32307" lon="-1.64325">
        <ele>74</ele>
        <time>2021-10-23T12:52:08Z</time>
      </trkpt>
      <trkpt lat="47.32322" lon="-1.64333">
        <ele>73</ele>
        <time>2021-10-23T12:52:10Z</time>
      </trkpt>
      <trkpt lat="47.32338" lon="-1.64339">
        <ele>73</ele>
        <time>2021-10-23T12:52:12Z</time>
      </trkpt>
      <trkpt lat="47.32355" lon="-1.64342">
        <ele>72</ele>
        <time>2021-10-23T12:52:14Z</time>
      </trkpt>
      <trkpt lat="47.32371" lon="-1.64345">
        <ele>71</ele>
        <time>2021-10-23T12:52:16Z</time>
      </trkpt>
      <trkpt lat="47.32387" lon="-1.64348">
        <ele>72</ele>
        <time>2021-10-23T12:52:18Z</time>
      </trkpt>
      <trkpt lat="47.32402" lon="-1.6435">
        <ele>72</ele>
        <time>2021-10-23T12:52:20Z</time>
      </trkpt>
      <trkpt lat="47.32416" lon="-1.64353">
        <ele>72</ele>
        <time>2021-10-23T12:52:22Z</time>
      </trkpt>
      <trkpt lat="47.32431" lon="-1.64355">
        <ele>72</ele>
        <time>2021-10-23T12:52:24Z</time>
      </trkpt>
      <trkpt lat="47.32446" lon="-1.64358">
        <ele>72</ele>
        <time>2021-10-23T12:52:26Z</time>
      </trkpt>
      <trkpt lat="47.32459" lon="-1.64365">
        <ele>72</ele>
        <time>2021-10-23T12:52:28Z</time>
      </trkpt>
      <trkpt lat="47.32472" lon="-1.64373">
        <ele>72</ele>
        <time>2021-10-23T12:52:30Z</time>
      </trkpt>
      <trkpt lat="47.32485" lon="-1.64382">
        <ele>73</ele>
        <time>2021-10-23T12:52:32Z</time>
      </trkpt>
      <trkpt lat="47.32497" lon="-1.64389">
        <ele>73</ele>
        <time>2021-10-23T12:52:34Z</time>
      </trkpt>
      <trkpt lat="47.3251" lon="-1.64394">
        <ele>73</ele>
        <time>2021-10-23T12:52:36Z</time>
      </trkpt>
      <trkpt lat="47.32522" lon="-1.64396">
        <ele>73</ele>
        <time>2021-10-23T12:52:38Z</time>
      </trkpt>
      <trkpt lat="47.32533" lon="-1.64396">
        <ele>74</ele>
        <time>2021-10-23T12:52:40Z</time>
      </trkpt>
      <trkpt lat="47.32544" lon="-1.64394">
        <ele>74</ele>
        <time>2021-10-23T12:52:42Z</time>
      </trkpt>
      <trkpt lat="47.32555" lon="-1.64391">
        <ele>74</ele>
        <time>2021-10-23T12:52:44Z</time>
      </trkpt>
      <trkpt lat="47.32565" lon="-1.64388">
        <ele>74</ele>
        <time>2021-10-23T12:52:46Z</time>
      </trkpt>
      <trkpt lat="47.32575" lon="-1.64386">
        <ele>75</ele>
        <time>2021-10-23T12:52:48Z</time>
      </trkpt>
      <trkpt lat="47.32584" lon="-1.64383">
        <ele>75</ele>
        <time>2021-10-23T12:52:50Z</time>
      </trkpt>
      <trkpt lat="47.32593" lon="-1.64381">
        <ele>76</ele>
        <time>2021-10-23T12:52:52Z</time>
      </trkpt>
      <trkpt lat="47.32602" lon="-1.64379">
        <ele>77</ele>
        <time>2021-10-23T12:52:54Z</time>
      </trkpt>
      <trkpt lat="47.32615" lon="-1.64375">
        <ele>77</ele>
        <time>2021-10-23T12:52:57Z</time>
      </trkpt>
      <trkpt lat="47.32628" lon="-1.64371">
        <ele>77</ele>
        <time>2021-10-23T12:53:00Z</time>
      </trkpt>
      <trkpt lat="47.32641" lon="-1.64367">
        <ele>78</ele>
        <time>2021-10-23T12:53:03Z</time>
      </trkpt>
      <trkpt lat="47.32654" lon="-1.64362">
        <ele>77</ele>
        <time>2021-10-23T12:53:06Z</time>
      </trkpt>
      <trkpt lat="47.32663" lon="-1.6436">
        <ele>77</ele>
        <time>2021-10-23T12:53:08Z</time>
      </trkpt>
      <trkpt lat="47.32673" lon="-1.64358">
        <ele>78</ele>
        <time>2021-10-23T12:53:10Z</time>
      </trkpt>
      <trkpt lat="47.32682" lon="-1.64355">
        <ele>78</ele>
        <time>2021-10-23T12:53:12Z</time>
      </trkpt>
      <trkpt lat="47.32694" lon="-1.6435">
        <ele>78</ele>
        <time>2021-10-23T12:53:15Z</time>
      </trkpt>
      <trkpt lat="47.32706" lon="-1.64346">
        <ele>79</ele>
        <time>2021-10-23T12:53:18Z</time>
      </trkpt>
      <trkpt lat="47.32717" lon="-1.64343">
        <ele>80</ele>
        <time>2021-10-23T12:53:21Z</time>
      </trkpt>
      <trkpt lat="47.32728" lon="-1.6434">
        <ele>81</ele>
        <time>2021-10-23T12:53:24Z</time>
      </trkpt>
      <trkpt lat="47.3274" lon="-1.64336">
        <ele>81</ele>
        <time>2021-10-23T12:53:27Z</time>
      </trkpt>
      <trkpt lat="47.32752" lon="-1.64333">
        <ele>82</ele>
        <time>2021-10-23T12:53:30Z</time>
      </trkpt>
      <trkpt lat="47.32764" lon="-1.64331">
        <ele>84</ele>
        <time>2021-10-23T12:53:33Z</time>
      </trkpt>
      <trkpt lat="47.32776" lon="-1.6433">
        <ele>85</ele>
        <time>2021-10-23T12:53:36Z</time>
      </trkpt>
      <trkpt lat="47.32789" lon="-1.64328">
        <ele>85</ele>
        <time>2021-10-23T12:53:39Z</time>
      </trkpt>
      <trkpt lat="47.32801" lon="-1.64326">
        <ele>85</ele>
        <time>2021-10-23T12:53:42Z</time>
      </trkpt>
      <trkpt lat="47.32814" lon="-1.64324">
        <ele>86</ele>
        <time>2021-10-23T12:53:45Z</time>
      </trkpt>
      <trkpt lat="47.32827" lon="-1.64322">
        <ele>87</ele>
        <time>2021-10-23T12:53:48Z</time>
      </trkpt>
      <trkpt lat="47.32838" lon="-1.6432">
        <ele>89</ele>
        <time>2021-10-23T12:53:51Z</time>
      </trkpt>
      <trkpt lat="47.3285" lon="-1.64318">
        <ele>88</ele>
        <time>2021-10-23T12:53:54Z</time>
      </trkpt>
      <trkpt lat="47.32862" lon="-1.64316">
        <ele>89</ele>
        <time>2021-10-23T12:53:57Z</time>
      </trkpt>
      <trkpt lat="47.32873" lon="-1.64312">
        <ele>90</ele>
        <time>2021-10-23T12:54:00Z</time>
      </trkpt>
      <trkpt lat="47.32885" lon="-1.64309">
        <ele>91</ele>
        <time>2021-10-23T12:54:03Z</time>
      </trkpt>
      <trkpt lat="47.32897" lon="-1.64306">
        <ele>92</ele>
        <time>2021-10-23T12:54:06Z</time>
      </trkpt>
      <trkpt lat="47.3291" lon="-1.64304">
        <ele>93</ele>
        <time>2021-10-23T12:54:09Z</time>
      </trkpt>
      <trkpt lat="47.32923" lon="-1.64304">
        <ele>93</ele>
        <time>2021-10-23T12:54:12Z</time>
      </trkpt>
      <trkpt lat="47.32935" lon="-1.64302">
        <ele>94</ele>
        <time>2021-10-23T12:54:15Z</time>
      </trkpt>
      <trkpt lat="47.32947" lon="-1.64303">
        <ele>94</ele>
        <time>2021-10-23T12:54:18Z</time>
      </trkpt>
      <trkpt lat="47.32959" lon="-1.64303">
        <ele>94</ele>
        <time>2021-10-23T12:54:21Z</time>
      </trkpt>
      <trkpt lat="47.3297" lon="-1.64304">
        <ele>95</ele>
        <time>2021-10-23T12:54:24Z</time>
      </trkpt>
      <trkpt lat="47.32981" lon="-1.64306">
        <ele>96</ele>
        <time>2021-10-23T12:54:27Z</time>
      </trkpt>
      <trkpt lat="47.32993" lon="-1.64309">
        <ele>96</ele>
        <time>2021-10-23T12:54:30Z</time>
      </trkpt>
      <trkpt lat="47.33004" lon="-1.64312">
        <ele>97</ele>
        <time>2021-10-23T12:54:33Z</time>
      </trkpt>
      <trkpt lat="47.33015" lon="-1.64315">
        <ele>98</ele>
        <time>2021-10-23T12:54:36Z</time>
      </trkpt>
      <trkpt lat="47.33025" lon="-1.64318">
        <ele>98</ele>
        <time>2021-10-23T12:54:39Z</time>
      </trkpt>
      <trkpt lat="47.33038" lon="-1.64322">
        <ele>99</ele>
        <time>2021-10-23T12:54:43Z</time>
      </trkpt>
      <trkpt lat="47.33049" lon="-1.64327">
        <ele>99</ele>
        <time>2021-10-23T12:54:46Z</time>
      </trkpt>
      <trkpt lat="47.33059" lon="-1.64331">
        <ele>101</ele>
        <time>2021-10-23T12:54:49Z</time>
      </trkpt>
      <trkpt lat="47.3307" lon="-1.64335">
        <ele>102</ele>
        <time>2021-10-23T12:54:52Z</time>
      </trkpt>
      <trkpt lat="47.33081" lon="-1.64339">
        <ele>103</ele>
        <time>2021-10-23T12:54:55Z</time>
      </trkpt>
      <trkpt lat="47.33091" lon="-1.64341">
        <ele>103</ele>
        <time>2021-10-23T12:54:58Z</time>
      </trkpt>
      <trkpt lat="47.331" lon="-1.64343">
        <ele>104</ele>
        <time>2021-10-23T12:55:01Z</time>
      </trkpt>
      <trkpt lat="47.33112" lon="-1.64342">
        <ele>104</ele>
        <time>2021-10-23T12:55:07Z</time>
      </trkpt>
      <trkpt lat="47.33125" lon="-1.64342">
        <ele>105</ele>
        <time>2021-10-23T12:55:10Z</time>
      </trkpt>
      <trkpt lat="47.33137" lon="-1.64339">
        <ele>105</ele>
        <time>2021-10-23T12:55:13Z</time>
      </trkpt>
      <trkpt lat="47.33148" lon="-1.64336">
        <ele>106</ele>
        <time>2021-10-23T12:55:16Z</time>
      </trkpt>
      <trkpt lat="47.3316" lon="-1.64332">
        <ele>107</ele>
        <time>2021-10-23T12:55:19Z</time>
      </trkpt>
      <trkpt lat="47.33171" lon="-1.64329">
        <ele>107</ele>
        <time>2021-10-23T12:55:22Z</time>
      </trkpt>
      <trkpt lat="47.33183" lon="-1.64327">
        <ele>107</ele>
        <time>2021-10-23T12:55:25Z</time>
      </trkpt>
      <trkpt lat="47.33194" lon="-1.64323">
        <ele>107</ele>
        <time>2021-10-23T12:55:28Z</time>
      </trkpt>
      <trkpt lat="47.33205" lon="-1.64319">
        <ele>108</ele>
        <time>2021-10-23T12:55:31Z</time>
      </trkpt>
      <trkpt lat="47.33216" lon="-1.64315">
        <ele>108</ele>
        <time>2021-10-23T12:55:34Z</time>
      </trkpt>
      <trkpt lat="47.33229" lon="-1.64311">
        <ele>109</ele>
        <time>2021-10-23T12:55:37Z</time>
      </trkpt>
      <trkpt lat="47.33241" lon="-1.64306">
        <ele>110</ele>
        <time>2021-10-23T12:55:40Z</time>
      </trkpt>
      <trkpt lat="47.33253" lon="-1.64299">
        <ele>110</ele>
        <time>2021-10-23T12:55:43Z</time>
      </trkpt>
      <trkpt lat="47.33264" lon="-1.64289">
        <ele>110</ele>
        <time>2021-10-23T12:55:46Z</time>
      </trkpt>
      <trkpt lat="47.33275" lon="-1.64277">
        <ele>111</ele>
        <time>2021-10-23T12:55:49Z</time>
      </trkpt>
      <trkpt lat="47.33282" lon="-1.64269">
        <ele>111</ele>
        <time>2021-10-23T12:55:51Z</time>
      </trkpt>
      <trkpt lat="47.3329" lon="-1.6426">
        <ele>111</ele>
        <time>2021-10-23T12:55:53Z</time>
      </trkpt>
      <trkpt lat="47.33297" lon="-1.64251">
        <ele>111</ele>
        <time>2021-10-23T12:55:55Z</time>
      </trkpt>
      <trkpt lat="47.33306" lon="-1.64241">
        <ele>111</ele>
        <time>2021-10-23T12:55:57Z</time>
      </trkpt>
      <trkpt lat="47.33314" lon="-1.6423">
        <ele>111</ele>
        <time>2021-10-23T12:55:59Z</time>
      </trkpt>
      <trkpt lat="47.33322" lon="-1.6422">
        <ele>111</ele>
        <time>2021-10-23T12:56:01Z</time>
      </trkpt>
      <trkpt lat="47.33331" lon="-1.6421">
        <ele>112</ele>
        <time>2021-10-23T12:56:03Z</time>
      </trkpt>
      <trkpt lat="47.33339" lon="-1.642">
        <ele>112</ele>
        <time>2021-10-23T12:56:05Z</time>
      </trkpt>
      <trkpt lat="47.33348" lon="-1.64189">
        <ele>112</ele>
        <time>2021-10-23T12:56:07Z</time>
      </trkpt>
      <trkpt lat="47.33356" lon="-1.64179">
        <ele>113</ele>
        <time>2021-10-23T12:56:09Z</time>
      </trkpt>
      <trkpt lat="47.33365" lon="-1.64169">
        <ele>113</ele>
        <time>2021-10-23T12:56:11Z</time>
      </trkpt>
      <trkpt lat="47.33374" lon="-1.64159">
        <ele>113</ele>
        <time>2021-10-23T12:56:13Z</time>
      </trkpt>
      <trkpt lat="47.33382" lon="-1.64149">
        <ele>113</ele>
        <time>2021-10-23T12:56:15Z</time>
      </trkpt>
      <trkpt lat="47.33391" lon="-1.64138">
        <ele>113</ele>
        <time>2021-10-23T12:56:17Z</time>
      </trkpt>
      <trkpt lat="47.334" lon="-1.64127">
        <ele>113</ele>
        <time>2021-10-23T12:56:19Z</time>
      </trkpt>
      <trkpt lat="47.33409" lon="-1.64117">
        <ele>114</ele>
        <time>2021-10-23T12:56:21Z</time>
      </trkpt>
      <trkpt lat="47.33418" lon="-1.64106">
        <ele>114</ele>
        <time>2021-10-23T12:56:23Z</time>
      </trkpt>
      <trkpt lat="47.33427" lon="-1.64096">
        <ele>114</ele>
        <time>2021-10-23T12:56:25Z</time>
      </trkpt>
      <trkpt lat="47.33437" lon="-1.64086">
        <ele>114</ele>
        <time>2021-10-23T12:56:27Z</time>
      </trkpt>
      <trkpt lat="47.33446" lon="-1.64076">
        <ele>113</ele>
        <time>2021-10-23T12:56:29Z</time>
      </trkpt>
      <trkpt lat="47.33455" lon="-1.64066">
        <ele>113</ele>
        <time>2021-10-23T12:56:31Z</time>
      </trkpt>
      <trkpt lat="47.33464" lon="-1.64055">
        <ele>113</ele>
        <time>2021-10-23T12:56:33Z</time>
      </trkpt>
      <trkpt lat="47.33474" lon="-1.64044">
        <ele>113</ele>
        <time>2021-10-23T12:56:35Z</time>
      </trkpt>
      <trkpt lat="47.33483" lon="-1.64034">
        <ele>112</ele>
        <time>2021-10-23T12:56:37Z</time>
      </trkpt>
      <trkpt lat="47.33492" lon="-1.64023">
        <ele>112</ele>
        <time>2021-10-23T12:56:39Z</time>
      </trkpt>
      <trkpt lat="47.33501" lon="-1.64013">
        <ele>113</ele>
        <time>2021-10-23T12:56:41Z</time>
      </trkpt>
      <trkpt lat="47.3351" lon="-1.64002">
        <ele>112</ele>
        <time>2021-10-23T12:56:43Z</time>
      </trkpt>
      <trkpt lat="47.33519" lon="-1.63991">
        <ele>112</ele>
        <time>2021-10-23T12:56:45Z</time>
      </trkpt>
      <trkpt lat="47.33528" lon="-1.63981">
        <ele>112</ele>
        <time>2021-10-23T12:56:47Z</time>
      </trkpt>
      <trkpt lat="47.33538" lon="-1.6397">
        <ele>112</ele>
        <time>2021-10-23T12:56:49Z</time>
      </trkpt>
      <trkpt lat="47.33547" lon="-1.63959">
        <ele>112</ele>
        <time>2021-10-23T12:56:51Z</time>
      </trkpt>
      <trkpt lat="47.33556" lon="-1.63948">
        <ele>112</ele>
        <time>2021-10-23T12:56:53Z</time>
      </trkpt>
      <trkpt lat="47.33565" lon="-1.63937">
        <ele>112</ele>
        <time>2021-10-23T12:56:55Z</time>
      </trkpt>
      <trkpt lat="47.33574" lon="-1.63926">
        <ele>112</ele>
        <time>2021-10-23T12:56:57Z</time>
      </trkpt>
      <trkpt lat="47.33583" lon="-1.63915">
        <ele>112</ele>
        <time>2021-10-23T12:56:59Z</time>
      </trkpt>
      <trkpt lat="47.33593" lon="-1.63904">
        <ele>112</ele>
        <time>2021-10-23T12:57:01Z</time>
      </trkpt>
      <trkpt lat="47.33602" lon="-1.63894">
        <ele>112</ele>
        <time>2021-10-23T12:57:03Z</time>
      </trkpt>
      <trkpt lat="47.33612" lon="-1.63883">
        <ele>112</ele>
        <time>2021-10-23T12:57:05Z</time>
      </trkpt>
      <trkpt lat="47.33621" lon="-1.63871">
        <ele>112</ele>
        <time>2021-10-23T12:57:07Z</time>
      </trkpt>
      <trkpt lat="47.33631" lon="-1.63859">
        <ele>112</ele>
        <time>2021-10-23T12:57:09Z</time>
      </trkpt>
      <trkpt lat="47.33641" lon="-1.63847">
        <ele>113</ele>
        <time>2021-10-23T12:57:11Z</time>
      </trkpt>
      <trkpt lat="47.33651" lon="-1.63834">
        <ele>113</ele>
        <time>2021-10-23T12:57:13Z</time>
      </trkpt>
      <trkpt lat="47.33661" lon="-1.63823">
        <ele>113</ele>
        <time>2021-10-23T12:57:15Z</time>
      </trkpt>
      <trkpt lat="47.33672" lon="-1.63811">
        <ele>112</ele>
        <time>2021-10-23T12:57:17Z</time>
      </trkpt>
      <trkpt lat="47.33682" lon="-1.63799">
        <ele>112</ele>
        <time>2021-10-23T12:57:19Z</time>
      </trkpt>
      <trkpt lat="47.33692" lon="-1.63787">
        <ele>113</ele>
        <time>2021-10-23T12:57:21Z</time>
      </trkpt>
      <trkpt lat="47.33702" lon="-1.63775">
        <ele>112</ele>
        <time>2021-10-23T12:57:23Z</time>
      </trkpt>
      <trkpt lat="47.33712" lon="-1.63763">
        <ele>112</ele>
        <time>2021-10-23T12:57:25Z</time>
      </trkpt>
      <trkpt lat="47.33721" lon="-1.63752">
        <ele>112</ele>
        <time>2021-10-23T12:57:27Z</time>
      </trkpt>
      <trkpt lat="47.33731" lon="-1.6374">
        <ele>113</ele>
        <time>2021-10-23T12:57:29Z</time>
      </trkpt>
      <trkpt lat="47.33741" lon="-1.63728">
        <ele>112</ele>
        <time>2021-10-23T12:57:31Z</time>
      </trkpt>
      <trkpt lat="47.33751" lon="-1.63715">
        <ele>112</ele>
        <time>2021-10-23T12:57:33Z</time>
      </trkpt>
      <trkpt lat="47.33761" lon="-1.63703">
        <ele>113</ele>
        <time>2021-10-23T12:57:35Z</time>
      </trkpt>
      <trkpt lat="47.3377" lon="-1.6369">
        <ele>113</ele>
        <time>2021-10-23T12:57:37Z</time>
      </trkpt>
      <trkpt lat="47.3378" lon="-1.63678">
        <ele>113</ele>
        <time>2021-10-23T12:57:39Z</time>
      </trkpt>
      <trkpt lat="47.33791" lon="-1.63666">
        <ele>114</ele>
        <time>2021-10-23T12:57:41Z</time>
      </trkpt>
      <trkpt lat="47.33801" lon="-1.63654">
        <ele>114</ele>
        <time>2021-10-23T12:57:43Z</time>
      </trkpt>
      <trkpt lat="47.33812" lon="-1.63642">
        <ele>114</ele>
        <time>2021-10-23T12:57:45Z</time>
      </trkpt>
      <trkpt lat="47.33822" lon="-1.63631">
        <ele>114</ele>
        <time>2021-10-23T12:57:47Z</time>
      </trkpt>
      <trkpt lat="47.33832" lon="-1.63621">
        <ele>114</ele>
        <time>2021-10-23T12:57:49Z</time>
      </trkpt>
      <trkpt lat="47.33841" lon="-1.63612">
        <ele>113</ele>
        <time>2021-10-23T12:57:51Z</time>
      </trkpt>
      <trkpt lat="47.3385" lon="-1.63603">
        <ele>113</ele>
        <time>2021-10-23T12:57:53Z</time>
      </trkpt>
      <trkpt lat="47.33857" lon="-1.63594">
        <ele>113</ele>
        <time>2021-10-23T12:57:55Z</time>
      </trkpt>
      <trkpt lat="47.33867" lon="-1.63583">
        <ele>113</ele>
        <time>2021-10-23T12:57:58Z</time>
      </trkpt>
      <trkpt lat="47.33876" lon="-1.63573">
        <ele>113</ele>
        <time>2021-10-23T12:58:00Z</time>
      </trkpt>
      <trkpt lat="47.33886" lon="-1.63562">
        <ele>113</ele>
        <time>2021-10-23T12:58:02Z</time>
      </trkpt>
      <trkpt lat="47.33896" lon="-1.6355">
        <ele>113</ele>
        <time>2021-10-23T12:58:04Z</time>
      </trkpt>
      <trkpt lat="47.33906" lon="-1.63539">
        <ele>112</ele>
        <time>2021-10-23T12:58:06Z</time>
      </trkpt>
      <trkpt lat="47.33916" lon="-1.63528">
        <ele>113</ele>
        <time>2021-10-23T12:58:08Z</time>
      </trkpt>
      <trkpt lat="47.33927" lon="-1.63517">
        <ele>113</ele>
        <time>2021-10-23T12:58:10Z</time>
      </trkpt>
      <trkpt lat="47.33938" lon="-1.6351">
        <ele>113</ele>
        <time>2021-10-23T12:58:12Z</time>
      </trkpt>
      <trkpt lat="47.33949" lon="-1.63502">
        <ele>114</ele>
        <time>2021-10-23T12:58:14Z</time>
      </trkpt>
      <trkpt lat="47.33959" lon="-1.63495">
        <ele>114</ele>
        <time>2021-10-23T12:58:16Z</time>
      </trkpt>
      <trkpt lat="47.33971" lon="-1.63488">
        <ele>113</ele>
        <time>2021-10-23T12:58:18Z</time>
      </trkpt>
      <trkpt lat="47.33984" lon="-1.6348">
        <ele>113</ele>
        <time>2021-10-23T12:58:20Z</time>
      </trkpt>
      <trkpt lat="47.33996" lon="-1.63474">
        <ele>113</ele>
        <time>2021-10-23T12:58:22Z</time>
      </trkpt>
      <trkpt lat="47.34008" lon="-1.63467">
        <ele>113</ele>
        <time>2021-10-23T12:58:24Z</time>
      </trkpt>
      <trkpt lat="47.3402" lon="-1.6346">
        <ele>113</ele>
        <time>2021-10-23T12:58:26Z</time>
      </trkpt>
      <trkpt lat="47.34033" lon="-1.63453">
        <ele>112</ele>
        <time>2021-10-23T12:58:28Z</time>
      </trkpt>
      <trkpt lat="47.34045" lon="-1.63446">
        <ele>112</ele>
        <time>2021-10-23T12:58:30Z</time>
      </trkpt>
      <trkpt lat="47.34056" lon="-1.63439">
        <ele>112</ele>
        <time>2021-10-23T12:58:32Z</time>
      </trkpt>
      <trkpt lat="47.34069" lon="-1.63433">
        <ele>112</ele>
        <time>2021-10-23T12:58:34Z</time>
      </trkpt>
      <trkpt lat="47.3408" lon="-1.63426">
        <ele>112</ele>
        <time>2021-10-23T12:58:36Z</time>
      </trkpt>
      <trkpt lat="47.34092" lon="-1.63419">
        <ele>113</ele>
        <time>2021-10-23T12:58:38Z</time>
      </trkpt>
      <trkpt lat="47.34103" lon="-1.63411">
        <ele>113</ele>
        <time>2021-10-23T12:58:40Z</time>
      </trkpt>
      <trkpt lat="47.34115" lon="-1.63404">
        <ele>114</ele>
        <time>2021-10-23T12:58:42Z</time>
      </trkpt>
      <trkpt lat="47.34126" lon="-1.63397">
        <ele>114</ele>
        <time>2021-10-23T12:58:44Z</time>
      </trkpt>
      <trkpt lat="47.34137" lon="-1.63389">
        <ele>114</ele>
        <time>2021-10-23T12:58:46Z</time>
      </trkpt>
      <trkpt lat="47.34149" lon="-1.63381">
        <ele>114</ele>
        <time>2021-10-23T12:58:48Z</time>
      </trkpt>
      <trkpt lat="47.34161" lon="-1.63372">
        <ele>113</ele>
        <time>2021-10-23T12:58:50Z</time>
      </trkpt>
      <trkpt lat="47.34172" lon="-1.63362">
        <ele>113</ele>
        <time>2021-10-23T12:58:52Z</time>
      </trkpt>
      <trkpt lat="47.34183" lon="-1.63352">
        <ele>112</ele>
        <time>2021-10-23T12:58:54Z</time>
      </trkpt>
      <trkpt lat="47.34194" lon="-1.63341">
        <ele>112</ele>
        <time>2021-10-23T12:58:56Z</time>
      </trkpt>
      <trkpt lat="47.34204" lon="-1.63329">
        <ele>112</ele>
        <time>2021-10-23T12:58:58Z</time>
      </trkpt>
      <trkpt lat="47.34215" lon="-1.63318">
        <ele>112</ele>
        <time>2021-10-23T12:59:00Z</time>
      </trkpt>
      <trkpt lat="47.34225" lon="-1.63305">
        <ele>111</ele>
        <time>2021-10-23T12:59:02Z</time>
      </trkpt>
      <trkpt lat="47.34234" lon="-1.6329">
        <ele>111</ele>
        <time>2021-10-23T12:59:04Z</time>
      </trkpt>
      <trkpt lat="47.34243" lon="-1.63274">
        <ele>110</ele>
        <time>2021-10-23T12:59:06Z</time>
      </trkpt>
      <trkpt lat="47.3425" lon="-1.63258">
        <ele>109</ele>
        <time>2021-10-23T12:59:08Z</time>
      </trkpt>
      <trkpt lat="47.34256" lon="-1.6324">
        <ele>109</ele>
        <time>2021-10-23T12:59:10Z</time>
      </trkpt>
      <trkpt lat="47.34263" lon="-1.63222">
        <ele>109</ele>
        <time>2021-10-23T12:59:12Z</time>
      </trkpt>
      <trkpt lat="47.3427" lon="-1.63204">
        <ele>109</ele>
        <time>2021-10-23T12:59:14Z</time>
      </trkpt>
      <trkpt lat="47.34277" lon="-1.63187">
        <ele>108</ele>
        <time>2021-10-23T12:59:16Z</time>
      </trkpt>
      <trkpt lat="47.34285" lon="-1.6317">
        <ele>107</ele>
        <time>2021-10-23T12:59:18Z</time>
      </trkpt>
      <trkpt lat="47.34296" lon="-1.63157">
        <ele>107</ele>
        <time>2021-10-23T12:59:20Z</time>
      </trkpt>
      <trkpt lat="47.34306" lon="-1.63143">
        <ele>107</ele>
        <time>2021-10-23T12:59:22Z</time>
      </trkpt>
      <trkpt lat="47.34318" lon="-1.6313">
        <ele>106</ele>
        <time>2021-10-23T12:59:24Z</time>
      </trkpt>
      <trkpt lat="47.3433" lon="-1.63118">
        <ele>106</ele>
        <time>2021-10-23T12:59:26Z</time>
      </trkpt>
      <trkpt lat="47.34342" lon="-1.63105">
        <ele>106</ele>
        <time>2021-10-23T12:59:28Z</time>
      </trkpt>
      <trkpt lat="47.34354" lon="-1.63093">
        <ele>106</ele>
        <time>2021-10-23T12:59:30Z</time>
      </trkpt>
      <trkpt lat="47.34366" lon="-1.63082">
        <ele>105</ele>
        <time>2021-10-23T12:59:32Z</time>
      </trkpt>
      <trkpt lat="47.34377" lon="-1.6307">
        <ele>105</ele>
        <time>2021-10-23T12:59:34Z</time>
      </trkpt>
      <trkpt lat="47.34389" lon="-1.63057">
        <ele>105</ele>
        <time>2021-10-23T12:59:36Z</time>
      </trkpt>
      <trkpt lat="47.344" lon="-1.63046">
        <ele>105</ele>
        <time>2021-10-23T12:59:38Z</time>
      </trkpt>
      <trkpt lat="47.34411" lon="-1.63034">
        <ele>105</ele>
        <time>2021-10-23T12:59:40Z</time>
      </trkpt>
      <trkpt lat="47.34422" lon="-1.63022">
        <ele>105</ele>
        <time>2021-10-23T12:59:42Z</time>
      </trkpt>
      <trkpt lat="47.34433" lon="-1.63011">
        <ele>105</ele>
        <time>2021-10-23T12:59:44Z</time>
      </trkpt>
      <trkpt lat="47.34443" lon="-1.63">
        <ele>105</ele>
        <time>2021-10-23T12:59:46Z</time>
      </trkpt>
      <trkpt lat="47.34453" lon="-1.62989">
        <ele>105</ele>
        <time>2021-10-23T12:59:48Z</time>
      </trkpt>
      <trkpt lat="47.34463" lon="-1.62978">
        <ele>106</ele>
        <time>2021-10-23T12:59:50Z</time>
      </trkpt>
      <trkpt lat="47.34474" lon="-1.62967">
        <ele>105</ele>
        <time>2021-10-23T12:59:52Z</time>
      </trkpt>
      <trkpt lat="47.34484" lon="-1.62957">
        <ele>105</ele>
        <time>2021-10-23T12:59:54Z</time>
      </trkpt>
      <trkpt lat="47.34494" lon="-1.62946">
        <ele>105</ele>
        <time>2021-10-23T12:59:56Z</time>
      </trkpt>
      <trkpt lat="47.34505" lon="-1.62935">
        <ele>105</ele>
        <time>2021-10-23T12:59:58Z</time>
      </trkpt>
      <trkpt lat="47.34515" lon="-1.62925">
        <ele>105</ele>
        <time>2021-10-23T13:00:00Z</time>
      </trkpt>
      <trkpt lat="47.34525" lon="-1.62913">
        <ele>105</ele>
        <time>2021-10-23T13:00:02Z</time>
      </trkpt>
      <trkpt lat="47.34535" lon="-1.62904">
        <ele>105</ele>
        <time>2021-10-23T13:00:04Z</time>
      </trkpt>
      <trkpt lat="47.34546" lon="-1.62894">
        <ele>105</ele>
        <time>2021-10-23T13:00:06Z</time>
      </trkpt>
      <trkpt lat="47.34556" lon="-1.62883">
        <ele>105</ele>
        <time>2021-10-23T13:00:08Z</time>
      </trkpt>
      <trkpt lat="47.34566" lon="-1.62872">
        <ele>105</ele>
        <time>2021-10-23T13:00:10Z</time>
      </trkpt>
      <trkpt lat="47.34576" lon="-1.62861">
        <ele>104</ele>
        <time>2021-10-23T13:00:12Z</time>
      </trkpt>
      <trkpt lat="47.34586" lon="-1.6285">
        <ele>105</ele>
        <time>2021-10-23T13:00:14Z</time>
      </trkpt>
      <trkpt lat="47.34596" lon="-1.62839">
        <ele>105</ele>
        <time>2021-10-23T13:00:16Z</time>
      </trkpt>
      <trkpt lat="47.34605" lon="-1.62828">
        <ele>105</ele>
        <time>2021-10-23T13:00:18Z</time>
      </trkpt>
      <trkpt lat="47.34614" lon="-1.62816">
        <ele>105</ele>
        <time>2021-10-23T13:00:20Z</time>
      </trkpt>
      <trkpt lat="47.34624" lon="-1.62805">
        <ele>105</ele>
        <time>2021-10-23T13:00:22Z</time>
      </trkpt>
      <trkpt lat="47.34633" lon="-1.62792">
        <ele>105</ele>
        <time>2021-10-23T13:00:24Z</time>
      </trkpt>
      <trkpt lat="47.34643" lon="-1.6278">
        <ele>106</ele>
        <time>2021-10-23T13:00:26Z</time>
      </trkpt>
      <trkpt lat="47.34652" lon="-1.62767">
        <ele>106</ele>
        <time>2021-10-23T13:00:28Z</time>
      </trkpt>
      <trkpt lat="47.3466" lon="-1.62752">
        <ele>105</ele>
        <time>2021-10-23T13:00:30Z</time>
      </trkpt>
      <trkpt lat="47.34668" lon="-1.62738">
        <ele>105</ele>
        <time>2021-10-23T13:00:32Z</time>
      </trkpt>
      <trkpt lat="47.34675" lon="-1.62723">
        <ele>105</ele>
        <time>2021-10-23T13:00:34Z</time>
      </trkpt>
      <trkpt lat="47.34682" lon="-1.62707">
        <ele>104</ele>
        <time>2021-10-23T13:00:36Z</time>
      </trkpt>
      <trkpt lat="47.34688" lon="-1.62691">
        <ele>104</ele>
        <time>2021-10-23T13:00:38Z</time>
      </trkpt>
      <trkpt lat="47.34695" lon="-1.62675">
        <ele>104</ele>
        <time>2021-10-23T13:00:40Z</time>
      </trkpt>
      <trkpt lat="47.34701" lon="-1.62659">
        <ele>104</ele>
        <time>2021-10-23T13:00:42Z</time>
      </trkpt>
      <trkpt lat="47.34707" lon="-1.62645">
        <ele>104</ele>
        <time>2021-10-23T13:00:44Z</time>
      </trkpt>
      <trkpt lat="47.34713" lon="-1.6263">
        <ele>103</ele>
        <time>2021-10-23T13:00:46Z</time>
      </trkpt>
      <trkpt lat="47.34718" lon="-1.62616">
        <ele>104</ele>
        <time>2021-10-23T13:00:48Z</time>
      </trkpt>
      <trkpt lat="47.34723" lon="-1.62604">
        <ele>104</ele>
        <time>2021-10-23T13:00:50Z</time>
      </trkpt>
      <trkpt lat="47.34728" lon="-1.62589">
        <ele>104</ele>
        <time>2021-10-23T13:00:53Z</time>
      </trkpt>
      <trkpt lat="47.34733" lon="-1.62572">
        <ele>104</ele>
        <time>2021-10-23T13:00:57Z</time>
      </trkpt>
      <trkpt lat="47.34739" lon="-1.62559">
        <ele>103</ele>
        <time>2021-10-23T13:00:59Z</time>
      </trkpt>
      <trkpt lat="47.34746" lon="-1.62543">
        <ele>103</ele>
        <time>2021-10-23T13:01:01Z</time>
      </trkpt>
      <trkpt lat="47.34753" lon="-1.62526">
        <ele>103</ele>
        <time>2021-10-23T13:01:03Z</time>
      </trkpt>
      <trkpt lat="47.34759" lon="-1.6251">
        <ele>103</ele>
        <time>2021-10-23T13:01:05Z</time>
      </trkpt>
      <trkpt lat="47.34765" lon="-1.62494">
        <ele>103</ele>
        <time>2021-10-23T13:01:07Z</time>
      </trkpt>
      <trkpt lat="47.34772" lon="-1.62479">
        <ele>102</ele>
        <time>2021-10-23T13:01:09Z</time>
      </trkpt>
      <trkpt lat="47.34779" lon="-1.62464">
        <ele>103</ele>
        <time>2021-10-23T13:01:11Z</time>
      </trkpt>
      <trkpt lat="47.34788" lon="-1.6245">
        <ele>104</ele>
        <time>2021-10-23T13:01:13Z</time>
      </trkpt>
      <trkpt lat="47.34797" lon="-1.62435">
        <ele>104</ele>
        <time>2021-10-23T13:01:15Z</time>
      </trkpt>
      <trkpt lat="47.34806" lon="-1.62421">
        <ele>103</ele>
        <time>2021-10-23T13:01:17Z</time>
      </trkpt>
      <trkpt lat="47.34815" lon="-1.62407">
        <ele>103</ele>
        <time>2021-10-23T13:01:19Z</time>
      </trkpt>
      <trkpt lat="47.34823" lon="-1.62394">
        <ele>104</ele>
        <time>2021-10-23T13:01:21Z</time>
      </trkpt>
      <trkpt lat="47.34831" lon="-1.62379">
        <ele>104</ele>
        <time>2021-10-23T13:01:23Z</time>
      </trkpt>
      <trkpt lat="47.3484" lon="-1.62364">
        <ele>104</ele>
        <time>2021-10-23T13:01:25Z</time>
      </trkpt>
      <trkpt lat="47.34848" lon="-1.6235">
        <ele>104</ele>
        <time>2021-10-23T13:01:27Z</time>
      </trkpt>
      <trkpt lat="47.34857" lon="-1.62337">
        <ele>104</ele>
        <time>2021-10-23T13:01:29Z</time>
      </trkpt>
      <trkpt lat="47.34866" lon="-1.62322">
        <ele>104</ele>
        <time>2021-10-23T13:01:31Z</time>
      </trkpt>
      <trkpt lat="47.34875" lon="-1.62309">
        <ele>104</ele>
        <time>2021-10-23T13:01:33Z</time>
      </trkpt>
      <trkpt lat="47.34885" lon="-1.62296">
        <ele>104</ele>
        <time>2021-10-23T13:01:35Z</time>
      </trkpt>
      <trkpt lat="47.34893" lon="-1.62283">
        <ele>104</ele>
        <time>2021-10-23T13:01:37Z</time>
      </trkpt>
      <trkpt lat="47.34902" lon="-1.6227">
        <ele>104</ele>
        <time>2021-10-23T13:01:39Z</time>
      </trkpt>
      <trkpt lat="47.34911" lon="-1.62256">
        <ele>104</ele>
        <time>2021-10-23T13:01:41Z</time>
      </trkpt>
      <trkpt lat="47.34921" lon="-1.62244">
        <ele>104</ele>
        <time>2021-10-23T13:01:43Z</time>
      </trkpt>
      <trkpt lat="47.34932" lon="-1.62233">
        <ele>105</ele>
        <time>2021-10-23T13:01:45Z</time>
      </trkpt>
      <trkpt lat="47.34944" lon="-1.62226">
        <ele>104</ele>
        <time>2021-10-23T13:01:47Z</time>
      </trkpt>
      <trkpt lat="47.34956" lon="-1.6222">
        <ele>104</ele>
        <time>2021-10-23T13:01:49Z</time>
      </trkpt>
      <trkpt lat="47.34968" lon="-1.62213">
        <ele>104</ele>
        <time>2021-10-23T13:01:51Z</time>
      </trkpt>
      <trkpt lat="47.3498" lon="-1.62207">
        <ele>103</ele>
        <time>2021-10-23T13:01:53Z</time>
      </trkpt>
      <trkpt lat="47.34992" lon="-1.622">
        <ele>103</ele>
        <time>2021-10-23T13:01:55Z</time>
      </trkpt>
      <trkpt lat="47.35003" lon="-1.62191">
        <ele>103</ele>
        <time>2021-10-23T13:01:57Z</time>
      </trkpt>
      <trkpt lat="47.35014" lon="-1.62179">
        <ele>103</ele>
        <time>2021-10-23T13:01:59Z</time>
      </trkpt>
      <trkpt lat="47.35024" lon="-1.62166">
        <ele>103</ele>
        <time>2021-10-23T13:02:01Z</time>
      </trkpt>
      <trkpt lat="47.35034" lon="-1.62152">
        <ele>102</ele>
        <time>2021-10-23T13:02:03Z</time>
      </trkpt>
      <trkpt lat="47.35045" lon="-1.62139">
        <ele>101</ele>
        <time>2021-10-23T13:02:05Z</time>
      </trkpt>
      <trkpt lat="47.35055" lon="-1.62125">
        <ele>101</ele>
        <time>2021-10-23T13:02:07Z</time>
      </trkpt>
      <trkpt lat="47.35066" lon="-1.62111">
        <ele>100</ele>
        <time>2021-10-23T13:02:09Z</time>
      </trkpt>
      <trkpt lat="47.35077" lon="-1.62097">
        <ele>99</ele>
        <time>2021-10-23T13:02:11Z</time>
      </trkpt>
      <trkpt lat="47.35088" lon="-1.62082">
        <ele>99</ele>
        <time>2021-10-23T13:02:13Z</time>
      </trkpt>
      <trkpt lat="47.35099" lon="-1.62068">
        <ele>98</ele>
        <time>2021-10-23T13:02:15Z</time>
      </trkpt>
      <trkpt lat="47.3511" lon="-1.62053">
        <ele>98</ele>
        <time>2021-10-23T13:02:17Z</time>
      </trkpt>
      <trkpt lat="47.35121" lon="-1.62038">
        <ele>98</ele>
        <time>2021-10-23T13:02:19Z</time>
      </trkpt>
      <trkpt lat="47.35132" lon="-1.62024">
        <ele>97</ele>
        <time>2021-10-23T13:02:21Z</time>
      </trkpt>
      <trkpt lat="47.35143" lon="-1.62009">
        <ele>97</ele>
        <time>2021-10-23T13:02:23Z</time>
      </trkpt>
      <trkpt lat="47.35154" lon="-1.61994">
        <ele>97</ele>
        <time>2021-10-23T13:02:25Z</time>
      </trkpt>
      <trkpt lat="47.35165" lon="-1.61979">
        <ele>96</ele>
        <time>2021-10-23T13:02:27Z</time>
      </trkpt>
      <trkpt lat="47.35176" lon="-1.61966">
        <ele>96</ele>
        <time>2021-10-23T13:02:29Z</time>
      </trkpt>
      <trkpt lat="47.35187" lon="-1.61952">
        <ele>96</ele>
        <time>2021-10-23T13:02:31Z</time>
      </trkpt>
      <trkpt lat="47.35198" lon="-1.61939">
        <ele>96</ele>
        <time>2021-10-23T13:02:33Z</time>
      </trkpt>
      <trkpt lat="47.35209" lon="-1.61926">
        <ele>96</ele>
        <time>2021-10-23T13:02:35Z</time>
      </trkpt>
      <trkpt lat="47.3522" lon="-1.61913">
        <ele>96</ele>
        <time>2021-10-23T13:02:37Z</time>
      </trkpt>
      <trkpt lat="47.35231" lon="-1.61899">
        <ele>95</ele>
        <time>2021-10-23T13:02:39Z</time>
      </trkpt>
      <trkpt lat="47.35242" lon="-1.61886">
        <ele>95</ele>
        <time>2021-10-23T13:02:41Z</time>
      </trkpt>
      <trkpt lat="47.35253" lon="-1.61873">
        <ele>95</ele>
        <time>2021-10-23T13:02:43Z</time>
      </trkpt>
      <trkpt lat="47.35264" lon="-1.6186">
        <ele>95</ele>
        <time>2021-10-23T13:02:45Z</time>
      </trkpt>
      <trkpt lat="47.35275" lon="-1.61847">
        <ele>94</ele>
        <time>2021-10-23T13:02:47Z</time>
      </trkpt>
      <trkpt lat="47.35286" lon="-1.61834">
        <ele>94</ele>
        <time>2021-10-23T13:02:49Z</time>
      </trkpt>
      <trkpt lat="47.35297" lon="-1.61821">
        <ele>94</ele>
        <time>2021-10-23T13:02:51Z</time>
      </trkpt>
      <trkpt lat="47.35309" lon="-1.61808">
        <ele>94</ele>
        <time>2021-10-23T13:02:53Z</time>
      </trkpt>
      <trkpt lat="47.35321" lon="-1.61794">
        <ele>94</ele>
        <time>2021-10-23T13:02:55Z</time>
      </trkpt>
      <trkpt lat="47.35332" lon="-1.61782">
        <ele>94</ele>
        <time>2021-10-23T13:02:57Z</time>
      </trkpt>
      <trkpt lat="47.35344" lon="-1.61769">
        <ele>93</ele>
        <time>2021-10-23T13:02:59Z</time>
      </trkpt>
      <trkpt lat="47.35356" lon="-1.61756">
        <ele>93</ele>
        <time>2021-10-23T13:03:01Z</time>
      </trkpt>
      <trkpt lat="47.35368" lon="-1.61743">
        <ele>92</ele>
        <time>2021-10-23T13:03:03Z</time>
      </trkpt>
      <trkpt lat="47.3538" lon="-1.61731">
        <ele>92</ele>
        <time>2021-10-23T13:03:05Z</time>
      </trkpt>
      <trkpt lat="47.35392" lon="-1.6172">
        <ele>92</ele>
        <time>2021-10-23T13:03:07Z</time>
      </trkpt>
      <trkpt lat="47.35404" lon="-1.6171">
        <ele>92</ele>
        <time>2021-10-23T13:03:09Z</time>
      </trkpt>
      <trkpt lat="47.35417" lon="-1.617">
        <ele>92</ele>
        <time>2021-10-23T13:03:11Z</time>
      </trkpt>
      <trkpt lat="47.35429" lon="-1.61689">
        <ele>92</ele>
        <time>2021-10-23T13:03:13Z</time>
      </trkpt>
      <trkpt lat="47.35441" lon="-1.61679">
        <ele>92</ele>
        <time>2021-10-23T13:03:15Z</time>
      </trkpt>
      <trkpt lat="47.35453" lon="-1.61669">
        <ele>92</ele>
        <time>2021-10-23T13:03:17Z</time>
      </trkpt>
      <trkpt lat="47.35466" lon="-1.61659">
        <ele>92</ele>
        <time>2021-10-23T13:03:19Z</time>
      </trkpt>
      <trkpt lat="47.35479" lon="-1.61649">
        <ele>92</ele>
        <time>2021-10-23T13:03:21Z</time>
      </trkpt>
      <trkpt lat="47.35491" lon="-1.61638">
        <ele>92</ele>
        <time>2021-10-23T13:03:23Z</time>
      </trkpt>
      <trkpt lat="47.35502" lon="-1.61629">
        <ele>91</ele>
        <time>2021-10-23T13:03:25Z</time>
      </trkpt>
      <trkpt lat="47.35511" lon="-1.61619">
        <ele>91</ele>
        <time>2021-10-23T13:03:27Z</time>
      </trkpt>
      <trkpt lat="47.35511" lon="-1.61601">
        <ele>91</ele>
        <time>2021-10-23T13:03:29Z</time>
      </trkpt>
      <trkpt lat="47.35507" lon="-1.61582">
        <ele>91</ele>
        <time>2021-10-23T13:03:31Z</time>
      </trkpt>
      <trkpt lat="47.35504" lon="-1.61562">
        <ele>90</ele>
        <time>2021-10-23T13:03:33Z</time>
      </trkpt>
      <trkpt lat="47.35501" lon="-1.61541">
        <ele>90</ele>
        <time>2021-10-23T13:03:35Z</time>
      </trkpt>
      <trkpt lat="47.35497" lon="-1.6152">
        <ele>89</ele>
        <time>2021-10-23T13:03:37Z</time>
      </trkpt>
      <trkpt lat="47.35494" lon="-1.61498">
        <ele>88</ele>
        <time>2021-10-23T13:03:39Z</time>
      </trkpt>
      <trkpt lat="47.3549" lon="-1.61475">
        <ele>88</ele>
        <time>2021-10-23T13:03:41Z</time>
      </trkpt>
      <trkpt lat="47.35486" lon="-1.61452">
        <ele>88</ele>
        <time>2021-10-23T13:03:43Z</time>
      </trkpt>
      <trkpt lat="47.35483" lon="-1.61429">
        <ele>88</ele>
        <time>2021-10-23T13:03:45Z</time>
      </trkpt>
      <trkpt lat="47.35479" lon="-1.61405">
        <ele>87</ele>
        <time>2021-10-23T13:03:47Z</time>
      </trkpt>
      <trkpt lat="47.35474" lon="-1.61381">
        <ele>87</ele>
        <time>2021-10-23T13:03:49Z</time>
      </trkpt>
      <trkpt lat="47.35469" lon="-1.61358">
        <ele>86</ele>
        <time>2021-10-23T13:03:51Z</time>
      </trkpt>
      <trkpt lat="47.35464" lon="-1.61335">
        <ele>86</ele>
        <time>2021-10-23T13:03:53Z</time>
      </trkpt>
      <trkpt lat="47.35459" lon="-1.61311">
        <ele>85</ele>
        <time>2021-10-23T13:03:55Z</time>
      </trkpt>
      <trkpt lat="47.35454" lon="-1.61287">
        <ele>85</ele>
        <time>2021-10-23T13:03:57Z</time>
      </trkpt>
      <trkpt lat="47.35448" lon="-1.61265">
        <ele>84</ele>
        <time>2021-10-23T13:03:59Z</time>
      </trkpt>
      <trkpt lat="47.35444" lon="-1.61242">
        <ele>84</ele>
        <time>2021-10-23T13:04:01Z</time>
      </trkpt>
      <trkpt lat="47.3544" lon="-1.61219">
        <ele>84</ele>
        <time>2021-10-23T13:04:03Z</time>
      </trkpt>
      <trkpt lat="47.35436" lon="-1.61197">
        <ele>84</ele>
        <time>2021-10-23T13:04:05Z</time>
      </trkpt>
      <trkpt lat="47.35434" lon="-1.61175">
        <ele>84</ele>
        <time>2021-10-23T13:04:07Z</time>
      </trkpt>
      <trkpt lat="47.35434" lon="-1.61153">
        <ele>84</ele>
        <time>2021-10-23T13:04:09Z</time>
      </trkpt>
      <trkpt lat="47.35435" lon="-1.61131">
        <ele>83</ele>
        <time>2021-10-23T13:04:11Z</time>
      </trkpt>
      <trkpt lat="47.35435" lon="-1.6111">
        <ele>84</ele>
        <time>2021-10-23T13:04:13Z</time>
      </trkpt>
      <trkpt lat="47.35435" lon="-1.6109">
        <ele>84</ele>
        <time>2021-10-23T13:04:15Z</time>
      </trkpt>
      <trkpt lat="47.35436" lon="-1.6107">
        <ele>83</ele>
        <time>2021-10-23T13:04:17Z</time>
      </trkpt>
      <trkpt lat="47.35436" lon="-1.61051">
        <ele>84</ele>
        <time>2021-10-23T13:04:19Z</time>
      </trkpt>
      <trkpt lat="47.35436" lon="-1.61032">
        <ele>84</ele>
        <time>2021-10-23T13:04:21Z</time>
      </trkpt>
      <trkpt lat="47.35436" lon="-1.61014">
        <ele>84</ele>
        <time>2021-10-23T13:04:23Z</time>
      </trkpt>
      <trkpt lat="47.35437" lon="-1.60994">
        <ele>85</ele>
        <time>2021-10-23T13:04:25Z</time>
      </trkpt>
      <trkpt lat="47.35437" lon="-1.60976">
        <ele>85</ele>
        <time>2021-10-23T13:04:27Z</time>
      </trkpt>
      <trkpt lat="47.35437" lon="-1.60956">
        <ele>85</ele>
        <time>2021-10-23T13:04:29Z</time>
      </trkpt>
      <trkpt lat="47.35438" lon="-1.60938">
        <ele>85</ele>
        <time>2021-10-23T13:04:31Z</time>
      </trkpt>
      <trkpt lat="47.35437" lon="-1.6092">
        <ele>85</ele>
        <time>2021-10-23T13:04:33Z</time>
      </trkpt>
      <trkpt lat="47.35437" lon="-1.60902">
        <ele>85</ele>
        <time>2021-10-23T13:04:35Z</time>
      </trkpt>
      <trkpt lat="47.35436" lon="-1.60884">
        <ele>85</ele>
        <time>2021-10-23T13:04:37Z</time>
      </trkpt>
      <trkpt lat="47.35433" lon="-1.60868">
        <ele>86</ele>
        <time>2021-10-23T13:04:39Z</time>
      </trkpt>
      <trkpt lat="47.35429" lon="-1.60851">
        <ele>86</ele>
        <time>2021-10-23T13:04:41Z</time>
      </trkpt>
      <trkpt lat="47.35426" lon="-1.60835">
        <ele>86</ele>
        <time>2021-10-23T13:04:43Z</time>
      </trkpt>
      <trkpt lat="47.35423" lon="-1.60819">
        <ele>86</ele>
        <time>2021-10-23T13:04:45Z</time>
      </trkpt>
      <trkpt lat="47.35421" lon="-1.60804">
        <ele>87</ele>
        <time>2021-10-23T13:04:47Z</time>
      </trkpt>
      <trkpt lat="47.35418" lon="-1.60788">
        <ele>87</ele>
        <time>2021-10-23T13:04:49Z</time>
      </trkpt>
      <trkpt lat="47.35415" lon="-1.60773">
        <ele>87</ele>
        <time>2021-10-23T13:04:51Z</time>
      </trkpt>
      <trkpt lat="47.35412" lon="-1.60757">
        <ele>88</ele>
        <time>2021-10-23T13:04:53Z</time>
      </trkpt>
      <trkpt lat="47.3541" lon="-1.60741">
        <ele>88</ele>
        <time>2021-10-23T13:04:55Z</time>
      </trkpt>
      <trkpt lat="47.35409" lon="-1.60725">
        <ele>89</ele>
        <time>2021-10-23T13:04:57Z</time>
      </trkpt>
      <trkpt lat="47.35408" lon="-1.60709">
        <ele>89</ele>
        <time>2021-10-23T13:04:59Z</time>
      </trkpt>
      <trkpt lat="47.35408" lon="-1.60693">
        <ele>89</ele>
        <time>2021-10-23T13:05:01Z</time>
      </trkpt>
      <trkpt lat="47.35408" lon="-1.60677">
        <ele>89</ele>
        <time>2021-10-23T13:05:03Z</time>
      </trkpt>
      <trkpt lat="47.35407" lon="-1.60662">
        <ele>90</ele>
        <time>2021-10-23T13:05:05Z</time>
      </trkpt>
      <trkpt lat="47.35408" lon="-1.60646">
        <ele>90</ele>
        <time>2021-10-23T13:05:07Z</time>
      </trkpt>
      <trkpt lat="47.35408" lon="-1.60629">
        <ele>90</ele>
        <time>2021-10-23T13:05:09Z</time>
      </trkpt>
      <trkpt lat="47.35408" lon="-1.60614">
        <ele>90</ele>
        <time>2021-10-23T13:05:11Z</time>
      </trkpt>
      <trkpt lat="47.35409" lon="-1.60598">
        <ele>91</ele>
        <time>2021-10-23T13:05:13Z</time>
      </trkpt>
      <trkpt lat="47.35409" lon="-1.60582">
        <ele>90</ele>
        <time>2021-10-23T13:05:15Z</time>
      </trkpt>
      <trkpt lat="47.35409" lon="-1.60566">
        <ele>91</ele>
        <time>2021-10-23T13:05:17Z</time>
      </trkpt>
      <trkpt lat="47.3541" lon="-1.60551">
        <ele>91</ele>
        <time>2021-10-23T13:05:19Z</time>
      </trkpt>
      <trkpt lat="47.3541" lon="-1.60537">
        <ele>91</ele>
        <time>2021-10-23T13:05:21Z</time>
      </trkpt>
      <trkpt lat="47.35411" lon="-1.60519">
        <ele>91</ele>
        <time>2021-10-23T13:05:24Z</time>
      </trkpt>
      <trkpt lat="47.3541" lon="-1.60501">
        <ele>92</ele>
        <time>2021-10-23T13:05:29Z</time>
      </trkpt>
      <trkpt lat="47.35411" lon="-1.6048">
        <ele>92</ele>
        <time>2021-10-23T13:05:32Z</time>
      </trkpt>
      <trkpt lat="47.35412" lon="-1.60463">
        <ele>91</ele>
        <time>2021-10-23T13:05:34Z</time>
      </trkpt>
      <trkpt lat="47.35412" lon="-1.60446">
        <ele>91</ele>
        <time>2021-10-23T13:05:36Z</time>
      </trkpt>
      <trkpt lat="47.35413" lon="-1.60428">
        <ele>91</ele>
        <time>2021-10-23T13:05:38Z</time>
      </trkpt>
      <trkpt lat="47.35414" lon="-1.6041">
        <ele>91</ele>
        <time>2021-10-23T13:05:40Z</time>
      </trkpt>
      <trkpt lat="47.35414" lon="-1.60391">
        <ele>91</ele>
        <time>2021-10-23T13:05:42Z</time>
      </trkpt>
      <trkpt lat="47.35414" lon="-1.60373">
        <ele>91</ele>
        <time>2021-10-23T13:05:44Z</time>
      </trkpt>
      <trkpt lat="47.35415" lon="-1.60355">
        <ele>91</ele>
        <time>2021-10-23T13:05:46Z</time>
      </trkpt>
      <trkpt lat="47.35416" lon="-1.60337">
        <ele>91</ele>
        <time>2021-10-23T13:05:48Z</time>
      </trkpt>
      <trkpt lat="47.35416" lon="-1.60319">
        <ele>91</ele>
        <time>2021-10-23T13:05:50Z</time>
      </trkpt>
      <trkpt lat="47.35417" lon="-1.60301">
        <ele>91</ele>
        <time>2021-10-23T13:05:52Z</time>
      </trkpt>
      <trkpt lat="47.35418" lon="-1.60283">
        <ele>91</ele>
        <time>2021-10-23T13:05:54Z</time>
      </trkpt>
      <trkpt lat="47.35418" lon="-1.60266">
        <ele>90</ele>
        <time>2021-10-23T13:05:56Z</time>
      </trkpt>
      <trkpt lat="47.35418" lon="-1.60248">
        <ele>91</ele>
        <time>2021-10-23T13:05:58Z</time>
      </trkpt>
      <trkpt lat="47.35419" lon="-1.60231">
        <ele>91</ele>
        <time>2021-10-23T13:06:00Z</time>
      </trkpt>
      <trkpt lat="47.35419" lon="-1.60213">
        <ele>91</ele>
        <time>2021-10-23T13:06:02Z</time>
      </trkpt>
      <trkpt lat="47.3542" lon="-1.60195">
        <ele>91</ele>
        <time>2021-10-23T13:06:04Z</time>
      </trkpt>
      <trkpt lat="47.3542" lon="-1.60177">
        <ele>91</ele>
        <time>2021-10-23T13:06:06Z</time>
      </trkpt>
      <trkpt lat="47.35419" lon="-1.60158">
        <ele>91</ele>
        <time>2021-10-23T13:06:08Z</time>
      </trkpt>
      <trkpt lat="47.35417" lon="-1.6014">
        <ele>91</ele>
        <time>2021-10-23T13:06:10Z</time>
      </trkpt>
      <trkpt lat="47.35415" lon="-1.6012">
        <ele>91</ele>
        <time>2021-10-23T13:06:12Z</time>
      </trkpt>
      <trkpt lat="47.35416" lon="-1.60101">
        <ele>91</ele>
        <time>2021-10-23T13:06:14Z</time>
      </trkpt>
      <trkpt lat="47.35418" lon="-1.60081">
        <ele>91</ele>
        <time>2021-10-23T13:06:16Z</time>
      </trkpt>
      <trkpt lat="47.35422" lon="-1.60062">
        <ele>91</ele>
        <time>2021-10-23T13:06:18Z</time>
      </trkpt>
      <trkpt lat="47.35427" lon="-1.60044">
        <ele>91</ele>
        <time>2021-10-23T13:06:20Z</time>
      </trkpt>
      <trkpt lat="47.35433" lon="-1.60026">
        <ele>90</ele>
        <time>2021-10-23T13:06:22Z</time>
      </trkpt>
      <trkpt lat="47.35438" lon="-1.60008">
        <ele>90</ele>
        <time>2021-10-23T13:06:24Z</time>
      </trkpt>
      <trkpt lat="47.35442" lon="-1.5999">
        <ele>90</ele>
        <time>2021-10-23T13:06:26Z</time>
      </trkpt>
      <trkpt lat="47.35445" lon="-1.59971">
        <ele>90</ele>
        <time>2021-10-23T13:06:28Z</time>
      </trkpt>
      <trkpt lat="47.35448" lon="-1.59953">
        <ele>90</ele>
        <time>2021-10-23T13:06:30Z</time>
      </trkpt>
      <trkpt lat="47.3545" lon="-1.59935">
        <ele>90</ele>
        <time>2021-10-23T13:06:32Z</time>
      </trkpt>
      <trkpt lat="47.35452" lon="-1.59917">
        <ele>90</ele>
        <time>2021-10-23T13:06:34Z</time>
      </trkpt>
      <trkpt lat="47.35454" lon="-1.59899">
        <ele>91</ele>
        <time>2021-10-23T13:06:36Z</time>
      </trkpt>
      <trkpt lat="47.35457" lon="-1.59882">
        <ele>91</ele>
        <time>2021-10-23T13:06:38Z</time>
      </trkpt>
      <trkpt lat="47.35459" lon="-1.59864">
        <ele>90</ele>
        <time>2021-10-23T13:06:40Z</time>
      </trkpt>
      <trkpt lat="47.35461" lon="-1.59847">
        <ele>90</ele>
        <time>2021-10-23T13:06:42Z</time>
      </trkpt>
      <trkpt lat="47.35463" lon="-1.59829">
        <ele>90</ele>
        <time>2021-10-23T13:06:44Z</time>
      </trkpt>
      <trkpt lat="47.35466" lon="-1.59814">
        <ele>90</ele>
        <time>2021-10-23T13:06:46Z</time>
      </trkpt>
      <trkpt lat="47.35466" lon="-1.598">
        <ele>90</ele>
        <time>2021-10-23T13:06:48Z</time>
      </trkpt>
      <trkpt lat="47.3546" lon="-1.5979">
        <ele>90</ele>
        <time>2021-10-23T13:06:50Z</time>
      </trkpt>
      <trkpt lat="47.35449" lon="-1.59786">
        <ele>90</ele>
        <time>2021-10-23T13:06:52Z</time>
      </trkpt>
      <trkpt lat="47.35437" lon="-1.59783">
        <ele>90</ele>
        <time>2021-10-23T13:06:54Z</time>
      </trkpt>
      <trkpt lat="47.35424" lon="-1.59779">
        <ele>90</ele>
        <time>2021-10-23T13:06:56Z</time>
      </trkpt>
      <trkpt lat="47.35411" lon="-1.59776">
        <ele>90</ele>
        <time>2021-10-23T13:06:58Z</time>
      </trkpt>
      <trkpt lat="47.35398" lon="-1.59772">
        <ele>90</ele>
        <time>2021-10-23T13:07:00Z</time>
      </trkpt>
      <trkpt lat="47.35385" lon="-1.59768">
        <ele>90</ele>
        <time>2021-10-23T13:07:02Z</time>
      </trkpt>
      <trkpt lat="47.35372" lon="-1.59764">
        <ele>90</ele>
        <time>2021-10-23T13:07:04Z</time>
      </trkpt>
      <trkpt lat="47.35359" lon="-1.59759">
        <ele>90</ele>
        <time>2021-10-23T13:07:06Z</time>
      </trkpt>
      <trkpt lat="47.35346" lon="-1.59752">
        <ele>89</ele>
        <time>2021-10-23T13:07:08Z</time>
      </trkpt>
      <trkpt lat="47.35333" lon="-1.59743">
        <ele>89</ele>
        <time>2021-10-23T13:07:10Z</time>
      </trkpt>
      <trkpt lat="47.35321" lon="-1.59732">
        <ele>89</ele>
        <time>2021-10-23T13:07:12Z</time>
      </trkpt>
      <trkpt lat="47.35308" lon="-1.59719">
        <ele>88</ele>
        <time>2021-10-23T13:07:14Z</time>
      </trkpt>
      <trkpt lat="47.35296" lon="-1.59706">
        <ele>88</ele>
        <time>2021-10-23T13:07:16Z</time>
      </trkpt>
      <trkpt lat="47.35283" lon="-1.5969">
        <ele>88</ele>
        <time>2021-10-23T13:07:18Z</time>
      </trkpt>
      <trkpt lat="47.3527" lon="-1.59674">
        <ele>87</ele>
        <time>2021-10-23T13:07:20Z</time>
      </trkpt>
      <trkpt lat="47.35257" lon="-1.59658">
        <ele>87</ele>
        <time>2021-10-23T13:07:22Z</time>
      </trkpt>
      <trkpt lat="47.35244" lon="-1.59642">
        <ele>86</ele>
        <time>2021-10-23T13:07:24Z</time>
      </trkpt>
      <trkpt lat="47.3523" lon="-1.59625">
        <ele>86</ele>
        <time>2021-10-23T13:07:26Z</time>
      </trkpt>
      <trkpt lat="47.35217" lon="-1.59609">
        <ele>85</ele>
        <time>2021-10-23T13:07:28Z</time>
      </trkpt>
      <trkpt lat="47.35203" lon="-1.59593">
        <ele>84</ele>
        <time>2021-10-23T13:07:30Z</time>
      </trkpt>
      <trkpt lat="47.3519" lon="-1.59576">
        <ele>83</ele>
        <time>2021-10-23T13:07:32Z</time>
      </trkpt>
      <trkpt lat="47.35176" lon="-1.5956">
        <ele>82</ele>
        <time>2021-10-23T13:07:34Z</time>
      </trkpt>
      <trkpt lat="47.35163" lon="-1.59544">
        <ele>81</ele>
        <time>2021-10-23T13:07:36Z</time>
      </trkpt>
      <trkpt lat="47.3515" lon="-1.59527">
        <ele>79</ele>
        <time>2021-10-23T13:07:38Z</time>
      </trkpt>
      <trkpt lat="47.35137" lon="-1.59511">
        <ele>78</ele>
        <time>2021-10-23T13:07:40Z</time>
      </trkpt>
      <trkpt lat="47.3513" lon="-1.59502">
        <ele>78</ele>
        <time>2021-10-23T13:07:41Z</time>
      </trkpt>
      <trkpt lat="47.35116" lon="-1.59485">
        <ele>77</ele>
        <time>2021-10-23T13:07:43Z</time>
      </trkpt>
      <trkpt lat="47.35109" lon="-1.59476">
        <ele>77</ele>
        <time>2021-10-23T13:07:44Z</time>
      </trkpt>
      <trkpt lat="47.35102" lon="-1.59467">
        <ele>77</ele>
        <time>2021-10-23T13:07:45Z</time>
      </trkpt>
      <trkpt lat="47.35095" lon="-1.59458">
        <ele>76</ele>
        <time>2021-10-23T13:07:46Z</time>
      </trkpt>
      <trkpt lat="47.35088" lon="-1.59449">
        <ele>76</ele>
        <time>2021-10-23T13:07:47Z</time>
      </trkpt>
      <trkpt lat="47.35081" lon="-1.5944">
        <ele>76</ele>
        <time>2021-10-23T13:07:48Z</time>
      </trkpt>
      <trkpt lat="47.35074" lon="-1.59432">
        <ele>76</ele>
        <time>2021-10-23T13:07:49Z</time>
      </trkpt>
      <trkpt lat="47.35061" lon="-1.59417">
        <ele>76</ele>
        <time>2021-10-23T13:07:51Z</time>
      </trkpt>
      <trkpt lat="47.3505" lon="-1.59402">
        <ele>76</ele>
        <time>2021-10-23T13:07:53Z</time>
      </trkpt>
      <trkpt lat="47.35039" lon="-1.59389">
        <ele>76</ele>
        <time>2021-10-23T13:07:55Z</time>
      </trkpt>
      <trkpt lat="47.35029" lon="-1.59378">
        <ele>76</ele>
        <time>2021-10-23T13:07:57Z</time>
      </trkpt>
      <trkpt lat="47.3502" lon="-1.59367">
        <ele>76</ele>
        <time>2021-10-23T13:07:59Z</time>
      </trkpt>
      <trkpt lat="47.35012" lon="-1.59356">
        <ele>76</ele>
        <time>2021-10-23T13:08:01Z</time>
      </trkpt>
      <trkpt lat="47.35003" lon="-1.59346">
        <ele>77</ele>
        <time>2021-10-23T13:08:03Z</time>
      </trkpt>
      <trkpt lat="47.34995" lon="-1.59336">
        <ele>77</ele>
        <time>2021-10-23T13:08:05Z</time>
      </trkpt>
      <trkpt lat="47.34987" lon="-1.59325">
        <ele>78</ele>
        <time>2021-10-23T13:08:07Z</time>
      </trkpt>
      <trkpt lat="47.34978" lon="-1.59314">
        <ele>78</ele>
        <time>2021-10-23T13:08:09Z</time>
      </trkpt>
      <trkpt lat="47.3497" lon="-1.59303">
        <ele>78</ele>
        <time>2021-10-23T13:08:11Z</time>
      </trkpt>
      <trkpt lat="47.34962" lon="-1.59293">
        <ele>79</ele>
        <time>2021-10-23T13:08:13Z</time>
      </trkpt>
      <trkpt lat="47.34954" lon="-1.59283">
        <ele>80</ele>
        <time>2021-10-23T13:08:15Z</time>
      </trkpt>
      <trkpt lat="47.34946" lon="-1.59274">
        <ele>80</ele>
        <time>2021-10-23T13:08:17Z</time>
      </trkpt>
      <trkpt lat="47.34939" lon="-1.59265">
        <ele>80</ele>
        <time>2021-10-23T13:08:19Z</time>
      </trkpt>
      <trkpt lat="47.34932" lon="-1.59256">
        <ele>80</ele>
        <time>2021-10-23T13:08:21Z</time>
      </trkpt>
      <trkpt lat="47.34925" lon="-1.59247">
        <ele>81</ele>
        <time>2021-10-23T13:08:23Z</time>
      </trkpt>
      <trkpt lat="47.34917" lon="-1.59237">
        <ele>81</ele>
        <time>2021-10-23T13:08:25Z</time>
      </trkpt>
      <trkpt lat="47.34909" lon="-1.59227">
        <ele>81</ele>
        <time>2021-10-23T13:08:27Z</time>
      </trkpt>
      <trkpt lat="47.34901" lon="-1.59218">
        <ele>81</ele>
        <time>2021-10-23T13:08:29Z</time>
      </trkpt>
      <trkpt lat="47.34893" lon="-1.59208">
        <ele>83</ele>
        <time>2021-10-23T13:08:31Z</time>
      </trkpt>
      <trkpt lat="47.34885" lon="-1.59199">
        <ele>83</ele>
        <time>2021-10-23T13:08:33Z</time>
      </trkpt>
      <trkpt lat="47.34878" lon="-1.5919">
        <ele>83</ele>
        <time>2021-10-23T13:08:35Z</time>
      </trkpt>
      <trkpt lat="47.3487" lon="-1.59181">
        <ele>84</ele>
        <time>2021-10-23T13:08:37Z</time>
      </trkpt>
      <trkpt lat="47.34863" lon="-1.59172">
        <ele>85</ele>
        <time>2021-10-23T13:08:39Z</time>
      </trkpt>
      <trkpt lat="47.34855" lon="-1.59163">
        <ele>86</ele>
        <time>2021-10-23T13:08:41Z</time>
      </trkpt>
      <trkpt lat="47.34848" lon="-1.59154">
        <ele>86</ele>
        <time>2021-10-23T13:08:43Z</time>
      </trkpt>
      <trkpt lat="47.34841" lon="-1.59146">
        <ele>86</ele>
        <time>2021-10-23T13:08:45Z</time>
      </trkpt>
      <trkpt lat="47.34834" lon="-1.59137">
        <ele>86</ele>
        <time>2021-10-23T13:08:47Z</time>
      </trkpt>
      <trkpt lat="47.34827" lon="-1.59128">
        <ele>87</ele>
        <time>2021-10-23T13:08:49Z</time>
      </trkpt>
      <trkpt lat="47.3482" lon="-1.59119">
        <ele>88</ele>
        <time>2021-10-23T13:08:51Z</time>
      </trkpt>
      <trkpt lat="47.34813" lon="-1.5911">
        <ele>88</ele>
        <time>2021-10-23T13:08:53Z</time>
      </trkpt>
      <trkpt lat="47.34806" lon="-1.59101">
        <ele>88</ele>
        <time>2021-10-23T13:08:55Z</time>
      </trkpt>
      <trkpt lat="47.34798" lon="-1.59092">
        <ele>89</ele>
        <time>2021-10-23T13:08:57Z</time>
      </trkpt>
      <trkpt lat="47.34791" lon="-1.59083">
        <ele>89</ele>
        <time>2021-10-23T13:08:59Z</time>
      </trkpt>
      <trkpt lat="47.34783" lon="-1.59074">
        <ele>89</ele>
        <time>2021-10-23T13:09:01Z</time>
      </trkpt>
      <trkpt lat="47.34776" lon="-1.59066">
        <ele>89</ele>
        <time>2021-10-23T13:09:03Z</time>
      </trkpt>
      <trkpt lat="47.34768" lon="-1.59057">
        <ele>89</ele>
        <time>2021-10-23T13:09:05Z</time>
      </trkpt>
      <trkpt lat="47.3476" lon="-1.59048">
        <ele>90</ele>
        <time>2021-10-23T13:09:07Z</time>
      </trkpt>
      <trkpt lat="47.34752" lon="-1.59039">
        <ele>91</ele>
        <time>2021-10-23T13:09:09Z</time>
      </trkpt>
      <trkpt lat="47.34745" lon="-1.59029">
        <ele>91</ele>
        <time>2021-10-23T13:09:11Z</time>
      </trkpt>
      <trkpt lat="47.34737" lon="-1.59019">
        <ele>91</ele>
        <time>2021-10-23T13:09:13Z</time>
      </trkpt>
      <trkpt lat="47.34725" lon="-1.59004">
        <ele>91</ele>
        <time>2021-10-23T13:09:16Z</time>
      </trkpt>
      <trkpt lat="47.34718" lon="-1.58994">
        <ele>91</ele>
        <time>2021-10-23T13:09:18Z</time>
      </trkpt>
      <trkpt lat="47.34709" lon="-1.58984">
        <ele>90</ele>
        <time>2021-10-23T13:09:20Z</time>
      </trkpt>
      <trkpt lat="47.34701" lon="-1.58974">
        <ele>91</ele>
        <time>2021-10-23T13:09:22Z</time>
      </trkpt>
      <trkpt lat="47.34693" lon="-1.58964">
        <ele>91</ele>
        <time>2021-10-23T13:09:24Z</time>
      </trkpt>
      <trkpt lat="47.34685" lon="-1.58955">
        <ele>91</ele>
        <time>2021-10-23T13:09:26Z</time>
      </trkpt>
      <trkpt lat="47.34676" lon="-1.58945">
        <ele>91</ele>
        <time>2021-10-23T13:09:28Z</time>
      </trkpt>
      <trkpt lat="47.34664" lon="-1.58929">
        <ele>91</ele>
        <time>2021-10-23T13:09:31Z</time>
      </trkpt>
      <trkpt lat="47.34655" lon="-1.58919">
        <ele>91</ele>
        <time>2021-10-23T13:09:33Z</time>
      </trkpt>
      <trkpt lat="47.34646" lon="-1.58908">
        <ele>91</ele>
        <time>2021-10-23T13:09:35Z</time>
      </trkpt>
      <trkpt lat="47.34637" lon="-1.58897">
        <ele>91</ele>
        <time>2021-10-23T13:09:37Z</time>
      </trkpt>
      <trkpt lat="47.34629" lon="-1.58887">
        <ele>91</ele>
        <time>2021-10-23T13:09:39Z</time>
      </trkpt>
      <trkpt lat="47.3462" lon="-1.58875">
        <ele>91</ele>
        <time>2021-10-23T13:09:41Z</time>
      </trkpt>
      <trkpt lat="47.34611" lon="-1.58864">
        <ele>91</ele>
        <time>2021-10-23T13:09:43Z</time>
      </trkpt>
      <trkpt lat="47.34602" lon="-1.58853">
        <ele>91</ele>
        <time>2021-10-23T13:09:45Z</time>
      </trkpt>
      <trkpt lat="47.34593" lon="-1.58841">
        <ele>91</ele>
        <time>2021-10-23T13:09:47Z</time>
      </trkpt>
      <trkpt lat="47.34583" lon="-1.5883">
        <ele>90</ele>
        <time>2021-10-23T13:09:49Z</time>
      </trkpt>
      <trkpt lat="47.34573" lon="-1.58818">
        <ele>91</ele>
        <time>2021-10-23T13:09:51Z</time>
      </trkpt>
      <trkpt lat="47.34564" lon="-1.58807">
        <ele>90</ele>
        <time>2021-10-23T13:09:53Z</time>
      </trkpt>
      <trkpt lat="47.34554" lon="-1.58795">
        <ele>90</ele>
        <time>2021-10-23T13:09:55Z</time>
      </trkpt>
      <trkpt lat="47.34545" lon="-1.58783">
        <ele>90</ele>
        <time>2021-10-23T13:09:57Z</time>
      </trkpt>
      <trkpt lat="47.34535" lon="-1.58772">
        <ele>90</ele>
        <time>2021-10-23T13:09:59Z</time>
      </trkpt>
      <trkpt lat="47.34527" lon="-1.58761">
        <ele>90</ele>
        <time>2021-10-23T13:10:01Z</time>
      </trkpt>
      <trkpt lat="47.34518" lon="-1.5875">
        <ele>90</ele>
        <time>2021-10-23T13:10:03Z</time>
      </trkpt>
      <trkpt lat="47.34509" lon="-1.58739">
        <ele>90</ele>
        <time>2021-10-23T13:10:05Z</time>
      </trkpt>
      <trkpt lat="47.34501" lon="-1.58729">
        <ele>90</ele>
        <time>2021-10-23T13:10:07Z</time>
      </trkpt>
      <trkpt lat="47.34493" lon="-1.58718">
        <ele>90</ele>
        <time>2021-10-23T13:10:09Z</time>
      </trkpt>
      <trkpt lat="47.34486" lon="-1.58706">
        <ele>90</ele>
        <time>2021-10-23T13:10:11Z</time>
      </trkpt>
      <trkpt lat="47.34478" lon="-1.58695">
        <ele>91</ele>
        <time>2021-10-23T13:10:13Z</time>
      </trkpt>
      <trkpt lat="47.3447" lon="-1.58684">
        <ele>91</ele>
        <time>2021-10-23T13:10:15Z</time>
      </trkpt>
      <trkpt lat="47.34463" lon="-1.58672">
        <ele>92</ele>
        <time>2021-10-23T13:10:17Z</time>
      </trkpt>
      <trkpt lat="47.34455" lon="-1.5866">
        <ele>92</ele>
        <time>2021-10-23T13:10:19Z</time>
      </trkpt>
      <trkpt lat="47.34447" lon="-1.58648">
        <ele>92</ele>
        <time>2021-10-23T13:10:21Z</time>
      </trkpt>
      <trkpt lat="47.3444" lon="-1.58637">
        <ele>92</ele>
        <time>2021-10-23T13:10:23Z</time>
      </trkpt>
      <trkpt lat="47.34432" lon="-1.58626">
        <ele>93</ele>
        <time>2021-10-23T13:10:25Z</time>
      </trkpt>
      <trkpt lat="47.34424" lon="-1.58614">
        <ele>93</ele>
        <time>2021-10-23T13:10:27Z</time>
      </trkpt>
      <trkpt lat="47.34416" lon="-1.58603">
        <ele>93</ele>
        <time>2021-10-23T13:10:29Z</time>
      </trkpt>
      <trkpt lat="47.34408" lon="-1.58592">
        <ele>94</ele>
        <time>2021-10-23T13:10:31Z</time>
      </trkpt>
      <trkpt lat="47.344" lon="-1.58581">
        <ele>94</ele>
        <time>2021-10-23T13:10:33Z</time>
      </trkpt>
      <trkpt lat="47.34391" lon="-1.5857">
        <ele>94</ele>
        <time>2021-10-23T13:10:35Z</time>
      </trkpt>
      <trkpt lat="47.34383" lon="-1.5856">
        <ele>94</ele>
        <time>2021-10-23T13:10:37Z</time>
      </trkpt>
      <trkpt lat="47.34375" lon="-1.5855">
        <ele>95</ele>
        <time>2021-10-23T13:10:39Z</time>
      </trkpt>
      <trkpt lat="47.34366" lon="-1.5854">
        <ele>95</ele>
        <time>2021-10-23T13:10:41Z</time>
      </trkpt>
      <trkpt lat="47.34358" lon="-1.58529">
        <ele>95</ele>
        <time>2021-10-23T13:10:43Z</time>
      </trkpt>
      <trkpt lat="47.3435" lon="-1.58519">
        <ele>96</ele>
        <time>2021-10-23T13:10:45Z</time>
      </trkpt>
      <trkpt lat="47.34342" lon="-1.58508">
        <ele>96</ele>
        <time>2021-10-23T13:10:47Z</time>
      </trkpt>
      <trkpt lat="47.34333" lon="-1.58497">
        <ele>96</ele>
        <time>2021-10-23T13:10:49Z</time>
      </trkpt>
      <trkpt lat="47.34325" lon="-1.58485">
        <ele>95</ele>
        <time>2021-10-23T13:10:51Z</time>
      </trkpt>
      <trkpt lat="47.34317" lon="-1.58474">
        <ele>95</ele>
        <time>2021-10-23T13:10:53Z</time>
      </trkpt>
      <trkpt lat="47.34309" lon="-1.58461">
        <ele>95</ele>
        <time>2021-10-23T13:10:55Z</time>
      </trkpt>
      <trkpt lat="47.34301" lon="-1.58449">
        <ele>95</ele>
        <time>2021-10-23T13:10:57Z</time>
      </trkpt>
      <trkpt lat="47.34292" lon="-1.58436">
        <ele>94</ele>
        <time>2021-10-23T13:10:59Z</time>
      </trkpt>
      <trkpt lat="47.34283" lon="-1.58423">
        <ele>94</ele>
        <time>2021-10-23T13:11:01Z</time>
      </trkpt>
      <trkpt lat="47.34273" lon="-1.5841">
        <ele>94</ele>
        <time>2021-10-23T13:11:03Z</time>
      </trkpt>
      <trkpt lat="47.34262" lon="-1.58397">
        <ele>93</ele>
        <time>2021-10-23T13:11:05Z</time>
      </trkpt>
      <trkpt lat="47.34252" lon="-1.58382">
        <ele>93</ele>
        <time>2021-10-23T13:11:07Z</time>
      </trkpt>
      <trkpt lat="47.34241" lon="-1.58369">
        <ele>93</ele>
        <time>2021-10-23T13:11:09Z</time>
      </trkpt>
      <trkpt lat="47.34231" lon="-1.58354">
        <ele>92</ele>
        <time>2021-10-23T13:11:11Z</time>
      </trkpt>
      <trkpt lat="47.3422" lon="-1.58339">
        <ele>92</ele>
        <time>2021-10-23T13:11:13Z</time>
      </trkpt>
      <trkpt lat="47.3421" lon="-1.58325">
        <ele>92</ele>
        <time>2021-10-23T13:11:15Z</time>
      </trkpt>
      <trkpt lat="47.342" lon="-1.58311">
        <ele>91</ele>
        <time>2021-10-23T13:11:17Z</time>
      </trkpt>
      <trkpt lat="47.34189" lon="-1.58297">
        <ele>91</ele>
        <time>2021-10-23T13:11:19Z</time>
      </trkpt>
      <trkpt lat="47.34178" lon="-1.58282">
        <ele>91</ele>
        <time>2021-10-23T13:11:21Z</time>
      </trkpt>
      <trkpt lat="47.34167" lon="-1.58268">
        <ele>91</ele>
        <time>2021-10-23T13:11:23Z</time>
      </trkpt>
      <trkpt lat="47.34156" lon="-1.58253">
        <ele>90</ele>
        <time>2021-10-23T13:11:25Z</time>
      </trkpt>
      <trkpt lat="47.34146" lon="-1.58238">
        <ele>89</ele>
        <time>2021-10-23T13:11:27Z</time>
      </trkpt>
      <trkpt lat="47.34135" lon="-1.58223">
        <ele>89</ele>
        <time>2021-10-23T13:11:29Z</time>
      </trkpt>
      <trkpt lat="47.34124" lon="-1.58208">
        <ele>88</ele>
        <time>2021-10-23T13:11:31Z</time>
      </trkpt>
      <trkpt lat="47.34114" lon="-1.58193">
        <ele>88</ele>
        <time>2021-10-23T13:11:33Z</time>
      </trkpt>
      <trkpt lat="47.34103" lon="-1.58178">
        <ele>88</ele>
        <time>2021-10-23T13:11:35Z</time>
      </trkpt>
      <trkpt lat="47.34092" lon="-1.58164">
        <ele>87</ele>
        <time>2021-10-23T13:11:37Z</time>
      </trkpt>
      <trkpt lat="47.34081" lon="-1.5815">
        <ele>86</ele>
        <time>2021-10-23T13:11:39Z</time>
      </trkpt>
      <trkpt lat="47.3407" lon="-1.58136">
        <ele>86</ele>
        <time>2021-10-23T13:11:41Z</time>
      </trkpt>
      <trkpt lat="47.34059" lon="-1.58121">
        <ele>86</ele>
        <time>2021-10-23T13:11:43Z</time>
      </trkpt>
      <trkpt lat="47.34049" lon="-1.58106">
        <ele>86</ele>
        <time>2021-10-23T13:11:45Z</time>
      </trkpt>
      <trkpt lat="47.34039" lon="-1.58093">
        <ele>86</ele>
        <time>2021-10-23T13:11:47Z</time>
      </trkpt>
      <trkpt lat="47.34028" lon="-1.58079">
        <ele>86</ele>
        <time>2021-10-23T13:11:49Z</time>
      </trkpt>
      <trkpt lat="47.34018" lon="-1.58064">
        <ele>85</ele>
        <time>2021-10-23T13:11:51Z</time>
      </trkpt>
      <trkpt lat="47.34007" lon="-1.5805">
        <ele>85</ele>
        <time>2021-10-23T13:11:53Z</time>
      </trkpt>
      <trkpt lat="47.33997" lon="-1.58035">
        <ele>84</ele>
        <time>2021-10-23T13:11:55Z</time>
      </trkpt>
      <trkpt lat="47.33987" lon="-1.58019">
        <ele>84</ele>
        <time>2021-10-23T13:11:57Z</time>
      </trkpt>
      <trkpt lat="47.33977" lon="-1.58005">
        <ele>84</ele>
        <time>2021-10-23T13:11:59Z</time>
      </trkpt>
      <trkpt lat="47.33967" lon="-1.5799">
        <ele>84</ele>
        <time>2021-10-23T13:12:01Z</time>
      </trkpt>
      <trkpt lat="47.33956" lon="-1.57977">
        <ele>84</ele>
        <time>2021-10-23T13:12:03Z</time>
      </trkpt>
      <trkpt lat="47.33946" lon="-1.57963">
        <ele>84</ele>
        <time>2021-10-23T13:12:05Z</time>
      </trkpt>
      <trkpt lat="47.33936" lon="-1.57949">
        <ele>84</ele>
        <time>2021-10-23T13:12:07Z</time>
      </trkpt>
      <trkpt lat="47.33926" lon="-1.57936">
        <ele>84</ele>
        <time>2021-10-23T13:12:09Z</time>
      </trkpt>
      <trkpt lat="47.33917" lon="-1.57922">
        <ele>84</ele>
        <time>2021-10-23T13:12:11Z</time>
      </trkpt>
      <trkpt lat="47.33908" lon="-1.5791">
        <ele>85</ele>
        <time>2021-10-23T13:12:13Z</time>
      </trkpt>
      <trkpt lat="47.33898" lon="-1.57898">
        <ele>85</ele>
        <time>2021-10-23T13:12:15Z</time>
      </trkpt>
      <trkpt lat="47.33889" lon="-1.57887">
        <ele>85</ele>
        <time>2021-10-23T13:12:17Z</time>
      </trkpt>
      <trkpt lat="47.3388" lon="-1.57876">
        <ele>85</ele>
        <time>2021-10-23T13:12:19Z</time>
      </trkpt>
      <trkpt lat="47.33871" lon="-1.57865">
        <ele>86</ele>
        <time>2021-10-23T13:12:21Z</time>
      </trkpt>
      <trkpt lat="47.33863" lon="-1.57855">
        <ele>86</ele>
        <time>2021-10-23T13:12:23Z</time>
      </trkpt>
      <trkpt lat="47.33855" lon="-1.57848">
        <ele>86</ele>
        <time>2021-10-23T13:12:25Z</time>
      </trkpt>
      <trkpt lat="47.33846" lon="-1.57843">
        <ele>86</ele>
        <time>2021-10-23T13:12:27Z</time>
      </trkpt>
      <trkpt lat="47.33838" lon="-1.57832">
        <ele>86</ele>
        <time>2021-10-23T13:12:30Z</time>
      </trkpt>
      <trkpt lat="47.33836" lon="-1.57819">
        <ele>87</ele>
        <time>2021-10-23T13:12:32Z</time>
      </trkpt>
      <trkpt lat="47.33839" lon="-1.57804">
        <ele>87</ele>
        <time>2021-10-23T13:12:34Z</time>
      </trkpt>
      <trkpt lat="47.33844" lon="-1.57787">
        <ele>86</ele>
        <time>2021-10-23T13:12:36Z</time>
      </trkpt>
      <trkpt lat="47.33849" lon="-1.57771">
        <ele>86</ele>
        <time>2021-10-23T13:12:38Z</time>
      </trkpt>
      <trkpt lat="47.33854" lon="-1.57756">
        <ele>87</ele>
        <time>2021-10-23T13:12:40Z</time>
      </trkpt>
      <trkpt lat="47.33859" lon="-1.5774">
        <ele>87</ele>
        <time>2021-10-23T13:12:42Z</time>
      </trkpt>
      <trkpt lat="47.33863" lon="-1.57723">
        <ele>88</ele>
        <time>2021-10-23T13:12:44Z</time>
      </trkpt>
      <trkpt lat="47.33867" lon="-1.57707">
        <ele>88</ele>
        <time>2021-10-23T13:12:46Z</time>
      </trkpt>
      <trkpt lat="47.33872" lon="-1.57691">
        <ele>88</ele>
        <time>2021-10-23T13:12:48Z</time>
      </trkpt>
      <trkpt lat="47.33877" lon="-1.57675">
        <ele>88</ele>
        <time>2021-10-23T13:12:50Z</time>
      </trkpt>
      <trkpt lat="47.33881" lon="-1.57658">
        <ele>88</ele>
        <time>2021-10-23T13:12:52Z</time>
      </trkpt>
      <trkpt lat="47.33886" lon="-1.57643">
        <ele>88</ele>
        <time>2021-10-23T13:12:54Z</time>
      </trkpt>
      <trkpt lat="47.3389" lon="-1.57626">
        <ele>88</ele>
        <time>2021-10-23T13:12:56Z</time>
      </trkpt>
      <trkpt lat="47.33895" lon="-1.5761">
        <ele>88</ele>
        <time>2021-10-23T13:12:58Z</time>
      </trkpt>
      <trkpt lat="47.339" lon="-1.57594">
        <ele>88</ele>
        <time>2021-10-23T13:13:00Z</time>
      </trkpt>
      <trkpt lat="47.33905" lon="-1.57577">
        <ele>88</ele>
        <time>2021-10-23T13:13:02Z</time>
      </trkpt>
      <trkpt lat="47.33909" lon="-1.5756">
        <ele>88</ele>
        <time>2021-10-23T13:13:04Z</time>
      </trkpt>
      <trkpt lat="47.33914" lon="-1.57542">
        <ele>88</ele>
        <time>2021-10-23T13:13:06Z</time>
      </trkpt>
      <trkpt lat="47.33919" lon="-1.57524">
        <ele>88</ele>
        <time>2021-10-23T13:13:08Z</time>
      </trkpt>
      <trkpt lat="47.33924" lon="-1.57504">
        <ele>87</ele>
        <time>2021-10-23T13:13:10Z</time>
      </trkpt>
      <trkpt lat="47.3393" lon="-1.57486">
        <ele>87</ele>
        <time>2021-10-23T13:13:12Z</time>
      </trkpt>
      <trkpt lat="47.33936" lon="-1.57467">
        <ele>86</ele>
        <time>2021-10-23T13:13:14Z</time>
      </trkpt>
      <trkpt lat="47.33941" lon="-1.57447">
        <ele>86</ele>
        <time>2021-10-23T13:13:16Z</time>
      </trkpt>
      <trkpt lat="47.33947" lon="-1.57427">
        <ele>85</ele>
        <time>2021-10-23T13:13:18Z</time>
      </trkpt>
      <trkpt lat="47.33953" lon="-1.57407">
        <ele>85</ele>
        <time>2021-10-23T13:13:20Z</time>
      </trkpt>
      <trkpt lat="47.33959" lon="-1.57386">
        <ele>84</ele>
        <time>2021-10-23T13:13:22Z</time>
      </trkpt>
      <trkpt lat="47.33965" lon="-1.57365">
        <ele>83</ele>
        <time>2021-10-23T13:13:24Z</time>
      </trkpt>
      <trkpt lat="47.33971" lon="-1.57343">
        <ele>82</ele>
        <time>2021-10-23T13:13:26Z</time>
      </trkpt>
      <trkpt lat="47.33976" lon="-1.57321">
        <ele>81</ele>
        <time>2021-10-23T13:13:28Z</time>
      </trkpt>
      <trkpt lat="47.3398" lon="-1.57297">
        <ele>80</ele>
        <time>2021-10-23T13:13:30Z</time>
      </trkpt>
      <trkpt lat="47.33982" lon="-1.57273">
        <ele>80</ele>
        <time>2021-10-23T13:13:32Z</time>
      </trkpt>
      <trkpt lat="47.33984" lon="-1.57249">
        <ele>79</ele>
        <time>2021-10-23T13:13:34Z</time>
      </trkpt>
      <trkpt lat="47.33986" lon="-1.57225">
        <ele>79</ele>
        <time>2021-10-23T13:13:36Z</time>
      </trkpt>
      <trkpt lat="47.33988" lon="-1.57202">
        <ele>79</ele>
        <time>2021-10-23T13:13:38Z</time>
      </trkpt>
      <trkpt lat="47.3399" lon="-1.57179">
        <ele>78</ele>
        <time>2021-10-23T13:13:40Z</time>
      </trkpt>
      <trkpt lat="47.33991" lon="-1.57157">
        <ele>79</ele>
        <time>2021-10-23T13:13:42Z</time>
      </trkpt>
      <trkpt lat="47.33992" lon="-1.57135">
        <ele>78</ele>
        <time>2021-10-23T13:13:44Z</time>
      </trkpt>
      <trkpt lat="47.33992" lon="-1.57113">
        <ele>78</ele>
        <time>2021-10-23T13:13:46Z</time>
      </trkpt>
      <trkpt lat="47.33991" lon="-1.57091">
        <ele>78</ele>
        <time>2021-10-23T13:13:48Z</time>
      </trkpt>
      <trkpt lat="47.33991" lon="-1.57068">
        <ele>78</ele>
        <time>2021-10-23T13:13:50Z</time>
      </trkpt>
      <trkpt lat="47.33991" lon="-1.57044">
        <ele>78</ele>
        <time>2021-10-23T13:13:52Z</time>
      </trkpt>
      <trkpt lat="47.33991" lon="-1.5702">
        <ele>77</ele>
        <time>2021-10-23T13:13:54Z</time>
      </trkpt>
      <trkpt lat="47.33992" lon="-1.56997">
        <ele>77</ele>
        <time>2021-10-23T13:13:56Z</time>
      </trkpt>
      <trkpt lat="47.33993" lon="-1.56974">
        <ele>76</ele>
        <time>2021-10-23T13:13:58Z</time>
      </trkpt>
      <trkpt lat="47.33994" lon="-1.56949">
        <ele>75</ele>
        <time>2021-10-23T13:14:00Z</time>
      </trkpt>
      <trkpt lat="47.33995" lon="-1.56925">
        <ele>75</ele>
        <time>2021-10-23T13:14:02Z</time>
      </trkpt>
      <trkpt lat="47.33996" lon="-1.569">
        <ele>74</ele>
        <time>2021-10-23T13:14:04Z</time>
      </trkpt>
      <trkpt lat="47.33997" lon="-1.56875">
        <ele>74</ele>
        <time>2021-10-23T13:14:06Z</time>
      </trkpt>
      <trkpt lat="47.33998" lon="-1.56851">
        <ele>74</ele>
        <time>2021-10-23T13:14:08Z</time>
      </trkpt>
      <trkpt lat="47.33999" lon="-1.56829">
        <ele>73</ele>
        <time>2021-10-23T13:14:10Z</time>
      </trkpt>
      <trkpt lat="47.34" lon="-1.56809">
        <ele>73</ele>
        <time>2021-10-23T13:14:12Z</time>
      </trkpt>
      <trkpt lat="47.34001" lon="-1.56791">
        <ele>73</ele>
        <time>2021-10-23T13:14:14Z</time>
      </trkpt>
      <trkpt lat="47.34002" lon="-1.56772">
        <ele>74</ele>
        <time>2021-10-23T13:14:16Z</time>
      </trkpt>
      <trkpt lat="47.34003" lon="-1.56753">
        <ele>74</ele>
        <time>2021-10-23T13:14:18Z</time>
      </trkpt>
      <trkpt lat="47.34004" lon="-1.56734">
        <ele>74</ele>
        <time>2021-10-23T13:14:20Z</time>
      </trkpt>
      <trkpt lat="47.34005" lon="-1.56716">
        <ele>74</ele>
        <time>2021-10-23T13:14:22Z</time>
      </trkpt>
      <trkpt lat="47.34006" lon="-1.56697">
        <ele>74</ele>
        <time>2021-10-23T13:14:24Z</time>
      </trkpt>
      <trkpt lat="47.34007" lon="-1.56677">
        <ele>74</ele>
        <time>2021-10-23T13:14:26Z</time>
      </trkpt>
      <trkpt lat="47.34008" lon="-1.56657">
        <ele>73</ele>
        <time>2021-10-23T13:14:28Z</time>
      </trkpt>
      <trkpt lat="47.34009" lon="-1.56636">
        <ele>73</ele>
        <time>2021-10-23T13:14:30Z</time>
      </trkpt>
      <trkpt lat="47.3401" lon="-1.56616">
        <ele>72</ele>
        <time>2021-10-23T13:14:32Z</time>
      </trkpt>
      <trkpt lat="47.3401" lon="-1.56594">
        <ele>72</ele>
        <time>2021-10-23T13:14:34Z</time>
      </trkpt>
      <trkpt lat="47.34011" lon="-1.56573">
        <ele>72</ele>
        <time>2021-10-23T13:14:36Z</time>
      </trkpt>
      <trkpt lat="47.34012" lon="-1.56549">
        <ele>71</ele>
        <time>2021-10-23T13:14:38Z</time>
      </trkpt>
      <trkpt lat="47.34013" lon="-1.56526">
        <ele>70</ele>
        <time>2021-10-23T13:14:40Z</time>
      </trkpt>
      <trkpt lat="47.34014" lon="-1.56503">
        <ele>69</ele>
        <time>2021-10-23T13:14:42Z</time>
      </trkpt>
      <trkpt lat="47.34015" lon="-1.5648">
        <ele>69</ele>
        <time>2021-10-23T13:14:44Z</time>
      </trkpt>
      <trkpt lat="47.34017" lon="-1.56458">
        <ele>69</ele>
        <time>2021-10-23T13:14:46Z</time>
      </trkpt>
      <trkpt lat="47.34017" lon="-1.56436">
        <ele>69</ele>
        <time>2021-10-23T13:14:48Z</time>
      </trkpt>
      <trkpt lat="47.34018" lon="-1.56414">
        <ele>69</ele>
        <time>2021-10-23T13:14:50Z</time>
      </trkpt>
      <trkpt lat="47.34019" lon="-1.56392">
        <ele>69</ele>
        <time>2021-10-23T13:14:52Z</time>
      </trkpt>
      <trkpt lat="47.34019" lon="-1.56372">
        <ele>70</ele>
        <time>2021-10-23T13:14:54Z</time>
      </trkpt>
      <trkpt lat="47.34018" lon="-1.56352">
        <ele>70</ele>
        <time>2021-10-23T13:14:56Z</time>
      </trkpt>
      <trkpt lat="47.34016" lon="-1.56331">
        <ele>71</ele>
        <time>2021-10-23T13:14:58Z</time>
      </trkpt>
      <trkpt lat="47.34013" lon="-1.56311">
        <ele>71</ele>
        <time>2021-10-23T13:15:00Z</time>
      </trkpt>
      <trkpt lat="47.3401" lon="-1.56291">
        <ele>70</ele>
        <time>2021-10-23T13:15:02Z</time>
      </trkpt>
      <trkpt lat="47.34006" lon="-1.56269">
        <ele>70</ele>
        <time>2021-10-23T13:15:04Z</time>
      </trkpt>
      <trkpt lat="47.34003" lon="-1.56247">
        <ele>70</ele>
        <time>2021-10-23T13:15:06Z</time>
      </trkpt>
      <trkpt lat="47.34" lon="-1.56224">
        <ele>69</ele>
        <time>2021-10-23T13:15:08Z</time>
      </trkpt>
      <trkpt lat="47.33996" lon="-1.56201">
        <ele>69</ele>
        <time>2021-10-23T13:15:10Z</time>
      </trkpt>
      <trkpt lat="47.33993" lon="-1.56177">
        <ele>69</ele>
        <time>2021-10-23T13:15:12Z</time>
      </trkpt>
      <trkpt lat="47.33992" lon="-1.56164">
        <ele>68</ele>
        <time>2021-10-23T13:15:13Z</time>
      </trkpt>
      <trkpt lat="47.3399" lon="-1.56151">
        <ele>68</ele>
        <time>2021-10-23T13:15:14Z</time>
      </trkpt>
      <trkpt lat="47.33987" lon="-1.56125">
        <ele>67</ele>
        <time>2021-10-23T13:15:16Z</time>
      </trkpt>
      <trkpt lat="47.33984" lon="-1.56099">
        <ele>67</ele>
        <time>2021-10-23T13:15:18Z</time>
      </trkpt>
      <trkpt lat="47.33982" lon="-1.56085">
        <ele>66</ele>
        <time>2021-10-23T13:15:19Z</time>
      </trkpt>
      <trkpt lat="47.33981" lon="-1.56059">
        <ele>65</ele>
        <time>2021-10-23T13:15:21Z</time>
      </trkpt>
      <trkpt lat="47.33981" lon="-1.56046">
        <ele>65</ele>
        <time>2021-10-23T13:15:22Z</time>
      </trkpt>
      <trkpt lat="47.33984" lon="-1.56033">
        <ele>65</ele>
        <time>2021-10-23T13:15:23Z</time>
      </trkpt>
      <trkpt lat="47.33988" lon="-1.5602">
        <ele>64</ele>
        <time>2021-10-23T13:15:24Z</time>
      </trkpt>
      <trkpt lat="47.33993" lon="-1.56008">
        <ele>63</ele>
        <time>2021-10-23T13:15:25Z</time>
      </trkpt>
      <trkpt lat="47.34" lon="-1.55998">
        <ele>62</ele>
        <time>2021-10-23T13:15:26Z</time>
      </trkpt>
      <trkpt lat="47.34007" lon="-1.55988">
        <ele>62</ele>
        <time>2021-10-23T13:15:27Z</time>
      </trkpt>
      <trkpt lat="47.34014" lon="-1.55978">
        <ele>62</ele>
        <time>2021-10-23T13:15:28Z</time>
      </trkpt>
      <trkpt lat="47.34021" lon="-1.55969">
        <ele>62</ele>
        <time>2021-10-23T13:15:29Z</time>
      </trkpt>
      <trkpt lat="47.34028" lon="-1.5596">
        <ele>62</ele>
        <time>2021-10-23T13:15:30Z</time>
      </trkpt>
      <trkpt lat="47.34036" lon="-1.55952">
        <ele>62</ele>
        <time>2021-10-23T13:15:31Z</time>
      </trkpt>
      <trkpt lat="47.34043" lon="-1.55943">
        <ele>62</ele>
        <time>2021-10-23T13:15:32Z</time>
      </trkpt>
      <trkpt lat="47.34056" lon="-1.55926">
        <ele>60</ele>
        <time>2021-10-23T13:15:34Z</time>
      </trkpt>
      <trkpt lat="47.34064" lon="-1.55905">
        <ele>59</ele>
        <time>2021-10-23T13:15:36Z</time>
      </trkpt>
      <trkpt lat="47.34067" lon="-1.55885">
        <ele>58</ele>
        <time>2021-10-23T13:15:38Z</time>
      </trkpt>
      <trkpt lat="47.34064" lon="-1.55868">
        <ele>59</ele>
        <time>2021-10-23T13:15:40Z</time>
      </trkpt>
      <trkpt lat="47.3406" lon="-1.55852">
        <ele>59</ele>
        <time>2021-10-23T13:15:42Z</time>
      </trkpt>
      <trkpt lat="47.34057" lon="-1.55837">
        <ele>59</ele>
        <time>2021-10-23T13:15:44Z</time>
      </trkpt>
      <trkpt lat="47.34055" lon="-1.55821">
        <ele>59</ele>
        <time>2021-10-23T13:15:46Z</time>
      </trkpt>
      <trkpt lat="47.34053" lon="-1.55807">
        <ele>59</ele>
        <time>2021-10-23T13:15:48Z</time>
      </trkpt>
      <trkpt lat="47.34052" lon="-1.55792">
        <ele>59</ele>
        <time>2021-10-23T13:15:50Z</time>
      </trkpt>
      <trkpt lat="47.34052" lon="-1.55777">
        <ele>60</ele>
        <time>2021-10-23T13:15:52Z</time>
      </trkpt>
      <trkpt lat="47.34053" lon="-1.55761">
        <ele>60</ele>
        <time>2021-10-23T13:15:54Z</time>
      </trkpt>
      <trkpt lat="47.34055" lon="-1.55746">
        <ele>61</ele>
        <time>2021-10-23T13:15:56Z</time>
      </trkpt>
      <trkpt lat="47.34057" lon="-1.5573">
        <ele>62</ele>
        <time>2021-10-23T13:15:58Z</time>
      </trkpt>
      <trkpt lat="47.34061" lon="-1.55714">
        <ele>62</ele>
        <time>2021-10-23T13:16:00Z</time>
      </trkpt>
      <trkpt lat="47.34064" lon="-1.55697">
        <ele>63</ele>
        <time>2021-10-23T13:16:02Z</time>
      </trkpt>
      <trkpt lat="47.34068" lon="-1.5568">
        <ele>63</ele>
        <time>2021-10-23T13:16:04Z</time>
      </trkpt>
      <trkpt lat="47.34071" lon="-1.55663">
        <ele>63</ele>
        <time>2021-10-23T13:16:06Z</time>
      </trkpt>
      <trkpt lat="47.34075" lon="-1.55647">
        <ele>63</ele>
        <time>2021-10-23T13:16:08Z</time>
      </trkpt>
      <trkpt lat="47.34078" lon="-1.55631">
        <ele>64</ele>
        <time>2021-10-23T13:16:10Z</time>
      </trkpt>
      <trkpt lat="47.34082" lon="-1.55614">
        <ele>63</ele>
        <time>2021-10-23T13:16:12Z</time>
      </trkpt>
      <trkpt lat="47.34086" lon="-1.55597">
        <ele>63</ele>
        <time>2021-10-23T13:16:14Z</time>
      </trkpt>
      <trkpt lat="47.3409" lon="-1.55581">
        <ele>63</ele>
        <time>2021-10-23T13:16:16Z</time>
      </trkpt>
      <trkpt lat="47.34095" lon="-1.55566">
        <ele>64</ele>
        <time>2021-10-23T13:16:18Z</time>
      </trkpt>
      <trkpt lat="47.341" lon="-1.5555">
        <ele>64</ele>
        <time>2021-10-23T13:16:20Z</time>
      </trkpt>
      <trkpt lat="47.34106" lon="-1.55533">
        <ele>65</ele>
        <time>2021-10-23T13:16:22Z</time>
      </trkpt>
      <trkpt lat="47.34114" lon="-1.55519">
        <ele>64</ele>
        <time>2021-10-23T13:16:24Z</time>
      </trkpt>
      <trkpt lat="47.34121" lon="-1.55503">
        <ele>65</ele>
        <time>2021-10-23T13:16:26Z</time>
      </trkpt>
      <trkpt lat="47.34129" lon="-1.55489">
        <ele>65</ele>
        <time>2021-10-23T13:16:28Z</time>
      </trkpt>
      <trkpt lat="47.34137" lon="-1.55476">
        <ele>66</ele>
        <time>2021-10-23T13:16:30Z</time>
      </trkpt>
      <trkpt lat="47.34145" lon="-1.55463">
        <ele>66</ele>
        <time>2021-10-23T13:16:32Z</time>
      </trkpt>
      <trkpt lat="47.34152" lon="-1.5545">
        <ele>66</ele>
        <time>2021-10-23T13:16:34Z</time>
      </trkpt>
      <trkpt lat="47.34161" lon="-1.55437">
        <ele>66</ele>
        <time>2021-10-23T13:16:36Z</time>
      </trkpt>
      <trkpt lat="47.34169" lon="-1.55425">
        <ele>66</ele>
        <time>2021-10-23T13:16:38Z</time>
      </trkpt>
      <trkpt lat="47.34177" lon="-1.55412">
        <ele>66</ele>
        <time>2021-10-23T13:16:40Z</time>
      </trkpt>
      <trkpt lat="47.34186" lon="-1.554">
        <ele>67</ele>
        <time>2021-10-23T13:16:42Z</time>
      </trkpt>
      <trkpt lat="47.34195" lon="-1.55388">
        <ele>66</ele>
        <time>2021-10-23T13:16:44Z</time>
      </trkpt>
      <trkpt lat="47.34203" lon="-1.55376">
        <ele>66</ele>
        <time>2021-10-23T13:16:46Z</time>
      </trkpt>
      <trkpt lat="47.34211" lon="-1.55363">
        <ele>66</ele>
        <time>2021-10-23T13:16:48Z</time>
      </trkpt>
      <trkpt lat="47.3422" lon="-1.55351">
        <ele>65</ele>
        <time>2021-10-23T13:16:50Z</time>
      </trkpt>
      <trkpt lat="47.34229" lon="-1.55338">
        <ele>65</ele>
        <time>2021-10-23T13:16:52Z</time>
      </trkpt>
      <trkpt lat="47.34238" lon="-1.55324">
        <ele>65</ele>
        <time>2021-10-23T13:16:54Z</time>
      </trkpt>
      <trkpt lat="47.34248" lon="-1.5531">
        <ele>65</ele>
        <time>2021-10-23T13:16:56Z</time>
      </trkpt>
      <trkpt lat="47.34257" lon="-1.55296">
        <ele>64</ele>
        <time>2021-10-23T13:16:58Z</time>
      </trkpt>
      <trkpt lat="47.34267" lon="-1.55281">
        <ele>64</ele>
        <time>2021-10-23T13:17:00Z</time>
      </trkpt>
      <trkpt lat="47.34278" lon="-1.55265">
        <ele>63</ele>
        <time>2021-10-23T13:17:02Z</time>
      </trkpt>
      <trkpt lat="47.34288" lon="-1.55247">
        <ele>63</ele>
        <time>2021-10-23T13:17:04Z</time>
      </trkpt>
      <trkpt lat="47.34296" lon="-1.55228">
        <ele>63</ele>
        <time>2021-10-23T13:17:06Z</time>
      </trkpt>
      <trkpt lat="47.34303" lon="-1.55205">
        <ele>62</ele>
        <time>2021-10-23T13:17:08Z</time>
      </trkpt>
      <trkpt lat="47.34308" lon="-1.55182">
        <ele>60</ele>
        <time>2021-10-23T13:17:10Z</time>
      </trkpt>
      <trkpt lat="47.34311" lon="-1.55159">
        <ele>60</ele>
        <time>2021-10-23T13:17:12Z</time>
      </trkpt>
      <trkpt lat="47.34313" lon="-1.55135">
        <ele>59</ele>
        <time>2021-10-23T13:17:14Z</time>
      </trkpt>
      <trkpt lat="47.34315" lon="-1.5511">
        <ele>58</ele>
        <time>2021-10-23T13:17:16Z</time>
      </trkpt>
      <trkpt lat="47.34317" lon="-1.55087">
        <ele>58</ele>
        <time>2021-10-23T13:17:18Z</time>
      </trkpt>
      <trkpt lat="47.34319" lon="-1.55064">
        <ele>58</ele>
        <time>2021-10-23T13:17:20Z</time>
      </trkpt>
      <trkpt lat="47.34321" lon="-1.55044">
        <ele>59</ele>
        <time>2021-10-23T13:17:22Z</time>
      </trkpt>
      <trkpt lat="47.34322" lon="-1.55027">
        <ele>59</ele>
        <time>2021-10-23T13:17:24Z</time>
      </trkpt>
      <trkpt lat="47.34324" lon="-1.55012">
        <ele>60</ele>
        <time>2021-10-23T13:17:26Z</time>
      </trkpt>
      <trkpt lat="47.34325" lon="-1.54998">
        <ele>60</ele>
        <time>2021-10-23T13:17:28Z</time>
      </trkpt>
      <trkpt lat="47.34327" lon="-1.54985">
        <ele>60</ele>
        <time>2021-10-23T13:17:30Z</time>
      </trkpt>
      <trkpt lat="47.34328" lon="-1.54966">
        <ele>61</ele>
        <time>2021-10-23T13:17:33Z</time>
      </trkpt>
      <trkpt lat="47.34329" lon="-1.54952">
        <ele>61</ele>
        <time>2021-10-23T13:17:35Z</time>
      </trkpt>
      <trkpt lat="47.34331" lon="-1.54933">
        <ele>62</ele>
        <time>2021-10-23T13:17:38Z</time>
      </trkpt>
      <trkpt lat="47.34333" lon="-1.54914">
        <ele>63</ele>
        <time>2021-10-23T13:17:41Z</time>
      </trkpt>
      <trkpt lat="47.34335" lon="-1.54901">
        <ele>63</ele>
        <time>2021-10-23T13:17:43Z</time>
      </trkpt>
      <trkpt lat="47.34336" lon="-1.54881">
        <ele>64</ele>
        <time>2021-10-23T13:17:46Z</time>
      </trkpt>
      <trkpt lat="47.34338" lon="-1.54862">
        <ele>65</ele>
        <time>2021-10-23T13:17:49Z</time>
      </trkpt>
      <trkpt lat="47.34339" lon="-1.54843">
        <ele>65</ele>
        <time>2021-10-23T13:17:52Z</time>
      </trkpt>
      <trkpt lat="47.34341" lon="-1.54825">
        <ele>66</ele>
        <time>2021-10-23T13:17:55Z</time>
      </trkpt>
      <trkpt lat="47.34342" lon="-1.54807">
        <ele>67</ele>
        <time>2021-10-23T13:17:58Z</time>
      </trkpt>
      <trkpt lat="47.34344" lon="-1.54788">
        <ele>68</ele>
        <time>2021-10-23T13:18:01Z</time>
      </trkpt>
      <trkpt lat="47.34346" lon="-1.5477">
        <ele>69</ele>
        <time>2021-10-23T13:18:04Z</time>
      </trkpt>
      <trkpt lat="47.3435" lon="-1.54752">
        <ele>70</ele>
        <time>2021-10-23T13:18:07Z</time>
      </trkpt>
      <trkpt lat="47.34355" lon="-1.54735">
        <ele>71</ele>
        <time>2021-10-23T13:18:10Z</time>
      </trkpt>
      <trkpt lat="47.34362" lon="-1.5472">
        <ele>71</ele>
        <time>2021-10-23T13:18:13Z</time>
      </trkpt>
      <trkpt lat="47.34371" lon="-1.54708">
        <ele>72</ele>
        <time>2021-10-23T13:18:16Z</time>
      </trkpt>
      <trkpt lat="47.3438" lon="-1.54696">
        <ele>73</ele>
        <time>2021-10-23T13:18:19Z</time>
      </trkpt>
      <trkpt lat="47.3439" lon="-1.54685">
        <ele>73</ele>
        <time>2021-10-23T13:18:22Z</time>
      </trkpt>
      <trkpt lat="47.34401" lon="-1.54674">
        <ele>73</ele>
        <time>2021-10-23T13:18:25Z</time>
      </trkpt>
      <trkpt lat="47.34411" lon="-1.54662">
        <ele>74</ele>
        <time>2021-10-23T13:18:28Z</time>
      </trkpt>
      <trkpt lat="47.34417" lon="-1.54652">
        <ele>74</ele>
        <time>2021-10-23T13:18:30Z</time>
      </trkpt>
      <trkpt lat="47.34424" lon="-1.54635">
        <ele>75</ele>
        <time>2021-10-23T13:18:33Z</time>
      </trkpt>
      <trkpt lat="47.34427" lon="-1.54617">
        <ele>75</ele>
        <time>2021-10-23T13:18:36Z</time>
      </trkpt>
      <trkpt lat="47.34426" lon="-1.54597">
        <ele>76</ele>
        <time>2021-10-23T13:18:39Z</time>
      </trkpt>
      <trkpt lat="47.34424" lon="-1.54584">
        <ele>76</ele>
        <time>2021-10-23T13:18:41Z</time>
      </trkpt>
      <trkpt lat="47.34421" lon="-1.54566">
        <ele>77</ele>
        <time>2021-10-23T13:18:44Z</time>
      </trkpt>
      <trkpt lat="47.34418" lon="-1.54547">
        <ele>77</ele>
        <time>2021-10-23T13:18:47Z</time>
      </trkpt>
      <trkpt lat="47.34413" lon="-1.54528">
        <ele>78</ele>
        <time>2021-10-23T13:18:50Z</time>
      </trkpt>
      <trkpt lat="47.3441" lon="-1.5451">
        <ele>78</ele>
        <time>2021-10-23T13:18:53Z</time>
      </trkpt>
      <trkpt lat="47.34407" lon="-1.54491">
        <ele>79</ele>
        <time>2021-10-23T13:18:56Z</time>
      </trkpt>
      <trkpt lat="47.34403" lon="-1.54473">
        <ele>79</ele>
        <time>2021-10-23T13:18:59Z</time>
      </trkpt>
      <trkpt lat="47.34399" lon="-1.54454">
        <ele>80</ele>
        <time>2021-10-23T13:19:02Z</time>
      </trkpt>
      <trkpt lat="47.34395" lon="-1.54436">
        <ele>80</ele>
        <time>2021-10-23T13:19:05Z</time>
      </trkpt>
      <trkpt lat="47.34391" lon="-1.54417">
        <ele>80</ele>
        <time>2021-10-23T13:19:08Z</time>
      </trkpt>
      <trkpt lat="47.34387" lon="-1.54399">
        <ele>81</ele>
        <time>2021-10-23T13:19:11Z</time>
      </trkpt>
      <trkpt lat="47.34382" lon="-1.54381">
        <ele>82</ele>
        <time>2021-10-23T13:19:14Z</time>
      </trkpt>
      <trkpt lat="47.34377" lon="-1.54363">
        <ele>82</ele>
        <time>2021-10-23T13:19:17Z</time>
      </trkpt>
      <trkpt lat="47.34373" lon="-1.54351">
        <ele>83</ele>
        <time>2021-10-23T13:19:19Z</time>
      </trkpt>
      <trkpt lat="47.34369" lon="-1.54339">
        <ele>83</ele>
        <time>2021-10-23T13:19:21Z</time>
      </trkpt>
      <trkpt lat="47.34365" lon="-1.54327">
        <ele>83</ele>
        <time>2021-10-23T13:19:23Z</time>
      </trkpt>
      <trkpt lat="47.34361" lon="-1.54315">
        <ele>84</ele>
        <time>2021-10-23T13:19:25Z</time>
      </trkpt>
      <trkpt lat="47.34356" lon="-1.54303">
        <ele>84</ele>
        <time>2021-10-23T13:19:27Z</time>
      </trkpt>
      <trkpt lat="47.34352" lon="-1.5429">
        <ele>84</ele>
        <time>2021-10-23T13:19:29Z</time>
      </trkpt>
      <trkpt lat="47.34347" lon="-1.54278">
        <ele>85</ele>
        <time>2021-10-23T13:19:31Z</time>
      </trkpt>
      <trkpt lat="47.34342" lon="-1.54265">
        <ele>85</ele>
        <time>2021-10-23T13:19:33Z</time>
      </trkpt>
      <trkpt lat="47.34336" lon="-1.54252">
        <ele>84</ele>
        <time>2021-10-23T13:19:35Z</time>
      </trkpt>
      <trkpt lat="47.34331" lon="-1.54238">
        <ele>84</ele>
        <time>2021-10-23T13:19:37Z</time>
      </trkpt>
      <trkpt lat="47.3432" lon="-1.54216">
        <ele>84</ele>
        <time>2021-10-23T13:19:40Z</time>
      </trkpt>
      <trkpt lat="47.34313" lon="-1.542">
        <ele>83</ele>
        <time>2021-10-23T13:19:42Z</time>
      </trkpt>
      <trkpt lat="47.34307" lon="-1.54184">
        <ele>83</ele>
        <time>2021-10-23T13:19:44Z</time>
      </trkpt>
      <trkpt lat="47.34301" lon="-1.54167">
        <ele>83</ele>
        <time>2021-10-23T13:19:46Z</time>
      </trkpt>
      <trkpt lat="47.34297" lon="-1.5415">
        <ele>83</ele>
        <time>2021-10-23T13:19:48Z</time>
      </trkpt>
      <trkpt lat="47.34293" lon="-1.54131">
        <ele>82</ele>
        <time>2021-10-23T13:19:50Z</time>
      </trkpt>
      <trkpt lat="47.3429" lon="-1.54112">
        <ele>82</ele>
        <time>2021-10-23T13:19:52Z</time>
      </trkpt>
      <trkpt lat="47.34287" lon="-1.54093">
        <ele>82</ele>
        <time>2021-10-23T13:19:54Z</time>
      </trkpt>
      <trkpt lat="47.34284" lon="-1.54073">
        <ele>81</ele>
        <time>2021-10-23T13:19:56Z</time>
      </trkpt>
      <trkpt lat="47.34281" lon="-1.54053">
        <ele>81</ele>
        <time>2021-10-23T13:19:58Z</time>
      </trkpt>
      <trkpt lat="47.34277" lon="-1.54033">
        <ele>80</ele>
        <time>2021-10-23T13:20:00Z</time>
      </trkpt>
      <trkpt lat="47.34272" lon="-1.54014">
        <ele>80</ele>
        <time>2021-10-23T13:20:02Z</time>
      </trkpt>
      <trkpt lat="47.34266" lon="-1.53996">
        <ele>80</ele>
        <time>2021-10-23T13:20:04Z</time>
      </trkpt>
      <trkpt lat="47.34258" lon="-1.5398">
        <ele>80</ele>
        <time>2021-10-23T13:20:06Z</time>
      </trkpt>
      <trkpt lat="47.34252" lon="-1.53964">
        <ele>80</ele>
        <time>2021-10-23T13:20:08Z</time>
      </trkpt>
      <trkpt lat="47.34246" lon="-1.53946">
        <ele>80</ele>
        <time>2021-10-23T13:20:10Z</time>
      </trkpt>
      <trkpt lat="47.34239" lon="-1.53931">
        <ele>80</ele>
        <time>2021-10-23T13:20:12Z</time>
      </trkpt>
      <trkpt lat="47.34231" lon="-1.53916">
        <ele>80</ele>
        <time>2021-10-23T13:20:14Z</time>
      </trkpt>
      <trkpt lat="47.34222" lon="-1.53902">
        <ele>80</ele>
        <time>2021-10-23T13:20:16Z</time>
      </trkpt>
      <trkpt lat="47.34213" lon="-1.5389">
        <ele>80</ele>
        <time>2021-10-23T13:20:18Z</time>
      </trkpt>
      <trkpt lat="47.34204" lon="-1.53877">
        <ele>80</ele>
        <time>2021-10-23T13:20:20Z</time>
      </trkpt>
      <trkpt lat="47.34194" lon="-1.53866">
        <ele>81</ele>
        <time>2021-10-23T13:20:22Z</time>
      </trkpt>
      <trkpt lat="47.34184" lon="-1.53855">
        <ele>81</ele>
        <time>2021-10-23T13:20:24Z</time>
      </trkpt>
      <trkpt lat="47.34174" lon="-1.53845">
        <ele>81</ele>
        <time>2021-10-23T13:20:26Z</time>
      </trkpt>
      <trkpt lat="47.34163" lon="-1.53837">
        <ele>81</ele>
        <time>2021-10-23T13:20:28Z</time>
      </trkpt>
      <trkpt lat="47.34152" lon="-1.53826">
        <ele>81</ele>
        <time>2021-10-23T13:20:30Z</time>
      </trkpt>
      <trkpt lat="47.34142" lon="-1.53815">
        <ele>80</ele>
        <time>2021-10-23T13:20:32Z</time>
      </trkpt>
      <trkpt lat="47.34131" lon="-1.53804">
        <ele>80</ele>
        <time>2021-10-23T13:20:34Z</time>
      </trkpt>
      <trkpt lat="47.34121" lon="-1.53792">
        <ele>80</ele>
        <time>2021-10-23T13:20:36Z</time>
      </trkpt>
      <trkpt lat="47.34111" lon="-1.53781">
        <ele>80</ele>
        <time>2021-10-23T13:20:38Z</time>
      </trkpt>
      <trkpt lat="47.34101" lon="-1.5377">
        <ele>80</ele>
        <time>2021-10-23T13:20:40Z</time>
      </trkpt>
      <trkpt lat="47.3409" lon="-1.53759">
        <ele>80</ele>
        <time>2021-10-23T13:20:42Z</time>
      </trkpt>
      <trkpt lat="47.3408" lon="-1.53749">
        <ele>80</ele>
        <time>2021-10-23T13:20:44Z</time>
      </trkpt>
      <trkpt lat="47.3407" lon="-1.53739">
        <ele>80</ele>
        <time>2021-10-23T13:20:46Z</time>
      </trkpt>
      <trkpt lat="47.34059" lon="-1.53728">
        <ele>80</ele>
        <time>2021-10-23T13:20:48Z</time>
      </trkpt>
      <trkpt lat="47.34049" lon="-1.53717">
        <ele>80</ele>
        <time>2021-10-23T13:20:50Z</time>
      </trkpt>
      <trkpt lat="47.34038" lon="-1.53706">
        <ele>80</ele>
        <time>2021-10-23T13:20:52Z</time>
      </trkpt>
      <trkpt lat="47.34027" lon="-1.53694">
        <ele>80</ele>
        <time>2021-10-23T13:20:54Z</time>
      </trkpt>
      <trkpt lat="47.34016" lon="-1.53683">
        <ele>79</ele>
        <time>2021-10-23T13:20:56Z</time>
      </trkpt>
      <trkpt lat="47.34004" lon="-1.53671">
        <ele>79</ele>
        <time>2021-10-23T13:20:58Z</time>
      </trkpt>
      <trkpt lat="47.33993" lon="-1.53659">
        <ele>78</ele>
        <time>2021-10-23T13:21:00Z</time>
      </trkpt>
      <trkpt lat="47.33981" lon="-1.53648">
        <ele>78</ele>
        <time>2021-10-23T13:21:02Z</time>
      </trkpt>
      <trkpt lat="47.33968" lon="-1.53636">
        <ele>78</ele>
        <time>2021-10-23T13:21:04Z</time>
      </trkpt>
      <trkpt lat="47.33956" lon="-1.53623">
        <ele>77</ele>
        <time>2021-10-23T13:21:06Z</time>
      </trkpt>
      <trkpt lat="47.33944" lon="-1.53611">
        <ele>78</ele>
        <time>2021-10-23T13:21:08Z</time>
      </trkpt>
      <trkpt lat="47.33932" lon="-1.53597">
        <ele>77</ele>
        <time>2021-10-23T13:21:10Z</time>
      </trkpt>
      <trkpt lat="47.33921" lon="-1.53581">
        <ele>77</ele>
        <time>2021-10-23T13:21:12Z</time>
      </trkpt>
      <trkpt lat="47.33913" lon="-1.5356">
        <ele>76</ele>
        <time>2021-10-23T13:21:14Z</time>
      </trkpt>
      <trkpt lat="47.33911" lon="-1.53537">
        <ele>75</ele>
        <time>2021-10-23T13:21:16Z</time>
      </trkpt>
      <trkpt lat="47.33911" lon="-1.53513">
        <ele>73</ele>
        <time>2021-10-23T13:21:18Z</time>
      </trkpt>
      <trkpt lat="47.33913" lon="-1.53488">
        <ele>72</ele>
        <time>2021-10-23T13:21:20Z</time>
      </trkpt>
      <trkpt lat="47.33913" lon="-1.53463">
        <ele>71</ele>
        <time>2021-10-23T13:21:22Z</time>
      </trkpt>
      <trkpt lat="47.33907" lon="-1.53439">
        <ele>70</ele>
        <time>2021-10-23T13:21:24Z</time>
      </trkpt>
      <trkpt lat="47.33899" lon="-1.53419">
        <ele>69</ele>
        <time>2021-10-23T13:21:26Z</time>
      </trkpt>
      <trkpt lat="47.33894" lon="-1.53396">
        <ele>69</ele>
        <time>2021-10-23T13:21:28Z</time>
      </trkpt>
      <trkpt lat="47.33895" lon="-1.53372">
        <ele>68</ele>
        <time>2021-10-23T13:21:30Z</time>
      </trkpt>
      <trkpt lat="47.33902" lon="-1.53349">
        <ele>67</ele>
        <time>2021-10-23T13:21:32Z</time>
      </trkpt>
      <trkpt lat="47.33912" lon="-1.53327">
        <ele>66</ele>
        <time>2021-10-23T13:21:34Z</time>
      </trkpt>
      <trkpt lat="47.33921" lon="-1.53305">
        <ele>65</ele>
        <time>2021-10-23T13:21:36Z</time>
      </trkpt>
      <trkpt lat="47.3393" lon="-1.53283">
        <ele>65</ele>
        <time>2021-10-23T13:21:38Z</time>
      </trkpt>
      <trkpt lat="47.33939" lon="-1.53262">
        <ele>64</ele>
        <time>2021-10-23T13:21:40Z</time>
      </trkpt>
      <trkpt lat="47.33947" lon="-1.53241">
        <ele>63</ele>
        <time>2021-10-23T13:21:42Z</time>
      </trkpt>
      <trkpt lat="47.33954" lon="-1.53222">
        <ele>62</ele>
        <time>2021-10-23T13:21:44Z</time>
      </trkpt>
      <trkpt lat="47.33956" lon="-1.53207">
        <ele>61</ele>
        <time>2021-10-23T13:21:47Z</time>
      </trkpt>
      <trkpt lat="47.3395" lon="-1.53193">
        <ele>61</ele>
        <time>2021-10-23T13:21:50Z</time>
      </trkpt>
      <trkpt lat="47.33943" lon="-1.53178">
        <ele>61</ele>
        <time>2021-10-23T13:21:52Z</time>
      </trkpt>
      <trkpt lat="47.33935" lon="-1.53163">
        <ele>60</ele>
        <time>2021-10-23T13:21:54Z</time>
      </trkpt>
      <trkpt lat="47.33927" lon="-1.53146">
        <ele>59</ele>
        <time>2021-10-23T13:21:56Z</time>
      </trkpt>
      <trkpt lat="47.33919" lon="-1.53129">
        <ele>59</ele>
        <time>2021-10-23T13:21:58Z</time>
      </trkpt>
      <trkpt lat="47.3391" lon="-1.53112">
        <ele>58</ele>
        <time>2021-10-23T13:22:00Z</time>
      </trkpt>
      <trkpt lat="47.33901" lon="-1.53095">
        <ele>57</ele>
        <time>2021-10-23T13:22:02Z</time>
      </trkpt>
      <trkpt lat="47.33894" lon="-1.5308">
        <ele>56</ele>
        <time>2021-10-23T13:22:04Z</time>
      </trkpt>
      <trkpt lat="47.33892" lon="-1.53066">
        <ele>56</ele>
        <time>2021-10-23T13:22:06Z</time>
      </trkpt>
      <trkpt lat="47.33898" lon="-1.53048">
        <ele>56</ele>
        <time>2021-10-23T13:22:08Z</time>
      </trkpt>
      <trkpt lat="47.33906" lon="-1.5303">
        <ele>55</ele>
        <time>2021-10-23T13:22:10Z</time>
      </trkpt>
      <trkpt lat="47.33913" lon="-1.53011">
        <ele>55</ele>
        <time>2021-10-23T13:22:12Z</time>
      </trkpt>
      <trkpt lat="47.3392" lon="-1.52992">
        <ele>54</ele>
        <time>2021-10-23T13:22:14Z</time>
      </trkpt>
      <trkpt lat="47.33927" lon="-1.52973">
        <ele>54</ele>
        <time>2021-10-23T13:22:16Z</time>
      </trkpt>
      <trkpt lat="47.33934" lon="-1.52955">
        <ele>55</ele>
        <time>2021-10-23T13:22:18Z</time>
      </trkpt>
      <trkpt lat="47.33939" lon="-1.52937">
        <ele>55</ele>
        <time>2021-10-23T13:22:20Z</time>
      </trkpt>
      <trkpt lat="47.33945" lon="-1.52922">
        <ele>55</ele>
        <time>2021-10-23T13:22:22Z</time>
      </trkpt>
      <trkpt lat="47.33951" lon="-1.52907">
        <ele>56</ele>
        <time>2021-10-23T13:22:24Z</time>
      </trkpt>
      <trkpt lat="47.33956" lon="-1.52893">
        <ele>55</ele>
        <time>2021-10-23T13:22:26Z</time>
      </trkpt>
      <trkpt lat="47.33961" lon="-1.5288">
        <ele>56</ele>
        <time>2021-10-23T13:22:28Z</time>
      </trkpt>
      <trkpt lat="47.33966" lon="-1.52868">
        <ele>56</ele>
        <time>2021-10-23T13:22:30Z</time>
      </trkpt>
      <trkpt lat="47.33966" lon="-1.52854">
        <ele>56</ele>
        <time>2021-10-23T13:22:33Z</time>
      </trkpt>
      <trkpt lat="47.33956" lon="-1.52847">
        <ele>56</ele>
        <time>2021-10-23T13:22:35Z</time>
      </trkpt>
      <trkpt lat="47.33944" lon="-1.52838">
        <ele>56</ele>
        <time>2021-10-23T13:22:37Z</time>
      </trkpt>
      <trkpt lat="47.33933" lon="-1.52828">
        <ele>56</ele>
        <time>2021-10-23T13:22:39Z</time>
      </trkpt>
      <trkpt lat="47.33921" lon="-1.52819">
        <ele>56</ele>
        <time>2021-10-23T13:22:41Z</time>
      </trkpt>
      <trkpt lat="47.3391" lon="-1.52807">
        <ele>55</ele>
        <time>2021-10-23T13:22:43Z</time>
      </trkpt>
      <trkpt lat="47.33908" lon="-1.52787">
        <ele>55</ele>
        <time>2021-10-23T13:22:45Z</time>
      </trkpt>
      <trkpt lat="47.33911" lon="-1.52769">
        <ele>55</ele>
        <time>2021-10-23T13:22:47Z</time>
      </trkpt>
      <trkpt lat="47.33915" lon="-1.52749">
        <ele>55</ele>
        <time>2021-10-23T13:22:49Z</time>
      </trkpt>
      <trkpt lat="47.33919" lon="-1.5273">
        <ele>55</ele>
        <time>2021-10-23T13:22:51Z</time>
      </trkpt>
      <trkpt lat="47.33921" lon="-1.52711">
        <ele>54</ele>
        <time>2021-10-23T13:22:53Z</time>
      </trkpt>
      <trkpt lat="47.33924" lon="-1.52692">
        <ele>55</ele>
        <time>2021-10-23T13:22:55Z</time>
      </trkpt>
      <trkpt lat="47.33927" lon="-1.52673">
        <ele>55</ele>
        <time>2021-10-23T13:22:57Z</time>
      </trkpt>
      <trkpt lat="47.3393" lon="-1.52655">
        <ele>55</ele>
        <time>2021-10-23T13:22:59Z</time>
      </trkpt>
      <trkpt lat="47.33933" lon="-1.52637">
        <ele>55</ele>
        <time>2021-10-23T13:23:01Z</time>
      </trkpt>
      <trkpt lat="47.33936" lon="-1.5262">
        <ele>55</ele>
        <time>2021-10-23T13:23:03Z</time>
      </trkpt>
      <trkpt lat="47.33933" lon="-1.52602">
        <ele>55</ele>
        <time>2021-10-23T13:23:06Z</time>
      </trkpt>
      <trkpt lat="47.33923" lon="-1.52596">
        <ele>55</ele>
        <time>2021-10-23T13:23:08Z</time>
      </trkpt>
      <trkpt lat="47.33913" lon="-1.52594">
        <ele>54</ele>
        <time>2021-10-23T13:23:10Z</time>
      </trkpt>
      <trkpt lat="47.33901" lon="-1.52589">
        <ele>54</ele>
        <time>2021-10-23T13:23:12Z</time>
      </trkpt>
      <trkpt lat="47.33889" lon="-1.52584">
        <ele>55</ele>
        <time>2021-10-23T13:23:14Z</time>
      </trkpt>
      <trkpt lat="47.33877" lon="-1.5258">
        <ele>56</ele>
        <time>2021-10-23T13:23:16Z</time>
      </trkpt>
      <trkpt lat="47.33865" lon="-1.52575">
        <ele>56</ele>
        <time>2021-10-23T13:23:18Z</time>
      </trkpt>
      <trkpt lat="47.33854" lon="-1.5257">
        <ele>56</ele>
        <time>2021-10-23T13:23:20Z</time>
      </trkpt>
      <trkpt lat="47.33842" lon="-1.52566">
        <ele>56</ele>
        <time>2021-10-23T13:23:22Z</time>
      </trkpt>
      <trkpt lat="47.33831" lon="-1.52561">
        <ele>57</ele>
        <time>2021-10-23T13:23:24Z</time>
      </trkpt>
      <trkpt lat="47.3382" lon="-1.52557">
        <ele>57</ele>
        <time>2021-10-23T13:23:26Z</time>
      </trkpt>
      <trkpt lat="47.33809" lon="-1.52553">
        <ele>58</ele>
        <time>2021-10-23T13:23:28Z</time>
      </trkpt>
      <trkpt lat="47.33797" lon="-1.52548">
        <ele>58</ele>
        <time>2021-10-23T13:23:30Z</time>
      </trkpt>
      <trkpt lat="47.33786" lon="-1.52545">
        <ele>59</ele>
        <time>2021-10-23T13:23:32Z</time>
      </trkpt>
      <trkpt lat="47.33776" lon="-1.5254">
        <ele>59</ele>
        <time>2021-10-23T13:23:34Z</time>
      </trkpt>
      <trkpt lat="47.33765" lon="-1.52536">
        <ele>58</ele>
        <time>2021-10-23T13:23:36Z</time>
      </trkpt>
      <trkpt lat="47.33753" lon="-1.52531">
        <ele>57</ele>
        <time>2021-10-23T13:23:38Z</time>
      </trkpt>
      <trkpt lat="47.3374" lon="-1.52526">
        <ele>57</ele>
        <time>2021-10-23T13:23:40Z</time>
      </trkpt>
      <trkpt lat="47.33727" lon="-1.52521">
        <ele>57</ele>
        <time>2021-10-23T13:23:42Z</time>
      </trkpt>
      <trkpt lat="47.33715" lon="-1.52512">
        <ele>57</ele>
        <time>2021-10-23T13:23:44Z</time>
      </trkpt>
      <trkpt lat="47.33706" lon="-1.52501">
        <ele>57</ele>
        <time>2021-10-23T13:23:46Z</time>
      </trkpt>
      <trkpt lat="47.33698" lon="-1.5249">
        <ele>56</ele>
        <time>2021-10-23T13:23:48Z</time>
      </trkpt>
      <trkpt lat="47.33692" lon="-1.52478">
        <ele>56</ele>
        <time>2021-10-23T13:23:50Z</time>
      </trkpt>
      <trkpt lat="47.33695" lon="-1.52463">
        <ele>57</ele>
        <time>2021-10-23T13:23:52Z</time>
      </trkpt>
      <trkpt lat="47.337" lon="-1.52448">
        <ele>57</ele>
        <time>2021-10-23T13:23:54Z</time>
      </trkpt>
      <trkpt lat="47.33703" lon="-1.52433">
        <ele>57</ele>
        <time>2021-10-23T13:23:56Z</time>
      </trkpt>
      <trkpt lat="47.33706" lon="-1.5242">
        <ele>57</ele>
        <time>2021-10-23T13:23:58Z</time>
      </trkpt>
      <trkpt lat="47.33709" lon="-1.52401">
        <ele>58</ele>
        <time>2021-10-23T13:24:01Z</time>
      </trkpt>
      <trkpt lat="47.33711" lon="-1.52382">
        <ele>59</ele>
        <time>2021-10-23T13:24:04Z</time>
      </trkpt>
      <trkpt lat="47.33715" lon="-1.52364">
        <ele>60</ele>
        <time>2021-10-23T13:24:07Z</time>
      </trkpt>
      <trkpt lat="47.33718" lon="-1.52346">
        <ele>62</ele>
        <time>2021-10-23T13:24:10Z</time>
      </trkpt>
      <trkpt lat="47.33721" lon="-1.52327">
        <ele>63</ele>
        <time>2021-10-23T13:24:13Z</time>
      </trkpt>
      <trkpt lat="47.33725" lon="-1.5231">
        <ele>63</ele>
        <time>2021-10-23T13:24:16Z</time>
      </trkpt>
      <trkpt lat="47.33729" lon="-1.52291">
        <ele>63</ele>
        <time>2021-10-23T13:24:19Z</time>
      </trkpt>
      <trkpt lat="47.33731" lon="-1.52278">
        <ele>63</ele>
        <time>2021-10-23T13:24:21Z</time>
      </trkpt>
      <trkpt lat="47.33734" lon="-1.52265">
        <ele>64</ele>
        <time>2021-10-23T13:24:23Z</time>
      </trkpt>
      <trkpt lat="47.33737" lon="-1.52252">
        <ele>64</ele>
        <time>2021-10-23T13:24:25Z</time>
      </trkpt>
      <trkpt lat="47.3374" lon="-1.52239">
        <ele>64</ele>
        <time>2021-10-23T13:24:27Z</time>
      </trkpt>
      <trkpt lat="47.33743" lon="-1.52225">
        <ele>64</ele>
        <time>2021-10-23T13:24:29Z</time>
      </trkpt>
      <trkpt lat="47.33746" lon="-1.52211">
        <ele>64</ele>
        <time>2021-10-23T13:24:31Z</time>
      </trkpt>
      <trkpt lat="47.33748" lon="-1.52197">
        <ele>64</ele>
        <time>2021-10-23T13:24:33Z</time>
      </trkpt>
      <trkpt lat="47.3375" lon="-1.52182">
        <ele>64</ele>
        <time>2021-10-23T13:24:35Z</time>
      </trkpt>
      <trkpt lat="47.33751" lon="-1.52167">
        <ele>64</ele>
        <time>2021-10-23T13:24:37Z</time>
      </trkpt>
      <trkpt lat="47.33752" lon="-1.52152">
        <ele>64</ele>
        <time>2021-10-23T13:24:39Z</time>
      </trkpt>
      <trkpt lat="47.33753" lon="-1.52137">
        <ele>64</ele>
        <time>2021-10-23T13:24:41Z</time>
      </trkpt>
      <trkpt lat="47.33754" lon="-1.52123">
        <ele>64</ele>
        <time>2021-10-23T13:24:43Z</time>
      </trkpt>
      <trkpt lat="47.33755" lon="-1.52109">
        <ele>64</ele>
        <time>2021-10-23T13:24:45Z</time>
      </trkpt>
      <trkpt lat="47.33756" lon="-1.52096">
        <ele>65</ele>
        <time>2021-10-23T13:24:47Z</time>
      </trkpt>
      <trkpt lat="47.33759" lon="-1.52077">
        <ele>66</ele>
        <time>2021-10-23T13:24:50Z</time>
      </trkpt>
      <trkpt lat="47.3376" lon="-1.52057">
        <ele>66</ele>
        <time>2021-10-23T13:24:53Z</time>
      </trkpt>
      <trkpt lat="47.33757" lon="-1.52039">
        <ele>67</ele>
        <time>2021-10-23T13:24:56Z</time>
      </trkpt>
      <trkpt lat="47.33759" lon="-1.5202">
        <ele>68</ele>
        <time>2021-10-23T13:24:59Z</time>
      </trkpt>
      <trkpt lat="47.33757" lon="-1.52001">
        <ele>69</ele>
        <time>2021-10-23T13:25:02Z</time>
      </trkpt>
      <trkpt lat="47.33754" lon="-1.51982">
        <ele>69</ele>
        <time>2021-10-23T13:25:05Z</time>
      </trkpt>
      <trkpt lat="47.33751" lon="-1.51969">
        <ele>69</ele>
        <time>2021-10-23T13:25:07Z</time>
      </trkpt>
      <trkpt lat="47.33749" lon="-1.51951">
        <ele>70</ele>
        <time>2021-10-23T13:25:10Z</time>
      </trkpt>
      <trkpt lat="47.33747" lon="-1.51932">
        <ele>71</ele>
        <time>2021-10-23T13:25:13Z</time>
      </trkpt>
      <trkpt lat="47.33746" lon="-1.51912">
        <ele>71</ele>
        <time>2021-10-23T13:25:16Z</time>
      </trkpt>
      <trkpt lat="47.33745" lon="-1.51898">
        <ele>71</ele>
        <time>2021-10-23T13:25:18Z</time>
      </trkpt>
      <trkpt lat="47.33744" lon="-1.51883">
        <ele>71</ele>
        <time>2021-10-23T13:25:20Z</time>
      </trkpt>
      <trkpt lat="47.33743" lon="-1.51868">
        <ele>72</ele>
        <time>2021-10-23T13:25:22Z</time>
      </trkpt>
      <trkpt lat="47.33743" lon="-1.51852">
        <ele>72</ele>
        <time>2021-10-23T13:25:24Z</time>
      </trkpt>
      <trkpt lat="47.33742" lon="-1.51836">
        <ele>72</ele>
        <time>2021-10-23T13:25:26Z</time>
      </trkpt>
      <trkpt lat="47.33742" lon="-1.5182">
        <ele>72</ele>
        <time>2021-10-23T13:25:28Z</time>
      </trkpt>
      <trkpt lat="47.33741" lon="-1.51803">
        <ele>72</ele>
        <time>2021-10-23T13:25:30Z</time>
      </trkpt>
      <trkpt lat="47.3374" lon="-1.51786">
        <ele>73</ele>
        <time>2021-10-23T13:25:32Z</time>
      </trkpt>
      <trkpt lat="47.33739" lon="-1.5177">
        <ele>73</ele>
        <time>2021-10-23T13:25:34Z</time>
      </trkpt>
      <trkpt lat="47.33738" lon="-1.51753">
        <ele>73</ele>
        <time>2021-10-23T13:25:36Z</time>
      </trkpt>
      <trkpt lat="47.33737" lon="-1.51737">
        <ele>73</ele>
        <time>2021-10-23T13:25:38Z</time>
      </trkpt>
      <trkpt lat="47.33737" lon="-1.5172">
        <ele>73</ele>
        <time>2021-10-23T13:25:40Z</time>
      </trkpt>
      <trkpt lat="47.33735" lon="-1.51703">
        <ele>73</ele>
        <time>2021-10-23T13:25:42Z</time>
      </trkpt>
      <trkpt lat="47.33733" lon="-1.51686">
        <ele>73</ele>
        <time>2021-10-23T13:25:44Z</time>
      </trkpt>
      <trkpt lat="47.33731" lon="-1.51669">
        <ele>72</ele>
        <time>2021-10-23T13:25:46Z</time>
      </trkpt>
      <trkpt lat="47.33728" lon="-1.51652">
        <ele>71</ele>
        <time>2021-10-23T13:25:48Z</time>
      </trkpt>
      <trkpt lat="47.33724" lon="-1.51635">
        <ele>71</ele>
        <time>2021-10-23T13:25:50Z</time>
      </trkpt>
      <trkpt lat="47.33719" lon="-1.51618">
        <ele>71</ele>
        <time>2021-10-23T13:25:52Z</time>
      </trkpt>
      <trkpt lat="47.33713" lon="-1.51602">
        <ele>71</ele>
        <time>2021-10-23T13:25:54Z</time>
      </trkpt>
      <trkpt lat="47.3371" lon="-1.51584">
        <ele>71</ele>
        <time>2021-10-23T13:25:56Z</time>
      </trkpt>
      <trkpt lat="47.33706" lon="-1.51565">
        <ele>71</ele>
        <time>2021-10-23T13:25:58Z</time>
      </trkpt>
      <trkpt lat="47.33701" lon="-1.51547">
        <ele>71</ele>
        <time>2021-10-23T13:26:00Z</time>
      </trkpt>
      <trkpt lat="47.33697" lon="-1.51527">
        <ele>70</ele>
        <time>2021-10-23T13:26:02Z</time>
      </trkpt>
      <trkpt lat="47.33694" lon="-1.51508">
        <ele>70</ele>
        <time>2021-10-23T13:26:04Z</time>
      </trkpt>
      <trkpt lat="47.33692" lon="-1.51487">
        <ele>69</ele>
        <time>2021-10-23T13:26:06Z</time>
      </trkpt>
      <trkpt lat="47.33692" lon="-1.51465">
        <ele>69</ele>
        <time>2021-10-23T13:26:08Z</time>
      </trkpt>
      <trkpt lat="47.3369" lon="-1.51442">
        <ele>68</ele>
        <time>2021-10-23T13:26:10Z</time>
      </trkpt>
      <trkpt lat="47.33687" lon="-1.5142">
        <ele>68</ele>
        <time>2021-10-23T13:26:12Z</time>
      </trkpt>
      <trkpt lat="47.33682" lon="-1.51399">
        <ele>67</ele>
        <time>2021-10-23T13:26:14Z</time>
      </trkpt>
      <trkpt lat="47.33676" lon="-1.51378">
        <ele>67</ele>
        <time>2021-10-23T13:26:16Z</time>
      </trkpt>
      <trkpt lat="47.33671" lon="-1.51357">
        <ele>67</ele>
        <time>2021-10-23T13:26:18Z</time>
      </trkpt>
      <trkpt lat="47.33667" lon="-1.51337">
        <ele>67</ele>
        <time>2021-10-23T13:26:20Z</time>
      </trkpt>
      <trkpt lat="47.33663" lon="-1.51316">
        <ele>67</ele>
        <time>2021-10-23T13:26:22Z</time>
      </trkpt>
      <trkpt lat="47.33659" lon="-1.51295">
        <ele>66</ele>
        <time>2021-10-23T13:26:24Z</time>
      </trkpt>
      <trkpt lat="47.33656" lon="-1.51275">
        <ele>66</ele>
        <time>2021-10-23T13:26:26Z</time>
      </trkpt>
      <trkpt lat="47.33654" lon="-1.51254">
        <ele>65</ele>
        <time>2021-10-23T13:26:28Z</time>
      </trkpt>
      <trkpt lat="47.33652" lon="-1.51233">
        <ele>65</ele>
        <time>2021-10-23T13:26:30Z</time>
      </trkpt>
      <trkpt lat="47.33651" lon="-1.51212">
        <ele>65</ele>
        <time>2021-10-23T13:26:32Z</time>
      </trkpt>
      <trkpt lat="47.3365" lon="-1.51191">
        <ele>65</ele>
        <time>2021-10-23T13:26:34Z</time>
      </trkpt>
      <trkpt lat="47.33649" lon="-1.51169">
        <ele>64</ele>
        <time>2021-10-23T13:26:36Z</time>
      </trkpt>
      <trkpt lat="47.33649" lon="-1.51148">
        <ele>64</ele>
        <time>2021-10-23T13:26:38Z</time>
      </trkpt>
      <trkpt lat="47.33649" lon="-1.51127">
        <ele>64</ele>
        <time>2021-10-23T13:26:40Z</time>
      </trkpt>
      <trkpt lat="47.33648" lon="-1.51105">
        <ele>65</ele>
        <time>2021-10-23T13:26:42Z</time>
      </trkpt>
      <trkpt lat="47.3365" lon="-1.51085">
        <ele>64</ele>
        <time>2021-10-23T13:26:44Z</time>
      </trkpt>
      <trkpt lat="47.33655" lon="-1.51064">
        <ele>64</ele>
        <time>2021-10-23T13:26:46Z</time>
      </trkpt>
      <trkpt lat="47.33662" lon="-1.51044">
        <ele>64</ele>
        <time>2021-10-23T13:26:48Z</time>
      </trkpt>
      <trkpt lat="47.33667" lon="-1.51024">
        <ele>64</ele>
        <time>2021-10-23T13:26:50Z</time>
      </trkpt>
      <trkpt lat="47.33671" lon="-1.51003">
        <ele>63</ele>
        <time>2021-10-23T13:26:52Z</time>
      </trkpt>
      <trkpt lat="47.33674" lon="-1.50983">
        <ele>63</ele>
        <time>2021-10-23T13:26:54Z</time>
      </trkpt>
      <trkpt lat="47.33677" lon="-1.50964">
        <ele>63</ele>
        <time>2021-10-23T13:26:56Z</time>
      </trkpt>
      <trkpt lat="47.33682" lon="-1.50944">
        <ele>62</ele>
        <time>2021-10-23T13:26:58Z</time>
      </trkpt>
      <trkpt lat="47.33685" lon="-1.50923">
        <ele>62</ele>
        <time>2021-10-23T13:27:00Z</time>
      </trkpt>
      <trkpt lat="47.33689" lon="-1.50902">
        <ele>61</ele>
        <time>2021-10-23T13:27:02Z</time>
      </trkpt>
      <trkpt lat="47.33693" lon="-1.50881">
        <ele>60</ele>
        <time>2021-10-23T13:27:04Z</time>
      </trkpt>
      <trkpt lat="47.33698" lon="-1.5086">
        <ele>60</ele>
        <time>2021-10-23T13:27:06Z</time>
      </trkpt>
      <trkpt lat="47.33702" lon="-1.50839">
        <ele>59</ele>
        <time>2021-10-23T13:27:08Z</time>
      </trkpt>
      <trkpt lat="47.33706" lon="-1.50818">
        <ele>59</ele>
        <time>2021-10-23T13:27:10Z</time>
      </trkpt>
      <trkpt lat="47.3371" lon="-1.50797">
        <ele>59</ele>
        <time>2021-10-23T13:27:12Z</time>
      </trkpt>
      <trkpt lat="47.33714" lon="-1.50775">
        <ele>58</ele>
        <time>2021-10-23T13:27:14Z</time>
      </trkpt>
      <trkpt lat="47.33718" lon="-1.50754">
        <ele>58</ele>
        <time>2021-10-23T13:27:16Z</time>
      </trkpt>
      <trkpt lat="47.33722" lon="-1.50732">
        <ele>57</ele>
        <time>2021-10-23T13:27:18Z</time>
      </trkpt>
      <trkpt lat="47.33726" lon="-1.50712">
        <ele>57</ele>
        <time>2021-10-23T13:27:20Z</time>
      </trkpt>
      <trkpt lat="47.3373" lon="-1.50691">
        <ele>57</ele>
        <time>2021-10-23T13:27:22Z</time>
      </trkpt>
      <trkpt lat="47.33734" lon="-1.50671">
        <ele>57</ele>
        <time>2021-10-23T13:27:24Z</time>
      </trkpt>
      <trkpt lat="47.33738" lon="-1.5065">
        <ele>57</ele>
        <time>2021-10-23T13:27:26Z</time>
      </trkpt>
      <trkpt lat="47.33742" lon="-1.5063">
        <ele>56</ele>
        <time>2021-10-23T13:27:28Z</time>
      </trkpt>
      <trkpt lat="47.33746" lon="-1.50609">
        <ele>57</ele>
        <time>2021-10-23T13:27:30Z</time>
      </trkpt>
      <trkpt lat="47.3375" lon="-1.50589">
        <ele>57</ele>
        <time>2021-10-23T13:27:32Z</time>
      </trkpt>
      <trkpt lat="47.33754" lon="-1.50569">
        <ele>57</ele>
        <time>2021-10-23T13:27:34Z</time>
      </trkpt>
      <trkpt lat="47.33758" lon="-1.50549">
        <ele>57</ele>
        <time>2021-10-23T13:27:36Z</time>
      </trkpt>
      <trkpt lat="47.33761" lon="-1.50529">
        <ele>56</ele>
        <time>2021-10-23T13:27:38Z</time>
      </trkpt>
      <trkpt lat="47.33765" lon="-1.5051">
        <ele>56</ele>
        <time>2021-10-23T13:27:40Z</time>
      </trkpt>
      <trkpt lat="47.3377" lon="-1.50491">
        <ele>56</ele>
        <time>2021-10-23T13:27:42Z</time>
      </trkpt>
      <trkpt lat="47.33774" lon="-1.50472">
        <ele>56</ele>
        <time>2021-10-23T13:27:44Z</time>
      </trkpt>
      <trkpt lat="47.33777" lon="-1.50454">
        <ele>56</ele>
        <time>2021-10-23T13:27:46Z</time>
      </trkpt>
      <trkpt lat="47.33781" lon="-1.50435">
        <ele>56</ele>
        <time>2021-10-23T13:27:48Z</time>
      </trkpt>
      <trkpt lat="47.33785" lon="-1.50416">
        <ele>56</ele>
        <time>2021-10-23T13:27:50Z</time>
      </trkpt>
      <trkpt lat="47.33789" lon="-1.50388">
        <ele>56</ele>
        <time>2021-10-23T13:27:53Z</time>
      </trkpt>
      <trkpt lat="47.33789" lon="-1.50368">
        <ele>56</ele>
        <time>2021-10-23T13:27:55Z</time>
      </trkpt>
      <trkpt lat="47.33787" lon="-1.5035">
        <ele>56</ele>
        <time>2021-10-23T13:27:57Z</time>
      </trkpt>
      <trkpt lat="47.33783" lon="-1.50322">
        <ele>56</ele>
        <time>2021-10-23T13:28:00Z</time>
      </trkpt>
      <trkpt lat="47.3378" lon="-1.50304">
        <ele>56</ele>
        <time>2021-10-23T13:28:02Z</time>
      </trkpt>
      <trkpt lat="47.33778" lon="-1.50287">
        <ele>57</ele>
        <time>2021-10-23T13:28:04Z</time>
      </trkpt>
      <trkpt lat="47.33776" lon="-1.50269">
        <ele>57</ele>
        <time>2021-10-23T13:28:06Z</time>
      </trkpt>
      <trkpt lat="47.33772" lon="-1.50244">
        <ele>58</ele>
        <time>2021-10-23T13:28:09Z</time>
      </trkpt>
      <trkpt lat="47.33769" lon="-1.50227">
        <ele>58</ele>
        <time>2021-10-23T13:28:11Z</time>
      </trkpt>
      <trkpt lat="47.33766" lon="-1.50209">
        <ele>58</ele>
        <time>2021-10-23T13:28:13Z</time>
      </trkpt>
      <trkpt lat="47.33764" lon="-1.50193">
        <ele>59</ele>
        <time>2021-10-23T13:28:15Z</time>
      </trkpt>
      <trkpt lat="47.33761" lon="-1.50176">
        <ele>59</ele>
        <time>2021-10-23T13:28:17Z</time>
      </trkpt>
      <trkpt lat="47.33758" lon="-1.5016">
        <ele>59</ele>
        <time>2021-10-23T13:28:19Z</time>
      </trkpt>
      <trkpt lat="47.33755" lon="-1.50143">
        <ele>60</ele>
        <time>2021-10-23T13:28:21Z</time>
      </trkpt>
      <trkpt lat="47.33753" lon="-1.50125">
        <ele>60</ele>
        <time>2021-10-23T13:28:23Z</time>
      </trkpt>
      <trkpt lat="47.33751" lon="-1.50109">
        <ele>60</ele>
        <time>2021-10-23T13:28:25Z</time>
      </trkpt>
      <trkpt lat="47.3375" lon="-1.50092">
        <ele>60</ele>
        <time>2021-10-23T13:28:27Z</time>
      </trkpt>
      <trkpt lat="47.3375" lon="-1.50074">
        <ele>60</ele>
        <time>2021-10-23T13:28:29Z</time>
      </trkpt>
      <trkpt lat="47.33748" lon="-1.50057">
        <ele>61</ele>
        <time>2021-10-23T13:28:31Z</time>
      </trkpt>
      <trkpt lat="47.33747" lon="-1.50039">
        <ele>61</ele>
        <time>2021-10-23T13:28:33Z</time>
      </trkpt>
      <trkpt lat="47.33744" lon="-1.50022">
        <ele>61</ele>
        <time>2021-10-23T13:28:35Z</time>
      </trkpt>
      <trkpt lat="47.33741" lon="-1.50006">
        <ele>61</ele>
        <time>2021-10-23T13:28:37Z</time>
      </trkpt>
      <trkpt lat="47.33737" lon="-1.49989">
        <ele>61</ele>
        <time>2021-10-23T13:28:39Z</time>
      </trkpt>
      <trkpt lat="47.33733" lon="-1.49972">
        <ele>61</ele>
        <time>2021-10-23T13:28:41Z</time>
      </trkpt>
      <trkpt lat="47.33729" lon="-1.49955">
        <ele>60</ele>
        <time>2021-10-23T13:28:43Z</time>
      </trkpt>
      <trkpt lat="47.33723" lon="-1.49937">
        <ele>60</ele>
        <time>2021-10-23T13:28:45Z</time>
      </trkpt>
      <trkpt lat="47.33714" lon="-1.49921">
        <ele>59</ele>
        <time>2021-10-23T13:28:47Z</time>
      </trkpt>
      <trkpt lat="47.33702" lon="-1.49908">
        <ele>58</ele>
        <time>2021-10-23T13:28:49Z</time>
      </trkpt>
      <trkpt lat="47.33689" lon="-1.49894">
        <ele>57</ele>
        <time>2021-10-23T13:28:51Z</time>
      </trkpt>
      <trkpt lat="47.33677" lon="-1.49878">
        <ele>56</ele>
        <time>2021-10-23T13:28:53Z</time>
      </trkpt>
      <trkpt lat="47.33667" lon="-1.49858">
        <ele>55</ele>
        <time>2021-10-23T13:28:55Z</time>
      </trkpt>
      <trkpt lat="47.33658" lon="-1.49838">
        <ele>55</ele>
        <time>2021-10-23T13:28:57Z</time>
      </trkpt>
      <trkpt lat="47.33653" lon="-1.49814">
        <ele>54</ele>
        <time>2021-10-23T13:28:59Z</time>
      </trkpt>
      <trkpt lat="47.33651" lon="-1.49791">
        <ele>54</ele>
        <time>2021-10-23T13:29:01Z</time>
      </trkpt>
      <trkpt lat="47.33649" lon="-1.49767">
        <ele>53</ele>
        <time>2021-10-23T13:29:03Z</time>
      </trkpt>
      <trkpt lat="47.33647" lon="-1.49743">
        <ele>52</ele>
        <time>2021-10-23T13:29:05Z</time>
      </trkpt>
      <trkpt lat="47.33644" lon="-1.49721">
        <ele>52</ele>
        <time>2021-10-23T13:29:07Z</time>
      </trkpt>
      <trkpt lat="47.33641" lon="-1.49698">
        <ele>52</ele>
        <time>2021-10-23T13:29:09Z</time>
      </trkpt>
      <trkpt lat="47.33639" lon="-1.49677">
        <ele>53</ele>
        <time>2021-10-23T13:29:11Z</time>
      </trkpt>
      <trkpt lat="47.33637" lon="-1.49657">
        <ele>53</ele>
        <time>2021-10-23T13:29:13Z</time>
      </trkpt>
      <trkpt lat="47.33637" lon="-1.49637">
        <ele>53</ele>
        <time>2021-10-23T13:29:15Z</time>
      </trkpt>
      <trkpt lat="47.33637" lon="-1.49617">
        <ele>53</ele>
        <time>2021-10-23T13:29:17Z</time>
      </trkpt>
      <trkpt lat="47.33638" lon="-1.49597">
        <ele>54</ele>
        <time>2021-10-23T13:29:19Z</time>
      </trkpt>
      <trkpt lat="47.33638" lon="-1.49577">
        <ele>54</ele>
        <time>2021-10-23T13:29:21Z</time>
      </trkpt>
      <trkpt lat="47.33636" lon="-1.49557">
        <ele>54</ele>
        <time>2021-10-23T13:29:23Z</time>
      </trkpt>
      <trkpt lat="47.33633" lon="-1.49538">
        <ele>54</ele>
        <time>2021-10-23T13:29:25Z</time>
      </trkpt>
      <trkpt lat="47.3363" lon="-1.49519">
        <ele>55</ele>
        <time>2021-10-23T13:29:27Z</time>
      </trkpt>
      <trkpt lat="47.33625" lon="-1.495">
        <ele>55</ele>
        <time>2021-10-23T13:29:29Z</time>
      </trkpt>
      <trkpt lat="47.33621" lon="-1.49481">
        <ele>55</ele>
        <time>2021-10-23T13:29:31Z</time>
      </trkpt>
      <trkpt lat="47.33614" lon="-1.49463">
        <ele>54</ele>
        <time>2021-10-23T13:29:33Z</time>
      </trkpt>
      <trkpt lat="47.33606" lon="-1.49447">
        <ele>54</ele>
        <time>2021-10-23T13:29:35Z</time>
      </trkpt>
      <trkpt lat="47.336" lon="-1.4943">
        <ele>53</ele>
        <time>2021-10-23T13:29:37Z</time>
      </trkpt>
      <trkpt lat="47.33592" lon="-1.49414">
        <ele>53</ele>
        <time>2021-10-23T13:29:39Z</time>
      </trkpt>
      <trkpt lat="47.33586" lon="-1.49397">
        <ele>53</ele>
        <time>2021-10-23T13:29:41Z</time>
      </trkpt>
      <trkpt lat="47.33579" lon="-1.49381">
        <ele>53</ele>
        <time>2021-10-23T13:29:43Z</time>
      </trkpt>
      <trkpt lat="47.33572" lon="-1.49365">
        <ele>53</ele>
        <time>2021-10-23T13:29:45Z</time>
      </trkpt>
      <trkpt lat="47.33565" lon="-1.4935">
        <ele>53</ele>
        <time>2021-10-23T13:29:47Z</time>
      </trkpt>
      <trkpt lat="47.33562" lon="-1.49334">
        <ele>53</ele>
        <time>2021-10-23T13:29:49Z</time>
      </trkpt>
      <trkpt lat="47.33569" lon="-1.4932">
        <ele>53</ele>
        <time>2021-10-23T13:29:51Z</time>
      </trkpt>
      <trkpt lat="47.33578" lon="-1.49309">
        <ele>53</ele>
        <time>2021-10-23T13:29:53Z</time>
      </trkpt>
      <trkpt lat="47.33588" lon="-1.49296">
        <ele>53</ele>
        <time>2021-10-23T13:29:55Z</time>
      </trkpt>
      <trkpt lat="47.33598" lon="-1.49284">
        <ele>52</ele>
        <time>2021-10-23T13:29:57Z</time>
      </trkpt>
      <trkpt lat="47.33608" lon="-1.49271">
        <ele>53</ele>
        <time>2021-10-23T13:29:59Z</time>
      </trkpt>
      <trkpt lat="47.33618" lon="-1.49259">
        <ele>53</ele>
        <time>2021-10-23T13:30:01Z</time>
      </trkpt>
      <trkpt lat="47.33627" lon="-1.49246">
        <ele>53</ele>
        <time>2021-10-23T13:30:03Z</time>
      </trkpt>
      <trkpt lat="47.33635" lon="-1.49234">
        <ele>53</ele>
        <time>2021-10-23T13:30:05Z</time>
      </trkpt>
      <trkpt lat="47.33645" lon="-1.49223">
        <ele>53</ele>
        <time>2021-10-23T13:30:07Z</time>
      </trkpt>
      <trkpt lat="47.33653" lon="-1.49211">
        <ele>53</ele>
        <time>2021-10-23T13:30:09Z</time>
      </trkpt>
      <trkpt lat="47.33661" lon="-1.49202">
        <ele>53</ele>
        <time>2021-10-23T13:30:11Z</time>
      </trkpt>
      <trkpt lat="47.3367" lon="-1.4919">
        <ele>53</ele>
        <time>2021-10-23T13:30:13Z</time>
      </trkpt>
      <trkpt lat="47.33678" lon="-1.4918">
        <ele>53</ele>
        <time>2021-10-23T13:30:15Z</time>
      </trkpt>
      <trkpt lat="47.33685" lon="-1.49168">
        <ele>53</ele>
        <time>2021-10-23T13:30:17Z</time>
      </trkpt>
      <trkpt lat="47.33691" lon="-1.49155">
        <ele>53</ele>
        <time>2021-10-23T13:30:19Z</time>
      </trkpt>
      <trkpt lat="47.33695" lon="-1.4914">
        <ele>53</ele>
        <time>2021-10-23T13:30:21Z</time>
      </trkpt>
      <trkpt lat="47.33697" lon="-1.49123">
        <ele>53</ele>
        <time>2021-10-23T13:30:23Z</time>
      </trkpt>
      <trkpt lat="47.33699" lon="-1.49107">
        <ele>53</ele>
        <time>2021-10-23T13:30:25Z</time>
      </trkpt>
      <trkpt lat="47.33702" lon="-1.49092">
        <ele>54</ele>
        <time>2021-10-23T13:30:27Z</time>
      </trkpt>
      <trkpt lat="47.33708" lon="-1.49077">
        <ele>54</ele>
        <time>2021-10-23T13:30:29Z</time>
      </trkpt>
      <trkpt lat="47.33715" lon="-1.49065">
        <ele>55</ele>
        <time>2021-10-23T13:30:31Z</time>
      </trkpt>
      <trkpt lat="47.33723" lon="-1.49055">
        <ele>56</ele>
        <time>2021-10-23T13:30:33Z</time>
      </trkpt>
      <trkpt lat="47.33731" lon="-1.49045">
        <ele>56</ele>
        <time>2021-10-23T13:30:35Z</time>
      </trkpt>
      <trkpt lat="47.33739" lon="-1.49035">
        <ele>57</ele>
        <time>2021-10-23T13:30:37Z</time>
      </trkpt>
      <trkpt lat="47.33748" lon="-1.49026">
        <ele>58</ele>
        <time>2021-10-23T13:30:39Z</time>
      </trkpt>
      <trkpt lat="47.33756" lon="-1.49016">
        <ele>58</ele>
        <time>2021-10-23T13:30:41Z</time>
      </trkpt>
      <trkpt lat="47.33765" lon="-1.49007">
        <ele>59</ele>
        <time>2021-10-23T13:30:43Z</time>
      </trkpt>
      <trkpt lat="47.33774" lon="-1.48997">
        <ele>59</ele>
        <time>2021-10-23T13:30:45Z</time>
      </trkpt>
      <trkpt lat="47.33782" lon="-1.48987">
        <ele>59</ele>
        <time>2021-10-23T13:30:47Z</time>
      </trkpt>
      <trkpt lat="47.3379" lon="-1.48977">
        <ele>59</ele>
        <time>2021-10-23T13:30:49Z</time>
      </trkpt>
      <trkpt lat="47.33799" lon="-1.48966">
        <ele>59</ele>
        <time>2021-10-23T13:30:51Z</time>
      </trkpt>
      <trkpt lat="47.33807" lon="-1.48953">
        <ele>59</ele>
        <time>2021-10-23T13:30:53Z</time>
      </trkpt>
      <trkpt lat="47.33815" lon="-1.48941">
        <ele>59</ele>
        <time>2021-10-23T13:30:55Z</time>
      </trkpt>
      <trkpt lat="47.33824" lon="-1.48928">
        <ele>59</ele>
        <time>2021-10-23T13:30:57Z</time>
      </trkpt>
      <trkpt lat="47.33832" lon="-1.48915">
        <ele>59</ele>
        <time>2021-10-23T13:30:59Z</time>
      </trkpt>
      <trkpt lat="47.33841" lon="-1.48901">
        <ele>58</ele>
        <time>2021-10-23T13:31:01Z</time>
      </trkpt>
      <trkpt lat="47.3385" lon="-1.48888">
        <ele>57</ele>
        <time>2021-10-23T13:31:03Z</time>
      </trkpt>
      <trkpt lat="47.33858" lon="-1.48874">
        <ele>57</ele>
        <time>2021-10-23T13:31:05Z</time>
      </trkpt>
      <trkpt lat="47.33867" lon="-1.4886">
        <ele>57</ele>
        <time>2021-10-23T13:31:07Z</time>
      </trkpt>
      <trkpt lat="47.33876" lon="-1.48846">
        <ele>56</ele>
        <time>2021-10-23T13:31:09Z</time>
      </trkpt>
      <trkpt lat="47.33886" lon="-1.48831">
        <ele>56</ele>
        <time>2021-10-23T13:31:11Z</time>
      </trkpt>
      <trkpt lat="47.33895" lon="-1.48817">
        <ele>56</ele>
        <time>2021-10-23T13:31:13Z</time>
      </trkpt>
      <trkpt lat="47.33905" lon="-1.48801">
        <ele>56</ele>
        <time>2021-10-23T13:31:15Z</time>
      </trkpt>
      <trkpt lat="47.33915" lon="-1.48785">
        <ele>55</ele>
        <time>2021-10-23T13:31:17Z</time>
      </trkpt>
      <trkpt lat="47.33925" lon="-1.48768">
        <ele>54</ele>
        <time>2021-10-23T13:31:19Z</time>
      </trkpt>
      <trkpt lat="47.33935" lon="-1.48752">
        <ele>53</ele>
        <time>2021-10-23T13:31:21Z</time>
      </trkpt>
      <trkpt lat="47.33945" lon="-1.48735">
        <ele>53</ele>
        <time>2021-10-23T13:31:23Z</time>
      </trkpt>
      <trkpt lat="47.33956" lon="-1.48719">
        <ele>52</ele>
        <time>2021-10-23T13:31:25Z</time>
      </trkpt>
      <trkpt lat="47.33967" lon="-1.48701">
        <ele>51</ele>
        <time>2021-10-23T13:31:27Z</time>
      </trkpt>
      <trkpt lat="47.33977" lon="-1.48685">
        <ele>51</ele>
        <time>2021-10-23T13:31:29Z</time>
      </trkpt>
      <trkpt lat="47.33988" lon="-1.48669">
        <ele>50</ele>
        <time>2021-10-23T13:31:31Z</time>
      </trkpt>
      <trkpt lat="47.33998" lon="-1.48653">
        <ele>51</ele>
        <time>2021-10-23T13:31:33Z</time>
      </trkpt>
      <trkpt lat="47.34007" lon="-1.48636">
        <ele>50</ele>
        <time>2021-10-23T13:31:35Z</time>
      </trkpt>
      <trkpt lat="47.34017" lon="-1.4862">
        <ele>50</ele>
        <time>2021-10-23T13:31:37Z</time>
      </trkpt>
      <trkpt lat="47.34026" lon="-1.48604">
        <ele>50</ele>
        <time>2021-10-23T13:31:39Z</time>
      </trkpt>
      <trkpt lat="47.34034" lon="-1.48587">
        <ele>50</ele>
        <time>2021-10-23T13:31:41Z</time>
      </trkpt>
      <trkpt lat="47.34042" lon="-1.48569">
        <ele>51</ele>
        <time>2021-10-23T13:31:43Z</time>
      </trkpt>
      <trkpt lat="47.3405" lon="-1.48552">
        <ele>51</ele>
        <time>2021-10-23T13:31:45Z</time>
      </trkpt>
      <trkpt lat="47.34058" lon="-1.48536">
        <ele>51</ele>
        <time>2021-10-23T13:31:47Z</time>
      </trkpt>
      <trkpt lat="47.34066" lon="-1.48519">
        <ele>51</ele>
        <time>2021-10-23T13:31:49Z</time>
      </trkpt>
      <trkpt lat="47.34073" lon="-1.48503">
        <ele>51</ele>
        <time>2021-10-23T13:31:51Z</time>
      </trkpt>
      <trkpt lat="47.34081" lon="-1.48487">
        <ele>51</ele>
        <time>2021-10-23T13:31:53Z</time>
      </trkpt>
      <trkpt lat="47.34089" lon="-1.4847">
        <ele>51</ele>
        <time>2021-10-23T13:31:55Z</time>
      </trkpt>
      <trkpt lat="47.34097" lon="-1.48454">
        <ele>51</ele>
        <time>2021-10-23T13:31:57Z</time>
      </trkpt>
      <trkpt lat="47.34105" lon="-1.48437">
        <ele>51</ele>
        <time>2021-10-23T13:31:59Z</time>
      </trkpt>
      <trkpt lat="47.34113" lon="-1.48421">
        <ele>51</ele>
        <time>2021-10-23T13:32:01Z</time>
      </trkpt>
      <trkpt lat="47.34121" lon="-1.48406">
        <ele>51</ele>
        <time>2021-10-23T13:32:03Z</time>
      </trkpt>
      <trkpt lat="47.34128" lon="-1.4839">
        <ele>51</ele>
        <time>2021-10-23T13:32:05Z</time>
      </trkpt>
      <trkpt lat="47.34136" lon="-1.48374">
        <ele>51</ele>
        <time>2021-10-23T13:32:07Z</time>
      </trkpt>
      <trkpt lat="47.34144" lon="-1.48358">
        <ele>51</ele>
        <time>2021-10-23T13:32:09Z</time>
      </trkpt>
      <trkpt lat="47.34151" lon="-1.48343">
        <ele>51</ele>
        <time>2021-10-23T13:32:11Z</time>
      </trkpt>
      <trkpt lat="47.34159" lon="-1.48326">
        <ele>51</ele>
        <time>2021-10-23T13:32:13Z</time>
      </trkpt>
      <trkpt lat="47.34166" lon="-1.4831">
        <ele>51</ele>
        <time>2021-10-23T13:32:15Z</time>
      </trkpt>
      <trkpt lat="47.34173" lon="-1.48294">
        <ele>52</ele>
        <time>2021-10-23T13:32:17Z</time>
      </trkpt>
      <trkpt lat="47.34181" lon="-1.48279">
        <ele>52</ele>
        <time>2021-10-23T13:32:19Z</time>
      </trkpt>
      <trkpt lat="47.34189" lon="-1.48263">
        <ele>51</ele>
        <time>2021-10-23T13:32:21Z</time>
      </trkpt>
      <trkpt lat="47.34197" lon="-1.48249">
        <ele>51</ele>
        <time>2021-10-23T13:32:23Z</time>
      </trkpt>
      <trkpt lat="47.34206" lon="-1.48235">
        <ele>51</ele>
        <time>2021-10-23T13:32:25Z</time>
      </trkpt>
      <trkpt lat="47.34214" lon="-1.48222">
        <ele>51</ele>
        <time>2021-10-23T13:32:27Z</time>
      </trkpt>
      <trkpt lat="47.34222" lon="-1.48209">
        <ele>50</ele>
        <time>2021-10-23T13:32:29Z</time>
      </trkpt>
      <trkpt lat="47.3423" lon="-1.48196">
        <ele>50</ele>
        <time>2021-10-23T13:32:31Z</time>
      </trkpt>
      <trkpt lat="47.34239" lon="-1.48183">
        <ele>50</ele>
        <time>2021-10-23T13:32:33Z</time>
      </trkpt>
      <trkpt lat="47.34246" lon="-1.48169">
        <ele>50</ele>
        <time>2021-10-23T13:32:35Z</time>
      </trkpt>
      <trkpt lat="47.34255" lon="-1.48156">
        <ele>50</ele>
        <time>2021-10-23T13:32:37Z</time>
      </trkpt>
      <trkpt lat="47.34263" lon="-1.48143">
        <ele>50</ele>
        <time>2021-10-23T13:32:39Z</time>
      </trkpt>
      <trkpt lat="47.34271" lon="-1.4813">
        <ele>50</ele>
        <time>2021-10-23T13:32:41Z</time>
      </trkpt>
      <trkpt lat="47.34279" lon="-1.48117">
        <ele>50</ele>
        <time>2021-10-23T13:32:43Z</time>
      </trkpt>
      <trkpt lat="47.34287" lon="-1.48104">
        <ele>50</ele>
        <time>2021-10-23T13:32:45Z</time>
      </trkpt>
      <trkpt lat="47.34295" lon="-1.48091">
        <ele>50</ele>
        <time>2021-10-23T13:32:47Z</time>
      </trkpt>
      <trkpt lat="47.34303" lon="-1.48077">
        <ele>50</ele>
        <time>2021-10-23T13:32:49Z</time>
      </trkpt>
      <trkpt lat="47.34312" lon="-1.48064">
        <ele>50</ele>
        <time>2021-10-23T13:32:51Z</time>
      </trkpt>
      <trkpt lat="47.3432" lon="-1.48051">
        <ele>50</ele>
        <time>2021-10-23T13:32:53Z</time>
      </trkpt>
      <trkpt lat="47.34328" lon="-1.48037">
        <ele>50</ele>
        <time>2021-10-23T13:32:55Z</time>
      </trkpt>
      <trkpt lat="47.34336" lon="-1.48025">
        <ele>50</ele>
        <time>2021-10-23T13:32:57Z</time>
      </trkpt>
      <trkpt lat="47.34344" lon="-1.48012">
        <ele>49</ele>
        <time>2021-10-23T13:32:59Z</time>
      </trkpt>
      <trkpt lat="47.34352" lon="-1.47998">
        <ele>49</ele>
        <time>2021-10-23T13:33:01Z</time>
      </trkpt>
      <trkpt lat="47.34361" lon="-1.47985">
        <ele>49</ele>
        <time>2021-10-23T13:33:03Z</time>
      </trkpt>
      <trkpt lat="47.3437" lon="-1.47972">
        <ele>49</ele>
        <time>2021-10-23T13:33:05Z</time>
      </trkpt>
      <trkpt lat="47.34378" lon="-1.47959">
        <ele>49</ele>
        <time>2021-10-23T13:33:07Z</time>
      </trkpt>
      <trkpt lat="47.34387" lon="-1.47946">
        <ele>49</ele>
        <time>2021-10-23T13:33:09Z</time>
      </trkpt>
      <trkpt lat="47.34395" lon="-1.47934">
        <ele>49</ele>
        <time>2021-10-23T13:33:11Z</time>
      </trkpt>
      <trkpt lat="47.34405" lon="-1.47921">
        <ele>50</ele>
        <time>2021-10-23T13:33:13Z</time>
      </trkpt>
      <trkpt lat="47.34414" lon="-1.47908">
        <ele>50</ele>
        <time>2021-10-23T13:33:15Z</time>
      </trkpt>
      <trkpt lat="47.34423" lon="-1.47896">
        <ele>50</ele>
        <time>2021-10-23T13:33:17Z</time>
      </trkpt>
      <trkpt lat="47.34432" lon="-1.47884">
        <ele>51</ele>
        <time>2021-10-23T13:33:19Z</time>
      </trkpt>
      <trkpt lat="47.34441" lon="-1.47872">
        <ele>51</ele>
        <time>2021-10-23T13:33:21Z</time>
      </trkpt>
      <trkpt lat="47.34451" lon="-1.4786">
        <ele>52</ele>
        <time>2021-10-23T13:33:23Z</time>
      </trkpt>
      <trkpt lat="47.34461" lon="-1.47849">
        <ele>51</ele>
        <time>2021-10-23T13:33:25Z</time>
      </trkpt>
      <trkpt lat="47.34471" lon="-1.47837">
        <ele>51</ele>
        <time>2021-10-23T13:33:27Z</time>
      </trkpt>
      <trkpt lat="47.34482" lon="-1.47826">
        <ele>51</ele>
        <time>2021-10-23T13:33:29Z</time>
      </trkpt>
      <trkpt lat="47.34492" lon="-1.47814">
        <ele>51</ele>
        <time>2021-10-23T13:33:31Z</time>
      </trkpt>
      <trkpt lat="47.34502" lon="-1.47803">
        <ele>50</ele>
        <time>2021-10-23T13:33:33Z</time>
      </trkpt>
      <trkpt lat="47.34512" lon="-1.47792">
        <ele>51</ele>
        <time>2021-10-23T13:33:35Z</time>
      </trkpt>
      <trkpt lat="47.34522" lon="-1.47781">
        <ele>51</ele>
        <time>2021-10-23T13:33:37Z</time>
      </trkpt>
      <trkpt lat="47.34532" lon="-1.4777">
        <ele>51</ele>
        <time>2021-10-23T13:33:39Z</time>
      </trkpt>
      <trkpt lat="47.34542" lon="-1.47759">
        <ele>51</ele>
        <time>2021-10-23T13:33:41Z</time>
      </trkpt>
      <trkpt lat="47.34552" lon="-1.47748">
        <ele>51</ele>
        <time>2021-10-23T13:33:43Z</time>
      </trkpt>
      <trkpt lat="47.34562" lon="-1.47736">
        <ele>51</ele>
        <time>2021-10-23T13:33:45Z</time>
      </trkpt>
      <trkpt lat="47.34572" lon="-1.47725">
        <ele>51</ele>
        <time>2021-10-23T13:33:47Z</time>
      </trkpt>
      <trkpt lat="47.34582" lon="-1.47714">
        <ele>50</ele>
        <time>2021-10-23T13:33:49Z</time>
      </trkpt>
      <trkpt lat="47.34592" lon="-1.47703">
        <ele>50</ele>
        <time>2021-10-23T13:33:51Z</time>
      </trkpt>
      <trkpt lat="47.34601" lon="-1.47692">
        <ele>50</ele>
        <time>2021-10-23T13:33:53Z</time>
      </trkpt>
      <trkpt lat="47.34611" lon="-1.47681">
        <ele>50</ele>
        <time>2021-10-23T13:33:55Z</time>
      </trkpt>
      <trkpt lat="47.34621" lon="-1.47671">
        <ele>50</ele>
        <time>2021-10-23T13:33:57Z</time>
      </trkpt>
      <trkpt lat="47.3463" lon="-1.4766">
        <ele>51</ele>
        <time>2021-10-23T13:33:59Z</time>
      </trkpt>
      <trkpt lat="47.3464" lon="-1.4765">
        <ele>51</ele>
        <time>2021-10-23T13:34:01Z</time>
      </trkpt>
      <trkpt lat="47.34649" lon="-1.47639">
        <ele>51</ele>
        <time>2021-10-23T13:34:03Z</time>
      </trkpt>
      <trkpt lat="47.34659" lon="-1.47628">
        <ele>51</ele>
        <time>2021-10-23T13:34:05Z</time>
      </trkpt>
      <trkpt lat="47.34668" lon="-1.47617">
        <ele>51</ele>
        <time>2021-10-23T13:34:07Z</time>
      </trkpt>
      <trkpt lat="47.34678" lon="-1.47607">
        <ele>51</ele>
        <time>2021-10-23T13:34:09Z</time>
      </trkpt>
      <trkpt lat="47.34687" lon="-1.47596">
        <ele>52</ele>
        <time>2021-10-23T13:34:11Z</time>
      </trkpt>
      <trkpt lat="47.34696" lon="-1.47586">
        <ele>52</ele>
        <time>2021-10-23T13:34:13Z</time>
      </trkpt>
      <trkpt lat="47.34705" lon="-1.47575">
        <ele>52</ele>
        <time>2021-10-23T13:34:15Z</time>
      </trkpt>
      <trkpt lat="47.34714" lon="-1.47565">
        <ele>52</ele>
        <time>2021-10-23T13:34:17Z</time>
      </trkpt>
      <trkpt lat="47.34723" lon="-1.47553">
        <ele>52</ele>
        <time>2021-10-23T13:34:19Z</time>
      </trkpt>
      <trkpt lat="47.34733" lon="-1.47543">
        <ele>52</ele>
        <time>2021-10-23T13:34:21Z</time>
      </trkpt>
      <trkpt lat="47.34743" lon="-1.47531">
        <ele>52</ele>
        <time>2021-10-23T13:34:23Z</time>
      </trkpt>
      <trkpt lat="47.34753" lon="-1.47519">
        <ele>51</ele>
        <time>2021-10-23T13:34:25Z</time>
      </trkpt>
      <trkpt lat="47.34761" lon="-1.47507">
        <ele>52</ele>
        <time>2021-10-23T13:34:27Z</time>
      </trkpt>
      <trkpt lat="47.34769" lon="-1.47494">
        <ele>52</ele>
        <time>2021-10-23T13:34:29Z</time>
      </trkpt>
      <trkpt lat="47.34777" lon="-1.47479">
        <ele>52</ele>
        <time>2021-10-23T13:34:31Z</time>
      </trkpt>
      <trkpt lat="47.34784" lon="-1.47464">
        <ele>51</ele>
        <time>2021-10-23T13:34:33Z</time>
      </trkpt>
      <trkpt lat="47.3479" lon="-1.47448">
        <ele>51</ele>
        <time>2021-10-23T13:34:35Z</time>
      </trkpt>
      <trkpt lat="47.34796" lon="-1.47433">
        <ele>51</ele>
        <time>2021-10-23T13:34:37Z</time>
      </trkpt>
      <trkpt lat="47.34802" lon="-1.47418">
        <ele>52</ele>
        <time>2021-10-23T13:34:39Z</time>
      </trkpt>
      <trkpt lat="47.34808" lon="-1.47403">
        <ele>52</ele>
        <time>2021-10-23T13:34:41Z</time>
      </trkpt>
      <trkpt lat="47.34814" lon="-1.47389">
        <ele>52</ele>
        <time>2021-10-23T13:34:43Z</time>
      </trkpt>
      <trkpt lat="47.34821" lon="-1.47375">
        <ele>52</ele>
        <time>2021-10-23T13:34:45Z</time>
      </trkpt>
      <trkpt lat="47.34827" lon="-1.47362">
        <ele>52</ele>
        <time>2021-10-23T13:34:47Z</time>
      </trkpt>
      <trkpt lat="47.34835" lon="-1.4735">
        <ele>51</ele>
        <time>2021-10-23T13:34:49Z</time>
      </trkpt>
      <trkpt lat="47.34844" lon="-1.47338">
        <ele>51</ele>
        <time>2021-10-23T13:34:51Z</time>
      </trkpt>
      <trkpt lat="47.34854" lon="-1.47327">
        <ele>51</ele>
        <time>2021-10-23T13:34:53Z</time>
      </trkpt>
      <trkpt lat="47.34864" lon="-1.47318">
        <ele>51</ele>
        <time>2021-10-23T13:34:55Z</time>
      </trkpt>
      <trkpt lat="47.34875" lon="-1.47309">
        <ele>51</ele>
        <time>2021-10-23T13:34:57Z</time>
      </trkpt>
      <trkpt lat="47.34885" lon="-1.47301">
        <ele>52</ele>
        <time>2021-10-23T13:34:59Z</time>
      </trkpt>
      <trkpt lat="47.34895" lon="-1.47294">
        <ele>52</ele>
        <time>2021-10-23T13:35:01Z</time>
      </trkpt>
      <trkpt lat="47.34905" lon="-1.47285">
        <ele>53</ele>
        <time>2021-10-23T13:35:03Z</time>
      </trkpt>
      <trkpt lat="47.34914" lon="-1.47279">
        <ele>53</ele>
        <time>2021-10-23T13:35:05Z</time>
      </trkpt>
      <trkpt lat="47.34924" lon="-1.47272">
        <ele>53</ele>
        <time>2021-10-23T13:35:07Z</time>
      </trkpt>
      <trkpt lat="47.34934" lon="-1.47266">
        <ele>53</ele>
        <time>2021-10-23T13:35:09Z</time>
      </trkpt>
      <trkpt lat="47.34945" lon="-1.4726">
        <ele>54</ele>
        <time>2021-10-23T13:35:11Z</time>
      </trkpt>
      <trkpt lat="47.34955" lon="-1.47256">
        <ele>54</ele>
        <time>2021-10-23T13:35:13Z</time>
      </trkpt>
      <trkpt lat="47.34965" lon="-1.47252">
        <ele>54</ele>
        <time>2021-10-23T13:35:15Z</time>
      </trkpt>
      <trkpt lat="47.34974" lon="-1.47248">
        <ele>55</ele>
        <time>2021-10-23T13:35:17Z</time>
      </trkpt>
      <trkpt lat="47.34983" lon="-1.47243">
        <ele>55</ele>
        <time>2021-10-23T13:35:19Z</time>
      </trkpt>
      <trkpt lat="47.34991" lon="-1.47236">
        <ele>55</ele>
        <time>2021-10-23T13:35:21Z</time>
      </trkpt>
      <trkpt lat="47.34998" lon="-1.47227">
        <ele>56</ele>
        <time>2021-10-23T13:35:23Z</time>
      </trkpt>
      <trkpt lat="47.35007" lon="-1.47219">
        <ele>56</ele>
        <time>2021-10-23T13:35:25Z</time>
      </trkpt>
      <trkpt lat="47.35016" lon="-1.47213">
        <ele>56</ele>
        <time>2021-10-23T13:35:27Z</time>
      </trkpt>
      <trkpt lat="47.35026" lon="-1.47211">
        <ele>56</ele>
        <time>2021-10-23T13:35:29Z</time>
      </trkpt>
      <trkpt lat="47.35036" lon="-1.47213">
        <ele>56</ele>
        <time>2021-10-23T13:35:31Z</time>
      </trkpt>
      <trkpt lat="47.35046" lon="-1.47218">
        <ele>57</ele>
        <time>2021-10-23T13:35:33Z</time>
      </trkpt>
      <trkpt lat="47.35057" lon="-1.47222">
        <ele>56</ele>
        <time>2021-10-23T13:35:35Z</time>
      </trkpt>
      <trkpt lat="47.35068" lon="-1.47227">
        <ele>56</ele>
        <time>2021-10-23T13:35:37Z</time>
      </trkpt>
      <trkpt lat="47.35079" lon="-1.4723">
        <ele>57</ele>
        <time>2021-10-23T13:35:39Z</time>
      </trkpt>
      <trkpt lat="47.3509" lon="-1.47232">
        <ele>56</ele>
        <time>2021-10-23T13:35:41Z</time>
      </trkpt>
      <trkpt lat="47.35102" lon="-1.47235">
        <ele>56</ele>
        <time>2021-10-23T13:35:43Z</time>
      </trkpt>
      <trkpt lat="47.35113" lon="-1.47237">
        <ele>56</ele>
        <time>2021-10-23T13:35:45Z</time>
      </trkpt>
      <trkpt lat="47.35124" lon="-1.4724">
        <ele>56</ele>
        <time>2021-10-23T13:35:47Z</time>
      </trkpt>
      <trkpt lat="47.35136" lon="-1.47242">
        <ele>56</ele>
        <time>2021-10-23T13:35:49Z</time>
      </trkpt>
      <trkpt lat="47.35147" lon="-1.47244">
        <ele>56</ele>
        <time>2021-10-23T13:35:51Z</time>
      </trkpt>
      <trkpt lat="47.35159" lon="-1.47242">
        <ele>56</ele>
        <time>2021-10-23T13:35:53Z</time>
      </trkpt>
      <trkpt lat="47.3517" lon="-1.4724">
        <ele>56</ele>
        <time>2021-10-23T13:35:55Z</time>
      </trkpt>
      <trkpt lat="47.35181" lon="-1.47235">
        <ele>56</ele>
        <time>2021-10-23T13:35:57Z</time>
      </trkpt>
      <trkpt lat="47.35192" lon="-1.47232">
        <ele>56</ele>
        <time>2021-10-23T13:35:59Z</time>
      </trkpt>
      <trkpt lat="47.35203" lon="-1.47231">
        <ele>56</ele>
        <time>2021-10-23T13:36:01Z</time>
      </trkpt>
      <trkpt lat="47.35214" lon="-1.47238">
        <ele>56</ele>
        <time>2021-10-23T13:36:03Z</time>
      </trkpt>
      <trkpt lat="47.35222" lon="-1.47252">
        <ele>57</ele>
        <time>2021-10-23T13:36:05Z</time>
      </trkpt>
      <trkpt lat="47.3523" lon="-1.47265">
        <ele>56</ele>
        <time>2021-10-23T13:36:07Z</time>
      </trkpt>
      <trkpt lat="47.35237" lon="-1.47279">
        <ele>56</ele>
        <time>2021-10-23T13:36:09Z</time>
      </trkpt>
      <trkpt lat="47.35245" lon="-1.47292">
        <ele>55</ele>
        <time>2021-10-23T13:36:11Z</time>
      </trkpt>
      <trkpt lat="47.35255" lon="-1.473">
        <ele>55</ele>
        <time>2021-10-23T13:36:13Z</time>
      </trkpt>
      <trkpt lat="47.35265" lon="-1.47294">
        <ele>55</ele>
        <time>2021-10-23T13:36:15Z</time>
      </trkpt>
      <trkpt lat="47.35273" lon="-1.47286">
        <ele>55</ele>
        <time>2021-10-23T13:36:17Z</time>
      </trkpt>
      <trkpt lat="47.35283" lon="-1.47281">
        <ele>56</ele>
        <time>2021-10-23T13:36:19Z</time>
      </trkpt>
      <trkpt lat="47.35294" lon="-1.47279">
        <ele>56</ele>
        <time>2021-10-23T13:36:21Z</time>
      </trkpt>
      <trkpt lat="47.35305" lon="-1.47278">
        <ele>56</ele>
        <time>2021-10-23T13:36:23Z</time>
      </trkpt>
      <trkpt lat="47.35315" lon="-1.47278">
        <ele>56</ele>
        <time>2021-10-23T13:36:25Z</time>
      </trkpt>
      <trkpt lat="47.35325" lon="-1.47278">
        <ele>56</ele>
        <time>2021-10-23T13:36:27Z</time>
      </trkpt>
      <trkpt lat="47.35334" lon="-1.47277">
        <ele>56</ele>
        <time>2021-10-23T13:36:29Z</time>
      </trkpt>
      <trkpt lat="47.35346" lon="-1.47277">
        <ele>57</ele>
        <time>2021-10-23T13:36:32Z</time>
      </trkpt>
      <trkpt lat="47.35359" lon="-1.47275">
        <ele>58</ele>
        <time>2021-10-23T13:36:35Z</time>
      </trkpt>
      <trkpt lat="47.3537" lon="-1.47269">
        <ele>58</ele>
        <time>2021-10-23T13:36:38Z</time>
      </trkpt>
      <trkpt lat="47.35381" lon="-1.47261">
        <ele>59</ele>
        <time>2021-10-23T13:36:41Z</time>
      </trkpt>
      <trkpt lat="47.35391" lon="-1.47253">
        <ele>60</ele>
        <time>2021-10-23T13:36:44Z</time>
      </trkpt>
      <trkpt lat="47.35401" lon="-1.47244">
        <ele>60</ele>
        <time>2021-10-23T13:36:47Z</time>
      </trkpt>
      <trkpt lat="47.3541" lon="-1.47234">
        <ele>61</ele>
        <time>2021-10-23T13:36:50Z</time>
      </trkpt>
      <trkpt lat="47.3542" lon="-1.47226">
        <ele>62</ele>
        <time>2021-10-23T13:36:53Z</time>
      </trkpt>
      <trkpt lat="47.35431" lon="-1.47217">
        <ele>63</ele>
        <time>2021-10-23T13:36:56Z</time>
      </trkpt>
      <trkpt lat="47.35441" lon="-1.47208">
        <ele>63</ele>
        <time>2021-10-23T13:36:59Z</time>
      </trkpt>
      <trkpt lat="47.35452" lon="-1.47199">
        <ele>64</ele>
        <time>2021-10-23T13:37:02Z</time>
      </trkpt>
      <trkpt lat="47.35462" lon="-1.47189">
        <ele>64</ele>
        <time>2021-10-23T13:37:05Z</time>
      </trkpt>
      <trkpt lat="47.35472" lon="-1.47181">
        <ele>65</ele>
        <time>2021-10-23T13:37:08Z</time>
      </trkpt>
      <trkpt lat="47.35481" lon="-1.47174">
        <ele>66</ele>
        <time>2021-10-23T13:37:11Z</time>
      </trkpt>
      <trkpt lat="47.35491" lon="-1.47165">
        <ele>66</ele>
        <time>2021-10-23T13:37:14Z</time>
      </trkpt>
      <trkpt lat="47.35501" lon="-1.47155">
        <ele>66</ele>
        <time>2021-10-23T13:37:17Z</time>
      </trkpt>
      <trkpt lat="47.35509" lon="-1.47148">
        <ele>66</ele>
        <time>2021-10-23T13:37:19Z</time>
      </trkpt>
      <trkpt lat="47.35517" lon="-1.47142">
        <ele>66</ele>
        <time>2021-10-23T13:37:21Z</time>
      </trkpt>
      <trkpt lat="47.35526" lon="-1.47135">
        <ele>66</ele>
        <time>2021-10-23T13:37:23Z</time>
      </trkpt>
      <trkpt lat="47.35534" lon="-1.47128">
        <ele>66</ele>
        <time>2021-10-23T13:37:25Z</time>
      </trkpt>
      <trkpt lat="47.35543" lon="-1.47119">
        <ele>66</ele>
        <time>2021-10-23T13:37:27Z</time>
      </trkpt>
      <trkpt lat="47.35552" lon="-1.47113">
        <ele>66</ele>
        <time>2021-10-23T13:37:29Z</time>
      </trkpt>
      <trkpt lat="47.35561" lon="-1.47105">
        <ele>67</ele>
        <time>2021-10-23T13:37:31Z</time>
      </trkpt>
      <trkpt lat="47.3557" lon="-1.47097">
        <ele>67</ele>
        <time>2021-10-23T13:37:33Z</time>
      </trkpt>
      <trkpt lat="47.35579" lon="-1.4709">
        <ele>67</ele>
        <time>2021-10-23T13:37:35Z</time>
      </trkpt>
      <trkpt lat="47.35588" lon="-1.47082">
        <ele>68</ele>
        <time>2021-10-23T13:37:37Z</time>
      </trkpt>
      <trkpt lat="47.35597" lon="-1.47074">
        <ele>68</ele>
        <time>2021-10-23T13:37:39Z</time>
      </trkpt>
      <trkpt lat="47.35607" lon="-1.47065">
        <ele>68</ele>
        <time>2021-10-23T13:37:41Z</time>
      </trkpt>
      <trkpt lat="47.35618" lon="-1.47056">
        <ele>67</ele>
        <time>2021-10-23T13:37:43Z</time>
      </trkpt>
      <trkpt lat="47.35631" lon="-1.47045">
        <ele>66</ele>
        <time>2021-10-23T13:37:45Z</time>
      </trkpt>
      <trkpt lat="47.35645" lon="-1.47032">
        <ele>64</ele>
        <time>2021-10-23T13:37:47Z</time>
      </trkpt>
      <trkpt lat="47.35653" lon="-1.47026">
        <ele>63</ele>
        <time>2021-10-23T13:37:48Z</time>
      </trkpt>
      <trkpt lat="47.35661" lon="-1.47019">
        <ele>61</ele>
        <time>2021-10-23T13:37:49Z</time>
      </trkpt>
      <trkpt lat="47.35669" lon="-1.47011">
        <ele>60</ele>
        <time>2021-10-23T13:37:50Z</time>
      </trkpt>
      <trkpt lat="47.35678" lon="-1.47004">
        <ele>59</ele>
        <time>2021-10-23T13:37:51Z</time>
      </trkpt>
      <trkpt lat="47.35687" lon="-1.46996">
        <ele>58</ele>
        <time>2021-10-23T13:37:52Z</time>
      </trkpt>
      <trkpt lat="47.35696" lon="-1.46988">
        <ele>57</ele>
        <time>2021-10-23T13:37:53Z</time>
      </trkpt>
      <trkpt lat="47.35706" lon="-1.46979">
        <ele>56</ele>
        <time>2021-10-23T13:37:54Z</time>
      </trkpt>
      <trkpt lat="47.35716" lon="-1.46971">
        <ele>56</ele>
        <time>2021-10-23T13:37:55Z</time>
      </trkpt>
      <trkpt lat="47.35724" lon="-1.46963">
        <ele>55</ele>
        <time>2021-10-23T13:37:56Z</time>
      </trkpt>
      <trkpt lat="47.35737" lon="-1.46949">
        <ele>54</ele>
        <time>2021-10-23T13:37:58Z</time>
      </trkpt>
      <trkpt lat="47.35745" lon="-1.46934">
        <ele>54</ele>
        <time>2021-10-23T13:38:00Z</time>
      </trkpt>
      <trkpt lat="47.35744" lon="-1.46916">
        <ele>54</ele>
        <time>2021-10-23T13:38:02Z</time>
      </trkpt>
      <trkpt lat="47.3574" lon="-1.46896">
        <ele>54</ele>
        <time>2021-10-23T13:38:04Z</time>
      </trkpt>
      <trkpt lat="47.35737" lon="-1.46876">
        <ele>55</ele>
        <time>2021-10-23T13:38:06Z</time>
      </trkpt>
      <trkpt lat="47.35735" lon="-1.46857">
        <ele>55</ele>
        <time>2021-10-23T13:38:08Z</time>
      </trkpt>
      <trkpt lat="47.35733" lon="-1.46838">
        <ele>55</ele>
        <time>2021-10-23T13:38:10Z</time>
      </trkpt>
      <trkpt lat="47.35731" lon="-1.4682">
        <ele>54</ele>
        <time>2021-10-23T13:38:12Z</time>
      </trkpt>
      <trkpt lat="47.35732" lon="-1.46801">
        <ele>54</ele>
        <time>2021-10-23T13:38:14Z</time>
      </trkpt>
      <trkpt lat="47.35734" lon="-1.46783">
        <ele>54</ele>
        <time>2021-10-23T13:38:16Z</time>
      </trkpt>
      <trkpt lat="47.35737" lon="-1.46764">
        <ele>54</ele>
        <time>2021-10-23T13:38:18Z</time>
      </trkpt>
      <trkpt lat="47.3574" lon="-1.46746">
        <ele>54</ele>
        <time>2021-10-23T13:38:20Z</time>
      </trkpt>
      <trkpt lat="47.35742" lon="-1.46728">
        <ele>54</ele>
        <time>2021-10-23T13:38:22Z</time>
      </trkpt>
      <trkpt lat="47.35745" lon="-1.46711">
        <ele>54</ele>
        <time>2021-10-23T13:38:24Z</time>
      </trkpt>
      <trkpt lat="47.35747" lon="-1.46692">
        <ele>54</ele>
        <time>2021-10-23T13:38:26Z</time>
      </trkpt>
      <trkpt lat="47.3575" lon="-1.46674">
        <ele>54</ele>
        <time>2021-10-23T13:38:28Z</time>
      </trkpt>
      <trkpt lat="47.35754" lon="-1.46656">
        <ele>54</ele>
        <time>2021-10-23T13:38:30Z</time>
      </trkpt>
      <trkpt lat="47.35762" lon="-1.46641">
        <ele>53</ele>
        <time>2021-10-23T13:38:32Z</time>
      </trkpt>
      <trkpt lat="47.35772" lon="-1.4663">
        <ele>53</ele>
        <time>2021-10-23T13:38:34Z</time>
      </trkpt>
      <trkpt lat="47.35784" lon="-1.4662">
        <ele>53</ele>
        <time>2021-10-23T13:38:36Z</time>
      </trkpt>
      <trkpt lat="47.35795" lon="-1.46611">
        <ele>54</ele>
        <time>2021-10-23T13:38:38Z</time>
      </trkpt>
      <trkpt lat="47.35806" lon="-1.46601">
        <ele>54</ele>
        <time>2021-10-23T13:38:40Z</time>
      </trkpt>
      <trkpt lat="47.35817" lon="-1.46593">
        <ele>54</ele>
        <time>2021-10-23T13:38:42Z</time>
      </trkpt>
      <trkpt lat="47.35829" lon="-1.46584">
        <ele>54</ele>
        <time>2021-10-23T13:38:44Z</time>
      </trkpt>
      <trkpt lat="47.3584" lon="-1.46576">
        <ele>53</ele>
        <time>2021-10-23T13:38:46Z</time>
      </trkpt>
      <trkpt lat="47.35852" lon="-1.46567">
        <ele>53</ele>
        <time>2021-10-23T13:38:48Z</time>
      </trkpt>
      <trkpt lat="47.35863" lon="-1.46558">
        <ele>53</ele>
        <time>2021-10-23T13:38:50Z</time>
      </trkpt>
      <trkpt lat="47.35875" lon="-1.46548">
        <ele>53</ele>
        <time>2021-10-23T13:38:52Z</time>
      </trkpt>
      <trkpt lat="47.35884" lon="-1.46535">
        <ele>52</ele>
        <time>2021-10-23T13:38:54Z</time>
      </trkpt>
      <trkpt lat="47.35889" lon="-1.46518">
        <ele>53</ele>
        <time>2021-10-23T13:38:56Z</time>
      </trkpt>
      <trkpt lat="47.35893" lon="-1.46499">
        <ele>52</ele>
        <time>2021-10-23T13:38:58Z</time>
      </trkpt>
      <trkpt lat="47.35897" lon="-1.4648">
        <ele>52</ele>
        <time>2021-10-23T13:39:00Z</time>
      </trkpt>
      <trkpt lat="47.359" lon="-1.46461">
        <ele>52</ele>
        <time>2021-10-23T13:39:02Z</time>
      </trkpt>
      <trkpt lat="47.35903" lon="-1.46444">
        <ele>53</ele>
        <time>2021-10-23T13:39:04Z</time>
      </trkpt>
      <trkpt lat="47.35906" lon="-1.46425">
        <ele>52</ele>
        <time>2021-10-23T13:39:06Z</time>
      </trkpt>
      <trkpt lat="47.35909" lon="-1.46407">
        <ele>52</ele>
        <time>2021-10-23T13:39:08Z</time>
      </trkpt>
      <trkpt lat="47.3591" lon="-1.4639">
        <ele>52</ele>
        <time>2021-10-23T13:39:10Z</time>
      </trkpt>
      <trkpt lat="47.35906" lon="-1.46374">
        <ele>51</ele>
        <time>2021-10-23T13:39:12Z</time>
      </trkpt>
      <trkpt lat="47.35897" lon="-1.4636">
        <ele>51</ele>
        <time>2021-10-23T13:39:14Z</time>
      </trkpt>
      <trkpt lat="47.35888" lon="-1.46347">
        <ele>52</ele>
        <time>2021-10-23T13:39:16Z</time>
      </trkpt>
      <trkpt lat="47.35879" lon="-1.46335">
        <ele>52</ele>
        <time>2021-10-23T13:39:18Z</time>
      </trkpt>
      <trkpt lat="47.3587" lon="-1.46323">
        <ele>52</ele>
        <time>2021-10-23T13:39:20Z</time>
      </trkpt>
      <trkpt lat="47.35859" lon="-1.46311">
        <ele>52</ele>
        <time>2021-10-23T13:39:22Z</time>
      </trkpt>
      <trkpt lat="47.35851" lon="-1.46298">
        <ele>53</ele>
        <time>2021-10-23T13:39:24Z</time>
      </trkpt>
      <trkpt lat="47.35844" lon="-1.46283">
        <ele>53</ele>
        <time>2021-10-23T13:39:26Z</time>
      </trkpt>
      <trkpt lat="47.35839" lon="-1.46267">
        <ele>53</ele>
        <time>2021-10-23T13:39:28Z</time>
      </trkpt>
      <trkpt lat="47.35835" lon="-1.46249">
        <ele>53</ele>
        <time>2021-10-23T13:39:30Z</time>
      </trkpt>
      <trkpt lat="47.35835" lon="-1.46231">
        <ele>53</ele>
        <time>2021-10-23T13:39:32Z</time>
      </trkpt>
      <trkpt lat="47.35839" lon="-1.46215">
        <ele>54</ele>
        <time>2021-10-23T13:39:34Z</time>
      </trkpt>
      <trkpt lat="47.35843" lon="-1.46199">
        <ele>54</ele>
        <time>2021-10-23T13:39:36Z</time>
      </trkpt>
      <trkpt lat="47.35845" lon="-1.46182">
        <ele>54</ele>
        <time>2021-10-23T13:39:38Z</time>
      </trkpt>
      <trkpt lat="47.35843" lon="-1.46166">
        <ele>54</ele>
        <time>2021-10-23T13:39:40Z</time>
      </trkpt>
      <trkpt lat="47.35839" lon="-1.4615">
        <ele>54</ele>
        <time>2021-10-23T13:39:42Z</time>
      </trkpt>
      <trkpt lat="47.35836" lon="-1.46134">
        <ele>54</ele>
        <time>2021-10-23T13:39:44Z</time>
      </trkpt>
      <trkpt lat="47.35833" lon="-1.46118">
        <ele>55</ele>
        <time>2021-10-23T13:39:46Z</time>
      </trkpt>
      <trkpt lat="47.3583" lon="-1.46103">
        <ele>55</ele>
        <time>2021-10-23T13:39:48Z</time>
      </trkpt>
      <trkpt lat="47.35825" lon="-1.46089">
        <ele>55</ele>
        <time>2021-10-23T13:39:50Z</time>
      </trkpt>
      <trkpt lat="47.35821" lon="-1.46075">
        <ele>55</ele>
        <time>2021-10-23T13:39:52Z</time>
      </trkpt>
      <trkpt lat="47.35817" lon="-1.46061">
        <ele>55</ele>
        <time>2021-10-23T13:39:54Z</time>
      </trkpt>
      <trkpt lat="47.35813" lon="-1.46048">
        <ele>56</ele>
        <time>2021-10-23T13:39:56Z</time>
      </trkpt>
      <trkpt lat="47.35809" lon="-1.46034">
        <ele>56</ele>
        <time>2021-10-23T13:39:58Z</time>
      </trkpt>
      <trkpt lat="47.35805" lon="-1.46021">
        <ele>56</ele>
        <time>2021-10-23T13:40:00Z</time>
      </trkpt>
      <trkpt lat="47.35802" lon="-1.46008">
        <ele>57</ele>
        <time>2021-10-23T13:40:02Z</time>
      </trkpt>
      <trkpt lat="47.35801" lon="-1.45993">
        <ele>57</ele>
        <time>2021-10-23T13:40:04Z</time>
      </trkpt>
      <trkpt lat="47.358" lon="-1.45978">
        <ele>57</ele>
        <time>2021-10-23T13:40:06Z</time>
      </trkpt>
      <trkpt lat="47.358" lon="-1.45963">
        <ele>58</ele>
        <time>2021-10-23T13:40:08Z</time>
      </trkpt>
      <trkpt lat="47.35801" lon="-1.45949">
        <ele>58</ele>
        <time>2021-10-23T13:40:10Z</time>
      </trkpt>
      <trkpt lat="47.358" lon="-1.45935">
        <ele>59</ele>
        <time>2021-10-23T13:40:12Z</time>
      </trkpt>
      <trkpt lat="47.358" lon="-1.45921">
        <ele>59</ele>
        <time>2021-10-23T13:40:14Z</time>
      </trkpt>
      <trkpt lat="47.358" lon="-1.45907">
        <ele>59</ele>
        <time>2021-10-23T13:40:16Z</time>
      </trkpt>
      <trkpt lat="47.35799" lon="-1.45893">
        <ele>60</ele>
        <time>2021-10-23T13:40:18Z</time>
      </trkpt>
      <trkpt lat="47.35799" lon="-1.45877">
        <ele>60</ele>
        <time>2021-10-23T13:40:20Z</time>
      </trkpt>
      <trkpt lat="47.35798" lon="-1.45862">
        <ele>60</ele>
        <time>2021-10-23T13:40:22Z</time>
      </trkpt>
      <trkpt lat="47.35798" lon="-1.45847">
        <ele>60</ele>
        <time>2021-10-23T13:40:24Z</time>
      </trkpt>
      <trkpt lat="47.35798" lon="-1.45833">
        <ele>61</ele>
        <time>2021-10-23T13:40:26Z</time>
      </trkpt>
      <trkpt lat="47.35797" lon="-1.45819">
        <ele>61</ele>
        <time>2021-10-23T13:40:28Z</time>
      </trkpt>
      <trkpt lat="47.35796" lon="-1.45804">
        <ele>61</ele>
        <time>2021-10-23T13:40:30Z</time>
      </trkpt>
      <trkpt lat="47.35796" lon="-1.45789">
        <ele>61</ele>
        <time>2021-10-23T13:40:32Z</time>
      </trkpt>
      <trkpt lat="47.35796" lon="-1.45774">
        <ele>61</ele>
        <time>2021-10-23T13:40:34Z</time>
      </trkpt>
      <trkpt lat="47.35795" lon="-1.4576">
        <ele>60</ele>
        <time>2021-10-23T13:40:36Z</time>
      </trkpt>
      <trkpt lat="47.35794" lon="-1.45741">
        <ele>60</ele>
        <time>2021-10-23T13:40:39Z</time>
      </trkpt>
      <trkpt lat="47.35791" lon="-1.45728">
        <ele>60</ele>
        <time>2021-10-23T13:41:07Z</time>
      </trkpt>
      <trkpt lat="47.35785" lon="-1.4571">
        <ele>60</ele>
        <time>2021-10-23T13:41:11Z</time>
      </trkpt>
      <trkpt lat="47.35782" lon="-1.45696">
        <ele>61</ele>
        <time>2021-10-23T13:41:13Z</time>
      </trkpt>
      <trkpt lat="47.35779" lon="-1.45682">
        <ele>61</ele>
        <time>2021-10-23T13:41:15Z</time>
      </trkpt>
      <trkpt lat="47.35776" lon="-1.45668">
        <ele>61</ele>
        <time>2021-10-23T13:41:17Z</time>
      </trkpt>
      <trkpt lat="47.35772" lon="-1.45653">
        <ele>61</ele>
        <time>2021-10-23T13:41:19Z</time>
      </trkpt>
      <trkpt lat="47.35768" lon="-1.45637">
        <ele>62</ele>
        <time>2021-10-23T13:41:21Z</time>
      </trkpt>
      <trkpt lat="47.35765" lon="-1.45621">
        <ele>61</ele>
        <time>2021-10-23T13:41:23Z</time>
      </trkpt>
      <trkpt lat="47.35763" lon="-1.45605">
        <ele>62</ele>
        <time>2021-10-23T13:41:25Z</time>
      </trkpt>
      <trkpt lat="47.35761" lon="-1.45589">
        <ele>62</ele>
        <time>2021-10-23T13:41:27Z</time>
      </trkpt>
      <trkpt lat="47.35762" lon="-1.45563">
        <ele>63</ele>
        <time>2021-10-23T13:41:30Z</time>
      </trkpt>
      <trkpt lat="47.35766" lon="-1.45539">
        <ele>63</ele>
        <time>2021-10-23T13:41:33Z</time>
      </trkpt>
      <trkpt lat="47.3577" lon="-1.45524">
        <ele>63</ele>
        <time>2021-10-23T13:41:35Z</time>
      </trkpt>
      <trkpt lat="47.35775" lon="-1.45509">
        <ele>63</ele>
        <time>2021-10-23T13:41:37Z</time>
      </trkpt>
      <trkpt lat="47.3578" lon="-1.45494">
        <ele>64</ele>
        <time>2021-10-23T13:41:39Z</time>
      </trkpt>
      <trkpt lat="47.35785" lon="-1.45479">
        <ele>63</ele>
        <time>2021-10-23T13:41:41Z</time>
      </trkpt>
      <trkpt lat="47.35793" lon="-1.45456">
        <ele>63</ele>
        <time>2021-10-23T13:41:44Z</time>
      </trkpt>
      <trkpt lat="47.35797" lon="-1.4544">
        <ele>63</ele>
        <time>2021-10-23T13:41:46Z</time>
      </trkpt>
      <trkpt lat="47.358" lon="-1.45424">
        <ele>63</ele>
        <time>2021-10-23T13:41:48Z</time>
      </trkpt>
      <trkpt lat="47.35801" lon="-1.454">
        <ele>63</ele>
        <time>2021-10-23T13:41:51Z</time>
      </trkpt>
      <trkpt lat="47.358" lon="-1.45384">
        <ele>63</ele>
        <time>2021-10-23T13:41:53Z</time>
      </trkpt>
      <trkpt lat="47.35798" lon="-1.45368">
        <ele>63</ele>
        <time>2021-10-23T13:41:55Z</time>
      </trkpt>
      <trkpt lat="47.35795" lon="-1.45352">
        <ele>63</ele>
        <time>2021-10-23T13:41:57Z</time>
      </trkpt>
      <trkpt lat="47.35792" lon="-1.45337">
        <ele>63</ele>
        <time>2021-10-23T13:41:59Z</time>
      </trkpt>
      <trkpt lat="47.3579" lon="-1.45322">
        <ele>64</ele>
        <time>2021-10-23T13:42:01Z</time>
      </trkpt>
      <trkpt lat="47.35787" lon="-1.45307">
        <ele>64</ele>
        <time>2021-10-23T13:42:03Z</time>
      </trkpt>
      <trkpt lat="47.35785" lon="-1.45292">
        <ele>64</ele>
        <time>2021-10-23T13:42:05Z</time>
      </trkpt>
      <trkpt lat="47.35782" lon="-1.45276">
        <ele>64</ele>
        <time>2021-10-23T13:42:07Z</time>
      </trkpt>
      <trkpt lat="47.3578" lon="-1.45262">
        <ele>64</ele>
        <time>2021-10-23T13:42:09Z</time>
      </trkpt>
      <trkpt lat="47.35777" lon="-1.45247">
        <ele>65</ele>
        <time>2021-10-23T13:42:11Z</time>
      </trkpt>
      <trkpt lat="47.35775" lon="-1.45232">
        <ele>65</ele>
        <time>2021-10-23T13:42:13Z</time>
      </trkpt>
      <trkpt lat="47.35772" lon="-1.45218">
        <ele>65</ele>
        <time>2021-10-23T13:42:15Z</time>
      </trkpt>
      <trkpt lat="47.3577" lon="-1.45202">
        <ele>65</ele>
        <time>2021-10-23T13:42:17Z</time>
      </trkpt>
      <trkpt lat="47.35768" lon="-1.45187">
        <ele>66</ele>
        <time>2021-10-23T13:42:19Z</time>
      </trkpt>
      <trkpt lat="47.35766" lon="-1.45172">
        <ele>65</ele>
        <time>2021-10-23T13:42:21Z</time>
      </trkpt>
      <trkpt lat="47.35765" lon="-1.45156">
        <ele>65</ele>
        <time>2021-10-23T13:42:23Z</time>
      </trkpt>
      <trkpt lat="47.35765" lon="-1.45141">
        <ele>66</ele>
        <time>2021-10-23T13:42:25Z</time>
      </trkpt>
      <trkpt lat="47.35766" lon="-1.45125">
        <ele>66</ele>
        <time>2021-10-23T13:42:27Z</time>
      </trkpt>
      <trkpt lat="47.35767" lon="-1.4511">
        <ele>66</ele>
        <time>2021-10-23T13:42:29Z</time>
      </trkpt>
      <trkpt lat="47.35768" lon="-1.45095">
        <ele>66</ele>
        <time>2021-10-23T13:42:31Z</time>
      </trkpt>
      <trkpt lat="47.35771" lon="-1.4508">
        <ele>66</ele>
        <time>2021-10-23T13:42:33Z</time>
      </trkpt>
      <trkpt lat="47.35773" lon="-1.45065">
        <ele>67</ele>
        <time>2021-10-23T13:42:35Z</time>
      </trkpt>
      <trkpt lat="47.35775" lon="-1.45049">
        <ele>67</ele>
        <time>2021-10-23T13:42:37Z</time>
      </trkpt>
      <trkpt lat="47.35777" lon="-1.45034">
        <ele>67</ele>
        <time>2021-10-23T13:42:39Z</time>
      </trkpt>
      <trkpt lat="47.35779" lon="-1.45019">
        <ele>67</ele>
        <time>2021-10-23T13:42:41Z</time>
      </trkpt>
      <trkpt lat="47.3578" lon="-1.45003">
        <ele>67</ele>
        <time>2021-10-23T13:42:43Z</time>
      </trkpt>
      <trkpt lat="47.3578" lon="-1.44988">
        <ele>68</ele>
        <time>2021-10-23T13:42:45Z</time>
      </trkpt>
      <trkpt lat="47.3578" lon="-1.44973">
        <ele>68</ele>
        <time>2021-10-23T13:42:47Z</time>
      </trkpt>
      <trkpt lat="47.35781" lon="-1.44958">
        <ele>68</ele>
        <time>2021-10-23T13:42:49Z</time>
      </trkpt>
      <trkpt lat="47.35781" lon="-1.44943">
        <ele>68</ele>
        <time>2021-10-23T13:42:51Z</time>
      </trkpt>
      <trkpt lat="47.35782" lon="-1.44929">
        <ele>69</ele>
        <time>2021-10-23T13:42:53Z</time>
      </trkpt>
      <trkpt lat="47.35782" lon="-1.44914">
        <ele>69</ele>
        <time>2021-10-23T13:42:55Z</time>
      </trkpt>
      <trkpt lat="47.35782" lon="-1.449">
        <ele>69</ele>
        <time>2021-10-23T13:42:57Z</time>
      </trkpt>
      <trkpt lat="47.35782" lon="-1.44885">
        <ele>70</ele>
        <time>2021-10-23T13:42:59Z</time>
      </trkpt>
      <trkpt lat="47.35782" lon="-1.4487">
        <ele>70</ele>
        <time>2021-10-23T13:43:01Z</time>
      </trkpt>
      <trkpt lat="47.35783" lon="-1.44855">
        <ele>70</ele>
        <time>2021-10-23T13:43:03Z</time>
      </trkpt>
      <trkpt lat="47.35783" lon="-1.44841">
        <ele>70</ele>
        <time>2021-10-23T13:43:05Z</time>
      </trkpt>
      <trkpt lat="47.35783" lon="-1.44826">
        <ele>71</ele>
        <time>2021-10-23T13:43:07Z</time>
      </trkpt>
      <trkpt lat="47.35783" lon="-1.44812">
        <ele>71</ele>
        <time>2021-10-23T13:43:09Z</time>
      </trkpt>
      <trkpt lat="47.35784" lon="-1.44798">
        <ele>71</ele>
        <time>2021-10-23T13:43:11Z</time>
      </trkpt>
      <trkpt lat="47.35784" lon="-1.44784">
        <ele>71</ele>
        <time>2021-10-23T13:43:13Z</time>
      </trkpt>
      <trkpt lat="47.35784" lon="-1.44765">
        <ele>72</ele>
        <time>2021-10-23T13:43:16Z</time>
      </trkpt>
      <trkpt lat="47.35785" lon="-1.44745">
        <ele>73</ele>
        <time>2021-10-23T13:43:19Z</time>
      </trkpt>
      <trkpt lat="47.35785" lon="-1.44727">
        <ele>74</ele>
        <time>2021-10-23T13:43:22Z</time>
      </trkpt>
      <trkpt lat="47.35785" lon="-1.44707">
        <ele>74</ele>
        <time>2021-10-23T13:43:25Z</time>
      </trkpt>
      <trkpt lat="47.35786" lon="-1.44688">
        <ele>75</ele>
        <time>2021-10-23T13:43:28Z</time>
      </trkpt>
      <trkpt lat="47.35787" lon="-1.4467">
        <ele>76</ele>
        <time>2021-10-23T13:43:31Z</time>
      </trkpt>
      <trkpt lat="47.35787" lon="-1.44651">
        <ele>76</ele>
        <time>2021-10-23T13:43:34Z</time>
      </trkpt>
      <trkpt lat="47.35788" lon="-1.44632">
        <ele>77</ele>
        <time>2021-10-23T13:43:37Z</time>
      </trkpt>
      <trkpt lat="47.35789" lon="-1.44614">
        <ele>78</ele>
        <time>2021-10-23T13:43:40Z</time>
      </trkpt>
      <trkpt lat="47.3579" lon="-1.44597">
        <ele>78</ele>
        <time>2021-10-23T13:43:43Z</time>
      </trkpt>
      <trkpt lat="47.35792" lon="-1.44578">
        <ele>79</ele>
        <time>2021-10-23T13:43:46Z</time>
      </trkpt>
      <trkpt lat="47.35795" lon="-1.44559">
        <ele>80</ele>
        <time>2021-10-23T13:43:49Z</time>
      </trkpt>
      <trkpt lat="47.35797" lon="-1.44541">
        <ele>80</ele>
        <time>2021-10-23T13:43:52Z</time>
      </trkpt>
      <trkpt lat="47.35799" lon="-1.44522">
        <ele>81</ele>
        <time>2021-10-23T13:43:55Z</time>
      </trkpt>
      <trkpt lat="47.35801" lon="-1.44503">
        <ele>81</ele>
        <time>2021-10-23T13:43:58Z</time>
      </trkpt>
      <trkpt lat="47.35802" lon="-1.44484">
        <ele>81</ele>
        <time>2021-10-23T13:44:01Z</time>
      </trkpt>
      <trkpt lat="47.35804" lon="-1.44471">
        <ele>81</ele>
        <time>2021-10-23T13:44:03Z</time>
      </trkpt>
      <trkpt lat="47.35805" lon="-1.44457">
        <ele>81</ele>
        <time>2021-10-23T13:44:05Z</time>
      </trkpt>
      <trkpt lat="47.35806" lon="-1.44442">
        <ele>81</ele>
        <time>2021-10-23T13:44:07Z</time>
      </trkpt>
      <trkpt lat="47.35806" lon="-1.44427">
        <ele>81</ele>
        <time>2021-10-23T13:44:09Z</time>
      </trkpt>
      <trkpt lat="47.35807" lon="-1.44411">
        <ele>81</ele>
        <time>2021-10-23T13:44:11Z</time>
      </trkpt>
      <trkpt lat="47.35807" lon="-1.44395">
        <ele>82</ele>
        <time>2021-10-23T13:44:13Z</time>
      </trkpt>
      <trkpt lat="47.35808" lon="-1.44379">
        <ele>82</ele>
        <time>2021-10-23T13:44:15Z</time>
      </trkpt>
      <trkpt lat="47.35808" lon="-1.44361">
        <ele>83</ele>
        <time>2021-10-23T13:44:17Z</time>
      </trkpt>
      <trkpt lat="47.35807" lon="-1.44344">
        <ele>82</ele>
        <time>2021-10-23T13:44:19Z</time>
      </trkpt>
      <trkpt lat="47.35808" lon="-1.44327">
        <ele>82</ele>
        <time>2021-10-23T13:44:21Z</time>
      </trkpt>
      <trkpt lat="47.35808" lon="-1.44311">
        <ele>82</ele>
        <time>2021-10-23T13:44:23Z</time>
      </trkpt>
      <trkpt lat="47.3581" lon="-1.44296">
        <ele>82</ele>
        <time>2021-10-23T13:44:25Z</time>
      </trkpt>
      <trkpt lat="47.35813" lon="-1.4428">
        <ele>81</ele>
        <time>2021-10-23T13:44:27Z</time>
      </trkpt>
      <trkpt lat="47.35818" lon="-1.44264">
        <ele>81</ele>
        <time>2021-10-23T13:44:29Z</time>
      </trkpt>
      <trkpt lat="47.35825" lon="-1.4425">
        <ele>80</ele>
        <time>2021-10-23T13:44:31Z</time>
      </trkpt>
      <trkpt lat="47.35833" lon="-1.44237">
        <ele>80</ele>
        <time>2021-10-23T13:44:33Z</time>
      </trkpt>
      <trkpt lat="47.35842" lon="-1.44224">
        <ele>81</ele>
        <time>2021-10-23T13:44:35Z</time>
      </trkpt>
      <trkpt lat="47.35851" lon="-1.44212">
        <ele>81</ele>
        <time>2021-10-23T13:44:37Z</time>
      </trkpt>
      <trkpt lat="47.3586" lon="-1.442">
        <ele>81</ele>
        <time>2021-10-23T13:44:39Z</time>
      </trkpt>
      <trkpt lat="47.35868" lon="-1.44188">
        <ele>81</ele>
        <time>2021-10-23T13:44:41Z</time>
      </trkpt>
      <trkpt lat="47.35877" lon="-1.44175">
        <ele>81</ele>
        <time>2021-10-23T13:44:43Z</time>
      </trkpt>
      <trkpt lat="47.35885" lon="-1.44163">
        <ele>81</ele>
        <time>2021-10-23T13:44:45Z</time>
      </trkpt>
      <trkpt lat="47.35894" lon="-1.44151">
        <ele>81</ele>
        <time>2021-10-23T13:44:47Z</time>
      </trkpt>
      <trkpt lat="47.35903" lon="-1.44139">
        <ele>82</ele>
        <time>2021-10-23T13:44:49Z</time>
      </trkpt>
      <trkpt lat="47.35911" lon="-1.44126">
        <ele>82</ele>
        <time>2021-10-23T13:44:51Z</time>
      </trkpt>
      <trkpt lat="47.3592" lon="-1.44115">
        <ele>82</ele>
        <time>2021-10-23T13:44:53Z</time>
      </trkpt>
      <trkpt lat="47.35929" lon="-1.44104">
        <ele>82</ele>
        <time>2021-10-23T13:44:55Z</time>
      </trkpt>
      <trkpt lat="47.35936" lon="-1.44093">
        <ele>82</ele>
        <time>2021-10-23T13:44:57Z</time>
      </trkpt>
      <trkpt lat="47.35939" lon="-1.44078">
        <ele>82</ele>
        <time>2021-10-23T13:44:59Z</time>
      </trkpt>
      <trkpt lat="47.35934" lon="-1.44064">
        <ele>82</ele>
        <time>2021-10-23T13:45:01Z</time>
      </trkpt>
      <trkpt lat="47.35927" lon="-1.44051">
        <ele>82</ele>
        <time>2021-10-23T13:45:03Z</time>
      </trkpt>
      <trkpt lat="47.35922" lon="-1.4404">
        <ele>83</ele>
        <time>2021-10-23T13:45:05Z</time>
      </trkpt>
      <trkpt lat="47.35917" lon="-1.44027">
        <ele>83</ele>
        <time>2021-10-23T13:45:07Z</time>
      </trkpt>
      <trkpt lat="47.35911" lon="-1.44015">
        <ele>83</ele>
        <time>2021-10-23T13:45:09Z</time>
      </trkpt>
      <trkpt lat="47.35906" lon="-1.44005">
        <ele>84</ele>
        <time>2021-10-23T13:45:11Z</time>
      </trkpt>
      <trkpt lat="47.359" lon="-1.43994">
        <ele>84</ele>
        <time>2021-10-23T13:45:13Z</time>
      </trkpt>
      <trkpt lat="47.35895" lon="-1.43983">
        <ele>85</ele>
        <time>2021-10-23T13:45:15Z</time>
      </trkpt>
      <trkpt lat="47.35889" lon="-1.43972">
        <ele>85</ele>
        <time>2021-10-23T13:45:17Z</time>
      </trkpt>
      <trkpt lat="47.35883" lon="-1.4396">
        <ele>86</ele>
        <time>2021-10-23T13:45:19Z</time>
      </trkpt>
      <trkpt lat="47.35877" lon="-1.43948">
        <ele>86</ele>
        <time>2021-10-23T13:45:21Z</time>
      </trkpt>
      <trkpt lat="47.35872" lon="-1.43936">
        <ele>86</ele>
        <time>2021-10-23T13:45:23Z</time>
      </trkpt>
      <trkpt lat="47.35867" lon="-1.43923">
        <ele>86</ele>
        <time>2021-10-23T13:45:25Z</time>
      </trkpt>
      <trkpt lat="47.35862" lon="-1.43912">
        <ele>86</ele>
        <time>2021-10-23T13:45:27Z</time>
      </trkpt>
      <trkpt lat="47.35857" lon="-1.439">
        <ele>87</ele>
        <time>2021-10-23T13:45:29Z</time>
      </trkpt>
      <trkpt lat="47.3585" lon="-1.43884">
        <ele>87</ele>
        <time>2021-10-23T13:45:32Z</time>
      </trkpt>
      <trkpt lat="47.35843" lon="-1.43867">
        <ele>88</ele>
        <time>2021-10-23T13:45:35Z</time>
      </trkpt>
      <trkpt lat="47.35838" lon="-1.43855">
        <ele>88</ele>
        <time>2021-10-23T13:45:37Z</time>
      </trkpt>
      <trkpt lat="47.35833" lon="-1.43844">
        <ele>88</ele>
        <time>2021-10-23T13:45:39Z</time>
      </trkpt>
      <trkpt lat="47.35829" lon="-1.43832">
        <ele>88</ele>
        <time>2021-10-23T13:45:41Z</time>
      </trkpt>
      <trkpt lat="47.35824" lon="-1.4382">
        <ele>88</ele>
        <time>2021-10-23T13:45:43Z</time>
      </trkpt>
      <trkpt lat="47.35819" lon="-1.43808">
        <ele>88</ele>
        <time>2021-10-23T13:45:45Z</time>
      </trkpt>
      <trkpt lat="47.35813" lon="-1.43791">
        <ele>88</ele>
        <time>2021-10-23T13:45:48Z</time>
      </trkpt>
      <trkpt lat="47.35808" lon="-1.4378">
        <ele>89</ele>
        <time>2021-10-23T13:45:50Z</time>
      </trkpt>
      <trkpt lat="47.35803" lon="-1.43768">
        <ele>89</ele>
        <time>2021-10-23T13:45:52Z</time>
      </trkpt>
      <trkpt lat="47.35799" lon="-1.43756">
        <ele>89</ele>
        <time>2021-10-23T13:45:54Z</time>
      </trkpt>
      <trkpt lat="47.35792" lon="-1.43738">
        <ele>89</ele>
        <time>2021-10-23T13:45:57Z</time>
      </trkpt>
      <trkpt lat="47.35787" lon="-1.43726">
        <ele>90</ele>
        <time>2021-10-23T13:45:59Z</time>
      </trkpt>
      <trkpt lat="47.35779" lon="-1.4371">
        <ele>91</ele>
        <time>2021-10-23T13:46:02Z</time>
      </trkpt>
      <trkpt lat="47.35774" lon="-1.43698">
        <ele>91</ele>
        <time>2021-10-23T13:46:04Z</time>
      </trkpt>
      <trkpt lat="47.3577" lon="-1.43687">
        <ele>92</ele>
        <time>2021-10-23T13:46:06Z</time>
      </trkpt>
      <trkpt lat="47.35762" lon="-1.4367">
        <ele>92</ele>
        <time>2021-10-23T13:46:09Z</time>
      </trkpt>
      <trkpt lat="47.35758" lon="-1.43658">
        <ele>92</ele>
        <time>2021-10-23T13:46:11Z</time>
      </trkpt>
      <trkpt lat="47.3575" lon="-1.43642">
        <ele>92</ele>
        <time>2021-10-23T13:46:14Z</time>
      </trkpt>
      <trkpt lat="47.35743" lon="-1.43625">
        <ele>92</ele>
        <time>2021-10-23T13:46:17Z</time>
      </trkpt>
      <trkpt lat="47.35735" lon="-1.43611">
        <ele>93</ele>
        <time>2021-10-23T13:46:20Z</time>
      </trkpt>
      <trkpt lat="47.35726" lon="-1.43597">
        <ele>93</ele>
        <time>2021-10-23T13:46:23Z</time>
      </trkpt>
      <trkpt lat="47.35716" lon="-1.43583">
        <ele>94</ele>
        <time>2021-10-23T13:46:26Z</time>
      </trkpt>
      <trkpt lat="47.35706" lon="-1.43571">
        <ele>94</ele>
        <time>2021-10-23T13:46:29Z</time>
      </trkpt>
      <trkpt lat="47.35695" lon="-1.4356">
        <ele>95</ele>
        <time>2021-10-23T13:46:32Z</time>
      </trkpt>
      <trkpt lat="47.35688" lon="-1.43552">
        <ele>95</ele>
        <time>2021-10-23T13:46:34Z</time>
      </trkpt>
      <trkpt lat="47.35681" lon="-1.43544">
        <ele>95</ele>
        <time>2021-10-23T13:46:36Z</time>
      </trkpt>
      <trkpt lat="47.35674" lon="-1.43535">
        <ele>96</ele>
        <time>2021-10-23T13:46:38Z</time>
      </trkpt>
      <trkpt lat="47.35665" lon="-1.43521">
        <ele>96</ele>
        <time>2021-10-23T13:46:41Z</time>
      </trkpt>
      <trkpt lat="47.35658" lon="-1.43511">
        <ele>96</ele>
        <time>2021-10-23T13:46:43Z</time>
      </trkpt>
      <trkpt lat="47.35652" lon="-1.43501">
        <ele>96</ele>
        <time>2021-10-23T13:46:45Z</time>
      </trkpt>
      <trkpt lat="47.35644" lon="-1.43485">
        <ele>97</ele>
        <time>2021-10-23T13:46:48Z</time>
      </trkpt>
      <trkpt lat="47.3564" lon="-1.43473">
        <ele>97</ele>
        <time>2021-10-23T13:46:50Z</time>
      </trkpt>
      <trkpt lat="47.35635" lon="-1.43461">
        <ele>97</ele>
        <time>2021-10-23T13:46:52Z</time>
      </trkpt>
      <trkpt lat="47.35631" lon="-1.43448">
        <ele>97</ele>
        <time>2021-10-23T13:46:54Z</time>
      </trkpt>
      <trkpt lat="47.35626" lon="-1.43435">
        <ele>97</ele>
        <time>2021-10-23T13:46:56Z</time>
      </trkpt>
      <trkpt lat="47.35623" lon="-1.43422">
        <ele>97</ele>
        <time>2021-10-23T13:46:58Z</time>
      </trkpt>
      <trkpt lat="47.3562" lon="-1.43409">
        <ele>97</ele>
        <time>2021-10-23T13:47:00Z</time>
      </trkpt>
      <trkpt lat="47.35616" lon="-1.43395">
        <ele>98</ele>
        <time>2021-10-23T13:47:02Z</time>
      </trkpt>
      <trkpt lat="47.35613" lon="-1.43382">
        <ele>98</ele>
        <time>2021-10-23T13:47:04Z</time>
      </trkpt>
      <trkpt lat="47.35609" lon="-1.43369">
        <ele>98</ele>
        <time>2021-10-23T13:47:06Z</time>
      </trkpt>
      <trkpt lat="47.35605" lon="-1.43355">
        <ele>98</ele>
        <time>2021-10-23T13:47:08Z</time>
      </trkpt>
      <trkpt lat="47.35602" lon="-1.43343">
        <ele>98</ele>
        <time>2021-10-23T13:47:10Z</time>
      </trkpt>
      <trkpt lat="47.35598" lon="-1.43329">
        <ele>98</ele>
        <time>2021-10-23T13:47:12Z</time>
      </trkpt>
      <trkpt lat="47.35595" lon="-1.43316">
        <ele>98</ele>
        <time>2021-10-23T13:47:14Z</time>
      </trkpt>
      <trkpt lat="47.35591" lon="-1.43302">
        <ele>98</ele>
        <time>2021-10-23T13:47:16Z</time>
      </trkpt>
      <trkpt lat="47.35588" lon="-1.43289">
        <ele>98</ele>
        <time>2021-10-23T13:47:18Z</time>
      </trkpt>
      <trkpt lat="47.35585" lon="-1.43276">
        <ele>98</ele>
        <time>2021-10-23T13:47:20Z</time>
      </trkpt>
      <trkpt lat="47.35582" lon="-1.43263">
        <ele>99</ele>
        <time>2021-10-23T13:47:22Z</time>
      </trkpt>
      <trkpt lat="47.35578" lon="-1.4325">
        <ele>99</ele>
        <time>2021-10-23T13:47:24Z</time>
      </trkpt>
      <trkpt lat="47.35574" lon="-1.43237">
        <ele>99</ele>
        <time>2021-10-23T13:47:26Z</time>
      </trkpt>
      <trkpt lat="47.35571" lon="-1.43224">
        <ele>100</ele>
        <time>2021-10-23T13:47:28Z</time>
      </trkpt>
      <trkpt lat="47.35568" lon="-1.43211">
        <ele>100</ele>
        <time>2021-10-23T13:47:30Z</time>
      </trkpt>
      <trkpt lat="47.35564" lon="-1.43199">
        <ele>99</ele>
        <time>2021-10-23T13:47:32Z</time>
      </trkpt>
      <trkpt lat="47.35561" lon="-1.43186">
        <ele>100</ele>
        <time>2021-10-23T13:47:34Z</time>
      </trkpt>
      <trkpt lat="47.35557" lon="-1.43174">
        <ele>100</ele>
        <time>2021-10-23T13:47:36Z</time>
      </trkpt>
      <trkpt lat="47.35552" lon="-1.43155">
        <ele>101</ele>
        <time>2021-10-23T13:47:39Z</time>
      </trkpt>
      <trkpt lat="47.35548" lon="-1.43142">
        <ele>101</ele>
        <time>2021-10-23T13:47:41Z</time>
      </trkpt>
      <trkpt lat="47.35545" lon="-1.4313">
        <ele>101</ele>
        <time>2021-10-23T13:47:43Z</time>
      </trkpt>
      <trkpt lat="47.35542" lon="-1.43117">
        <ele>101</ele>
        <time>2021-10-23T13:47:45Z</time>
      </trkpt>
      <trkpt lat="47.35539" lon="-1.43104">
        <ele>101</ele>
        <time>2021-10-23T13:47:47Z</time>
      </trkpt>
      <trkpt lat="47.35536" lon="-1.43091">
        <ele>101</ele>
        <time>2021-10-23T13:47:49Z</time>
      </trkpt>
      <trkpt lat="47.35531" lon="-1.43073">
        <ele>102</ele>
        <time>2021-10-23T13:47:52Z</time>
      </trkpt>
      <trkpt lat="47.35528" lon="-1.4306">
        <ele>102</ele>
        <time>2021-10-23T13:47:54Z</time>
      </trkpt>
      <trkpt lat="47.35524" lon="-1.43047">
        <ele>102</ele>
        <time>2021-10-23T13:47:56Z</time>
      </trkpt>
      <trkpt lat="47.35521" lon="-1.43035">
        <ele>102</ele>
        <time>2021-10-23T13:47:58Z</time>
      </trkpt>
      <trkpt lat="47.35518" lon="-1.43022">
        <ele>102</ele>
        <time>2021-10-23T13:48:00Z</time>
      </trkpt>
      <trkpt lat="47.35515" lon="-1.43008">
        <ele>102</ele>
        <time>2021-10-23T13:48:02Z</time>
      </trkpt>
      <trkpt lat="47.35511" lon="-1.42995">
        <ele>102</ele>
        <time>2021-10-23T13:48:04Z</time>
      </trkpt>
      <trkpt lat="47.35508" lon="-1.42982">
        <ele>102</ele>
        <time>2021-10-23T13:48:06Z</time>
      </trkpt>
      <trkpt lat="47.35505" lon="-1.42968">
        <ele>103</ele>
        <time>2021-10-23T13:48:08Z</time>
      </trkpt>
      <trkpt lat="47.35503" lon="-1.42955">
        <ele>102</ele>
        <time>2021-10-23T13:48:10Z</time>
      </trkpt>
      <trkpt lat="47.355" lon="-1.42941">
        <ele>103</ele>
        <time>2021-10-23T13:48:12Z</time>
      </trkpt>
      <trkpt lat="47.35498" lon="-1.42927">
        <ele>103</ele>
        <time>2021-10-23T13:48:14Z</time>
      </trkpt>
      <trkpt lat="47.35496" lon="-1.42913">
        <ele>103</ele>
        <time>2021-10-23T13:48:16Z</time>
      </trkpt>
      <trkpt lat="47.35494" lon="-1.42899">
        <ele>103</ele>
        <time>2021-10-23T13:48:18Z</time>
      </trkpt>
      <trkpt lat="47.35493" lon="-1.42885">
        <ele>104</ele>
        <time>2021-10-23T13:48:20Z</time>
      </trkpt>
      <trkpt lat="47.35492" lon="-1.4287">
        <ele>103</ele>
        <time>2021-10-23T13:48:22Z</time>
      </trkpt>
      <trkpt lat="47.35492" lon="-1.42855">
        <ele>103</ele>
        <time>2021-10-23T13:48:24Z</time>
      </trkpt>
      <trkpt lat="47.35491" lon="-1.42842">
        <ele>103</ele>
        <time>2021-10-23T13:48:26Z</time>
      </trkpt>
      <trkpt lat="47.35491" lon="-1.42828">
        <ele>103</ele>
        <time>2021-10-23T13:48:28Z</time>
      </trkpt>
      <trkpt lat="47.35491" lon="-1.42814">
        <ele>103</ele>
        <time>2021-10-23T13:48:30Z</time>
      </trkpt>
      <trkpt lat="47.35491" lon="-1.42799">
        <ele>103</ele>
        <time>2021-10-23T13:48:32Z</time>
      </trkpt>
      <trkpt lat="47.35491" lon="-1.42785">
        <ele>104</ele>
        <time>2021-10-23T13:48:34Z</time>
      </trkpt>
      <trkpt lat="47.35491" lon="-1.4277">
        <ele>103</ele>
        <time>2021-10-23T13:48:36Z</time>
      </trkpt>
      <trkpt lat="47.35491" lon="-1.42755">
        <ele>103</ele>
        <time>2021-10-23T13:48:38Z</time>
      </trkpt>
      <trkpt lat="47.35491" lon="-1.42741">
        <ele>104</ele>
        <time>2021-10-23T13:48:40Z</time>
      </trkpt>
      <trkpt lat="47.35491" lon="-1.42726">
        <ele>105</ele>
        <time>2021-10-23T13:48:42Z</time>
      </trkpt>
      <trkpt lat="47.3549" lon="-1.42712">
        <ele>105</ele>
        <time>2021-10-23T13:48:44Z</time>
      </trkpt>
      <trkpt lat="47.3549" lon="-1.42697">
        <ele>105</ele>
        <time>2021-10-23T13:48:46Z</time>
      </trkpt>
      <trkpt lat="47.35489" lon="-1.42683">
        <ele>105</ele>
        <time>2021-10-23T13:48:48Z</time>
      </trkpt>
      <trkpt lat="47.3549" lon="-1.42669">
        <ele>105</ele>
        <time>2021-10-23T13:48:50Z</time>
      </trkpt>
      <trkpt lat="47.3549" lon="-1.42654">
        <ele>105</ele>
        <time>2021-10-23T13:48:52Z</time>
      </trkpt>
      <trkpt lat="47.3549" lon="-1.4264">
        <ele>105</ele>
        <time>2021-10-23T13:48:54Z</time>
      </trkpt>
      <trkpt lat="47.35489" lon="-1.42626">
        <ele>106</ele>
        <time>2021-10-23T13:48:56Z</time>
      </trkpt>
      <trkpt lat="47.35489" lon="-1.42613">
        <ele>106</ele>
        <time>2021-10-23T13:48:58Z</time>
      </trkpt>
      <trkpt lat="47.35489" lon="-1.42598">
        <ele>106</ele>
        <time>2021-10-23T13:49:00Z</time>
      </trkpt>
      <trkpt lat="47.35489" lon="-1.42585">
        <ele>106</ele>
        <time>2021-10-23T13:49:02Z</time>
      </trkpt>
      <trkpt lat="47.35489" lon="-1.4257">
        <ele>106</ele>
        <time>2021-10-23T13:49:04Z</time>
      </trkpt>
      <trkpt lat="47.35488" lon="-1.42557">
        <ele>106</ele>
        <time>2021-10-23T13:49:06Z</time>
      </trkpt>
      <trkpt lat="47.35488" lon="-1.42543">
        <ele>106</ele>
        <time>2021-10-23T13:49:08Z</time>
      </trkpt>
      <trkpt lat="47.35488" lon="-1.42528">
        <ele>106</ele>
        <time>2021-10-23T13:49:10Z</time>
      </trkpt>
      <trkpt lat="47.35488" lon="-1.42515">
        <ele>106</ele>
        <time>2021-10-23T13:49:12Z</time>
      </trkpt>
      <trkpt lat="47.35488" lon="-1.42501">
        <ele>107</ele>
        <time>2021-10-23T13:49:14Z</time>
      </trkpt>
      <trkpt lat="47.35488" lon="-1.42487">
        <ele>107</ele>
        <time>2021-10-23T13:49:16Z</time>
      </trkpt>
      <trkpt lat="47.35487" lon="-1.42473">
        <ele>107</ele>
        <time>2021-10-23T13:49:18Z</time>
      </trkpt>
      <trkpt lat="47.35487" lon="-1.42458">
        <ele>107</ele>
        <time>2021-10-23T13:49:20Z</time>
      </trkpt>
      <trkpt lat="47.35487" lon="-1.42443">
        <ele>107</ele>
        <time>2021-10-23T13:49:22Z</time>
      </trkpt>
      <trkpt lat="47.35487" lon="-1.42429">
        <ele>107</ele>
        <time>2021-10-23T13:49:24Z</time>
      </trkpt>
      <trkpt lat="47.35486" lon="-1.42413">
        <ele>107</ele>
        <time>2021-10-23T13:49:26Z</time>
      </trkpt>
      <trkpt lat="47.35486" lon="-1.42398">
        <ele>107</ele>
        <time>2021-10-23T13:49:28Z</time>
      </trkpt>
      <trkpt lat="47.35485" lon="-1.42383">
        <ele>107</ele>
        <time>2021-10-23T13:49:30Z</time>
      </trkpt>
      <trkpt lat="47.35485" lon="-1.42368">
        <ele>108</ele>
        <time>2021-10-23T13:49:32Z</time>
      </trkpt>
      <trkpt lat="47.35485" lon="-1.42352">
        <ele>108</ele>
        <time>2021-10-23T13:49:34Z</time>
      </trkpt>
      <trkpt lat="47.35485" lon="-1.42337">
        <ele>108</ele>
        <time>2021-10-23T13:49:36Z</time>
      </trkpt>
      <trkpt lat="47.35484" lon="-1.42322">
        <ele>108</ele>
        <time>2021-10-23T13:49:38Z</time>
      </trkpt>
      <trkpt lat="47.35484" lon="-1.42306">
        <ele>108</ele>
        <time>2021-10-23T13:49:40Z</time>
      </trkpt>
      <trkpt lat="47.35484" lon="-1.42291">
        <ele>108</ele>
        <time>2021-10-23T13:49:42Z</time>
      </trkpt>
      <trkpt lat="47.35484" lon="-1.42276">
        <ele>108</ele>
        <time>2021-10-23T13:49:44Z</time>
      </trkpt>
      <trkpt lat="47.35484" lon="-1.4226">
        <ele>108</ele>
        <time>2021-10-23T13:49:46Z</time>
      </trkpt>
      <trkpt lat="47.35483" lon="-1.42245">
        <ele>108</ele>
        <time>2021-10-23T13:49:48Z</time>
      </trkpt>
      <trkpt lat="47.35482" lon="-1.42229">
        <ele>108</ele>
        <time>2021-10-23T13:49:50Z</time>
      </trkpt>
      <trkpt lat="47.35482" lon="-1.42214">
        <ele>108</ele>
        <time>2021-10-23T13:49:52Z</time>
      </trkpt>
      <trkpt lat="47.35483" lon="-1.42199">
        <ele>108</ele>
        <time>2021-10-23T13:49:54Z</time>
      </trkpt>
      <trkpt lat="47.35482" lon="-1.42184">
        <ele>108</ele>
        <time>2021-10-23T13:49:56Z</time>
      </trkpt>
      <trkpt lat="47.35481" lon="-1.42169">
        <ele>108</ele>
        <time>2021-10-23T13:49:58Z</time>
      </trkpt>
      <trkpt lat="47.35481" lon="-1.42154">
        <ele>108</ele>
        <time>2021-10-23T13:50:00Z</time>
      </trkpt>
      <trkpt lat="47.3548" lon="-1.4214">
        <ele>108</ele>
        <time>2021-10-23T13:50:02Z</time>
      </trkpt>
      <trkpt lat="47.3548" lon="-1.42125">
        <ele>109</ele>
        <time>2021-10-23T13:50:04Z</time>
      </trkpt>
      <trkpt lat="47.35479" lon="-1.42111">
        <ele>109</ele>
        <time>2021-10-23T13:50:06Z</time>
      </trkpt>
      <trkpt lat="47.35479" lon="-1.42097">
        <ele>109</ele>
        <time>2021-10-23T13:50:08Z</time>
      </trkpt>
      <trkpt lat="47.35479" lon="-1.42083">
        <ele>109</ele>
        <time>2021-10-23T13:50:10Z</time>
      </trkpt>
      <trkpt lat="47.35478" lon="-1.42069">
        <ele>109</ele>
        <time>2021-10-23T13:50:12Z</time>
      </trkpt>
      <trkpt lat="47.35478" lon="-1.42055">
        <ele>109</ele>
        <time>2021-10-23T13:50:14Z</time>
      </trkpt>
      <trkpt lat="47.35478" lon="-1.42041">
        <ele>109</ele>
        <time>2021-10-23T13:50:16Z</time>
      </trkpt>
      <trkpt lat="47.35477" lon="-1.42026">
        <ele>109</ele>
        <time>2021-10-23T13:50:18Z</time>
      </trkpt>
      <trkpt lat="47.35477" lon="-1.42011">
        <ele>110</ele>
        <time>2021-10-23T13:50:20Z</time>
      </trkpt>
      <trkpt lat="47.35477" lon="-1.41995">
        <ele>110</ele>
        <time>2021-10-23T13:50:22Z</time>
      </trkpt>
      <trkpt lat="47.35476" lon="-1.41979">
        <ele>110</ele>
        <time>2021-10-23T13:50:24Z</time>
      </trkpt>
      <trkpt lat="47.35476" lon="-1.41963">
        <ele>110</ele>
        <time>2021-10-23T13:50:26Z</time>
      </trkpt>
      <trkpt lat="47.35476" lon="-1.41948">
        <ele>110</ele>
        <time>2021-10-23T13:50:28Z</time>
      </trkpt>
      <trkpt lat="47.35475" lon="-1.41932">
        <ele>111</ele>
        <time>2021-10-23T13:50:30Z</time>
      </trkpt>
      <trkpt lat="47.35475" lon="-1.41917">
        <ele>111</ele>
        <time>2021-10-23T13:50:32Z</time>
      </trkpt>
      <trkpt lat="47.35474" lon="-1.41901">
        <ele>111</ele>
        <time>2021-10-23T13:50:34Z</time>
      </trkpt>
      <trkpt lat="47.35473" lon="-1.41886">
        <ele>111</ele>
        <time>2021-10-23T13:50:36Z</time>
      </trkpt>
      <trkpt lat="47.35471" lon="-1.41871">
        <ele>111</ele>
        <time>2021-10-23T13:50:38Z</time>
      </trkpt>
      <trkpt lat="47.3547" lon="-1.41856">
        <ele>111</ele>
        <time>2021-10-23T13:50:40Z</time>
      </trkpt>
      <trkpt lat="47.35469" lon="-1.41841">
        <ele>111</ele>
        <time>2021-10-23T13:50:42Z</time>
      </trkpt>
      <trkpt lat="47.35467" lon="-1.41826">
        <ele>112</ele>
        <time>2021-10-23T13:50:44Z</time>
      </trkpt>
      <trkpt lat="47.35466" lon="-1.41811">
        <ele>111</ele>
        <time>2021-10-23T13:50:46Z</time>
      </trkpt>
      <trkpt lat="47.35464" lon="-1.41796">
        <ele>111</ele>
        <time>2021-10-23T13:50:48Z</time>
      </trkpt>
      <trkpt lat="47.35462" lon="-1.41781">
        <ele>111</ele>
        <time>2021-10-23T13:50:50Z</time>
      </trkpt>
      <trkpt lat="47.35461" lon="-1.41766">
        <ele>112</ele>
        <time>2021-10-23T13:50:52Z</time>
      </trkpt>
      <trkpt lat="47.3546" lon="-1.41751">
        <ele>112</ele>
        <time>2021-10-23T13:50:54Z</time>
      </trkpt>
      <trkpt lat="47.35458" lon="-1.41736">
        <ele>113</ele>
        <time>2021-10-23T13:50:56Z</time>
      </trkpt>
      <trkpt lat="47.35457" lon="-1.4172">
        <ele>113</ele>
        <time>2021-10-23T13:50:58Z</time>
      </trkpt>
      <trkpt lat="47.35456" lon="-1.41705">
        <ele>112</ele>
        <time>2021-10-23T13:51:00Z</time>
      </trkpt>
      <trkpt lat="47.35454" lon="-1.41689">
        <ele>113</ele>
        <time>2021-10-23T13:51:02Z</time>
      </trkpt>
      <trkpt lat="47.35453" lon="-1.41673">
        <ele>112</ele>
        <time>2021-10-23T13:51:04Z</time>
      </trkpt>
      <trkpt lat="47.35451" lon="-1.41659">
        <ele>113</ele>
        <time>2021-10-23T13:51:06Z</time>
      </trkpt>
      <trkpt lat="47.3545" lon="-1.41643">
        <ele>113</ele>
        <time>2021-10-23T13:51:08Z</time>
      </trkpt>
      <trkpt lat="47.35448" lon="-1.41627">
        <ele>112</ele>
        <time>2021-10-23T13:51:10Z</time>
      </trkpt>
      <trkpt lat="47.35447" lon="-1.41611">
        <ele>112</ele>
        <time>2021-10-23T13:51:12Z</time>
      </trkpt>
      <trkpt lat="47.35445" lon="-1.41595">
        <ele>112</ele>
        <time>2021-10-23T13:51:14Z</time>
      </trkpt>
      <trkpt lat="47.35443" lon="-1.41581">
        <ele>112</ele>
        <time>2021-10-23T13:51:16Z</time>
      </trkpt>
      <trkpt lat="47.35442" lon="-1.41567">
        <ele>112</ele>
        <time>2021-10-23T13:51:18Z</time>
      </trkpt>
      <trkpt lat="47.3544" lon="-1.41552">
        <ele>112</ele>
        <time>2021-10-23T13:51:21Z</time>
      </trkpt>
      <trkpt lat="47.35444" lon="-1.41536">
        <ele>112</ele>
        <time>2021-10-23T13:51:24Z</time>
      </trkpt>
      <trkpt lat="47.35452" lon="-1.41525">
        <ele>112</ele>
        <time>2021-10-23T13:51:26Z</time>
      </trkpt>
      <trkpt lat="47.35461" lon="-1.41515">
        <ele>112</ele>
        <time>2021-10-23T13:51:28Z</time>
      </trkpt>
      <trkpt lat="47.35471" lon="-1.41505">
        <ele>113</ele>
        <time>2021-10-23T13:51:30Z</time>
      </trkpt>
      <trkpt lat="47.35481" lon="-1.41495">
        <ele>113</ele>
        <time>2021-10-23T13:51:32Z</time>
      </trkpt>
      <trkpt lat="47.35491" lon="-1.41484">
        <ele>113</ele>
        <time>2021-10-23T13:51:34Z</time>
      </trkpt>
      <trkpt lat="47.35501" lon="-1.41474">
        <ele>114</ele>
        <time>2021-10-23T13:51:36Z</time>
      </trkpt>
      <trkpt lat="47.3551" lon="-1.41463">
        <ele>114</ele>
        <time>2021-10-23T13:51:38Z</time>
      </trkpt>
      <trkpt lat="47.3552" lon="-1.41453">
        <ele>114</ele>
        <time>2021-10-23T13:51:40Z</time>
      </trkpt>
      <trkpt lat="47.35529" lon="-1.41442">
        <ele>114</ele>
        <time>2021-10-23T13:51:42Z</time>
      </trkpt>
      <trkpt lat="47.35539" lon="-1.41432">
        <ele>114</ele>
        <time>2021-10-23T13:51:44Z</time>
      </trkpt>
      <trkpt lat="47.35548" lon="-1.41422">
        <ele>114</ele>
        <time>2021-10-23T13:51:46Z</time>
      </trkpt>
      <trkpt lat="47.35558" lon="-1.41412">
        <ele>114</ele>
        <time>2021-10-23T13:51:48Z</time>
      </trkpt>
      <trkpt lat="47.35567" lon="-1.41402">
        <ele>114</ele>
        <time>2021-10-23T13:51:50Z</time>
      </trkpt>
      <trkpt lat="47.35576" lon="-1.41394">
        <ele>114</ele>
        <time>2021-10-23T13:51:52Z</time>
      </trkpt>
      <trkpt lat="47.35585" lon="-1.41386">
        <ele>114</ele>
        <time>2021-10-23T13:51:54Z</time>
      </trkpt>
      <trkpt lat="47.35595" lon="-1.41387">
        <ele>114</ele>
        <time>2021-10-23T13:51:56Z</time>
      </trkpt>
      <trkpt lat="47.35601" lon="-1.41398">
        <ele>113</ele>
        <time>2021-10-23T13:51:58Z</time>
      </trkpt>
      <trkpt lat="47.35607" lon="-1.41408">
        <ele>113</ele>
        <time>2021-10-23T13:52:00Z</time>
      </trkpt>
      <trkpt lat="47.35614" lon="-1.4142">
        <ele>113</ele>
        <time>2021-10-23T13:52:02Z</time>
      </trkpt>
      <trkpt lat="47.3562" lon="-1.41432">
        <ele>113</ele>
        <time>2021-10-23T13:52:04Z</time>
      </trkpt>
      <trkpt lat="47.35627" lon="-1.41443">
        <ele>112</ele>
        <time>2021-10-23T13:52:06Z</time>
      </trkpt>
      <trkpt lat="47.35634" lon="-1.41455">
        <ele>112</ele>
        <time>2021-10-23T13:52:08Z</time>
      </trkpt>
      <trkpt lat="47.3564" lon="-1.41467">
        <ele>113</ele>
        <time>2021-10-23T13:52:10Z</time>
      </trkpt>
      <trkpt lat="47.35646" lon="-1.41478">
        <ele>113</ele>
        <time>2021-10-23T13:52:12Z</time>
      </trkpt>
      <trkpt lat="47.35653" lon="-1.41487">
        <ele>113</ele>
        <time>2021-10-23T13:52:14Z</time>
      </trkpt>
      <trkpt lat="47.35662" lon="-1.41484">
        <ele>113</ele>
        <time>2021-10-23T13:52:18Z</time>
      </trkpt>
      <trkpt lat="47.3567" lon="-1.41474">
        <ele>113</ele>
        <time>2021-10-23T13:52:22Z</time>
      </trkpt>
      <trkpt lat="47.35677" lon="-1.41461">
        <ele>113</ele>
        <time>2021-10-23T13:52:26Z</time>
      </trkpt>
      <trkpt lat="47.35685" lon="-1.41451">
        <ele>113</ele>
        <time>2021-10-23T13:52:29Z</time>
      </trkpt>
      <trkpt lat="47.35694" lon="-1.41445">
        <ele>114</ele>
        <time>2021-10-23T13:52:47Z</time>
      </trkpt>
      <trkpt lat="47.35703" lon="-1.41437">
        <ele>114</ele>
        <time>2021-10-23T13:52:50Z</time>
      </trkpt>
      <trkpt lat="47.35712" lon="-1.41429">
        <ele>113</ele>
        <time>2021-10-23T13:52:53Z</time>
      </trkpt>
      <trkpt lat="47.35723" lon="-1.41418">
        <ele>112</ele>
        <time>2021-10-23T13:52:56Z</time>
      </trkpt>
      <trkpt lat="47.35731" lon="-1.41411">
        <ele>111</ele>
        <time>2021-10-23T13:52:58Z</time>
      </trkpt>
      <trkpt lat="47.35742" lon="-1.41401">
        <ele>111</ele>
        <time>2021-10-23T13:53:01Z</time>
      </trkpt>
      <trkpt lat="47.35752" lon="-1.41391">
        <ele>111</ele>
        <time>2021-10-23T13:53:04Z</time>
      </trkpt>
      <trkpt lat="47.35762" lon="-1.41382">
        <ele>111</ele>
        <time>2021-10-23T13:53:07Z</time>
      </trkpt>
      <trkpt lat="47.35773" lon="-1.41379">
        <ele>111</ele>
        <time>2021-10-23T13:53:10Z</time>
      </trkpt>
      <trkpt lat="47.35784" lon="-1.41379">
        <ele>110</ele>
        <time>2021-10-23T13:53:13Z</time>
      </trkpt>
      <trkpt lat="47.35791" lon="-1.41368">
        <ele>110</ele>
        <time>2021-10-23T13:53:16Z</time>
      </trkpt>
      <trkpt lat="47.35794" lon="-1.41353">
        <ele>110</ele>
        <time>2021-10-23T13:53:19Z</time>
      </trkpt>
      <trkpt lat="47.35802" lon="-1.41346">
        <ele>110</ele>
        <time>2021-10-23T13:53:21Z</time>
      </trkpt>
      <trkpt lat="47.3581" lon="-1.41338">
        <ele>111</ele>
        <time>2021-10-23T13:53:23Z</time>
      </trkpt>
      <trkpt lat="47.35818" lon="-1.41329">
        <ele>111</ele>
        <time>2021-10-23T13:53:25Z</time>
      </trkpt>
      <trkpt lat="47.35826" lon="-1.41319">
        <ele>112</ele>
        <time>2021-10-23T13:53:27Z</time>
      </trkpt>
      <trkpt lat="47.35833" lon="-1.41308">
        <ele>112</ele>
        <time>2021-10-23T13:53:29Z</time>
      </trkpt>
      <trkpt lat="47.35838" lon="-1.41294">
        <ele>112</ele>
        <time>2021-10-23T13:53:31Z</time>
      </trkpt>
      <trkpt lat="47.35844" lon="-1.41282">
        <ele>112</ele>
        <time>2021-10-23T13:53:33Z</time>
      </trkpt>
      <trkpt lat="47.35849" lon="-1.41269">
        <ele>112</ele>
        <time>2021-10-23T13:53:35Z</time>
      </trkpt>
      <trkpt lat="47.35854" lon="-1.41256">
        <ele>112</ele>
        <time>2021-10-23T13:53:37Z</time>
      </trkpt>
      <trkpt lat="47.3586" lon="-1.41243">
        <ele>113</ele>
        <time>2021-10-23T13:53:39Z</time>
      </trkpt>
      <trkpt lat="47.35866" lon="-1.4123">
        <ele>113</ele>
        <time>2021-10-23T13:53:41Z</time>
      </trkpt>
      <trkpt lat="47.35871" lon="-1.41218">
        <ele>113</ele>
        <time>2021-10-23T13:53:43Z</time>
      </trkpt>
      <trkpt lat="47.35876" lon="-1.41204">
        <ele>113</ele>
        <time>2021-10-23T13:53:45Z</time>
      </trkpt>
      <trkpt lat="47.35883" lon="-1.41192">
        <ele>113</ele>
        <time>2021-10-23T13:53:47Z</time>
      </trkpt>
      <trkpt lat="47.3589" lon="-1.41179">
        <ele>114</ele>
        <time>2021-10-23T13:53:49Z</time>
      </trkpt>
      <trkpt lat="47.35898" lon="-1.41169">
        <ele>114</ele>
        <time>2021-10-23T13:53:51Z</time>
      </trkpt>
      <trkpt lat="47.35906" lon="-1.41159">
        <ele>114</ele>
        <time>2021-10-23T13:53:53Z</time>
      </trkpt>
      <trkpt lat="47.35915" lon="-1.4115">
        <ele>115</ele>
        <time>2021-10-23T13:53:55Z</time>
      </trkpt>
      <trkpt lat="47.35923" lon="-1.4114">
        <ele>115</ele>
        <time>2021-10-23T13:53:57Z</time>
      </trkpt>
      <trkpt lat="47.35932" lon="-1.41132">
        <ele>115</ele>
        <time>2021-10-23T13:53:59Z</time>
      </trkpt>
      <trkpt lat="47.3594" lon="-1.41123">
        <ele>115</ele>
        <time>2021-10-23T13:54:01Z</time>
      </trkpt>
      <trkpt lat="47.35948" lon="-1.41113">
        <ele>115</ele>
        <time>2021-10-23T13:54:03Z</time>
      </trkpt>
      <trkpt lat="47.35956" lon="-1.41104">
        <ele>115</ele>
        <time>2021-10-23T13:54:05Z</time>
      </trkpt>
      <trkpt lat="47.35964" lon="-1.41094">
        <ele>115</ele>
        <time>2021-10-23T13:54:07Z</time>
      </trkpt>
      <trkpt lat="47.35973" lon="-1.41085">
        <ele>116</ele>
        <time>2021-10-23T13:54:09Z</time>
      </trkpt>
      <trkpt lat="47.35981" lon="-1.41077">
        <ele>115</ele>
        <time>2021-10-23T13:54:11Z</time>
      </trkpt>
      <trkpt lat="47.35989" lon="-1.41068">
        <ele>116</ele>
        <time>2021-10-23T13:54:13Z</time>
      </trkpt>
      <trkpt lat="47.36" lon="-1.4106">
        <ele>116</ele>
        <time>2021-10-23T13:54:16Z</time>
      </trkpt>
      <trkpt lat="47.36006" lon="-1.41048">
        <ele>116</ele>
        <time>2021-10-23T13:54:20Z</time>
      </trkpt>
      <trkpt lat="47.35997" lon="-1.41039">
        <ele>117</ele>
        <time>2021-10-23T13:54:23Z</time>
      </trkpt>
      <trkpt lat="47.35988" lon="-1.41034">
        <ele>117</ele>
        <time>2021-10-23T13:54:25Z</time>
      </trkpt>
      <trkpt lat="47.35979" lon="-1.41028">
        <ele>118</ele>
        <time>2021-10-23T13:54:27Z</time>
      </trkpt>
      <trkpt lat="47.35969" lon="-1.41023">
        <ele>118</ele>
        <time>2021-10-23T13:54:29Z</time>
      </trkpt>
      <trkpt lat="47.35961" lon="-1.41017">
        <ele>118</ele>
        <time>2021-10-23T13:54:31Z</time>
      </trkpt>
      <trkpt lat="47.35951" lon="-1.4101">
        <ele>118</ele>
        <time>2021-10-23T13:54:34Z</time>
      </trkpt>
      <trkpt lat="47.35939" lon="-1.41">
        <ele>118</ele>
        <time>2021-10-23T13:54:37Z</time>
      </trkpt>
      <trkpt lat="47.35929" lon="-1.40994">
        <ele>118</ele>
        <time>2021-10-23T13:54:39Z</time>
      </trkpt>
      <trkpt lat="47.35918" lon="-1.40988">
        <ele>118</ele>
        <time>2021-10-23T13:54:41Z</time>
      </trkpt>
      <trkpt lat="47.35908" lon="-1.40982">
        <ele>119</ele>
        <time>2021-10-23T13:54:43Z</time>
      </trkpt>
      <trkpt lat="47.35897" lon="-1.40977">
        <ele>119</ele>
        <time>2021-10-23T13:54:45Z</time>
      </trkpt>
      <trkpt lat="47.35887" lon="-1.40971">
        <ele>118</ele>
        <time>2021-10-23T13:54:47Z</time>
      </trkpt>
      <trkpt lat="47.35876" lon="-1.40965">
        <ele>118</ele>
        <time>2021-10-23T13:54:49Z</time>
      </trkpt>
      <trkpt lat="47.35865" lon="-1.40959">
        <ele>119</ele>
        <time>2021-10-23T13:54:51Z</time>
      </trkpt>
      <trkpt lat="47.35854" lon="-1.40953">
        <ele>119</ele>
        <time>2021-10-23T13:54:53Z</time>
      </trkpt>
      <trkpt lat="47.35844" lon="-1.40946">
        <ele>119</ele>
        <time>2021-10-23T13:54:55Z</time>
      </trkpt>
      <trkpt lat="47.35833" lon="-1.4094">
        <ele>119</ele>
        <time>2021-10-23T13:54:57Z</time>
      </trkpt>
      <trkpt lat="47.35823" lon="-1.40934">
        <ele>119</ele>
        <time>2021-10-23T13:54:59Z</time>
      </trkpt>
      <trkpt lat="47.35812" lon="-1.40928">
        <ele>119</ele>
        <time>2021-10-23T13:55:01Z</time>
      </trkpt>
      <trkpt lat="47.35802" lon="-1.40922">
        <ele>119</ele>
        <time>2021-10-23T13:55:03Z</time>
      </trkpt>
      <trkpt lat="47.35792" lon="-1.40914">
        <ele>119</ele>
        <time>2021-10-23T13:55:05Z</time>
      </trkpt>
      <trkpt lat="47.35789" lon="-1.40898">
        <ele>119</ele>
        <time>2021-10-23T13:55:07Z</time>
      </trkpt>
      <trkpt lat="47.35793" lon="-1.40882">
        <ele>118</ele>
        <time>2021-10-23T13:55:09Z</time>
      </trkpt>
      <trkpt lat="47.35797" lon="-1.40868">
        <ele>118</ele>
        <time>2021-10-23T13:55:11Z</time>
      </trkpt>
      <trkpt lat="47.35801" lon="-1.40854">
        <ele>118</ele>
        <time>2021-10-23T13:55:13Z</time>
      </trkpt>
      <trkpt lat="47.35804" lon="-1.40839">
        <ele>118</ele>
        <time>2021-10-23T13:55:15Z</time>
      </trkpt>
      <trkpt lat="47.35809" lon="-1.40825">
        <ele>117</ele>
        <time>2021-10-23T13:55:17Z</time>
      </trkpt>
      <trkpt lat="47.35817" lon="-1.40812">
        <ele>117</ele>
        <time>2021-10-23T13:55:19Z</time>
      </trkpt>
      <trkpt lat="47.35823" lon="-1.408">
        <ele>118</ele>
        <time>2021-10-23T13:55:21Z</time>
      </trkpt>
      <trkpt lat="47.35829" lon="-1.40785">
        <ele>117</ele>
        <time>2021-10-23T13:55:23Z</time>
      </trkpt>
      <trkpt lat="47.35833" lon="-1.4077">
        <ele>117</ele>
        <time>2021-10-23T13:55:25Z</time>
      </trkpt>
      <trkpt lat="47.35835" lon="-1.40754">
        <ele>117</ele>
        <time>2021-10-23T13:55:27Z</time>
      </trkpt>
      <trkpt lat="47.35838" lon="-1.40738">
        <ele>118</ele>
        <time>2021-10-23T13:55:29Z</time>
      </trkpt>
      <trkpt lat="47.3584" lon="-1.40723">
        <ele>118</ele>
        <time>2021-10-23T13:55:31Z</time>
      </trkpt>
      <trkpt lat="47.35841" lon="-1.40707">
        <ele>118</ele>
        <time>2021-10-23T13:55:33Z</time>
      </trkpt>
      <trkpt lat="47.35842" lon="-1.40691">
        <ele>118</ele>
        <time>2021-10-23T13:55:35Z</time>
      </trkpt>
      <trkpt lat="47.35843" lon="-1.40675">
        <ele>118</ele>
        <time>2021-10-23T13:55:37Z</time>
      </trkpt>
      <trkpt lat="47.35844" lon="-1.40658">
        <ele>118</ele>
        <time>2021-10-23T13:55:39Z</time>
      </trkpt>
      <trkpt lat="47.35845" lon="-1.40641">
        <ele>119</ele>
        <time>2021-10-23T13:55:41Z</time>
      </trkpt>
      <trkpt lat="47.35845" lon="-1.40624">
        <ele>119</ele>
        <time>2021-10-23T13:55:43Z</time>
      </trkpt>
      <trkpt lat="47.35844" lon="-1.40607">
        <ele>119</ele>
        <time>2021-10-23T13:55:45Z</time>
      </trkpt>
      <trkpt lat="47.35844" lon="-1.4059">
        <ele>118</ele>
        <time>2021-10-23T13:55:47Z</time>
      </trkpt>
      <trkpt lat="47.35845" lon="-1.40574">
        <ele>118</ele>
        <time>2021-10-23T13:55:49Z</time>
      </trkpt>
      <trkpt lat="47.35846" lon="-1.40549">
        <ele>118</ele>
        <time>2021-10-23T13:55:52Z</time>
      </trkpt>
      <trkpt lat="47.35847" lon="-1.40533">
        <ele>118</ele>
        <time>2021-10-23T13:55:54Z</time>
      </trkpt>
      <trkpt lat="47.35848" lon="-1.40509">
        <ele>118</ele>
        <time>2021-10-23T13:55:57Z</time>
      </trkpt>
      <trkpt lat="47.3585" lon="-1.40493">
        <ele>118</ele>
        <time>2021-10-23T13:55:59Z</time>
      </trkpt>
      <trkpt lat="47.35851" lon="-1.40477">
        <ele>118</ele>
        <time>2021-10-23T13:56:01Z</time>
      </trkpt>
      <trkpt lat="47.35852" lon="-1.40461">
        <ele>118</ele>
        <time>2021-10-23T13:56:03Z</time>
      </trkpt>
      <trkpt lat="47.35854" lon="-1.40445">
        <ele>118</ele>
        <time>2021-10-23T13:56:05Z</time>
      </trkpt>
      <trkpt lat="47.35856" lon="-1.40429">
        <ele>118</ele>
        <time>2021-10-23T13:56:07Z</time>
      </trkpt>
      <trkpt lat="47.35856" lon="-1.40413">
        <ele>118</ele>
        <time>2021-10-23T13:56:09Z</time>
      </trkpt>
      <trkpt lat="47.35858" lon="-1.40398">
        <ele>118</ele>
        <time>2021-10-23T13:56:11Z</time>
      </trkpt>
      <trkpt lat="47.35859" lon="-1.40383">
        <ele>118</ele>
        <time>2021-10-23T13:56:13Z</time>
      </trkpt>
      <trkpt lat="47.3586" lon="-1.40369">
        <ele>118</ele>
        <time>2021-10-23T13:56:15Z</time>
      </trkpt>
      <trkpt lat="47.35859" lon="-1.40351">
        <ele>119</ele>
        <time>2021-10-23T13:56:18Z</time>
      </trkpt>
      <trkpt lat="47.35849" lon="-1.40339">
        <ele>119</ele>
        <time>2021-10-23T13:56:21Z</time>
      </trkpt>
      <trkpt lat="47.35839" lon="-1.40335">
        <ele>119</ele>
        <time>2021-10-23T13:56:23Z</time>
      </trkpt>
      <trkpt lat="47.35827" lon="-1.40334">
        <ele>119</ele>
        <time>2021-10-23T13:56:25Z</time>
      </trkpt>
      <trkpt lat="47.35815" lon="-1.40331">
        <ele>119</ele>
        <time>2021-10-23T13:56:27Z</time>
      </trkpt>
      <trkpt lat="47.35803" lon="-1.40328">
        <ele>119</ele>
        <time>2021-10-23T13:56:29Z</time>
      </trkpt>
      <trkpt lat="47.35791" lon="-1.40326">
        <ele>119</ele>
        <time>2021-10-23T13:56:31Z</time>
      </trkpt>
      <trkpt lat="47.35779" lon="-1.40323">
        <ele>119</ele>
        <time>2021-10-23T13:56:33Z</time>
      </trkpt>
      <trkpt lat="47.35766" lon="-1.40319">
        <ele>120</ele>
        <time>2021-10-23T13:56:35Z</time>
      </trkpt>
      <trkpt lat="47.35754" lon="-1.40316">
        <ele>120</ele>
        <time>2021-10-23T13:56:37Z</time>
      </trkpt>
      <trkpt lat="47.35741" lon="-1.40314">
        <ele>120</ele>
        <time>2021-10-23T13:56:39Z</time>
      </trkpt>
      <trkpt lat="47.35728" lon="-1.40311">
        <ele>120</ele>
        <time>2021-10-23T13:56:41Z</time>
      </trkpt>
      <trkpt lat="47.35715" lon="-1.40306">
        <ele>120</ele>
        <time>2021-10-23T13:56:43Z</time>
      </trkpt>
      <trkpt lat="47.35703" lon="-1.40301">
        <ele>120</ele>
        <time>2021-10-23T13:56:45Z</time>
      </trkpt>
      <trkpt lat="47.3569" lon="-1.40294">
        <ele>120</ele>
        <time>2021-10-23T13:56:47Z</time>
      </trkpt>
      <trkpt lat="47.35678" lon="-1.40288">
        <ele>120</ele>
        <time>2021-10-23T13:56:49Z</time>
      </trkpt>
      <trkpt lat="47.35666" lon="-1.40281">
        <ele>120</ele>
        <time>2021-10-23T13:56:51Z</time>
      </trkpt>
      <trkpt lat="47.35653" lon="-1.40275">
        <ele>121</ele>
        <time>2021-10-23T13:56:53Z</time>
      </trkpt>
      <trkpt lat="47.35641" lon="-1.40269">
        <ele>121</ele>
        <time>2021-10-23T13:56:55Z</time>
      </trkpt>
      <trkpt lat="47.3563" lon="-1.40264">
        <ele>122</ele>
        <time>2021-10-23T13:56:57Z</time>
      </trkpt>
      <trkpt lat="47.35617" lon="-1.4026">
        <ele>122</ele>
        <time>2021-10-23T13:56:59Z</time>
      </trkpt>
      <trkpt lat="47.35604" lon="-1.40257">
        <ele>121</ele>
        <time>2021-10-23T13:57:01Z</time>
      </trkpt>
      <trkpt lat="47.35591" lon="-1.40256">
        <ele>122</ele>
        <time>2021-10-23T13:57:03Z</time>
      </trkpt>
      <trkpt lat="47.35578" lon="-1.40252">
        <ele>122</ele>
        <time>2021-10-23T13:57:05Z</time>
      </trkpt>
      <trkpt lat="47.35567" lon="-1.40247">
        <ele>123</ele>
        <time>2021-10-23T13:57:07Z</time>
      </trkpt>
      <trkpt lat="47.35558" lon="-1.4024">
        <ele>123</ele>
        <time>2021-10-23T13:57:09Z</time>
      </trkpt>
      <trkpt lat="47.35557" lon="-1.40223">
        <ele>123</ele>
        <time>2021-10-23T13:57:12Z</time>
      </trkpt>
      <trkpt lat="47.35564" lon="-1.40215">
        <ele>122</ele>
        <time>2021-10-23T13:57:15Z</time>
      </trkpt>
      <trkpt lat="47.35572" lon="-1.40209">
        <ele>121</ele>
        <time>2021-10-23T13:57:18Z</time>
      </trkpt>
      <trkpt lat="47.3558" lon="-1.40202">
        <ele>119</ele>
        <time>2021-10-23T13:57:46Z</time>
      </trkpt>
      <trkpt lat="47.35588" lon="-1.40189">
        <ele>119</ele>
        <time>2021-10-23T13:59:35Z</time>
      </trkpt>
      <trkpt lat="47.35595" lon="-1.4018">
        <ele>119</ele>
        <time>2021-10-23T13:59:37Z</time>
      </trkpt>
      <trkpt lat="47.35602" lon="-1.40171">
        <ele>119</ele>
        <time>2021-10-23T13:59:39Z</time>
      </trkpt>
      <trkpt lat="47.35611" lon="-1.40162">
        <ele>119</ele>
        <time>2021-10-23T13:59:41Z</time>
      </trkpt>
      <trkpt lat="47.3562" lon="-1.40151">
        <ele>119</ele>
        <time>2021-10-23T13:59:43Z</time>
      </trkpt>
      <trkpt lat="47.35629" lon="-1.4014">
        <ele>119</ele>
        <time>2021-10-23T13:59:45Z</time>
      </trkpt>
      <trkpt lat="47.35639" lon="-1.40129">
        <ele>120</ele>
        <time>2021-10-23T13:59:47Z</time>
      </trkpt>
      <trkpt lat="47.35648" lon="-1.40118">
        <ele>120</ele>
        <time>2021-10-23T13:59:49Z</time>
      </trkpt>
      <trkpt lat="47.35658" lon="-1.40106">
        <ele>121</ele>
        <time>2021-10-23T13:59:51Z</time>
      </trkpt>
      <trkpt lat="47.35668" lon="-1.40094">
        <ele>121</ele>
        <time>2021-10-23T13:59:53Z</time>
      </trkpt>
      <trkpt lat="47.35678" lon="-1.40083">
        <ele>121</ele>
        <time>2021-10-23T13:59:55Z</time>
      </trkpt>
      <trkpt lat="47.35688" lon="-1.40071">
        <ele>122</ele>
        <time>2021-10-23T13:59:57Z</time>
      </trkpt>
      <trkpt lat="47.35698" lon="-1.40059">
        <ele>122</ele>
        <time>2021-10-23T13:59:59Z</time>
      </trkpt>
      <trkpt lat="47.35708" lon="-1.40048">
        <ele>122</ele>
        <time>2021-10-23T14:00:01Z</time>
      </trkpt>
      <trkpt lat="47.35717" lon="-1.40037">
        <ele>122</ele>
        <time>2021-10-23T14:00:03Z</time>
      </trkpt>
      <trkpt lat="47.35726" lon="-1.40025">
        <ele>121</ele>
        <time>2021-10-23T14:00:05Z</time>
      </trkpt>
      <trkpt lat="47.35735" lon="-1.40012">
        <ele>121</ele>
        <time>2021-10-23T14:00:07Z</time>
      </trkpt>
      <trkpt lat="47.35744" lon="-1.4">
        <ele>122</ele>
        <time>2021-10-23T14:00:09Z</time>
      </trkpt>
      <trkpt lat="47.35755" lon="-1.39989">
        <ele>123</ele>
        <time>2021-10-23T14:00:11Z</time>
      </trkpt>
      <trkpt lat="47.35766" lon="-1.39978">
        <ele>123</ele>
        <time>2021-10-23T14:00:13Z</time>
      </trkpt>
      <trkpt lat="47.35776" lon="-1.39967">
        <ele>125</ele>
        <time>2021-10-23T14:00:15Z</time>
      </trkpt>
      <trkpt lat="47.35788" lon="-1.39954">
        <ele>125</ele>
        <time>2021-10-23T14:00:17Z</time>
      </trkpt>
      <trkpt lat="47.35799" lon="-1.39943">
        <ele>124</ele>
        <time>2021-10-23T14:00:19Z</time>
      </trkpt>
      <trkpt lat="47.35811" lon="-1.39932">
        <ele>123</ele>
        <time>2021-10-23T14:00:21Z</time>
      </trkpt>
      <trkpt lat="47.35821" lon="-1.39919">
        <ele>123</ele>
        <time>2021-10-23T14:00:23Z</time>
      </trkpt>
      <trkpt lat="47.35831" lon="-1.39907">
        <ele>123</ele>
        <time>2021-10-23T14:00:25Z</time>
      </trkpt>
      <trkpt lat="47.35842" lon="-1.39894">
        <ele>122</ele>
        <time>2021-10-23T14:00:27Z</time>
      </trkpt>
      <trkpt lat="47.35852" lon="-1.39881">
        <ele>122</ele>
        <time>2021-10-23T14:00:29Z</time>
      </trkpt>
      <trkpt lat="47.35863" lon="-1.39868">
        <ele>121</ele>
        <time>2021-10-23T14:00:31Z</time>
      </trkpt>
      <trkpt lat="47.35874" lon="-1.39855">
        <ele>121</ele>
        <time>2021-10-23T14:00:33Z</time>
      </trkpt>
      <trkpt lat="47.35885" lon="-1.39841">
        <ele>121</ele>
        <time>2021-10-23T14:00:35Z</time>
      </trkpt>
      <trkpt lat="47.35894" lon="-1.3983">
        <ele>122</ele>
        <time>2021-10-23T14:00:37Z</time>
      </trkpt>
      <trkpt lat="47.35904" lon="-1.39818">
        <ele>122</ele>
        <time>2021-10-23T14:00:39Z</time>
      </trkpt>
      <trkpt lat="47.35915" lon="-1.39806">
        <ele>123</ele>
        <time>2021-10-23T14:00:41Z</time>
      </trkpt>
      <trkpt lat="47.35925" lon="-1.39794">
        <ele>123</ele>
        <time>2021-10-23T14:00:43Z</time>
      </trkpt>
      <trkpt lat="47.35935" lon="-1.39781">
        <ele>122</ele>
        <time>2021-10-23T14:00:45Z</time>
      </trkpt>
      <trkpt lat="47.35945" lon="-1.3977">
        <ele>123</ele>
        <time>2021-10-23T14:00:47Z</time>
      </trkpt>
      <trkpt lat="47.35955" lon="-1.39759">
        <ele>123</ele>
        <time>2021-10-23T14:00:49Z</time>
      </trkpt>
      <trkpt lat="47.35965" lon="-1.39746">
        <ele>124</ele>
        <time>2021-10-23T14:00:51Z</time>
      </trkpt>
      <trkpt lat="47.35975" lon="-1.39734">
        <ele>124</ele>
        <time>2021-10-23T14:00:53Z</time>
      </trkpt>
      <trkpt lat="47.35986" lon="-1.39722">
        <ele>124</ele>
        <time>2021-10-23T14:00:55Z</time>
      </trkpt>
      <trkpt lat="47.35997" lon="-1.39708">
        <ele>124</ele>
        <time>2021-10-23T14:00:57Z</time>
      </trkpt>
      <trkpt lat="47.36008" lon="-1.39696">
        <ele>123</ele>
        <time>2021-10-23T14:00:59Z</time>
      </trkpt>
      <trkpt lat="47.36019" lon="-1.39683">
        <ele>123</ele>
        <time>2021-10-23T14:01:01Z</time>
      </trkpt>
      <trkpt lat="47.36029" lon="-1.39672">
        <ele>122</ele>
        <time>2021-10-23T14:01:03Z</time>
      </trkpt>
      <trkpt lat="47.36036" lon="-1.39661">
        <ele>122</ele>
        <time>2021-10-23T14:01:05Z</time>
      </trkpt>
      <trkpt lat="47.36044" lon="-1.39653">
        <ele>122</ele>
        <time>2021-10-23T14:01:07Z</time>
      </trkpt>
      <trkpt lat="47.36052" lon="-1.39646">
        <ele>122</ele>
        <time>2021-10-23T14:01:09Z</time>
      </trkpt>
      <trkpt lat="47.36059" lon="-1.39632">
        <ele>121</ele>
        <time>2021-10-23T14:01:12Z</time>
      </trkpt>
      <trkpt lat="47.36067" lon="-1.39624">
        <ele>121</ele>
        <time>2021-10-23T14:01:14Z</time>
      </trkpt>
      <trkpt lat="47.36076" lon="-1.39615">
        <ele>121</ele>
        <time>2021-10-23T14:01:16Z</time>
      </trkpt>
      <trkpt lat="47.36085" lon="-1.39605">
        <ele>121</ele>
        <time>2021-10-23T14:01:18Z</time>
      </trkpt>
      <trkpt lat="47.36096" lon="-1.39593">
        <ele>121</ele>
        <time>2021-10-23T14:01:20Z</time>
      </trkpt>
      <trkpt lat="47.36108" lon="-1.39578">
        <ele>120</ele>
        <time>2021-10-23T14:01:22Z</time>
      </trkpt>
      <trkpt lat="47.36121" lon="-1.39565">
        <ele>120</ele>
        <time>2021-10-23T14:01:24Z</time>
      </trkpt>
      <trkpt lat="47.36132" lon="-1.39552">
        <ele>119</ele>
        <time>2021-10-23T14:01:26Z</time>
      </trkpt>
      <trkpt lat="47.36144" lon="-1.39539">
        <ele>119</ele>
        <time>2021-10-23T14:01:28Z</time>
      </trkpt>
      <trkpt lat="47.36155" lon="-1.39526">
        <ele>119</ele>
        <time>2021-10-23T14:01:30Z</time>
      </trkpt>
      <trkpt lat="47.36167" lon="-1.39513">
        <ele>119</ele>
        <time>2021-10-23T14:01:32Z</time>
      </trkpt>
      <trkpt lat="47.36179" lon="-1.39499">
        <ele>119</ele>
        <time>2021-10-23T14:01:34Z</time>
      </trkpt>
      <trkpt lat="47.36191" lon="-1.39485">
        <ele>119</ele>
        <time>2021-10-23T14:01:36Z</time>
      </trkpt>
      <trkpt lat="47.36203" lon="-1.39472">
        <ele>118</ele>
        <time>2021-10-23T14:01:38Z</time>
      </trkpt>
      <trkpt lat="47.36215" lon="-1.39458">
        <ele>118</ele>
        <time>2021-10-23T14:01:40Z</time>
      </trkpt>
      <trkpt lat="47.36225" lon="-1.39444">
        <ele>118</ele>
        <time>2021-10-23T14:01:42Z</time>
      </trkpt>
      <trkpt lat="47.36236" lon="-1.3943">
        <ele>118</ele>
        <time>2021-10-23T14:01:44Z</time>
      </trkpt>
      <trkpt lat="47.36247" lon="-1.39416">
        <ele>117</ele>
        <time>2021-10-23T14:01:46Z</time>
      </trkpt>
      <trkpt lat="47.36259" lon="-1.39403">
        <ele>116</ele>
        <time>2021-10-23T14:01:48Z</time>
      </trkpt>
      <trkpt lat="47.3627" lon="-1.3939">
        <ele>116</ele>
        <time>2021-10-23T14:01:50Z</time>
      </trkpt>
      <trkpt lat="47.36282" lon="-1.39378">
        <ele>116</ele>
        <time>2021-10-23T14:01:52Z</time>
      </trkpt>
      <trkpt lat="47.36292" lon="-1.39365">
        <ele>117</ele>
        <time>2021-10-23T14:01:54Z</time>
      </trkpt>
      <trkpt lat="47.363" lon="-1.39355">
        <ele>117</ele>
        <time>2021-10-23T14:01:56Z</time>
      </trkpt>
      <trkpt lat="47.36308" lon="-1.39343">
        <ele>117</ele>
        <time>2021-10-23T14:01:59Z</time>
      </trkpt>
      <trkpt lat="47.36318" lon="-1.39333">
        <ele>116</ele>
        <time>2021-10-23T14:02:02Z</time>
      </trkpt>
      <trkpt lat="47.36325" lon="-1.39325">
        <ele>116</ele>
        <time>2021-10-23T14:02:04Z</time>
      </trkpt>
      <trkpt lat="47.36335" lon="-1.39315">
        <ele>116</ele>
        <time>2021-10-23T14:02:06Z</time>
      </trkpt>
      <trkpt lat="47.36345" lon="-1.39304">
        <ele>116</ele>
        <time>2021-10-23T14:02:08Z</time>
      </trkpt>
      <trkpt lat="47.36355" lon="-1.39291">
        <ele>116</ele>
        <time>2021-10-23T14:02:10Z</time>
      </trkpt>
      <trkpt lat="47.36365" lon="-1.39279">
        <ele>117</ele>
        <time>2021-10-23T14:02:12Z</time>
      </trkpt>
      <trkpt lat="47.36376" lon="-1.39265">
        <ele>116</ele>
        <time>2021-10-23T14:02:14Z</time>
      </trkpt>
      <trkpt lat="47.36387" lon="-1.39254">
        <ele>115</ele>
        <time>2021-10-23T14:02:16Z</time>
      </trkpt>
      <trkpt lat="47.36397" lon="-1.39242">
        <ele>115</ele>
        <time>2021-10-23T14:02:18Z</time>
      </trkpt>
      <trkpt lat="47.36407" lon="-1.39231">
        <ele>115</ele>
        <time>2021-10-23T14:02:20Z</time>
      </trkpt>
      <trkpt lat="47.36417" lon="-1.39219">
        <ele>116</ele>
        <time>2021-10-23T14:02:22Z</time>
      </trkpt>
      <trkpt lat="47.36426" lon="-1.39207">
        <ele>116</ele>
        <time>2021-10-23T14:02:24Z</time>
      </trkpt>
      <trkpt lat="47.36435" lon="-1.39195">
        <ele>116</ele>
        <time>2021-10-23T14:02:26Z</time>
      </trkpt>
      <trkpt lat="47.36444" lon="-1.39183">
        <ele>116</ele>
        <time>2021-10-23T14:02:28Z</time>
      </trkpt>
      <trkpt lat="47.36454" lon="-1.39172">
        <ele>115</ele>
        <time>2021-10-23T14:02:30Z</time>
      </trkpt>
      <trkpt lat="47.36464" lon="-1.39162">
        <ele>116</ele>
        <time>2021-10-23T14:02:32Z</time>
      </trkpt>
      <trkpt lat="47.36475" lon="-1.39151">
        <ele>116</ele>
        <time>2021-10-23T14:02:34Z</time>
      </trkpt>
      <trkpt lat="47.36484" lon="-1.39139">
        <ele>115</ele>
        <time>2021-10-23T14:02:36Z</time>
      </trkpt>
      <trkpt lat="47.36495" lon="-1.39128">
        <ele>114</ele>
        <time>2021-10-23T14:02:38Z</time>
      </trkpt>
      <trkpt lat="47.36505" lon="-1.39117">
        <ele>114</ele>
        <time>2021-10-23T14:02:40Z</time>
      </trkpt>
      <trkpt lat="47.36514" lon="-1.39106">
        <ele>113</ele>
        <time>2021-10-23T14:02:42Z</time>
      </trkpt>
      <trkpt lat="47.36524" lon="-1.39095">
        <ele>114</ele>
        <time>2021-10-23T14:02:44Z</time>
      </trkpt>
      <trkpt lat="47.36533" lon="-1.39083">
        <ele>115</ele>
        <time>2021-10-23T14:02:46Z</time>
      </trkpt>
      <trkpt lat="47.36542" lon="-1.39071">
        <ele>114</ele>
        <time>2021-10-23T14:02:48Z</time>
      </trkpt>
      <trkpt lat="47.36552" lon="-1.39059">
        <ele>114</ele>
        <time>2021-10-23T14:02:50Z</time>
      </trkpt>
      <trkpt lat="47.36561" lon="-1.39048">
        <ele>115</ele>
        <time>2021-10-23T14:02:52Z</time>
      </trkpt>
      <trkpt lat="47.3657" lon="-1.39038">
        <ele>115</ele>
        <time>2021-10-23T14:02:54Z</time>
      </trkpt>
      <trkpt lat="47.3658" lon="-1.39028">
        <ele>115</ele>
        <time>2021-10-23T14:02:56Z</time>
      </trkpt>
      <trkpt lat="47.36588" lon="-1.39018">
        <ele>114</ele>
        <time>2021-10-23T14:02:58Z</time>
      </trkpt>
      <trkpt lat="47.36595" lon="-1.39009">
        <ele>114</ele>
        <time>2021-10-23T14:03:00Z</time>
      </trkpt>
      <trkpt lat="47.36603" lon="-1.38995">
        <ele>116</ele>
        <time>2021-10-23T14:03:03Z</time>
      </trkpt>
      <trkpt lat="47.36609" lon="-1.38985">
        <ele>116</ele>
        <time>2021-10-23T14:03:07Z</time>
      </trkpt>
      <trkpt lat="47.36602" lon="-1.38969">
        <ele>117</ele>
        <time>2021-10-23T14:03:10Z</time>
      </trkpt>
      <trkpt lat="47.36597" lon="-1.38955">
        <ele>117</ele>
        <time>2021-10-23T14:03:12Z</time>
      </trkpt>
      <trkpt lat="47.36591" lon="-1.38942">
        <ele>117</ele>
        <time>2021-10-23T14:03:14Z</time>
      </trkpt>
      <trkpt lat="47.36585" lon="-1.38928">
        <ele>117</ele>
        <time>2021-10-23T14:03:16Z</time>
      </trkpt>
      <trkpt lat="47.36579" lon="-1.38915">
        <ele>117</ele>
        <time>2021-10-23T14:03:18Z</time>
      </trkpt>
      <trkpt lat="47.36573" lon="-1.38901">
        <ele>117</ele>
        <time>2021-10-23T14:03:20Z</time>
      </trkpt>
      <trkpt lat="47.36567" lon="-1.38887">
        <ele>116</ele>
        <time>2021-10-23T14:03:22Z</time>
      </trkpt>
      <trkpt lat="47.36561" lon="-1.38874">
        <ele>116</ele>
        <time>2021-10-23T14:03:24Z</time>
      </trkpt>
      <trkpt lat="47.36554" lon="-1.38861">
        <ele>116</ele>
        <time>2021-10-23T14:03:26Z</time>
      </trkpt>
      <trkpt lat="47.36548" lon="-1.38848">
        <ele>116</ele>
        <time>2021-10-23T14:03:28Z</time>
      </trkpt>
      <trkpt lat="47.36542" lon="-1.38835">
        <ele>116</ele>
        <time>2021-10-23T14:03:30Z</time>
      </trkpt>
      <trkpt lat="47.36535" lon="-1.38822">
        <ele>117</ele>
        <time>2021-10-23T14:03:32Z</time>
      </trkpt>
      <trkpt lat="47.3653" lon="-1.38808">
        <ele>117</ele>
        <time>2021-10-23T14:03:34Z</time>
      </trkpt>
      <trkpt lat="47.36524" lon="-1.38795">
        <ele>117</ele>
        <time>2021-10-23T14:03:36Z</time>
      </trkpt>
      <trkpt lat="47.36517" lon="-1.38782">
        <ele>117</ele>
        <time>2021-10-23T14:03:38Z</time>
      </trkpt>
      <trkpt lat="47.36511" lon="-1.38768">
        <ele>118</ele>
        <time>2021-10-23T14:03:40Z</time>
      </trkpt>
      <trkpt lat="47.36504" lon="-1.38755">
        <ele>118</ele>
        <time>2021-10-23T14:03:42Z</time>
      </trkpt>
      <trkpt lat="47.36498" lon="-1.38741">
        <ele>118</ele>
        <time>2021-10-23T14:03:44Z</time>
      </trkpt>
      <trkpt lat="47.36491" lon="-1.38728">
        <ele>118</ele>
        <time>2021-10-23T14:03:46Z</time>
      </trkpt>
      <trkpt lat="47.36485" lon="-1.38714">
        <ele>118</ele>
        <time>2021-10-23T14:03:48Z</time>
      </trkpt>
      <trkpt lat="47.36478" lon="-1.387">
        <ele>118</ele>
        <time>2021-10-23T14:03:50Z</time>
      </trkpt>
      <trkpt lat="47.36472" lon="-1.38688">
        <ele>118</ele>
        <time>2021-10-23T14:03:52Z</time>
      </trkpt>
      <trkpt lat="47.36466" lon="-1.38673">
        <ele>118</ele>
        <time>2021-10-23T14:03:54Z</time>
      </trkpt>
      <trkpt lat="47.36459" lon="-1.38659">
        <ele>119</ele>
        <time>2021-10-23T14:03:56Z</time>
      </trkpt>
      <trkpt lat="47.36453" lon="-1.38647">
        <ele>119</ele>
        <time>2021-10-23T14:03:58Z</time>
      </trkpt>
      <trkpt lat="47.36447" lon="-1.38633">
        <ele>119</ele>
        <time>2021-10-23T14:04:00Z</time>
      </trkpt>
      <trkpt lat="47.3644" lon="-1.3862">
        <ele>119</ele>
        <time>2021-10-23T14:04:02Z</time>
      </trkpt>
      <trkpt lat="47.36434" lon="-1.38606">
        <ele>119</ele>
        <time>2021-10-23T14:04:04Z</time>
      </trkpt>
      <trkpt lat="47.36427" lon="-1.38593">
        <ele>119</ele>
        <time>2021-10-23T14:04:06Z</time>
      </trkpt>
      <trkpt lat="47.3642" lon="-1.38579">
        <ele>118</ele>
        <time>2021-10-23T14:04:08Z</time>
      </trkpt>
      <trkpt lat="47.36414" lon="-1.38565">
        <ele>119</ele>
        <time>2021-10-23T14:04:10Z</time>
      </trkpt>
      <trkpt lat="47.36406" lon="-1.38553">
        <ele>118</ele>
        <time>2021-10-23T14:04:12Z</time>
      </trkpt>
      <trkpt lat="47.36399" lon="-1.38541">
        <ele>118</ele>
        <time>2021-10-23T14:04:14Z</time>
      </trkpt>
      <trkpt lat="47.36391" lon="-1.3853">
        <ele>119</ele>
        <time>2021-10-23T14:04:16Z</time>
      </trkpt>
      <trkpt lat="47.36383" lon="-1.38518">
        <ele>119</ele>
        <time>2021-10-23T14:04:18Z</time>
      </trkpt>
      <trkpt lat="47.36375" lon="-1.38506">
        <ele>119</ele>
        <time>2021-10-23T14:04:20Z</time>
      </trkpt>
      <trkpt lat="47.36367" lon="-1.38495">
        <ele>119</ele>
        <time>2021-10-23T14:04:22Z</time>
      </trkpt>
      <trkpt lat="47.36359" lon="-1.38483">
        <ele>119</ele>
        <time>2021-10-23T14:04:24Z</time>
      </trkpt>
      <trkpt lat="47.36351" lon="-1.38471">
        <ele>119</ele>
        <time>2021-10-23T14:04:26Z</time>
      </trkpt>
      <trkpt lat="47.36343" lon="-1.3846">
        <ele>119</ele>
        <time>2021-10-23T14:04:28Z</time>
      </trkpt>
      <trkpt lat="47.36336" lon="-1.38448">
        <ele>119</ele>
        <time>2021-10-23T14:04:30Z</time>
      </trkpt>
      <trkpt lat="47.36328" lon="-1.38435">
        <ele>119</ele>
        <time>2021-10-23T14:04:32Z</time>
      </trkpt>
      <trkpt lat="47.3632" lon="-1.38423">
        <ele>119</ele>
        <time>2021-10-23T14:04:34Z</time>
      </trkpt>
      <trkpt lat="47.36311" lon="-1.38411">
        <ele>119</ele>
        <time>2021-10-23T14:04:36Z</time>
      </trkpt>
      <trkpt lat="47.36302" lon="-1.38398">
        <ele>119</ele>
        <time>2021-10-23T14:04:38Z</time>
      </trkpt>
      <trkpt lat="47.36294" lon="-1.38386">
        <ele>119</ele>
        <time>2021-10-23T14:04:40Z</time>
      </trkpt>
      <trkpt lat="47.36285" lon="-1.38373">
        <ele>119</ele>
        <time>2021-10-23T14:04:42Z</time>
      </trkpt>
      <trkpt lat="47.36276" lon="-1.38359">
        <ele>119</ele>
        <time>2021-10-23T14:04:44Z</time>
      </trkpt>
      <trkpt lat="47.36268" lon="-1.38346">
        <ele>119</ele>
        <time>2021-10-23T14:04:46Z</time>
      </trkpt>
      <trkpt lat="47.36259" lon="-1.38333">
        <ele>119</ele>
        <time>2021-10-23T14:04:48Z</time>
      </trkpt>
      <trkpt lat="47.3625" lon="-1.3832">
        <ele>118</ele>
        <time>2021-10-23T14:04:50Z</time>
      </trkpt>
      <trkpt lat="47.36242" lon="-1.38306">
        <ele>118</ele>
        <time>2021-10-23T14:04:52Z</time>
      </trkpt>
      <trkpt lat="47.36233" lon="-1.38293">
        <ele>118</ele>
        <time>2021-10-23T14:04:54Z</time>
      </trkpt>
      <trkpt lat="47.36224" lon="-1.3828">
        <ele>118</ele>
        <time>2021-10-23T14:04:56Z</time>
      </trkpt>
      <trkpt lat="47.36216" lon="-1.38267">
        <ele>118</ele>
        <time>2021-10-23T14:04:58Z</time>
      </trkpt>
      <trkpt lat="47.36207" lon="-1.38254">
        <ele>119</ele>
        <time>2021-10-23T14:05:00Z</time>
      </trkpt>
      <trkpt lat="47.36199" lon="-1.38241">
        <ele>119</ele>
        <time>2021-10-23T14:05:02Z</time>
      </trkpt>
      <trkpt lat="47.3619" lon="-1.38228">
        <ele>119</ele>
        <time>2021-10-23T14:05:04Z</time>
      </trkpt>
      <trkpt lat="47.36181" lon="-1.38216">
        <ele>119</ele>
        <time>2021-10-23T14:05:06Z</time>
      </trkpt>
      <trkpt lat="47.36172" lon="-1.38203">
        <ele>119</ele>
        <time>2021-10-23T14:05:08Z</time>
      </trkpt>
      <trkpt lat="47.36164" lon="-1.38191">
        <ele>119</ele>
        <time>2021-10-23T14:05:10Z</time>
      </trkpt>
      <trkpt lat="47.36155" lon="-1.38178">
        <ele>119</ele>
        <time>2021-10-23T14:05:12Z</time>
      </trkpt>
      <trkpt lat="47.36147" lon="-1.38165">
        <ele>119</ele>
        <time>2021-10-23T14:05:14Z</time>
      </trkpt>
      <trkpt lat="47.36139" lon="-1.38152">
        <ele>120</ele>
        <time>2021-10-23T14:05:16Z</time>
      </trkpt>
      <trkpt lat="47.3613" lon="-1.38139">
        <ele>120</ele>
        <time>2021-10-23T14:05:18Z</time>
      </trkpt>
      <trkpt lat="47.3612" lon="-1.38125">
        <ele>120</ele>
        <time>2021-10-23T14:05:20Z</time>
      </trkpt>
      <trkpt lat="47.3611" lon="-1.38111">
        <ele>120</ele>
        <time>2021-10-23T14:05:22Z</time>
      </trkpt>
      <trkpt lat="47.36101" lon="-1.38097">
        <ele>120</ele>
        <time>2021-10-23T14:05:24Z</time>
      </trkpt>
      <trkpt lat="47.36092" lon="-1.38083">
        <ele>120</ele>
        <time>2021-10-23T14:05:26Z</time>
      </trkpt>
      <trkpt lat="47.36083" lon="-1.3807">
        <ele>121</ele>
        <time>2021-10-23T14:05:28Z</time>
      </trkpt>
      <trkpt lat="47.36075" lon="-1.38058">
        <ele>121</ele>
        <time>2021-10-23T14:05:30Z</time>
      </trkpt>
      <trkpt lat="47.36067" lon="-1.38046">
        <ele>121</ele>
        <time>2021-10-23T14:05:32Z</time>
      </trkpt>
      <trkpt lat="47.3606" lon="-1.38034">
        <ele>121</ele>
        <time>2021-10-23T14:05:34Z</time>
      </trkpt>
      <trkpt lat="47.36052" lon="-1.38021">
        <ele>121</ele>
        <time>2021-10-23T14:05:36Z</time>
      </trkpt>
      <trkpt lat="47.36043" lon="-1.38009">
        <ele>121</ele>
        <time>2021-10-23T14:05:38Z</time>
      </trkpt>
      <trkpt lat="47.36035" lon="-1.37996">
        <ele>121</ele>
        <time>2021-10-23T14:05:40Z</time>
      </trkpt>
      <trkpt lat="47.36027" lon="-1.37984">
        <ele>121</ele>
        <time>2021-10-23T14:05:42Z</time>
      </trkpt>
      <trkpt lat="47.36019" lon="-1.37972">
        <ele>121</ele>
        <time>2021-10-23T14:05:44Z</time>
      </trkpt>
      <trkpt lat="47.36011" lon="-1.3796">
        <ele>121</ele>
        <time>2021-10-23T14:05:46Z</time>
      </trkpt>
      <trkpt lat="47.36003" lon="-1.37948">
        <ele>121</ele>
        <time>2021-10-23T14:05:48Z</time>
      </trkpt>
      <trkpt lat="47.35996" lon="-1.37936">
        <ele>121</ele>
        <time>2021-10-23T14:05:50Z</time>
      </trkpt>
      <trkpt lat="47.35988" lon="-1.37925">
        <ele>121</ele>
        <time>2021-10-23T14:05:52Z</time>
      </trkpt>
      <trkpt lat="47.35981" lon="-1.37914">
        <ele>122</ele>
        <time>2021-10-23T14:05:54Z</time>
      </trkpt>
      <trkpt lat="47.35973" lon="-1.37903">
        <ele>122</ele>
        <time>2021-10-23T14:05:56Z</time>
      </trkpt>
      <trkpt lat="47.35966" lon="-1.37891">
        <ele>122</ele>
        <time>2021-10-23T14:05:58Z</time>
      </trkpt>
      <trkpt lat="47.35958" lon="-1.3788">
        <ele>123</ele>
        <time>2021-10-23T14:06:00Z</time>
      </trkpt>
      <trkpt lat="47.35951" lon="-1.37869">
        <ele>123</ele>
        <time>2021-10-23T14:06:02Z</time>
      </trkpt>
      <trkpt lat="47.35943" lon="-1.37857">
        <ele>123</ele>
        <time>2021-10-23T14:06:04Z</time>
      </trkpt>
      <trkpt lat="47.35935" lon="-1.37846">
        <ele>124</ele>
        <time>2021-10-23T14:06:06Z</time>
      </trkpt>
      <trkpt lat="47.35928" lon="-1.37835">
        <ele>124</ele>
        <time>2021-10-23T14:06:08Z</time>
      </trkpt>
      <trkpt lat="47.3592" lon="-1.37823">
        <ele>123</ele>
        <time>2021-10-23T14:06:10Z</time>
      </trkpt>
      <trkpt lat="47.35913" lon="-1.37812">
        <ele>124</ele>
        <time>2021-10-23T14:06:12Z</time>
      </trkpt>
      <trkpt lat="47.35905" lon="-1.378">
        <ele>124</ele>
        <time>2021-10-23T14:06:14Z</time>
      </trkpt>
      <trkpt lat="47.35898" lon="-1.37789">
        <ele>124</ele>
        <time>2021-10-23T14:06:16Z</time>
      </trkpt>
      <trkpt lat="47.3589" lon="-1.37778">
        <ele>124</ele>
        <time>2021-10-23T14:06:18Z</time>
      </trkpt>
      <trkpt lat="47.35882" lon="-1.37766">
        <ele>125</ele>
        <time>2021-10-23T14:06:20Z</time>
      </trkpt>
      <trkpt lat="47.35875" lon="-1.37755">
        <ele>125</ele>
        <time>2021-10-23T14:06:22Z</time>
      </trkpt>
      <trkpt lat="47.35868" lon="-1.37744">
        <ele>125</ele>
        <time>2021-10-23T14:06:24Z</time>
      </trkpt>
      <trkpt lat="47.3586" lon="-1.37733">
        <ele>126</ele>
        <time>2021-10-23T14:06:26Z</time>
      </trkpt>
      <trkpt lat="47.35852" lon="-1.37722">
        <ele>126</ele>
        <time>2021-10-23T14:06:28Z</time>
      </trkpt>
      <trkpt lat="47.35845" lon="-1.3771">
        <ele>126</ele>
        <time>2021-10-23T14:06:30Z</time>
      </trkpt>
      <trkpt lat="47.35838" lon="-1.37699">
        <ele>126</ele>
        <time>2021-10-23T14:06:32Z</time>
      </trkpt>
      <trkpt lat="47.3583" lon="-1.37688">
        <ele>126</ele>
        <time>2021-10-23T14:06:34Z</time>
      </trkpt>
      <trkpt lat="47.35822" lon="-1.37677">
        <ele>126</ele>
        <time>2021-10-23T14:06:36Z</time>
      </trkpt>
      <trkpt lat="47.35815" lon="-1.37666">
        <ele>126</ele>
        <time>2021-10-23T14:06:38Z</time>
      </trkpt>
      <trkpt lat="47.35807" lon="-1.37655">
        <ele>126</ele>
        <time>2021-10-23T14:06:40Z</time>
      </trkpt>
      <trkpt lat="47.358" lon="-1.37644">
        <ele>126</ele>
        <time>2021-10-23T14:06:42Z</time>
      </trkpt>
      <trkpt lat="47.35792" lon="-1.37633">
        <ele>127</ele>
        <time>2021-10-23T14:06:44Z</time>
      </trkpt>
      <trkpt lat="47.35785" lon="-1.37622">
        <ele>127</ele>
        <time>2021-10-23T14:06:46Z</time>
      </trkpt>
      <trkpt lat="47.35778" lon="-1.3761">
        <ele>127</ele>
        <time>2021-10-23T14:06:48Z</time>
      </trkpt>
      <trkpt lat="47.3577" lon="-1.37599">
        <ele>128</ele>
        <time>2021-10-23T14:06:50Z</time>
      </trkpt>
      <trkpt lat="47.35763" lon="-1.37588">
        <ele>128</ele>
        <time>2021-10-23T14:06:52Z</time>
      </trkpt>
      <trkpt lat="47.35755" lon="-1.37576">
        <ele>128</ele>
        <time>2021-10-23T14:06:54Z</time>
      </trkpt>
      <trkpt lat="47.35748" lon="-1.37565">
        <ele>128</ele>
        <time>2021-10-23T14:06:56Z</time>
      </trkpt>
      <trkpt lat="47.3574" lon="-1.37553">
        <ele>128</ele>
        <time>2021-10-23T14:06:58Z</time>
      </trkpt>
      <trkpt lat="47.35733" lon="-1.37542">
        <ele>128</ele>
        <time>2021-10-23T14:07:00Z</time>
      </trkpt>
      <trkpt lat="47.35725" lon="-1.3753">
        <ele>129</ele>
        <time>2021-10-23T14:07:02Z</time>
      </trkpt>
      <trkpt lat="47.35717" lon="-1.37519">
        <ele>129</ele>
        <time>2021-10-23T14:07:04Z</time>
      </trkpt>
      <trkpt lat="47.3571" lon="-1.37507">
        <ele>129</ele>
        <time>2021-10-23T14:07:06Z</time>
      </trkpt>
      <trkpt lat="47.35702" lon="-1.37496">
        <ele>129</ele>
        <time>2021-10-23T14:07:08Z</time>
      </trkpt>
      <trkpt lat="47.35695" lon="-1.37484">
        <ele>129</ele>
        <time>2021-10-23T14:07:10Z</time>
      </trkpt>
      <trkpt lat="47.35687" lon="-1.37473">
        <ele>129</ele>
        <time>2021-10-23T14:07:12Z</time>
      </trkpt>
      <trkpt lat="47.3568" lon="-1.37463">
        <ele>129</ele>
        <time>2021-10-23T14:07:14Z</time>
      </trkpt>
      <trkpt lat="47.35672" lon="-1.37452">
        <ele>129</ele>
        <time>2021-10-23T14:07:16Z</time>
      </trkpt>
      <trkpt lat="47.35665" lon="-1.3744">
        <ele>129</ele>
        <time>2021-10-23T14:07:18Z</time>
      </trkpt>
      <trkpt lat="47.35658" lon="-1.37429">
        <ele>129</ele>
        <time>2021-10-23T14:07:20Z</time>
      </trkpt>
      <trkpt lat="47.3565" lon="-1.37418">
        <ele>130</ele>
        <time>2021-10-23T14:07:22Z</time>
      </trkpt>
      <trkpt lat="47.35642" lon="-1.37405">
        <ele>129</ele>
        <time>2021-10-23T14:07:24Z</time>
      </trkpt>
      <trkpt lat="47.35634" lon="-1.37393">
        <ele>129</ele>
        <time>2021-10-23T14:07:26Z</time>
      </trkpt>
      <trkpt lat="47.35627" lon="-1.37381">
        <ele>128</ele>
        <time>2021-10-23T14:07:28Z</time>
      </trkpt>
      <trkpt lat="47.35619" lon="-1.3737">
        <ele>128</ele>
        <time>2021-10-23T14:07:30Z</time>
      </trkpt>
      <trkpt lat="47.3561" lon="-1.37357">
        <ele>128</ele>
        <time>2021-10-23T14:07:32Z</time>
      </trkpt>
      <trkpt lat="47.35602" lon="-1.37344">
        <ele>128</ele>
        <time>2021-10-23T14:07:34Z</time>
      </trkpt>
      <trkpt lat="47.35593" lon="-1.37332">
        <ele>128</ele>
        <time>2021-10-23T14:07:36Z</time>
      </trkpt>
      <trkpt lat="47.35584" lon="-1.37319">
        <ele>128</ele>
        <time>2021-10-23T14:07:38Z</time>
      </trkpt>
      <trkpt lat="47.35576" lon="-1.37306">
        <ele>128</ele>
        <time>2021-10-23T14:07:40Z</time>
      </trkpt>
      <trkpt lat="47.35566" lon="-1.37294">
        <ele>129</ele>
        <time>2021-10-23T14:07:42Z</time>
      </trkpt>
      <trkpt lat="47.35557" lon="-1.37279">
        <ele>129</ele>
        <time>2021-10-23T14:07:44Z</time>
      </trkpt>
      <trkpt lat="47.35547" lon="-1.37266">
        <ele>129</ele>
        <time>2021-10-23T14:07:46Z</time>
      </trkpt>
      <trkpt lat="47.35538" lon="-1.3725">
        <ele>128</ele>
        <time>2021-10-23T14:07:48Z</time>
      </trkpt>
      <trkpt lat="47.35528" lon="-1.37235">
        <ele>128</ele>
        <time>2021-10-23T14:07:50Z</time>
      </trkpt>
      <trkpt lat="47.35517" lon="-1.37221">
        <ele>128</ele>
        <time>2021-10-23T14:07:52Z</time>
      </trkpt>
      <trkpt lat="47.35509" lon="-1.37208">
        <ele>129</ele>
        <time>2021-10-23T14:07:54Z</time>
      </trkpt>
      <trkpt lat="47.355" lon="-1.37196">
        <ele>129</ele>
        <time>2021-10-23T14:07:56Z</time>
      </trkpt>
      <trkpt lat="47.35491" lon="-1.37183">
        <ele>130</ele>
        <time>2021-10-23T14:07:58Z</time>
      </trkpt>
      <trkpt lat="47.35483" lon="-1.3717">
        <ele>129</ele>
        <time>2021-10-23T14:08:00Z</time>
      </trkpt>
      <trkpt lat="47.35474" lon="-1.37158">
        <ele>130</ele>
        <time>2021-10-23T14:08:02Z</time>
      </trkpt>
      <trkpt lat="47.35465" lon="-1.37145">
        <ele>130</ele>
        <time>2021-10-23T14:08:04Z</time>
      </trkpt>
      <trkpt lat="47.35457" lon="-1.37133">
        <ele>130</ele>
        <time>2021-10-23T14:08:06Z</time>
      </trkpt>
      <trkpt lat="47.35449" lon="-1.37121">
        <ele>130</ele>
        <time>2021-10-23T14:08:08Z</time>
      </trkpt>
      <trkpt lat="47.3544" lon="-1.37108">
        <ele>131</ele>
        <time>2021-10-23T14:08:10Z</time>
      </trkpt>
      <trkpt lat="47.35432" lon="-1.37095">
        <ele>131</ele>
        <time>2021-10-23T14:08:12Z</time>
      </trkpt>
      <trkpt lat="47.35424" lon="-1.37083">
        <ele>131</ele>
        <time>2021-10-23T14:08:14Z</time>
      </trkpt>
      <trkpt lat="47.35417" lon="-1.3707">
        <ele>131</ele>
        <time>2021-10-23T14:08:16Z</time>
      </trkpt>
      <trkpt lat="47.35408" lon="-1.37057">
        <ele>132</ele>
        <time>2021-10-23T14:08:18Z</time>
      </trkpt>
      <trkpt lat="47.354" lon="-1.37045">
        <ele>132</ele>
        <time>2021-10-23T14:08:20Z</time>
      </trkpt>
      <trkpt lat="47.35392" lon="-1.37033">
        <ele>132</ele>
        <time>2021-10-23T14:08:22Z</time>
      </trkpt>
      <trkpt lat="47.35385" lon="-1.3702">
        <ele>132</ele>
        <time>2021-10-23T14:08:24Z</time>
      </trkpt>
      <trkpt lat="47.35377" lon="-1.37008">
        <ele>132</ele>
        <time>2021-10-23T14:08:26Z</time>
      </trkpt>
      <trkpt lat="47.35369" lon="-1.36995">
        <ele>132</ele>
        <time>2021-10-23T14:08:28Z</time>
      </trkpt>
      <trkpt lat="47.35361" lon="-1.36983">
        <ele>132</ele>
        <time>2021-10-23T14:08:30Z</time>
      </trkpt>
      <trkpt lat="47.35353" lon="-1.3697">
        <ele>131</ele>
        <time>2021-10-23T14:08:32Z</time>
      </trkpt>
      <trkpt lat="47.35345" lon="-1.36958">
        <ele>131</ele>
        <time>2021-10-23T14:08:34Z</time>
      </trkpt>
      <trkpt lat="47.35337" lon="-1.36945">
        <ele>131</ele>
        <time>2021-10-23T14:08:36Z</time>
      </trkpt>
      <trkpt lat="47.35329" lon="-1.36933">
        <ele>131</ele>
        <time>2021-10-23T14:08:38Z</time>
      </trkpt>
      <trkpt lat="47.35321" lon="-1.3692">
        <ele>131</ele>
        <time>2021-10-23T14:08:40Z</time>
      </trkpt>
      <trkpt lat="47.35312" lon="-1.36908">
        <ele>131</ele>
        <time>2021-10-23T14:08:42Z</time>
      </trkpt>
      <trkpt lat="47.35304" lon="-1.36895">
        <ele>131</ele>
        <time>2021-10-23T14:08:44Z</time>
      </trkpt>
      <trkpt lat="47.35296" lon="-1.36883">
        <ele>131</ele>
        <time>2021-10-23T14:08:46Z</time>
      </trkpt>
      <trkpt lat="47.35287" lon="-1.3687">
        <ele>131</ele>
        <time>2021-10-23T14:08:48Z</time>
      </trkpt>
      <trkpt lat="47.35279" lon="-1.36858">
        <ele>131</ele>
        <time>2021-10-23T14:08:50Z</time>
      </trkpt>
      <trkpt lat="47.35271" lon="-1.36846">
        <ele>131</ele>
        <time>2021-10-23T14:08:52Z</time>
      </trkpt>
      <trkpt lat="47.35262" lon="-1.36833">
        <ele>131</ele>
        <time>2021-10-23T14:08:54Z</time>
      </trkpt>
      <trkpt lat="47.35254" lon="-1.3682">
        <ele>131</ele>
        <time>2021-10-23T14:08:56Z</time>
      </trkpt>
      <trkpt lat="47.35245" lon="-1.36808">
        <ele>131</ele>
        <time>2021-10-23T14:08:58Z</time>
      </trkpt>
      <trkpt lat="47.35237" lon="-1.36795">
        <ele>131</ele>
        <time>2021-10-23T14:09:00Z</time>
      </trkpt>
      <trkpt lat="47.35229" lon="-1.36783">
        <ele>130</ele>
        <time>2021-10-23T14:09:02Z</time>
      </trkpt>
      <trkpt lat="47.35221" lon="-1.3677">
        <ele>130</ele>
        <time>2021-10-23T14:09:04Z</time>
      </trkpt>
      <trkpt lat="47.35212" lon="-1.36758">
        <ele>131</ele>
        <time>2021-10-23T14:09:06Z</time>
      </trkpt>
      <trkpt lat="47.35204" lon="-1.36745">
        <ele>131</ele>
        <time>2021-10-23T14:09:08Z</time>
      </trkpt>
      <trkpt lat="47.35196" lon="-1.36733">
        <ele>131</ele>
        <time>2021-10-23T14:09:10Z</time>
      </trkpt>
      <trkpt lat="47.35188" lon="-1.3672">
        <ele>131</ele>
        <time>2021-10-23T14:09:12Z</time>
      </trkpt>
      <trkpt lat="47.3518" lon="-1.36707">
        <ele>130</ele>
        <time>2021-10-23T14:09:14Z</time>
      </trkpt>
      <trkpt lat="47.35171" lon="-1.36695">
        <ele>130</ele>
        <time>2021-10-23T14:09:16Z</time>
      </trkpt>
      <trkpt lat="47.35163" lon="-1.36683">
        <ele>131</ele>
        <time>2021-10-23T14:09:18Z</time>
      </trkpt>
      <trkpt lat="47.35155" lon="-1.36671">
        <ele>130</ele>
        <time>2021-10-23T14:09:20Z</time>
      </trkpt>
      <trkpt lat="47.35146" lon="-1.36658">
        <ele>131</ele>
        <time>2021-10-23T14:09:22Z</time>
      </trkpt>
      <trkpt lat="47.35138" lon="-1.36644">
        <ele>130</ele>
        <time>2021-10-23T14:09:24Z</time>
      </trkpt>
      <trkpt lat="47.3513" lon="-1.36631">
        <ele>130</ele>
        <time>2021-10-23T14:09:26Z</time>
      </trkpt>
      <trkpt lat="47.35121" lon="-1.36619">
        <ele>130</ele>
        <time>2021-10-23T14:09:28Z</time>
      </trkpt>
      <trkpt lat="47.35113" lon="-1.36606">
        <ele>131</ele>
        <time>2021-10-23T14:09:30Z</time>
      </trkpt>
      <trkpt lat="47.35104" lon="-1.36594">
        <ele>131</ele>
        <time>2021-10-23T14:09:32Z</time>
      </trkpt>
      <trkpt lat="47.35095" lon="-1.36582">
        <ele>131</ele>
        <time>2021-10-23T14:09:34Z</time>
      </trkpt>
      <trkpt lat="47.35086" lon="-1.3657">
        <ele>131</ele>
        <time>2021-10-23T14:09:36Z</time>
      </trkpt>
      <trkpt lat="47.35078" lon="-1.36558">
        <ele>131</ele>
        <time>2021-10-23T14:09:38Z</time>
      </trkpt>
      <trkpt lat="47.35069" lon="-1.36546">
        <ele>132</ele>
        <time>2021-10-23T14:09:40Z</time>
      </trkpt>
      <trkpt lat="47.35061" lon="-1.36532">
        <ele>132</ele>
        <time>2021-10-23T14:09:42Z</time>
      </trkpt>
      <trkpt lat="47.35053" lon="-1.36519">
        <ele>132</ele>
        <time>2021-10-23T14:09:44Z</time>
      </trkpt>
      <trkpt lat="47.35045" lon="-1.36505">
        <ele>132</ele>
        <time>2021-10-23T14:09:46Z</time>
      </trkpt>
      <trkpt lat="47.35036" lon="-1.36492">
        <ele>131</ele>
        <time>2021-10-23T14:09:48Z</time>
      </trkpt>
      <trkpt lat="47.35029" lon="-1.36479">
        <ele>132</ele>
        <time>2021-10-23T14:09:50Z</time>
      </trkpt>
      <trkpt lat="47.3502" lon="-1.36466">
        <ele>132</ele>
        <time>2021-10-23T14:09:52Z</time>
      </trkpt>
      <trkpt lat="47.35012" lon="-1.36454">
        <ele>131</ele>
        <time>2021-10-23T14:09:54Z</time>
      </trkpt>
      <trkpt lat="47.35003" lon="-1.36441">
        <ele>131</ele>
        <time>2021-10-23T14:09:56Z</time>
      </trkpt>
      <trkpt lat="47.34995" lon="-1.3643">
        <ele>130</ele>
        <time>2021-10-23T14:09:58Z</time>
      </trkpt>
      <trkpt lat="47.34985" lon="-1.36418">
        <ele>130</ele>
        <time>2021-10-23T14:10:00Z</time>
      </trkpt>
      <trkpt lat="47.34976" lon="-1.36406">
        <ele>130</ele>
        <time>2021-10-23T14:10:02Z</time>
      </trkpt>
      <trkpt lat="47.34967" lon="-1.36395">
        <ele>130</ele>
        <time>2021-10-23T14:10:04Z</time>
      </trkpt>
      <trkpt lat="47.34958" lon="-1.36383">
        <ele>130</ele>
        <time>2021-10-23T14:10:06Z</time>
      </trkpt>
      <trkpt lat="47.34948" lon="-1.36372">
        <ele>130</ele>
        <time>2021-10-23T14:10:08Z</time>
      </trkpt>
      <trkpt lat="47.34939" lon="-1.3636">
        <ele>129</ele>
        <time>2021-10-23T14:10:10Z</time>
      </trkpt>
      <trkpt lat="47.3493" lon="-1.36348">
        <ele>129</ele>
        <time>2021-10-23T14:10:12Z</time>
      </trkpt>
      <trkpt lat="47.34921" lon="-1.36337">
        <ele>130</ele>
        <time>2021-10-23T14:10:14Z</time>
      </trkpt>
      <trkpt lat="47.34912" lon="-1.36325">
        <ele>129</ele>
        <time>2021-10-23T14:10:16Z</time>
      </trkpt>
      <trkpt lat="47.34904" lon="-1.36313">
        <ele>129</ele>
        <time>2021-10-23T14:10:18Z</time>
      </trkpt>
      <trkpt lat="47.34895" lon="-1.363">
        <ele>129</ele>
        <time>2021-10-23T14:10:20Z</time>
      </trkpt>
      <trkpt lat="47.34887" lon="-1.36288">
        <ele>129</ele>
        <time>2021-10-23T14:10:22Z</time>
      </trkpt>
      <trkpt lat="47.34879" lon="-1.36275">
        <ele>130</ele>
        <time>2021-10-23T14:10:24Z</time>
      </trkpt>
      <trkpt lat="47.34868" lon="-1.36256">
        <ele>130</ele>
        <time>2021-10-23T14:10:27Z</time>
      </trkpt>
      <trkpt lat="47.34861" lon="-1.36244">
        <ele>130</ele>
        <time>2021-10-23T14:10:29Z</time>
      </trkpt>
      <trkpt lat="47.34853" lon="-1.36232">
        <ele>130</ele>
        <time>2021-10-23T14:10:31Z</time>
      </trkpt>
      <trkpt lat="47.34846" lon="-1.3622">
        <ele>130</ele>
        <time>2021-10-23T14:10:33Z</time>
      </trkpt>
      <trkpt lat="47.34839" lon="-1.36208">
        <ele>130</ele>
        <time>2021-10-23T14:10:35Z</time>
      </trkpt>
      <trkpt lat="47.34831" lon="-1.36196">
        <ele>130</ele>
        <time>2021-10-23T14:10:37Z</time>
      </trkpt>
      <trkpt lat="47.34823" lon="-1.36184">
        <ele>130</ele>
        <time>2021-10-23T14:10:39Z</time>
      </trkpt>
      <trkpt lat="47.34816" lon="-1.36173">
        <ele>129</ele>
        <time>2021-10-23T14:10:41Z</time>
      </trkpt>
      <trkpt lat="47.34808" lon="-1.36161">
        <ele>130</ele>
        <time>2021-10-23T14:10:43Z</time>
      </trkpt>
      <trkpt lat="47.34799" lon="-1.36149">
        <ele>130</ele>
        <time>2021-10-23T14:10:45Z</time>
      </trkpt>
      <trkpt lat="47.34791" lon="-1.36138">
        <ele>130</ele>
        <time>2021-10-23T14:10:47Z</time>
      </trkpt>
      <trkpt lat="47.34778" lon="-1.36123">
        <ele>130</ele>
        <time>2021-10-23T14:10:50Z</time>
      </trkpt>
      <trkpt lat="47.3477" lon="-1.36113">
        <ele>130</ele>
        <time>2021-10-23T14:10:52Z</time>
      </trkpt>
      <trkpt lat="47.34761" lon="-1.36102">
        <ele>130</ele>
        <time>2021-10-23T14:10:54Z</time>
      </trkpt>
      <trkpt lat="47.34753" lon="-1.36092">
        <ele>130</ele>
        <time>2021-10-23T14:10:56Z</time>
      </trkpt>
      <trkpt lat="47.34744" lon="-1.36082">
        <ele>130</ele>
        <time>2021-10-23T14:10:58Z</time>
      </trkpt>
      <trkpt lat="47.34735" lon="-1.36071">
        <ele>130</ele>
        <time>2021-10-23T14:11:00Z</time>
      </trkpt>
      <trkpt lat="47.34725" lon="-1.3606">
        <ele>130</ele>
        <time>2021-10-23T14:11:02Z</time>
      </trkpt>
      <trkpt lat="47.34716" lon="-1.36049">
        <ele>130</ele>
        <time>2021-10-23T14:11:04Z</time>
      </trkpt>
      <trkpt lat="47.34707" lon="-1.36038">
        <ele>130</ele>
        <time>2021-10-23T14:11:06Z</time>
      </trkpt>
      <trkpt lat="47.34697" lon="-1.36027">
        <ele>129</ele>
        <time>2021-10-23T14:11:08Z</time>
      </trkpt>
      <trkpt lat="47.34687" lon="-1.36016">
        <ele>129</ele>
        <time>2021-10-23T14:11:10Z</time>
      </trkpt>
      <trkpt lat="47.34676" lon="-1.36004">
        <ele>129</ele>
        <time>2021-10-23T14:11:12Z</time>
      </trkpt>
      <trkpt lat="47.34666" lon="-1.35993">
        <ele>128</ele>
        <time>2021-10-23T14:11:14Z</time>
      </trkpt>
      <trkpt lat="47.34655" lon="-1.35982">
        <ele>128</ele>
        <time>2021-10-23T14:11:16Z</time>
      </trkpt>
      <trkpt lat="47.34645" lon="-1.3597">
        <ele>127</ele>
        <time>2021-10-23T14:11:18Z</time>
      </trkpt>
      <trkpt lat="47.34634" lon="-1.35959">
        <ele>126</ele>
        <time>2021-10-23T14:11:20Z</time>
      </trkpt>
      <trkpt lat="47.34622" lon="-1.35947">
        <ele>126</ele>
        <time>2021-10-23T14:11:22Z</time>
      </trkpt>
      <trkpt lat="47.34611" lon="-1.35935">
        <ele>126</ele>
        <time>2021-10-23T14:11:24Z</time>
      </trkpt>
      <trkpt lat="47.34601" lon="-1.35923">
        <ele>126</ele>
        <time>2021-10-23T14:11:26Z</time>
      </trkpt>
      <trkpt lat="47.3459" lon="-1.3591">
        <ele>126</ele>
        <time>2021-10-23T14:11:28Z</time>
      </trkpt>
      <trkpt lat="47.3458" lon="-1.35898">
        <ele>127</ele>
        <time>2021-10-23T14:11:30Z</time>
      </trkpt>
      <trkpt lat="47.3457" lon="-1.35885">
        <ele>127</ele>
        <time>2021-10-23T14:11:32Z</time>
      </trkpt>
      <trkpt lat="47.34561" lon="-1.35872">
        <ele>127</ele>
        <time>2021-10-23T14:11:34Z</time>
      </trkpt>
      <trkpt lat="47.34552" lon="-1.35858">
        <ele>127</ele>
        <time>2021-10-23T14:11:36Z</time>
      </trkpt>
      <trkpt lat="47.34543" lon="-1.35845">
        <ele>128</ele>
        <time>2021-10-23T14:11:38Z</time>
      </trkpt>
      <trkpt lat="47.34535" lon="-1.35832">
        <ele>128</ele>
        <time>2021-10-23T14:11:40Z</time>
      </trkpt>
      <trkpt lat="47.34527" lon="-1.35819">
        <ele>129</ele>
        <time>2021-10-23T14:11:42Z</time>
      </trkpt>
      <trkpt lat="47.34519" lon="-1.35805">
        <ele>129</ele>
        <time>2021-10-23T14:11:44Z</time>
      </trkpt>
      <trkpt lat="47.34511" lon="-1.35792">
        <ele>129</ele>
        <time>2021-10-23T14:11:46Z</time>
      </trkpt>
      <trkpt lat="47.34504" lon="-1.35779">
        <ele>129</ele>
        <time>2021-10-23T14:11:48Z</time>
      </trkpt>
      <trkpt lat="47.34497" lon="-1.35766">
        <ele>129</ele>
        <time>2021-10-23T14:11:50Z</time>
      </trkpt>
      <trkpt lat="47.3449" lon="-1.35753">
        <ele>129</ele>
        <time>2021-10-23T14:11:52Z</time>
      </trkpt>
      <trkpt lat="47.34482" lon="-1.35739">
        <ele>129</ele>
        <time>2021-10-23T14:11:54Z</time>
      </trkpt>
      <trkpt lat="47.34476" lon="-1.35726">
        <ele>129</ele>
        <time>2021-10-23T14:11:56Z</time>
      </trkpt>
      <trkpt lat="47.34468" lon="-1.35712">
        <ele>130</ele>
        <time>2021-10-23T14:11:58Z</time>
      </trkpt>
      <trkpt lat="47.34462" lon="-1.35699">
        <ele>130</ele>
        <time>2021-10-23T14:12:00Z</time>
      </trkpt>
      <trkpt lat="47.34454" lon="-1.35687">
        <ele>130</ele>
        <time>2021-10-23T14:12:02Z</time>
      </trkpt>
      <trkpt lat="47.34446" lon="-1.35675">
        <ele>130</ele>
        <time>2021-10-23T14:12:04Z</time>
      </trkpt>
      <trkpt lat="47.34437" lon="-1.35663">
        <ele>131</ele>
        <time>2021-10-23T14:12:06Z</time>
      </trkpt>
      <trkpt lat="47.3443" lon="-1.35652">
        <ele>131</ele>
        <time>2021-10-23T14:12:08Z</time>
      </trkpt>
      <trkpt lat="47.34422" lon="-1.3564">
        <ele>131</ele>
        <time>2021-10-23T14:12:10Z</time>
      </trkpt>
      <trkpt lat="47.34415" lon="-1.35627">
        <ele>131</ele>
        <time>2021-10-23T14:12:12Z</time>
      </trkpt>
      <trkpt lat="47.34407" lon="-1.35615">
        <ele>131</ele>
        <time>2021-10-23T14:12:14Z</time>
      </trkpt>
      <trkpt lat="47.34399" lon="-1.35602">
        <ele>132</ele>
        <time>2021-10-23T14:12:16Z</time>
      </trkpt>
      <trkpt lat="47.34391" lon="-1.35588">
        <ele>132</ele>
        <time>2021-10-23T14:12:18Z</time>
      </trkpt>
      <trkpt lat="47.34383" lon="-1.35575">
        <ele>132</ele>
        <time>2021-10-23T14:12:20Z</time>
      </trkpt>
      <trkpt lat="47.34376" lon="-1.35562">
        <ele>132</ele>
        <time>2021-10-23T14:12:22Z</time>
      </trkpt>
      <trkpt lat="47.34369" lon="-1.35548">
        <ele>132</ele>
        <time>2021-10-23T14:12:24Z</time>
      </trkpt>
      <trkpt lat="47.34362" lon="-1.35534">
        <ele>131</ele>
        <time>2021-10-23T14:12:26Z</time>
      </trkpt>
      <trkpt lat="47.34355" lon="-1.35521">
        <ele>131</ele>
        <time>2021-10-23T14:12:28Z</time>
      </trkpt>
      <trkpt lat="47.34347" lon="-1.35508">
        <ele>131</ele>
        <time>2021-10-23T14:12:30Z</time>
      </trkpt>
      <trkpt lat="47.3434" lon="-1.35494">
        <ele>130</ele>
        <time>2021-10-23T14:12:32Z</time>
      </trkpt>
      <trkpt lat="47.34333" lon="-1.35481">
        <ele>130</ele>
        <time>2021-10-23T14:12:34Z</time>
      </trkpt>
      <trkpt lat="47.34325" lon="-1.35468">
        <ele>130</ele>
        <time>2021-10-23T14:12:36Z</time>
      </trkpt>
      <trkpt lat="47.34317" lon="-1.35455">
        <ele>130</ele>
        <time>2021-10-23T14:12:38Z</time>
      </trkpt>
      <trkpt lat="47.3431" lon="-1.35442">
        <ele>130</ele>
        <time>2021-10-23T14:12:40Z</time>
      </trkpt>
      <trkpt lat="47.34302" lon="-1.35428">
        <ele>131</ele>
        <time>2021-10-23T14:12:42Z</time>
      </trkpt>
      <trkpt lat="47.34294" lon="-1.35415">
        <ele>131</ele>
        <time>2021-10-23T14:12:44Z</time>
      </trkpt>
      <trkpt lat="47.34286" lon="-1.35403">
        <ele>131</ele>
        <time>2021-10-23T14:12:46Z</time>
      </trkpt>
      <trkpt lat="47.34278" lon="-1.35389">
        <ele>131</ele>
        <time>2021-10-23T14:12:48Z</time>
      </trkpt>
      <trkpt lat="47.34271" lon="-1.35375">
        <ele>131</ele>
        <time>2021-10-23T14:12:50Z</time>
      </trkpt>
      <trkpt lat="47.34263" lon="-1.35362">
        <ele>131</ele>
        <time>2021-10-23T14:12:52Z</time>
      </trkpt>
      <trkpt lat="47.34255" lon="-1.35349">
        <ele>131</ele>
        <time>2021-10-23T14:12:54Z</time>
      </trkpt>
      <trkpt lat="47.34248" lon="-1.35336">
        <ele>131</ele>
        <time>2021-10-23T14:12:56Z</time>
      </trkpt>
      <trkpt lat="47.3424" lon="-1.35323">
        <ele>131</ele>
        <time>2021-10-23T14:12:58Z</time>
      </trkpt>
      <trkpt lat="47.34232" lon="-1.35311">
        <ele>131</ele>
        <time>2021-10-23T14:13:00Z</time>
      </trkpt>
      <trkpt lat="47.34225" lon="-1.35298">
        <ele>131</ele>
        <time>2021-10-23T14:13:02Z</time>
      </trkpt>
      <trkpt lat="47.34218" lon="-1.35286">
        <ele>131</ele>
        <time>2021-10-23T14:13:04Z</time>
      </trkpt>
      <trkpt lat="47.3421" lon="-1.35272">
        <ele>131</ele>
        <time>2021-10-23T14:13:06Z</time>
      </trkpt>
      <trkpt lat="47.34202" lon="-1.35259">
        <ele>131</ele>
        <time>2021-10-23T14:13:08Z</time>
      </trkpt>
      <trkpt lat="47.34195" lon="-1.35247">
        <ele>131</ele>
        <time>2021-10-23T14:13:10Z</time>
      </trkpt>
      <trkpt lat="47.34187" lon="-1.35234">
        <ele>131</ele>
        <time>2021-10-23T14:13:12Z</time>
      </trkpt>
      <trkpt lat="47.34179" lon="-1.35221">
        <ele>131</ele>
        <time>2021-10-23T14:13:14Z</time>
      </trkpt>
      <trkpt lat="47.34171" lon="-1.35208">
        <ele>131</ele>
        <time>2021-10-23T14:13:16Z</time>
      </trkpt>
      <trkpt lat="47.34164" lon="-1.35194">
        <ele>130</ele>
        <time>2021-10-23T14:13:18Z</time>
      </trkpt>
      <trkpt lat="47.34156" lon="-1.35181">
        <ele>130</ele>
        <time>2021-10-23T14:13:20Z</time>
      </trkpt>
      <trkpt lat="47.34148" lon="-1.35168">
        <ele>130</ele>
        <time>2021-10-23T14:13:22Z</time>
      </trkpt>
      <trkpt lat="47.3414" lon="-1.35155">
        <ele>129</ele>
        <time>2021-10-23T14:13:24Z</time>
      </trkpt>
      <trkpt lat="47.34133" lon="-1.35142">
        <ele>129</ele>
        <time>2021-10-23T14:13:26Z</time>
      </trkpt>
      <trkpt lat="47.34125" lon="-1.35129">
        <ele>129</ele>
        <time>2021-10-23T14:13:28Z</time>
      </trkpt>
      <trkpt lat="47.34117" lon="-1.35115">
        <ele>129</ele>
        <time>2021-10-23T14:13:30Z</time>
      </trkpt>
      <trkpt lat="47.34109" lon="-1.35102">
        <ele>129</ele>
        <time>2021-10-23T14:13:32Z</time>
      </trkpt>
      <trkpt lat="47.34101" lon="-1.35089">
        <ele>129</ele>
        <time>2021-10-23T14:13:34Z</time>
      </trkpt>
      <trkpt lat="47.34093" lon="-1.35076">
        <ele>129</ele>
        <time>2021-10-23T14:13:36Z</time>
      </trkpt>
      <trkpt lat="47.34086" lon="-1.35063">
        <ele>129</ele>
        <time>2021-10-23T14:13:38Z</time>
      </trkpt>
      <trkpt lat="47.34078" lon="-1.3505">
        <ele>129</ele>
        <time>2021-10-23T14:13:40Z</time>
      </trkpt>
      <trkpt lat="47.34071" lon="-1.35036">
        <ele>129</ele>
        <time>2021-10-23T14:13:42Z</time>
      </trkpt>
      <trkpt lat="47.34063" lon="-1.35023">
        <ele>129</ele>
        <time>2021-10-23T14:13:44Z</time>
      </trkpt>
      <trkpt lat="47.34055" lon="-1.3501">
        <ele>129</ele>
        <time>2021-10-23T14:13:46Z</time>
      </trkpt>
      <trkpt lat="47.34047" lon="-1.34997">
        <ele>129</ele>
        <time>2021-10-23T14:13:48Z</time>
      </trkpt>
      <trkpt lat="47.34039" lon="-1.34986">
        <ele>129</ele>
        <time>2021-10-23T14:13:50Z</time>
      </trkpt>
      <trkpt lat="47.34031" lon="-1.34975">
        <ele>129</ele>
        <time>2021-10-23T14:13:52Z</time>
      </trkpt>
      <trkpt lat="47.34023" lon="-1.34967">
        <ele>129</ele>
        <time>2021-10-23T14:13:54Z</time>
      </trkpt>
      <trkpt lat="47.34015" lon="-1.3496">
        <ele>128</ele>
        <time>2021-10-23T14:13:56Z</time>
      </trkpt>
      <trkpt lat="47.34005" lon="-1.34956">
        <ele>129</ele>
        <time>2021-10-23T14:13:58Z</time>
      </trkpt>
      <trkpt lat="47.33995" lon="-1.34948">
        <ele>129</ele>
        <time>2021-10-23T14:14:00Z</time>
      </trkpt>
      <trkpt lat="47.33987" lon="-1.34936">
        <ele>129</ele>
        <time>2021-10-23T14:14:02Z</time>
      </trkpt>
      <trkpt lat="47.33981" lon="-1.3492">
        <ele>129</ele>
        <time>2021-10-23T14:14:04Z</time>
      </trkpt>
      <trkpt lat="47.33972" lon="-1.34908">
        <ele>128</ele>
        <time>2021-10-23T14:14:06Z</time>
      </trkpt>
      <trkpt lat="47.33962" lon="-1.34898">
        <ele>128</ele>
        <time>2021-10-23T14:14:08Z</time>
      </trkpt>
      <trkpt lat="47.33952" lon="-1.34889">
        <ele>128</ele>
        <time>2021-10-23T14:14:10Z</time>
      </trkpt>
      <trkpt lat="47.33942" lon="-1.34879">
        <ele>129</ele>
        <time>2021-10-23T14:14:12Z</time>
      </trkpt>
      <trkpt lat="47.33931" lon="-1.34869">
        <ele>128</ele>
        <time>2021-10-23T14:14:14Z</time>
      </trkpt>
      <trkpt lat="47.33921" lon="-1.34859">
        <ele>128</ele>
        <time>2021-10-23T14:14:16Z</time>
      </trkpt>
      <trkpt lat="47.33911" lon="-1.3485">
        <ele>128</ele>
        <time>2021-10-23T14:14:18Z</time>
      </trkpt>
      <trkpt lat="47.33901" lon="-1.3484">
        <ele>129</ele>
        <time>2021-10-23T14:14:20Z</time>
      </trkpt>
      <trkpt lat="47.33892" lon="-1.34829">
        <ele>129</ele>
        <time>2021-10-23T14:14:22Z</time>
      </trkpt>
      <trkpt lat="47.33883" lon="-1.34817">
        <ele>129</ele>
        <time>2021-10-23T14:14:24Z</time>
      </trkpt>
      <trkpt lat="47.33874" lon="-1.34805">
        <ele>128</ele>
        <time>2021-10-23T14:14:26Z</time>
      </trkpt>
      <trkpt lat="47.33866" lon="-1.34793">
        <ele>128</ele>
        <time>2021-10-23T14:14:28Z</time>
      </trkpt>
      <trkpt lat="47.33857" lon="-1.3478">
        <ele>128</ele>
        <time>2021-10-23T14:14:30Z</time>
      </trkpt>
      <trkpt lat="47.33848" lon="-1.34768">
        <ele>128</ele>
        <time>2021-10-23T14:14:32Z</time>
      </trkpt>
      <trkpt lat="47.33839" lon="-1.34755">
        <ele>128</ele>
        <time>2021-10-23T14:14:34Z</time>
      </trkpt>
      <trkpt lat="47.3383" lon="-1.34743">
        <ele>128</ele>
        <time>2021-10-23T14:14:36Z</time>
      </trkpt>
      <trkpt lat="47.33821" lon="-1.3473">
        <ele>128</ele>
        <time>2021-10-23T14:14:38Z</time>
      </trkpt>
      <trkpt lat="47.33812" lon="-1.34718">
        <ele>127</ele>
        <time>2021-10-23T14:14:40Z</time>
      </trkpt>
      <trkpt lat="47.33803" lon="-1.34706">
        <ele>127</ele>
        <time>2021-10-23T14:14:42Z</time>
      </trkpt>
      <trkpt lat="47.33795" lon="-1.34693">
        <ele>127</ele>
        <time>2021-10-23T14:14:44Z</time>
      </trkpt>
      <trkpt lat="47.33786" lon="-1.34681">
        <ele>127</ele>
        <time>2021-10-23T14:14:46Z</time>
      </trkpt>
      <trkpt lat="47.33777" lon="-1.3467">
        <ele>127</ele>
        <time>2021-10-23T14:14:48Z</time>
      </trkpt>
      <trkpt lat="47.33769" lon="-1.34658">
        <ele>127</ele>
        <time>2021-10-23T14:14:50Z</time>
      </trkpt>
      <trkpt lat="47.3376" lon="-1.34646">
        <ele>127</ele>
        <time>2021-10-23T14:14:52Z</time>
      </trkpt>
      <trkpt lat="47.33751" lon="-1.34635">
        <ele>128</ele>
        <time>2021-10-23T14:14:54Z</time>
      </trkpt>
      <trkpt lat="47.33743" lon="-1.34623">
        <ele>128</ele>
        <time>2021-10-23T14:14:56Z</time>
      </trkpt>
      <trkpt lat="47.33735" lon="-1.34611">
        <ele>128</ele>
        <time>2021-10-23T14:14:58Z</time>
      </trkpt>
      <trkpt lat="47.33726" lon="-1.346">
        <ele>128</ele>
        <time>2021-10-23T14:15:00Z</time>
      </trkpt>
      <trkpt lat="47.33717" lon="-1.34589">
        <ele>127</ele>
        <time>2021-10-23T14:15:02Z</time>
      </trkpt>
      <trkpt lat="47.33709" lon="-1.34577">
        <ele>127</ele>
        <time>2021-10-23T14:15:04Z</time>
      </trkpt>
      <trkpt lat="47.33701" lon="-1.34565">
        <ele>127</ele>
        <time>2021-10-23T14:15:06Z</time>
      </trkpt>
      <trkpt lat="47.33692" lon="-1.34554">
        <ele>127</ele>
        <time>2021-10-23T14:15:08Z</time>
      </trkpt>
      <trkpt lat="47.33684" lon="-1.34542">
        <ele>127</ele>
        <time>2021-10-23T14:15:10Z</time>
      </trkpt>
      <trkpt lat="47.33675" lon="-1.3453">
        <ele>127</ele>
        <time>2021-10-23T14:15:12Z</time>
      </trkpt>
      <trkpt lat="47.33667" lon="-1.34518">
        <ele>126</ele>
        <time>2021-10-23T14:15:14Z</time>
      </trkpt>
      <trkpt lat="47.33658" lon="-1.34506">
        <ele>127</ele>
        <time>2021-10-23T14:15:16Z</time>
      </trkpt>
      <trkpt lat="47.3365" lon="-1.34494">
        <ele>126</ele>
        <time>2021-10-23T14:15:18Z</time>
      </trkpt>
      <trkpt lat="47.33641" lon="-1.34483">
        <ele>126</ele>
        <time>2021-10-23T14:15:20Z</time>
      </trkpt>
      <trkpt lat="47.33632" lon="-1.34474">
        <ele>126</ele>
        <time>2021-10-23T14:15:22Z</time>
      </trkpt>
      <trkpt lat="47.33621" lon="-1.34465">
        <ele>126</ele>
        <time>2021-10-23T14:15:24Z</time>
      </trkpt>
      <trkpt lat="47.3361" lon="-1.34458">
        <ele>126</ele>
        <time>2021-10-23T14:15:26Z</time>
      </trkpt>
      <trkpt lat="47.33599" lon="-1.34452">
        <ele>126</ele>
        <time>2021-10-23T14:15:28Z</time>
      </trkpt>
      <trkpt lat="47.33587" lon="-1.34446">
        <ele>126</ele>
        <time>2021-10-23T14:15:30Z</time>
      </trkpt>
      <trkpt lat="47.33575" lon="-1.3444">
        <ele>126</ele>
        <time>2021-10-23T14:15:32Z</time>
      </trkpt>
      <trkpt lat="47.33563" lon="-1.34434">
        <ele>126</ele>
        <time>2021-10-23T14:15:34Z</time>
      </trkpt>
      <trkpt lat="47.33551" lon="-1.34428">
        <ele>126</ele>
        <time>2021-10-23T14:15:36Z</time>
      </trkpt>
      <trkpt lat="47.33539" lon="-1.34423">
        <ele>126</ele>
        <time>2021-10-23T14:15:38Z</time>
      </trkpt>
      <trkpt lat="47.33527" lon="-1.34417">
        <ele>126</ele>
        <time>2021-10-23T14:15:40Z</time>
      </trkpt>
      <trkpt lat="47.33515" lon="-1.34412">
        <ele>126</ele>
        <time>2021-10-23T14:15:42Z</time>
      </trkpt>
      <trkpt lat="47.33503" lon="-1.34406">
        <ele>125</ele>
        <time>2021-10-23T14:15:44Z</time>
      </trkpt>
      <trkpt lat="47.33491" lon="-1.34401">
        <ele>125</ele>
        <time>2021-10-23T14:15:46Z</time>
      </trkpt>
      <trkpt lat="47.3348" lon="-1.34395">
        <ele>125</ele>
        <time>2021-10-23T14:15:48Z</time>
      </trkpt>
      <trkpt lat="47.33468" lon="-1.34389">
        <ele>125</ele>
        <time>2021-10-23T14:15:50Z</time>
      </trkpt>
      <trkpt lat="47.33456" lon="-1.34383">
        <ele>125</ele>
        <time>2021-10-23T14:15:52Z</time>
      </trkpt>
      <trkpt lat="47.33443" lon="-1.34378">
        <ele>126</ele>
        <time>2021-10-23T14:15:54Z</time>
      </trkpt>
      <trkpt lat="47.33431" lon="-1.34372">
        <ele>126</ele>
        <time>2021-10-23T14:15:56Z</time>
      </trkpt>
      <trkpt lat="47.3342" lon="-1.34366">
        <ele>126</ele>
        <time>2021-10-23T14:15:58Z</time>
      </trkpt>
      <trkpt lat="47.33408" lon="-1.34361">
        <ele>126</ele>
        <time>2021-10-23T14:16:00Z</time>
      </trkpt>
      <trkpt lat="47.33396" lon="-1.34355">
        <ele>126</ele>
        <time>2021-10-23T14:16:02Z</time>
      </trkpt>
      <trkpt lat="47.33384" lon="-1.34348">
        <ele>125</ele>
        <time>2021-10-23T14:16:04Z</time>
      </trkpt>
      <trkpt lat="47.33372" lon="-1.34342">
        <ele>125</ele>
        <time>2021-10-23T14:16:06Z</time>
      </trkpt>
      <trkpt lat="47.33361" lon="-1.34336">
        <ele>124</ele>
        <time>2021-10-23T14:16:08Z</time>
      </trkpt>
      <trkpt lat="47.33348" lon="-1.3433">
        <ele>124</ele>
        <time>2021-10-23T14:16:10Z</time>
      </trkpt>
      <trkpt lat="47.33336" lon="-1.34325">
        <ele>124</ele>
        <time>2021-10-23T14:16:12Z</time>
      </trkpt>
      <trkpt lat="47.33324" lon="-1.34319">
        <ele>123</ele>
        <time>2021-10-23T14:16:14Z</time>
      </trkpt>
      <trkpt lat="47.33312" lon="-1.34314">
        <ele>123</ele>
        <time>2021-10-23T14:16:16Z</time>
      </trkpt>
      <trkpt lat="47.33299" lon="-1.34311">
        <ele>123</ele>
        <time>2021-10-23T14:16:18Z</time>
      </trkpt>
      <trkpt lat="47.33287" lon="-1.34308">
        <ele>122</ele>
        <time>2021-10-23T14:16:20Z</time>
      </trkpt>
      <trkpt lat="47.33274" lon="-1.34305">
        <ele>122</ele>
        <time>2021-10-23T14:16:22Z</time>
      </trkpt>
      <trkpt lat="47.33262" lon="-1.34303">
        <ele>122</ele>
        <time>2021-10-23T14:16:24Z</time>
      </trkpt>
      <trkpt lat="47.33249" lon="-1.34301">
        <ele>122</ele>
        <time>2021-10-23T14:16:26Z</time>
      </trkpt>
      <trkpt lat="47.33236" lon="-1.34299">
        <ele>122</ele>
        <time>2021-10-23T14:16:28Z</time>
      </trkpt>
      <trkpt lat="47.33223" lon="-1.34298">
        <ele>122</ele>
        <time>2021-10-23T14:16:30Z</time>
      </trkpt>
      <trkpt lat="47.3321" lon="-1.34297">
        <ele>122</ele>
        <time>2021-10-23T14:16:32Z</time>
      </trkpt>
      <trkpt lat="47.33197" lon="-1.34295">
        <ele>122</ele>
        <time>2021-10-23T14:16:34Z</time>
      </trkpt>
      <trkpt lat="47.33184" lon="-1.34292">
        <ele>121</ele>
        <time>2021-10-23T14:16:36Z</time>
      </trkpt>
      <trkpt lat="47.33171" lon="-1.34289">
        <ele>121</ele>
        <time>2021-10-23T14:16:38Z</time>
      </trkpt>
      <trkpt lat="47.33158" lon="-1.34284">
        <ele>120</ele>
        <time>2021-10-23T14:16:40Z</time>
      </trkpt>
      <trkpt lat="47.33144" lon="-1.34278">
        <ele>120</ele>
        <time>2021-10-23T14:16:42Z</time>
      </trkpt>
      <trkpt lat="47.33131" lon="-1.3427">
        <ele>120</ele>
        <time>2021-10-23T14:16:44Z</time>
      </trkpt>
      <trkpt lat="47.33118" lon="-1.34261">
        <ele>119</ele>
        <time>2021-10-23T14:16:46Z</time>
      </trkpt>
      <trkpt lat="47.33104" lon="-1.34252">
        <ele>119</ele>
        <time>2021-10-23T14:16:48Z</time>
      </trkpt>
      <trkpt lat="47.3309" lon="-1.34243">
        <ele>119</ele>
        <time>2021-10-23T14:16:50Z</time>
      </trkpt>
      <trkpt lat="47.33076" lon="-1.34234">
        <ele>119</ele>
        <time>2021-10-23T14:16:52Z</time>
      </trkpt>
      <trkpt lat="47.33063" lon="-1.34225">
        <ele>119</ele>
        <time>2021-10-23T14:16:54Z</time>
      </trkpt>
      <trkpt lat="47.33048" lon="-1.34216">
        <ele>118</ele>
        <time>2021-10-23T14:16:56Z</time>
      </trkpt>
      <trkpt lat="47.33033" lon="-1.34206">
        <ele>118</ele>
        <time>2021-10-23T14:16:58Z</time>
      </trkpt>
      <trkpt lat="47.33019" lon="-1.34196">
        <ele>118</ele>
        <time>2021-10-23T14:17:00Z</time>
      </trkpt>
      <trkpt lat="47.33004" lon="-1.34187">
        <ele>118</ele>
        <time>2021-10-23T14:17:02Z</time>
      </trkpt>
      <trkpt lat="47.32988" lon="-1.34176">
        <ele>118</ele>
        <time>2021-10-23T14:17:04Z</time>
      </trkpt>
      <trkpt lat="47.32973" lon="-1.34164">
        <ele>118</ele>
        <time>2021-10-23T14:17:06Z</time>
      </trkpt>
      <trkpt lat="47.32958" lon="-1.34148">
        <ele>118</ele>
        <time>2021-10-23T14:17:08Z</time>
      </trkpt>
      <trkpt lat="47.32952" lon="-1.34139">
        <ele>118</ele>
        <time>2021-10-23T14:17:09Z</time>
      </trkpt>
      <trkpt lat="47.32943" lon="-1.34117">
        <ele>116</ele>
        <time>2021-10-23T14:17:11Z</time>
      </trkpt>
      <trkpt lat="47.32939" lon="-1.34105">
        <ele>115</ele>
        <time>2021-10-23T14:17:12Z</time>
      </trkpt>
      <trkpt lat="47.32936" lon="-1.34092">
        <ele>114</ele>
        <time>2021-10-23T14:17:13Z</time>
      </trkpt>
      <trkpt lat="47.32933" lon="-1.34068">
        <ele>113</ele>
        <time>2021-10-23T14:17:15Z</time>
      </trkpt>
      <trkpt lat="47.32935" lon="-1.34042">
        <ele>112</ele>
        <time>2021-10-23T14:17:17Z</time>
      </trkpt>
      <trkpt lat="47.32938" lon="-1.34029">
        <ele>111</ele>
        <time>2021-10-23T14:17:18Z</time>
      </trkpt>
      <trkpt lat="47.32941" lon="-1.34016">
        <ele>111</ele>
        <time>2021-10-23T14:17:19Z</time>
      </trkpt>
      <trkpt lat="47.32948" lon="-1.33992">
        <ele>109</ele>
        <time>2021-10-23T14:17:21Z</time>
      </trkpt>
      <trkpt lat="47.32957" lon="-1.33968">
        <ele>109</ele>
        <time>2021-10-23T14:17:23Z</time>
      </trkpt>
      <trkpt lat="47.32965" lon="-1.33946">
        <ele>109</ele>
        <time>2021-10-23T14:17:25Z</time>
      </trkpt>
      <trkpt lat="47.32974" lon="-1.33922">
        <ele>109</ele>
        <time>2021-10-23T14:17:27Z</time>
      </trkpt>
      <trkpt lat="47.32983" lon="-1.33898">
        <ele>108</ele>
        <time>2021-10-23T14:17:29Z</time>
      </trkpt>
      <trkpt lat="47.32988" lon="-1.33886">
        <ele>108</ele>
        <time>2021-10-23T14:17:30Z</time>
      </trkpt>
      <trkpt lat="47.32992" lon="-1.33874">
        <ele>107</ele>
        <time>2021-10-23T14:17:31Z</time>
      </trkpt>
      <trkpt lat="47.32997" lon="-1.33862">
        <ele>106</ele>
        <time>2021-10-23T14:17:32Z</time>
      </trkpt>
      <trkpt lat="47.33001" lon="-1.3385">
        <ele>105</ele>
        <time>2021-10-23T14:17:33Z</time>
      </trkpt>
      <trkpt lat="47.33005" lon="-1.33837">
        <ele>105</ele>
        <time>2021-10-23T14:17:34Z</time>
      </trkpt>
      <trkpt lat="47.3301" lon="-1.33825">
        <ele>104</ele>
        <time>2021-10-23T14:17:35Z</time>
      </trkpt>
      <trkpt lat="47.33014" lon="-1.33813">
        <ele>104</ele>
        <time>2021-10-23T14:17:36Z</time>
      </trkpt>
      <trkpt lat="47.33019" lon="-1.33801">
        <ele>103</ele>
        <time>2021-10-23T14:17:37Z</time>
      </trkpt>
      <trkpt lat="47.33024" lon="-1.33789">
        <ele>103</ele>
        <time>2021-10-23T14:17:38Z</time>
      </trkpt>
      <trkpt lat="47.33029" lon="-1.33777">
        <ele>102</ele>
        <time>2021-10-23T14:17:39Z</time>
      </trkpt>
      <trkpt lat="47.33034" lon="-1.33766">
        <ele>101</ele>
        <time>2021-10-23T14:17:40Z</time>
      </trkpt>
      <trkpt lat="47.3304" lon="-1.33755">
        <ele>101</ele>
        <time>2021-10-23T14:17:41Z</time>
      </trkpt>
      <trkpt lat="47.33045" lon="-1.33744">
        <ele>100</ele>
        <time>2021-10-23T14:17:42Z</time>
      </trkpt>
      <trkpt lat="47.33052" lon="-1.33733">
        <ele>100</ele>
        <time>2021-10-23T14:17:43Z</time>
      </trkpt>
      <trkpt lat="47.33057" lon="-1.33721">
        <ele>99</ele>
        <time>2021-10-23T14:17:44Z</time>
      </trkpt>
      <trkpt lat="47.33063" lon="-1.3371">
        <ele>98</ele>
        <time>2021-10-23T14:17:45Z</time>
      </trkpt>
      <trkpt lat="47.33068" lon="-1.33699">
        <ele>98</ele>
        <time>2021-10-23T14:17:46Z</time>
      </trkpt>
      <trkpt lat="47.33074" lon="-1.33688">
        <ele>97</ele>
        <time>2021-10-23T14:17:47Z</time>
      </trkpt>
      <trkpt lat="47.33078" lon="-1.33676">
        <ele>97</ele>
        <time>2021-10-23T14:17:48Z</time>
      </trkpt>
      <trkpt lat="47.33083" lon="-1.33664">
        <ele>96</ele>
        <time>2021-10-23T14:17:49Z</time>
      </trkpt>
      <trkpt lat="47.33087" lon="-1.33651">
        <ele>96</ele>
        <time>2021-10-23T14:17:50Z</time>
      </trkpt>
      <trkpt lat="47.33091" lon="-1.33638">
        <ele>96</ele>
        <time>2021-10-23T14:17:51Z</time>
      </trkpt>
      <trkpt lat="47.33094" lon="-1.33625">
        <ele>96</ele>
        <time>2021-10-23T14:17:52Z</time>
      </trkpt>
      <trkpt lat="47.33098" lon="-1.33612">
        <ele>95</ele>
        <time>2021-10-23T14:17:53Z</time>
      </trkpt>
      <trkpt lat="47.33101" lon="-1.33599">
        <ele>95</ele>
        <time>2021-10-23T14:17:54Z</time>
      </trkpt>
      <trkpt lat="47.33105" lon="-1.33586">
        <ele>95</ele>
        <time>2021-10-23T14:17:55Z</time>
      </trkpt>
      <trkpt lat="47.33108" lon="-1.33573">
        <ele>95</ele>
        <time>2021-10-23T14:17:56Z</time>
      </trkpt>
      <trkpt lat="47.33111" lon="-1.3356">
        <ele>95</ele>
        <time>2021-10-23T14:17:57Z</time>
      </trkpt>
      <trkpt lat="47.33115" lon="-1.33547">
        <ele>94</ele>
        <time>2021-10-23T14:17:58Z</time>
      </trkpt>
      <trkpt lat="47.33117" lon="-1.33533">
        <ele>94</ele>
        <time>2021-10-23T14:17:59Z</time>
      </trkpt>
      <trkpt lat="47.33117" lon="-1.33519">
        <ele>94</ele>
        <time>2021-10-23T14:18:00Z</time>
      </trkpt>
      <trkpt lat="47.33116" lon="-1.33505">
        <ele>93</ele>
        <time>2021-10-23T14:18:01Z</time>
      </trkpt>
      <trkpt lat="47.33112" lon="-1.33492">
        <ele>93</ele>
        <time>2021-10-23T14:18:02Z</time>
      </trkpt>
      <trkpt lat="47.33107" lon="-1.3348">
        <ele>92</ele>
        <time>2021-10-23T14:18:03Z</time>
      </trkpt>
      <trkpt lat="47.33102" lon="-1.33469">
        <ele>92</ele>
        <time>2021-10-23T14:18:04Z</time>
      </trkpt>
      <trkpt lat="47.3309" lon="-1.33449">
        <ele>92</ele>
        <time>2021-10-23T14:18:06Z</time>
      </trkpt>
      <trkpt lat="47.33083" lon="-1.33441">
        <ele>92</ele>
        <time>2021-10-23T14:18:07Z</time>
      </trkpt>
      <trkpt lat="47.33074" lon="-1.33434">
        <ele>92</ele>
        <time>2021-10-23T14:18:08Z</time>
      </trkpt>
      <trkpt lat="47.33066" lon="-1.33426">
        <ele>92</ele>
        <time>2021-10-23T14:18:09Z</time>
      </trkpt>
      <trkpt lat="47.33058" lon="-1.33417">
        <ele>91</ele>
        <time>2021-10-23T14:18:10Z</time>
      </trkpt>
      <trkpt lat="47.3305" lon="-1.3341">
        <ele>91</ele>
        <time>2021-10-23T14:18:11Z</time>
      </trkpt>
      <trkpt lat="47.33042" lon="-1.33401">
        <ele>91</ele>
        <time>2021-10-23T14:18:12Z</time>
      </trkpt>
      <trkpt lat="47.33034" lon="-1.33393">
        <ele>92</ele>
        <time>2021-10-23T14:18:13Z</time>
      </trkpt>
      <trkpt lat="47.33026" lon="-1.33386">
        <ele>91</ele>
        <time>2021-10-23T14:18:14Z</time>
      </trkpt>
      <trkpt lat="47.33018" lon="-1.33378">
        <ele>91</ele>
        <time>2021-10-23T14:18:15Z</time>
      </trkpt>
      <trkpt lat="47.33009" lon="-1.33369">
        <ele>91</ele>
        <time>2021-10-23T14:18:16Z</time>
      </trkpt>
      <trkpt lat="47.33002" lon="-1.33361">
        <ele>91</ele>
        <time>2021-10-23T14:18:17Z</time>
      </trkpt>
      <trkpt lat="47.32994" lon="-1.33351">
        <ele>91</ele>
        <time>2021-10-23T14:18:18Z</time>
      </trkpt>
      <trkpt lat="47.32986" lon="-1.33342">
        <ele>91</ele>
        <time>2021-10-23T14:18:19Z</time>
      </trkpt>
      <trkpt lat="47.32978" lon="-1.33333">
        <ele>91</ele>
        <time>2021-10-23T14:18:20Z</time>
      </trkpt>
      <trkpt lat="47.3297" lon="-1.33324">
        <ele>91</ele>
        <time>2021-10-23T14:18:21Z</time>
      </trkpt>
      <trkpt lat="47.32962" lon="-1.33315">
        <ele>90</ele>
        <time>2021-10-23T14:18:22Z</time>
      </trkpt>
      <trkpt lat="47.32954" lon="-1.33307">
        <ele>90</ele>
        <time>2021-10-23T14:18:23Z</time>
      </trkpt>
      <trkpt lat="47.32946" lon="-1.33298">
        <ele>90</ele>
        <time>2021-10-23T14:18:24Z</time>
      </trkpt>
      <trkpt lat="47.32938" lon="-1.33289">
        <ele>89</ele>
        <time>2021-10-23T14:18:25Z</time>
      </trkpt>
      <trkpt lat="47.32931" lon="-1.33281">
        <ele>89</ele>
        <time>2021-10-23T14:18:26Z</time>
      </trkpt>
      <trkpt lat="47.32923" lon="-1.33272">
        <ele>88</ele>
        <time>2021-10-23T14:18:27Z</time>
      </trkpt>
      <trkpt lat="47.32916" lon="-1.33264">
        <ele>87</ele>
        <time>2021-10-23T14:18:28Z</time>
      </trkpt>
      <trkpt lat="47.32908" lon="-1.33256">
        <ele>87</ele>
        <time>2021-10-23T14:18:29Z</time>
      </trkpt>
      <trkpt lat="47.32901" lon="-1.33247">
        <ele>86</ele>
        <time>2021-10-23T14:18:30Z</time>
      </trkpt>
      <trkpt lat="47.32893" lon="-1.33238">
        <ele>85</ele>
        <time>2021-10-23T14:18:31Z</time>
      </trkpt>
      <trkpt lat="47.32885" lon="-1.33229">
        <ele>85</ele>
        <time>2021-10-23T14:18:32Z</time>
      </trkpt>
      <trkpt lat="47.32878" lon="-1.33221">
        <ele>84</ele>
        <time>2021-10-23T14:18:33Z</time>
      </trkpt>
      <trkpt lat="47.3287" lon="-1.33213">
        <ele>83</ele>
        <time>2021-10-23T14:18:34Z</time>
      </trkpt>
      <trkpt lat="47.32862" lon="-1.33206">
        <ele>82</ele>
        <time>2021-10-23T14:18:35Z</time>
      </trkpt>
      <trkpt lat="47.32853" lon="-1.33199">
        <ele>82</ele>
        <time>2021-10-23T14:18:36Z</time>
      </trkpt>
      <trkpt lat="47.32845" lon="-1.33191">
        <ele>81</ele>
        <time>2021-10-23T14:18:37Z</time>
      </trkpt>
      <trkpt lat="47.32836" lon="-1.33184">
        <ele>80</ele>
        <time>2021-10-23T14:18:38Z</time>
      </trkpt>
      <trkpt lat="47.32828" lon="-1.33177">
        <ele>79</ele>
        <time>2021-10-23T14:18:39Z</time>
      </trkpt>
      <trkpt lat="47.3282" lon="-1.3317">
        <ele>79</ele>
        <time>2021-10-23T14:18:40Z</time>
      </trkpt>
      <trkpt lat="47.32811" lon="-1.33163">
        <ele>78</ele>
        <time>2021-10-23T14:18:41Z</time>
      </trkpt>
      <trkpt lat="47.32802" lon="-1.33156">
        <ele>77</ele>
        <time>2021-10-23T14:18:42Z</time>
      </trkpt>
      <trkpt lat="47.32794" lon="-1.33149">
        <ele>76</ele>
        <time>2021-10-23T14:18:43Z</time>
      </trkpt>
      <trkpt lat="47.32785" lon="-1.33141">
        <ele>74</ele>
        <time>2021-10-23T14:18:44Z</time>
      </trkpt>
      <trkpt lat="47.32777" lon="-1.33133">
        <ele>73</ele>
        <time>2021-10-23T14:18:45Z</time>
      </trkpt>
      <trkpt lat="47.32768" lon="-1.33125">
        <ele>73</ele>
        <time>2021-10-23T14:18:46Z</time>
      </trkpt>
      <trkpt lat="47.32759" lon="-1.33117">
        <ele>72</ele>
        <time>2021-10-23T14:18:47Z</time>
      </trkpt>
      <trkpt lat="47.3275" lon="-1.33109">
        <ele>71</ele>
        <time>2021-10-23T14:18:48Z</time>
      </trkpt>
      <trkpt lat="47.32741" lon="-1.33101">
        <ele>71</ele>
        <time>2021-10-23T14:18:49Z</time>
      </trkpt>
      <trkpt lat="47.32733" lon="-1.33093">
        <ele>70</ele>
        <time>2021-10-23T14:18:50Z</time>
      </trkpt>
      <trkpt lat="47.32725" lon="-1.33084">
        <ele>69</ele>
        <time>2021-10-23T14:18:51Z</time>
      </trkpt>
      <trkpt lat="47.32717" lon="-1.33076">
        <ele>69</ele>
        <time>2021-10-23T14:18:52Z</time>
      </trkpt>
      <trkpt lat="47.32709" lon="-1.33068">
        <ele>69</ele>
        <time>2021-10-23T14:18:53Z</time>
      </trkpt>
      <trkpt lat="47.32701" lon="-1.3306">
        <ele>68</ele>
        <time>2021-10-23T14:18:54Z</time>
      </trkpt>
      <trkpt lat="47.32693" lon="-1.33052">
        <ele>68</ele>
        <time>2021-10-23T14:18:55Z</time>
      </trkpt>
      <trkpt lat="47.32684" lon="-1.33044">
        <ele>67</ele>
        <time>2021-10-23T14:18:56Z</time>
      </trkpt>
      <trkpt lat="47.32675" lon="-1.33038">
        <ele>67</ele>
        <time>2021-10-23T14:18:57Z</time>
      </trkpt>
      <trkpt lat="47.32667" lon="-1.3303">
        <ele>66</ele>
        <time>2021-10-23T14:18:58Z</time>
      </trkpt>
      <trkpt lat="47.32659" lon="-1.33023">
        <ele>66</ele>
        <time>2021-10-23T14:18:59Z</time>
      </trkpt>
      <trkpt lat="47.32652" lon="-1.33015">
        <ele>65</ele>
        <time>2021-10-23T14:19:00Z</time>
      </trkpt>
      <trkpt lat="47.3264" lon="-1.33">
        <ele>63</ele>
        <time>2021-10-23T14:19:02Z</time>
      </trkpt>
      <trkpt lat="47.3263" lon="-1.32985">
        <ele>61</ele>
        <time>2021-10-23T14:19:04Z</time>
      </trkpt>
      <trkpt lat="47.32623" lon="-1.32972">
        <ele>60</ele>
        <time>2021-10-23T14:19:06Z</time>
      </trkpt>
      <trkpt lat="47.32617" lon="-1.32962">
        <ele>59</ele>
        <time>2021-10-23T14:19:08Z</time>
      </trkpt>
      <trkpt lat="47.32609" lon="-1.32955">
        <ele>58</ele>
        <time>2021-10-23T14:20:25Z</time>
      </trkpt>
      <trkpt lat="47.326" lon="-1.32965">
        <ele>57</ele>
        <time>2021-10-23T14:20:29Z</time>
      </trkpt>
      <trkpt lat="47.32593" lon="-1.32977">
        <ele>57</ele>
        <time>2021-10-23T14:20:33Z</time>
      </trkpt>
      <trkpt lat="47.32585" lon="-1.32988">
        <ele>57</ele>
        <time>2021-10-23T14:20:37Z</time>
      </trkpt>
      <trkpt lat="47.32575" lon="-1.32999">
        <ele>58</ele>
        <time>2021-10-23T14:20:41Z</time>
      </trkpt>
      <trkpt lat="47.32565" lon="-1.3301">
        <ele>58</ele>
        <time>2021-10-23T14:20:45Z</time>
      </trkpt>
      <trkpt lat="47.32556" lon="-1.33019">
        <ele>58</ele>
        <time>2021-10-23T14:20:47Z</time>
      </trkpt>
      <trkpt lat="47.32548" lon="-1.33028">
        <ele>58</ele>
        <time>2021-10-23T14:20:49Z</time>
      </trkpt>
      <trkpt lat="47.32538" lon="-1.33035">
        <ele>57</ele>
        <time>2021-10-23T14:20:51Z</time>
      </trkpt>
      <trkpt lat="47.32528" lon="-1.33045">
        <ele>56</ele>
        <time>2021-10-23T14:20:53Z</time>
      </trkpt>
      <trkpt lat="47.32517" lon="-1.33055">
        <ele>57</ele>
        <time>2021-10-23T14:20:55Z</time>
      </trkpt>
      <trkpt lat="47.32508" lon="-1.33064">
        <ele>57</ele>
        <time>2021-10-23T14:20:57Z</time>
      </trkpt>
      <trkpt lat="47.32498" lon="-1.33075">
        <ele>57</ele>
        <time>2021-10-23T14:20:59Z</time>
      </trkpt>
      <trkpt lat="47.32488" lon="-1.33086">
        <ele>57</ele>
        <time>2021-10-23T14:21:01Z</time>
      </trkpt>
      <trkpt lat="47.32478" lon="-1.33097">
        <ele>57</ele>
        <time>2021-10-23T14:21:03Z</time>
      </trkpt>
      <trkpt lat="47.32468" lon="-1.33108">
        <ele>57</ele>
        <time>2021-10-23T14:21:05Z</time>
      </trkpt>
      <trkpt lat="47.32458" lon="-1.33119">
        <ele>56</ele>
        <time>2021-10-23T14:21:07Z</time>
      </trkpt>
      <trkpt lat="47.3245" lon="-1.3313">
        <ele>56</ele>
        <time>2021-10-23T14:21:09Z</time>
      </trkpt>
      <trkpt lat="47.32442" lon="-1.33137">
        <ele>56</ele>
        <time>2021-10-23T14:21:11Z</time>
      </trkpt>
      <trkpt lat="47.32433" lon="-1.33139">
        <ele>56</ele>
        <time>2021-10-23T14:21:13Z</time>
      </trkpt>
      <trkpt lat="47.3242" lon="-1.3314">
        <ele>56</ele>
        <time>2021-10-23T14:21:16Z</time>
      </trkpt>
      <trkpt lat="47.3241" lon="-1.33153">
        <ele>56</ele>
        <time>2021-10-23T14:21:19Z</time>
      </trkpt>
      <trkpt lat="47.32402" lon="-1.33167">
        <ele>56</ele>
        <time>2021-10-23T14:21:21Z</time>
      </trkpt>
      <trkpt lat="47.32394" lon="-1.3318">
        <ele>56</ele>
        <time>2021-10-23T14:21:23Z</time>
      </trkpt>
      <trkpt lat="47.32387" lon="-1.33194">
        <ele>56</ele>
        <time>2021-10-23T14:21:25Z</time>
      </trkpt>
      <trkpt lat="47.32379" lon="-1.33206">
        <ele>56</ele>
        <time>2021-10-23T14:21:27Z</time>
      </trkpt>
      <trkpt lat="47.32372" lon="-1.33219">
        <ele>56</ele>
        <time>2021-10-23T14:21:29Z</time>
      </trkpt>
      <trkpt lat="47.32365" lon="-1.33232">
        <ele>56</ele>
        <time>2021-10-23T14:21:31Z</time>
      </trkpt>
      <trkpt lat="47.32359" lon="-1.33245">
        <ele>56</ele>
        <time>2021-10-23T14:21:33Z</time>
      </trkpt>
      <trkpt lat="47.32352" lon="-1.3326">
        <ele>56</ele>
        <time>2021-10-23T14:21:35Z</time>
      </trkpt>
      <trkpt lat="47.32345" lon="-1.33276">
        <ele>56</ele>
        <time>2021-10-23T14:21:37Z</time>
      </trkpt>
      <trkpt lat="47.32337" lon="-1.33292">
        <ele>55</ele>
        <time>2021-10-23T14:21:39Z</time>
      </trkpt>
      <trkpt lat="47.3233" lon="-1.33308">
        <ele>55</ele>
        <time>2021-10-23T14:21:41Z</time>
      </trkpt>
      <trkpt lat="47.32323" lon="-1.33323">
        <ele>55</ele>
        <time>2021-10-23T14:21:43Z</time>
      </trkpt>
      <trkpt lat="47.32315" lon="-1.33338">
        <ele>56</ele>
        <time>2021-10-23T14:21:45Z</time>
      </trkpt>
      <trkpt lat="47.32307" lon="-1.33353">
        <ele>56</ele>
        <time>2021-10-23T14:21:47Z</time>
      </trkpt>
      <trkpt lat="47.323" lon="-1.3337">
        <ele>56</ele>
        <time>2021-10-23T14:21:49Z</time>
      </trkpt>
      <trkpt lat="47.32293" lon="-1.33386">
        <ele>56</ele>
        <time>2021-10-23T14:21:51Z</time>
      </trkpt>
      <trkpt lat="47.32285" lon="-1.33402">
        <ele>56</ele>
        <time>2021-10-23T14:21:53Z</time>
      </trkpt>
      <trkpt lat="47.32278" lon="-1.33418">
        <ele>56</ele>
        <time>2021-10-23T14:21:55Z</time>
      </trkpt>
      <trkpt lat="47.32269" lon="-1.33435">
        <ele>56</ele>
        <time>2021-10-23T14:21:57Z</time>
      </trkpt>
      <trkpt lat="47.32262" lon="-1.33451">
        <ele>56</ele>
        <time>2021-10-23T14:21:59Z</time>
      </trkpt>
      <trkpt lat="47.32254" lon="-1.33467">
        <ele>56</ele>
        <time>2021-10-23T14:22:01Z</time>
      </trkpt>
      <trkpt lat="47.32247" lon="-1.33483">
        <ele>55</ele>
        <time>2021-10-23T14:22:03Z</time>
      </trkpt>
      <trkpt lat="47.32241" lon="-1.33499">
        <ele>55</ele>
        <time>2021-10-23T14:22:05Z</time>
      </trkpt>
      <trkpt lat="47.32233" lon="-1.33514">
        <ele>55</ele>
        <time>2021-10-23T14:22:07Z</time>
      </trkpt>
      <trkpt lat="47.32226" lon="-1.3353">
        <ele>55</ele>
        <time>2021-10-23T14:22:09Z</time>
      </trkpt>
      <trkpt lat="47.3222" lon="-1.33545">
        <ele>54</ele>
        <time>2021-10-23T14:22:11Z</time>
      </trkpt>
      <trkpt lat="47.32213" lon="-1.33558">
        <ele>54</ele>
        <time>2021-10-23T14:22:13Z</time>
      </trkpt>
      <trkpt lat="47.32206" lon="-1.33571">
        <ele>55</ele>
        <time>2021-10-23T14:22:15Z</time>
      </trkpt>
      <trkpt lat="47.322" lon="-1.33585">
        <ele>55</ele>
        <time>2021-10-23T14:22:17Z</time>
      </trkpt>
      <trkpt lat="47.32194" lon="-1.33601">
        <ele>55</ele>
        <time>2021-10-23T14:22:19Z</time>
      </trkpt>
      <trkpt lat="47.32188" lon="-1.33616">
        <ele>55</ele>
        <time>2021-10-23T14:22:21Z</time>
      </trkpt>
      <trkpt lat="47.32182" lon="-1.3363">
        <ele>55</ele>
        <time>2021-10-23T14:22:23Z</time>
      </trkpt>
      <trkpt lat="47.32174" lon="-1.33644">
        <ele>55</ele>
        <time>2021-10-23T14:22:26Z</time>
      </trkpt>
      <trkpt lat="47.32169" lon="-1.33657">
        <ele>55</ele>
        <time>2021-10-23T14:22:28Z</time>
      </trkpt>
      <trkpt lat="47.32163" lon="-1.33671">
        <ele>55</ele>
        <time>2021-10-23T14:22:30Z</time>
      </trkpt>
      <trkpt lat="47.32159" lon="-1.33687">
        <ele>56</ele>
        <time>2021-10-23T14:22:32Z</time>
      </trkpt>
      <trkpt lat="47.32154" lon="-1.33702">
        <ele>56</ele>
        <time>2021-10-23T14:22:34Z</time>
      </trkpt>
      <trkpt lat="47.32149" lon="-1.33716">
        <ele>56</ele>
        <time>2021-10-23T14:22:36Z</time>
      </trkpt>
      <trkpt lat="47.32143" lon="-1.3373">
        <ele>56</ele>
        <time>2021-10-23T14:22:38Z</time>
      </trkpt>
      <trkpt lat="47.32137" lon="-1.33746">
        <ele>56</ele>
        <time>2021-10-23T14:22:40Z</time>
      </trkpt>
      <trkpt lat="47.32131" lon="-1.33762">
        <ele>56</ele>
        <time>2021-10-23T14:22:42Z</time>
      </trkpt>
      <trkpt lat="47.32124" lon="-1.33777">
        <ele>56</ele>
        <time>2021-10-23T14:22:44Z</time>
      </trkpt>
      <trkpt lat="47.32118" lon="-1.33792">
        <ele>56</ele>
        <time>2021-10-23T14:22:46Z</time>
      </trkpt>
      <trkpt lat="47.32111" lon="-1.33807">
        <ele>55</ele>
        <time>2021-10-23T14:22:48Z</time>
      </trkpt>
      <trkpt lat="47.32104" lon="-1.33822">
        <ele>55</ele>
        <time>2021-10-23T14:22:50Z</time>
      </trkpt>
      <trkpt lat="47.32098" lon="-1.33837">
        <ele>56</ele>
        <time>2021-10-23T14:22:52Z</time>
      </trkpt>
      <trkpt lat="47.3209" lon="-1.33851">
        <ele>55</ele>
        <time>2021-10-23T14:22:54Z</time>
      </trkpt>
      <trkpt lat="47.32082" lon="-1.33865">
        <ele>55</ele>
        <time>2021-10-23T14:22:56Z</time>
      </trkpt>
      <trkpt lat="47.32075" lon="-1.3388">
        <ele>55</ele>
        <time>2021-10-23T14:22:58Z</time>
      </trkpt>
      <trkpt lat="47.32068" lon="-1.33895">
        <ele>55</ele>
        <time>2021-10-23T14:23:00Z</time>
      </trkpt>
      <trkpt lat="47.3206" lon="-1.33909">
        <ele>55</ele>
        <time>2021-10-23T14:23:02Z</time>
      </trkpt>
      <trkpt lat="47.32052" lon="-1.33922">
        <ele>55</ele>
        <time>2021-10-23T14:23:04Z</time>
      </trkpt>
      <trkpt lat="47.32044" lon="-1.33936">
        <ele>55</ele>
        <time>2021-10-23T14:23:06Z</time>
      </trkpt>
      <trkpt lat="47.32036" lon="-1.3395">
        <ele>56</ele>
        <time>2021-10-23T14:23:08Z</time>
      </trkpt>
      <trkpt lat="47.32031" lon="-1.33961">
        <ele>56</ele>
        <time>2021-10-23T14:23:10Z</time>
      </trkpt>
      <trkpt lat="47.32024" lon="-1.33972">
        <ele>56</ele>
        <time>2021-10-23T14:23:12Z</time>
      </trkpt>
      <trkpt lat="47.32016" lon="-1.33984">
        <ele>56</ele>
        <time>2021-10-23T14:23:14Z</time>
      </trkpt>
      <trkpt lat="47.32008" lon="-1.33996">
        <ele>56</ele>
        <time>2021-10-23T14:23:16Z</time>
      </trkpt>
      <trkpt lat="47.32" lon="-1.34009">
        <ele>56</ele>
        <time>2021-10-23T14:23:18Z</time>
      </trkpt>
      <trkpt lat="47.31993" lon="-1.34021">
        <ele>56</ele>
        <time>2021-10-23T14:23:20Z</time>
      </trkpt>
      <trkpt lat="47.31985" lon="-1.34032">
        <ele>56</ele>
        <time>2021-10-23T14:23:22Z</time>
      </trkpt>
      <trkpt lat="47.31978" lon="-1.34044">
        <ele>56</ele>
        <time>2021-10-23T14:23:24Z</time>
      </trkpt>
      <trkpt lat="47.31969" lon="-1.34056">
        <ele>57</ele>
        <time>2021-10-23T14:23:26Z</time>
      </trkpt>
      <trkpt lat="47.3196" lon="-1.34069">
        <ele>57</ele>
        <time>2021-10-23T14:23:28Z</time>
      </trkpt>
      <trkpt lat="47.31952" lon="-1.34082">
        <ele>57</ele>
        <time>2021-10-23T14:23:30Z</time>
      </trkpt>
      <trkpt lat="47.31944" lon="-1.34096">
        <ele>57</ele>
        <time>2021-10-23T14:23:32Z</time>
      </trkpt>
      <trkpt lat="47.31937" lon="-1.34109">
        <ele>57</ele>
        <time>2021-10-23T14:23:34Z</time>
      </trkpt>
      <trkpt lat="47.3193" lon="-1.34121">
        <ele>58</ele>
        <time>2021-10-23T14:23:36Z</time>
      </trkpt>
      <trkpt lat="47.31922" lon="-1.34134">
        <ele>57</ele>
        <time>2021-10-23T14:23:38Z</time>
      </trkpt>
      <trkpt lat="47.31913" lon="-1.34146">
        <ele>57</ele>
        <time>2021-10-23T14:23:40Z</time>
      </trkpt>
      <trkpt lat="47.31905" lon="-1.34159">
        <ele>57</ele>
        <time>2021-10-23T14:23:42Z</time>
      </trkpt>
      <trkpt lat="47.31896" lon="-1.34172">
        <ele>57</ele>
        <time>2021-10-23T14:23:44Z</time>
      </trkpt>
      <trkpt lat="47.31885" lon="-1.34186">
        <ele>57</ele>
        <time>2021-10-23T14:23:46Z</time>
      </trkpt>
      <trkpt lat="47.31876" lon="-1.342">
        <ele>57</ele>
        <time>2021-10-23T14:23:48Z</time>
      </trkpt>
      <trkpt lat="47.31866" lon="-1.34213">
        <ele>57</ele>
        <time>2021-10-23T14:23:50Z</time>
      </trkpt>
      <trkpt lat="47.31857" lon="-1.34228">
        <ele>57</ele>
        <time>2021-10-23T14:23:52Z</time>
      </trkpt>
      <trkpt lat="47.31848" lon="-1.34241">
        <ele>56</ele>
        <time>2021-10-23T14:23:54Z</time>
      </trkpt>
      <trkpt lat="47.31839" lon="-1.34254">
        <ele>56</ele>
        <time>2021-10-23T14:23:56Z</time>
      </trkpt>
      <trkpt lat="47.31831" lon="-1.34268">
        <ele>56</ele>
        <time>2021-10-23T14:23:58Z</time>
      </trkpt>
      <trkpt lat="47.31823" lon="-1.34282">
        <ele>55</ele>
        <time>2021-10-23T14:24:00Z</time>
      </trkpt>
      <trkpt lat="47.31814" lon="-1.34295">
        <ele>55</ele>
        <time>2021-10-23T14:24:02Z</time>
      </trkpt>
      <trkpt lat="47.31806" lon="-1.34309">
        <ele>55</ele>
        <time>2021-10-23T14:24:04Z</time>
      </trkpt>
      <trkpt lat="47.31797" lon="-1.34322">
        <ele>55</ele>
        <time>2021-10-23T14:24:06Z</time>
      </trkpt>
      <trkpt lat="47.31789" lon="-1.34336">
        <ele>55</ele>
        <time>2021-10-23T14:24:08Z</time>
      </trkpt>
      <trkpt lat="47.31781" lon="-1.34349">
        <ele>56</ele>
        <time>2021-10-23T14:24:10Z</time>
      </trkpt>
      <trkpt lat="47.31771" lon="-1.34362">
        <ele>55</ele>
        <time>2021-10-23T14:24:12Z</time>
      </trkpt>
      <trkpt lat="47.31762" lon="-1.34374">
        <ele>55</ele>
        <time>2021-10-23T14:24:14Z</time>
      </trkpt>
      <trkpt lat="47.31755" lon="-1.34388">
        <ele>56</ele>
        <time>2021-10-23T14:24:16Z</time>
      </trkpt>
      <trkpt lat="47.31747" lon="-1.34401">
        <ele>55</ele>
        <time>2021-10-23T14:24:18Z</time>
      </trkpt>
      <trkpt lat="47.3174" lon="-1.34415">
        <ele>55</ele>
        <time>2021-10-23T14:24:20Z</time>
      </trkpt>
      <trkpt lat="47.31731" lon="-1.34429">
        <ele>55</ele>
        <time>2021-10-23T14:24:22Z</time>
      </trkpt>
      <trkpt lat="47.31722" lon="-1.34442">
        <ele>55</ele>
        <time>2021-10-23T14:24:24Z</time>
      </trkpt>
      <trkpt lat="47.31714" lon="-1.34455">
        <ele>55</ele>
        <time>2021-10-23T14:24:26Z</time>
      </trkpt>
      <trkpt lat="47.31705" lon="-1.34468">
        <ele>55</ele>
        <time>2021-10-23T14:24:28Z</time>
      </trkpt>
      <trkpt lat="47.31696" lon="-1.34481">
        <ele>55</ele>
        <time>2021-10-23T14:24:30Z</time>
      </trkpt>
      <trkpt lat="47.31687" lon="-1.34495">
        <ele>55</ele>
        <time>2021-10-23T14:24:32Z</time>
      </trkpt>
      <trkpt lat="47.31679" lon="-1.34509">
        <ele>54</ele>
        <time>2021-10-23T14:24:34Z</time>
      </trkpt>
      <trkpt lat="47.3167" lon="-1.34521">
        <ele>54</ele>
        <time>2021-10-23T14:24:36Z</time>
      </trkpt>
      <trkpt lat="47.31662" lon="-1.34533">
        <ele>53</ele>
        <time>2021-10-23T14:24:38Z</time>
      </trkpt>
      <trkpt lat="47.31654" lon="-1.34546">
        <ele>54</ele>
        <time>2021-10-23T14:24:40Z</time>
      </trkpt>
      <trkpt lat="47.31647" lon="-1.34559">
        <ele>54</ele>
        <time>2021-10-23T14:24:42Z</time>
      </trkpt>
      <trkpt lat="47.31639" lon="-1.34571">
        <ele>54</ele>
        <time>2021-10-23T14:24:44Z</time>
      </trkpt>
      <trkpt lat="47.31632" lon="-1.34584">
        <ele>54</ele>
        <time>2021-10-23T14:24:46Z</time>
      </trkpt>
      <trkpt lat="47.31624" lon="-1.34597">
        <ele>54</ele>
        <time>2021-10-23T14:24:48Z</time>
      </trkpt>
      <trkpt lat="47.31616" lon="-1.34609">
        <ele>54</ele>
        <time>2021-10-23T14:24:50Z</time>
      </trkpt>
      <trkpt lat="47.31608" lon="-1.34622">
        <ele>54</ele>
        <time>2021-10-23T14:24:52Z</time>
      </trkpt>
      <trkpt lat="47.31599" lon="-1.34635">
        <ele>54</ele>
        <time>2021-10-23T14:24:54Z</time>
      </trkpt>
      <trkpt lat="47.31591" lon="-1.34647">
        <ele>54</ele>
        <time>2021-10-23T14:24:56Z</time>
      </trkpt>
      <trkpt lat="47.31583" lon="-1.3466">
        <ele>55</ele>
        <time>2021-10-23T14:24:58Z</time>
      </trkpt>
      <trkpt lat="47.31575" lon="-1.34673">
        <ele>55</ele>
        <time>2021-10-23T14:25:00Z</time>
      </trkpt>
      <trkpt lat="47.31567" lon="-1.34685">
        <ele>55</ele>
        <time>2021-10-23T14:25:02Z</time>
      </trkpt>
      <trkpt lat="47.31559" lon="-1.34699">
        <ele>55</ele>
        <time>2021-10-23T14:25:04Z</time>
      </trkpt>
      <trkpt lat="47.31551" lon="-1.34712">
        <ele>54</ele>
        <time>2021-10-23T14:25:06Z</time>
      </trkpt>
      <trkpt lat="47.31539" lon="-1.34732">
        <ele>55</ele>
        <time>2021-10-23T14:25:09Z</time>
      </trkpt>
      <trkpt lat="47.31531" lon="-1.34744">
        <ele>55</ele>
        <time>2021-10-23T14:25:11Z</time>
      </trkpt>
      <trkpt lat="47.31519" lon="-1.34763">
        <ele>55</ele>
        <time>2021-10-23T14:25:14Z</time>
      </trkpt>
      <trkpt lat="47.3151" lon="-1.34776">
        <ele>55</ele>
        <time>2021-10-23T14:25:16Z</time>
      </trkpt>
      <trkpt lat="47.31503" lon="-1.34788">
        <ele>55</ele>
        <time>2021-10-23T14:25:18Z</time>
      </trkpt>
      <trkpt lat="47.31491" lon="-1.34807">
        <ele>55</ele>
        <time>2021-10-23T14:25:21Z</time>
      </trkpt>
      <trkpt lat="47.31482" lon="-1.3482">
        <ele>56</ele>
        <time>2021-10-23T14:25:23Z</time>
      </trkpt>
      <trkpt lat="47.31474" lon="-1.34834">
        <ele>56</ele>
        <time>2021-10-23T14:25:25Z</time>
      </trkpt>
      <trkpt lat="47.31466" lon="-1.34847">
        <ele>56</ele>
        <time>2021-10-23T14:25:27Z</time>
      </trkpt>
      <trkpt lat="47.31457" lon="-1.3486">
        <ele>56</ele>
        <time>2021-10-23T14:25:29Z</time>
      </trkpt>
      <trkpt lat="47.31449" lon="-1.34873">
        <ele>56</ele>
        <time>2021-10-23T14:25:31Z</time>
      </trkpt>
      <trkpt lat="47.31441" lon="-1.34887">
        <ele>56</ele>
        <time>2021-10-23T14:25:33Z</time>
      </trkpt>
      <trkpt lat="47.31432" lon="-1.349">
        <ele>56</ele>
        <time>2021-10-23T14:25:35Z</time>
      </trkpt>
      <trkpt lat="47.31424" lon="-1.34914">
        <ele>56</ele>
        <time>2021-10-23T14:25:37Z</time>
      </trkpt>
      <trkpt lat="47.31416" lon="-1.34927">
        <ele>56</ele>
        <time>2021-10-23T14:25:39Z</time>
      </trkpt>
      <trkpt lat="47.31408" lon="-1.3494">
        <ele>56</ele>
        <time>2021-10-23T14:25:41Z</time>
      </trkpt>
      <trkpt lat="47.31399" lon="-1.34952">
        <ele>56</ele>
        <time>2021-10-23T14:25:43Z</time>
      </trkpt>
      <trkpt lat="47.31391" lon="-1.34966">
        <ele>56</ele>
        <time>2021-10-23T14:25:45Z</time>
      </trkpt>
      <trkpt lat="47.31384" lon="-1.3498">
        <ele>56</ele>
        <time>2021-10-23T14:25:47Z</time>
      </trkpt>
      <trkpt lat="47.31377" lon="-1.34994">
        <ele>56</ele>
        <time>2021-10-23T14:25:49Z</time>
      </trkpt>
      <trkpt lat="47.31368" lon="-1.35008">
        <ele>55</ele>
        <time>2021-10-23T14:25:51Z</time>
      </trkpt>
      <trkpt lat="47.3136" lon="-1.35021">
        <ele>55</ele>
        <time>2021-10-23T14:25:53Z</time>
      </trkpt>
      <trkpt lat="47.31351" lon="-1.35034">
        <ele>55</ele>
        <time>2021-10-23T14:25:55Z</time>
      </trkpt>
      <trkpt lat="47.31343" lon="-1.35047">
        <ele>56</ele>
        <time>2021-10-23T14:25:57Z</time>
      </trkpt>
      <trkpt lat="47.31336" lon="-1.35059">
        <ele>56</ele>
        <time>2021-10-23T14:25:59Z</time>
      </trkpt>
      <trkpt lat="47.31329" lon="-1.35072">
        <ele>56</ele>
        <time>2021-10-23T14:26:01Z</time>
      </trkpt>
      <trkpt lat="47.31321" lon="-1.35082">
        <ele>56</ele>
        <time>2021-10-23T14:26:03Z</time>
      </trkpt>
      <trkpt lat="47.31312" lon="-1.3509">
        <ele>57</ele>
        <time>2021-10-23T14:26:05Z</time>
      </trkpt>
      <trkpt lat="47.31301" lon="-1.35099">
        <ele>56</ele>
        <time>2021-10-23T14:26:07Z</time>
      </trkpt>
      <trkpt lat="47.31293" lon="-1.35111">
        <ele>56</ele>
        <time>2021-10-23T14:26:09Z</time>
      </trkpt>
      <trkpt lat="47.31286" lon="-1.35123">
        <ele>56</ele>
        <time>2021-10-23T14:26:11Z</time>
      </trkpt>
      <trkpt lat="47.3128" lon="-1.35138">
        <ele>55</ele>
        <time>2021-10-23T14:26:13Z</time>
      </trkpt>
      <trkpt lat="47.31273" lon="-1.35152">
        <ele>55</ele>
        <time>2021-10-23T14:26:15Z</time>
      </trkpt>
      <trkpt lat="47.31266" lon="-1.35165">
        <ele>55</ele>
        <time>2021-10-23T14:26:17Z</time>
      </trkpt>
      <trkpt lat="47.31259" lon="-1.35178">
        <ele>55</ele>
        <time>2021-10-23T14:26:19Z</time>
      </trkpt>
      <trkpt lat="47.31251" lon="-1.35191">
        <ele>55</ele>
        <time>2021-10-23T14:26:21Z</time>
      </trkpt>
      <trkpt lat="47.31243" lon="-1.35203">
        <ele>55</ele>
        <time>2021-10-23T14:26:23Z</time>
      </trkpt>
      <trkpt lat="47.31235" lon="-1.35216">
        <ele>55</ele>
        <time>2021-10-23T14:26:25Z</time>
      </trkpt>
      <trkpt lat="47.31226" lon="-1.35228">
        <ele>55</ele>
        <time>2021-10-23T14:26:27Z</time>
      </trkpt>
      <trkpt lat="47.31218" lon="-1.35241">
        <ele>55</ele>
        <time>2021-10-23T14:26:29Z</time>
      </trkpt>
      <trkpt lat="47.3121" lon="-1.35253">
        <ele>55</ele>
        <time>2021-10-23T14:26:31Z</time>
      </trkpt>
      <trkpt lat="47.31202" lon="-1.35265">
        <ele>55</ele>
        <time>2021-10-23T14:26:33Z</time>
      </trkpt>
      <trkpt lat="47.31194" lon="-1.35277">
        <ele>55</ele>
        <time>2021-10-23T14:26:35Z</time>
      </trkpt>
      <trkpt lat="47.31186" lon="-1.3529">
        <ele>55</ele>
        <time>2021-10-23T14:26:37Z</time>
      </trkpt>
      <trkpt lat="47.31178" lon="-1.35303">
        <ele>55</ele>
        <time>2021-10-23T14:26:39Z</time>
      </trkpt>
      <trkpt lat="47.3117" lon="-1.35316">
        <ele>56</ele>
        <time>2021-10-23T14:26:41Z</time>
      </trkpt>
      <trkpt lat="47.31161" lon="-1.35328">
        <ele>56</ele>
        <time>2021-10-23T14:26:43Z</time>
      </trkpt>
      <trkpt lat="47.31154" lon="-1.35342">
        <ele>56</ele>
        <time>2021-10-23T14:26:45Z</time>
      </trkpt>
      <trkpt lat="47.31146" lon="-1.35356">
        <ele>57</ele>
        <time>2021-10-23T14:26:47Z</time>
      </trkpt>
      <trkpt lat="47.31138" lon="-1.35369">
        <ele>57</ele>
        <time>2021-10-23T14:26:49Z</time>
      </trkpt>
      <trkpt lat="47.3113" lon="-1.35382">
        <ele>57</ele>
        <time>2021-10-23T14:26:51Z</time>
      </trkpt>
      <trkpt lat="47.31121" lon="-1.35394">
        <ele>57</ele>
        <time>2021-10-23T14:26:53Z</time>
      </trkpt>
      <trkpt lat="47.31113" lon="-1.35407">
        <ele>57</ele>
        <time>2021-10-23T14:26:55Z</time>
      </trkpt>
      <trkpt lat="47.31104" lon="-1.35419">
        <ele>57</ele>
        <time>2021-10-23T14:26:57Z</time>
      </trkpt>
      <trkpt lat="47.31096" lon="-1.35431">
        <ele>58</ele>
        <time>2021-10-23T14:26:59Z</time>
      </trkpt>
      <trkpt lat="47.31087" lon="-1.35443">
        <ele>57</ele>
        <time>2021-10-23T14:27:01Z</time>
      </trkpt>
      <trkpt lat="47.31078" lon="-1.35455">
        <ele>57</ele>
        <time>2021-10-23T14:27:03Z</time>
      </trkpt>
      <trkpt lat="47.31069" lon="-1.35466">
        <ele>57</ele>
        <time>2021-10-23T14:27:05Z</time>
      </trkpt>
      <trkpt lat="47.3106" lon="-1.35477">
        <ele>57</ele>
        <time>2021-10-23T14:27:07Z</time>
      </trkpt>
      <trkpt lat="47.31051" lon="-1.35488">
        <ele>57</ele>
        <time>2021-10-23T14:27:09Z</time>
      </trkpt>
      <trkpt lat="47.31042" lon="-1.35499">
        <ele>58</ele>
        <time>2021-10-23T14:27:11Z</time>
      </trkpt>
      <trkpt lat="47.31033" lon="-1.3551">
        <ele>58</ele>
        <time>2021-10-23T14:27:13Z</time>
      </trkpt>
      <trkpt lat="47.31025" lon="-1.35521">
        <ele>58</ele>
        <time>2021-10-23T14:27:15Z</time>
      </trkpt>
      <trkpt lat="47.31015" lon="-1.35532">
        <ele>58</ele>
        <time>2021-10-23T14:27:17Z</time>
      </trkpt>
      <trkpt lat="47.31005" lon="-1.35543">
        <ele>58</ele>
        <time>2021-10-23T14:27:19Z</time>
      </trkpt>
      <trkpt lat="47.30996" lon="-1.35554">
        <ele>58</ele>
        <time>2021-10-23T14:27:21Z</time>
      </trkpt>
      <trkpt lat="47.30986" lon="-1.35566">
        <ele>58</ele>
        <time>2021-10-23T14:27:23Z</time>
      </trkpt>
      <trkpt lat="47.30976" lon="-1.35577">
        <ele>58</ele>
        <time>2021-10-23T14:27:25Z</time>
      </trkpt>
      <trkpt lat="47.30967" lon="-1.35588">
        <ele>58</ele>
        <time>2021-10-23T14:27:27Z</time>
      </trkpt>
      <trkpt lat="47.30957" lon="-1.35599">
        <ele>58</ele>
        <time>2021-10-23T14:27:29Z</time>
      </trkpt>
      <trkpt lat="47.30947" lon="-1.3561">
        <ele>58</ele>
        <time>2021-10-23T14:27:31Z</time>
      </trkpt>
      <trkpt lat="47.30938" lon="-1.35621">
        <ele>58</ele>
        <time>2021-10-23T14:27:33Z</time>
      </trkpt>
      <trkpt lat="47.30929" lon="-1.35632">
        <ele>58</ele>
        <time>2021-10-23T14:27:35Z</time>
      </trkpt>
      <trkpt lat="47.30919" lon="-1.35642">
        <ele>58</ele>
        <time>2021-10-23T14:27:37Z</time>
      </trkpt>
      <trkpt lat="47.30909" lon="-1.35652">
        <ele>58</ele>
        <time>2021-10-23T14:27:39Z</time>
      </trkpt>
      <trkpt lat="47.309" lon="-1.35663">
        <ele>57</ele>
        <time>2021-10-23T14:27:41Z</time>
      </trkpt>
      <trkpt lat="47.3089" lon="-1.35675">
        <ele>57</ele>
        <time>2021-10-23T14:27:43Z</time>
      </trkpt>
      <trkpt lat="47.3088" lon="-1.35687">
        <ele>57</ele>
        <time>2021-10-23T14:27:45Z</time>
      </trkpt>
      <trkpt lat="47.3087" lon="-1.357">
        <ele>57</ele>
        <time>2021-10-23T14:27:47Z</time>
      </trkpt>
      <trkpt lat="47.3086" lon="-1.35711">
        <ele>57</ele>
        <time>2021-10-23T14:27:49Z</time>
      </trkpt>
      <trkpt lat="47.3085" lon="-1.35723">
        <ele>57</ele>
        <time>2021-10-23T14:27:51Z</time>
      </trkpt>
      <trkpt lat="47.30841" lon="-1.35734">
        <ele>57</ele>
        <time>2021-10-23T14:27:53Z</time>
      </trkpt>
      <trkpt lat="47.30831" lon="-1.35745">
        <ele>57</ele>
        <time>2021-10-23T14:27:55Z</time>
      </trkpt>
      <trkpt lat="47.30821" lon="-1.35756">
        <ele>57</ele>
        <time>2021-10-23T14:27:57Z</time>
      </trkpt>
      <trkpt lat="47.30812" lon="-1.35767">
        <ele>57</ele>
        <time>2021-10-23T14:27:59Z</time>
      </trkpt>
      <trkpt lat="47.30803" lon="-1.35779">
        <ele>58</ele>
        <time>2021-10-23T14:28:01Z</time>
      </trkpt>
      <trkpt lat="47.30793" lon="-1.3579">
        <ele>58</ele>
        <time>2021-10-23T14:28:03Z</time>
      </trkpt>
      <trkpt lat="47.30784" lon="-1.35801">
        <ele>58</ele>
        <time>2021-10-23T14:28:05Z</time>
      </trkpt>
      <trkpt lat="47.30774" lon="-1.35812">
        <ele>58</ele>
        <time>2021-10-23T14:28:07Z</time>
      </trkpt>
      <trkpt lat="47.30764" lon="-1.35824">
        <ele>58</ele>
        <time>2021-10-23T14:28:09Z</time>
      </trkpt>
      <trkpt lat="47.30754" lon="-1.35836">
        <ele>59</ele>
        <time>2021-10-23T14:28:11Z</time>
      </trkpt>
      <trkpt lat="47.30745" lon="-1.35847">
        <ele>59</ele>
        <time>2021-10-23T14:28:13Z</time>
      </trkpt>
      <trkpt lat="47.30735" lon="-1.35858">
        <ele>59</ele>
        <time>2021-10-23T14:28:15Z</time>
      </trkpt>
      <trkpt lat="47.30725" lon="-1.3587">
        <ele>58</ele>
        <time>2021-10-23T14:28:17Z</time>
      </trkpt>
      <trkpt lat="47.30716" lon="-1.3588">
        <ele>58</ele>
        <time>2021-10-23T14:28:19Z</time>
      </trkpt>
      <trkpt lat="47.30707" lon="-1.35891">
        <ele>58</ele>
        <time>2021-10-23T14:28:21Z</time>
      </trkpt>
      <trkpt lat="47.30697" lon="-1.35901">
        <ele>58</ele>
        <time>2021-10-23T14:28:23Z</time>
      </trkpt>
      <trkpt lat="47.30687" lon="-1.35912">
        <ele>58</ele>
        <time>2021-10-23T14:28:25Z</time>
      </trkpt>
      <trkpt lat="47.30677" lon="-1.35924">
        <ele>57</ele>
        <time>2021-10-23T14:28:27Z</time>
      </trkpt>
      <trkpt lat="47.30667" lon="-1.35935">
        <ele>57</ele>
        <time>2021-10-23T14:28:29Z</time>
      </trkpt>
      <trkpt lat="47.30658" lon="-1.35947">
        <ele>57</ele>
        <time>2021-10-23T14:28:31Z</time>
      </trkpt>
      <trkpt lat="47.30648" lon="-1.35958">
        <ele>57</ele>
        <time>2021-10-23T14:28:33Z</time>
      </trkpt>
      <trkpt lat="47.30639" lon="-1.35971">
        <ele>57</ele>
        <time>2021-10-23T14:28:35Z</time>
      </trkpt>
      <trkpt lat="47.30629" lon="-1.35982">
        <ele>57</ele>
        <time>2021-10-23T14:28:37Z</time>
      </trkpt>
      <trkpt lat="47.30619" lon="-1.35993">
        <ele>57</ele>
        <time>2021-10-23T14:28:39Z</time>
      </trkpt>
      <trkpt lat="47.3061" lon="-1.36002">
        <ele>57</ele>
        <time>2021-10-23T14:28:41Z</time>
      </trkpt>
      <trkpt lat="47.30602" lon="-1.36011">
        <ele>56</ele>
        <time>2021-10-23T14:28:43Z</time>
      </trkpt>
      <trkpt lat="47.30592" lon="-1.3602">
        <ele>56</ele>
        <time>2021-10-23T14:28:45Z</time>
      </trkpt>
      <trkpt lat="47.30584" lon="-1.36029">
        <ele>56</ele>
        <time>2021-10-23T14:28:47Z</time>
      </trkpt>
      <trkpt lat="47.30579" lon="-1.36041">
        <ele>56</ele>
        <time>2021-10-23T14:28:49Z</time>
      </trkpt>
      <trkpt lat="47.30572" lon="-1.36051">
        <ele>56</ele>
        <time>2021-10-23T14:28:51Z</time>
      </trkpt>
      <trkpt lat="47.30564" lon="-1.36062">
        <ele>56</ele>
        <time>2021-10-23T14:28:53Z</time>
      </trkpt>
      <trkpt lat="47.30556" lon="-1.36075">
        <ele>55</ele>
        <time>2021-10-23T14:28:55Z</time>
      </trkpt>
      <trkpt lat="47.30547" lon="-1.36088">
        <ele>55</ele>
        <time>2021-10-23T14:28:57Z</time>
      </trkpt>
      <trkpt lat="47.30538" lon="-1.36101">
        <ele>54</ele>
        <time>2021-10-23T14:28:59Z</time>
      </trkpt>
      <trkpt lat="47.3053" lon="-1.36114">
        <ele>54</ele>
        <time>2021-10-23T14:29:01Z</time>
      </trkpt>
      <trkpt lat="47.30522" lon="-1.36127">
        <ele>54</ele>
        <time>2021-10-23T14:29:03Z</time>
      </trkpt>
      <trkpt lat="47.30515" lon="-1.3614">
        <ele>54</ele>
        <time>2021-10-23T14:29:05Z</time>
      </trkpt>
      <trkpt lat="47.30507" lon="-1.36153">
        <ele>55</ele>
        <time>2021-10-23T14:29:07Z</time>
      </trkpt>
      <trkpt lat="47.305" lon="-1.36167">
        <ele>55</ele>
        <time>2021-10-23T14:29:09Z</time>
      </trkpt>
      <trkpt lat="47.30492" lon="-1.3618">
        <ele>55</ele>
        <time>2021-10-23T14:29:11Z</time>
      </trkpt>
      <trkpt lat="47.30485" lon="-1.36194">
        <ele>55</ele>
        <time>2021-10-23T14:29:13Z</time>
      </trkpt>
      <trkpt lat="47.30478" lon="-1.36207">
        <ele>55</ele>
        <time>2021-10-23T14:29:15Z</time>
      </trkpt>
      <trkpt lat="47.30472" lon="-1.36221">
        <ele>55</ele>
        <time>2021-10-23T14:29:17Z</time>
      </trkpt>
      <trkpt lat="47.30465" lon="-1.36235">
        <ele>55</ele>
        <time>2021-10-23T14:29:19Z</time>
      </trkpt>
      <trkpt lat="47.30458" lon="-1.36249">
        <ele>55</ele>
        <time>2021-10-23T14:29:21Z</time>
      </trkpt>
      <trkpt lat="47.30452" lon="-1.36264">
        <ele>55</ele>
        <time>2021-10-23T14:29:23Z</time>
      </trkpt>
      <trkpt lat="47.30444" lon="-1.36278">
        <ele>55</ele>
        <time>2021-10-23T14:29:25Z</time>
      </trkpt>
      <trkpt lat="47.30437" lon="-1.36293">
        <ele>55</ele>
        <time>2021-10-23T14:29:27Z</time>
      </trkpt>
      <trkpt lat="47.3043" lon="-1.36307">
        <ele>55</ele>
        <time>2021-10-23T14:29:29Z</time>
      </trkpt>
      <trkpt lat="47.30423" lon="-1.36321">
        <ele>55</ele>
        <time>2021-10-23T14:29:31Z</time>
      </trkpt>
      <trkpt lat="47.30416" lon="-1.36336">
        <ele>55</ele>
        <time>2021-10-23T14:29:33Z</time>
      </trkpt>
      <trkpt lat="47.3041" lon="-1.3635">
        <ele>55</ele>
        <time>2021-10-23T14:29:35Z</time>
      </trkpt>
      <trkpt lat="47.30403" lon="-1.36364">
        <ele>55</ele>
        <time>2021-10-23T14:29:37Z</time>
      </trkpt>
      <trkpt lat="47.30396" lon="-1.36378">
        <ele>55</ele>
        <time>2021-10-23T14:29:39Z</time>
      </trkpt>
      <trkpt lat="47.30389" lon="-1.36393">
        <ele>55</ele>
        <time>2021-10-23T14:29:41Z</time>
      </trkpt>
      <trkpt lat="47.30382" lon="-1.36407">
        <ele>55</ele>
        <time>2021-10-23T14:29:43Z</time>
      </trkpt>
      <trkpt lat="47.30374" lon="-1.36421">
        <ele>55</ele>
        <time>2021-10-23T14:29:45Z</time>
      </trkpt>
      <trkpt lat="47.30368" lon="-1.36435">
        <ele>55</ele>
        <time>2021-10-23T14:29:47Z</time>
      </trkpt>
      <trkpt lat="47.30361" lon="-1.3645">
        <ele>55</ele>
        <time>2021-10-23T14:29:49Z</time>
      </trkpt>
      <trkpt lat="47.30354" lon="-1.36464">
        <ele>55</ele>
        <time>2021-10-23T14:29:51Z</time>
      </trkpt>
      <trkpt lat="47.30348" lon="-1.36478">
        <ele>56</ele>
        <time>2021-10-23T14:29:53Z</time>
      </trkpt>
      <trkpt lat="47.30341" lon="-1.36492">
        <ele>56</ele>
        <time>2021-10-23T14:29:55Z</time>
      </trkpt>
      <trkpt lat="47.30333" lon="-1.36507">
        <ele>55</ele>
        <time>2021-10-23T14:29:57Z</time>
      </trkpt>
      <trkpt lat="47.30327" lon="-1.36521">
        <ele>55</ele>
        <time>2021-10-23T14:29:59Z</time>
      </trkpt>
      <trkpt lat="47.30319" lon="-1.36536">
        <ele>55</ele>
        <time>2021-10-23T14:30:01Z</time>
      </trkpt>
      <trkpt lat="47.30312" lon="-1.36551">
        <ele>55</ele>
        <time>2021-10-23T14:30:03Z</time>
      </trkpt>
      <trkpt lat="47.30305" lon="-1.36565">
        <ele>55</ele>
        <time>2021-10-23T14:30:05Z</time>
      </trkpt>
      <trkpt lat="47.30298" lon="-1.36578">
        <ele>55</ele>
        <time>2021-10-23T14:30:07Z</time>
      </trkpt>
      <trkpt lat="47.30292" lon="-1.36592">
        <ele>56</ele>
        <time>2021-10-23T14:30:09Z</time>
      </trkpt>
      <trkpt lat="47.30285" lon="-1.36606">
        <ele>55</ele>
        <time>2021-10-23T14:30:11Z</time>
      </trkpt>
      <trkpt lat="47.3028" lon="-1.36619">
        <ele>56</ele>
        <time>2021-10-23T14:30:13Z</time>
      </trkpt>
      <trkpt lat="47.30273" lon="-1.36632">
        <ele>56</ele>
        <time>2021-10-23T14:30:15Z</time>
      </trkpt>
      <trkpt lat="47.30266" lon="-1.36646">
        <ele>56</ele>
        <time>2021-10-23T14:30:17Z</time>
      </trkpt>
      <trkpt lat="47.30259" lon="-1.3666">
        <ele>56</ele>
        <time>2021-10-23T14:30:19Z</time>
      </trkpt>
      <trkpt lat="47.30252" lon="-1.36675">
        <ele>55</ele>
        <time>2021-10-23T14:30:21Z</time>
      </trkpt>
      <trkpt lat="47.30245" lon="-1.36689">
        <ele>55</ele>
        <time>2021-10-23T14:30:23Z</time>
      </trkpt>
      <trkpt lat="47.30238" lon="-1.36703">
        <ele>55</ele>
        <time>2021-10-23T14:30:25Z</time>
      </trkpt>
      <trkpt lat="47.30231" lon="-1.36716">
        <ele>55</ele>
        <time>2021-10-23T14:30:27Z</time>
      </trkpt>
      <trkpt lat="47.30225" lon="-1.3673">
        <ele>56</ele>
        <time>2021-10-23T14:30:29Z</time>
      </trkpt>
      <trkpt lat="47.30218" lon="-1.36744">
        <ele>56</ele>
        <time>2021-10-23T14:30:31Z</time>
      </trkpt>
      <trkpt lat="47.30212" lon="-1.36757">
        <ele>56</ele>
        <time>2021-10-23T14:30:33Z</time>
      </trkpt>
      <trkpt lat="47.30206" lon="-1.36771">
        <ele>56</ele>
        <time>2021-10-23T14:30:35Z</time>
      </trkpt>
      <trkpt lat="47.30199" lon="-1.36785">
        <ele>56</ele>
        <time>2021-10-23T14:30:37Z</time>
      </trkpt>
      <trkpt lat="47.30193" lon="-1.36799">
        <ele>56</ele>
        <time>2021-10-23T14:30:39Z</time>
      </trkpt>
      <trkpt lat="47.30186" lon="-1.36812">
        <ele>56</ele>
        <time>2021-10-23T14:30:41Z</time>
      </trkpt>
      <trkpt lat="47.3018" lon="-1.36826">
        <ele>56</ele>
        <time>2021-10-23T14:30:43Z</time>
      </trkpt>
      <trkpt lat="47.30174" lon="-1.3684">
        <ele>57</ele>
        <time>2021-10-23T14:30:45Z</time>
      </trkpt>
      <trkpt lat="47.30167" lon="-1.36853">
        <ele>56</ele>
        <time>2021-10-23T14:30:47Z</time>
      </trkpt>
      <trkpt lat="47.3016" lon="-1.36866">
        <ele>56</ele>
        <time>2021-10-23T14:30:49Z</time>
      </trkpt>
      <trkpt lat="47.30154" lon="-1.3688">
        <ele>56</ele>
        <time>2021-10-23T14:30:51Z</time>
      </trkpt>
      <trkpt lat="47.30147" lon="-1.36893">
        <ele>55</ele>
        <time>2021-10-23T14:30:53Z</time>
      </trkpt>
      <trkpt lat="47.30141" lon="-1.36906">
        <ele>55</ele>
        <time>2021-10-23T14:30:55Z</time>
      </trkpt>
      <trkpt lat="47.30134" lon="-1.3692">
        <ele>56</ele>
        <time>2021-10-23T14:30:57Z</time>
      </trkpt>
      <trkpt lat="47.30127" lon="-1.36934">
        <ele>55</ele>
        <time>2021-10-23T14:30:59Z</time>
      </trkpt>
      <trkpt lat="47.3012" lon="-1.36948">
        <ele>55</ele>
        <time>2021-10-23T14:31:01Z</time>
      </trkpt>
      <trkpt lat="47.30116" lon="-1.36963">
        <ele>55</ele>
        <time>2021-10-23T14:31:03Z</time>
      </trkpt>
      <trkpt lat="47.3011" lon="-1.36975">
        <ele>56</ele>
        <time>2021-10-23T14:31:05Z</time>
      </trkpt>
      <trkpt lat="47.30104" lon="-1.36988">
        <ele>56</ele>
        <time>2021-10-23T14:31:07Z</time>
      </trkpt>
      <trkpt lat="47.30097" lon="-1.37001">
        <ele>55</ele>
        <time>2021-10-23T14:31:09Z</time>
      </trkpt>
      <trkpt lat="47.3009" lon="-1.37014">
        <ele>56</ele>
        <time>2021-10-23T14:31:11Z</time>
      </trkpt>
      <trkpt lat="47.30084" lon="-1.37027">
        <ele>56</ele>
        <time>2021-10-23T14:31:13Z</time>
      </trkpt>
      <trkpt lat="47.30077" lon="-1.37041">
        <ele>56</ele>
        <time>2021-10-23T14:31:15Z</time>
      </trkpt>
      <trkpt lat="47.30069" lon="-1.37054">
        <ele>56</ele>
        <time>2021-10-23T14:31:17Z</time>
      </trkpt>
      <trkpt lat="47.30061" lon="-1.37068">
        <ele>56</ele>
        <time>2021-10-23T14:31:19Z</time>
      </trkpt>
      <trkpt lat="47.30053" lon="-1.37081">
        <ele>57</ele>
        <time>2021-10-23T14:31:21Z</time>
      </trkpt>
      <trkpt lat="47.30046" lon="-1.37094">
        <ele>56</ele>
        <time>2021-10-23T14:31:23Z</time>
      </trkpt>
      <trkpt lat="47.30038" lon="-1.37107">
        <ele>56</ele>
        <time>2021-10-23T14:31:25Z</time>
      </trkpt>
      <trkpt lat="47.3003" lon="-1.37119">
        <ele>56</ele>
        <time>2021-10-23T14:31:27Z</time>
      </trkpt>
      <trkpt lat="47.30021" lon="-1.37131">
        <ele>56</ele>
        <time>2021-10-23T14:31:29Z</time>
      </trkpt>
      <trkpt lat="47.30013" lon="-1.37144">
        <ele>55</ele>
        <time>2021-10-23T14:31:31Z</time>
      </trkpt>
      <trkpt lat="47.30005" lon="-1.37157">
        <ele>55</ele>
        <time>2021-10-23T14:31:33Z</time>
      </trkpt>
      <trkpt lat="47.29997" lon="-1.3717">
        <ele>55</ele>
        <time>2021-10-23T14:31:35Z</time>
      </trkpt>
      <trkpt lat="47.29988" lon="-1.37183">
        <ele>55</ele>
        <time>2021-10-23T14:31:37Z</time>
      </trkpt>
      <trkpt lat="47.29981" lon="-1.37197">
        <ele>55</ele>
        <time>2021-10-23T14:31:39Z</time>
      </trkpt>
      <trkpt lat="47.29972" lon="-1.37209">
        <ele>55</ele>
        <time>2021-10-23T14:31:41Z</time>
      </trkpt>
      <trkpt lat="47.29964" lon="-1.37222">
        <ele>55</ele>
        <time>2021-10-23T14:31:43Z</time>
      </trkpt>
      <trkpt lat="47.29956" lon="-1.37234">
        <ele>55</ele>
        <time>2021-10-23T14:31:45Z</time>
      </trkpt>
      <trkpt lat="47.29949" lon="-1.37246">
        <ele>55</ele>
        <time>2021-10-23T14:31:47Z</time>
      </trkpt>
      <trkpt lat="47.29941" lon="-1.37258">
        <ele>55</ele>
        <time>2021-10-23T14:31:49Z</time>
      </trkpt>
      <trkpt lat="47.29932" lon="-1.37271">
        <ele>55</ele>
        <time>2021-10-23T14:31:51Z</time>
      </trkpt>
      <trkpt lat="47.29924" lon="-1.37284">
        <ele>55</ele>
        <time>2021-10-23T14:31:53Z</time>
      </trkpt>
      <trkpt lat="47.29915" lon="-1.37296">
        <ele>55</ele>
        <time>2021-10-23T14:31:55Z</time>
      </trkpt>
      <trkpt lat="47.29907" lon="-1.37309">
        <ele>56</ele>
        <time>2021-10-23T14:31:57Z</time>
      </trkpt>
      <trkpt lat="47.29899" lon="-1.37323">
        <ele>56</ele>
        <time>2021-10-23T14:31:59Z</time>
      </trkpt>
      <trkpt lat="47.29891" lon="-1.37335">
        <ele>56</ele>
        <time>2021-10-23T14:32:01Z</time>
      </trkpt>
      <trkpt lat="47.29882" lon="-1.37348">
        <ele>56</ele>
        <time>2021-10-23T14:32:03Z</time>
      </trkpt>
      <trkpt lat="47.29874" lon="-1.37361">
        <ele>56</ele>
        <time>2021-10-23T14:32:05Z</time>
      </trkpt>
      <trkpt lat="47.29866" lon="-1.37373">
        <ele>56</ele>
        <time>2021-10-23T14:32:07Z</time>
      </trkpt>
      <trkpt lat="47.29857" lon="-1.37386">
        <ele>56</ele>
        <time>2021-10-23T14:32:09Z</time>
      </trkpt>
      <trkpt lat="47.29849" lon="-1.37399">
        <ele>56</ele>
        <time>2021-10-23T14:32:11Z</time>
      </trkpt>
      <trkpt lat="47.29841" lon="-1.37411">
        <ele>56</ele>
        <time>2021-10-23T14:32:13Z</time>
      </trkpt>
      <trkpt lat="47.29833" lon="-1.37424">
        <ele>56</ele>
        <time>2021-10-23T14:32:15Z</time>
      </trkpt>
      <trkpt lat="47.29825" lon="-1.37436">
        <ele>56</ele>
        <time>2021-10-23T14:32:17Z</time>
      </trkpt>
      <trkpt lat="47.29817" lon="-1.37449">
        <ele>56</ele>
        <time>2021-10-23T14:32:19Z</time>
      </trkpt>
      <trkpt lat="47.2981" lon="-1.37461">
        <ele>56</ele>
        <time>2021-10-23T14:32:21Z</time>
      </trkpt>
      <trkpt lat="47.29802" lon="-1.37474">
        <ele>56</ele>
        <time>2021-10-23T14:32:23Z</time>
      </trkpt>
      <trkpt lat="47.29795" lon="-1.37487">
        <ele>56</ele>
        <time>2021-10-23T14:32:25Z</time>
      </trkpt>
      <trkpt lat="47.29787" lon="-1.37501">
        <ele>56</ele>
        <time>2021-10-23T14:32:27Z</time>
      </trkpt>
      <trkpt lat="47.29779" lon="-1.37514">
        <ele>56</ele>
        <time>2021-10-23T14:32:29Z</time>
      </trkpt>
      <trkpt lat="47.29771" lon="-1.37528">
        <ele>56</ele>
        <time>2021-10-23T14:32:31Z</time>
      </trkpt>
      <trkpt lat="47.29764" lon="-1.37542">
        <ele>56</ele>
        <time>2021-10-23T14:32:33Z</time>
      </trkpt>
      <trkpt lat="47.29757" lon="-1.37556">
        <ele>56</ele>
        <time>2021-10-23T14:32:35Z</time>
      </trkpt>
      <trkpt lat="47.2975" lon="-1.37569">
        <ele>56</ele>
        <time>2021-10-23T14:32:37Z</time>
      </trkpt>
      <trkpt lat="47.29742" lon="-1.37584">
        <ele>56</ele>
        <time>2021-10-23T14:32:39Z</time>
      </trkpt>
      <trkpt lat="47.29735" lon="-1.37599">
        <ele>56</ele>
        <time>2021-10-23T14:32:41Z</time>
      </trkpt>
      <trkpt lat="47.29728" lon="-1.37613">
        <ele>56</ele>
        <time>2021-10-23T14:32:43Z</time>
      </trkpt>
      <trkpt lat="47.2972" lon="-1.37627">
        <ele>56</ele>
        <time>2021-10-23T14:32:45Z</time>
      </trkpt>
      <trkpt lat="47.29713" lon="-1.37641">
        <ele>55</ele>
        <time>2021-10-23T14:32:47Z</time>
      </trkpt>
      <trkpt lat="47.29705" lon="-1.37655">
        <ele>55</ele>
        <time>2021-10-23T14:32:49Z</time>
      </trkpt>
      <trkpt lat="47.29699" lon="-1.3767">
        <ele>55</ele>
        <time>2021-10-23T14:32:51Z</time>
      </trkpt>
      <trkpt lat="47.29691" lon="-1.37683">
        <ele>56</ele>
        <time>2021-10-23T14:32:53Z</time>
      </trkpt>
      <trkpt lat="47.29684" lon="-1.37698">
        <ele>56</ele>
        <time>2021-10-23T14:32:55Z</time>
      </trkpt>
      <trkpt lat="47.29678" lon="-1.37712">
        <ele>56</ele>
        <time>2021-10-23T14:32:57Z</time>
      </trkpt>
      <trkpt lat="47.2967" lon="-1.37726">
        <ele>56</ele>
        <time>2021-10-23T14:32:59Z</time>
      </trkpt>
      <trkpt lat="47.29663" lon="-1.3774">
        <ele>56</ele>
        <time>2021-10-23T14:33:01Z</time>
      </trkpt>
      <trkpt lat="47.29656" lon="-1.37754">
        <ele>56</ele>
        <time>2021-10-23T14:33:03Z</time>
      </trkpt>
      <trkpt lat="47.29649" lon="-1.37768">
        <ele>56</ele>
        <time>2021-10-23T14:33:05Z</time>
      </trkpt>
      <trkpt lat="47.29642" lon="-1.37781">
        <ele>56</ele>
        <time>2021-10-23T14:33:07Z</time>
      </trkpt>
      <trkpt lat="47.29636" lon="-1.37793">
        <ele>56</ele>
        <time>2021-10-23T14:33:09Z</time>
      </trkpt>
      <trkpt lat="47.2963" lon="-1.37803">
        <ele>57</ele>
        <time>2021-10-23T14:33:11Z</time>
      </trkpt>
      <trkpt lat="47.29623" lon="-1.37817">
        <ele>56</ele>
        <time>2021-10-23T14:33:14Z</time>
      </trkpt>
      <trkpt lat="47.29617" lon="-1.3783">
        <ele>56</ele>
        <time>2021-10-23T14:33:16Z</time>
      </trkpt>
      <trkpt lat="47.29609" lon="-1.37844">
        <ele>55</ele>
        <time>2021-10-23T14:33:18Z</time>
      </trkpt>
      <trkpt lat="47.29601" lon="-1.37859">
        <ele>55</ele>
        <time>2021-10-23T14:33:20Z</time>
      </trkpt>
      <trkpt lat="47.29594" lon="-1.37874">
        <ele>55</ele>
        <time>2021-10-23T14:33:22Z</time>
      </trkpt>
      <trkpt lat="47.29587" lon="-1.37889">
        <ele>55</ele>
        <time>2021-10-23T14:33:24Z</time>
      </trkpt>
      <trkpt lat="47.2958" lon="-1.37904">
        <ele>55</ele>
        <time>2021-10-23T14:33:26Z</time>
      </trkpt>
      <trkpt lat="47.29574" lon="-1.37919">
        <ele>56</ele>
        <time>2021-10-23T14:33:28Z</time>
      </trkpt>
      <trkpt lat="47.29568" lon="-1.37934">
        <ele>55</ele>
        <time>2021-10-23T14:33:30Z</time>
      </trkpt>
      <trkpt lat="47.29561" lon="-1.37949">
        <ele>55</ele>
        <time>2021-10-23T14:33:32Z</time>
      </trkpt>
      <trkpt lat="47.29555" lon="-1.37965">
        <ele>55</ele>
        <time>2021-10-23T14:33:34Z</time>
      </trkpt>
      <trkpt lat="47.2955" lon="-1.37981">
        <ele>55</ele>
        <time>2021-10-23T14:33:36Z</time>
      </trkpt>
      <trkpt lat="47.29545" lon="-1.37997">
        <ele>56</ele>
        <time>2021-10-23T14:33:38Z</time>
      </trkpt>
      <trkpt lat="47.29539" lon="-1.38013">
        <ele>56</ele>
        <time>2021-10-23T14:33:40Z</time>
      </trkpt>
      <trkpt lat="47.29533" lon="-1.3803">
        <ele>57</ele>
        <time>2021-10-23T14:33:42Z</time>
      </trkpt>
      <trkpt lat="47.29526" lon="-1.38046">
        <ele>56</ele>
        <time>2021-10-23T14:33:44Z</time>
      </trkpt>
      <trkpt lat="47.2952" lon="-1.38064">
        <ele>55</ele>
        <time>2021-10-23T14:33:46Z</time>
      </trkpt>
      <trkpt lat="47.29516" lon="-1.38082">
        <ele>55</ele>
        <time>2021-10-23T14:33:48Z</time>
      </trkpt>
      <trkpt lat="47.29511" lon="-1.38099">
        <ele>55</ele>
        <time>2021-10-23T14:33:50Z</time>
      </trkpt>
      <trkpt lat="47.29506" lon="-1.38117">
        <ele>55</ele>
        <time>2021-10-23T14:33:52Z</time>
      </trkpt>
      <trkpt lat="47.29501" lon="-1.38134">
        <ele>56</ele>
        <time>2021-10-23T14:33:54Z</time>
      </trkpt>
      <trkpt lat="47.29496" lon="-1.38152">
        <ele>57</ele>
        <time>2021-10-23T14:33:56Z</time>
      </trkpt>
      <trkpt lat="47.29491" lon="-1.3817">
        <ele>57</ele>
        <time>2021-10-23T14:33:58Z</time>
      </trkpt>
      <trkpt lat="47.29486" lon="-1.38188">
        <ele>57</ele>
        <time>2021-10-23T14:34:00Z</time>
      </trkpt>
      <trkpt lat="47.29481" lon="-1.38206">
        <ele>57</ele>
        <time>2021-10-23T14:34:02Z</time>
      </trkpt>
      <trkpt lat="47.29476" lon="-1.38224">
        <ele>57</ele>
        <time>2021-10-23T14:34:04Z</time>
      </trkpt>
      <trkpt lat="47.29471" lon="-1.38242">
        <ele>57</ele>
        <time>2021-10-23T14:34:06Z</time>
      </trkpt>
      <trkpt lat="47.29466" lon="-1.3826">
        <ele>56</ele>
        <time>2021-10-23T14:34:08Z</time>
      </trkpt>
      <trkpt lat="47.29462" lon="-1.38278">
        <ele>56</ele>
        <time>2021-10-23T14:34:10Z</time>
      </trkpt>
      <trkpt lat="47.29457" lon="-1.38295">
        <ele>57</ele>
        <time>2021-10-23T14:34:12Z</time>
      </trkpt>
      <trkpt lat="47.29452" lon="-1.38311">
        <ele>57</ele>
        <time>2021-10-23T14:34:14Z</time>
      </trkpt>
      <trkpt lat="47.29447" lon="-1.38322">
        <ele>58</ele>
        <time>2021-10-23T14:34:16Z</time>
      </trkpt>
      <trkpt lat="47.2944" lon="-1.38332">
        <ele>58</ele>
        <time>2021-10-23T14:34:20Z</time>
      </trkpt>
      <trkpt lat="47.29438" lon="-1.38346">
        <ele>58</ele>
        <time>2021-10-23T14:34:22Z</time>
      </trkpt>
      <trkpt lat="47.29435" lon="-1.38365">
        <ele>58</ele>
        <time>2021-10-23T14:34:24Z</time>
      </trkpt>
      <trkpt lat="47.2943" lon="-1.38385">
        <ele>57</ele>
        <time>2021-10-23T14:34:26Z</time>
      </trkpt>
      <trkpt lat="47.29425" lon="-1.38405">
        <ele>57</ele>
        <time>2021-10-23T14:34:28Z</time>
      </trkpt>
      <trkpt lat="47.29419" lon="-1.38425">
        <ele>57</ele>
        <time>2021-10-23T14:34:30Z</time>
      </trkpt>
      <trkpt lat="47.29414" lon="-1.38445">
        <ele>56</ele>
        <time>2021-10-23T14:34:32Z</time>
      </trkpt>
      <trkpt lat="47.2941" lon="-1.38465">
        <ele>57</ele>
        <time>2021-10-23T14:34:34Z</time>
      </trkpt>
      <trkpt lat="47.29405" lon="-1.38484">
        <ele>57</ele>
        <time>2021-10-23T14:34:36Z</time>
      </trkpt>
      <trkpt lat="47.29399" lon="-1.38503">
        <ele>56</ele>
        <time>2021-10-23T14:34:38Z</time>
      </trkpt>
      <trkpt lat="47.29394" lon="-1.38523">
        <ele>57</ele>
        <time>2021-10-23T14:34:40Z</time>
      </trkpt>
      <trkpt lat="47.29388" lon="-1.38543">
        <ele>57</ele>
        <time>2021-10-23T14:34:42Z</time>
      </trkpt>
      <trkpt lat="47.29383" lon="-1.38563">
        <ele>57</ele>
        <time>2021-10-23T14:34:44Z</time>
      </trkpt>
      <trkpt lat="47.29377" lon="-1.38583">
        <ele>57</ele>
        <time>2021-10-23T14:34:46Z</time>
      </trkpt>
      <trkpt lat="47.29372" lon="-1.38604">
        <ele>57</ele>
        <time>2021-10-23T14:34:48Z</time>
      </trkpt>
      <trkpt lat="47.29366" lon="-1.38624">
        <ele>57</ele>
        <time>2021-10-23T14:34:50Z</time>
      </trkpt>
      <trkpt lat="47.2936" lon="-1.38644">
        <ele>57</ele>
        <time>2021-10-23T14:34:52Z</time>
      </trkpt>
      <trkpt lat="47.29354" lon="-1.38664">
        <ele>57</ele>
        <time>2021-10-23T14:34:54Z</time>
      </trkpt>
      <trkpt lat="47.29349" lon="-1.38684">
        <ele>57</ele>
        <time>2021-10-23T14:34:56Z</time>
      </trkpt>
      <trkpt lat="47.29343" lon="-1.38704">
        <ele>57</ele>
        <time>2021-10-23T14:34:58Z</time>
      </trkpt>
      <trkpt lat="47.29337" lon="-1.38723">
        <ele>57</ele>
        <time>2021-10-23T14:35:00Z</time>
      </trkpt>
      <trkpt lat="47.29332" lon="-1.38742">
        <ele>57</ele>
        <time>2021-10-23T14:35:02Z</time>
      </trkpt>
      <trkpt lat="47.29327" lon="-1.38762">
        <ele>57</ele>
        <time>2021-10-23T14:35:04Z</time>
      </trkpt>
      <trkpt lat="47.29322" lon="-1.38782">
        <ele>57</ele>
        <time>2021-10-23T14:35:06Z</time>
      </trkpt>
      <trkpt lat="47.29316" lon="-1.38802">
        <ele>57</ele>
        <time>2021-10-23T14:35:08Z</time>
      </trkpt>
      <trkpt lat="47.29311" lon="-1.38821">
        <ele>56</ele>
        <time>2021-10-23T14:35:10Z</time>
      </trkpt>
      <trkpt lat="47.29306" lon="-1.38839">
        <ele>56</ele>
        <time>2021-10-23T14:35:12Z</time>
      </trkpt>
      <trkpt lat="47.293" lon="-1.38858">
        <ele>56</ele>
        <time>2021-10-23T14:35:14Z</time>
      </trkpt>
      <trkpt lat="47.29295" lon="-1.38877">
        <ele>56</ele>
        <time>2021-10-23T14:35:16Z</time>
      </trkpt>
      <trkpt lat="47.2929" lon="-1.38896">
        <ele>56</ele>
        <time>2021-10-23T14:35:18Z</time>
      </trkpt>
      <trkpt lat="47.29285" lon="-1.38915">
        <ele>56</ele>
        <time>2021-10-23T14:35:20Z</time>
      </trkpt>
      <trkpt lat="47.2928" lon="-1.38934">
        <ele>56</ele>
        <time>2021-10-23T14:35:22Z</time>
      </trkpt>
      <trkpt lat="47.29275" lon="-1.38952">
        <ele>56</ele>
        <time>2021-10-23T14:35:24Z</time>
      </trkpt>
      <trkpt lat="47.2927" lon="-1.38971">
        <ele>56</ele>
        <time>2021-10-23T14:35:26Z</time>
      </trkpt>
      <trkpt lat="47.29265" lon="-1.38991">
        <ele>57</ele>
        <time>2021-10-23T14:35:28Z</time>
      </trkpt>
      <trkpt lat="47.2926" lon="-1.39009">
        <ele>57</ele>
        <time>2021-10-23T14:35:30Z</time>
      </trkpt>
      <trkpt lat="47.29255" lon="-1.39028">
        <ele>57</ele>
        <time>2021-10-23T14:35:32Z</time>
      </trkpt>
      <trkpt lat="47.2925" lon="-1.39047">
        <ele>57</ele>
        <time>2021-10-23T14:35:34Z</time>
      </trkpt>
      <trkpt lat="47.29245" lon="-1.39066">
        <ele>57</ele>
        <time>2021-10-23T14:35:36Z</time>
      </trkpt>
      <trkpt lat="47.29239" lon="-1.39085">
        <ele>57</ele>
        <time>2021-10-23T14:35:38Z</time>
      </trkpt>
      <trkpt lat="47.29232" lon="-1.39103">
        <ele>58</ele>
        <time>2021-10-23T14:35:40Z</time>
      </trkpt>
      <trkpt lat="47.29224" lon="-1.39119">
        <ele>58</ele>
        <time>2021-10-23T14:35:42Z</time>
      </trkpt>
      <trkpt lat="47.29215" lon="-1.39134">
        <ele>58</ele>
        <time>2021-10-23T14:35:44Z</time>
      </trkpt>
      <trkpt lat="47.29205" lon="-1.39148">
        <ele>58</ele>
        <time>2021-10-23T14:35:46Z</time>
      </trkpt>
      <trkpt lat="47.29193" lon="-1.39161">
        <ele>58</ele>
        <time>2021-10-23T14:35:48Z</time>
      </trkpt>
      <trkpt lat="47.29182" lon="-1.39173">
        <ele>57</ele>
        <time>2021-10-23T14:35:50Z</time>
      </trkpt>
      <trkpt lat="47.29171" lon="-1.39185">
        <ele>57</ele>
        <time>2021-10-23T14:35:52Z</time>
      </trkpt>
      <trkpt lat="47.2916" lon="-1.39198">
        <ele>57</ele>
        <time>2021-10-23T14:35:54Z</time>
      </trkpt>
      <trkpt lat="47.2915" lon="-1.3921">
        <ele>57</ele>
        <time>2021-10-23T14:35:56Z</time>
      </trkpt>
      <trkpt lat="47.29139" lon="-1.39223">
        <ele>57</ele>
        <time>2021-10-23T14:35:58Z</time>
      </trkpt>
      <trkpt lat="47.29128" lon="-1.39235">
        <ele>56</ele>
        <time>2021-10-23T14:36:00Z</time>
      </trkpt>
      <trkpt lat="47.29118" lon="-1.39249">
        <ele>56</ele>
        <time>2021-10-23T14:36:02Z</time>
      </trkpt>
      <trkpt lat="47.29109" lon="-1.39263">
        <ele>56</ele>
        <time>2021-10-23T14:36:04Z</time>
      </trkpt>
      <trkpt lat="47.29101" lon="-1.39278">
        <ele>56</ele>
        <time>2021-10-23T14:36:06Z</time>
      </trkpt>
      <trkpt lat="47.29095" lon="-1.39292">
        <ele>56</ele>
        <time>2021-10-23T14:36:08Z</time>
      </trkpt>
      <trkpt lat="47.29087" lon="-1.39306">
        <ele>56</ele>
        <time>2021-10-23T14:36:10Z</time>
      </trkpt>
      <trkpt lat="47.29076" lon="-1.39314">
        <ele>56</ele>
        <time>2021-10-23T14:36:12Z</time>
      </trkpt>
      <trkpt lat="47.29064" lon="-1.3932">
        <ele>55</ele>
        <time>2021-10-23T14:36:14Z</time>
      </trkpt>
      <trkpt lat="47.29051" lon="-1.39327">
        <ele>54</ele>
        <time>2021-10-23T14:36:16Z</time>
      </trkpt>
      <trkpt lat="47.29038" lon="-1.39341">
        <ele>53</ele>
        <time>2021-10-23T14:36:18Z</time>
      </trkpt>
      <trkpt lat="47.29026" lon="-1.39356">
        <ele>54</ele>
        <time>2021-10-23T14:36:20Z</time>
      </trkpt>
      <trkpt lat="47.29014" lon="-1.3937">
        <ele>54</ele>
        <time>2021-10-23T14:36:22Z</time>
      </trkpt>
      <trkpt lat="47.29003" lon="-1.39383">
        <ele>54</ele>
        <time>2021-10-23T14:36:24Z</time>
      </trkpt>
      <trkpt lat="47.28992" lon="-1.39397">
        <ele>54</ele>
        <time>2021-10-23T14:36:26Z</time>
      </trkpt>
      <trkpt lat="47.2898" lon="-1.39411">
        <ele>54</ele>
        <time>2021-10-23T14:36:28Z</time>
      </trkpt>
      <trkpt lat="47.2897" lon="-1.39425">
        <ele>53</ele>
        <time>2021-10-23T14:36:30Z</time>
      </trkpt>
      <trkpt lat="47.2896" lon="-1.39438">
        <ele>54</ele>
        <time>2021-10-23T14:36:32Z</time>
      </trkpt>
      <trkpt lat="47.28949" lon="-1.3945">
        <ele>54</ele>
        <time>2021-10-23T14:36:34Z</time>
      </trkpt>
      <trkpt lat="47.28939" lon="-1.39462">
        <ele>54</ele>
        <time>2021-10-23T14:36:36Z</time>
      </trkpt>
      <trkpt lat="47.28929" lon="-1.39474">
        <ele>53</ele>
        <time>2021-10-23T14:36:38Z</time>
      </trkpt>
      <trkpt lat="47.28918" lon="-1.39487">
        <ele>53</ele>
        <time>2021-10-23T14:36:40Z</time>
      </trkpt>
      <trkpt lat="47.28908" lon="-1.39499">
        <ele>53</ele>
        <time>2021-10-23T14:36:42Z</time>
      </trkpt>
      <trkpt lat="47.28897" lon="-1.39511">
        <ele>53</ele>
        <time>2021-10-23T14:36:44Z</time>
      </trkpt>
      <trkpt lat="47.28887" lon="-1.39524">
        <ele>53</ele>
        <time>2021-10-23T14:36:46Z</time>
      </trkpt>
      <trkpt lat="47.28877" lon="-1.39536">
        <ele>53</ele>
        <time>2021-10-23T14:36:48Z</time>
      </trkpt>
      <trkpt lat="47.28867" lon="-1.39548">
        <ele>53</ele>
        <time>2021-10-23T14:36:50Z</time>
      </trkpt>
      <trkpt lat="47.28857" lon="-1.3956">
        <ele>53</ele>
        <time>2021-10-23T14:36:52Z</time>
      </trkpt>
      <trkpt lat="47.28846" lon="-1.39572">
        <ele>53</ele>
        <time>2021-10-23T14:36:54Z</time>
      </trkpt>
      <trkpt lat="47.28836" lon="-1.39585">
        <ele>52</ele>
        <time>2021-10-23T14:36:56Z</time>
      </trkpt>
      <trkpt lat="47.28825" lon="-1.39597">
        <ele>53</ele>
        <time>2021-10-23T14:36:58Z</time>
      </trkpt>
      <trkpt lat="47.28816" lon="-1.39609">
        <ele>52</ele>
        <time>2021-10-23T14:37:00Z</time>
      </trkpt>
      <trkpt lat="47.28806" lon="-1.39622">
        <ele>52</ele>
        <time>2021-10-23T14:37:02Z</time>
      </trkpt>
      <trkpt lat="47.28796" lon="-1.39634">
        <ele>52</ele>
        <time>2021-10-23T14:37:04Z</time>
      </trkpt>
      <trkpt lat="47.28785" lon="-1.39647">
        <ele>52</ele>
        <time>2021-10-23T14:37:06Z</time>
      </trkpt>
      <trkpt lat="47.28775" lon="-1.39659">
        <ele>52</ele>
        <time>2021-10-23T14:37:08Z</time>
      </trkpt>
      <trkpt lat="47.28765" lon="-1.39671">
        <ele>53</ele>
        <time>2021-10-23T14:37:10Z</time>
      </trkpt>
      <trkpt lat="47.28755" lon="-1.39684">
        <ele>53</ele>
        <time>2021-10-23T14:37:12Z</time>
      </trkpt>
      <trkpt lat="47.28744" lon="-1.39696">
        <ele>52</ele>
        <time>2021-10-23T14:37:14Z</time>
      </trkpt>
      <trkpt lat="47.28735" lon="-1.39707">
        <ele>52</ele>
        <time>2021-10-23T14:37:16Z</time>
      </trkpt>
      <trkpt lat="47.28724" lon="-1.39719">
        <ele>53</ele>
        <time>2021-10-23T14:37:18Z</time>
      </trkpt>
      <trkpt lat="47.28715" lon="-1.39731">
        <ele>53</ele>
        <time>2021-10-23T14:37:20Z</time>
      </trkpt>
      <trkpt lat="47.28705" lon="-1.39743">
        <ele>53</ele>
        <time>2021-10-23T14:37:22Z</time>
      </trkpt>
      <trkpt lat="47.28696" lon="-1.39755">
        <ele>53</ele>
        <time>2021-10-23T14:37:24Z</time>
      </trkpt>
      <trkpt lat="47.28686" lon="-1.39766">
        <ele>53</ele>
        <time>2021-10-23T14:37:26Z</time>
      </trkpt>
      <trkpt lat="47.28676" lon="-1.39776">
        <ele>53</ele>
        <time>2021-10-23T14:37:28Z</time>
      </trkpt>
      <trkpt lat="47.28667" lon="-1.39787">
        <ele>53</ele>
        <time>2021-10-23T14:37:30Z</time>
      </trkpt>
      <trkpt lat="47.28659" lon="-1.39802">
        <ele>54</ele>
        <time>2021-10-23T14:37:32Z</time>
      </trkpt>
      <trkpt lat="47.28651" lon="-1.39816">
        <ele>53</ele>
        <time>2021-10-23T14:37:34Z</time>
      </trkpt>
      <trkpt lat="47.28643" lon="-1.3983">
        <ele>54</ele>
        <time>2021-10-23T14:37:36Z</time>
      </trkpt>
      <trkpt lat="47.28634" lon="-1.39844">
        <ele>54</ele>
        <time>2021-10-23T14:37:38Z</time>
      </trkpt>
      <trkpt lat="47.28625" lon="-1.39858">
        <ele>54</ele>
        <time>2021-10-23T14:37:40Z</time>
      </trkpt>
      <trkpt lat="47.28616" lon="-1.39871">
        <ele>54</ele>
        <time>2021-10-23T14:37:42Z</time>
      </trkpt>
      <trkpt lat="47.28608" lon="-1.39885">
        <ele>54</ele>
        <time>2021-10-23T14:37:44Z</time>
      </trkpt>
      <trkpt lat="47.28599" lon="-1.39898">
        <ele>54</ele>
        <time>2021-10-23T14:37:46Z</time>
      </trkpt>
      <trkpt lat="47.2859" lon="-1.39911">
        <ele>54</ele>
        <time>2021-10-23T14:37:48Z</time>
      </trkpt>
      <trkpt lat="47.28581" lon="-1.39924">
        <ele>54</ele>
        <time>2021-10-23T14:37:50Z</time>
      </trkpt>
      <trkpt lat="47.28572" lon="-1.39938">
        <ele>54</ele>
        <time>2021-10-23T14:37:52Z</time>
      </trkpt>
      <trkpt lat="47.28562" lon="-1.39951">
        <ele>54</ele>
        <time>2021-10-23T14:37:54Z</time>
      </trkpt>
      <trkpt lat="47.28553" lon="-1.39965">
        <ele>54</ele>
        <time>2021-10-23T14:37:56Z</time>
      </trkpt>
      <trkpt lat="47.28543" lon="-1.39978">
        <ele>53</ele>
        <time>2021-10-23T14:37:58Z</time>
      </trkpt>
      <trkpt lat="47.28534" lon="-1.39991">
        <ele>53</ele>
        <time>2021-10-23T14:38:00Z</time>
      </trkpt>
      <trkpt lat="47.28525" lon="-1.40004">
        <ele>53</ele>
        <time>2021-10-23T14:38:02Z</time>
      </trkpt>
      <trkpt lat="47.28516" lon="-1.40017">
        <ele>53</ele>
        <time>2021-10-23T14:38:04Z</time>
      </trkpt>
      <trkpt lat="47.28507" lon="-1.40031">
        <ele>53</ele>
        <time>2021-10-23T14:38:06Z</time>
      </trkpt>
      <trkpt lat="47.28499" lon="-1.40046">
        <ele>53</ele>
        <time>2021-10-23T14:38:08Z</time>
      </trkpt>
      <trkpt lat="47.28491" lon="-1.40061">
        <ele>54</ele>
        <time>2021-10-23T14:38:10Z</time>
      </trkpt>
      <trkpt lat="47.28485" lon="-1.40076">
        <ele>54</ele>
        <time>2021-10-23T14:38:12Z</time>
      </trkpt>
      <trkpt lat="47.28478" lon="-1.40093">
        <ele>54</ele>
        <time>2021-10-23T14:38:14Z</time>
      </trkpt>
      <trkpt lat="47.28471" lon="-1.40109">
        <ele>54</ele>
        <time>2021-10-23T14:38:16Z</time>
      </trkpt>
      <trkpt lat="47.28465" lon="-1.40126">
        <ele>54</ele>
        <time>2021-10-23T14:38:18Z</time>
      </trkpt>
      <trkpt lat="47.28459" lon="-1.40143">
        <ele>54</ele>
        <time>2021-10-23T14:38:20Z</time>
      </trkpt>
      <trkpt lat="47.28453" lon="-1.40159">
        <ele>55</ele>
        <time>2021-10-23T14:38:22Z</time>
      </trkpt>
      <trkpt lat="47.28447" lon="-1.40175">
        <ele>55</ele>
        <time>2021-10-23T14:38:24Z</time>
      </trkpt>
      <trkpt lat="47.28441" lon="-1.40191">
        <ele>55</ele>
        <time>2021-10-23T14:38:26Z</time>
      </trkpt>
      <trkpt lat="47.28435" lon="-1.40207">
        <ele>56</ele>
        <time>2021-10-23T14:38:28Z</time>
      </trkpt>
      <trkpt lat="47.28428" lon="-1.40223">
        <ele>56</ele>
        <time>2021-10-23T14:38:30Z</time>
      </trkpt>
      <trkpt lat="47.28422" lon="-1.40239">
        <ele>55</ele>
        <time>2021-10-23T14:38:32Z</time>
      </trkpt>
      <trkpt lat="47.28417" lon="-1.40255">
        <ele>55</ele>
        <time>2021-10-23T14:38:34Z</time>
      </trkpt>
      <trkpt lat="47.28409" lon="-1.40271">
        <ele>54</ele>
        <time>2021-10-23T14:38:36Z</time>
      </trkpt>
      <trkpt lat="47.284" lon="-1.40287">
        <ele>54</ele>
        <time>2021-10-23T14:38:38Z</time>
      </trkpt>
      <trkpt lat="47.28392" lon="-1.40303">
        <ele>53</ele>
        <time>2021-10-23T14:38:40Z</time>
      </trkpt>
      <trkpt lat="47.28383" lon="-1.40317">
        <ele>53</ele>
        <time>2021-10-23T14:38:42Z</time>
      </trkpt>
      <trkpt lat="47.28374" lon="-1.40331">
        <ele>53</ele>
        <time>2021-10-23T14:38:44Z</time>
      </trkpt>
      <trkpt lat="47.28365" lon="-1.40344">
        <ele>52</ele>
        <time>2021-10-23T14:38:46Z</time>
      </trkpt>
      <trkpt lat="47.28355" lon="-1.40357">
        <ele>52</ele>
        <time>2021-10-23T14:38:48Z</time>
      </trkpt>
      <trkpt lat="47.28345" lon="-1.4037">
        <ele>52</ele>
        <time>2021-10-23T14:38:50Z</time>
      </trkpt>
      <trkpt lat="47.28336" lon="-1.40383">
        <ele>52</ele>
        <time>2021-10-23T14:38:52Z</time>
      </trkpt>
      <trkpt lat="47.28326" lon="-1.40396">
        <ele>52</ele>
        <time>2021-10-23T14:38:54Z</time>
      </trkpt>
      <trkpt lat="47.28316" lon="-1.40408">
        <ele>52</ele>
        <time>2021-10-23T14:38:56Z</time>
      </trkpt>
      <trkpt lat="47.28305" lon="-1.40419">
        <ele>52</ele>
        <time>2021-10-23T14:38:58Z</time>
      </trkpt>
      <trkpt lat="47.28294" lon="-1.4043">
        <ele>52</ele>
        <time>2021-10-23T14:39:00Z</time>
      </trkpt>
      <trkpt lat="47.28284" lon="-1.40441">
        <ele>52</ele>
        <time>2021-10-23T14:39:02Z</time>
      </trkpt>
      <trkpt lat="47.28272" lon="-1.40451">
        <ele>52</ele>
        <time>2021-10-23T14:39:04Z</time>
      </trkpt>
      <trkpt lat="47.28261" lon="-1.40461">
        <ele>52</ele>
        <time>2021-10-23T14:39:06Z</time>
      </trkpt>
      <trkpt lat="47.28251" lon="-1.40472">
        <ele>52</ele>
        <time>2021-10-23T14:39:08Z</time>
      </trkpt>
      <trkpt lat="47.2824" lon="-1.40483">
        <ele>52</ele>
        <time>2021-10-23T14:39:10Z</time>
      </trkpt>
      <trkpt lat="47.2823" lon="-1.40495">
        <ele>52</ele>
        <time>2021-10-23T14:39:12Z</time>
      </trkpt>
      <trkpt lat="47.28219" lon="-1.40506">
        <ele>52</ele>
        <time>2021-10-23T14:39:14Z</time>
      </trkpt>
      <trkpt lat="47.28208" lon="-1.40516">
        <ele>52</ele>
        <time>2021-10-23T14:39:16Z</time>
      </trkpt>
      <trkpt lat="47.28196" lon="-1.40527">
        <ele>52</ele>
        <time>2021-10-23T14:39:18Z</time>
      </trkpt>
      <trkpt lat="47.28185" lon="-1.40537">
        <ele>52</ele>
        <time>2021-10-23T14:39:20Z</time>
      </trkpt>
      <trkpt lat="47.28169" lon="-1.40553">
        <ele>52</ele>
        <time>2021-10-23T14:39:23Z</time>
      </trkpt>
      <trkpt lat="47.28158" lon="-1.40563">
        <ele>52</ele>
        <time>2021-10-23T14:39:25Z</time>
      </trkpt>
      <trkpt lat="47.28147" lon="-1.40574">
        <ele>52</ele>
        <time>2021-10-23T14:39:27Z</time>
      </trkpt>
      <trkpt lat="47.28131" lon="-1.40589">
        <ele>52</ele>
        <time>2021-10-23T14:39:30Z</time>
      </trkpt>
      <trkpt lat="47.2812" lon="-1.406">
        <ele>52</ele>
        <time>2021-10-23T14:39:32Z</time>
      </trkpt>
      <trkpt lat="47.2811" lon="-1.4061">
        <ele>52</ele>
        <time>2021-10-23T14:39:34Z</time>
      </trkpt>
      <trkpt lat="47.28099" lon="-1.40621">
        <ele>52</ele>
        <time>2021-10-23T14:39:36Z</time>
      </trkpt>
      <trkpt lat="47.28089" lon="-1.40631">
        <ele>52</ele>
        <time>2021-10-23T14:39:38Z</time>
      </trkpt>
      <trkpt lat="47.28078" lon="-1.40641">
        <ele>52</ele>
        <time>2021-10-23T14:39:40Z</time>
      </trkpt>
      <trkpt lat="47.28067" lon="-1.40651">
        <ele>52</ele>
        <time>2021-10-23T14:39:42Z</time>
      </trkpt>
      <trkpt lat="47.28056" lon="-1.40661">
        <ele>52</ele>
        <time>2021-10-23T14:39:44Z</time>
      </trkpt>
      <trkpt lat="47.28046" lon="-1.40671">
        <ele>52</ele>
        <time>2021-10-23T14:39:46Z</time>
      </trkpt>
      <trkpt lat="47.28036" lon="-1.40681">
        <ele>52</ele>
        <time>2021-10-23T14:39:48Z</time>
      </trkpt>
      <trkpt lat="47.28026" lon="-1.40692">
        <ele>52</ele>
        <time>2021-10-23T14:39:50Z</time>
      </trkpt>
      <trkpt lat="47.28015" lon="-1.40703">
        <ele>52</ele>
        <time>2021-10-23T14:39:52Z</time>
      </trkpt>
      <trkpt lat="47.28006" lon="-1.40714">
        <ele>52</ele>
        <time>2021-10-23T14:39:54Z</time>
      </trkpt>
      <trkpt lat="47.27996" lon="-1.40724">
        <ele>53</ele>
        <time>2021-10-23T14:39:56Z</time>
      </trkpt>
      <trkpt lat="47.27984" lon="-1.40735">
        <ele>52</ele>
        <time>2021-10-23T14:39:58Z</time>
      </trkpt>
      <trkpt lat="47.27973" lon="-1.40745">
        <ele>52</ele>
        <time>2021-10-23T14:40:00Z</time>
      </trkpt>
      <trkpt lat="47.27962" lon="-1.40755">
        <ele>52</ele>
        <time>2021-10-23T14:40:02Z</time>
      </trkpt>
      <trkpt lat="47.27951" lon="-1.40765">
        <ele>52</ele>
        <time>2021-10-23T14:40:04Z</time>
      </trkpt>
      <trkpt lat="47.2794" lon="-1.40775">
        <ele>52</ele>
        <time>2021-10-23T14:40:06Z</time>
      </trkpt>
      <trkpt lat="47.27929" lon="-1.40785">
        <ele>53</ele>
        <time>2021-10-23T14:40:08Z</time>
      </trkpt>
      <trkpt lat="47.27918" lon="-1.40794">
        <ele>53</ele>
        <time>2021-10-23T14:40:10Z</time>
      </trkpt>
      <trkpt lat="47.27908" lon="-1.40805">
        <ele>53</ele>
        <time>2021-10-23T14:40:12Z</time>
      </trkpt>
      <trkpt lat="47.27897" lon="-1.40815">
        <ele>53</ele>
        <time>2021-10-23T14:40:14Z</time>
      </trkpt>
      <trkpt lat="47.27887" lon="-1.40826">
        <ele>53</ele>
        <time>2021-10-23T14:40:16Z</time>
      </trkpt>
      <trkpt lat="47.27878" lon="-1.40839">
        <ele>52</ele>
        <time>2021-10-23T14:40:18Z</time>
      </trkpt>
      <trkpt lat="47.2787" lon="-1.40854">
        <ele>52</ele>
        <time>2021-10-23T14:40:20Z</time>
      </trkpt>
      <trkpt lat="47.27863" lon="-1.4087">
        <ele>52</ele>
        <time>2021-10-23T14:40:22Z</time>
      </trkpt>
      <trkpt lat="47.27857" lon="-1.40887">
        <ele>52</ele>
        <time>2021-10-23T14:40:24Z</time>
      </trkpt>
      <trkpt lat="47.27849" lon="-1.40902">
        <ele>52</ele>
        <time>2021-10-23T14:40:26Z</time>
      </trkpt>
      <trkpt lat="47.27841" lon="-1.40917">
        <ele>52</ele>
        <time>2021-10-23T14:40:28Z</time>
      </trkpt>
      <trkpt lat="47.27834" lon="-1.40933">
        <ele>52</ele>
        <time>2021-10-23T14:40:30Z</time>
      </trkpt>
      <trkpt lat="47.27827" lon="-1.40949">
        <ele>52</ele>
        <time>2021-10-23T14:40:32Z</time>
      </trkpt>
      <trkpt lat="47.27818" lon="-1.40964">
        <ele>51</ele>
        <time>2021-10-23T14:40:34Z</time>
      </trkpt>
      <trkpt lat="47.2781" lon="-1.40979">
        <ele>51</ele>
        <time>2021-10-23T14:40:36Z</time>
      </trkpt>
      <trkpt lat="47.27801" lon="-1.40992">
        <ele>52</ele>
        <time>2021-10-23T14:40:38Z</time>
      </trkpt>
      <trkpt lat="47.27792" lon="-1.41005">
        <ele>52</ele>
        <time>2021-10-23T14:40:40Z</time>
      </trkpt>
      <trkpt lat="47.27784" lon="-1.41017">
        <ele>52</ele>
        <time>2021-10-23T14:40:42Z</time>
      </trkpt>
      <trkpt lat="47.27776" lon="-1.4103">
        <ele>52</ele>
        <time>2021-10-23T14:40:44Z</time>
      </trkpt>
      <trkpt lat="47.2777" lon="-1.41047">
        <ele>52</ele>
        <time>2021-10-23T14:40:46Z</time>
      </trkpt>
      <trkpt lat="47.27765" lon="-1.41066">
        <ele>53</ele>
        <time>2021-10-23T14:40:48Z</time>
      </trkpt>
      <trkpt lat="47.27755" lon="-1.41079">
        <ele>54</ele>
        <time>2021-10-23T14:40:50Z</time>
      </trkpt>
      <trkpt lat="47.27743" lon="-1.4109">
        <ele>53</ele>
        <time>2021-10-23T14:40:52Z</time>
      </trkpt>
      <trkpt lat="47.27732" lon="-1.411">
        <ele>53</ele>
        <time>2021-10-23T14:40:54Z</time>
      </trkpt>
      <trkpt lat="47.2772" lon="-1.4111">
        <ele>52</ele>
        <time>2021-10-23T14:40:56Z</time>
      </trkpt>
      <trkpt lat="47.27709" lon="-1.41121">
        <ele>52</ele>
        <time>2021-10-23T14:40:58Z</time>
      </trkpt>
      <trkpt lat="47.27699" lon="-1.41131">
        <ele>52</ele>
        <time>2021-10-23T14:41:00Z</time>
      </trkpt>
      <trkpt lat="47.27688" lon="-1.41142">
        <ele>52</ele>
        <time>2021-10-23T14:41:02Z</time>
      </trkpt>
      <trkpt lat="47.27679" lon="-1.41153">
        <ele>52</ele>
        <time>2021-10-23T14:41:04Z</time>
      </trkpt>
      <trkpt lat="47.27669" lon="-1.41166">
        <ele>52</ele>
        <time>2021-10-23T14:41:06Z</time>
      </trkpt>
      <trkpt lat="47.27659" lon="-1.41178">
        <ele>52</ele>
        <time>2021-10-23T14:41:08Z</time>
      </trkpt>
      <trkpt lat="47.27649" lon="-1.4119">
        <ele>52</ele>
        <time>2021-10-23T14:41:10Z</time>
      </trkpt>
      <trkpt lat="47.27639" lon="-1.412">
        <ele>52</ele>
        <time>2021-10-23T14:41:12Z</time>
      </trkpt>
      <trkpt lat="47.27628" lon="-1.4121">
        <ele>52</ele>
        <time>2021-10-23T14:41:14Z</time>
      </trkpt>
      <trkpt lat="47.27617" lon="-1.41221">
        <ele>52</ele>
        <time>2021-10-23T14:41:16Z</time>
      </trkpt>
      <trkpt lat="47.27607" lon="-1.41232">
        <ele>52</ele>
        <time>2021-10-23T14:41:18Z</time>
      </trkpt>
      <trkpt lat="47.27596" lon="-1.41243">
        <ele>52</ele>
        <time>2021-10-23T14:41:20Z</time>
      </trkpt>
      <trkpt lat="47.27585" lon="-1.41255">
        <ele>51</ele>
        <time>2021-10-23T14:41:22Z</time>
      </trkpt>
      <trkpt lat="47.27574" lon="-1.41265">
        <ele>51</ele>
        <time>2021-10-23T14:41:24Z</time>
      </trkpt>
      <trkpt lat="47.27565" lon="-1.41278">
        <ele>52</ele>
        <time>2021-10-23T14:41:26Z</time>
      </trkpt>
      <trkpt lat="47.27555" lon="-1.41291">
        <ele>52</ele>
        <time>2021-10-23T14:41:28Z</time>
      </trkpt>
      <trkpt lat="47.27546" lon="-1.41304">
        <ele>52</ele>
        <time>2021-10-23T14:41:30Z</time>
      </trkpt>
      <trkpt lat="47.27536" lon="-1.41318">
        <ele>52</ele>
        <time>2021-10-23T14:41:32Z</time>
      </trkpt>
      <trkpt lat="47.27525" lon="-1.4133">
        <ele>52</ele>
        <time>2021-10-23T14:41:34Z</time>
      </trkpt>
      <trkpt lat="47.27515" lon="-1.41344">
        <ele>52</ele>
        <time>2021-10-23T14:41:36Z</time>
      </trkpt>
      <trkpt lat="47.27506" lon="-1.41358">
        <ele>51</ele>
        <time>2021-10-23T14:41:38Z</time>
      </trkpt>
      <trkpt lat="47.27497" lon="-1.41372">
        <ele>52</ele>
        <time>2021-10-23T14:41:40Z</time>
      </trkpt>
      <trkpt lat="47.27488" lon="-1.41386">
        <ele>52</ele>
        <time>2021-10-23T14:41:42Z</time>
      </trkpt>
      <trkpt lat="47.2748" lon="-1.41401">
        <ele>52</ele>
        <time>2021-10-23T14:41:44Z</time>
      </trkpt>
      <trkpt lat="47.27471" lon="-1.41416">
        <ele>52</ele>
        <time>2021-10-23T14:41:46Z</time>
      </trkpt>
      <trkpt lat="47.27463" lon="-1.4143">
        <ele>52</ele>
        <time>2021-10-23T14:41:48Z</time>
      </trkpt>
      <trkpt lat="47.27454" lon="-1.41445">
        <ele>52</ele>
        <time>2021-10-23T14:41:50Z</time>
      </trkpt>
      <trkpt lat="47.27446" lon="-1.4146">
        <ele>52</ele>
        <time>2021-10-23T14:41:52Z</time>
      </trkpt>
      <trkpt lat="47.27438" lon="-1.41475">
        <ele>52</ele>
        <time>2021-10-23T14:41:54Z</time>
      </trkpt>
      <trkpt lat="47.2743" lon="-1.4149">
        <ele>52</ele>
        <time>2021-10-23T14:41:56Z</time>
      </trkpt>
      <trkpt lat="47.27422" lon="-1.41503">
        <ele>51</ele>
        <time>2021-10-23T14:41:58Z</time>
      </trkpt>
      <trkpt lat="47.27413" lon="-1.41517">
        <ele>51</ele>
        <time>2021-10-23T14:42:00Z</time>
      </trkpt>
      <trkpt lat="47.27404" lon="-1.41531">
        <ele>51</ele>
        <time>2021-10-23T14:42:02Z</time>
      </trkpt>
      <trkpt lat="47.27395" lon="-1.41543">
        <ele>51</ele>
        <time>2021-10-23T14:42:04Z</time>
      </trkpt>
      <trkpt lat="47.27386" lon="-1.41556">
        <ele>51</ele>
        <time>2021-10-23T14:42:06Z</time>
      </trkpt>
      <trkpt lat="47.27377" lon="-1.4157">
        <ele>51</ele>
        <time>2021-10-23T14:42:08Z</time>
      </trkpt>
      <trkpt lat="47.27368" lon="-1.41583">
        <ele>51</ele>
        <time>2021-10-23T14:42:10Z</time>
      </trkpt>
      <trkpt lat="47.2736" lon="-1.41597">
        <ele>51</ele>
        <time>2021-10-23T14:42:12Z</time>
      </trkpt>
      <trkpt lat="47.27351" lon="-1.41611">
        <ele>51</ele>
        <time>2021-10-23T14:42:14Z</time>
      </trkpt>
      <trkpt lat="47.27342" lon="-1.41624">
        <ele>51</ele>
        <time>2021-10-23T14:42:16Z</time>
      </trkpt>
      <trkpt lat="47.27333" lon="-1.41638">
        <ele>51</ele>
        <time>2021-10-23T14:42:18Z</time>
      </trkpt>
      <trkpt lat="47.27325" lon="-1.41651">
        <ele>51</ele>
        <time>2021-10-23T14:42:20Z</time>
      </trkpt>
      <trkpt lat="47.27316" lon="-1.41665">
        <ele>52</ele>
        <time>2021-10-23T14:42:22Z</time>
      </trkpt>
      <trkpt lat="47.27308" lon="-1.4168">
        <ele>52</ele>
        <time>2021-10-23T14:42:24Z</time>
      </trkpt>
      <trkpt lat="47.27301" lon="-1.41694">
        <ele>52</ele>
        <time>2021-10-23T14:42:26Z</time>
      </trkpt>
      <trkpt lat="47.27295" lon="-1.4171">
        <ele>52</ele>
        <time>2021-10-23T14:42:28Z</time>
      </trkpt>
      <trkpt lat="47.27288" lon="-1.41726">
        <ele>52</ele>
        <time>2021-10-23T14:42:30Z</time>
      </trkpt>
      <trkpt lat="47.27279" lon="-1.41742">
        <ele>52</ele>
        <time>2021-10-23T14:42:32Z</time>
      </trkpt>
      <trkpt lat="47.27271" lon="-1.41757">
        <ele>52</ele>
        <time>2021-10-23T14:42:34Z</time>
      </trkpt>
      <trkpt lat="47.27263" lon="-1.41772">
        <ele>52</ele>
        <time>2021-10-23T14:42:36Z</time>
      </trkpt>
      <trkpt lat="47.27255" lon="-1.41787">
        <ele>52</ele>
        <time>2021-10-23T14:42:38Z</time>
      </trkpt>
      <trkpt lat="47.27247" lon="-1.41802">
        <ele>51</ele>
        <time>2021-10-23T14:42:40Z</time>
      </trkpt>
      <trkpt lat="47.27238" lon="-1.41816">
        <ele>52</ele>
        <time>2021-10-23T14:42:42Z</time>
      </trkpt>
      <trkpt lat="47.2723" lon="-1.41831">
        <ele>51</ele>
        <time>2021-10-23T14:42:44Z</time>
      </trkpt>
      <trkpt lat="47.27223" lon="-1.41846">
        <ele>52</ele>
        <time>2021-10-23T14:42:46Z</time>
      </trkpt>
      <trkpt lat="47.27214" lon="-1.41861">
        <ele>52</ele>
        <time>2021-10-23T14:42:48Z</time>
      </trkpt>
      <trkpt lat="47.27206" lon="-1.41875">
        <ele>52</ele>
        <time>2021-10-23T14:42:50Z</time>
      </trkpt>
      <trkpt lat="47.27198" lon="-1.41889">
        <ele>52</ele>
        <time>2021-10-23T14:42:52Z</time>
      </trkpt>
      <trkpt lat="47.27189" lon="-1.41904">
        <ele>52</ele>
        <time>2021-10-23T14:42:54Z</time>
      </trkpt>
      <trkpt lat="47.27181" lon="-1.41919">
        <ele>52</ele>
        <time>2021-10-23T14:42:56Z</time>
      </trkpt>
      <trkpt lat="47.27172" lon="-1.41933">
        <ele>52</ele>
        <time>2021-10-23T14:42:58Z</time>
      </trkpt>
      <trkpt lat="47.27163" lon="-1.41948">
        <ele>52</ele>
        <time>2021-10-23T14:43:00Z</time>
      </trkpt>
      <trkpt lat="47.27155" lon="-1.41964">
        <ele>51</ele>
        <time>2021-10-23T14:43:02Z</time>
      </trkpt>
      <trkpt lat="47.27146" lon="-1.4198">
        <ele>51</ele>
        <time>2021-10-23T14:43:04Z</time>
      </trkpt>
      <trkpt lat="47.27139" lon="-1.41995">
        <ele>51</ele>
        <time>2021-10-23T14:43:06Z</time>
      </trkpt>
      <trkpt lat="47.2713" lon="-1.4201">
        <ele>52</ele>
        <time>2021-10-23T14:43:08Z</time>
      </trkpt>
      <trkpt lat="47.27122" lon="-1.42024">
        <ele>52</ele>
        <time>2021-10-23T14:43:10Z</time>
      </trkpt>
      <trkpt lat="47.27113" lon="-1.42038">
        <ele>52</ele>
        <time>2021-10-23T14:43:12Z</time>
      </trkpt>
      <trkpt lat="47.27104" lon="-1.42051">
        <ele>52</ele>
        <time>2021-10-23T14:43:14Z</time>
      </trkpt>
      <trkpt lat="47.27095" lon="-1.42064">
        <ele>52</ele>
        <time>2021-10-23T14:43:16Z</time>
      </trkpt>
      <trkpt lat="47.27086" lon="-1.42078">
        <ele>52</ele>
        <time>2021-10-23T14:43:18Z</time>
      </trkpt>
      <trkpt lat="47.27077" lon="-1.42092">
        <ele>51</ele>
        <time>2021-10-23T14:43:20Z</time>
      </trkpt>
      <trkpt lat="47.27069" lon="-1.42105">
        <ele>52</ele>
        <time>2021-10-23T14:43:22Z</time>
      </trkpt>
      <trkpt lat="47.27061" lon="-1.4212">
        <ele>52</ele>
        <time>2021-10-23T14:43:24Z</time>
      </trkpt>
      <trkpt lat="47.27053" lon="-1.42134">
        <ele>52</ele>
        <time>2021-10-23T14:43:26Z</time>
      </trkpt>
      <trkpt lat="47.27045" lon="-1.42149">
        <ele>52</ele>
        <time>2021-10-23T14:43:28Z</time>
      </trkpt>
      <trkpt lat="47.27037" lon="-1.42165">
        <ele>52</ele>
        <time>2021-10-23T14:43:30Z</time>
      </trkpt>
      <trkpt lat="47.2703" lon="-1.4218">
        <ele>52</ele>
        <time>2021-10-23T14:43:32Z</time>
      </trkpt>
      <trkpt lat="47.27022" lon="-1.42194">
        <ele>53</ele>
        <time>2021-10-23T14:43:34Z</time>
      </trkpt>
      <trkpt lat="47.27014" lon="-1.42209">
        <ele>53</ele>
        <time>2021-10-23T14:43:36Z</time>
      </trkpt>
      <trkpt lat="47.27006" lon="-1.42223">
        <ele>54</ele>
        <time>2021-10-23T14:43:38Z</time>
      </trkpt>
      <trkpt lat="47.26997" lon="-1.42237">
        <ele>53</ele>
        <time>2021-10-23T14:43:40Z</time>
      </trkpt>
      <trkpt lat="47.26988" lon="-1.42253">
        <ele>53</ele>
        <time>2021-10-23T14:43:42Z</time>
      </trkpt>
      <trkpt lat="47.2698" lon="-1.42268">
        <ele>52</ele>
        <time>2021-10-23T14:43:44Z</time>
      </trkpt>
      <trkpt lat="47.26972" lon="-1.42282">
        <ele>53</ele>
        <time>2021-10-23T14:43:46Z</time>
      </trkpt>
      <trkpt lat="47.26964" lon="-1.42297">
        <ele>53</ele>
        <time>2021-10-23T14:43:48Z</time>
      </trkpt>
      <trkpt lat="47.26956" lon="-1.42313">
        <ele>53</ele>
        <time>2021-10-23T14:43:50Z</time>
      </trkpt>
      <trkpt lat="47.26949" lon="-1.42328">
        <ele>53</ele>
        <time>2021-10-23T14:43:52Z</time>
      </trkpt>
      <trkpt lat="47.26941" lon="-1.42344">
        <ele>53</ele>
        <time>2021-10-23T14:43:54Z</time>
      </trkpt>
      <trkpt lat="47.26934" lon="-1.4236">
        <ele>53</ele>
        <time>2021-10-23T14:43:56Z</time>
      </trkpt>
      <trkpt lat="47.26927" lon="-1.42375">
        <ele>53</ele>
        <time>2021-10-23T14:43:58Z</time>
      </trkpt>
      <trkpt lat="47.26919" lon="-1.4239">
        <ele>53</ele>
        <time>2021-10-23T14:44:00Z</time>
      </trkpt>
      <trkpt lat="47.26911" lon="-1.42405">
        <ele>53</ele>
        <time>2021-10-23T14:44:02Z</time>
      </trkpt>
      <trkpt lat="47.26903" lon="-1.42419">
        <ele>52</ele>
        <time>2021-10-23T14:44:04Z</time>
      </trkpt>
      <trkpt lat="47.26894" lon="-1.42433">
        <ele>52</ele>
        <time>2021-10-23T14:44:06Z</time>
      </trkpt>
      <trkpt lat="47.26886" lon="-1.42447">
        <ele>52</ele>
        <time>2021-10-23T14:44:08Z</time>
      </trkpt>
      <trkpt lat="47.26878" lon="-1.42463">
        <ele>52</ele>
        <time>2021-10-23T14:44:10Z</time>
      </trkpt>
      <trkpt lat="47.2687" lon="-1.42477">
        <ele>52</ele>
        <time>2021-10-23T14:44:12Z</time>
      </trkpt>
      <trkpt lat="47.26862" lon="-1.42492">
        <ele>52</ele>
        <time>2021-10-23T14:44:14Z</time>
      </trkpt>
      <trkpt lat="47.26853" lon="-1.42507">
        <ele>52</ele>
        <time>2021-10-23T14:44:16Z</time>
      </trkpt>
      <trkpt lat="47.26845" lon="-1.42523">
        <ele>51</ele>
        <time>2021-10-23T14:44:18Z</time>
      </trkpt>
      <trkpt lat="47.26837" lon="-1.42538">
        <ele>51</ele>
        <time>2021-10-23T14:44:20Z</time>
      </trkpt>
      <trkpt lat="47.26829" lon="-1.42554">
        <ele>52</ele>
        <time>2021-10-23T14:44:22Z</time>
      </trkpt>
      <trkpt lat="47.26822" lon="-1.42569">
        <ele>52</ele>
        <time>2021-10-23T14:44:24Z</time>
      </trkpt>
      <trkpt lat="47.26815" lon="-1.42585">
        <ele>52</ele>
        <time>2021-10-23T14:44:26Z</time>
      </trkpt>
      <trkpt lat="47.26808" lon="-1.42601">
        <ele>52</ele>
        <time>2021-10-23T14:44:28Z</time>
      </trkpt>
      <trkpt lat="47.26802" lon="-1.42617">
        <ele>52</ele>
        <time>2021-10-23T14:44:30Z</time>
      </trkpt>
      <trkpt lat="47.26795" lon="-1.42634">
        <ele>52</ele>
        <time>2021-10-23T14:44:32Z</time>
      </trkpt>
      <trkpt lat="47.26788" lon="-1.42652">
        <ele>52</ele>
        <time>2021-10-23T14:44:34Z</time>
      </trkpt>
      <trkpt lat="47.26782" lon="-1.42669">
        <ele>52</ele>
        <time>2021-10-23T14:44:36Z</time>
      </trkpt>
      <trkpt lat="47.26776" lon="-1.42686">
        <ele>52</ele>
        <time>2021-10-23T14:44:38Z</time>
      </trkpt>
      <trkpt lat="47.2677" lon="-1.42702">
        <ele>52</ele>
        <time>2021-10-23T14:44:40Z</time>
      </trkpt>
      <trkpt lat="47.26763" lon="-1.42718">
        <ele>53</ele>
        <time>2021-10-23T14:44:42Z</time>
      </trkpt>
      <trkpt lat="47.26756" lon="-1.42734">
        <ele>53</ele>
        <time>2021-10-23T14:44:44Z</time>
      </trkpt>
      <trkpt lat="47.26748" lon="-1.42748">
        <ele>52</ele>
        <time>2021-10-23T14:44:46Z</time>
      </trkpt>
      <trkpt lat="47.26739" lon="-1.42764">
        <ele>52</ele>
        <time>2021-10-23T14:44:48Z</time>
      </trkpt>
      <trkpt lat="47.26732" lon="-1.42781">
        <ele>52</ele>
        <time>2021-10-23T14:44:50Z</time>
      </trkpt>
      <trkpt lat="47.26728" lon="-1.42797">
        <ele>53</ele>
        <time>2021-10-23T14:44:52Z</time>
      </trkpt>
      <trkpt lat="47.26724" lon="-1.42813">
        <ele>53</ele>
        <time>2021-10-23T14:44:54Z</time>
      </trkpt>
      <trkpt lat="47.26719" lon="-1.42831">
        <ele>53</ele>
        <time>2021-10-23T14:44:56Z</time>
      </trkpt>
      <trkpt lat="47.26712" lon="-1.42849">
        <ele>53</ele>
        <time>2021-10-23T14:44:58Z</time>
      </trkpt>
      <trkpt lat="47.26705" lon="-1.42865">
        <ele>52</ele>
        <time>2021-10-23T14:45:00Z</time>
      </trkpt>
      <trkpt lat="47.26698" lon="-1.42882">
        <ele>52</ele>
        <time>2021-10-23T14:45:02Z</time>
      </trkpt>
      <trkpt lat="47.26689" lon="-1.42898">
        <ele>52</ele>
        <time>2021-10-23T14:45:04Z</time>
      </trkpt>
      <trkpt lat="47.26681" lon="-1.42915">
        <ele>51</ele>
        <time>2021-10-23T14:45:06Z</time>
      </trkpt>
      <trkpt lat="47.26673" lon="-1.4293">
        <ele>51</ele>
        <time>2021-10-23T14:45:08Z</time>
      </trkpt>
      <trkpt lat="47.26665" lon="-1.42946">
        <ele>51</ele>
        <time>2021-10-23T14:45:10Z</time>
      </trkpt>
      <trkpt lat="47.26658" lon="-1.42963">
        <ele>51</ele>
        <time>2021-10-23T14:45:12Z</time>
      </trkpt>
      <trkpt lat="47.2665" lon="-1.42979">
        <ele>51</ele>
        <time>2021-10-23T14:45:14Z</time>
      </trkpt>
      <trkpt lat="47.26642" lon="-1.42994">
        <ele>50</ele>
        <time>2021-10-23T14:45:16Z</time>
      </trkpt>
      <trkpt lat="47.26634" lon="-1.4301">
        <ele>51</ele>
        <time>2021-10-23T14:45:18Z</time>
      </trkpt>
      <trkpt lat="47.26627" lon="-1.43025">
        <ele>51</ele>
        <time>2021-10-23T14:45:20Z</time>
      </trkpt>
      <trkpt lat="47.26619" lon="-1.43041">
        <ele>51</ele>
        <time>2021-10-23T14:45:22Z</time>
      </trkpt>
      <trkpt lat="47.26611" lon="-1.43057">
        <ele>52</ele>
        <time>2021-10-23T14:45:24Z</time>
      </trkpt>
      <trkpt lat="47.26603" lon="-1.43072">
        <ele>52</ele>
        <time>2021-10-23T14:45:26Z</time>
      </trkpt>
      <trkpt lat="47.26595" lon="-1.43086">
        <ele>52</ele>
        <time>2021-10-23T14:45:28Z</time>
      </trkpt>
      <trkpt lat="47.26587" lon="-1.431">
        <ele>52</ele>
        <time>2021-10-23T14:45:30Z</time>
      </trkpt>
      <trkpt lat="47.26578" lon="-1.43114">
        <ele>52</ele>
        <time>2021-10-23T14:45:32Z</time>
      </trkpt>
      <trkpt lat="47.26569" lon="-1.43128">
        <ele>53</ele>
        <time>2021-10-23T14:45:34Z</time>
      </trkpt>
      <trkpt lat="47.26561" lon="-1.43141">
        <ele>53</ele>
        <time>2021-10-23T14:45:36Z</time>
      </trkpt>
      <trkpt lat="47.26552" lon="-1.43154">
        <ele>53</ele>
        <time>2021-10-23T14:45:38Z</time>
      </trkpt>
      <trkpt lat="47.26543" lon="-1.43167">
        <ele>53</ele>
        <time>2021-10-23T14:45:40Z</time>
      </trkpt>
      <trkpt lat="47.26534" lon="-1.4318">
        <ele>54</ele>
        <time>2021-10-23T14:45:42Z</time>
      </trkpt>
      <trkpt lat="47.26525" lon="-1.43195">
        <ele>54</ele>
        <time>2021-10-23T14:45:44Z</time>
      </trkpt>
      <trkpt lat="47.26516" lon="-1.43208">
        <ele>55</ele>
        <time>2021-10-23T14:45:46Z</time>
      </trkpt>
      <trkpt lat="47.26507" lon="-1.43221">
        <ele>56</ele>
        <time>2021-10-23T14:45:48Z</time>
      </trkpt>
      <trkpt lat="47.26498" lon="-1.43233">
        <ele>56</ele>
        <time>2021-10-23T14:45:50Z</time>
      </trkpt>
      <trkpt lat="47.26488" lon="-1.43246">
        <ele>57</ele>
        <time>2021-10-23T14:45:52Z</time>
      </trkpt>
      <trkpt lat="47.26478" lon="-1.4326">
        <ele>56</ele>
        <time>2021-10-23T14:45:54Z</time>
      </trkpt>
      <trkpt lat="47.26469" lon="-1.43273">
        <ele>57</ele>
        <time>2021-10-23T14:45:56Z</time>
      </trkpt>
      <trkpt lat="47.26461" lon="-1.43287">
        <ele>57</ele>
        <time>2021-10-23T14:45:58Z</time>
      </trkpt>
      <trkpt lat="47.26452" lon="-1.433">
        <ele>57</ele>
        <time>2021-10-23T14:46:00Z</time>
      </trkpt>
      <trkpt lat="47.26444" lon="-1.43314">
        <ele>57</ele>
        <time>2021-10-23T14:46:02Z</time>
      </trkpt>
      <trkpt lat="47.26435" lon="-1.43327">
        <ele>57</ele>
        <time>2021-10-23T14:46:04Z</time>
      </trkpt>
      <trkpt lat="47.26425" lon="-1.4334">
        <ele>56</ele>
        <time>2021-10-23T14:46:06Z</time>
      </trkpt>
      <trkpt lat="47.26415" lon="-1.43354">
        <ele>55</ele>
        <time>2021-10-23T14:46:08Z</time>
      </trkpt>
      <trkpt lat="47.26405" lon="-1.43366">
        <ele>54</ele>
        <time>2021-10-23T14:46:10Z</time>
      </trkpt>
      <trkpt lat="47.26395" lon="-1.43378">
        <ele>54</ele>
        <time>2021-10-23T14:46:12Z</time>
      </trkpt>
      <trkpt lat="47.26385" lon="-1.43389">
        <ele>54</ele>
        <time>2021-10-23T14:46:14Z</time>
      </trkpt>
      <trkpt lat="47.26375" lon="-1.43399">
        <ele>54</ele>
        <time>2021-10-23T14:46:16Z</time>
      </trkpt>
      <trkpt lat="47.26364" lon="-1.4341">
        <ele>54</ele>
        <time>2021-10-23T14:46:18Z</time>
      </trkpt>
      <trkpt lat="47.26353" lon="-1.43422">
        <ele>54</ele>
        <time>2021-10-23T14:46:20Z</time>
      </trkpt>
      <trkpt lat="47.26343" lon="-1.43433">
        <ele>53</ele>
        <time>2021-10-23T14:46:22Z</time>
      </trkpt>
      <trkpt lat="47.26333" lon="-1.43444">
        <ele>53</ele>
        <time>2021-10-23T14:46:24Z</time>
      </trkpt>
      <trkpt lat="47.26323" lon="-1.43455">
        <ele>53</ele>
        <time>2021-10-23T14:46:26Z</time>
      </trkpt>
      <trkpt lat="47.26313" lon="-1.43465">
        <ele>53</ele>
        <time>2021-10-23T14:46:28Z</time>
      </trkpt>
      <trkpt lat="47.26303" lon="-1.43476">
        <ele>53</ele>
        <time>2021-10-23T14:46:30Z</time>
      </trkpt>
      <trkpt lat="47.26293" lon="-1.43487">
        <ele>53</ele>
        <time>2021-10-23T14:46:32Z</time>
      </trkpt>
      <trkpt lat="47.26284" lon="-1.43497">
        <ele>53</ele>
        <time>2021-10-23T14:46:34Z</time>
      </trkpt>
      <trkpt lat="47.26275" lon="-1.43507">
        <ele>54</ele>
        <time>2021-10-23T14:46:36Z</time>
      </trkpt>
      <trkpt lat="47.26266" lon="-1.43516">
        <ele>54</ele>
        <time>2021-10-23T14:46:38Z</time>
      </trkpt>
      <trkpt lat="47.26258" lon="-1.43526">
        <ele>54</ele>
        <time>2021-10-23T14:46:40Z</time>
      </trkpt>
      <trkpt lat="47.26251" lon="-1.43536">
        <ele>55</ele>
        <time>2021-10-23T14:46:42Z</time>
      </trkpt>
      <trkpt lat="47.26242" lon="-1.43546">
        <ele>55</ele>
        <time>2021-10-23T14:46:45Z</time>
      </trkpt>
      <trkpt lat="47.26236" lon="-1.4356">
        <ele>55</ele>
        <time>2021-10-23T14:46:50Z</time>
      </trkpt>
      <trkpt lat="47.26226" lon="-1.43571">
        <ele>54</ele>
        <time>2021-10-23T14:46:53Z</time>
      </trkpt>
      <trkpt lat="47.26218" lon="-1.43583">
        <ele>54</ele>
        <time>2021-10-23T14:46:55Z</time>
      </trkpt>
      <trkpt lat="47.26209" lon="-1.43595">
        <ele>53</ele>
        <time>2021-10-23T14:46:57Z</time>
      </trkpt>
      <trkpt lat="47.262" lon="-1.43607">
        <ele>53</ele>
        <time>2021-10-23T14:46:59Z</time>
      </trkpt>
      <trkpt lat="47.26193" lon="-1.43618">
        <ele>52</ele>
        <time>2021-10-23T14:47:02Z</time>
      </trkpt>
      <trkpt lat="47.26186" lon="-1.43627">
        <ele>53</ele>
        <time>2021-10-23T14:47:04Z</time>
      </trkpt>
      <trkpt lat="47.26176" lon="-1.4364">
        <ele>53</ele>
        <time>2021-10-23T14:47:06Z</time>
      </trkpt>
      <trkpt lat="47.26166" lon="-1.43653">
        <ele>53</ele>
        <time>2021-10-23T14:47:08Z</time>
      </trkpt>
      <trkpt lat="47.26157" lon="-1.43667">
        <ele>52</ele>
        <time>2021-10-23T14:47:10Z</time>
      </trkpt>
      <trkpt lat="47.26149" lon="-1.4368">
        <ele>52</ele>
        <time>2021-10-23T14:47:12Z</time>
      </trkpt>
      <trkpt lat="47.26141" lon="-1.43694">
        <ele>52</ele>
        <time>2021-10-23T14:47:14Z</time>
      </trkpt>
      <trkpt lat="47.26132" lon="-1.43708">
        <ele>52</ele>
        <time>2021-10-23T14:47:16Z</time>
      </trkpt>
      <trkpt lat="47.26124" lon="-1.43721">
        <ele>52</ele>
        <time>2021-10-23T14:47:18Z</time>
      </trkpt>
      <trkpt lat="47.26116" lon="-1.43735">
        <ele>52</ele>
        <time>2021-10-23T14:47:20Z</time>
      </trkpt>
      <trkpt lat="47.26107" lon="-1.43749">
        <ele>53</ele>
        <time>2021-10-23T14:47:22Z</time>
      </trkpt>
      <trkpt lat="47.26096" lon="-1.4376">
        <ele>53</ele>
        <time>2021-10-23T14:47:24Z</time>
      </trkpt>
      <trkpt lat="47.26086" lon="-1.43772">
        <ele>53</ele>
        <time>2021-10-23T14:47:26Z</time>
      </trkpt>
      <trkpt lat="47.26075" lon="-1.43784">
        <ele>53</ele>
        <time>2021-10-23T14:47:28Z</time>
      </trkpt>
      <trkpt lat="47.26065" lon="-1.43796">
        <ele>53</ele>
        <time>2021-10-23T14:47:30Z</time>
      </trkpt>
      <trkpt lat="47.26056" lon="-1.4381">
        <ele>54</ele>
        <time>2021-10-23T14:47:32Z</time>
      </trkpt>
      <trkpt lat="47.26048" lon="-1.43825">
        <ele>54</ele>
        <time>2021-10-23T14:47:34Z</time>
      </trkpt>
      <trkpt lat="47.26042" lon="-1.43842">
        <ele>54</ele>
        <time>2021-10-23T14:47:36Z</time>
      </trkpt>
      <trkpt lat="47.26036" lon="-1.43859">
        <ele>55</ele>
        <time>2021-10-23T14:47:38Z</time>
      </trkpt>
      <trkpt lat="47.26027" lon="-1.4387">
        <ele>55</ele>
        <time>2021-10-23T14:47:40Z</time>
      </trkpt>
      <trkpt lat="47.26016" lon="-1.4388">
        <ele>56</ele>
        <time>2021-10-23T14:47:42Z</time>
      </trkpt>
      <trkpt lat="47.26005" lon="-1.43891">
        <ele>57</ele>
        <time>2021-10-23T14:47:44Z</time>
      </trkpt>
      <trkpt lat="47.25996" lon="-1.43902">
        <ele>58</ele>
        <time>2021-10-23T14:47:46Z</time>
      </trkpt>
      <trkpt lat="47.25986" lon="-1.43912">
        <ele>58</ele>
        <time>2021-10-23T14:47:48Z</time>
      </trkpt>
      <trkpt lat="47.25976" lon="-1.43923">
        <ele>59</ele>
        <time>2021-10-23T14:47:50Z</time>
      </trkpt>
      <trkpt lat="47.25965" lon="-1.43935">
        <ele>59</ele>
        <time>2021-10-23T14:47:52Z</time>
      </trkpt>
      <trkpt lat="47.25954" lon="-1.43949">
        <ele>60</ele>
        <time>2021-10-23T14:47:54Z</time>
      </trkpt>
      <trkpt lat="47.25944" lon="-1.43963">
        <ele>60</ele>
        <time>2021-10-23T14:47:56Z</time>
      </trkpt>
      <trkpt lat="47.25932" lon="-1.43975">
        <ele>60</ele>
        <time>2021-10-23T14:47:58Z</time>
      </trkpt>
      <trkpt lat="47.2592" lon="-1.43987">
        <ele>61</ele>
        <time>2021-10-23T14:48:00Z</time>
      </trkpt>
      <trkpt lat="47.25909" lon="-1.43999">
        <ele>60</ele>
        <time>2021-10-23T14:48:02Z</time>
      </trkpt>
      <trkpt lat="47.25897" lon="-1.44011">
        <ele>60</ele>
        <time>2021-10-23T14:48:04Z</time>
      </trkpt>
      <trkpt lat="47.25886" lon="-1.44023">
        <ele>58</ele>
        <time>2021-10-23T14:48:06Z</time>
      </trkpt>
      <trkpt lat="47.25876" lon="-1.44039">
        <ele>57</ele>
        <time>2021-10-23T14:48:08Z</time>
      </trkpt>
      <trkpt lat="47.2587" lon="-1.44059">
        <ele>56</ele>
        <time>2021-10-23T14:48:10Z</time>
      </trkpt>
      <trkpt lat="47.25863" lon="-1.44077">
        <ele>56</ele>
        <time>2021-10-23T14:48:12Z</time>
      </trkpt>
      <trkpt lat="47.25855" lon="-1.44092">
        <ele>56</ele>
        <time>2021-10-23T14:48:14Z</time>
      </trkpt>
      <trkpt lat="47.25845" lon="-1.44104">
        <ele>55</ele>
        <time>2021-10-23T14:48:16Z</time>
      </trkpt>
      <trkpt lat="47.25835" lon="-1.44116">
        <ele>55</ele>
        <time>2021-10-23T14:48:18Z</time>
      </trkpt>
      <trkpt lat="47.25825" lon="-1.44127">
        <ele>55</ele>
        <time>2021-10-23T14:48:20Z</time>
      </trkpt>
      <trkpt lat="47.25814" lon="-1.44139">
        <ele>55</ele>
        <time>2021-10-23T14:48:22Z</time>
      </trkpt>
      <trkpt lat="47.25803" lon="-1.44151">
        <ele>55</ele>
        <time>2021-10-23T14:48:24Z</time>
      </trkpt>
      <trkpt lat="47.25792" lon="-1.44162">
        <ele>55</ele>
        <time>2021-10-23T14:48:26Z</time>
      </trkpt>
      <trkpt lat="47.25782" lon="-1.44173">
        <ele>54</ele>
        <time>2021-10-23T14:48:28Z</time>
      </trkpt>
      <trkpt lat="47.25771" lon="-1.44185">
        <ele>54</ele>
        <time>2021-10-23T14:48:30Z</time>
      </trkpt>
      <trkpt lat="47.25761" lon="-1.44197">
        <ele>54</ele>
        <time>2021-10-23T14:48:32Z</time>
      </trkpt>
      <trkpt lat="47.25752" lon="-1.4421">
        <ele>53</ele>
        <time>2021-10-23T14:48:34Z</time>
      </trkpt>
      <trkpt lat="47.25742" lon="-1.44222">
        <ele>53</ele>
        <time>2021-10-23T14:48:36Z</time>
      </trkpt>
      <trkpt lat="47.25733" lon="-1.44234">
        <ele>53</ele>
        <time>2021-10-23T14:48:38Z</time>
      </trkpt>
      <trkpt lat="47.25724" lon="-1.44247">
        <ele>53</ele>
        <time>2021-10-23T14:48:40Z</time>
      </trkpt>
      <trkpt lat="47.25714" lon="-1.44259">
        <ele>53</ele>
        <time>2021-10-23T14:48:42Z</time>
      </trkpt>
      <trkpt lat="47.25704" lon="-1.4427">
        <ele>54</ele>
        <time>2021-10-23T14:48:44Z</time>
      </trkpt>
      <trkpt lat="47.25694" lon="-1.44281">
        <ele>54</ele>
        <time>2021-10-23T14:48:46Z</time>
      </trkpt>
      <trkpt lat="47.25685" lon="-1.44293">
        <ele>54</ele>
        <time>2021-10-23T14:48:48Z</time>
      </trkpt>
      <trkpt lat="47.25675" lon="-1.44306">
        <ele>53</ele>
        <time>2021-10-23T14:48:50Z</time>
      </trkpt>
      <trkpt lat="47.25666" lon="-1.44317">
        <ele>53</ele>
        <time>2021-10-23T14:48:52Z</time>
      </trkpt>
      <trkpt lat="47.25656" lon="-1.44329">
        <ele>53</ele>
        <time>2021-10-23T14:48:54Z</time>
      </trkpt>
      <trkpt lat="47.25647" lon="-1.44339">
        <ele>53</ele>
        <time>2021-10-23T14:48:56Z</time>
      </trkpt>
      <trkpt lat="47.25637" lon="-1.4435">
        <ele>53</ele>
        <time>2021-10-23T14:48:58Z</time>
      </trkpt>
      <trkpt lat="47.25627" lon="-1.4436">
        <ele>53</ele>
        <time>2021-10-23T14:49:00Z</time>
      </trkpt>
      <trkpt lat="47.25617" lon="-1.44372">
        <ele>53</ele>
        <time>2021-10-23T14:49:02Z</time>
      </trkpt>
      <trkpt lat="47.25607" lon="-1.44384">
        <ele>53</ele>
        <time>2021-10-23T14:49:04Z</time>
      </trkpt>
      <trkpt lat="47.25596" lon="-1.44396">
        <ele>53</ele>
        <time>2021-10-23T14:49:06Z</time>
      </trkpt>
      <trkpt lat="47.25586" lon="-1.44408">
        <ele>53</ele>
        <time>2021-10-23T14:49:08Z</time>
      </trkpt>
      <trkpt lat="47.25576" lon="-1.44419">
        <ele>53</ele>
        <time>2021-10-23T14:49:10Z</time>
      </trkpt>
      <trkpt lat="47.25567" lon="-1.44431">
        <ele>53</ele>
        <time>2021-10-23T14:49:12Z</time>
      </trkpt>
      <trkpt lat="47.25557" lon="-1.44443">
        <ele>52</ele>
        <time>2021-10-23T14:49:14Z</time>
      </trkpt>
      <trkpt lat="47.25547" lon="-1.44456">
        <ele>53</ele>
        <time>2021-10-23T14:49:16Z</time>
      </trkpt>
      <trkpt lat="47.25538" lon="-1.4447">
        <ele>53</ele>
        <time>2021-10-23T14:49:18Z</time>
      </trkpt>
      <trkpt lat="47.2553" lon="-1.44484">
        <ele>53</ele>
        <time>2021-10-23T14:49:20Z</time>
      </trkpt>
      <trkpt lat="47.25521" lon="-1.44499">
        <ele>53</ele>
        <time>2021-10-23T14:49:22Z</time>
      </trkpt>
      <trkpt lat="47.25512" lon="-1.44512">
        <ele>53</ele>
        <time>2021-10-23T14:49:24Z</time>
      </trkpt>
      <trkpt lat="47.25502" lon="-1.44526">
        <ele>52</ele>
        <time>2021-10-23T14:49:26Z</time>
      </trkpt>
      <trkpt lat="47.25493" lon="-1.4454">
        <ele>52</ele>
        <time>2021-10-23T14:49:28Z</time>
      </trkpt>
      <trkpt lat="47.25483" lon="-1.44554">
        <ele>51</ele>
        <time>2021-10-23T14:49:30Z</time>
      </trkpt>
      <trkpt lat="47.25473" lon="-1.44567">
        <ele>51</ele>
        <time>2021-10-23T14:49:32Z</time>
      </trkpt>
      <trkpt lat="47.25465" lon="-1.44581">
        <ele>50</ele>
        <time>2021-10-23T14:49:34Z</time>
      </trkpt>
      <trkpt lat="47.25456" lon="-1.44595">
        <ele>51</ele>
        <time>2021-10-23T14:49:36Z</time>
      </trkpt>
      <trkpt lat="47.25448" lon="-1.44608">
        <ele>51</ele>
        <time>2021-10-23T14:49:38Z</time>
      </trkpt>
      <trkpt lat="47.25438" lon="-1.44622">
        <ele>51</ele>
        <time>2021-10-23T14:49:40Z</time>
      </trkpt>
      <trkpt lat="47.25428" lon="-1.44635">
        <ele>51</ele>
        <time>2021-10-23T14:49:42Z</time>
      </trkpt>
      <trkpt lat="47.25417" lon="-1.44647">
        <ele>51</ele>
        <time>2021-10-23T14:49:44Z</time>
      </trkpt>
      <trkpt lat="47.25408" lon="-1.44659">
        <ele>52</ele>
        <time>2021-10-23T14:49:46Z</time>
      </trkpt>
      <trkpt lat="47.25398" lon="-1.44673">
        <ele>52</ele>
        <time>2021-10-23T14:49:48Z</time>
      </trkpt>
      <trkpt lat="47.25388" lon="-1.44686">
        <ele>51</ele>
        <time>2021-10-23T14:49:50Z</time>
      </trkpt>
      <trkpt lat="47.25378" lon="-1.44698">
        <ele>51</ele>
        <time>2021-10-23T14:49:52Z</time>
      </trkpt>
      <trkpt lat="47.25368" lon="-1.4471">
        <ele>52</ele>
        <time>2021-10-23T14:49:54Z</time>
      </trkpt>
      <trkpt lat="47.25358" lon="-1.4472">
        <ele>52</ele>
        <time>2021-10-23T14:49:56Z</time>
      </trkpt>
      <trkpt lat="47.25348" lon="-1.44731">
        <ele>52</ele>
        <time>2021-10-23T14:49:58Z</time>
      </trkpt>
      <trkpt lat="47.25337" lon="-1.44743">
        <ele>52</ele>
        <time>2021-10-23T14:50:00Z</time>
      </trkpt>
      <trkpt lat="47.25326" lon="-1.44754">
        <ele>52</ele>
        <time>2021-10-23T14:50:02Z</time>
      </trkpt>
      <trkpt lat="47.25316" lon="-1.44765">
        <ele>52</ele>
        <time>2021-10-23T14:50:04Z</time>
      </trkpt>
      <trkpt lat="47.25306" lon="-1.44777">
        <ele>51</ele>
        <time>2021-10-23T14:50:06Z</time>
      </trkpt>
      <trkpt lat="47.25296" lon="-1.44788">
        <ele>52</ele>
        <time>2021-10-23T14:50:08Z</time>
      </trkpt>
      <trkpt lat="47.25285" lon="-1.44799">
        <ele>52</ele>
        <time>2021-10-23T14:50:10Z</time>
      </trkpt>
      <trkpt lat="47.25275" lon="-1.4481">
        <ele>52</ele>
        <time>2021-10-23T14:50:12Z</time>
      </trkpt>
      <trkpt lat="47.25265" lon="-1.44821">
        <ele>52</ele>
        <time>2021-10-23T14:50:14Z</time>
      </trkpt>
      <trkpt lat="47.25254" lon="-1.44833">
        <ele>52</ele>
        <time>2021-10-23T14:50:16Z</time>
      </trkpt>
      <trkpt lat="47.25244" lon="-1.44844">
        <ele>52</ele>
        <time>2021-10-23T14:50:18Z</time>
      </trkpt>
      <trkpt lat="47.25233" lon="-1.44855">
        <ele>53</ele>
        <time>2021-10-23T14:50:20Z</time>
      </trkpt>
      <trkpt lat="47.25222" lon="-1.44864">
        <ele>53</ele>
        <time>2021-10-23T14:50:22Z</time>
      </trkpt>
      <trkpt lat="47.2521" lon="-1.44874">
        <ele>53</ele>
        <time>2021-10-23T14:50:24Z</time>
      </trkpt>
      <trkpt lat="47.25199" lon="-1.44885">
        <ele>53</ele>
        <time>2021-10-23T14:50:26Z</time>
      </trkpt>
      <trkpt lat="47.25187" lon="-1.44894">
        <ele>53</ele>
        <time>2021-10-23T14:50:28Z</time>
      </trkpt>
      <trkpt lat="47.25176" lon="-1.44903">
        <ele>53</ele>
        <time>2021-10-23T14:50:30Z</time>
      </trkpt>
      <trkpt lat="47.25165" lon="-1.44914">
        <ele>53</ele>
        <time>2021-10-23T14:50:32Z</time>
      </trkpt>
      <trkpt lat="47.25154" lon="-1.44924">
        <ele>53</ele>
        <time>2021-10-23T14:50:34Z</time>
      </trkpt>
      <trkpt lat="47.25143" lon="-1.44934">
        <ele>53</ele>
        <time>2021-10-23T14:50:36Z</time>
      </trkpt>
      <trkpt lat="47.25133" lon="-1.44944">
        <ele>52</ele>
        <time>2021-10-23T14:50:38Z</time>
      </trkpt>
      <trkpt lat="47.25123" lon="-1.44955">
        <ele>53</ele>
        <time>2021-10-23T14:50:40Z</time>
      </trkpt>
      <trkpt lat="47.25113" lon="-1.44965">
        <ele>52</ele>
        <time>2021-10-23T14:50:42Z</time>
      </trkpt>
      <trkpt lat="47.25102" lon="-1.44975">
        <ele>52</ele>
        <time>2021-10-23T14:50:44Z</time>
      </trkpt>
      <trkpt lat="47.25091" lon="-1.44984">
        <ele>52</ele>
        <time>2021-10-23T14:50:46Z</time>
      </trkpt>
      <trkpt lat="47.2508" lon="-1.44992">
        <ele>52</ele>
        <time>2021-10-23T14:50:48Z</time>
      </trkpt>
      <trkpt lat="47.25069" lon="-1.45001">
        <ele>53</ele>
        <time>2021-10-23T14:50:50Z</time>
      </trkpt>
      <trkpt lat="47.25058" lon="-1.4501">
        <ele>53</ele>
        <time>2021-10-23T14:50:52Z</time>
      </trkpt>
      <trkpt lat="47.25046" lon="-1.45018">
        <ele>53</ele>
        <time>2021-10-23T14:50:54Z</time>
      </trkpt>
      <trkpt lat="47.25035" lon="-1.45027">
        <ele>53</ele>
        <time>2021-10-23T14:50:56Z</time>
      </trkpt>
      <trkpt lat="47.25024" lon="-1.45035">
        <ele>53</ele>
        <time>2021-10-23T14:50:58Z</time>
      </trkpt>
      <trkpt lat="47.25013" lon="-1.45045">
        <ele>53</ele>
        <time>2021-10-23T14:51:00Z</time>
      </trkpt>
      <trkpt lat="47.25002" lon="-1.45054">
        <ele>52</ele>
        <time>2021-10-23T14:51:02Z</time>
      </trkpt>
      <trkpt lat="47.24993" lon="-1.45065">
        <ele>53</ele>
        <time>2021-10-23T14:51:04Z</time>
      </trkpt>
      <trkpt lat="47.24983" lon="-1.45077">
        <ele>53</ele>
        <time>2021-10-23T14:51:06Z</time>
      </trkpt>
      <trkpt lat="47.24973" lon="-1.45088">
        <ele>53</ele>
        <time>2021-10-23T14:51:08Z</time>
      </trkpt>
      <trkpt lat="47.24962" lon="-1.45101">
        <ele>53</ele>
        <time>2021-10-23T14:51:10Z</time>
      </trkpt>
      <trkpt lat="47.24951" lon="-1.45113">
        <ele>53</ele>
        <time>2021-10-23T14:51:12Z</time>
      </trkpt>
      <trkpt lat="47.2494" lon="-1.45125">
        <ele>52</ele>
        <time>2021-10-23T14:51:14Z</time>
      </trkpt>
      <trkpt lat="47.24929" lon="-1.45135">
        <ele>52</ele>
        <time>2021-10-23T14:51:16Z</time>
      </trkpt>
      <trkpt lat="47.24919" lon="-1.45146">
        <ele>52</ele>
        <time>2021-10-23T14:51:18Z</time>
      </trkpt>
      <trkpt lat="47.24909" lon="-1.45157">
        <ele>53</ele>
        <time>2021-10-23T14:51:20Z</time>
      </trkpt>
      <trkpt lat="47.24899" lon="-1.45168">
        <ele>53</ele>
        <time>2021-10-23T14:51:22Z</time>
      </trkpt>
      <trkpt lat="47.2489" lon="-1.45181">
        <ele>53</ele>
        <time>2021-10-23T14:51:24Z</time>
      </trkpt>
      <trkpt lat="47.24882" lon="-1.45194">
        <ele>54</ele>
        <time>2021-10-23T14:51:26Z</time>
      </trkpt>
      <trkpt lat="47.24874" lon="-1.45207">
        <ele>53</ele>
        <time>2021-10-23T14:51:28Z</time>
      </trkpt>
      <trkpt lat="47.24866" lon="-1.45219">
        <ele>53</ele>
        <time>2021-10-23T14:51:30Z</time>
      </trkpt>
      <trkpt lat="47.24858" lon="-1.45231">
        <ele>53</ele>
        <time>2021-10-23T14:51:32Z</time>
      </trkpt>
      <trkpt lat="47.2485" lon="-1.45244">
        <ele>54</ele>
        <time>2021-10-23T14:51:34Z</time>
      </trkpt>
      <trkpt lat="47.24842" lon="-1.45258">
        <ele>54</ele>
        <time>2021-10-23T14:51:36Z</time>
      </trkpt>
      <trkpt lat="47.24834" lon="-1.4527">
        <ele>54</ele>
        <time>2021-10-23T14:51:38Z</time>
      </trkpt>
      <trkpt lat="47.24828" lon="-1.45282">
        <ele>55</ele>
        <time>2021-10-23T14:51:40Z</time>
      </trkpt>
      <trkpt lat="47.24821" lon="-1.45295">
        <ele>55</ele>
        <time>2021-10-23T14:51:42Z</time>
      </trkpt>
      <trkpt lat="47.24814" lon="-1.45308">
        <ele>55</ele>
        <time>2021-10-23T14:51:44Z</time>
      </trkpt>
      <trkpt lat="47.24808" lon="-1.45323">
        <ele>54</ele>
        <time>2021-10-23T14:51:46Z</time>
      </trkpt>
      <trkpt lat="47.24801" lon="-1.45336">
        <ele>54</ele>
        <time>2021-10-23T14:51:48Z</time>
      </trkpt>
      <trkpt lat="47.24795" lon="-1.4535">
        <ele>54</ele>
        <time>2021-10-23T14:51:50Z</time>
      </trkpt>
      <trkpt lat="47.24787" lon="-1.45363">
        <ele>55</ele>
        <time>2021-10-23T14:51:52Z</time>
      </trkpt>
      <trkpt lat="47.24781" lon="-1.45378">
        <ele>55</ele>
        <time>2021-10-23T14:51:54Z</time>
      </trkpt>
      <trkpt lat="47.24776" lon="-1.45393">
        <ele>55</ele>
        <time>2021-10-23T14:51:56Z</time>
      </trkpt>
      <trkpt lat="47.2477" lon="-1.45408">
        <ele>56</ele>
        <time>2021-10-23T14:51:58Z</time>
      </trkpt>
      <trkpt lat="47.24764" lon="-1.45424">
        <ele>55</ele>
        <time>2021-10-23T14:52:00Z</time>
      </trkpt>
      <trkpt lat="47.24759" lon="-1.45438">
        <ele>55</ele>
        <time>2021-10-23T14:52:02Z</time>
      </trkpt>
      <trkpt lat="47.24754" lon="-1.45453">
        <ele>55</ele>
        <time>2021-10-23T14:52:04Z</time>
      </trkpt>
      <trkpt lat="47.24748" lon="-1.45467">
        <ele>55</ele>
        <time>2021-10-23T14:52:06Z</time>
      </trkpt>
      <trkpt lat="47.24742" lon="-1.45482">
        <ele>55</ele>
        <time>2021-10-23T14:52:08Z</time>
      </trkpt>
      <trkpt lat="47.24736" lon="-1.45498">
        <ele>54</ele>
        <time>2021-10-23T14:52:10Z</time>
      </trkpt>
      <trkpt lat="47.24729" lon="-1.45514">
        <ele>53</ele>
        <time>2021-10-23T14:52:12Z</time>
      </trkpt>
      <trkpt lat="47.24724" lon="-1.45531">
        <ele>53</ele>
        <time>2021-10-23T14:52:14Z</time>
      </trkpt>
      <trkpt lat="47.24717" lon="-1.45547">
        <ele>53</ele>
        <time>2021-10-23T14:52:16Z</time>
      </trkpt>
      <trkpt lat="47.24712" lon="-1.45563">
        <ele>53</ele>
        <time>2021-10-23T14:52:18Z</time>
      </trkpt>
      <trkpt lat="47.24706" lon="-1.4558">
        <ele>53</ele>
        <time>2021-10-23T14:52:20Z</time>
      </trkpt>
      <trkpt lat="47.247" lon="-1.45595">
        <ele>53</ele>
        <time>2021-10-23T14:52:22Z</time>
      </trkpt>
      <trkpt lat="47.24694" lon="-1.45611">
        <ele>52</ele>
        <time>2021-10-23T14:52:24Z</time>
      </trkpt>
      <trkpt lat="47.24689" lon="-1.45628">
        <ele>52</ele>
        <time>2021-10-23T14:52:26Z</time>
      </trkpt>
      <trkpt lat="47.24684" lon="-1.45644">
        <ele>53</ele>
        <time>2021-10-23T14:52:28Z</time>
      </trkpt>
      <trkpt lat="47.24678" lon="-1.45659">
        <ele>53</ele>
        <time>2021-10-23T14:52:30Z</time>
      </trkpt>
      <trkpt lat="47.24674" lon="-1.45675">
        <ele>53</ele>
        <time>2021-10-23T14:52:32Z</time>
      </trkpt>
      <trkpt lat="47.2467" lon="-1.45692">
        <ele>53</ele>
        <time>2021-10-23T14:52:34Z</time>
      </trkpt>
      <trkpt lat="47.24667" lon="-1.45709">
        <ele>53</ele>
        <time>2021-10-23T14:52:36Z</time>
      </trkpt>
      <trkpt lat="47.24662" lon="-1.45723">
        <ele>53</ele>
        <time>2021-10-23T14:52:38Z</time>
      </trkpt>
      <trkpt lat="47.2466" lon="-1.45737">
        <ele>53</ele>
        <time>2021-10-23T14:52:40Z</time>
      </trkpt>
      <trkpt lat="47.24657" lon="-1.45753">
        <ele>53</ele>
        <time>2021-10-23T14:52:42Z</time>
      </trkpt>
      <trkpt lat="47.24653" lon="-1.45772">
        <ele>53</ele>
        <time>2021-10-23T14:52:44Z</time>
      </trkpt>
      <trkpt lat="47.24648" lon="-1.45791">
        <ele>54</ele>
        <time>2021-10-23T14:52:46Z</time>
      </trkpt>
      <trkpt lat="47.24643" lon="-1.45811">
        <ele>55</ele>
        <time>2021-10-23T14:52:48Z</time>
      </trkpt>
      <trkpt lat="47.24637" lon="-1.45828">
        <ele>55</ele>
        <time>2021-10-23T14:52:50Z</time>
      </trkpt>
      <trkpt lat="47.24632" lon="-1.45847">
        <ele>56</ele>
        <time>2021-10-23T14:52:52Z</time>
      </trkpt>
      <trkpt lat="47.24627" lon="-1.45865">
        <ele>56</ele>
        <time>2021-10-23T14:52:54Z</time>
      </trkpt>
      <trkpt lat="47.24623" lon="-1.45883">
        <ele>56</ele>
        <time>2021-10-23T14:52:56Z</time>
      </trkpt>
      <trkpt lat="47.24617" lon="-1.45901">
        <ele>57</ele>
        <time>2021-10-23T14:52:58Z</time>
      </trkpt>
      <trkpt lat="47.24612" lon="-1.45918">
        <ele>57</ele>
        <time>2021-10-23T14:53:00Z</time>
      </trkpt>
      <trkpt lat="47.24607" lon="-1.45935">
        <ele>57</ele>
        <time>2021-10-23T14:53:02Z</time>
      </trkpt>
      <trkpt lat="47.24599" lon="-1.4595">
        <ele>57</ele>
        <time>2021-10-23T14:53:04Z</time>
      </trkpt>
      <trkpt lat="47.24592" lon="-1.45965">
        <ele>56</ele>
        <time>2021-10-23T14:53:06Z</time>
      </trkpt>
      <trkpt lat="47.24586" lon="-1.45981">
        <ele>56</ele>
        <time>2021-10-23T14:53:08Z</time>
      </trkpt>
      <trkpt lat="47.24579" lon="-1.45997">
        <ele>56</ele>
        <time>2021-10-23T14:53:10Z</time>
      </trkpt>
      <trkpt lat="47.24572" lon="-1.46012">
        <ele>56</ele>
        <time>2021-10-23T14:53:12Z</time>
      </trkpt>
      <trkpt lat="47.24564" lon="-1.46027">
        <ele>56</ele>
        <time>2021-10-23T14:53:14Z</time>
      </trkpt>
      <trkpt lat="47.24555" lon="-1.46041">
        <ele>55</ele>
        <time>2021-10-23T14:53:16Z</time>
      </trkpt>
      <trkpt lat="47.24547" lon="-1.46056">
        <ele>55</ele>
        <time>2021-10-23T14:53:18Z</time>
      </trkpt>
      <trkpt lat="47.2454" lon="-1.46071">
        <ele>55</ele>
        <time>2021-10-23T14:53:20Z</time>
      </trkpt>
      <trkpt lat="47.24533" lon="-1.46085">
        <ele>55</ele>
        <time>2021-10-23T14:53:22Z</time>
      </trkpt>
      <trkpt lat="47.24525" lon="-1.46098">
        <ele>55</ele>
        <time>2021-10-23T14:53:24Z</time>
      </trkpt>
      <trkpt lat="47.24516" lon="-1.46109">
        <ele>55</ele>
        <time>2021-10-23T14:53:26Z</time>
      </trkpt>
      <trkpt lat="47.24506" lon="-1.4612">
        <ele>54</ele>
        <time>2021-10-23T14:53:28Z</time>
      </trkpt>
      <trkpt lat="47.24497" lon="-1.46131">
        <ele>54</ele>
        <time>2021-10-23T14:53:30Z</time>
      </trkpt>
      <trkpt lat="47.24487" lon="-1.46143">
        <ele>53</ele>
        <time>2021-10-23T14:53:32Z</time>
      </trkpt>
      <trkpt lat="47.24473" lon="-1.46161">
        <ele>53</ele>
        <time>2021-10-23T14:53:35Z</time>
      </trkpt>
      <trkpt lat="47.24464" lon="-1.46172">
        <ele>53</ele>
        <time>2021-10-23T14:53:37Z</time>
      </trkpt>
      <trkpt lat="47.24454" lon="-1.46183">
        <ele>52</ele>
        <time>2021-10-23T14:53:39Z</time>
      </trkpt>
      <trkpt lat="47.24445" lon="-1.46195">
        <ele>53</ele>
        <time>2021-10-23T14:53:41Z</time>
      </trkpt>
      <trkpt lat="47.24436" lon="-1.46207">
        <ele>53</ele>
        <time>2021-10-23T14:53:43Z</time>
      </trkpt>
      <trkpt lat="47.24427" lon="-1.46219">
        <ele>52</ele>
        <time>2021-10-23T14:53:45Z</time>
      </trkpt>
      <trkpt lat="47.24419" lon="-1.46231">
        <ele>53</ele>
        <time>2021-10-23T14:53:47Z</time>
      </trkpt>
      <trkpt lat="47.24411" lon="-1.46243">
        <ele>53</ele>
        <time>2021-10-23T14:53:49Z</time>
      </trkpt>
      <trkpt lat="47.24403" lon="-1.46254">
        <ele>53</ele>
        <time>2021-10-23T14:53:51Z</time>
      </trkpt>
      <trkpt lat="47.24394" lon="-1.46266">
        <ele>53</ele>
        <time>2021-10-23T14:53:53Z</time>
      </trkpt>
      <trkpt lat="47.24387" lon="-1.46278">
        <ele>54</ele>
        <time>2021-10-23T14:53:55Z</time>
      </trkpt>
      <trkpt lat="47.24378" lon="-1.46291">
        <ele>55</ele>
        <time>2021-10-23T14:53:57Z</time>
      </trkpt>
      <trkpt lat="47.24369" lon="-1.46305">
        <ele>55</ele>
        <time>2021-10-23T14:53:59Z</time>
      </trkpt>
      <trkpt lat="47.2436" lon="-1.46317">
        <ele>55</ele>
        <time>2021-10-23T14:54:01Z</time>
      </trkpt>
      <trkpt lat="47.24353" lon="-1.4633">
        <ele>55</ele>
        <time>2021-10-23T14:54:03Z</time>
      </trkpt>
      <trkpt lat="47.24345" lon="-1.46342">
        <ele>55</ele>
        <time>2021-10-23T14:54:05Z</time>
      </trkpt>
      <trkpt lat="47.24337" lon="-1.46356">
        <ele>55</ele>
        <time>2021-10-23T14:54:07Z</time>
      </trkpt>
      <trkpt lat="47.24329" lon="-1.4637">
        <ele>55</ele>
        <time>2021-10-23T14:54:09Z</time>
      </trkpt>
      <trkpt lat="47.24322" lon="-1.46384">
        <ele>55</ele>
        <time>2021-10-23T14:54:11Z</time>
      </trkpt>
      <trkpt lat="47.24313" lon="-1.46398">
        <ele>55</ele>
        <time>2021-10-23T14:54:13Z</time>
      </trkpt>
      <trkpt lat="47.24305" lon="-1.46411">
        <ele>54</ele>
        <time>2021-10-23T14:54:15Z</time>
      </trkpt>
      <trkpt lat="47.24297" lon="-1.46423">
        <ele>55</ele>
        <time>2021-10-23T14:54:17Z</time>
      </trkpt>
      <trkpt lat="47.24289" lon="-1.46436">
        <ele>55</ele>
        <time>2021-10-23T14:54:19Z</time>
      </trkpt>
      <trkpt lat="47.24281" lon="-1.46449">
        <ele>54</ele>
        <time>2021-10-23T14:54:21Z</time>
      </trkpt>
      <trkpt lat="47.24272" lon="-1.46461">
        <ele>54</ele>
        <time>2021-10-23T14:54:23Z</time>
      </trkpt>
      <trkpt lat="47.24262" lon="-1.46472">
        <ele>54</ele>
        <time>2021-10-23T14:54:25Z</time>
      </trkpt>
      <trkpt lat="47.24253" lon="-1.46484">
        <ele>53</ele>
        <time>2021-10-23T14:54:27Z</time>
      </trkpt>
      <trkpt lat="47.24244" lon="-1.46496">
        <ele>53</ele>
        <time>2021-10-23T14:54:29Z</time>
      </trkpt>
      <trkpt lat="47.24235" lon="-1.46507">
        <ele>53</ele>
        <time>2021-10-23T14:54:31Z</time>
      </trkpt>
      <trkpt lat="47.24225" lon="-1.46518">
        <ele>53</ele>
        <time>2021-10-23T14:54:33Z</time>
      </trkpt>
      <trkpt lat="47.24216" lon="-1.46529">
        <ele>52</ele>
        <time>2021-10-23T14:54:35Z</time>
      </trkpt>
      <trkpt lat="47.24207" lon="-1.46539">
        <ele>52</ele>
        <time>2021-10-23T14:54:37Z</time>
      </trkpt>
      <trkpt lat="47.24198" lon="-1.4655">
        <ele>52</ele>
        <time>2021-10-23T14:54:39Z</time>
      </trkpt>
      <trkpt lat="47.24189" lon="-1.46561">
        <ele>51</ele>
        <time>2021-10-23T14:54:41Z</time>
      </trkpt>
      <trkpt lat="47.2418" lon="-1.46573">
        <ele>51</ele>
        <time>2021-10-23T14:54:43Z</time>
      </trkpt>
      <trkpt lat="47.24171" lon="-1.46584">
        <ele>51</ele>
        <time>2021-10-23T14:54:45Z</time>
      </trkpt>
      <trkpt lat="47.24162" lon="-1.46595">
        <ele>52</ele>
        <time>2021-10-23T14:54:47Z</time>
      </trkpt>
      <trkpt lat="47.24154" lon="-1.46606">
        <ele>52</ele>
        <time>2021-10-23T14:54:49Z</time>
      </trkpt>
      <trkpt lat="47.24145" lon="-1.46617">
        <ele>52</ele>
        <time>2021-10-23T14:54:51Z</time>
      </trkpt>
      <trkpt lat="47.24137" lon="-1.46629">
        <ele>52</ele>
        <time>2021-10-23T14:54:53Z</time>
      </trkpt>
      <trkpt lat="47.24129" lon="-1.46641">
        <ele>52</ele>
        <time>2021-10-23T14:54:55Z</time>
      </trkpt>
      <trkpt lat="47.2412" lon="-1.46654">
        <ele>52</ele>
        <time>2021-10-23T14:54:57Z</time>
      </trkpt>
      <trkpt lat="47.24112" lon="-1.46666">
        <ele>53</ele>
        <time>2021-10-23T14:54:59Z</time>
      </trkpt>
      <trkpt lat="47.24103" lon="-1.46679">
        <ele>53</ele>
        <time>2021-10-23T14:55:01Z</time>
      </trkpt>
      <trkpt lat="47.24095" lon="-1.4669">
        <ele>53</ele>
        <time>2021-10-23T14:55:03Z</time>
      </trkpt>
      <trkpt lat="47.24087" lon="-1.46703">
        <ele>53</ele>
        <time>2021-10-23T14:55:05Z</time>
      </trkpt>
      <trkpt lat="47.24081" lon="-1.46716">
        <ele>52</ele>
        <time>2021-10-23T14:55:07Z</time>
      </trkpt>
      <trkpt lat="47.24076" lon="-1.4673">
        <ele>52</ele>
        <time>2021-10-23T14:55:10Z</time>
      </trkpt>
      <trkpt lat="47.24069" lon="-1.46739">
        <ele>52</ele>
        <time>2021-10-23T14:55:12Z</time>
      </trkpt>
      <trkpt lat="47.24058" lon="-1.46746">
        <ele>51</ele>
        <time>2021-10-23T14:55:14Z</time>
      </trkpt>
      <trkpt lat="47.24047" lon="-1.46754">
        <ele>51</ele>
        <time>2021-10-23T14:55:16Z</time>
      </trkpt>
      <trkpt lat="47.24037" lon="-1.46765">
        <ele>51</ele>
        <time>2021-10-23T14:55:18Z</time>
      </trkpt>
      <trkpt lat="47.24027" lon="-1.46775">
        <ele>51</ele>
        <time>2021-10-23T14:55:20Z</time>
      </trkpt>
      <trkpt lat="47.24018" lon="-1.46786">
        <ele>51</ele>
        <time>2021-10-23T14:55:22Z</time>
      </trkpt>
      <trkpt lat="47.24009" lon="-1.46796">
        <ele>51</ele>
        <time>2021-10-23T14:55:24Z</time>
      </trkpt>
      <trkpt lat="47.24" lon="-1.46805">
        <ele>51</ele>
        <time>2021-10-23T14:55:26Z</time>
      </trkpt>
      <trkpt lat="47.23991" lon="-1.46815">
        <ele>51</ele>
        <time>2021-10-23T14:55:28Z</time>
      </trkpt>
      <trkpt lat="47.23982" lon="-1.46825">
        <ele>51</ele>
        <time>2021-10-23T14:55:30Z</time>
      </trkpt>
      <trkpt lat="47.23972" lon="-1.46835">
        <ele>51</ele>
        <time>2021-10-23T14:55:32Z</time>
      </trkpt>
      <trkpt lat="47.23962" lon="-1.46846">
        <ele>51</ele>
        <time>2021-10-23T14:55:34Z</time>
      </trkpt>
      <trkpt lat="47.23953" lon="-1.46855">
        <ele>52</ele>
        <time>2021-10-23T14:55:36Z</time>
      </trkpt>
      <trkpt lat="47.23942" lon="-1.46864">
        <ele>52</ele>
        <time>2021-10-23T14:55:38Z</time>
      </trkpt>
      <trkpt lat="47.23931" lon="-1.46872">
        <ele>52</ele>
        <time>2021-10-23T14:55:40Z</time>
      </trkpt>
      <trkpt lat="47.23921" lon="-1.46881">
        <ele>51</ele>
        <time>2021-10-23T14:55:42Z</time>
      </trkpt>
      <trkpt lat="47.23912" lon="-1.46893">
        <ele>51</ele>
        <time>2021-10-23T14:55:44Z</time>
      </trkpt>
      <trkpt lat="47.23903" lon="-1.46905">
        <ele>51</ele>
        <time>2021-10-23T14:55:46Z</time>
      </trkpt>
      <trkpt lat="47.23895" lon="-1.46917">
        <ele>52</ele>
        <time>2021-10-23T14:55:48Z</time>
      </trkpt>
      <trkpt lat="47.23887" lon="-1.46929">
        <ele>52</ele>
        <time>2021-10-23T14:55:50Z</time>
      </trkpt>
      <trkpt lat="47.23878" lon="-1.46941">
        <ele>52</ele>
        <time>2021-10-23T14:55:52Z</time>
      </trkpt>
      <trkpt lat="47.23868" lon="-1.46953">
        <ele>52</ele>
        <time>2021-10-23T14:55:54Z</time>
      </trkpt>
      <trkpt lat="47.23859" lon="-1.46964">
        <ele>53</ele>
        <time>2021-10-23T14:55:56Z</time>
      </trkpt>
      <trkpt lat="47.2385" lon="-1.46977">
        <ele>52</ele>
        <time>2021-10-23T14:55:58Z</time>
      </trkpt>
      <trkpt lat="47.23841" lon="-1.46989">
        <ele>52</ele>
        <time>2021-10-23T14:56:00Z</time>
      </trkpt>
      <trkpt lat="47.23833" lon="-1.47002">
        <ele>52</ele>
        <time>2021-10-23T14:56:02Z</time>
      </trkpt>
      <trkpt lat="47.23824" lon="-1.47015">
        <ele>52</ele>
        <time>2021-10-23T14:56:04Z</time>
      </trkpt>
      <trkpt lat="47.23815" lon="-1.47028">
        <ele>52</ele>
        <time>2021-10-23T14:56:06Z</time>
      </trkpt>
      <trkpt lat="47.23806" lon="-1.47041">
        <ele>52</ele>
        <time>2021-10-23T14:56:08Z</time>
      </trkpt>
      <trkpt lat="47.23797" lon="-1.47053">
        <ele>52</ele>
        <time>2021-10-23T14:56:10Z</time>
      </trkpt>
      <trkpt lat="47.23788" lon="-1.47065">
        <ele>52</ele>
        <time>2021-10-23T14:56:12Z</time>
      </trkpt>
      <trkpt lat="47.23779" lon="-1.47077">
        <ele>51</ele>
        <time>2021-10-23T14:56:14Z</time>
      </trkpt>
      <trkpt lat="47.2377" lon="-1.47089">
        <ele>51</ele>
        <time>2021-10-23T14:56:16Z</time>
      </trkpt>
      <trkpt lat="47.23762" lon="-1.47101">
        <ele>52</ele>
        <time>2021-10-23T14:56:18Z</time>
      </trkpt>
      <trkpt lat="47.23753" lon="-1.47113">
        <ele>52</ele>
        <time>2021-10-23T14:56:20Z</time>
      </trkpt>
      <trkpt lat="47.23744" lon="-1.47126">
        <ele>52</ele>
        <time>2021-10-23T14:56:22Z</time>
      </trkpt>
      <trkpt lat="47.23735" lon="-1.47136">
        <ele>52</ele>
        <time>2021-10-23T14:56:24Z</time>
      </trkpt>
      <trkpt lat="47.23725" lon="-1.47148">
        <ele>52</ele>
        <time>2021-10-23T14:56:26Z</time>
      </trkpt>
      <trkpt lat="47.23716" lon="-1.4716">
        <ele>52</ele>
        <time>2021-10-23T14:56:28Z</time>
      </trkpt>
      <trkpt lat="47.23707" lon="-1.47173">
        <ele>52</ele>
        <time>2021-10-23T14:56:30Z</time>
      </trkpt>
      <trkpt lat="47.23697" lon="-1.47186">
        <ele>52</ele>
        <time>2021-10-23T14:56:32Z</time>
      </trkpt>
      <trkpt lat="47.23688" lon="-1.47199">
        <ele>52</ele>
        <time>2021-10-23T14:56:34Z</time>
      </trkpt>
      <trkpt lat="47.23681" lon="-1.47213">
        <ele>51</ele>
        <time>2021-10-23T14:56:36Z</time>
      </trkpt>
      <trkpt lat="47.23672" lon="-1.47225">
        <ele>51</ele>
        <time>2021-10-23T14:56:38Z</time>
      </trkpt>
      <trkpt lat="47.23662" lon="-1.47236">
        <ele>51</ele>
        <time>2021-10-23T14:56:40Z</time>
      </trkpt>
      <trkpt lat="47.23652" lon="-1.47247">
        <ele>50</ele>
        <time>2021-10-23T14:56:42Z</time>
      </trkpt>
      <trkpt lat="47.23643" lon="-1.47258">
        <ele>50</ele>
        <time>2021-10-23T14:56:44Z</time>
      </trkpt>
      <trkpt lat="47.23633" lon="-1.47269">
        <ele>50</ele>
        <time>2021-10-23T14:56:46Z</time>
      </trkpt>
      <trkpt lat="47.23623" lon="-1.4728">
        <ele>50</ele>
        <time>2021-10-23T14:56:48Z</time>
      </trkpt>
      <trkpt lat="47.23613" lon="-1.47291">
        <ele>50</ele>
        <time>2021-10-23T14:56:50Z</time>
      </trkpt>
      <trkpt lat="47.23603" lon="-1.47301">
        <ele>51</ele>
        <time>2021-10-23T14:56:52Z</time>
      </trkpt>
      <trkpt lat="47.23593" lon="-1.47312">
        <ele>51</ele>
        <time>2021-10-23T14:56:54Z</time>
      </trkpt>
      <trkpt lat="47.23582" lon="-1.47322">
        <ele>51</ele>
        <time>2021-10-23T14:56:56Z</time>
      </trkpt>
      <trkpt lat="47.23571" lon="-1.47331">
        <ele>51</ele>
        <time>2021-10-23T14:56:58Z</time>
      </trkpt>
      <trkpt lat="47.23561" lon="-1.4734">
        <ele>51</ele>
        <time>2021-10-23T14:57:00Z</time>
      </trkpt>
      <trkpt lat="47.2355" lon="-1.47349">
        <ele>51</ele>
        <time>2021-10-23T14:57:02Z</time>
      </trkpt>
      <trkpt lat="47.23539" lon="-1.47357">
        <ele>50</ele>
        <time>2021-10-23T14:57:04Z</time>
      </trkpt>
      <trkpt lat="47.23528" lon="-1.47366">
        <ele>51</ele>
        <time>2021-10-23T14:57:06Z</time>
      </trkpt>
      <trkpt lat="47.23517" lon="-1.47375">
        <ele>50</ele>
        <time>2021-10-23T14:57:08Z</time>
      </trkpt>
      <trkpt lat="47.23506" lon="-1.47385">
        <ele>50</ele>
        <time>2021-10-23T14:57:10Z</time>
      </trkpt>
      <trkpt lat="47.23495" lon="-1.47393">
        <ele>50</ele>
        <time>2021-10-23T14:57:12Z</time>
      </trkpt>
      <trkpt lat="47.23485" lon="-1.474">
        <ele>51</ele>
        <time>2021-10-23T14:57:14Z</time>
      </trkpt>
      <trkpt lat="47.23473" lon="-1.47405">
        <ele>51</ele>
        <time>2021-10-23T14:57:16Z</time>
      </trkpt>
      <trkpt lat="47.23461" lon="-1.4741">
        <ele>51</ele>
        <time>2021-10-23T14:57:18Z</time>
      </trkpt>
      <trkpt lat="47.23451" lon="-1.47414">
        <ele>50</ele>
        <time>2021-10-23T14:57:20Z</time>
      </trkpt>
      <trkpt lat="47.23441" lon="-1.4742">
        <ele>50</ele>
        <time>2021-10-23T14:57:22Z</time>
      </trkpt>
      <trkpt lat="47.23431" lon="-1.47424">
        <ele>51</ele>
        <time>2021-10-23T14:57:24Z</time>
      </trkpt>
      <trkpt lat="47.23423" lon="-1.4743">
        <ele>51</ele>
        <time>2021-10-23T14:57:26Z</time>
      </trkpt>
      <trkpt lat="47.23415" lon="-1.47438">
        <ele>50</ele>
        <time>2021-10-23T14:57:28Z</time>
      </trkpt>
      <trkpt lat="47.23405" lon="-1.47443">
        <ele>50</ele>
        <time>2021-10-23T14:57:30Z</time>
      </trkpt>
      <trkpt lat="47.23394" lon="-1.4745">
        <ele>50</ele>
        <time>2021-10-23T14:57:32Z</time>
      </trkpt>
      <trkpt lat="47.23383" lon="-1.47457">
        <ele>50</ele>
        <time>2021-10-23T14:57:34Z</time>
      </trkpt>
      <trkpt lat="47.23371" lon="-1.47463">
        <ele>51</ele>
        <time>2021-10-23T14:57:36Z</time>
      </trkpt>
      <trkpt lat="47.23359" lon="-1.47467">
        <ele>51</ele>
        <time>2021-10-23T14:57:38Z</time>
      </trkpt>
      <trkpt lat="47.23347" lon="-1.47472">
        <ele>51</ele>
        <time>2021-10-23T14:57:40Z</time>
      </trkpt>
      <trkpt lat="47.23337" lon="-1.47479">
        <ele>51</ele>
        <time>2021-10-23T14:57:42Z</time>
      </trkpt>
      <trkpt lat="47.23326" lon="-1.47485">
        <ele>51</ele>
        <time>2021-10-23T14:57:44Z</time>
      </trkpt>
      <trkpt lat="47.23316" lon="-1.47495">
        <ele>52</ele>
        <time>2021-10-23T14:57:46Z</time>
      </trkpt>
      <trkpt lat="47.23304" lon="-1.47503">
        <ele>53</ele>
        <time>2021-10-23T14:57:48Z</time>
      </trkpt>
      <trkpt lat="47.23292" lon="-1.47509">
        <ele>52</ele>
        <time>2021-10-23T14:57:50Z</time>
      </trkpt>
      <trkpt lat="47.2328" lon="-1.47515">
        <ele>52</ele>
        <time>2021-10-23T14:57:52Z</time>
      </trkpt>
      <trkpt lat="47.2327" lon="-1.47522">
        <ele>52</ele>
        <time>2021-10-23T14:57:54Z</time>
      </trkpt>
      <trkpt lat="47.2326" lon="-1.47534">
        <ele>52</ele>
        <time>2021-10-23T14:57:56Z</time>
      </trkpt>
      <trkpt lat="47.23252" lon="-1.47546">
        <ele>51</ele>
        <time>2021-10-23T14:57:58Z</time>
      </trkpt>
      <trkpt lat="47.23244" lon="-1.47561">
        <ele>51</ele>
        <time>2021-10-23T14:58:00Z</time>
      </trkpt>
      <trkpt lat="47.23236" lon="-1.47575">
        <ele>51</ele>
        <time>2021-10-23T14:58:02Z</time>
      </trkpt>
      <trkpt lat="47.23228" lon="-1.47589">
        <ele>51</ele>
        <time>2021-10-23T14:58:04Z</time>
      </trkpt>
      <trkpt lat="47.23221" lon="-1.47603">
        <ele>51</ele>
        <time>2021-10-23T14:58:06Z</time>
      </trkpt>
      <trkpt lat="47.23215" lon="-1.47618">
        <ele>52</ele>
        <time>2021-10-23T14:58:08Z</time>
      </trkpt>
      <trkpt lat="47.23208" lon="-1.47633">
        <ele>52</ele>
        <time>2021-10-23T14:58:10Z</time>
      </trkpt>
      <trkpt lat="47.23203" lon="-1.47648">
        <ele>52</ele>
        <time>2021-10-23T14:58:12Z</time>
      </trkpt>
      <trkpt lat="47.23196" lon="-1.47664">
        <ele>52</ele>
        <time>2021-10-23T14:58:14Z</time>
      </trkpt>
      <trkpt lat="47.2319" lon="-1.47679">
        <ele>52</ele>
        <time>2021-10-23T14:58:16Z</time>
      </trkpt>
      <trkpt lat="47.23183" lon="-1.47695">
        <ele>51</ele>
        <time>2021-10-23T14:58:18Z</time>
      </trkpt>
      <trkpt lat="47.23176" lon="-1.4771">
        <ele>51</ele>
        <time>2021-10-23T14:58:20Z</time>
      </trkpt>
      <trkpt lat="47.23169" lon="-1.47726">
        <ele>51</ele>
        <time>2021-10-23T14:58:22Z</time>
      </trkpt>
      <trkpt lat="47.23163" lon="-1.47742">
        <ele>51</ele>
        <time>2021-10-23T14:58:24Z</time>
      </trkpt>
      <trkpt lat="47.23157" lon="-1.47758">
        <ele>51</ele>
        <time>2021-10-23T14:58:26Z</time>
      </trkpt>
      <trkpt lat="47.23151" lon="-1.47773">
        <ele>51</ele>
        <time>2021-10-23T14:58:28Z</time>
      </trkpt>
      <trkpt lat="47.23145" lon="-1.47786">
        <ele>51</ele>
        <time>2021-10-23T14:58:30Z</time>
      </trkpt>
      <trkpt lat="47.2314" lon="-1.478">
        <ele>51</ele>
        <time>2021-10-23T14:58:32Z</time>
      </trkpt>
      <trkpt lat="47.23136" lon="-1.47812">
        <ele>51</ele>
        <time>2021-10-23T14:58:34Z</time>
      </trkpt>
      <trkpt lat="47.2313" lon="-1.47828">
        <ele>51</ele>
        <time>2021-10-23T14:58:37Z</time>
      </trkpt>
      <trkpt lat="47.23125" lon="-1.47842">
        <ele>52</ele>
        <time>2021-10-23T14:58:40Z</time>
      </trkpt>
      <trkpt lat="47.23119" lon="-1.47853">
        <ele>51</ele>
        <time>2021-10-23T14:59:54Z</time>
      </trkpt>
      <trkpt lat="47.23112" lon="-1.47865">
        <ele>51</ele>
        <time>2021-10-23T14:59:57Z</time>
      </trkpt>
      <trkpt lat="47.23103" lon="-1.47879">
        <ele>50</ele>
        <time>2021-10-23T15:00:00Z</time>
      </trkpt>
      <trkpt lat="47.23093" lon="-1.47891">
        <ele>50</ele>
        <time>2021-10-23T15:00:03Z</time>
      </trkpt>
      <trkpt lat="47.23086" lon="-1.47901">
        <ele>51</ele>
        <time>2021-10-23T15:00:05Z</time>
      </trkpt>
      <trkpt lat="47.23077" lon="-1.47911">
        <ele>52</ele>
        <time>2021-10-23T15:00:07Z</time>
      </trkpt>
      <trkpt lat="47.23069" lon="-1.47922">
        <ele>52</ele>
        <time>2021-10-23T15:00:09Z</time>
      </trkpt>
      <trkpt lat="47.23061" lon="-1.47933">
        <ele>52</ele>
        <time>2021-10-23T15:00:11Z</time>
      </trkpt>
      <trkpt lat="47.23052" lon="-1.47945">
        <ele>52</ele>
        <time>2021-10-23T15:00:13Z</time>
      </trkpt>
      <trkpt lat="47.23044" lon="-1.47957">
        <ele>52</ele>
        <time>2021-10-23T15:00:15Z</time>
      </trkpt>
      <trkpt lat="47.23035" lon="-1.47969">
        <ele>52</ele>
        <time>2021-10-23T15:00:17Z</time>
      </trkpt>
      <trkpt lat="47.23025" lon="-1.47981">
        <ele>52</ele>
        <time>2021-10-23T15:00:19Z</time>
      </trkpt>
      <trkpt lat="47.23017" lon="-1.47993">
        <ele>53</ele>
        <time>2021-10-23T15:00:21Z</time>
      </trkpt>
      <trkpt lat="47.23008" lon="-1.48006">
        <ele>53</ele>
        <time>2021-10-23T15:00:23Z</time>
      </trkpt>
      <trkpt lat="47.23" lon="-1.48019">
        <ele>53</ele>
        <time>2021-10-23T15:00:25Z</time>
      </trkpt>
      <trkpt lat="47.22991" lon="-1.48033">
        <ele>53</ele>
        <time>2021-10-23T15:00:27Z</time>
      </trkpt>
      <trkpt lat="47.22983" lon="-1.48048">
        <ele>53</ele>
        <time>2021-10-23T15:00:29Z</time>
      </trkpt>
      <trkpt lat="47.22975" lon="-1.48062">
        <ele>52</ele>
        <time>2021-10-23T15:00:31Z</time>
      </trkpt>
      <trkpt lat="47.22968" lon="-1.48075">
        <ele>52</ele>
        <time>2021-10-23T15:00:33Z</time>
      </trkpt>
      <trkpt lat="47.2296" lon="-1.48086">
        <ele>52</ele>
        <time>2021-10-23T15:00:35Z</time>
      </trkpt>
      <trkpt lat="47.22953" lon="-1.48096">
        <ele>53</ele>
        <time>2021-10-23T15:00:37Z</time>
      </trkpt>
      <trkpt lat="47.22945" lon="-1.48107">
        <ele>53</ele>
        <time>2021-10-23T15:00:39Z</time>
      </trkpt>
      <trkpt lat="47.22935" lon="-1.48109">
        <ele>53</ele>
        <time>2021-10-23T15:00:41Z</time>
      </trkpt>
      <trkpt lat="47.22922" lon="-1.48112">
        <ele>53</ele>
        <time>2021-10-23T15:00:43Z</time>
      </trkpt>
      <trkpt lat="47.22909" lon="-1.48118">
        <ele>52</ele>
        <time>2021-10-23T15:00:45Z</time>
      </trkpt>
      <trkpt lat="47.22898" lon="-1.48129">
        <ele>52</ele>
        <time>2021-10-23T15:00:47Z</time>
      </trkpt>
      <trkpt lat="47.22889" lon="-1.48141">
        <ele>52</ele>
        <time>2021-10-23T15:00:49Z</time>
      </trkpt>
      <trkpt lat="47.2288" lon="-1.48155">
        <ele>52</ele>
        <time>2021-10-23T15:00:51Z</time>
      </trkpt>
      <trkpt lat="47.22872" lon="-1.48168">
        <ele>52</ele>
        <time>2021-10-23T15:00:53Z</time>
      </trkpt>
      <trkpt lat="47.22863" lon="-1.48181">
        <ele>53</ele>
        <time>2021-10-23T15:00:55Z</time>
      </trkpt>
      <trkpt lat="47.22855" lon="-1.48195">
        <ele>53</ele>
        <time>2021-10-23T15:00:57Z</time>
      </trkpt>
      <trkpt lat="47.22846" lon="-1.48209">
        <ele>53</ele>
        <time>2021-10-23T15:00:59Z</time>
      </trkpt>
      <trkpt lat="47.22838" lon="-1.48224">
        <ele>53</ele>
        <time>2021-10-23T15:01:01Z</time>
      </trkpt>
      <trkpt lat="47.22829" lon="-1.48237">
        <ele>53</ele>
        <time>2021-10-23T15:01:03Z</time>
      </trkpt>
      <trkpt lat="47.2282" lon="-1.48249">
        <ele>53</ele>
        <time>2021-10-23T15:01:05Z</time>
      </trkpt>
      <trkpt lat="47.22811" lon="-1.48262">
        <ele>53</ele>
        <time>2021-10-23T15:01:07Z</time>
      </trkpt>
      <trkpt lat="47.22802" lon="-1.48276">
        <ele>54</ele>
        <time>2021-10-23T15:01:09Z</time>
      </trkpt>
      <trkpt lat="47.22794" lon="-1.4829">
        <ele>54</ele>
        <time>2021-10-23T15:01:11Z</time>
      </trkpt>
      <trkpt lat="47.22786" lon="-1.48304">
        <ele>54</ele>
        <time>2021-10-23T15:01:13Z</time>
      </trkpt>
      <trkpt lat="47.22778" lon="-1.48318">
        <ele>54</ele>
        <time>2021-10-23T15:01:15Z</time>
      </trkpt>
      <trkpt lat="47.22769" lon="-1.48332">
        <ele>54</ele>
        <time>2021-10-23T15:01:17Z</time>
      </trkpt>
      <trkpt lat="47.22759" lon="-1.48346">
        <ele>54</ele>
        <time>2021-10-23T15:01:19Z</time>
      </trkpt>
      <trkpt lat="47.2275" lon="-1.48358">
        <ele>54</ele>
        <time>2021-10-23T15:01:21Z</time>
      </trkpt>
      <trkpt lat="47.2274" lon="-1.48371">
        <ele>54</ele>
        <time>2021-10-23T15:01:23Z</time>
      </trkpt>
      <trkpt lat="47.2273" lon="-1.48385">
        <ele>54</ele>
        <time>2021-10-23T15:01:25Z</time>
      </trkpt>
      <trkpt lat="47.22719" lon="-1.48397">
        <ele>54</ele>
        <time>2021-10-23T15:01:27Z</time>
      </trkpt>
      <trkpt lat="47.2271" lon="-1.48412">
        <ele>53</ele>
        <time>2021-10-23T15:01:29Z</time>
      </trkpt>
      <trkpt lat="47.22702" lon="-1.48428">
        <ele>53</ele>
        <time>2021-10-23T15:01:31Z</time>
      </trkpt>
      <trkpt lat="47.22697" lon="-1.48445">
        <ele>52</ele>
        <time>2021-10-23T15:01:33Z</time>
      </trkpt>
      <trkpt lat="47.2269" lon="-1.48463">
        <ele>53</ele>
        <time>2021-10-23T15:01:35Z</time>
      </trkpt>
      <trkpt lat="47.22683" lon="-1.48479">
        <ele>52</ele>
        <time>2021-10-23T15:01:37Z</time>
      </trkpt>
      <trkpt lat="47.22675" lon="-1.48496">
        <ele>52</ele>
        <time>2021-10-23T15:01:39Z</time>
      </trkpt>
      <trkpt lat="47.22669" lon="-1.48512">
        <ele>53</ele>
        <time>2021-10-23T15:01:41Z</time>
      </trkpt>
      <trkpt lat="47.22664" lon="-1.48529">
        <ele>53</ele>
        <time>2021-10-23T15:01:43Z</time>
      </trkpt>
      <trkpt lat="47.22658" lon="-1.48548">
        <ele>53</ele>
        <time>2021-10-23T15:01:45Z</time>
      </trkpt>
      <trkpt lat="47.22652" lon="-1.48565">
        <ele>52</ele>
        <time>2021-10-23T15:01:47Z</time>
      </trkpt>
      <trkpt lat="47.22645" lon="-1.48581">
        <ele>52</ele>
        <time>2021-10-23T15:01:49Z</time>
      </trkpt>
      <trkpt lat="47.22639" lon="-1.48597">
        <ele>53</ele>
        <time>2021-10-23T15:01:51Z</time>
      </trkpt>
      <trkpt lat="47.22634" lon="-1.48611">
        <ele>54</ele>
        <time>2021-10-23T15:01:53Z</time>
      </trkpt>
      <trkpt lat="47.22629" lon="-1.48626">
        <ele>54</ele>
        <time>2021-10-23T15:01:55Z</time>
      </trkpt>
      <trkpt lat="47.22624" lon="-1.48641">
        <ele>55</ele>
        <time>2021-10-23T15:01:57Z</time>
      </trkpt>
      <trkpt lat="47.22619" lon="-1.48658">
        <ele>55</ele>
        <time>2021-10-23T15:01:59Z</time>
      </trkpt>
      <trkpt lat="47.22613" lon="-1.48676">
        <ele>55</ele>
        <time>2021-10-23T15:02:01Z</time>
      </trkpt>
      <trkpt lat="47.22607" lon="-1.48695">
        <ele>54</ele>
        <time>2021-10-23T15:02:03Z</time>
      </trkpt>
      <trkpt lat="47.22602" lon="-1.48713">
        <ele>55</ele>
        <time>2021-10-23T15:02:05Z</time>
      </trkpt>
      <trkpt lat="47.22596" lon="-1.48731">
        <ele>55</ele>
        <time>2021-10-23T15:02:07Z</time>
      </trkpt>
      <trkpt lat="47.22592" lon="-1.48748">
        <ele>55</ele>
        <time>2021-10-23T15:02:09Z</time>
      </trkpt>
      <trkpt lat="47.22588" lon="-1.48765">
        <ele>55</ele>
        <time>2021-10-23T15:02:11Z</time>
      </trkpt>
      <trkpt lat="47.22583" lon="-1.48781">
        <ele>55</ele>
        <time>2021-10-23T15:02:13Z</time>
      </trkpt>
      <trkpt lat="47.22577" lon="-1.48798">
        <ele>55</ele>
        <time>2021-10-23T15:02:15Z</time>
      </trkpt>
      <trkpt lat="47.2257" lon="-1.48815">
        <ele>55</ele>
        <time>2021-10-23T15:02:17Z</time>
      </trkpt>
      <trkpt lat="47.22566" lon="-1.4883">
        <ele>55</ele>
        <time>2021-10-23T15:02:19Z</time>
      </trkpt>
      <trkpt lat="47.22563" lon="-1.48845">
        <ele>55</ele>
        <time>2021-10-23T15:02:21Z</time>
      </trkpt>
      <trkpt lat="47.22559" lon="-1.48862">
        <ele>55</ele>
        <time>2021-10-23T15:02:23Z</time>
      </trkpt>
      <trkpt lat="47.22556" lon="-1.48878">
        <ele>55</ele>
        <time>2021-10-23T15:02:25Z</time>
      </trkpt>
      <trkpt lat="47.22551" lon="-1.48893">
        <ele>56</ele>
        <time>2021-10-23T15:02:27Z</time>
      </trkpt>
      <trkpt lat="47.22546" lon="-1.4891">
        <ele>56</ele>
        <time>2021-10-23T15:02:29Z</time>
      </trkpt>
      <trkpt lat="47.22541" lon="-1.4893">
        <ele>56</ele>
        <time>2021-10-23T15:02:31Z</time>
      </trkpt>
      <trkpt lat="47.22534" lon="-1.48949">
        <ele>56</ele>
        <time>2021-10-23T15:02:33Z</time>
      </trkpt>
      <trkpt lat="47.22527" lon="-1.48965">
        <ele>57</ele>
        <time>2021-10-23T15:02:35Z</time>
      </trkpt>
      <trkpt lat="47.2252" lon="-1.48983">
        <ele>56</ele>
        <time>2021-10-23T15:02:37Z</time>
      </trkpt>
      <trkpt lat="47.22514" lon="-1.49">
        <ele>56</ele>
        <time>2021-10-23T15:02:39Z</time>
      </trkpt>
      <trkpt lat="47.22509" lon="-1.49016">
        <ele>56</ele>
        <time>2021-10-23T15:02:41Z</time>
      </trkpt>
      <trkpt lat="47.22504" lon="-1.49033">
        <ele>57</ele>
        <time>2021-10-23T15:02:43Z</time>
      </trkpt>
      <trkpt lat="47.225" lon="-1.4905">
        <ele>57</ele>
        <time>2021-10-23T15:02:45Z</time>
      </trkpt>
      <trkpt lat="47.22494" lon="-1.49067">
        <ele>56</ele>
        <time>2021-10-23T15:02:47Z</time>
      </trkpt>
      <trkpt lat="47.22489" lon="-1.49085">
        <ele>56</ele>
        <time>2021-10-23T15:02:49Z</time>
      </trkpt>
      <trkpt lat="47.22483" lon="-1.49103">
        <ele>56</ele>
        <time>2021-10-23T15:02:51Z</time>
      </trkpt>
      <trkpt lat="47.22478" lon="-1.4912">
        <ele>56</ele>
        <time>2021-10-23T15:02:53Z</time>
      </trkpt>
      <trkpt lat="47.22473" lon="-1.49138">
        <ele>56</ele>
        <time>2021-10-23T15:02:55Z</time>
      </trkpt>
      <trkpt lat="47.22468" lon="-1.49156">
        <ele>56</ele>
        <time>2021-10-23T15:02:57Z</time>
      </trkpt>
      <trkpt lat="47.22463" lon="-1.49173">
        <ele>56</ele>
        <time>2021-10-23T15:02:59Z</time>
      </trkpt>
      <trkpt lat="47.22457" lon="-1.4919">
        <ele>57</ele>
        <time>2021-10-23T15:03:01Z</time>
      </trkpt>
      <trkpt lat="47.22451" lon="-1.49207">
        <ele>57</ele>
        <time>2021-10-23T15:03:03Z</time>
      </trkpt>
      <trkpt lat="47.22444" lon="-1.49224">
        <ele>56</ele>
        <time>2021-10-23T15:03:05Z</time>
      </trkpt>
      <trkpt lat="47.22438" lon="-1.49241">
        <ele>56</ele>
        <time>2021-10-23T15:03:07Z</time>
      </trkpt>
      <trkpt lat="47.22431" lon="-1.49256">
        <ele>55</ele>
        <time>2021-10-23T15:03:09Z</time>
      </trkpt>
      <trkpt lat="47.22423" lon="-1.4927">
        <ele>55</ele>
        <time>2021-10-23T15:03:11Z</time>
      </trkpt>
      <trkpt lat="47.22416" lon="-1.49286">
        <ele>55</ele>
        <time>2021-10-23T15:03:13Z</time>
      </trkpt>
      <trkpt lat="47.2241" lon="-1.49302">
        <ele>55</ele>
        <time>2021-10-23T15:03:15Z</time>
      </trkpt>
      <trkpt lat="47.22404" lon="-1.49318">
        <ele>54</ele>
        <time>2021-10-23T15:03:17Z</time>
      </trkpt>
      <trkpt lat="47.22398" lon="-1.49335">
        <ele>55</ele>
        <time>2021-10-23T15:03:19Z</time>
      </trkpt>
      <trkpt lat="47.22391" lon="-1.4935">
        <ele>54</ele>
        <time>2021-10-23T15:03:21Z</time>
      </trkpt>
      <trkpt lat="47.22384" lon="-1.49365">
        <ele>54</ele>
        <time>2021-10-23T15:03:23Z</time>
      </trkpt>
      <trkpt lat="47.22378" lon="-1.4938">
        <ele>54</ele>
        <time>2021-10-23T15:03:25Z</time>
      </trkpt>
      <trkpt lat="47.2237" lon="-1.49395">
        <ele>54</ele>
        <time>2021-10-23T15:03:27Z</time>
      </trkpt>
      <trkpt lat="47.22363" lon="-1.4941">
        <ele>54</ele>
        <time>2021-10-23T15:03:29Z</time>
      </trkpt>
      <trkpt lat="47.22356" lon="-1.49426">
        <ele>53</ele>
        <time>2021-10-23T15:03:31Z</time>
      </trkpt>
      <trkpt lat="47.2235" lon="-1.49441">
        <ele>53</ele>
        <time>2021-10-23T15:03:33Z</time>
      </trkpt>
      <trkpt lat="47.22345" lon="-1.49456">
        <ele>54</ele>
        <time>2021-10-23T15:03:35Z</time>
      </trkpt>
      <trkpt lat="47.22339" lon="-1.49472">
        <ele>55</ele>
        <time>2021-10-23T15:03:37Z</time>
      </trkpt>
      <trkpt lat="47.22336" lon="-1.49489">
        <ele>55</ele>
        <time>2021-10-23T15:03:39Z</time>
      </trkpt>
      <trkpt lat="47.22331" lon="-1.49506">
        <ele>55</ele>
        <time>2021-10-23T15:03:41Z</time>
      </trkpt>
      <trkpt lat="47.22328" lon="-1.49523">
        <ele>56</ele>
        <time>2021-10-23T15:03:43Z</time>
      </trkpt>
      <trkpt lat="47.22323" lon="-1.49539">
        <ele>56</ele>
        <time>2021-10-23T15:03:45Z</time>
      </trkpt>
      <trkpt lat="47.22317" lon="-1.49555">
        <ele>57</ele>
        <time>2021-10-23T15:03:47Z</time>
      </trkpt>
      <trkpt lat="47.22312" lon="-1.49572">
        <ele>57</ele>
        <time>2021-10-23T15:03:49Z</time>
      </trkpt>
      <trkpt lat="47.22307" lon="-1.49588">
        <ele>56</ele>
        <time>2021-10-23T15:03:51Z</time>
      </trkpt>
      <trkpt lat="47.22301" lon="-1.49604">
        <ele>56</ele>
        <time>2021-10-23T15:03:53Z</time>
      </trkpt>
      <trkpt lat="47.22296" lon="-1.49619">
        <ele>56</ele>
        <time>2021-10-23T15:03:55Z</time>
      </trkpt>
      <trkpt lat="47.22292" lon="-1.49636">
        <ele>57</ele>
        <time>2021-10-23T15:03:57Z</time>
      </trkpt>
      <trkpt lat="47.22287" lon="-1.49653">
        <ele>57</ele>
        <time>2021-10-23T15:03:59Z</time>
      </trkpt>
      <trkpt lat="47.22281" lon="-1.4967">
        <ele>56</ele>
        <time>2021-10-23T15:04:01Z</time>
      </trkpt>
      <trkpt lat="47.22275" lon="-1.49686">
        <ele>56</ele>
        <time>2021-10-23T15:04:03Z</time>
      </trkpt>
      <trkpt lat="47.22269" lon="-1.49702">
        <ele>55</ele>
        <time>2021-10-23T15:04:05Z</time>
      </trkpt>
      <trkpt lat="47.22263" lon="-1.49718">
        <ele>55</ele>
        <time>2021-10-23T15:04:07Z</time>
      </trkpt>
      <trkpt lat="47.22258" lon="-1.49736">
        <ele>55</ele>
        <time>2021-10-23T15:04:09Z</time>
      </trkpt>
      <trkpt lat="47.22254" lon="-1.49753">
        <ele>55</ele>
        <time>2021-10-23T15:04:11Z</time>
      </trkpt>
      <trkpt lat="47.22252" lon="-1.4977">
        <ele>55</ele>
        <time>2021-10-23T15:04:13Z</time>
      </trkpt>
      <trkpt lat="47.22249" lon="-1.49787">
        <ele>56</ele>
        <time>2021-10-23T15:04:15Z</time>
      </trkpt>
      <trkpt lat="47.22246" lon="-1.49803">
        <ele>56</ele>
        <time>2021-10-23T15:04:17Z</time>
      </trkpt>
      <trkpt lat="47.22243" lon="-1.4982">
        <ele>56</ele>
        <time>2021-10-23T15:04:19Z</time>
      </trkpt>
      <trkpt lat="47.22239" lon="-1.49837">
        <ele>56</ele>
        <time>2021-10-23T15:04:21Z</time>
      </trkpt>
      <trkpt lat="47.22236" lon="-1.49854">
        <ele>56</ele>
        <time>2021-10-23T15:04:23Z</time>
      </trkpt>
      <trkpt lat="47.22232" lon="-1.49872">
        <ele>57</ele>
        <time>2021-10-23T15:04:25Z</time>
      </trkpt>
      <trkpt lat="47.22228" lon="-1.4989">
        <ele>57</ele>
        <time>2021-10-23T15:04:27Z</time>
      </trkpt>
      <trkpt lat="47.22224" lon="-1.49908">
        <ele>56</ele>
        <time>2021-10-23T15:04:29Z</time>
      </trkpt>
      <trkpt lat="47.2222" lon="-1.49924">
        <ele>57</ele>
        <time>2021-10-23T15:04:31Z</time>
      </trkpt>
      <trkpt lat="47.22215" lon="-1.49941">
        <ele>57</ele>
        <time>2021-10-23T15:04:33Z</time>
      </trkpt>
      <trkpt lat="47.22211" lon="-1.49958">
        <ele>58</ele>
        <time>2021-10-23T15:04:35Z</time>
      </trkpt>
      <trkpt lat="47.22207" lon="-1.49973">
        <ele>59</ele>
        <time>2021-10-23T15:04:37Z</time>
      </trkpt>
      <trkpt lat="47.22203" lon="-1.49989">
        <ele>59</ele>
        <time>2021-10-23T15:04:39Z</time>
      </trkpt>
      <trkpt lat="47.22199" lon="-1.50005">
        <ele>59</ele>
        <time>2021-10-23T15:04:41Z</time>
      </trkpt>
      <trkpt lat="47.22195" lon="-1.50023">
        <ele>58</ele>
        <time>2021-10-23T15:04:43Z</time>
      </trkpt>
      <trkpt lat="47.22191" lon="-1.50041">
        <ele>58</ele>
        <time>2021-10-23T15:04:45Z</time>
      </trkpt>
      <trkpt lat="47.22187" lon="-1.50059">
        <ele>58</ele>
        <time>2021-10-23T15:04:47Z</time>
      </trkpt>
      <trkpt lat="47.22183" lon="-1.50076">
        <ele>58</ele>
        <time>2021-10-23T15:04:49Z</time>
      </trkpt>
      <trkpt lat="47.22179" lon="-1.50093">
        <ele>58</ele>
        <time>2021-10-23T15:04:51Z</time>
      </trkpt>
      <trkpt lat="47.22173" lon="-1.5011">
        <ele>58</ele>
        <time>2021-10-23T15:04:53Z</time>
      </trkpt>
      <trkpt lat="47.22167" lon="-1.50125">
        <ele>58</ele>
        <time>2021-10-23T15:04:55Z</time>
      </trkpt>
      <trkpt lat="47.22161" lon="-1.50141">
        <ele>57</ele>
        <time>2021-10-23T15:04:57Z</time>
      </trkpt>
      <trkpt lat="47.22155" lon="-1.50158">
        <ele>56</ele>
        <time>2021-10-23T15:04:59Z</time>
      </trkpt>
      <trkpt lat="47.22149" lon="-1.50174">
        <ele>56</ele>
        <time>2021-10-23T15:05:01Z</time>
      </trkpt>
      <trkpt lat="47.22146" lon="-1.50191">
        <ele>56</ele>
        <time>2021-10-23T15:05:03Z</time>
      </trkpt>
      <trkpt lat="47.22142" lon="-1.50207">
        <ele>56</ele>
        <time>2021-10-23T15:05:05Z</time>
      </trkpt>
      <trkpt lat="47.22138" lon="-1.50223">
        <ele>56</ele>
        <time>2021-10-23T15:05:07Z</time>
      </trkpt>
      <trkpt lat="47.22133" lon="-1.50238">
        <ele>56</ele>
        <time>2021-10-23T15:05:09Z</time>
      </trkpt>
      <trkpt lat="47.22129" lon="-1.50254">
        <ele>56</ele>
        <time>2021-10-23T15:05:11Z</time>
      </trkpt>
      <trkpt lat="47.22124" lon="-1.50273">
        <ele>55</ele>
        <time>2021-10-23T15:05:13Z</time>
      </trkpt>
      <trkpt lat="47.22117" lon="-1.50289">
        <ele>54</ele>
        <time>2021-10-23T15:05:15Z</time>
      </trkpt>
      <trkpt lat="47.2211" lon="-1.50303">
        <ele>54</ele>
        <time>2021-10-23T15:05:17Z</time>
      </trkpt>
      <trkpt lat="47.22103" lon="-1.50316">
        <ele>55</ele>
        <time>2021-10-23T15:05:19Z</time>
      </trkpt>
      <trkpt lat="47.22096" lon="-1.50329">
        <ele>55</ele>
        <time>2021-10-23T15:05:21Z</time>
      </trkpt>
      <trkpt lat="47.22091" lon="-1.50343">
        <ele>55</ele>
        <time>2021-10-23T15:05:23Z</time>
      </trkpt>
      <trkpt lat="47.22086" lon="-1.50359">
        <ele>54</ele>
        <time>2021-10-23T15:05:25Z</time>
      </trkpt>
      <trkpt lat="47.22083" lon="-1.50376">
        <ele>54</ele>
        <time>2021-10-23T15:05:27Z</time>
      </trkpt>
      <trkpt lat="47.22079" lon="-1.50392">
        <ele>55</ele>
        <time>2021-10-23T15:05:29Z</time>
      </trkpt>
      <trkpt lat="47.22076" lon="-1.50407">
        <ele>55</ele>
        <time>2021-10-23T15:05:31Z</time>
      </trkpt>
      <trkpt lat="47.22072" lon="-1.50423">
        <ele>54</ele>
        <time>2021-10-23T15:05:33Z</time>
      </trkpt>
      <trkpt lat="47.22069" lon="-1.5044">
        <ele>54</ele>
        <time>2021-10-23T15:05:35Z</time>
      </trkpt>
      <trkpt lat="47.22066" lon="-1.50457">
        <ele>53</ele>
        <time>2021-10-23T15:05:37Z</time>
      </trkpt>
      <trkpt lat="47.22064" lon="-1.50474">
        <ele>54</ele>
        <time>2021-10-23T15:05:39Z</time>
      </trkpt>
      <trkpt lat="47.22062" lon="-1.5049">
        <ele>54</ele>
        <time>2021-10-23T15:05:41Z</time>
      </trkpt>
      <trkpt lat="47.22061" lon="-1.50507">
        <ele>54</ele>
        <time>2021-10-23T15:05:43Z</time>
      </trkpt>
      <trkpt lat="47.2206" lon="-1.50524">
        <ele>54</ele>
        <time>2021-10-23T15:05:45Z</time>
      </trkpt>
      <trkpt lat="47.22059" lon="-1.50538">
        <ele>54</ele>
        <time>2021-10-23T15:05:47Z</time>
      </trkpt>
      <trkpt lat="47.22058" lon="-1.50556">
        <ele>53</ele>
        <time>2021-10-23T15:05:50Z</time>
      </trkpt>
      <trkpt lat="47.22058" lon="-1.5057">
        <ele>53</ele>
        <time>2021-10-23T15:05:53Z</time>
      </trkpt>
      <trkpt lat="47.22058" lon="-1.50589">
        <ele>53</ele>
        <time>2021-10-23T15:05:56Z</time>
      </trkpt>
      <trkpt lat="47.22056" lon="-1.50606">
        <ele>53</ele>
        <time>2021-10-23T15:05:58Z</time>
      </trkpt>
      <trkpt lat="47.22054" lon="-1.50626">
        <ele>54</ele>
        <time>2021-10-23T15:06:00Z</time>
      </trkpt>
      <trkpt lat="47.22052" lon="-1.50645">
        <ele>54</ele>
        <time>2021-10-23T15:06:02Z</time>
      </trkpt>
      <trkpt lat="47.2205" lon="-1.50662">
        <ele>55</ele>
        <time>2021-10-23T15:06:04Z</time>
      </trkpt>
      <trkpt lat="47.22048" lon="-1.50679">
        <ele>54</ele>
        <time>2021-10-23T15:06:06Z</time>
      </trkpt>
      <trkpt lat="47.22046" lon="-1.50696">
        <ele>55</ele>
        <time>2021-10-23T15:06:08Z</time>
      </trkpt>
      <trkpt lat="47.22044" lon="-1.50713">
        <ele>55</ele>
        <time>2021-10-23T15:06:10Z</time>
      </trkpt>
      <trkpt lat="47.22043" lon="-1.50731">
        <ele>55</ele>
        <time>2021-10-23T15:06:12Z</time>
      </trkpt>
      <trkpt lat="47.22041" lon="-1.50749">
        <ele>55</ele>
        <time>2021-10-23T15:06:14Z</time>
      </trkpt>
      <trkpt lat="47.22039" lon="-1.50765">
        <ele>56</ele>
        <time>2021-10-23T15:06:16Z</time>
      </trkpt>
      <trkpt lat="47.22037" lon="-1.50783">
        <ele>56</ele>
        <time>2021-10-23T15:06:18Z</time>
      </trkpt>
      <trkpt lat="47.22032" lon="-1.50799">
        <ele>56</ele>
        <time>2021-10-23T15:06:20Z</time>
      </trkpt>
      <trkpt lat="47.22026" lon="-1.50814">
        <ele>56</ele>
        <time>2021-10-23T15:06:22Z</time>
      </trkpt>
      <trkpt lat="47.22021" lon="-1.50827">
        <ele>57</ele>
        <time>2021-10-23T15:06:24Z</time>
      </trkpt>
      <trkpt lat="47.22016" lon="-1.50842">
        <ele>56</ele>
        <time>2021-10-23T15:06:26Z</time>
      </trkpt>
      <trkpt lat="47.22009" lon="-1.50859">
        <ele>56</ele>
        <time>2021-10-23T15:06:28Z</time>
      </trkpt>
      <trkpt lat="47.22004" lon="-1.50874">
        <ele>57</ele>
        <time>2021-10-23T15:06:30Z</time>
      </trkpt>
      <trkpt lat="47.21998" lon="-1.50891">
        <ele>56</ele>
        <time>2021-10-23T15:06:32Z</time>
      </trkpt>
      <trkpt lat="47.21993" lon="-1.50906">
        <ele>56</ele>
        <time>2021-10-23T15:06:34Z</time>
      </trkpt>
      <trkpt lat="47.21987" lon="-1.50923">
        <ele>55</ele>
        <time>2021-10-23T15:06:36Z</time>
      </trkpt>
      <trkpt lat="47.21983" lon="-1.50939">
        <ele>54</ele>
        <time>2021-10-23T15:06:38Z</time>
      </trkpt>
      <trkpt lat="47.21979" lon="-1.50955">
        <ele>54</ele>
        <time>2021-10-23T15:06:40Z</time>
      </trkpt>
      <trkpt lat="47.21974" lon="-1.50971">
        <ele>54</ele>
        <time>2021-10-23T15:06:42Z</time>
      </trkpt>
      <trkpt lat="47.21969" lon="-1.50987">
        <ele>54</ele>
        <time>2021-10-23T15:06:44Z</time>
      </trkpt>
      <trkpt lat="47.21964" lon="-1.51003">
        <ele>53</ele>
        <time>2021-10-23T15:06:46Z</time>
      </trkpt>
      <trkpt lat="47.21959" lon="-1.5102">
        <ele>53</ele>
        <time>2021-10-23T15:06:48Z</time>
      </trkpt>
      <trkpt lat="47.21955" lon="-1.51035">
        <ele>52</ele>
        <time>2021-10-23T15:06:50Z</time>
      </trkpt>
      <trkpt lat="47.21951" lon="-1.51049">
        <ele>52</ele>
        <time>2021-10-23T15:06:52Z</time>
      </trkpt>
      <trkpt lat="47.21943" lon="-1.51065">
        <ele>52</ele>
        <time>2021-10-23T15:06:55Z</time>
      </trkpt>
      <trkpt lat="47.21936" lon="-1.51076">
        <ele>52</ele>
        <time>2021-10-23T15:06:57Z</time>
      </trkpt>
      <trkpt lat="47.21929" lon="-1.51091">
        <ele>52</ele>
        <time>2021-10-23T15:06:59Z</time>
      </trkpt>
      <trkpt lat="47.21924" lon="-1.51107">
        <ele>52</ele>
        <time>2021-10-23T15:07:01Z</time>
      </trkpt>
      <trkpt lat="47.21918" lon="-1.51122">
        <ele>52</ele>
        <time>2021-10-23T15:07:03Z</time>
      </trkpt>
      <trkpt lat="47.21913" lon="-1.51138">
        <ele>52</ele>
        <time>2021-10-23T15:07:05Z</time>
      </trkpt>
      <trkpt lat="47.21908" lon="-1.51152">
        <ele>52</ele>
        <time>2021-10-23T15:07:07Z</time>
      </trkpt>
      <trkpt lat="47.21904" lon="-1.51167">
        <ele>52</ele>
        <time>2021-10-23T15:07:09Z</time>
      </trkpt>
      <trkpt lat="47.21899" lon="-1.51182">
        <ele>51</ele>
        <time>2021-10-23T15:07:11Z</time>
      </trkpt>
      <trkpt lat="47.21894" lon="-1.51197">
        <ele>51</ele>
        <time>2021-10-23T15:07:13Z</time>
      </trkpt>
      <trkpt lat="47.21889" lon="-1.51212">
        <ele>52</ele>
        <time>2021-10-23T15:07:15Z</time>
      </trkpt>
      <trkpt lat="47.21884" lon="-1.51229">
        <ele>52</ele>
        <time>2021-10-23T15:07:17Z</time>
      </trkpt>
      <trkpt lat="47.21879" lon="-1.51244">
        <ele>52</ele>
        <time>2021-10-23T15:07:19Z</time>
      </trkpt>
      <trkpt lat="47.21873" lon="-1.51259">
        <ele>51</ele>
        <time>2021-10-23T15:07:21Z</time>
      </trkpt>
      <trkpt lat="47.21869" lon="-1.51274">
        <ele>52</ele>
        <time>2021-10-23T15:07:23Z</time>
      </trkpt>
      <trkpt lat="47.21864" lon="-1.51289">
        <ele>52</ele>
        <time>2021-10-23T15:07:25Z</time>
      </trkpt>
      <trkpt lat="47.21859" lon="-1.51304">
        <ele>52</ele>
        <time>2021-10-23T15:07:27Z</time>
      </trkpt>
      <trkpt lat="47.21855" lon="-1.5132">
        <ele>52</ele>
        <time>2021-10-23T15:07:29Z</time>
      </trkpt>
      <trkpt lat="47.21851" lon="-1.51335">
        <ele>53</ele>
        <time>2021-10-23T15:07:31Z</time>
      </trkpt>
      <trkpt lat="47.21847" lon="-1.5135">
        <ele>52</ele>
        <time>2021-10-23T15:07:33Z</time>
      </trkpt>
      <trkpt lat="47.21842" lon="-1.51366">
        <ele>52</ele>
        <time>2021-10-23T15:07:35Z</time>
      </trkpt>
      <trkpt lat="47.21839" lon="-1.51381">
        <ele>53</ele>
        <time>2021-10-23T15:07:37Z</time>
      </trkpt>
      <trkpt lat="47.21835" lon="-1.51397">
        <ele>53</ele>
        <time>2021-10-23T15:07:39Z</time>
      </trkpt>
      <trkpt lat="47.2183" lon="-1.51422">
        <ele>53</ele>
        <time>2021-10-23T15:07:42Z</time>
      </trkpt>
      <trkpt lat="47.21827" lon="-1.51438">
        <ele>52</ele>
        <time>2021-10-23T15:07:44Z</time>
      </trkpt>
      <trkpt lat="47.21823" lon="-1.51454">
        <ele>52</ele>
        <time>2021-10-23T15:07:46Z</time>
      </trkpt>
      <trkpt lat="47.21819" lon="-1.5147">
        <ele>52</ele>
        <time>2021-10-23T15:07:48Z</time>
      </trkpt>
      <trkpt lat="47.21815" lon="-1.51486">
        <ele>52</ele>
        <time>2021-10-23T15:07:50Z</time>
      </trkpt>
      <trkpt lat="47.2181" lon="-1.51501">
        <ele>52</ele>
        <time>2021-10-23T15:07:52Z</time>
      </trkpt>
      <trkpt lat="47.21804" lon="-1.51514">
        <ele>52</ele>
        <time>2021-10-23T15:07:54Z</time>
      </trkpt>
      <trkpt lat="47.21798" lon="-1.51527">
        <ele>52</ele>
        <time>2021-10-23T15:07:56Z</time>
      </trkpt>
      <trkpt lat="47.21793" lon="-1.51541">
        <ele>51</ele>
        <time>2021-10-23T15:07:58Z</time>
      </trkpt>
      <trkpt lat="47.21788" lon="-1.51553">
        <ele>51</ele>
        <time>2021-10-23T15:08:00Z</time>
      </trkpt>
      <trkpt lat="47.21781" lon="-1.51567">
        <ele>51</ele>
        <time>2021-10-23T15:08:02Z</time>
      </trkpt>
      <trkpt lat="47.21774" lon="-1.5158">
        <ele>51</ele>
        <time>2021-10-23T15:08:04Z</time>
      </trkpt>
      <trkpt lat="47.21767" lon="-1.5159">
        <ele>52</ele>
        <time>2021-10-23T15:08:06Z</time>
      </trkpt>
      <trkpt lat="47.21757" lon="-1.51604">
        <ele>52</ele>
        <time>2021-10-23T15:08:09Z</time>
      </trkpt>
      <trkpt lat="47.21749" lon="-1.51619">
        <ele>52</ele>
        <time>2021-10-23T15:08:12Z</time>
      </trkpt>
      <trkpt lat="47.21741" lon="-1.51635">
        <ele>52</ele>
        <time>2021-10-23T15:08:15Z</time>
      </trkpt>
      <trkpt lat="47.21736" lon="-1.51646">
        <ele>51</ele>
        <time>2021-10-23T15:08:17Z</time>
      </trkpt>
      <trkpt lat="47.21731" lon="-1.51658">
        <ele>52</ele>
        <time>2021-10-23T15:08:19Z</time>
      </trkpt>
      <trkpt lat="47.21725" lon="-1.51671">
        <ele>52</ele>
        <time>2021-10-23T15:08:21Z</time>
      </trkpt>
      <trkpt lat="47.21719" lon="-1.51683">
        <ele>52</ele>
        <time>2021-10-23T15:08:23Z</time>
      </trkpt>
      <trkpt lat="47.21713" lon="-1.51696">
        <ele>52</ele>
        <time>2021-10-23T15:08:25Z</time>
      </trkpt>
      <trkpt lat="47.21708" lon="-1.51707">
        <ele>52</ele>
        <time>2021-10-23T15:08:27Z</time>
      </trkpt>
      <trkpt lat="47.21702" lon="-1.51726">
        <ele>53</ele>
        <time>2021-10-23T15:08:30Z</time>
      </trkpt>
      <trkpt lat="47.21696" lon="-1.5174">
        <ele>52</ele>
        <time>2021-10-23T15:08:32Z</time>
      </trkpt>
      <trkpt lat="47.21689" lon="-1.51755">
        <ele>51</ele>
        <time>2021-10-23T15:08:34Z</time>
      </trkpt>
      <trkpt lat="47.21682" lon="-1.5177">
        <ele>51</ele>
        <time>2021-10-23T15:08:36Z</time>
      </trkpt>
      <trkpt lat="47.21675" lon="-1.51783">
        <ele>51</ele>
        <time>2021-10-23T15:08:38Z</time>
      </trkpt>
      <trkpt lat="47.21669" lon="-1.51796">
        <ele>51</ele>
        <time>2021-10-23T15:08:40Z</time>
      </trkpt>
      <trkpt lat="47.21664" lon="-1.5181">
        <ele>51</ele>
        <time>2021-10-23T15:08:42Z</time>
      </trkpt>
      <trkpt lat="47.21658" lon="-1.51825">
        <ele>51</ele>
        <time>2021-10-23T15:08:44Z</time>
      </trkpt>
      <trkpt lat="47.21653" lon="-1.5184">
        <ele>51</ele>
        <time>2021-10-23T15:08:46Z</time>
      </trkpt>
      <trkpt lat="47.2165" lon="-1.51854">
        <ele>52</ele>
        <time>2021-10-23T15:08:48Z</time>
      </trkpt>
      <trkpt lat="47.21647" lon="-1.51868">
        <ele>52</ele>
        <time>2021-10-23T15:08:50Z</time>
      </trkpt>
      <trkpt lat="47.21644" lon="-1.51883">
        <ele>53</ele>
        <time>2021-10-23T15:08:52Z</time>
      </trkpt>
      <trkpt lat="47.21637" lon="-1.51896">
        <ele>53</ele>
        <time>2021-10-23T15:08:54Z</time>
      </trkpt>
      <trkpt lat="47.21631" lon="-1.5191">
        <ele>53</ele>
        <time>2021-10-23T15:08:56Z</time>
      </trkpt>
      <trkpt lat="47.21626" lon="-1.51924">
        <ele>53</ele>
        <time>2021-10-23T15:08:58Z</time>
      </trkpt>
      <trkpt lat="47.21621" lon="-1.51939">
        <ele>52</ele>
        <time>2021-10-23T15:09:00Z</time>
      </trkpt>
      <trkpt lat="47.21619" lon="-1.51953">
        <ele>52</ele>
        <time>2021-10-23T15:09:02Z</time>
      </trkpt>
      <trkpt lat="47.21616" lon="-1.51967">
        <ele>51</ele>
        <time>2021-10-23T15:09:04Z</time>
      </trkpt>
      <trkpt lat="47.21611" lon="-1.5198">
        <ele>52</ele>
        <time>2021-10-23T15:09:06Z</time>
      </trkpt>
      <trkpt lat="47.21604" lon="-1.51997">
        <ele>51</ele>
        <time>2021-10-23T15:09:09Z</time>
      </trkpt>
      <trkpt lat="47.21599" lon="-1.52013">
        <ele>52</ele>
        <time>2021-10-23T15:09:11Z</time>
      </trkpt>
      <trkpt lat="47.21593" lon="-1.5203">
        <ele>52</ele>
        <time>2021-10-23T15:09:13Z</time>
      </trkpt>
      <trkpt lat="47.21588" lon="-1.52046">
        <ele>52</ele>
        <time>2021-10-23T15:09:15Z</time>
      </trkpt>
      <trkpt lat="47.21583" lon="-1.52062">
        <ele>52</ele>
        <time>2021-10-23T15:09:17Z</time>
      </trkpt>
      <trkpt lat="47.21578" lon="-1.52077">
        <ele>52</ele>
        <time>2021-10-23T15:09:19Z</time>
      </trkpt>
      <trkpt lat="47.21573" lon="-1.52092">
        <ele>52</ele>
        <time>2021-10-23T15:09:21Z</time>
      </trkpt>
      <trkpt lat="47.21568" lon="-1.52107">
        <ele>52</ele>
        <time>2021-10-23T15:09:23Z</time>
      </trkpt>
      <trkpt lat="47.21562" lon="-1.52121">
        <ele>52</ele>
        <time>2021-10-23T15:09:25Z</time>
      </trkpt>
      <trkpt lat="47.21557" lon="-1.52137">
        <ele>52</ele>
        <time>2021-10-23T15:09:27Z</time>
      </trkpt>
      <trkpt lat="47.21552" lon="-1.52153">
        <ele>52</ele>
        <time>2021-10-23T15:09:29Z</time>
      </trkpt>
      <trkpt lat="47.21547" lon="-1.5217">
        <ele>52</ele>
        <time>2021-10-23T15:09:31Z</time>
      </trkpt>
      <trkpt lat="47.21542" lon="-1.52187">
        <ele>52</ele>
        <time>2021-10-23T15:09:33Z</time>
      </trkpt>
      <trkpt lat="47.21536" lon="-1.52203">
        <ele>52</ele>
        <time>2021-10-23T15:09:35Z</time>
      </trkpt>
      <trkpt lat="47.21531" lon="-1.5222">
        <ele>52</ele>
        <time>2021-10-23T15:09:37Z</time>
      </trkpt>
      <trkpt lat="47.21525" lon="-1.52236">
        <ele>52</ele>
        <time>2021-10-23T15:09:39Z</time>
      </trkpt>
      <trkpt lat="47.2152" lon="-1.52252">
        <ele>52</ele>
        <time>2021-10-23T15:09:41Z</time>
      </trkpt>
      <trkpt lat="47.21515" lon="-1.52269">
        <ele>52</ele>
        <time>2021-10-23T15:09:43Z</time>
      </trkpt>
      <trkpt lat="47.21509" lon="-1.52287">
        <ele>52</ele>
        <time>2021-10-23T15:09:45Z</time>
      </trkpt>
      <trkpt lat="47.21505" lon="-1.52305">
        <ele>52</ele>
        <time>2021-10-23T15:09:47Z</time>
      </trkpt>
      <trkpt lat="47.21499" lon="-1.52322">
        <ele>53</ele>
        <time>2021-10-23T15:09:49Z</time>
      </trkpt>
      <trkpt lat="47.21494" lon="-1.52339">
        <ele>53</ele>
        <time>2021-10-23T15:09:51Z</time>
      </trkpt>
      <trkpt lat="47.21489" lon="-1.52356">
        <ele>53</ele>
        <time>2021-10-23T15:09:53Z</time>
      </trkpt>
      <trkpt lat="47.21483" lon="-1.52373">
        <ele>53</ele>
        <time>2021-10-23T15:09:55Z</time>
      </trkpt>
      <trkpt lat="47.21478" lon="-1.5239">
        <ele>53</ele>
        <time>2021-10-23T15:09:57Z</time>
      </trkpt>
      <trkpt lat="47.21472" lon="-1.52407">
        <ele>52</ele>
        <time>2021-10-23T15:09:59Z</time>
      </trkpt>
      <trkpt lat="47.21466" lon="-1.52424">
        <ele>52</ele>
        <time>2021-10-23T15:10:01Z</time>
      </trkpt>
      <trkpt lat="47.2146" lon="-1.5244">
        <ele>51</ele>
        <time>2021-10-23T15:10:03Z</time>
      </trkpt>
      <trkpt lat="47.21455" lon="-1.52457">
        <ele>51</ele>
        <time>2021-10-23T15:10:05Z</time>
      </trkpt>
      <trkpt lat="47.21449" lon="-1.52474">
        <ele>51</ele>
        <time>2021-10-23T15:10:07Z</time>
      </trkpt>
      <trkpt lat="47.21444" lon="-1.52492">
        <ele>51</ele>
        <time>2021-10-23T15:10:09Z</time>
      </trkpt>
      <trkpt lat="47.21438" lon="-1.52509">
        <ele>51</ele>
        <time>2021-10-23T15:10:11Z</time>
      </trkpt>
      <trkpt lat="47.21432" lon="-1.52525">
        <ele>52</ele>
        <time>2021-10-23T15:10:13Z</time>
      </trkpt>
      <trkpt lat="47.21427" lon="-1.52543">
        <ele>52</ele>
        <time>2021-10-23T15:10:15Z</time>
      </trkpt>
      <trkpt lat="47.21422" lon="-1.5256">
        <ele>52</ele>
        <time>2021-10-23T15:10:17Z</time>
      </trkpt>
      <trkpt lat="47.21417" lon="-1.52577">
        <ele>52</ele>
        <time>2021-10-23T15:10:19Z</time>
      </trkpt>
      <trkpt lat="47.21412" lon="-1.52594">
        <ele>52</ele>
        <time>2021-10-23T15:10:21Z</time>
      </trkpt>
      <trkpt lat="47.21406" lon="-1.5261">
        <ele>51</ele>
        <time>2021-10-23T15:10:23Z</time>
      </trkpt>
      <trkpt lat="47.214" lon="-1.52626">
        <ele>51</ele>
        <time>2021-10-23T15:10:25Z</time>
      </trkpt>
      <trkpt lat="47.21395" lon="-1.52643">
        <ele>50</ele>
        <time>2021-10-23T15:10:27Z</time>
      </trkpt>
      <trkpt lat="47.21389" lon="-1.5266">
        <ele>49</ele>
        <time>2021-10-23T15:10:29Z</time>
      </trkpt>
      <trkpt lat="47.21385" lon="-1.52678">
        <ele>49</ele>
        <time>2021-10-23T15:10:31Z</time>
      </trkpt>
      <trkpt lat="47.21381" lon="-1.52696">
        <ele>50</ele>
        <time>2021-10-23T15:10:33Z</time>
      </trkpt>
      <trkpt lat="47.21375" lon="-1.52714">
        <ele>51</ele>
        <time>2021-10-23T15:10:35Z</time>
      </trkpt>
      <trkpt lat="47.21372" lon="-1.5273">
        <ele>51</ele>
        <time>2021-10-23T15:10:37Z</time>
      </trkpt>
      <trkpt lat="47.21369" lon="-1.52749">
        <ele>50</ele>
        <time>2021-10-23T15:10:39Z</time>
      </trkpt>
      <trkpt lat="47.21366" lon="-1.52768">
        <ele>50</ele>
        <time>2021-10-23T15:10:41Z</time>
      </trkpt>
      <trkpt lat="47.21364" lon="-1.52785">
        <ele>50</ele>
        <time>2021-10-23T15:10:43Z</time>
      </trkpt>
      <trkpt lat="47.21362" lon="-1.528">
        <ele>51</ele>
        <time>2021-10-23T15:10:45Z</time>
      </trkpt>
      <trkpt lat="47.21359" lon="-1.52816">
        <ele>51</ele>
        <time>2021-10-23T15:10:47Z</time>
      </trkpt>
      <trkpt lat="47.21355" lon="-1.52833">
        <ele>51</ele>
        <time>2021-10-23T15:10:49Z</time>
      </trkpt>
      <trkpt lat="47.21351" lon="-1.52851">
        <ele>51</ele>
        <time>2021-10-23T15:10:51Z</time>
      </trkpt>
      <trkpt lat="47.21348" lon="-1.52869">
        <ele>51</ele>
        <time>2021-10-23T15:10:53Z</time>
      </trkpt>
      <trkpt lat="47.21345" lon="-1.52888">
        <ele>51</ele>
        <time>2021-10-23T15:10:55Z</time>
      </trkpt>
      <trkpt lat="47.21341" lon="-1.52906">
        <ele>51</ele>
        <time>2021-10-23T15:10:57Z</time>
      </trkpt>
      <trkpt lat="47.21338" lon="-1.52926">
        <ele>50</ele>
        <time>2021-10-23T15:10:59Z</time>
      </trkpt>
      <trkpt lat="47.21337" lon="-1.52944">
        <ele>50</ele>
        <time>2021-10-23T15:11:01Z</time>
      </trkpt>
      <trkpt lat="47.21336" lon="-1.5296">
        <ele>50</ele>
        <time>2021-10-23T15:11:03Z</time>
      </trkpt>
      <trkpt lat="47.21333" lon="-1.52979">
        <ele>50</ele>
        <time>2021-10-23T15:11:05Z</time>
      </trkpt>
      <trkpt lat="47.21333" lon="-1.52999">
        <ele>50</ele>
        <time>2021-10-23T15:11:07Z</time>
      </trkpt>
      <trkpt lat="47.21332" lon="-1.53017">
        <ele>50</ele>
        <time>2021-10-23T15:11:09Z</time>
      </trkpt>
      <trkpt lat="47.2133" lon="-1.53035">
        <ele>51</ele>
        <time>2021-10-23T15:11:11Z</time>
      </trkpt>
      <trkpt lat="47.21328" lon="-1.53053">
        <ele>51</ele>
        <time>2021-10-23T15:11:13Z</time>
      </trkpt>
      <trkpt lat="47.21327" lon="-1.53071">
        <ele>51</ele>
        <time>2021-10-23T15:11:15Z</time>
      </trkpt>
      <trkpt lat="47.21326" lon="-1.53088">
        <ele>51</ele>
        <time>2021-10-23T15:11:17Z</time>
      </trkpt>
      <trkpt lat="47.21324" lon="-1.53105">
        <ele>51</ele>
        <time>2021-10-23T15:11:19Z</time>
      </trkpt>
      <trkpt lat="47.21321" lon="-1.53122">
        <ele>51</ele>
        <time>2021-10-23T15:11:21Z</time>
      </trkpt>
      <trkpt lat="47.21318" lon="-1.53139">
        <ele>50</ele>
        <time>2021-10-23T15:11:23Z</time>
      </trkpt>
      <trkpt lat="47.21315" lon="-1.53157">
        <ele>50</ele>
        <time>2021-10-23T15:11:25Z</time>
      </trkpt>
      <trkpt lat="47.21313" lon="-1.53174">
        <ele>51</ele>
        <time>2021-10-23T15:11:27Z</time>
      </trkpt>
      <trkpt lat="47.21311" lon="-1.53191">
        <ele>51</ele>
        <time>2021-10-23T15:11:29Z</time>
      </trkpt>
      <trkpt lat="47.21309" lon="-1.53209">
        <ele>50</ele>
        <time>2021-10-23T15:11:31Z</time>
      </trkpt>
      <trkpt lat="47.21308" lon="-1.53228">
        <ele>50</ele>
        <time>2021-10-23T15:11:33Z</time>
      </trkpt>
      <trkpt lat="47.21307" lon="-1.53246">
        <ele>50</ele>
        <time>2021-10-23T15:11:35Z</time>
      </trkpt>
      <trkpt lat="47.21307" lon="-1.53264">
        <ele>50</ele>
        <time>2021-10-23T15:11:37Z</time>
      </trkpt>
      <trkpt lat="47.21307" lon="-1.53281">
        <ele>50</ele>
        <time>2021-10-23T15:11:39Z</time>
      </trkpt>
      <trkpt lat="47.21307" lon="-1.53298">
        <ele>51</ele>
        <time>2021-10-23T15:11:41Z</time>
      </trkpt>
      <trkpt lat="47.21306" lon="-1.53316">
        <ele>51</ele>
        <time>2021-10-23T15:11:43Z</time>
      </trkpt>
      <trkpt lat="47.21303" lon="-1.53334">
        <ele>51</ele>
        <time>2021-10-23T15:11:45Z</time>
      </trkpt>
      <trkpt lat="47.213" lon="-1.53352">
        <ele>51</ele>
        <time>2021-10-23T15:11:47Z</time>
      </trkpt>
      <trkpt lat="47.21297" lon="-1.5337">
        <ele>51</ele>
        <time>2021-10-23T15:11:49Z</time>
      </trkpt>
      <trkpt lat="47.21294" lon="-1.53388">
        <ele>51</ele>
        <time>2021-10-23T15:11:51Z</time>
      </trkpt>
      <trkpt lat="47.21293" lon="-1.53406">
        <ele>51</ele>
        <time>2021-10-23T15:11:53Z</time>
      </trkpt>
      <trkpt lat="47.21291" lon="-1.53423">
        <ele>51</ele>
        <time>2021-10-23T15:11:55Z</time>
      </trkpt>
      <trkpt lat="47.21289" lon="-1.53441">
        <ele>50</ele>
        <time>2021-10-23T15:11:57Z</time>
      </trkpt>
      <trkpt lat="47.2129" lon="-1.53457">
        <ele>51</ele>
        <time>2021-10-23T15:11:59Z</time>
      </trkpt>
      <trkpt lat="47.21295" lon="-1.53473">
        <ele>50</ele>
        <time>2021-10-23T15:12:01Z</time>
      </trkpt>
      <trkpt lat="47.21298" lon="-1.53488">
        <ele>49</ele>
        <time>2021-10-23T15:12:03Z</time>
      </trkpt>
      <trkpt lat="47.21298" lon="-1.53506">
        <ele>50</ele>
        <time>2021-10-23T15:12:05Z</time>
      </trkpt>
      <trkpt lat="47.21299" lon="-1.53523">
        <ele>50</ele>
        <time>2021-10-23T15:12:07Z</time>
      </trkpt>
      <trkpt lat="47.213" lon="-1.5354">
        <ele>50</ele>
        <time>2021-10-23T15:12:09Z</time>
      </trkpt>
      <trkpt lat="47.213" lon="-1.53556">
        <ele>51</ele>
        <time>2021-10-23T15:12:11Z</time>
      </trkpt>
      <trkpt lat="47.21301" lon="-1.53573">
        <ele>51</ele>
        <time>2021-10-23T15:12:13Z</time>
      </trkpt>
      <trkpt lat="47.21301" lon="-1.53589">
        <ele>51</ele>
        <time>2021-10-23T15:12:15Z</time>
      </trkpt>
      <trkpt lat="47.21301" lon="-1.53604">
        <ele>51</ele>
        <time>2021-10-23T15:12:17Z</time>
      </trkpt>
      <trkpt lat="47.21301" lon="-1.53618">
        <ele>51</ele>
        <time>2021-10-23T15:12:19Z</time>
      </trkpt>
      <trkpt lat="47.21294" lon="-1.53631">
        <ele>52</ele>
        <time>2021-10-23T15:12:22Z</time>
      </trkpt>
      <trkpt lat="47.21293" lon="-1.53647">
        <ele>52</ele>
        <time>2021-10-23T15:12:30Z</time>
      </trkpt>
      <trkpt lat="47.21285" lon="-1.53657">
        <ele>53</ele>
        <time>2021-10-23T15:12:33Z</time>
      </trkpt>
      <trkpt lat="47.21275" lon="-1.53655">
        <ele>55</ele>
        <time>2021-10-23T15:12:35Z</time>
      </trkpt>
      <trkpt lat="47.21263" lon="-1.53653">
        <ele>57</ele>
        <time>2021-10-23T15:12:37Z</time>
      </trkpt>
      <trkpt lat="47.21253" lon="-1.5365">
        <ele>58</ele>
        <time>2021-10-23T15:12:39Z</time>
      </trkpt>
      <trkpt lat="47.21243" lon="-1.53644">
        <ele>59</ele>
        <time>2021-10-23T15:12:41Z</time>
      </trkpt>
      <trkpt lat="47.21231" lon="-1.53637">
        <ele>59</ele>
        <time>2021-10-23T15:12:43Z</time>
      </trkpt>
      <trkpt lat="47.21219" lon="-1.5363">
        <ele>59</ele>
        <time>2021-10-23T15:12:45Z</time>
      </trkpt>
      <trkpt lat="47.21209" lon="-1.53623">
        <ele>59</ele>
        <time>2021-10-23T15:12:47Z</time>
      </trkpt>
      <trkpt lat="47.21197" lon="-1.53617">
        <ele>59</ele>
        <time>2021-10-23T15:12:49Z</time>
      </trkpt>
      <trkpt lat="47.21186" lon="-1.53612">
        <ele>59</ele>
        <time>2021-10-23T15:12:51Z</time>
      </trkpt>
      <trkpt lat="47.21175" lon="-1.53606">
        <ele>59</ele>
        <time>2021-10-23T15:12:53Z</time>
      </trkpt>
      <trkpt lat="47.21164" lon="-1.53601">
        <ele>59</ele>
        <time>2021-10-23T15:12:55Z</time>
      </trkpt>
      <trkpt lat="47.21153" lon="-1.53595">
        <ele>59</ele>
        <time>2021-10-23T15:12:57Z</time>
      </trkpt>
      <trkpt lat="47.21142" lon="-1.53589">
        <ele>59</ele>
        <time>2021-10-23T15:12:59Z</time>
      </trkpt>
      <trkpt lat="47.21131" lon="-1.53583">
        <ele>59</ele>
        <time>2021-10-23T15:13:01Z</time>
      </trkpt>
      <trkpt lat="47.2112" lon="-1.53578">
        <ele>59</ele>
        <time>2021-10-23T15:13:03Z</time>
      </trkpt>
      <trkpt lat="47.21109" lon="-1.53572">
        <ele>59</ele>
        <time>2021-10-23T15:13:05Z</time>
      </trkpt>
      <trkpt lat="47.21098" lon="-1.53567">
        <ele>58</ele>
        <time>2021-10-23T15:13:07Z</time>
      </trkpt>
      <trkpt lat="47.21086" lon="-1.5356">
        <ele>57</ele>
        <time>2021-10-23T15:13:09Z</time>
      </trkpt>
      <trkpt lat="47.21074" lon="-1.53557">
        <ele>57</ele>
        <time>2021-10-23T15:13:11Z</time>
      </trkpt>
      <trkpt lat="47.21062" lon="-1.53566">
        <ele>57</ele>
        <time>2021-10-23T15:13:13Z</time>
      </trkpt>
      <trkpt lat="47.21055" lon="-1.53582">
        <ele>57</ele>
        <time>2021-10-23T15:13:15Z</time>
      </trkpt>
      <trkpt lat="47.21054" lon="-1.53602">
        <ele>56</ele>
        <time>2021-10-23T15:13:17Z</time>
      </trkpt>
      <trkpt lat="47.21054" lon="-1.53622">
        <ele>56</ele>
        <time>2021-10-23T15:13:19Z</time>
      </trkpt>
      <trkpt lat="47.21053" lon="-1.53641">
        <ele>56</ele>
        <time>2021-10-23T15:13:21Z</time>
      </trkpt>
      <trkpt lat="47.21051" lon="-1.53661">
        <ele>56</ele>
        <time>2021-10-23T15:13:23Z</time>
      </trkpt>
      <trkpt lat="47.21048" lon="-1.53679">
        <ele>56</ele>
        <time>2021-10-23T15:13:25Z</time>
      </trkpt>
      <trkpt lat="47.21045" lon="-1.53697">
        <ele>56</ele>
        <time>2021-10-23T15:13:27Z</time>
      </trkpt>
      <trkpt lat="47.21041" lon="-1.53714">
        <ele>56</ele>
        <time>2021-10-23T15:13:29Z</time>
      </trkpt>
      <trkpt lat="47.21038" lon="-1.53733">
        <ele>56</ele>
        <time>2021-10-23T15:13:31Z</time>
      </trkpt>
      <trkpt lat="47.21034" lon="-1.53751">
        <ele>56</ele>
        <time>2021-10-23T15:13:33Z</time>
      </trkpt>
      <trkpt lat="47.21031" lon="-1.53769">
        <ele>55</ele>
        <time>2021-10-23T15:13:35Z</time>
      </trkpt>
      <trkpt lat="47.21026" lon="-1.53784">
        <ele>55</ele>
        <time>2021-10-23T15:13:37Z</time>
      </trkpt>
      <trkpt lat="47.21024" lon="-1.53799">
        <ele>54</ele>
        <time>2021-10-23T15:13:39Z</time>
      </trkpt>
      <trkpt lat="47.21025" lon="-1.53817">
        <ele>54</ele>
        <time>2021-10-23T15:13:41Z</time>
      </trkpt>
      <trkpt lat="47.2102" lon="-1.53834">
        <ele>55</ele>
        <time>2021-10-23T15:13:43Z</time>
      </trkpt>
      <trkpt lat="47.21013" lon="-1.53851">
        <ele>55</ele>
        <time>2021-10-23T15:13:45Z</time>
      </trkpt>
      <trkpt lat="47.21007" lon="-1.53867">
        <ele>55</ele>
        <time>2021-10-23T15:13:47Z</time>
      </trkpt>
      <trkpt lat="47.21001" lon="-1.53883">
        <ele>56</ele>
        <time>2021-10-23T15:13:49Z</time>
      </trkpt>
      <trkpt lat="47.20997" lon="-1.53902">
        <ele>56</ele>
        <time>2021-10-23T15:13:51Z</time>
      </trkpt>
      <trkpt lat="47.20995" lon="-1.53923">
        <ele>55</ele>
        <time>2021-10-23T15:13:53Z</time>
      </trkpt>
      <trkpt lat="47.20991" lon="-1.53941">
        <ele>54</ele>
        <time>2021-10-23T15:13:55Z</time>
      </trkpt>
      <trkpt lat="47.20986" lon="-1.53958">
        <ele>55</ele>
        <time>2021-10-23T15:13:57Z</time>
      </trkpt>
      <trkpt lat="47.20981" lon="-1.53977">
        <ele>55</ele>
        <time>2021-10-23T15:13:59Z</time>
      </trkpt>
      <trkpt lat="47.20976" lon="-1.53995">
        <ele>54</ele>
        <time>2021-10-23T15:14:01Z</time>
      </trkpt>
      <trkpt lat="47.20971" lon="-1.54011">
        <ele>54</ele>
        <time>2021-10-23T15:14:03Z</time>
      </trkpt>
      <trkpt lat="47.20966" lon="-1.54029">
        <ele>54</ele>
        <time>2021-10-23T15:14:05Z</time>
      </trkpt>
      <trkpt lat="47.20961" lon="-1.54047">
        <ele>55</ele>
        <time>2021-10-23T15:14:07Z</time>
      </trkpt>
      <trkpt lat="47.20955" lon="-1.54064">
        <ele>55</ele>
        <time>2021-10-23T15:14:09Z</time>
      </trkpt>
      <trkpt lat="47.20949" lon="-1.54081">
        <ele>55</ele>
        <time>2021-10-23T15:14:11Z</time>
      </trkpt>
      <trkpt lat="47.20944" lon="-1.54099">
        <ele>55</ele>
        <time>2021-10-23T15:14:13Z</time>
      </trkpt>
      <trkpt lat="47.20938" lon="-1.54117">
        <ele>55</ele>
        <time>2021-10-23T15:14:15Z</time>
      </trkpt>
      <trkpt lat="47.20933" lon="-1.54134">
        <ele>55</ele>
        <time>2021-10-23T15:14:17Z</time>
      </trkpt>
      <trkpt lat="47.20928" lon="-1.5415">
        <ele>56</ele>
        <time>2021-10-23T15:14:19Z</time>
      </trkpt>
      <trkpt lat="47.20922" lon="-1.54168">
        <ele>56</ele>
        <time>2021-10-23T15:14:21Z</time>
      </trkpt>
      <trkpt lat="47.20917" lon="-1.54185">
        <ele>56</ele>
        <time>2021-10-23T15:14:23Z</time>
      </trkpt>
      <trkpt lat="47.20911" lon="-1.54199">
        <ele>57</ele>
        <time>2021-10-23T15:14:25Z</time>
      </trkpt>
      <trkpt lat="47.20906" lon="-1.54216">
        <ele>58</ele>
        <time>2021-10-23T15:14:27Z</time>
      </trkpt>
      <trkpt lat="47.20901" lon="-1.54233">
        <ele>58</ele>
        <time>2021-10-23T15:14:29Z</time>
      </trkpt>
      <trkpt lat="47.20897" lon="-1.54251">
        <ele>58</ele>
        <time>2021-10-23T15:14:31Z</time>
      </trkpt>
      <trkpt lat="47.20891" lon="-1.54266">
        <ele>58</ele>
        <time>2021-10-23T15:14:33Z</time>
      </trkpt>
      <trkpt lat="47.20885" lon="-1.54281">
        <ele>58</ele>
        <time>2021-10-23T15:14:35Z</time>
      </trkpt>
      <trkpt lat="47.2088" lon="-1.54297">
        <ele>58</ele>
        <time>2021-10-23T15:14:37Z</time>
      </trkpt>
      <trkpt lat="47.20875" lon="-1.54312">
        <ele>58</ele>
        <time>2021-10-23T15:14:39Z</time>
      </trkpt>
      <trkpt lat="47.2087" lon="-1.54326">
        <ele>58</ele>
        <time>2021-10-23T15:14:41Z</time>
      </trkpt>
      <trkpt lat="47.20864" lon="-1.54342">
        <ele>59</ele>
        <time>2021-10-23T15:14:43Z</time>
      </trkpt>
      <trkpt lat="47.20859" lon="-1.54359">
        <ele>60</ele>
        <time>2021-10-23T15:14:45Z</time>
      </trkpt>
      <trkpt lat="47.20855" lon="-1.54377">
        <ele>60</ele>
        <time>2021-10-23T15:14:47Z</time>
      </trkpt>
      <trkpt lat="47.2085" lon="-1.54394">
        <ele>60</ele>
        <time>2021-10-23T15:14:49Z</time>
      </trkpt>
      <trkpt lat="47.20844" lon="-1.54411">
        <ele>60</ele>
        <time>2021-10-23T15:14:51Z</time>
      </trkpt>
      <trkpt lat="47.20838" lon="-1.54429">
        <ele>62</ele>
        <time>2021-10-23T15:14:53Z</time>
      </trkpt>
      <trkpt lat="47.20833" lon="-1.54444">
        <ele>62</ele>
        <time>2021-10-23T15:14:55Z</time>
      </trkpt>
      <trkpt lat="47.20828" lon="-1.5446">
        <ele>62</ele>
        <time>2021-10-23T15:14:57Z</time>
      </trkpt>
      <trkpt lat="47.20824" lon="-1.54476">
        <ele>61</ele>
        <time>2021-10-23T15:14:59Z</time>
      </trkpt>
      <trkpt lat="47.20818" lon="-1.54493">
        <ele>60</ele>
        <time>2021-10-23T15:15:01Z</time>
      </trkpt>
      <trkpt lat="47.20813" lon="-1.5451">
        <ele>59</ele>
        <time>2021-10-23T15:15:03Z</time>
      </trkpt>
      <trkpt lat="47.20807" lon="-1.54527">
        <ele>59</ele>
        <time>2021-10-23T15:15:05Z</time>
      </trkpt>
      <trkpt lat="47.20803" lon="-1.54543">
        <ele>59</ele>
        <time>2021-10-23T15:15:07Z</time>
      </trkpt>
      <trkpt lat="47.20798" lon="-1.54559">
        <ele>59</ele>
        <time>2021-10-23T15:15:09Z</time>
      </trkpt>
      <trkpt lat="47.20792" lon="-1.54576">
        <ele>59</ele>
        <time>2021-10-23T15:15:11Z</time>
      </trkpt>
      <trkpt lat="47.20787" lon="-1.54593">
        <ele>59</ele>
        <time>2021-10-23T15:15:13Z</time>
      </trkpt>
      <trkpt lat="47.20782" lon="-1.5461">
        <ele>59</ele>
        <time>2021-10-23T15:15:15Z</time>
      </trkpt>
      <trkpt lat="47.20777" lon="-1.54627">
        <ele>59</ele>
        <time>2021-10-23T15:15:17Z</time>
      </trkpt>
      <trkpt lat="47.20771" lon="-1.54644">
        <ele>58</ele>
        <time>2021-10-23T15:15:19Z</time>
      </trkpt>
      <trkpt lat="47.20766" lon="-1.54661">
        <ele>57</ele>
        <time>2021-10-23T15:15:21Z</time>
      </trkpt>
      <trkpt lat="47.20761" lon="-1.54677">
        <ele>57</ele>
        <time>2021-10-23T15:15:23Z</time>
      </trkpt>
      <trkpt lat="47.20755" lon="-1.54694">
        <ele>57</ele>
        <time>2021-10-23T15:15:25Z</time>
      </trkpt>
      <trkpt lat="47.20751" lon="-1.54711">
        <ele>57</ele>
        <time>2021-10-23T15:15:27Z</time>
      </trkpt>
      <trkpt lat="47.20745" lon="-1.54728">
        <ele>56</ele>
        <time>2021-10-23T15:15:29Z</time>
      </trkpt>
      <trkpt lat="47.2074" lon="-1.54743">
        <ele>56</ele>
        <time>2021-10-23T15:15:31Z</time>
      </trkpt>
      <trkpt lat="47.20735" lon="-1.54759">
        <ele>56</ele>
        <time>2021-10-23T15:15:33Z</time>
      </trkpt>
      <trkpt lat="47.2073" lon="-1.54773">
        <ele>55</ele>
        <time>2021-10-23T15:15:35Z</time>
      </trkpt>
      <trkpt lat="47.20725" lon="-1.54786">
        <ele>56</ele>
        <time>2021-10-23T15:15:37Z</time>
      </trkpt>
      <trkpt lat="47.2072" lon="-1.54797">
        <ele>56</ele>
        <time>2021-10-23T15:15:39Z</time>
      </trkpt>
      <trkpt lat="47.20714" lon="-1.54815">
        <ele>55</ele>
        <time>2021-10-23T15:15:42Z</time>
      </trkpt>
      <trkpt lat="47.2071" lon="-1.54831">
        <ele>55</ele>
        <time>2021-10-23T15:15:44Z</time>
      </trkpt>
      <trkpt lat="47.20707" lon="-1.54847">
        <ele>55</ele>
        <time>2021-10-23T15:15:46Z</time>
      </trkpt>
      <trkpt lat="47.20703" lon="-1.54861">
        <ele>55</ele>
        <time>2021-10-23T15:15:48Z</time>
      </trkpt>
      <trkpt lat="47.207" lon="-1.54874">
        <ele>55</ele>
        <time>2021-10-23T15:15:50Z</time>
      </trkpt>
      <trkpt lat="47.2069" lon="-1.54876">
        <ele>55</ele>
        <time>2021-10-23T15:15:53Z</time>
      </trkpt>
      <trkpt lat="47.20681" lon="-1.54866">
        <ele>55</ele>
        <time>2021-10-23T15:15:55Z</time>
      </trkpt>
      <trkpt lat="47.20671" lon="-1.54858">
        <ele>55</ele>
        <time>2021-10-23T15:15:57Z</time>
      </trkpt>
      <trkpt lat="47.20661" lon="-1.54851">
        <ele>55</ele>
        <time>2021-10-23T15:15:59Z</time>
      </trkpt>
      <trkpt lat="47.20652" lon="-1.54843">
        <ele>56</ele>
        <time>2021-10-23T15:16:01Z</time>
      </trkpt>
      <trkpt lat="47.20642" lon="-1.54836">
        <ele>56</ele>
        <time>2021-10-23T15:16:03Z</time>
      </trkpt>
      <trkpt lat="47.20633" lon="-1.54828">
        <ele>56</ele>
        <time>2021-10-23T15:16:05Z</time>
      </trkpt>
      <trkpt lat="47.20621" lon="-1.5482">
        <ele>56</ele>
        <time>2021-10-23T15:16:07Z</time>
      </trkpt>
      <trkpt lat="47.2061" lon="-1.5481">
        <ele>56</ele>
        <time>2021-10-23T15:16:09Z</time>
      </trkpt>
      <trkpt lat="47.20597" lon="-1.54803">
        <ele>56</ele>
        <time>2021-10-23T15:16:11Z</time>
      </trkpt>
      <trkpt lat="47.20585" lon="-1.54793">
        <ele>56</ele>
        <time>2021-10-23T15:16:13Z</time>
      </trkpt>
      <trkpt lat="47.20573" lon="-1.54784">
        <ele>56</ele>
        <time>2021-10-23T15:16:15Z</time>
      </trkpt>
      <trkpt lat="47.20561" lon="-1.54777">
        <ele>56</ele>
        <time>2021-10-23T15:16:17Z</time>
      </trkpt>
      <trkpt lat="47.20549" lon="-1.54771">
        <ele>56</ele>
        <time>2021-10-23T15:16:19Z</time>
      </trkpt>
      <trkpt lat="47.20538" lon="-1.54766">
        <ele>55</ele>
        <time>2021-10-23T15:16:21Z</time>
      </trkpt>
      <trkpt lat="47.20527" lon="-1.54767">
        <ele>55</ele>
        <time>2021-10-23T15:16:23Z</time>
      </trkpt>
      <trkpt lat="47.20518" lon="-1.54784">
        <ele>56</ele>
        <time>2021-10-23T15:16:25Z</time>
      </trkpt>
      <trkpt lat="47.20513" lon="-1.54802">
        <ele>57</ele>
        <time>2021-10-23T15:16:27Z</time>
      </trkpt>
      <trkpt lat="47.20507" lon="-1.54822">
        <ele>57</ele>
        <time>2021-10-23T15:16:29Z</time>
      </trkpt>
      <trkpt lat="47.20502" lon="-1.54843">
        <ele>56</ele>
        <time>2021-10-23T15:16:31Z</time>
      </trkpt>
      <trkpt lat="47.20498" lon="-1.5486">
        <ele>56</ele>
        <time>2021-10-23T15:16:33Z</time>
      </trkpt>
      <trkpt lat="47.20493" lon="-1.54878">
        <ele>56</ele>
        <time>2021-10-23T15:16:35Z</time>
      </trkpt>
      <trkpt lat="47.20488" lon="-1.54895">
        <ele>56</ele>
        <time>2021-10-23T15:16:37Z</time>
      </trkpt>
      <trkpt lat="47.20483" lon="-1.54912">
        <ele>56</ele>
        <time>2021-10-23T15:16:39Z</time>
      </trkpt>
      <trkpt lat="47.20479" lon="-1.54929">
        <ele>56</ele>
        <time>2021-10-23T15:16:41Z</time>
      </trkpt>
      <trkpt lat="47.20475" lon="-1.54947">
        <ele>56</ele>
        <time>2021-10-23T15:16:43Z</time>
      </trkpt>
      <trkpt lat="47.2047" lon="-1.54964">
        <ele>56</ele>
        <time>2021-10-23T15:16:45Z</time>
      </trkpt>
      <trkpt lat="47.20465" lon="-1.54981">
        <ele>55</ele>
        <time>2021-10-23T15:16:47Z</time>
      </trkpt>
      <trkpt lat="47.2046" lon="-1.54998">
        <ele>55</ele>
        <time>2021-10-23T15:16:49Z</time>
      </trkpt>
      <trkpt lat="47.20455" lon="-1.55015">
        <ele>55</ele>
        <time>2021-10-23T15:16:51Z</time>
      </trkpt>
      <trkpt lat="47.2045" lon="-1.55032">
        <ele>55</ele>
        <time>2021-10-23T15:16:53Z</time>
      </trkpt>
      <trkpt lat="47.20444" lon="-1.55048">
        <ele>55</ele>
        <time>2021-10-23T15:16:55Z</time>
      </trkpt>
      <trkpt lat="47.20438" lon="-1.55064">
        <ele>55</ele>
        <time>2021-10-23T15:16:57Z</time>
      </trkpt>
      <trkpt lat="47.20431" lon="-1.55079">
        <ele>55</ele>
        <time>2021-10-23T15:16:59Z</time>
      </trkpt>
      <trkpt lat="47.20425" lon="-1.55094">
        <ele>55</ele>
        <time>2021-10-23T15:17:01Z</time>
      </trkpt>
      <trkpt lat="47.20419" lon="-1.55109">
        <ele>55</ele>
        <time>2021-10-23T15:17:03Z</time>
      </trkpt>
      <trkpt lat="47.20413" lon="-1.55124">
        <ele>55</ele>
        <time>2021-10-23T15:17:05Z</time>
      </trkpt>
      <trkpt lat="47.20408" lon="-1.55139">
        <ele>56</ele>
        <time>2021-10-23T15:17:07Z</time>
      </trkpt>
      <trkpt lat="47.20405" lon="-1.55152">
        <ele>56</ele>
        <time>2021-10-23T15:17:09Z</time>
      </trkpt>
      <trkpt lat="47.20399" lon="-1.55167">
        <ele>56</ele>
        <time>2021-10-23T15:17:12Z</time>
      </trkpt>
      <trkpt lat="47.20392" lon="-1.55176">
        <ele>56</ele>
        <time>2021-10-23T15:17:14Z</time>
      </trkpt>
      <trkpt lat="47.2038" lon="-1.5518">
        <ele>56</ele>
        <time>2021-10-23T15:17:16Z</time>
      </trkpt>
      <trkpt lat="47.20369" lon="-1.55187">
        <ele>56</ele>
        <time>2021-10-23T15:17:18Z</time>
      </trkpt>
      <trkpt lat="47.20357" lon="-1.55199">
        <ele>56</ele>
        <time>2021-10-23T15:17:20Z</time>
      </trkpt>
      <trkpt lat="47.20347" lon="-1.55214">
        <ele>56</ele>
        <time>2021-10-23T15:17:22Z</time>
      </trkpt>
      <trkpt lat="47.20338" lon="-1.55229">
        <ele>56</ele>
        <time>2021-10-23T15:17:24Z</time>
      </trkpt>
      <trkpt lat="47.20327" lon="-1.55243">
        <ele>56</ele>
        <time>2021-10-23T15:17:26Z</time>
      </trkpt>
      <trkpt lat="47.20316" lon="-1.55252">
        <ele>58</ele>
        <time>2021-10-23T15:17:28Z</time>
      </trkpt>
      <trkpt lat="47.20306" lon="-1.55265">
        <ele>58</ele>
        <time>2021-10-23T15:17:30Z</time>
      </trkpt>
      <trkpt lat="47.20297" lon="-1.55278">
        <ele>59</ele>
        <time>2021-10-23T15:17:32Z</time>
      </trkpt>
      <trkpt lat="47.20288" lon="-1.55291">
        <ele>59</ele>
        <time>2021-10-23T15:17:34Z</time>
      </trkpt>
      <trkpt lat="47.20279" lon="-1.55304">
        <ele>59</ele>
        <time>2021-10-23T15:17:36Z</time>
      </trkpt>
      <trkpt lat="47.2027" lon="-1.55316">
        <ele>59</ele>
        <time>2021-10-23T15:17:38Z</time>
      </trkpt>
      <trkpt lat="47.20261" lon="-1.55329">
        <ele>59</ele>
        <time>2021-10-23T15:17:40Z</time>
      </trkpt>
      <trkpt lat="47.20253" lon="-1.55343">
        <ele>59</ele>
        <time>2021-10-23T15:17:42Z</time>
      </trkpt>
      <trkpt lat="47.20244" lon="-1.55357">
        <ele>59</ele>
        <time>2021-10-23T15:17:44Z</time>
      </trkpt>
      <trkpt lat="47.20234" lon="-1.55371">
        <ele>58</ele>
        <time>2021-10-23T15:17:46Z</time>
      </trkpt>
      <trkpt lat="47.20224" lon="-1.55383">
        <ele>58</ele>
        <time>2021-10-23T15:17:48Z</time>
      </trkpt>
      <trkpt lat="47.20215" lon="-1.55395">
        <ele>57</ele>
        <time>2021-10-23T15:17:50Z</time>
      </trkpt>
      <trkpt lat="47.20206" lon="-1.55405">
        <ele>58</ele>
        <time>2021-10-23T15:17:52Z</time>
      </trkpt>
      <trkpt lat="47.20199" lon="-1.55416">
        <ele>58</ele>
        <time>2021-10-23T15:17:54Z</time>
      </trkpt>
      <trkpt lat="47.20194" lon="-1.55429">
        <ele>57</ele>
        <time>2021-10-23T15:17:56Z</time>
      </trkpt>
      <trkpt lat="47.20188" lon="-1.55444">
        <ele>57</ele>
        <time>2021-10-23T15:17:58Z</time>
      </trkpt>
      <trkpt lat="47.20183" lon="-1.5546">
        <ele>56</ele>
        <time>2021-10-23T15:18:00Z</time>
      </trkpt>
      <trkpt lat="47.20179" lon="-1.55477">
        <ele>56</ele>
        <time>2021-10-23T15:18:02Z</time>
      </trkpt>
      <trkpt lat="47.20177" lon="-1.55494">
        <ele>55</ele>
        <time>2021-10-23T15:18:04Z</time>
      </trkpt>
      <trkpt lat="47.20179" lon="-1.55512">
        <ele>55</ele>
        <time>2021-10-23T15:18:06Z</time>
      </trkpt>
      <trkpt lat="47.20186" lon="-1.55526">
        <ele>55</ele>
        <time>2021-10-23T15:18:08Z</time>
      </trkpt>
      <trkpt lat="47.20196" lon="-1.55535">
        <ele>54</ele>
        <time>2021-10-23T15:18:10Z</time>
      </trkpt>
      <trkpt lat="47.20207" lon="-1.55541">
        <ele>53</ele>
        <time>2021-10-23T15:18:12Z</time>
      </trkpt>
      <trkpt lat="47.20219" lon="-1.55546">
        <ele>53</ele>
        <time>2021-10-23T15:18:14Z</time>
      </trkpt>
      <trkpt lat="47.20231" lon="-1.55551">
        <ele>53</ele>
        <time>2021-10-23T15:18:16Z</time>
      </trkpt>
      <trkpt lat="47.20242" lon="-1.55556">
        <ele>52</ele>
        <time>2021-10-23T15:18:18Z</time>
      </trkpt>
      <trkpt lat="47.20253" lon="-1.5556">
        <ele>52</ele>
        <time>2021-10-23T15:18:20Z</time>
      </trkpt>
      <trkpt lat="47.20265" lon="-1.55565">
        <ele>52</ele>
        <time>2021-10-23T15:18:22Z</time>
      </trkpt>
      <trkpt lat="47.20277" lon="-1.55568">
        <ele>51</ele>
        <time>2021-10-23T15:18:24Z</time>
      </trkpt>
      <trkpt lat="47.20288" lon="-1.55574">
        <ele>51</ele>
        <time>2021-10-23T15:18:26Z</time>
      </trkpt>
      <trkpt lat="47.20296" lon="-1.55586">
        <ele>50</ele>
        <time>2021-10-23T15:18:28Z</time>
      </trkpt>
      <trkpt lat="47.20295" lon="-1.55605">
        <ele>51</ele>
        <time>2021-10-23T15:18:30Z</time>
      </trkpt>
      <trkpt lat="47.20293" lon="-1.55622">
        <ele>51</ele>
        <time>2021-10-23T15:18:32Z</time>
      </trkpt>
      <trkpt lat="47.20292" lon="-1.55641">
        <ele>51</ele>
        <time>2021-10-23T15:18:34Z</time>
      </trkpt>
      <trkpt lat="47.2029" lon="-1.55659">
        <ele>51</ele>
        <time>2021-10-23T15:18:36Z</time>
      </trkpt>
      <trkpt lat="47.20288" lon="-1.55678">
        <ele>51</ele>
        <time>2021-10-23T15:18:38Z</time>
      </trkpt>
      <trkpt lat="47.20286" lon="-1.55696">
        <ele>51</ele>
        <time>2021-10-23T15:18:40Z</time>
      </trkpt>
      <trkpt lat="47.20284" lon="-1.55715">
        <ele>51</ele>
        <time>2021-10-23T15:18:42Z</time>
      </trkpt>
      <trkpt lat="47.20283" lon="-1.55734">
        <ele>51</ele>
        <time>2021-10-23T15:18:44Z</time>
      </trkpt>
      <trkpt lat="47.2028" lon="-1.55753">
        <ele>51</ele>
        <time>2021-10-23T15:18:46Z</time>
      </trkpt>
      <trkpt lat="47.20278" lon="-1.55772">
        <ele>51</ele>
        <time>2021-10-23T15:18:48Z</time>
      </trkpt>
      <trkpt lat="47.20276" lon="-1.55791">
        <ele>51</ele>
        <time>2021-10-23T15:18:50Z</time>
      </trkpt>
      <trkpt lat="47.20275" lon="-1.55811">
        <ele>52</ele>
        <time>2021-10-23T15:18:52Z</time>
      </trkpt>
      <trkpt lat="47.20272" lon="-1.5583">
        <ele>52</ele>
        <time>2021-10-23T15:18:54Z</time>
      </trkpt>
      <trkpt lat="47.2027" lon="-1.55849">
        <ele>52</ele>
        <time>2021-10-23T15:18:56Z</time>
      </trkpt>
      <trkpt lat="47.20268" lon="-1.55868">
        <ele>52</ele>
        <time>2021-10-23T15:18:58Z</time>
      </trkpt>
      <trkpt lat="47.20266" lon="-1.55887">
        <ele>53</ele>
        <time>2021-10-23T15:19:00Z</time>
      </trkpt>
      <trkpt lat="47.20264" lon="-1.55906">
        <ele>53</ele>
        <time>2021-10-23T15:19:02Z</time>
      </trkpt>
      <trkpt lat="47.20262" lon="-1.55925">
        <ele>54</ele>
        <time>2021-10-23T15:19:04Z</time>
      </trkpt>
      <trkpt lat="47.2026" lon="-1.55944">
        <ele>53</ele>
        <time>2021-10-23T15:19:06Z</time>
      </trkpt>
      <trkpt lat="47.20258" lon="-1.55963">
        <ele>54</ele>
        <time>2021-10-23T15:19:08Z</time>
      </trkpt>
      <trkpt lat="47.20256" lon="-1.55982">
        <ele>54</ele>
        <time>2021-10-23T15:19:10Z</time>
      </trkpt>
      <trkpt lat="47.20254" lon="-1.56001">
        <ele>53</ele>
        <time>2021-10-23T15:19:12Z</time>
      </trkpt>
      <trkpt lat="47.20253" lon="-1.5602">
        <ele>53</ele>
        <time>2021-10-23T15:19:14Z</time>
      </trkpt>
      <trkpt lat="47.2025" lon="-1.56039">
        <ele>53</ele>
        <time>2021-10-23T15:19:16Z</time>
      </trkpt>
      <trkpt lat="47.20248" lon="-1.56058">
        <ele>54</ele>
        <time>2021-10-23T15:19:18Z</time>
      </trkpt>
      <trkpt lat="47.20246" lon="-1.56077">
        <ele>54</ele>
        <time>2021-10-23T15:19:20Z</time>
      </trkpt>
      <trkpt lat="47.20244" lon="-1.56096">
        <ele>54</ele>
        <time>2021-10-23T15:19:22Z</time>
      </trkpt>
      <trkpt lat="47.20242" lon="-1.56116">
        <ele>54</ele>
        <time>2021-10-23T15:19:24Z</time>
      </trkpt>
      <trkpt lat="47.20237" lon="-1.56134">
        <ele>54</ele>
        <time>2021-10-23T15:19:26Z</time>
      </trkpt>
      <trkpt lat="47.20229" lon="-1.56148">
        <ele>54</ele>
        <time>2021-10-23T15:19:28Z</time>
      </trkpt>
      <trkpt lat="47.20218" lon="-1.5616">
        <ele>54</ele>
        <time>2021-10-23T15:19:30Z</time>
      </trkpt>
      <trkpt lat="47.20206" lon="-1.56169">
        <ele>54</ele>
        <time>2021-10-23T15:19:32Z</time>
      </trkpt>
      <trkpt lat="47.20194" lon="-1.56176">
        <ele>54</ele>
        <time>2021-10-23T15:19:34Z</time>
      </trkpt>
      <trkpt lat="47.20184" lon="-1.56186">
        <ele>54</ele>
        <time>2021-10-23T15:19:36Z</time>
      </trkpt>
      <trkpt lat="47.20174" lon="-1.56194">
        <ele>53</ele>
        <time>2021-10-23T15:19:38Z</time>
      </trkpt>
      <trkpt lat="47.20161" lon="-1.56191">
        <ele>53</ele>
        <time>2021-10-23T15:19:40Z</time>
      </trkpt>
      <trkpt lat="47.20152" lon="-1.56182">
        <ele>54</ele>
        <time>2021-10-23T15:19:42Z</time>
      </trkpt>
      <trkpt lat="47.2014" lon="-1.5618">
        <ele>54</ele>
        <time>2021-10-23T15:19:44Z</time>
      </trkpt>
      <trkpt lat="47.20127" lon="-1.56179">
        <ele>54</ele>
        <time>2021-10-23T15:19:46Z</time>
      </trkpt>
      <trkpt lat="47.20114" lon="-1.5618">
        <ele>54</ele>
        <time>2021-10-23T15:19:48Z</time>
      </trkpt>
      <trkpt lat="47.20101" lon="-1.56179">
        <ele>55</ele>
        <time>2021-10-23T15:19:50Z</time>
      </trkpt>
      <trkpt lat="47.20089" lon="-1.5618">
        <ele>55</ele>
        <time>2021-10-23T15:19:52Z</time>
      </trkpt>
      <trkpt lat="47.20077" lon="-1.5618">
        <ele>55</ele>
        <time>2021-10-23T15:19:54Z</time>
      </trkpt>
      <trkpt lat="47.20065" lon="-1.56181">
        <ele>55</ele>
        <time>2021-10-23T15:19:56Z</time>
      </trkpt>
      <trkpt lat="47.20053" lon="-1.56181">
        <ele>55</ele>
        <time>2021-10-23T15:19:58Z</time>
      </trkpt>
      <trkpt lat="47.20042" lon="-1.5618">
        <ele>55</ele>
        <time>2021-10-23T15:20:00Z</time>
      </trkpt>
      <trkpt lat="47.20031" lon="-1.5618">
        <ele>55</ele>
        <time>2021-10-23T15:20:02Z</time>
      </trkpt>
      <trkpt lat="47.20022" lon="-1.5618">
        <ele>55</ele>
        <time>2021-10-23T15:20:04Z</time>
      </trkpt>
      <trkpt lat="47.20009" lon="-1.56184">
        <ele>55</ele>
        <time>2021-10-23T15:20:07Z</time>
      </trkpt>
      <trkpt lat="47.19998" lon="-1.56191">
        <ele>55</ele>
        <time>2021-10-23T15:20:11Z</time>
      </trkpt>
      <trkpt lat="47.19989" lon="-1.56192">
        <ele>55</ele>
        <time>2021-10-23T15:20:13Z</time>
      </trkpt>
      <trkpt lat="47.19979" lon="-1.56188">
        <ele>55</ele>
        <time>2021-10-23T15:20:15Z</time>
      </trkpt>
      <trkpt lat="47.19973" lon="-1.56174">
        <ele>55</ele>
        <time>2021-10-23T15:20:17Z</time>
      </trkpt>
      <trkpt lat="47.19965" lon="-1.56166">
        <ele>55</ele>
        <time>2021-10-23T15:20:19Z</time>
      </trkpt>
      <trkpt lat="47.19954" lon="-1.56167">
        <ele>55</ele>
        <time>2021-10-23T15:20:21Z</time>
      </trkpt>
      <trkpt lat="47.19944" lon="-1.56171">
        <ele>56</ele>
        <time>2021-10-23T15:20:23Z</time>
      </trkpt>
      <trkpt lat="47.19933" lon="-1.56172">
        <ele>56</ele>
        <time>2021-10-23T15:20:25Z</time>
      </trkpt>
      <trkpt lat="47.19922" lon="-1.56174">
        <ele>57</ele>
        <time>2021-10-23T15:20:27Z</time>
      </trkpt>
      <trkpt lat="47.19911" lon="-1.56174">
        <ele>57</ele>
        <time>2021-10-23T15:20:29Z</time>
      </trkpt>
      <trkpt lat="47.19901" lon="-1.56176">
        <ele>58</ele>
        <time>2021-10-23T15:20:31Z</time>
      </trkpt>
      <trkpt lat="47.1989" lon="-1.56177">
        <ele>58</ele>
        <time>2021-10-23T15:20:33Z</time>
      </trkpt>
      <trkpt lat="47.19879" lon="-1.56179">
        <ele>57</ele>
        <time>2021-10-23T15:20:35Z</time>
      </trkpt>
      <trkpt lat="47.19869" lon="-1.56181">
        <ele>58</ele>
        <time>2021-10-23T15:20:37Z</time>
      </trkpt>
      <trkpt lat="47.19859" lon="-1.56183">
        <ele>58</ele>
        <time>2021-10-23T15:20:39Z</time>
      </trkpt>
      <trkpt lat="47.19848" lon="-1.56186">
        <ele>58</ele>
        <time>2021-10-23T15:20:41Z</time>
      </trkpt>
      <trkpt lat="47.19838" lon="-1.56188">
        <ele>58</ele>
        <time>2021-10-23T15:20:43Z</time>
      </trkpt>
      <trkpt lat="47.19827" lon="-1.5619">
        <ele>58</ele>
        <time>2021-10-23T15:20:45Z</time>
      </trkpt>
      <trkpt lat="47.19817" lon="-1.56192">
        <ele>58</ele>
        <time>2021-10-23T15:20:47Z</time>
      </trkpt>
      <trkpt lat="47.19806" lon="-1.56194">
        <ele>58</ele>
        <time>2021-10-23T15:20:49Z</time>
      </trkpt>
      <trkpt lat="47.19796" lon="-1.56195">
        <ele>58</ele>
        <time>2021-10-23T15:20:51Z</time>
      </trkpt>
      <trkpt lat="47.19786" lon="-1.56197">
        <ele>58</ele>
        <time>2021-10-23T15:20:53Z</time>
      </trkpt>
      <trkpt lat="47.19775" lon="-1.562">
        <ele>58</ele>
        <time>2021-10-23T15:20:55Z</time>
      </trkpt>
      <trkpt lat="47.19765" lon="-1.56202">
        <ele>58</ele>
        <time>2021-10-23T15:20:57Z</time>
      </trkpt>
      <trkpt lat="47.19754" lon="-1.56204">
        <ele>58</ele>
        <time>2021-10-23T15:20:59Z</time>
      </trkpt>
      <trkpt lat="47.19743" lon="-1.56206">
        <ele>58</ele>
        <time>2021-10-23T15:21:01Z</time>
      </trkpt>
      <trkpt lat="47.19732" lon="-1.56208">
        <ele>57</ele>
        <time>2021-10-23T15:21:03Z</time>
      </trkpt>
      <trkpt lat="47.1972" lon="-1.56211">
        <ele>57</ele>
        <time>2021-10-23T15:21:05Z</time>
      </trkpt>
      <trkpt lat="47.19707" lon="-1.56213">
        <ele>57</ele>
        <time>2021-10-23T15:21:07Z</time>
      </trkpt>
      <trkpt lat="47.19694" lon="-1.56215">
        <ele>56</ele>
        <time>2021-10-23T15:21:09Z</time>
      </trkpt>
      <trkpt lat="47.19681" lon="-1.56218">
        <ele>55</ele>
        <time>2021-10-23T15:21:11Z</time>
      </trkpt>
      <trkpt lat="47.19667" lon="-1.56223">
        <ele>54</ele>
        <time>2021-10-23T15:21:13Z</time>
      </trkpt>
      <trkpt lat="47.19652" lon="-1.56227">
        <ele>54</ele>
        <time>2021-10-23T15:21:15Z</time>
      </trkpt>
      <trkpt lat="47.1964" lon="-1.56236">
        <ele>53</ele>
        <time>2021-10-23T15:21:17Z</time>
      </trkpt>
      <trkpt lat="47.19633" lon="-1.56256">
        <ele>52</ele>
        <time>2021-10-23T15:21:19Z</time>
      </trkpt>
      <trkpt lat="47.19632" lon="-1.56277">
        <ele>52</ele>
        <time>2021-10-23T15:21:21Z</time>
      </trkpt>
      <trkpt lat="47.19632" lon="-1.56297">
        <ele>52</ele>
        <time>2021-10-23T15:21:23Z</time>
      </trkpt>
      <trkpt lat="47.19631" lon="-1.56316">
        <ele>52</ele>
        <time>2021-10-23T15:21:25Z</time>
      </trkpt>
      <trkpt lat="47.1963" lon="-1.56336">
        <ele>52</ele>
        <time>2021-10-23T15:21:27Z</time>
      </trkpt>
      <trkpt lat="47.1963" lon="-1.56356">
        <ele>52</ele>
        <time>2021-10-23T15:21:29Z</time>
      </trkpt>
      <trkpt lat="47.1963" lon="-1.56385">
        <ele>53</ele>
        <time>2021-10-23T15:21:32Z</time>
      </trkpt>
      <trkpt lat="47.19631" lon="-1.56403">
        <ele>53</ele>
        <time>2021-10-23T15:21:34Z</time>
      </trkpt>
      <trkpt lat="47.19632" lon="-1.56423">
        <ele>53</ele>
        <time>2021-10-23T15:21:36Z</time>
      </trkpt>
      <trkpt lat="47.19634" lon="-1.56442">
        <ele>53</ele>
        <time>2021-10-23T15:21:38Z</time>
      </trkpt>
      <trkpt lat="47.19635" lon="-1.56462">
        <ele>53</ele>
        <time>2021-10-23T15:21:40Z</time>
      </trkpt>
      <trkpt lat="47.19635" lon="-1.56482">
        <ele>53</ele>
        <time>2021-10-23T15:21:42Z</time>
      </trkpt>
      <trkpt lat="47.19635" lon="-1.56501">
        <ele>53</ele>
        <time>2021-10-23T15:21:44Z</time>
      </trkpt>
      <trkpt lat="47.19635" lon="-1.5652">
        <ele>54</ele>
        <time>2021-10-23T15:21:46Z</time>
      </trkpt>
      <trkpt lat="47.19635" lon="-1.5654">
        <ele>54</ele>
        <time>2021-10-23T15:21:48Z</time>
      </trkpt>
      <trkpt lat="47.19633" lon="-1.56569">
        <ele>53</ele>
        <time>2021-10-23T15:21:51Z</time>
      </trkpt>
      <trkpt lat="47.19632" lon="-1.56588">
        <ele>53</ele>
        <time>2021-10-23T15:21:53Z</time>
      </trkpt>
      <trkpt lat="47.19631" lon="-1.56608">
        <ele>53</ele>
        <time>2021-10-23T15:21:55Z</time>
      </trkpt>
      <trkpt lat="47.1963" lon="-1.56627">
        <ele>54</ele>
        <time>2021-10-23T15:21:57Z</time>
      </trkpt>
      <trkpt lat="47.19629" lon="-1.56647">
        <ele>54</ele>
        <time>2021-10-23T15:21:59Z</time>
      </trkpt>
      <trkpt lat="47.19628" lon="-1.56666">
        <ele>54</ele>
        <time>2021-10-23T15:22:01Z</time>
      </trkpt>
      <trkpt lat="47.19627" lon="-1.56686">
        <ele>54</ele>
        <time>2021-10-23T15:22:03Z</time>
      </trkpt>
      <trkpt lat="47.19627" lon="-1.56705">
        <ele>55</ele>
        <time>2021-10-23T15:22:05Z</time>
      </trkpt>
      <trkpt lat="47.19626" lon="-1.56725">
        <ele>55</ele>
        <time>2021-10-23T15:22:07Z</time>
      </trkpt>
      <trkpt lat="47.19625" lon="-1.56744">
        <ele>56</ele>
        <time>2021-10-23T15:22:09Z</time>
      </trkpt>
      <trkpt lat="47.19623" lon="-1.56765">
        <ele>56</ele>
        <time>2021-10-23T15:22:11Z</time>
      </trkpt>
      <trkpt lat="47.19622" lon="-1.56785">
        <ele>55</ele>
        <time>2021-10-23T15:22:13Z</time>
      </trkpt>
      <trkpt lat="47.1962" lon="-1.56815">
        <ele>54</ele>
        <time>2021-10-23T15:22:16Z</time>
      </trkpt>
      <trkpt lat="47.19618" lon="-1.56835">
        <ele>54</ele>
        <time>2021-10-23T15:22:18Z</time>
      </trkpt>
      <trkpt lat="47.19618" lon="-1.56854">
        <ele>53</ele>
        <time>2021-10-23T15:22:20Z</time>
      </trkpt>
      <trkpt lat="47.19616" lon="-1.56872">
        <ele>54</ele>
        <time>2021-10-23T15:22:22Z</time>
      </trkpt>
      <trkpt lat="47.19614" lon="-1.56892">
        <ele>54</ele>
        <time>2021-10-23T15:22:24Z</time>
      </trkpt>
      <trkpt lat="47.19613" lon="-1.56912">
        <ele>53</ele>
        <time>2021-10-23T15:22:26Z</time>
      </trkpt>
      <trkpt lat="47.19612" lon="-1.56931">
        <ele>53</ele>
        <time>2021-10-23T15:22:28Z</time>
      </trkpt>
      <trkpt lat="47.1961" lon="-1.5695">
        <ele>53</ele>
        <time>2021-10-23T15:22:30Z</time>
      </trkpt>
      <trkpt lat="47.19609" lon="-1.56969">
        <ele>52</ele>
        <time>2021-10-23T15:22:32Z</time>
      </trkpt>
      <trkpt lat="47.19607" lon="-1.56989">
        <ele>52</ele>
        <time>2021-10-23T15:22:34Z</time>
      </trkpt>
      <trkpt lat="47.19606" lon="-1.57008">
        <ele>52</ele>
        <time>2021-10-23T15:22:36Z</time>
      </trkpt>
      <trkpt lat="47.19605" lon="-1.57027">
        <ele>52</ele>
        <time>2021-10-23T15:22:38Z</time>
      </trkpt>
      <trkpt lat="47.19604" lon="-1.57048">
        <ele>52</ele>
        <time>2021-10-23T15:22:40Z</time>
      </trkpt>
      <trkpt lat="47.19603" lon="-1.57067">
        <ele>52</ele>
        <time>2021-10-23T15:22:42Z</time>
      </trkpt>
      <trkpt lat="47.19603" lon="-1.57085">
        <ele>52</ele>
        <time>2021-10-23T15:22:44Z</time>
      </trkpt>
      <trkpt lat="47.19602" lon="-1.57103">
        <ele>52</ele>
        <time>2021-10-23T15:22:46Z</time>
      </trkpt>
      <trkpt lat="47.196" lon="-1.57121">
        <ele>53</ele>
        <time>2021-10-23T15:22:48Z</time>
      </trkpt>
      <trkpt lat="47.196" lon="-1.57139">
        <ele>52</ele>
        <time>2021-10-23T15:22:50Z</time>
      </trkpt>
      <trkpt lat="47.19599" lon="-1.57158">
        <ele>52</ele>
        <time>2021-10-23T15:22:52Z</time>
      </trkpt>
      <trkpt lat="47.19597" lon="-1.57177">
        <ele>51</ele>
        <time>2021-10-23T15:22:54Z</time>
      </trkpt>
      <trkpt lat="47.19596" lon="-1.57196">
        <ele>51</ele>
        <time>2021-10-23T15:22:56Z</time>
      </trkpt>
      <trkpt lat="47.19595" lon="-1.57215">
        <ele>51</ele>
        <time>2021-10-23T15:22:58Z</time>
      </trkpt>
      <trkpt lat="47.19594" lon="-1.57235">
        <ele>51</ele>
        <time>2021-10-23T15:23:00Z</time>
      </trkpt>
      <trkpt lat="47.19592" lon="-1.57253">
        <ele>51</ele>
        <time>2021-10-23T15:23:02Z</time>
      </trkpt>
      <trkpt lat="47.1959" lon="-1.57271">
        <ele>51</ele>
        <time>2021-10-23T15:23:04Z</time>
      </trkpt>
      <trkpt lat="47.19589" lon="-1.5729">
        <ele>51</ele>
        <time>2021-10-23T15:23:06Z</time>
      </trkpt>
      <trkpt lat="47.19588" lon="-1.57309">
        <ele>52</ele>
        <time>2021-10-23T15:23:08Z</time>
      </trkpt>
      <trkpt lat="47.19586" lon="-1.57327">
        <ele>52</ele>
        <time>2021-10-23T15:23:10Z</time>
      </trkpt>
      <trkpt lat="47.19582" lon="-1.57344">
        <ele>52</ele>
        <time>2021-10-23T15:23:12Z</time>
      </trkpt>
      <trkpt lat="47.19577" lon="-1.57361">
        <ele>52</ele>
        <time>2021-10-23T15:23:14Z</time>
      </trkpt>
      <trkpt lat="47.19574" lon="-1.57378">
        <ele>53</ele>
        <time>2021-10-23T15:23:16Z</time>
      </trkpt>
      <trkpt lat="47.1957" lon="-1.57396">
        <ele>54</ele>
        <time>2021-10-23T15:23:18Z</time>
      </trkpt>
      <trkpt lat="47.19566" lon="-1.57414">
        <ele>55</ele>
        <time>2021-10-23T15:23:20Z</time>
      </trkpt>
      <trkpt lat="47.19562" lon="-1.57433">
        <ele>55</ele>
        <time>2021-10-23T15:23:22Z</time>
      </trkpt>
      <trkpt lat="47.19559" lon="-1.5745">
        <ele>55</ele>
        <time>2021-10-23T15:23:24Z</time>
      </trkpt>
      <trkpt lat="47.19556" lon="-1.57469">
        <ele>56</ele>
        <time>2021-10-23T15:23:26Z</time>
      </trkpt>
      <trkpt lat="47.19552" lon="-1.57488">
        <ele>56</ele>
        <time>2021-10-23T15:23:28Z</time>
      </trkpt>
      <trkpt lat="47.19548" lon="-1.57507">
        <ele>56</ele>
        <time>2021-10-23T15:23:30Z</time>
      </trkpt>
      <trkpt lat="47.19545" lon="-1.57525">
        <ele>56</ele>
        <time>2021-10-23T15:23:32Z</time>
      </trkpt>
      <trkpt lat="47.19541" lon="-1.57545">
        <ele>55</ele>
        <time>2021-10-23T15:23:34Z</time>
      </trkpt>
      <trkpt lat="47.19537" lon="-1.57563">
        <ele>56</ele>
        <time>2021-10-23T15:23:36Z</time>
      </trkpt>
      <trkpt lat="47.19534" lon="-1.57583">
        <ele>56</ele>
        <time>2021-10-23T15:23:38Z</time>
      </trkpt>
      <trkpt lat="47.1953" lon="-1.57602">
        <ele>56</ele>
        <time>2021-10-23T15:23:40Z</time>
      </trkpt>
      <trkpt lat="47.19526" lon="-1.57621">
        <ele>56</ele>
        <time>2021-10-23T15:23:42Z</time>
      </trkpt>
      <trkpt lat="47.19522" lon="-1.5764">
        <ele>55</ele>
        <time>2021-10-23T15:23:44Z</time>
      </trkpt>
      <trkpt lat="47.19518" lon="-1.57659">
        <ele>54</ele>
        <time>2021-10-23T15:23:46Z</time>
      </trkpt>
      <trkpt lat="47.19515" lon="-1.57678">
        <ele>54</ele>
        <time>2021-10-23T15:23:48Z</time>
      </trkpt>
      <trkpt lat="47.19511" lon="-1.57697">
        <ele>54</ele>
        <time>2021-10-23T15:23:50Z</time>
      </trkpt>
      <trkpt lat="47.19507" lon="-1.57715">
        <ele>53</ele>
        <time>2021-10-23T15:23:52Z</time>
      </trkpt>
      <trkpt lat="47.19503" lon="-1.57733">
        <ele>53</ele>
        <time>2021-10-23T15:23:54Z</time>
      </trkpt>
      <trkpt lat="47.19499" lon="-1.57751">
        <ele>53</ele>
        <time>2021-10-23T15:23:56Z</time>
      </trkpt>
      <trkpt lat="47.19495" lon="-1.57769">
        <ele>53</ele>
        <time>2021-10-23T15:23:58Z</time>
      </trkpt>
      <trkpt lat="47.19491" lon="-1.57788">
        <ele>53</ele>
        <time>2021-10-23T15:24:00Z</time>
      </trkpt>
      <trkpt lat="47.19488" lon="-1.57807">
        <ele>54</ele>
        <time>2021-10-23T15:24:02Z</time>
      </trkpt>
      <trkpt lat="47.19484" lon="-1.57825">
        <ele>54</ele>
        <time>2021-10-23T15:24:04Z</time>
      </trkpt>
      <trkpt lat="47.19482" lon="-1.57844">
        <ele>54</ele>
        <time>2021-10-23T15:24:06Z</time>
      </trkpt>
      <trkpt lat="47.1948" lon="-1.57862">
        <ele>54</ele>
        <time>2021-10-23T15:24:08Z</time>
      </trkpt>
      <trkpt lat="47.19477" lon="-1.5788">
        <ele>54</ele>
        <time>2021-10-23T15:24:10Z</time>
      </trkpt>
      <trkpt lat="47.19473" lon="-1.57899">
        <ele>53</ele>
        <time>2021-10-23T15:24:12Z</time>
      </trkpt>
      <trkpt lat="47.19471" lon="-1.57919">
        <ele>54</ele>
        <time>2021-10-23T15:24:14Z</time>
      </trkpt>
      <trkpt lat="47.19469" lon="-1.57938">
        <ele>54</ele>
        <time>2021-10-23T15:24:16Z</time>
      </trkpt>
      <trkpt lat="47.19468" lon="-1.57956">
        <ele>54</ele>
        <time>2021-10-23T15:24:18Z</time>
      </trkpt>
      <trkpt lat="47.19467" lon="-1.57974">
        <ele>53</ele>
        <time>2021-10-23T15:24:20Z</time>
      </trkpt>
      <trkpt lat="47.19466" lon="-1.5799">
        <ele>53</ele>
        <time>2021-10-23T15:24:22Z</time>
      </trkpt>
      <trkpt lat="47.19464" lon="-1.58007">
        <ele>53</ele>
        <time>2021-10-23T15:24:24Z</time>
      </trkpt>
      <trkpt lat="47.19463" lon="-1.58025">
        <ele>53</ele>
        <time>2021-10-23T15:24:26Z</time>
      </trkpt>
      <trkpt lat="47.19461" lon="-1.58041">
        <ele>52</ele>
        <time>2021-10-23T15:24:28Z</time>
      </trkpt>
      <trkpt lat="47.1946" lon="-1.58056">
        <ele>52</ele>
        <time>2021-10-23T15:24:30Z</time>
      </trkpt>
      <trkpt lat="47.19458" lon="-1.58071">
        <ele>52</ele>
        <time>2021-10-23T15:24:32Z</time>
      </trkpt>
      <trkpt lat="47.19455" lon="-1.5809">
        <ele>52</ele>
        <time>2021-10-23T15:24:35Z</time>
      </trkpt>
      <trkpt lat="47.19449" lon="-1.58102">
        <ele>53</ele>
        <time>2021-10-23T15:24:37Z</time>
      </trkpt>
      <trkpt lat="47.1944" lon="-1.58113">
        <ele>53</ele>
        <time>2021-10-23T15:24:39Z</time>
      </trkpt>
      <trkpt lat="47.1943" lon="-1.58125">
        <ele>53</ele>
        <time>2021-10-23T15:24:41Z</time>
      </trkpt>
      <trkpt lat="47.1942" lon="-1.58136">
        <ele>53</ele>
        <time>2021-10-23T15:24:43Z</time>
      </trkpt>
      <trkpt lat="47.19411" lon="-1.58146">
        <ele>53</ele>
        <time>2021-10-23T15:24:45Z</time>
      </trkpt>
      <trkpt lat="47.19404" lon="-1.58158">
        <ele>53</ele>
        <time>2021-10-23T15:24:48Z</time>
      </trkpt>
      <trkpt lat="47.19398" lon="-1.5817">
        <ele>53</ele>
        <time>2021-10-23T15:24:51Z</time>
      </trkpt>
      <trkpt lat="47.19391" lon="-1.58186">
        <ele>54</ele>
        <time>2021-10-23T15:24:54Z</time>
      </trkpt>
      <trkpt lat="47.19386" lon="-1.58198">
        <ele>54</ele>
        <time>2021-10-23T15:24:56Z</time>
      </trkpt>
      <trkpt lat="47.19381" lon="-1.5821">
        <ele>54</ele>
        <time>2021-10-23T15:24:58Z</time>
      </trkpt>
      <trkpt lat="47.19375" lon="-1.58221">
        <ele>54</ele>
        <time>2021-10-23T15:25:00Z</time>
      </trkpt>
      <trkpt lat="47.1937" lon="-1.58237">
        <ele>53</ele>
        <time>2021-10-23T15:25:03Z</time>
      </trkpt>
      <trkpt lat="47.19363" lon="-1.58255">
        <ele>53</ele>
        <time>2021-10-23T15:25:06Z</time>
      </trkpt>
      <trkpt lat="47.19357" lon="-1.58268">
        <ele>54</ele>
        <time>2021-10-23T15:25:08Z</time>
      </trkpt>
      <trkpt lat="47.19349" lon="-1.58281">
        <ele>53</ele>
        <time>2021-10-23T15:25:10Z</time>
      </trkpt>
      <trkpt lat="47.19339" lon="-1.58291">
        <ele>53</ele>
        <time>2021-10-23T15:25:12Z</time>
      </trkpt>
      <trkpt lat="47.19329" lon="-1.583">
        <ele>54</ele>
        <time>2021-10-23T15:25:14Z</time>
      </trkpt>
      <trkpt lat="47.19319" lon="-1.58309">
        <ele>54</ele>
        <time>2021-10-23T15:25:16Z</time>
      </trkpt>
      <trkpt lat="47.19309" lon="-1.58319">
        <ele>53</ele>
        <time>2021-10-23T15:25:18Z</time>
      </trkpt>
      <trkpt lat="47.19298" lon="-1.58328">
        <ele>53</ele>
        <time>2021-10-23T15:25:20Z</time>
      </trkpt>
      <trkpt lat="47.19288" lon="-1.58337">
        <ele>53</ele>
        <time>2021-10-23T15:25:22Z</time>
      </trkpt>
      <trkpt lat="47.19278" lon="-1.58347">
        <ele>53</ele>
        <time>2021-10-23T15:25:24Z</time>
      </trkpt>
      <trkpt lat="47.19268" lon="-1.58358">
        <ele>53</ele>
        <time>2021-10-23T15:25:26Z</time>
      </trkpt>
      <trkpt lat="47.19258" lon="-1.58368">
        <ele>53</ele>
        <time>2021-10-23T15:25:28Z</time>
      </trkpt>
      <trkpt lat="47.19248" lon="-1.58377">
        <ele>53</ele>
        <time>2021-10-23T15:25:30Z</time>
      </trkpt>
      <trkpt lat="47.19237" lon="-1.58386">
        <ele>53</ele>
        <time>2021-10-23T15:25:32Z</time>
      </trkpt>
      <trkpt lat="47.19226" lon="-1.58394">
        <ele>53</ele>
        <time>2021-10-23T15:25:34Z</time>
      </trkpt>
      <trkpt lat="47.19216" lon="-1.58404">
        <ele>53</ele>
        <time>2021-10-23T15:25:36Z</time>
      </trkpt>
      <trkpt lat="47.19206" lon="-1.58414">
        <ele>53</ele>
        <time>2021-10-23T15:25:38Z</time>
      </trkpt>
      <trkpt lat="47.19195" lon="-1.58424">
        <ele>53</ele>
        <time>2021-10-23T15:25:40Z</time>
      </trkpt>
      <trkpt lat="47.19185" lon="-1.58434">
        <ele>53</ele>
        <time>2021-10-23T15:25:42Z</time>
      </trkpt>
      <trkpt lat="47.19176" lon="-1.58443">
        <ele>53</ele>
        <time>2021-10-23T15:25:44Z</time>
      </trkpt>
      <trkpt lat="47.19167" lon="-1.58452">
        <ele>53</ele>
        <time>2021-10-23T15:25:46Z</time>
      </trkpt>
      <trkpt lat="47.19159" lon="-1.58461">
        <ele>53</ele>
        <time>2021-10-23T15:25:48Z</time>
      </trkpt>
      <trkpt lat="47.19149" lon="-1.5847">
        <ele>53</ele>
        <time>2021-10-23T15:25:51Z</time>
      </trkpt>
      <trkpt lat="47.19139" lon="-1.58481">
        <ele>54</ele>
        <time>2021-10-23T15:25:54Z</time>
      </trkpt>
      <trkpt lat="47.1913" lon="-1.5849">
        <ele>54</ele>
        <time>2021-10-23T15:25:56Z</time>
      </trkpt>
      <trkpt lat="47.1912" lon="-1.585">
        <ele>54</ele>
        <time>2021-10-23T15:25:58Z</time>
      </trkpt>
      <trkpt lat="47.19109" lon="-1.58509">
        <ele>54</ele>
        <time>2021-10-23T15:26:00Z</time>
      </trkpt>
      <trkpt lat="47.19099" lon="-1.58518">
        <ele>54</ele>
        <time>2021-10-23T15:26:02Z</time>
      </trkpt>
      <trkpt lat="47.19089" lon="-1.58529">
        <ele>54</ele>
        <time>2021-10-23T15:26:04Z</time>
      </trkpt>
      <trkpt lat="47.19079" lon="-1.58538">
        <ele>54</ele>
        <time>2021-10-23T15:26:06Z</time>
      </trkpt>
      <trkpt lat="47.19069" lon="-1.58548">
        <ele>53</ele>
        <time>2021-10-23T15:26:08Z</time>
      </trkpt>
      <trkpt lat="47.1906" lon="-1.58559">
        <ele>53</ele>
        <time>2021-10-23T15:26:10Z</time>
      </trkpt>
      <trkpt lat="47.1905" lon="-1.58569">
        <ele>53</ele>
        <time>2021-10-23T15:26:12Z</time>
      </trkpt>
      <trkpt lat="47.1904" lon="-1.58578">
        <ele>53</ele>
        <time>2021-10-23T15:26:14Z</time>
      </trkpt>
      <trkpt lat="47.1903" lon="-1.58588">
        <ele>54</ele>
        <time>2021-10-23T15:26:16Z</time>
      </trkpt>
      <trkpt lat="47.19021" lon="-1.58599">
        <ele>53</ele>
        <time>2021-10-23T15:26:18Z</time>
      </trkpt>
      <trkpt lat="47.19011" lon="-1.58609">
        <ele>53</ele>
        <time>2021-10-23T15:26:20Z</time>
      </trkpt>
      <trkpt lat="47.19001" lon="-1.58618">
        <ele>53</ele>
        <time>2021-10-23T15:26:22Z</time>
      </trkpt>
      <trkpt lat="47.18992" lon="-1.58628">
        <ele>53</ele>
        <time>2021-10-23T15:26:24Z</time>
      </trkpt>
      <trkpt lat="47.18982" lon="-1.58637">
        <ele>53</ele>
        <time>2021-10-23T15:26:26Z</time>
      </trkpt>
      <trkpt lat="47.18972" lon="-1.58646">
        <ele>53</ele>
        <time>2021-10-23T15:26:28Z</time>
      </trkpt>
      <trkpt lat="47.18962" lon="-1.58657">
        <ele>53</ele>
        <time>2021-10-23T15:26:30Z</time>
      </trkpt>
      <trkpt lat="47.18952" lon="-1.58666">
        <ele>52</ele>
        <time>2021-10-23T15:26:32Z</time>
      </trkpt>
      <trkpt lat="47.18941" lon="-1.58676">
        <ele>52</ele>
        <time>2021-10-23T15:26:34Z</time>
      </trkpt>
      <trkpt lat="47.18931" lon="-1.58686">
        <ele>52</ele>
        <time>2021-10-23T15:26:36Z</time>
      </trkpt>
      <trkpt lat="47.18921" lon="-1.58695">
        <ele>52</ele>
        <time>2021-10-23T15:26:38Z</time>
      </trkpt>
      <trkpt lat="47.18911" lon="-1.58703">
        <ele>52</ele>
        <time>2021-10-23T15:26:40Z</time>
      </trkpt>
      <trkpt lat="47.18902" lon="-1.58711">
        <ele>52</ele>
        <time>2021-10-23T15:26:42Z</time>
      </trkpt>
      <trkpt lat="47.18891" lon="-1.58717">
        <ele>52</ele>
        <time>2021-10-23T15:26:44Z</time>
      </trkpt>
      <trkpt lat="47.1888" lon="-1.58723">
        <ele>52</ele>
        <time>2021-10-23T15:26:46Z</time>
      </trkpt>
      <trkpt lat="47.18869" lon="-1.58729">
        <ele>52</ele>
        <time>2021-10-23T15:26:48Z</time>
      </trkpt>
      <trkpt lat="47.1886" lon="-1.58735">
        <ele>52</ele>
        <time>2021-10-23T15:26:50Z</time>
      </trkpt>
      <trkpt lat="47.1885" lon="-1.58739">
        <ele>52</ele>
        <time>2021-10-23T15:26:52Z</time>
      </trkpt>
      <trkpt lat="47.1884" lon="-1.58744">
        <ele>52</ele>
        <time>2021-10-23T15:26:54Z</time>
      </trkpt>
      <trkpt lat="47.18834" lon="-1.58756">
        <ele>53</ele>
        <time>2021-10-23T15:26:56Z</time>
      </trkpt>
      <trkpt lat="47.18832" lon="-1.5877">
        <ele>53</ele>
        <time>2021-10-23T15:26:58Z</time>
      </trkpt>
      <trkpt lat="47.18829" lon="-1.58783">
        <ele>53</ele>
        <time>2021-10-23T15:27:00Z</time>
      </trkpt>
      <trkpt lat="47.18821" lon="-1.58795">
        <ele>53</ele>
        <time>2021-10-23T15:27:02Z</time>
      </trkpt>
      <trkpt lat="47.18811" lon="-1.58805">
        <ele>53</ele>
        <time>2021-10-23T15:27:04Z</time>
      </trkpt>
      <trkpt lat="47.188" lon="-1.58812">
        <ele>53</ele>
        <time>2021-10-23T15:27:06Z</time>
      </trkpt>
      <trkpt lat="47.1879" lon="-1.58821">
        <ele>53</ele>
        <time>2021-10-23T15:27:08Z</time>
      </trkpt>
      <trkpt lat="47.18786" lon="-1.58839">
        <ele>53</ele>
        <time>2021-10-23T15:27:10Z</time>
      </trkpt>
      <trkpt lat="47.18783" lon="-1.58856">
        <ele>53</ele>
        <time>2021-10-23T15:27:12Z</time>
      </trkpt>
      <trkpt lat="47.18779" lon="-1.58875">
        <ele>53</ele>
        <time>2021-10-23T15:27:14Z</time>
      </trkpt>
      <trkpt lat="47.18776" lon="-1.58893">
        <ele>53</ele>
        <time>2021-10-23T15:27:16Z</time>
      </trkpt>
      <trkpt lat="47.18774" lon="-1.58913">
        <ele>53</ele>
        <time>2021-10-23T15:27:18Z</time>
      </trkpt>
      <trkpt lat="47.18771" lon="-1.58933">
        <ele>53</ele>
        <time>2021-10-23T15:27:20Z</time>
      </trkpt>
      <trkpt lat="47.18769" lon="-1.58953">
        <ele>52</ele>
        <time>2021-10-23T15:27:22Z</time>
      </trkpt>
      <trkpt lat="47.18766" lon="-1.58973">
        <ele>52</ele>
        <time>2021-10-23T15:27:24Z</time>
      </trkpt>
      <trkpt lat="47.18765" lon="-1.58992">
        <ele>52</ele>
        <time>2021-10-23T15:27:26Z</time>
      </trkpt>
      <trkpt lat="47.18763" lon="-1.59012">
        <ele>52</ele>
        <time>2021-10-23T15:27:28Z</time>
      </trkpt>
      <trkpt lat="47.18761" lon="-1.59031">
        <ele>53</ele>
        <time>2021-10-23T15:27:30Z</time>
      </trkpt>
      <trkpt lat="47.18758" lon="-1.5905">
        <ele>53</ele>
        <time>2021-10-23T15:27:32Z</time>
      </trkpt>
      <trkpt lat="47.18756" lon="-1.59069">
        <ele>52</ele>
        <time>2021-10-23T15:27:34Z</time>
      </trkpt>
      <trkpt lat="47.18754" lon="-1.59088">
        <ele>52</ele>
        <time>2021-10-23T15:27:36Z</time>
      </trkpt>
      <trkpt lat="47.18753" lon="-1.59107">
        <ele>52</ele>
        <time>2021-10-23T15:27:38Z</time>
      </trkpt>
      <trkpt lat="47.18751" lon="-1.59127">
        <ele>52</ele>
        <time>2021-10-23T15:27:40Z</time>
      </trkpt>
      <trkpt lat="47.18748" lon="-1.59145">
        <ele>52</ele>
        <time>2021-10-23T15:27:42Z</time>
      </trkpt>
      <trkpt lat="47.18747" lon="-1.59165">
        <ele>52</ele>
        <time>2021-10-23T15:27:44Z</time>
      </trkpt>
      <trkpt lat="47.18745" lon="-1.59184">
        <ele>52</ele>
        <time>2021-10-23T15:27:46Z</time>
      </trkpt>
      <trkpt lat="47.18742" lon="-1.59203">
        <ele>52</ele>
        <time>2021-10-23T15:27:48Z</time>
      </trkpt>
      <trkpt lat="47.1874" lon="-1.59222">
        <ele>53</ele>
        <time>2021-10-23T15:27:50Z</time>
      </trkpt>
      <trkpt lat="47.18738" lon="-1.59241">
        <ele>53</ele>
        <time>2021-10-23T15:27:52Z</time>
      </trkpt>
      <trkpt lat="47.18736" lon="-1.5926">
        <ele>53</ele>
        <time>2021-10-23T15:27:54Z</time>
      </trkpt>
      <trkpt lat="47.18733" lon="-1.59279">
        <ele>53</ele>
        <time>2021-10-23T15:27:56Z</time>
      </trkpt>
      <trkpt lat="47.18731" lon="-1.59299">
        <ele>53</ele>
        <time>2021-10-23T15:27:58Z</time>
      </trkpt>
      <trkpt lat="47.18729" lon="-1.59318">
        <ele>52</ele>
        <time>2021-10-23T15:28:00Z</time>
      </trkpt>
      <trkpt lat="47.18727" lon="-1.59338">
        <ele>52</ele>
        <time>2021-10-23T15:28:02Z</time>
      </trkpt>
      <trkpt lat="47.18725" lon="-1.59357">
        <ele>52</ele>
        <time>2021-10-23T15:28:04Z</time>
      </trkpt>
      <trkpt lat="47.18723" lon="-1.59377">
        <ele>52</ele>
        <time>2021-10-23T15:28:06Z</time>
      </trkpt>
      <trkpt lat="47.18721" lon="-1.59396">
        <ele>53</ele>
        <time>2021-10-23T15:28:08Z</time>
      </trkpt>
      <trkpt lat="47.18719" lon="-1.59415">
        <ele>53</ele>
        <time>2021-10-23T15:28:10Z</time>
      </trkpt>
      <trkpt lat="47.18717" lon="-1.59434">
        <ele>53</ele>
        <time>2021-10-23T15:28:12Z</time>
      </trkpt>
      <trkpt lat="47.18714" lon="-1.59454">
        <ele>52</ele>
        <time>2021-10-23T15:28:14Z</time>
      </trkpt>
      <trkpt lat="47.18712" lon="-1.59473">
        <ele>52</ele>
        <time>2021-10-23T15:28:16Z</time>
      </trkpt>
      <trkpt lat="47.1871" lon="-1.59493">
        <ele>52</ele>
        <time>2021-10-23T15:28:18Z</time>
      </trkpt>
      <trkpt lat="47.18708" lon="-1.59512">
        <ele>52</ele>
        <time>2021-10-23T15:28:20Z</time>
      </trkpt>
      <trkpt lat="47.18706" lon="-1.59532">
        <ele>52</ele>
        <time>2021-10-23T15:28:22Z</time>
      </trkpt>
      <trkpt lat="47.18704" lon="-1.59551">
        <ele>53</ele>
        <time>2021-10-23T15:28:24Z</time>
      </trkpt>
      <trkpt lat="47.18702" lon="-1.5957">
        <ele>53</ele>
        <time>2021-10-23T15:28:26Z</time>
      </trkpt>
      <trkpt lat="47.187" lon="-1.5959">
        <ele>53</ele>
        <time>2021-10-23T15:28:28Z</time>
      </trkpt>
      <trkpt lat="47.18698" lon="-1.59609">
        <ele>52</ele>
        <time>2021-10-23T15:28:30Z</time>
      </trkpt>
      <trkpt lat="47.18695" lon="-1.59628">
        <ele>52</ele>
        <time>2021-10-23T15:28:32Z</time>
      </trkpt>
      <trkpt lat="47.18693" lon="-1.59647">
        <ele>52</ele>
        <time>2021-10-23T15:28:34Z</time>
      </trkpt>
      <trkpt lat="47.1869" lon="-1.59666">
        <ele>52</ele>
        <time>2021-10-23T15:28:36Z</time>
      </trkpt>
      <trkpt lat="47.18687" lon="-1.59686">
        <ele>53</ele>
        <time>2021-10-23T15:28:38Z</time>
      </trkpt>
      <trkpt lat="47.18685" lon="-1.59705">
        <ele>53</ele>
        <time>2021-10-23T15:28:40Z</time>
      </trkpt>
      <trkpt lat="47.18684" lon="-1.59723">
        <ele>53</ele>
        <time>2021-10-23T15:28:42Z</time>
      </trkpt>
      <trkpt lat="47.18684" lon="-1.5974">
        <ele>53</ele>
        <time>2021-10-23T15:28:44Z</time>
      </trkpt>
      <trkpt lat="47.18685" lon="-1.59757">
        <ele>53</ele>
        <time>2021-10-23T15:28:46Z</time>
      </trkpt>
      <trkpt lat="47.18687" lon="-1.59776">
        <ele>53</ele>
        <time>2021-10-23T15:28:48Z</time>
      </trkpt>
      <trkpt lat="47.18687" lon="-1.59797">
        <ele>53</ele>
        <time>2021-10-23T15:28:50Z</time>
      </trkpt>
      <trkpt lat="47.18682" lon="-1.59821">
        <ele>53</ele>
        <time>2021-10-23T15:28:52Z</time>
      </trkpt>
      <trkpt lat="47.18677" lon="-1.59832">
        <ele>53</ele>
        <time>2021-10-23T15:28:53Z</time>
      </trkpt>
      <trkpt lat="47.18661" lon="-1.59844">
        <ele>53</ele>
        <time>2021-10-23T15:28:55Z</time>
      </trkpt>
      <trkpt lat="47.18652" lon="-1.59844">
        <ele>53</ele>
        <time>2021-10-23T15:28:56Z</time>
      </trkpt>
      <trkpt lat="47.18637" lon="-1.59835">
        <ele>52</ele>
        <time>2021-10-23T15:28:58Z</time>
      </trkpt>
      <trkpt lat="47.18623" lon="-1.59829">
        <ele>52</ele>
        <time>2021-10-23T15:29:00Z</time>
      </trkpt>
      <trkpt lat="47.18616" lon="-1.59842">
        <ele>51</ele>
        <time>2021-10-23T15:29:02Z</time>
      </trkpt>
      <trkpt lat="47.18622" lon="-1.59858">
        <ele>51</ele>
        <time>2021-10-23T15:29:04Z</time>
      </trkpt>
      <trkpt lat="47.18624" lon="-1.59876">
        <ele>52</ele>
        <time>2021-10-23T15:29:06Z</time>
      </trkpt>
      <trkpt lat="47.1862" lon="-1.59895">
        <ele>52</ele>
        <time>2021-10-23T15:29:08Z</time>
      </trkpt>
      <trkpt lat="47.18614" lon="-1.59913">
        <ele>52</ele>
        <time>2021-10-23T15:29:10Z</time>
      </trkpt>
      <trkpt lat="47.18608" lon="-1.59931">
        <ele>52</ele>
        <time>2021-10-23T15:29:12Z</time>
      </trkpt>
      <trkpt lat="47.18603" lon="-1.59949">
        <ele>52</ele>
        <time>2021-10-23T15:29:14Z</time>
      </trkpt>
      <trkpt lat="47.18598" lon="-1.59966">
        <ele>53</ele>
        <time>2021-10-23T15:29:16Z</time>
      </trkpt>
      <trkpt lat="47.18593" lon="-1.59984">
        <ele>53</ele>
        <time>2021-10-23T15:29:18Z</time>
      </trkpt>
      <trkpt lat="47.18587" lon="-1.60001">
        <ele>52</ele>
        <time>2021-10-23T15:29:20Z</time>
      </trkpt>
      <trkpt lat="47.18581" lon="-1.60019">
        <ele>52</ele>
        <time>2021-10-23T15:29:22Z</time>
      </trkpt>
      <trkpt lat="47.18575" lon="-1.60036">
        <ele>52</ele>
        <time>2021-10-23T15:29:24Z</time>
      </trkpt>
      <trkpt lat="47.18569" lon="-1.60053">
        <ele>52</ele>
        <time>2021-10-23T15:29:26Z</time>
      </trkpt>
      <trkpt lat="47.18562" lon="-1.6007">
        <ele>52</ele>
        <time>2021-10-23T15:29:28Z</time>
      </trkpt>
      <trkpt lat="47.18556" lon="-1.60085">
        <ele>52</ele>
        <time>2021-10-23T15:29:30Z</time>
      </trkpt>
      <trkpt lat="47.18549" lon="-1.60101">
        <ele>52</ele>
        <time>2021-10-23T15:29:32Z</time>
      </trkpt>
      <trkpt lat="47.18543" lon="-1.60116">
        <ele>52</ele>
        <time>2021-10-23T15:29:34Z</time>
      </trkpt>
      <trkpt lat="47.18537" lon="-1.60132">
        <ele>52</ele>
        <time>2021-10-23T15:29:36Z</time>
      </trkpt>
      <trkpt lat="47.1853" lon="-1.60146">
        <ele>53</ele>
        <time>2021-10-23T15:29:38Z</time>
      </trkpt>
      <trkpt lat="47.18523" lon="-1.60161">
        <ele>52</ele>
        <time>2021-10-23T15:29:40Z</time>
      </trkpt>
      <trkpt lat="47.18516" lon="-1.60176">
        <ele>53</ele>
        <time>2021-10-23T15:29:42Z</time>
      </trkpt>
      <trkpt lat="47.18509" lon="-1.6019">
        <ele>53</ele>
        <time>2021-10-23T15:29:44Z</time>
      </trkpt>
      <trkpt lat="47.18502" lon="-1.60204">
        <ele>52</ele>
        <time>2021-10-23T15:29:46Z</time>
      </trkpt>
      <trkpt lat="47.18495" lon="-1.60218">
        <ele>53</ele>
        <time>2021-10-23T15:29:48Z</time>
      </trkpt>
      <trkpt lat="47.18488" lon="-1.60232">
        <ele>53</ele>
        <time>2021-10-23T15:29:50Z</time>
      </trkpt>
      <trkpt lat="47.1848" lon="-1.60246">
        <ele>53</ele>
        <time>2021-10-23T15:29:52Z</time>
      </trkpt>
      <trkpt lat="47.18472" lon="-1.6026">
        <ele>53</ele>
        <time>2021-10-23T15:29:54Z</time>
      </trkpt>
      <trkpt lat="47.18464" lon="-1.60273">
        <ele>53</ele>
        <time>2021-10-23T15:29:56Z</time>
      </trkpt>
      <trkpt lat="47.18456" lon="-1.60287">
        <ele>53</ele>
        <time>2021-10-23T15:29:58Z</time>
      </trkpt>
      <trkpt lat="47.18449" lon="-1.60301">
        <ele>53</ele>
        <time>2021-10-23T15:30:00Z</time>
      </trkpt>
      <trkpt lat="47.18441" lon="-1.60315">
        <ele>52</ele>
        <time>2021-10-23T15:30:02Z</time>
      </trkpt>
      <trkpt lat="47.18433" lon="-1.60328">
        <ele>52</ele>
        <time>2021-10-23T15:30:04Z</time>
      </trkpt>
      <trkpt lat="47.18424" lon="-1.60341">
        <ele>53</ele>
        <time>2021-10-23T15:30:06Z</time>
      </trkpt>
      <trkpt lat="47.18416" lon="-1.60353">
        <ele>52</ele>
        <time>2021-10-23T15:30:08Z</time>
      </trkpt>
      <trkpt lat="47.18407" lon="-1.60365">
        <ele>52</ele>
        <time>2021-10-23T15:30:10Z</time>
      </trkpt>
      <trkpt lat="47.18398" lon="-1.60378">
        <ele>53</ele>
        <time>2021-10-23T15:30:12Z</time>
      </trkpt>
      <trkpt lat="47.18389" lon="-1.6039">
        <ele>52</ele>
        <time>2021-10-23T15:30:14Z</time>
      </trkpt>
      <trkpt lat="47.18379" lon="-1.60402">
        <ele>52</ele>
        <time>2021-10-23T15:30:16Z</time>
      </trkpt>
      <trkpt lat="47.1837" lon="-1.60414">
        <ele>52</ele>
        <time>2021-10-23T15:30:18Z</time>
      </trkpt>
      <trkpt lat="47.18361" lon="-1.60426">
        <ele>52</ele>
        <time>2021-10-23T15:30:20Z</time>
      </trkpt>
      <trkpt lat="47.18352" lon="-1.60438">
        <ele>52</ele>
        <time>2021-10-23T15:30:22Z</time>
      </trkpt>
      <trkpt lat="47.18342" lon="-1.60449">
        <ele>52</ele>
        <time>2021-10-23T15:30:24Z</time>
      </trkpt>
      <trkpt lat="47.18333" lon="-1.60461">
        <ele>52</ele>
        <time>2021-10-23T15:30:26Z</time>
      </trkpt>
      <trkpt lat="47.18323" lon="-1.60472">
        <ele>52</ele>
        <time>2021-10-23T15:30:28Z</time>
      </trkpt>
      <trkpt lat="47.18313" lon="-1.60483">
        <ele>52</ele>
        <time>2021-10-23T15:30:30Z</time>
      </trkpt>
      <trkpt lat="47.18304" lon="-1.60493">
        <ele>52</ele>
        <time>2021-10-23T15:30:32Z</time>
      </trkpt>
      <trkpt lat="47.18294" lon="-1.60503">
        <ele>52</ele>
        <time>2021-10-23T15:30:34Z</time>
      </trkpt>
      <trkpt lat="47.18284" lon="-1.60514">
        <ele>52</ele>
        <time>2021-10-23T15:30:36Z</time>
      </trkpt>
      <trkpt lat="47.18274" lon="-1.60524">
        <ele>53</ele>
        <time>2021-10-23T15:30:38Z</time>
      </trkpt>
      <trkpt lat="47.18263" lon="-1.60534">
        <ele>53</ele>
        <time>2021-10-23T15:30:40Z</time>
      </trkpt>
      <trkpt lat="47.18252" lon="-1.60543">
        <ele>53</ele>
        <time>2021-10-23T15:30:42Z</time>
      </trkpt>
      <trkpt lat="47.18242" lon="-1.60551">
        <ele>53</ele>
        <time>2021-10-23T15:30:44Z</time>
      </trkpt>
      <trkpt lat="47.18231" lon="-1.60558">
        <ele>53</ele>
        <time>2021-10-23T15:30:46Z</time>
      </trkpt>
      <trkpt lat="47.18222" lon="-1.60565">
        <ele>54</ele>
        <time>2021-10-23T15:30:48Z</time>
      </trkpt>
      <trkpt lat="47.18213" lon="-1.60569">
        <ele>54</ele>
        <time>2021-10-23T15:30:50Z</time>
      </trkpt>
      <trkpt lat="47.18204" lon="-1.60573">
        <ele>54</ele>
        <time>2021-10-23T15:30:52Z</time>
      </trkpt>
      <trkpt lat="47.18193" lon="-1.60578">
        <ele>54</ele>
        <time>2021-10-23T15:30:55Z</time>
      </trkpt>
      <trkpt lat="47.1819" lon="-1.60594">
        <ele>54</ele>
        <time>2021-10-23T15:30:58Z</time>
      </trkpt>
      <trkpt lat="47.1818" lon="-1.60603">
        <ele>54</ele>
        <time>2021-10-23T15:31:01Z</time>
      </trkpt>
      <trkpt lat="47.18168" lon="-1.60604">
        <ele>54</ele>
        <time>2021-10-23T15:31:03Z</time>
      </trkpt>
      <trkpt lat="47.18157" lon="-1.60604">
        <ele>54</ele>
        <time>2021-10-23T15:31:05Z</time>
      </trkpt>
      <trkpt lat="47.18146" lon="-1.60603">
        <ele>55</ele>
        <time>2021-10-23T15:31:07Z</time>
      </trkpt>
      <trkpt lat="47.18136" lon="-1.60602">
        <ele>55</ele>
        <time>2021-10-23T15:31:09Z</time>
      </trkpt>
      <trkpt lat="47.18125" lon="-1.606">
        <ele>55</ele>
        <time>2021-10-23T15:31:11Z</time>
      </trkpt>
      <trkpt lat="47.18114" lon="-1.60596">
        <ele>55</ele>
        <time>2021-10-23T15:31:13Z</time>
      </trkpt>
      <trkpt lat="47.18104" lon="-1.60592">
        <ele>55</ele>
        <time>2021-10-23T15:31:15Z</time>
      </trkpt>
      <trkpt lat="47.18093" lon="-1.60587">
        <ele>55</ele>
        <time>2021-10-23T15:31:17Z</time>
      </trkpt>
      <trkpt lat="47.18083" lon="-1.60581">
        <ele>55</ele>
        <time>2021-10-23T15:31:19Z</time>
      </trkpt>
      <trkpt lat="47.18072" lon="-1.60576">
        <ele>55</ele>
        <time>2021-10-23T15:31:21Z</time>
      </trkpt>
      <trkpt lat="47.18063" lon="-1.60571">
        <ele>55</ele>
        <time>2021-10-23T15:31:23Z</time>
      </trkpt>
      <trkpt lat="47.18053" lon="-1.60565">
        <ele>55</ele>
        <time>2021-10-23T15:31:25Z</time>
      </trkpt>
      <trkpt lat="47.18043" lon="-1.60559">
        <ele>55</ele>
        <time>2021-10-23T15:31:27Z</time>
      </trkpt>
      <trkpt lat="47.18033" lon="-1.60555">
        <ele>55</ele>
        <time>2021-10-23T15:31:29Z</time>
      </trkpt>
      <trkpt lat="47.18023" lon="-1.60553">
        <ele>55</ele>
        <time>2021-10-23T15:31:31Z</time>
      </trkpt>
      <trkpt lat="47.18012" lon="-1.60554">
        <ele>56</ele>
        <time>2021-10-23T15:31:33Z</time>
      </trkpt>
      <trkpt lat="47.18002" lon="-1.60556">
        <ele>56</ele>
        <time>2021-10-23T15:31:35Z</time>
      </trkpt>
      <trkpt lat="47.17993" lon="-1.60559">
        <ele>56</ele>
        <time>2021-10-23T15:31:37Z</time>
      </trkpt>
      <trkpt lat="47.17984" lon="-1.60564">
        <ele>56</ele>
        <time>2021-10-23T15:31:40Z</time>
      </trkpt>
      <trkpt lat="47.17974" lon="-1.60567">
        <ele>56</ele>
        <time>2021-10-23T15:32:15Z</time>
      </trkpt>
      <trkpt lat="47.17962" lon="-1.60571">
        <ele>56</ele>
        <time>2021-10-23T15:32:18Z</time>
      </trkpt>
      <trkpt lat="47.17953" lon="-1.60575">
        <ele>56</ele>
        <time>2021-10-23T15:32:20Z</time>
      </trkpt>
      <trkpt lat="47.17945" lon="-1.60582">
        <ele>55</ele>
        <time>2021-10-23T15:32:22Z</time>
      </trkpt>
      <trkpt lat="47.17936" lon="-1.60585">
        <ele>57</ele>
        <time>2021-10-23T15:32:24Z</time>
      </trkpt>
      <trkpt lat="47.17925" lon="-1.60588">
        <ele>57</ele>
        <time>2021-10-23T15:32:27Z</time>
      </trkpt>
      <trkpt lat="47.17915" lon="-1.60588">
        <ele>58</ele>
        <time>2021-10-23T15:32:30Z</time>
      </trkpt>
      <trkpt lat="47.17906" lon="-1.60602">
        <ele>57</ele>
        <time>2021-10-23T15:32:33Z</time>
      </trkpt>
      <trkpt lat="47.17902" lon="-1.60619">
        <ele>57</ele>
        <time>2021-10-23T15:32:35Z</time>
      </trkpt>
      <trkpt lat="47.17897" lon="-1.60635">
        <ele>56</ele>
        <time>2021-10-23T15:32:37Z</time>
      </trkpt>
      <trkpt lat="47.17891" lon="-1.60652">
        <ele>56</ele>
        <time>2021-10-23T15:32:39Z</time>
      </trkpt>
      <trkpt lat="47.17885" lon="-1.60669">
        <ele>55</ele>
        <time>2021-10-23T15:32:41Z</time>
      </trkpt>
      <trkpt lat="47.17881" lon="-1.60686">
        <ele>55</ele>
        <time>2021-10-23T15:32:43Z</time>
      </trkpt>
      <trkpt lat="47.17876" lon="-1.60702">
        <ele>54</ele>
        <time>2021-10-23T15:32:45Z</time>
      </trkpt>
      <trkpt lat="47.17871" lon="-1.60718">
        <ele>54</ele>
        <time>2021-10-23T15:32:47Z</time>
      </trkpt>
      <trkpt lat="47.17868" lon="-1.60735">
        <ele>53</ele>
        <time>2021-10-23T15:32:49Z</time>
      </trkpt>
      <trkpt lat="47.17864" lon="-1.60751">
        <ele>53</ele>
        <time>2021-10-23T15:32:51Z</time>
      </trkpt>
      <trkpt lat="47.17861" lon="-1.60767">
        <ele>54</ele>
        <time>2021-10-23T15:32:53Z</time>
      </trkpt>
      <trkpt lat="47.17857" lon="-1.60782">
        <ele>54</ele>
        <time>2021-10-23T15:32:55Z</time>
      </trkpt>
      <trkpt lat="47.17854" lon="-1.60798">
        <ele>54</ele>
        <time>2021-10-23T15:32:57Z</time>
      </trkpt>
      <trkpt lat="47.1785" lon="-1.60813">
        <ele>54</ele>
        <time>2021-10-23T15:32:59Z</time>
      </trkpt>
      <trkpt lat="47.17846" lon="-1.60829">
        <ele>54</ele>
        <time>2021-10-23T15:33:01Z</time>
      </trkpt>
      <trkpt lat="47.1784" lon="-1.60844">
        <ele>54</ele>
        <time>2021-10-23T15:33:03Z</time>
      </trkpt>
      <trkpt lat="47.17834" lon="-1.60858">
        <ele>54</ele>
        <time>2021-10-23T15:33:05Z</time>
      </trkpt>
      <trkpt lat="47.17826" lon="-1.60871">
        <ele>54</ele>
        <time>2021-10-23T15:33:07Z</time>
      </trkpt>
      <trkpt lat="47.17818" lon="-1.60883">
        <ele>54</ele>
        <time>2021-10-23T15:33:09Z</time>
      </trkpt>
      <trkpt lat="47.17809" lon="-1.60893">
        <ele>54</ele>
        <time>2021-10-23T15:33:11Z</time>
      </trkpt>
      <trkpt lat="47.17798" lon="-1.60902">
        <ele>54</ele>
        <time>2021-10-23T15:33:13Z</time>
      </trkpt>
      <trkpt lat="47.17788" lon="-1.6091">
        <ele>54</ele>
        <time>2021-10-23T15:33:15Z</time>
      </trkpt>
      <trkpt lat="47.17777" lon="-1.60918">
        <ele>54</ele>
        <time>2021-10-23T15:33:17Z</time>
      </trkpt>
      <trkpt lat="47.17767" lon="-1.60926">
        <ele>54</ele>
        <time>2021-10-23T15:33:19Z</time>
      </trkpt>
      <trkpt lat="47.17757" lon="-1.60933">
        <ele>54</ele>
        <time>2021-10-23T15:33:21Z</time>
      </trkpt>
      <trkpt lat="47.17748" lon="-1.6094">
        <ele>53</ele>
        <time>2021-10-23T15:33:23Z</time>
      </trkpt>
      <trkpt lat="47.17738" lon="-1.60947">
        <ele>53</ele>
        <time>2021-10-23T15:33:25Z</time>
      </trkpt>
      <trkpt lat="47.17728" lon="-1.60955">
        <ele>53</ele>
        <time>2021-10-23T15:33:27Z</time>
      </trkpt>
      <trkpt lat="47.17717" lon="-1.60962">
        <ele>53</ele>
        <time>2021-10-23T15:33:29Z</time>
      </trkpt>
      <trkpt lat="47.17707" lon="-1.60968">
        <ele>53</ele>
        <time>2021-10-23T15:33:31Z</time>
      </trkpt>
      <trkpt lat="47.17697" lon="-1.60973">
        <ele>53</ele>
        <time>2021-10-23T15:33:33Z</time>
      </trkpt>
      <trkpt lat="47.17685" lon="-1.60975">
        <ele>54</ele>
        <time>2021-10-23T15:33:35Z</time>
      </trkpt>
      <trkpt lat="47.17673" lon="-1.60973">
        <ele>54</ele>
        <time>2021-10-23T15:33:37Z</time>
      </trkpt>
      <trkpt lat="47.1766" lon="-1.60975">
        <ele>54</ele>
        <time>2021-10-23T15:33:39Z</time>
      </trkpt>
      <trkpt lat="47.1765" lon="-1.60981">
        <ele>54</ele>
        <time>2021-10-23T15:33:41Z</time>
      </trkpt>
      <trkpt lat="47.1764" lon="-1.60991">
        <ele>54</ele>
        <time>2021-10-23T15:33:43Z</time>
      </trkpt>
      <trkpt lat="47.1763" lon="-1.60999">
        <ele>54</ele>
        <time>2021-10-23T15:33:45Z</time>
      </trkpt>
      <trkpt lat="47.1762" lon="-1.61007">
        <ele>53</ele>
        <time>2021-10-23T15:33:47Z</time>
      </trkpt>
      <trkpt lat="47.1761" lon="-1.61016">
        <ele>53</ele>
        <time>2021-10-23T15:33:49Z</time>
      </trkpt>
      <trkpt lat="47.176" lon="-1.61024">
        <ele>53</ele>
        <time>2021-10-23T15:33:51Z</time>
      </trkpt>
      <trkpt lat="47.1759" lon="-1.61034">
        <ele>53</ele>
        <time>2021-10-23T15:33:53Z</time>
      </trkpt>
      <trkpt lat="47.1758" lon="-1.61042">
        <ele>53</ele>
        <time>2021-10-23T15:33:55Z</time>
      </trkpt>
      <trkpt lat="47.1757" lon="-1.61051">
        <ele>54</ele>
        <time>2021-10-23T15:33:57Z</time>
      </trkpt>
      <trkpt lat="47.17561" lon="-1.61059">
        <ele>54</ele>
        <time>2021-10-23T15:33:59Z</time>
      </trkpt>
      <trkpt lat="47.17551" lon="-1.61067">
        <ele>54</ele>
        <time>2021-10-23T15:34:01Z</time>
      </trkpt>
      <trkpt lat="47.17541" lon="-1.61076">
        <ele>54</ele>
        <time>2021-10-23T15:34:03Z</time>
      </trkpt>
      <trkpt lat="47.17531" lon="-1.61085">
        <ele>54</ele>
        <time>2021-10-23T15:34:05Z</time>
      </trkpt>
      <trkpt lat="47.17522" lon="-1.61093">
        <ele>55</ele>
        <time>2021-10-23T15:34:07Z</time>
      </trkpt>
      <trkpt lat="47.17513" lon="-1.61101">
        <ele>55</ele>
        <time>2021-10-23T15:34:09Z</time>
      </trkpt>
      <trkpt lat="47.17503" lon="-1.61104">
        <ele>55</ele>
        <time>2021-10-23T15:34:11Z</time>
      </trkpt>
      <trkpt lat="47.17492" lon="-1.61105">
        <ele>56</ele>
        <time>2021-10-23T15:34:13Z</time>
      </trkpt>
      <trkpt lat="47.17482" lon="-1.61104">
        <ele>55</ele>
        <time>2021-10-23T15:34:15Z</time>
      </trkpt>
      <trkpt lat="47.17472" lon="-1.61099">
        <ele>55</ele>
        <time>2021-10-23T15:34:17Z</time>
      </trkpt>
      <trkpt lat="47.17463" lon="-1.61092">
        <ele>56</ele>
        <time>2021-10-23T15:34:19Z</time>
      </trkpt>
      <trkpt lat="47.17454" lon="-1.61084">
        <ele>57</ele>
        <time>2021-10-23T15:34:21Z</time>
      </trkpt>
      <trkpt lat="47.17447" lon="-1.61075">
        <ele>57</ele>
        <time>2021-10-23T15:34:23Z</time>
      </trkpt>
      <trkpt lat="47.17442" lon="-1.61063">
        <ele>58</ele>
        <time>2021-10-23T15:34:25Z</time>
      </trkpt>
      <trkpt lat="47.17436" lon="-1.61051">
        <ele>58</ele>
        <time>2021-10-23T15:34:27Z</time>
      </trkpt>
      <trkpt lat="47.17432" lon="-1.61039">
        <ele>58</ele>
        <time>2021-10-23T15:34:29Z</time>
      </trkpt>
      <trkpt lat="47.17427" lon="-1.61024">
        <ele>58</ele>
        <time>2021-10-23T15:34:32Z</time>
      </trkpt>
      <trkpt lat="47.17424" lon="-1.61039">
        <ele>57</ele>
        <time>2021-10-23T15:34:38Z</time>
      </trkpt>
      <trkpt lat="47.17428" lon="-1.61055">
        <ele>58</ele>
        <time>2021-10-23T15:34:41Z</time>
      </trkpt>
      <trkpt lat="47.17434" lon="-1.6107">
        <ele>58</ele>
        <time>2021-10-23T15:34:44Z</time>
      </trkpt>
      <trkpt lat="47.1744" lon="-1.61085">
        <ele>59</ele>
        <time>2021-10-23T15:34:47Z</time>
      </trkpt>
      <trkpt lat="47.17447" lon="-1.61102">
        <ele>59</ele>
        <time>2021-10-23T15:34:50Z</time>
      </trkpt>
      <trkpt lat="47.17454" lon="-1.61118">
        <ele>59</ele>
        <time>2021-10-23T15:34:53Z</time>
      </trkpt>
      <trkpt lat="47.17461" lon="-1.61135">
        <ele>60</ele>
        <time>2021-10-23T15:34:56Z</time>
      </trkpt>
      <trkpt lat="47.17467" lon="-1.61151">
        <ele>60</ele>
        <time>2021-10-23T15:34:59Z</time>
      </trkpt>
      <trkpt lat="47.17474" lon="-1.61168">
        <ele>60</ele>
        <time>2021-10-23T15:35:02Z</time>
      </trkpt>
      <trkpt lat="47.17478" lon="-1.61179">
        <ele>60</ele>
        <time>2021-10-23T15:35:04Z</time>
      </trkpt>
      <trkpt lat="47.17483" lon="-1.61192">
        <ele>60</ele>
        <time>2021-10-23T15:35:06Z</time>
      </trkpt>
      <trkpt lat="47.17488" lon="-1.61204">
        <ele>59</ele>
        <time>2021-10-23T15:35:08Z</time>
      </trkpt>
      <trkpt lat="47.17494" lon="-1.6122">
        <ele>59</ele>
        <time>2021-10-23T15:35:11Z</time>
      </trkpt>
      <trkpt lat="47.17499" lon="-1.61231">
        <ele>59</ele>
        <time>2021-10-23T15:35:13Z</time>
      </trkpt>
      <trkpt lat="47.17505" lon="-1.61243">
        <ele>59</ele>
        <time>2021-10-23T15:35:15Z</time>
      </trkpt>
      <trkpt lat="47.17511" lon="-1.61254">
        <ele>60</ele>
        <time>2021-10-23T15:35:17Z</time>
      </trkpt>
      <trkpt lat="47.17517" lon="-1.61265">
        <ele>60</ele>
        <time>2021-10-23T15:35:19Z</time>
      </trkpt>
      <trkpt lat="47.17524" lon="-1.61274">
        <ele>60</ele>
        <time>2021-10-23T15:35:21Z</time>
      </trkpt>
      <trkpt lat="47.17531" lon="-1.61282">
        <ele>59</ele>
        <time>2021-10-23T15:35:23Z</time>
      </trkpt>
      <trkpt lat="47.17543" lon="-1.61289">
        <ele>60</ele>
        <time>2021-10-23T15:35:26Z</time>
      </trkpt>
      <trkpt lat="47.17551" lon="-1.61296">
        <ele>60</ele>
        <time>2021-10-23T15:35:28Z</time>
      </trkpt>
      <trkpt lat="47.17559" lon="-1.61306">
        <ele>60</ele>
        <time>2021-10-23T15:35:30Z</time>
      </trkpt>
      <trkpt lat="47.17562" lon="-1.61323">
        <ele>60</ele>
        <time>2021-10-23T15:35:32Z</time>
      </trkpt>
      <trkpt lat="47.17559" lon="-1.61339">
        <ele>60</ele>
        <time>2021-10-23T15:35:34Z</time>
      </trkpt>
      <trkpt lat="47.17551" lon="-1.61351">
        <ele>61</ele>
        <time>2021-10-23T15:35:36Z</time>
      </trkpt>
      <trkpt lat="47.17541" lon="-1.61359">
        <ele>61</ele>
        <time>2021-10-23T15:35:38Z</time>
      </trkpt>
      <trkpt lat="47.17533" lon="-1.61369">
        <ele>61</ele>
        <time>2021-10-23T15:35:40Z</time>
      </trkpt>
      <trkpt lat="47.17528" lon="-1.61383">
        <ele>61</ele>
        <time>2021-10-23T15:35:42Z</time>
      </trkpt>
      <trkpt lat="47.17525" lon="-1.61397">
        <ele>62</ele>
        <time>2021-10-23T15:35:44Z</time>
      </trkpt>
      <trkpt lat="47.17522" lon="-1.6141">
        <ele>62</ele>
        <time>2021-10-23T15:35:46Z</time>
      </trkpt>
      <trkpt lat="47.1752" lon="-1.61423">
        <ele>63</ele>
        <time>2021-10-23T15:35:48Z</time>
      </trkpt>
      <trkpt lat="47.17517" lon="-1.61435">
        <ele>63</ele>
        <time>2021-10-23T15:35:50Z</time>
      </trkpt>
      <trkpt lat="47.17512" lon="-1.61452">
        <ele>65</ele>
        <time>2021-10-23T15:35:53Z</time>
      </trkpt>
      <trkpt lat="47.17501" lon="-1.61463">
        <ele>66</ele>
        <time>2021-10-23T15:35:56Z</time>
      </trkpt>
      <trkpt lat="47.17484" lon="-1.6147">
        <ele>67</ele>
        <time>2021-10-23T15:36:00Z</time>
      </trkpt>
      <trkpt lat="47.17467" lon="-1.61478">
        <ele>68</ele>
        <time>2021-10-23T15:36:04Z</time>
      </trkpt>
      <trkpt lat="47.17454" lon="-1.61484">
        <ele>68</ele>
        <time>2021-10-23T15:36:07Z</time>
      </trkpt>
      <trkpt lat="47.17438" lon="-1.61494">
        <ele>69</ele>
        <time>2021-10-23T15:36:11Z</time>
      </trkpt>
      <trkpt lat="47.17427" lon="-1.61501">
        <ele>69</ele>
        <time>2021-10-23T15:36:14Z</time>
      </trkpt>
      <trkpt lat="47.17415" lon="-1.61509">
        <ele>70</ele>
        <time>2021-10-23T15:36:17Z</time>
      </trkpt>
      <trkpt lat="47.174" lon="-1.6152">
        <ele>70</ele>
        <time>2021-10-23T15:36:21Z</time>
      </trkpt>
      <trkpt lat="47.17389" lon="-1.61529">
        <ele>70</ele>
        <time>2021-10-23T15:36:24Z</time>
      </trkpt>
      <trkpt lat="47.17378" lon="-1.61539">
        <ele>71</ele>
        <time>2021-10-23T15:36:27Z</time>
      </trkpt>
      <trkpt lat="47.17367" lon="-1.6155">
        <ele>71</ele>
        <time>2021-10-23T15:36:30Z</time>
      </trkpt>
      <trkpt lat="47.17357" lon="-1.6156">
        <ele>72</ele>
        <time>2021-10-23T15:36:33Z</time>
      </trkpt>
      <trkpt lat="47.17348" lon="-1.61573">
        <ele>72</ele>
        <time>2021-10-23T15:36:36Z</time>
      </trkpt>
      <trkpt lat="47.17338" lon="-1.61585">
        <ele>71</ele>
        <time>2021-10-23T15:36:39Z</time>
      </trkpt>
      <trkpt lat="47.17327" lon="-1.61597">
        <ele>72</ele>
        <time>2021-10-23T15:36:42Z</time>
      </trkpt>
      <trkpt lat="47.1732" lon="-1.61606">
        <ele>73</ele>
        <time>2021-10-23T15:36:44Z</time>
      </trkpt>
      <trkpt lat="47.17313" lon="-1.61616">
        <ele>73</ele>
        <time>2021-10-23T15:36:46Z</time>
      </trkpt>
      <trkpt lat="47.17307" lon="-1.61628">
        <ele>73</ele>
        <time>2021-10-23T15:36:48Z</time>
      </trkpt>
      <trkpt lat="47.173" lon="-1.61639">
        <ele>73</ele>
        <time>2021-10-23T15:36:50Z</time>
      </trkpt>
      <trkpt lat="47.17293" lon="-1.61651">
        <ele>73</ele>
        <time>2021-10-23T15:36:52Z</time>
      </trkpt>
      <trkpt lat="47.17286" lon="-1.61663">
        <ele>73</ele>
        <time>2021-10-23T15:36:54Z</time>
      </trkpt>
      <trkpt lat="47.1728" lon="-1.61676">
        <ele>73</ele>
        <time>2021-10-23T15:36:56Z</time>
      </trkpt>
      <trkpt lat="47.17274" lon="-1.61689">
        <ele>73</ele>
        <time>2021-10-23T15:36:58Z</time>
      </trkpt>
      <trkpt lat="47.17268" lon="-1.61702">
        <ele>72</ele>
        <time>2021-10-23T15:37:00Z</time>
      </trkpt>
      <trkpt lat="47.17261" lon="-1.61715">
        <ele>72</ele>
        <time>2021-10-23T15:37:02Z</time>
      </trkpt>
      <trkpt lat="47.17255" lon="-1.61728">
        <ele>72</ele>
        <time>2021-10-23T15:37:04Z</time>
      </trkpt>
      <trkpt lat="47.1725" lon="-1.61742">
        <ele>71</ele>
        <time>2021-10-23T15:37:06Z</time>
      </trkpt>
      <trkpt lat="47.17248" lon="-1.61757">
        <ele>71</ele>
        <time>2021-10-23T15:37:08Z</time>
      </trkpt>
      <trkpt lat="47.17245" lon="-1.61772">
        <ele>71</ele>
        <time>2021-10-23T15:37:10Z</time>
      </trkpt>
      <trkpt lat="47.17238" lon="-1.61783">
        <ele>71</ele>
        <time>2021-10-23T15:37:12Z</time>
      </trkpt>
      <trkpt lat="47.17227" lon="-1.61792">
        <ele>70</ele>
        <time>2021-10-23T15:37:14Z</time>
      </trkpt>
      <trkpt lat="47.17218" lon="-1.618">
        <ele>70</ele>
        <time>2021-10-23T15:37:16Z</time>
      </trkpt>
      <trkpt lat="47.17208" lon="-1.61808">
        <ele>70</ele>
        <time>2021-10-23T15:37:18Z</time>
      </trkpt>
      <trkpt lat="47.17199" lon="-1.61817">
        <ele>71</ele>
        <time>2021-10-23T15:37:20Z</time>
      </trkpt>
      <trkpt lat="47.1719" lon="-1.61825">
        <ele>71</ele>
        <time>2021-10-23T15:37:22Z</time>
      </trkpt>
      <trkpt lat="47.17181" lon="-1.61834">
        <ele>71</ele>
        <time>2021-10-23T15:37:24Z</time>
      </trkpt>
      <trkpt lat="47.17172" lon="-1.61842">
        <ele>71</ele>
        <time>2021-10-23T15:37:26Z</time>
      </trkpt>
      <trkpt lat="47.17163" lon="-1.61851">
        <ele>71</ele>
        <time>2021-10-23T15:37:28Z</time>
      </trkpt>
      <trkpt lat="47.17153" lon="-1.61859">
        <ele>71</ele>
        <time>2021-10-23T15:37:30Z</time>
      </trkpt>
      <trkpt lat="47.17144" lon="-1.61868">
        <ele>71</ele>
        <time>2021-10-23T15:37:32Z</time>
      </trkpt>
      <trkpt lat="47.17135" lon="-1.61876">
        <ele>72</ele>
        <time>2021-10-23T15:37:34Z</time>
      </trkpt>
      <trkpt lat="47.17125" lon="-1.61885">
        <ele>71</ele>
        <time>2021-10-23T15:37:36Z</time>
      </trkpt>
      <trkpt lat="47.17117" lon="-1.61894">
        <ele>71</ele>
        <time>2021-10-23T15:37:38Z</time>
      </trkpt>
      <trkpt lat="47.17108" lon="-1.61903">
        <ele>71</ele>
        <time>2021-10-23T15:37:40Z</time>
      </trkpt>
      <trkpt lat="47.171" lon="-1.61912">
        <ele>71</ele>
        <time>2021-10-23T15:37:42Z</time>
      </trkpt>
      <trkpt lat="47.17092" lon="-1.61919">
        <ele>71</ele>
        <time>2021-10-23T15:37:44Z</time>
      </trkpt>
      <trkpt lat="47.17082" lon="-1.61929">
        <ele>71</ele>
        <time>2021-10-23T15:37:47Z</time>
      </trkpt>
      <trkpt lat="47.17074" lon="-1.61937">
        <ele>71</ele>
        <time>2021-10-23T15:37:49Z</time>
      </trkpt>
      <trkpt lat="47.17066" lon="-1.61946">
        <ele>72</ele>
        <time>2021-10-23T15:37:51Z</time>
      </trkpt>
      <trkpt lat="47.17058" lon="-1.61956">
        <ele>72</ele>
        <time>2021-10-23T15:37:53Z</time>
      </trkpt>
      <trkpt lat="47.1705" lon="-1.61966">
        <ele>72</ele>
        <time>2021-10-23T15:37:55Z</time>
      </trkpt>
      <trkpt lat="47.17043" lon="-1.61978">
        <ele>72</ele>
        <time>2021-10-23T15:37:57Z</time>
      </trkpt>
      <trkpt lat="47.17035" lon="-1.61989">
        <ele>72</ele>
        <time>2021-10-23T15:37:59Z</time>
      </trkpt>
      <trkpt lat="47.17028" lon="-1.62">
        <ele>72</ele>
        <time>2021-10-23T15:38:01Z</time>
      </trkpt>
      <trkpt lat="47.17019" lon="-1.62011">
        <ele>72</ele>
        <time>2021-10-23T15:38:03Z</time>
      </trkpt>
      <trkpt lat="47.17012" lon="-1.62022">
        <ele>71</ele>
        <time>2021-10-23T15:38:05Z</time>
      </trkpt>
      <trkpt lat="47.17005" lon="-1.62034">
        <ele>71</ele>
        <time>2021-10-23T15:38:07Z</time>
      </trkpt>
      <trkpt lat="47.16998" lon="-1.62047">
        <ele>71</ele>
        <time>2021-10-23T15:38:09Z</time>
      </trkpt>
      <trkpt lat="47.16991" lon="-1.62059">
        <ele>71</ele>
        <time>2021-10-23T15:38:11Z</time>
      </trkpt>
      <trkpt lat="47.16984" lon="-1.62071">
        <ele>71</ele>
        <time>2021-10-23T15:38:13Z</time>
      </trkpt>
      <trkpt lat="47.16977" lon="-1.62083">
        <ele>72</ele>
        <time>2021-10-23T15:38:15Z</time>
      </trkpt>
      <trkpt lat="47.1697" lon="-1.62095">
        <ele>71</ele>
        <time>2021-10-23T15:38:17Z</time>
      </trkpt>
      <trkpt lat="47.16964" lon="-1.62108">
        <ele>72</ele>
        <time>2021-10-23T15:38:19Z</time>
      </trkpt>
      <trkpt lat="47.16957" lon="-1.6212">
        <ele>71</ele>
        <time>2021-10-23T15:38:21Z</time>
      </trkpt>
      <trkpt lat="47.16951" lon="-1.62133">
        <ele>71</ele>
        <time>2021-10-23T15:38:23Z</time>
      </trkpt>
      <trkpt lat="47.16945" lon="-1.62145">
        <ele>71</ele>
        <time>2021-10-23T15:38:25Z</time>
      </trkpt>
      <trkpt lat="47.16939" lon="-1.62157">
        <ele>71</ele>
        <time>2021-10-23T15:38:27Z</time>
      </trkpt>
      <trkpt lat="47.16933" lon="-1.6217">
        <ele>71</ele>
        <time>2021-10-23T15:38:29Z</time>
      </trkpt>
      <trkpt lat="47.16927" lon="-1.62183">
        <ele>72</ele>
        <time>2021-10-23T15:38:31Z</time>
      </trkpt>
      <trkpt lat="47.1692" lon="-1.62194">
        <ele>71</ele>
        <time>2021-10-23T15:38:33Z</time>
      </trkpt>
      <trkpt lat="47.16913" lon="-1.62206">
        <ele>71</ele>
        <time>2021-10-23T15:38:35Z</time>
      </trkpt>
      <trkpt lat="47.16906" lon="-1.62216">
        <ele>72</ele>
        <time>2021-10-23T15:38:37Z</time>
      </trkpt>
      <trkpt lat="47.16898" lon="-1.62227">
        <ele>72</ele>
        <time>2021-10-23T15:38:39Z</time>
      </trkpt>
      <trkpt lat="47.16889" lon="-1.62237">
        <ele>72</ele>
        <time>2021-10-23T15:38:41Z</time>
      </trkpt>
      <trkpt lat="47.16881" lon="-1.62247">
        <ele>72</ele>
        <time>2021-10-23T15:38:43Z</time>
      </trkpt>
      <trkpt lat="47.16874" lon="-1.62257">
        <ele>72</ele>
        <time>2021-10-23T15:38:45Z</time>
      </trkpt>
      <trkpt lat="47.16866" lon="-1.62267">
        <ele>72</ele>
        <time>2021-10-23T15:38:47Z</time>
      </trkpt>
      <trkpt lat="47.16858" lon="-1.62277">
        <ele>72</ele>
        <time>2021-10-23T15:38:49Z</time>
      </trkpt>
      <trkpt lat="47.16849" lon="-1.62287">
        <ele>71</ele>
        <time>2021-10-23T15:38:51Z</time>
      </trkpt>
      <trkpt lat="47.16842" lon="-1.62297">
        <ele>71</ele>
        <time>2021-10-23T15:38:53Z</time>
      </trkpt>
      <trkpt lat="47.16833" lon="-1.62307">
        <ele>72</ele>
        <time>2021-10-23T15:38:55Z</time>
      </trkpt>
      <trkpt lat="47.16825" lon="-1.62315">
        <ele>72</ele>
        <time>2021-10-23T15:38:57Z</time>
      </trkpt>
      <trkpt lat="47.16815" lon="-1.62321">
        <ele>71</ele>
        <time>2021-10-23T15:38:59Z</time>
      </trkpt>
      <trkpt lat="47.16805" lon="-1.62328">
        <ele>71</ele>
        <time>2021-10-23T15:39:01Z</time>
      </trkpt>
      <trkpt lat="47.16795" lon="-1.62333">
        <ele>71</ele>
        <time>2021-10-23T15:39:03Z</time>
      </trkpt>
      <trkpt lat="47.16785" lon="-1.62339">
        <ele>71</ele>
        <time>2021-10-23T15:39:05Z</time>
      </trkpt>
      <trkpt lat="47.16775" lon="-1.62345">
        <ele>71</ele>
        <time>2021-10-23T15:39:07Z</time>
      </trkpt>
      <trkpt lat="47.16764" lon="-1.62352">
        <ele>71</ele>
        <time>2021-10-23T15:39:09Z</time>
      </trkpt>
      <trkpt lat="47.16754" lon="-1.6236">
        <ele>71</ele>
        <time>2021-10-23T15:39:11Z</time>
      </trkpt>
      <trkpt lat="47.16745" lon="-1.6237">
        <ele>71</ele>
        <time>2021-10-23T15:39:13Z</time>
      </trkpt>
      <trkpt lat="47.16737" lon="-1.62383">
        <ele>70</ele>
        <time>2021-10-23T15:39:15Z</time>
      </trkpt>
      <trkpt lat="47.16733" lon="-1.62397">
        <ele>70</ele>
        <time>2021-10-23T15:39:17Z</time>
      </trkpt>
      <trkpt lat="47.16731" lon="-1.62413">
        <ele>70</ele>
        <time>2021-10-23T15:39:19Z</time>
      </trkpt>
      <trkpt lat="47.16729" lon="-1.62428">
        <ele>70</ele>
        <time>2021-10-23T15:39:21Z</time>
      </trkpt>
      <trkpt lat="47.16726" lon="-1.62442">
        <ele>70</ele>
        <time>2021-10-23T15:39:23Z</time>
      </trkpt>
      <trkpt lat="47.16722" lon="-1.62457">
        <ele>70</ele>
        <time>2021-10-23T15:39:25Z</time>
      </trkpt>
      <trkpt lat="47.16719" lon="-1.62472">
        <ele>70</ele>
        <time>2021-10-23T15:39:27Z</time>
      </trkpt>
      <trkpt lat="47.16716" lon="-1.62486">
        <ele>69</ele>
        <time>2021-10-23T15:39:29Z</time>
      </trkpt>
      <trkpt lat="47.16728" lon="-1.62498">
        <ele>69</ele>
        <time>2021-10-23T15:39:32Z</time>
      </trkpt>
      <trkpt lat="47.16737" lon="-1.62502">
        <ele>69</ele>
        <time>2021-10-23T15:39:34Z</time>
      </trkpt>
      <trkpt lat="47.16748" lon="-1.62507">
        <ele>69</ele>
        <time>2021-10-23T15:39:36Z</time>
      </trkpt>
      <trkpt lat="47.16758" lon="-1.62512">
        <ele>69</ele>
        <time>2021-10-23T15:39:38Z</time>
      </trkpt>
      <trkpt lat="47.16768" lon="-1.62518">
        <ele>70</ele>
        <time>2021-10-23T15:39:40Z</time>
      </trkpt>
      <trkpt lat="47.16778" lon="-1.62525">
        <ele>70</ele>
        <time>2021-10-23T15:39:42Z</time>
      </trkpt>
      <trkpt lat="47.16787" lon="-1.62531">
        <ele>70</ele>
        <time>2021-10-23T15:39:44Z</time>
      </trkpt>
      <trkpt lat="47.16796" lon="-1.62537">
        <ele>70</ele>
        <time>2021-10-23T15:39:46Z</time>
      </trkpt>
      <trkpt lat="47.16806" lon="-1.62544">
        <ele>70</ele>
        <time>2021-10-23T15:39:48Z</time>
      </trkpt>
      <trkpt lat="47.16815" lon="-1.62552">
        <ele>70</ele>
        <time>2021-10-23T15:39:50Z</time>
      </trkpt>
      <trkpt lat="47.16823" lon="-1.62561">
        <ele>70</ele>
        <time>2021-10-23T15:39:52Z</time>
      </trkpt>
      <trkpt lat="47.1683" lon="-1.62573">
        <ele>70</ele>
        <time>2021-10-23T15:39:54Z</time>
      </trkpt>
      <trkpt lat="47.16831" lon="-1.62587">
        <ele>70</ele>
        <time>2021-10-23T15:39:56Z</time>
      </trkpt>
      <trkpt lat="47.16825" lon="-1.62599">
        <ele>70</ele>
        <time>2021-10-23T15:39:58Z</time>
      </trkpt>
      <trkpt lat="47.16818" lon="-1.6261">
        <ele>70</ele>
        <time>2021-10-23T15:40:00Z</time>
      </trkpt>
      <trkpt lat="47.16812" lon="-1.62621">
        <ele>70</ele>
        <time>2021-10-23T15:40:02Z</time>
      </trkpt>
      <trkpt lat="47.16805" lon="-1.62631">
        <ele>70</ele>
        <time>2021-10-23T15:40:04Z</time>
      </trkpt>
      <trkpt lat="47.16799" lon="-1.62642">
        <ele>71</ele>
        <time>2021-10-23T15:40:06Z</time>
      </trkpt>
      <trkpt lat="47.16791" lon="-1.62655">
        <ele>71</ele>
        <time>2021-10-23T15:40:09Z</time>
      </trkpt>
      <trkpt lat="47.16781" lon="-1.62658">
        <ele>71</ele>
        <time>2021-10-23T15:40:13Z</time>
      </trkpt>
    </trkseg>
  </trk>
</gpx>